<?xml version='1.0' encoding='UTF-8' ?>
<gpx version="1.1" creator="S Health_0.2" xmlns="http://www.topografix.com/GPX/1/1" xmlns:gpxtpx="http://www.garmin.com/xmlschemas/TrackPointExtension/v1" xmlns:xsi="http://www.w3.org/2001/XMLSchema-instance" xsi:schemaLocation="http://www.topografix.com/GPX/1/1 http://www.topografix.com/GPX/1/1/gpx.xsd http://www.garmin.com/xmlschemas/TrackPointExtension/v1 http://www.garmin.com/xmlschemas/TrackPointExtensionv1.xsd">
  <metadate>2022-02-27T09:02:29Z</metadate>
  <trk>
    <name>EtangLivry_20220227_100228.gpx</name>
    <trkseg>
      <trkpt lat="47.538197" lon="2.0364878">
        <ele>165.0</ele>
        <time>2022-02-27T09:02:29Z</time>
      </trkpt>
      <trkpt lat="47.538197" lon="2.0364878">
        <ele>165.0</ele>
        <time>2022-02-27T09:02:30Z</time>
      </trkpt>
      <trkpt lat="47.538185" lon="2.0364797">
        <ele>162.0</ele>
        <time>2022-02-27T09:02:31Z</time>
      </trkpt>
      <trkpt lat="47.53817" lon="2.0364723">
        <ele>160.0</ele>
        <time>2022-02-27T09:02:33Z</time>
      </trkpt>
      <trkpt lat="47.538162" lon="2.036479">
        <ele>159.0</ele>
        <time>2022-02-27T09:02:35Z</time>
      </trkpt>
      <trkpt lat="47.538155" lon="2.0364876">
        <ele>159.0</ele>
        <time>2022-02-27T09:02:36Z</time>
      </trkpt>
      <trkpt lat="47.538147" lon="2.0364904">
        <ele>159.0</ele>
        <time>2022-02-27T09:02:37Z</time>
      </trkpt>
      <trkpt lat="47.538136" lon="2.0364947">
        <ele>158.0</ele>
        <time>2022-02-27T09:02:38Z</time>
      </trkpt>
      <trkpt lat="47.53813" lon="2.0364985">
        <ele>158.0</ele>
        <time>2022-02-27T09:02:39Z</time>
      </trkpt>
      <trkpt lat="47.53812" lon="2.0365005">
        <ele>158.0</ele>
        <time>2022-02-27T09:02:40Z</time>
      </trkpt>
      <trkpt lat="47.538113" lon="2.0365045">
        <ele>158.0</ele>
        <time>2022-02-27T09:02:41Z</time>
      </trkpt>
      <trkpt lat="47.538094" lon="2.0365114">
        <ele>158.0</ele>
        <time>2022-02-27T09:02:43Z</time>
      </trkpt>
      <trkpt lat="47.53807" lon="2.0365126">
        <ele>158.0</ele>
        <time>2022-02-27T09:02:45Z</time>
      </trkpt>
      <trkpt lat="47.538063" lon="2.0365198">
        <ele>158.0</ele>
        <time>2022-02-27T09:02:46Z</time>
      </trkpt>
      <trkpt lat="47.53805" lon="2.0365238">
        <ele>159.0</ele>
        <time>2022-02-27T09:02:47Z</time>
      </trkpt>
      <trkpt lat="47.538036" lon="2.036525">
        <ele>160.0</ele>
        <time>2022-02-27T09:02:48Z</time>
      </trkpt>
      <trkpt lat="47.538025" lon="2.0365255">
        <ele>160.0</ele>
        <time>2022-02-27T09:02:49Z</time>
      </trkpt>
      <trkpt lat="47.538013" lon="2.0365324">
        <ele>160.0</ele>
        <time>2022-02-27T09:02:50Z</time>
      </trkpt>
      <trkpt lat="47.538002" lon="2.0365348">
        <ele>160.0</ele>
        <time>2022-02-27T09:02:51Z</time>
      </trkpt>
      <trkpt lat="47.53799" lon="2.0365367">
        <ele>160.0</ele>
        <time>2022-02-27T09:02:52Z</time>
      </trkpt>
      <trkpt lat="47.537975" lon="2.036549">
        <ele>160.0</ele>
        <time>2022-02-27T09:02:53Z</time>
      </trkpt>
      <trkpt lat="47.537964" lon="2.0365572">
        <ele>159.0</ele>
        <time>2022-02-27T09:02:54Z</time>
      </trkpt>
      <trkpt lat="47.537956" lon="2.0365682">
        <ele>159.0</ele>
        <time>2022-02-27T09:02:55Z</time>
      </trkpt>
      <trkpt lat="47.537945" lon="2.0365827">
        <ele>159.0</ele>
        <time>2022-02-27T09:02:56Z</time>
      </trkpt>
      <trkpt lat="47.537933" lon="2.0366015">
        <ele>160.0</ele>
        <time>2022-02-27T09:02:58Z</time>
      </trkpt>
      <trkpt lat="47.53793" lon="2.036615">
        <ele>160.0</ele>
        <time>2022-02-27T09:02:59Z</time>
      </trkpt>
      <trkpt lat="47.537926" lon="2.0366356">
        <ele>160.0</ele>
        <time>2022-02-27T09:03:00Z</time>
      </trkpt>
      <trkpt lat="47.537926" lon="2.0366495">
        <ele>160.0</ele>
        <time>2022-02-27T09:03:01Z</time>
      </trkpt>
      <trkpt lat="47.537926" lon="2.0366633">
        <ele>160.0</ele>
        <time>2022-02-27T09:03:02Z</time>
      </trkpt>
      <trkpt lat="47.537926" lon="2.036676">
        <ele>160.0</ele>
        <time>2022-02-27T09:03:03Z</time>
      </trkpt>
      <trkpt lat="47.537926" lon="2.0366893">
        <ele>160.0</ele>
        <time>2022-02-27T09:03:04Z</time>
      </trkpt>
      <trkpt lat="47.537926" lon="2.0367098">
        <ele>160.0</ele>
        <time>2022-02-27T09:03:05Z</time>
      </trkpt>
      <trkpt lat="47.537926" lon="2.0367303">
        <ele>160.0</ele>
        <time>2022-02-27T09:03:06Z</time>
      </trkpt>
      <trkpt lat="47.537926" lon="2.0367696">
        <ele>160.0</ele>
        <time>2022-02-27T09:03:08Z</time>
      </trkpt>
      <trkpt lat="47.537933" lon="2.0368042">
        <ele>160.0</ele>
        <time>2022-02-27T09:03:10Z</time>
      </trkpt>
      <trkpt lat="47.537933" lon="2.036821">
        <ele>160.0</ele>
        <time>2022-02-27T09:03:11Z</time>
      </trkpt>
      <trkpt lat="47.537933" lon="2.0368402">
        <ele>160.0</ele>
        <time>2022-02-27T09:03:12Z</time>
      </trkpt>
      <trkpt lat="47.537933" lon="2.0368562">
        <ele>160.0</ele>
        <time>2022-02-27T09:03:13Z</time>
      </trkpt>
      <trkpt lat="47.537933" lon="2.0368743">
        <ele>160.0</ele>
        <time>2022-02-27T09:03:14Z</time>
      </trkpt>
      <trkpt lat="47.53793" lon="2.036889">
        <ele>160.0</ele>
        <time>2022-02-27T09:03:15Z</time>
      </trkpt>
      <trkpt lat="47.53793" lon="2.036902">
        <ele>160.0</ele>
        <time>2022-02-27T09:03:16Z</time>
      </trkpt>
      <trkpt lat="47.537933" lon="2.0369163">
        <ele>160.0</ele>
        <time>2022-02-27T09:03:17Z</time>
      </trkpt>
      <trkpt lat="47.537937" lon="2.0369303">
        <ele>160.0</ele>
        <time>2022-02-27T09:03:18Z</time>
      </trkpt>
      <trkpt lat="47.537937" lon="2.0369482">
        <ele>160.0</ele>
        <time>2022-02-27T09:03:19Z</time>
      </trkpt>
      <trkpt lat="47.537937" lon="2.036969">
        <ele>160.0</ele>
        <time>2022-02-27T09:03:20Z</time>
      </trkpt>
      <trkpt lat="47.537937" lon="2.0369844">
        <ele>161.0</ele>
        <time>2022-02-27T09:03:21Z</time>
      </trkpt>
      <trkpt lat="47.53794" lon="2.0370018">
        <ele>160.0</ele>
        <time>2022-02-27T09:03:22Z</time>
      </trkpt>
      <trkpt lat="47.53794" lon="2.0370138">
        <ele>161.0</ele>
        <time>2022-02-27T09:03:23Z</time>
      </trkpt>
      <trkpt lat="47.537945" lon="2.0370264">
        <ele>161.0</ele>
        <time>2022-02-27T09:03:24Z</time>
      </trkpt>
      <trkpt lat="47.537945" lon="2.03704">
        <ele>161.0</ele>
        <time>2022-02-27T09:03:25Z</time>
      </trkpt>
      <trkpt lat="47.537945" lon="2.0370536">
        <ele>161.0</ele>
        <time>2022-02-27T09:03:26Z</time>
      </trkpt>
      <trkpt lat="47.537945" lon="2.0370686">
        <ele>161.0</ele>
        <time>2022-02-27T09:03:27Z</time>
      </trkpt>
      <trkpt lat="47.53795" lon="2.0370877">
        <ele>161.0</ele>
        <time>2022-02-27T09:03:28Z</time>
      </trkpt>
      <trkpt lat="47.53795" lon="2.037101">
        <ele>161.0</ele>
        <time>2022-02-27T09:03:29Z</time>
      </trkpt>
      <trkpt lat="47.537945" lon="2.0371146">
        <ele>161.0</ele>
        <time>2022-02-27T09:03:30Z</time>
      </trkpt>
      <trkpt lat="47.537945" lon="2.0371313">
        <ele>161.0</ele>
        <time>2022-02-27T09:03:31Z</time>
      </trkpt>
      <trkpt lat="47.537945" lon="2.0371473">
        <ele>161.0</ele>
        <time>2022-02-27T09:03:32Z</time>
      </trkpt>
      <trkpt lat="47.53794" lon="2.0371573">
        <ele>161.0</ele>
        <time>2022-02-27T09:03:33Z</time>
      </trkpt>
      <trkpt lat="47.53794" lon="2.0371711">
        <ele>161.0</ele>
        <time>2022-02-27T09:03:34Z</time>
      </trkpt>
      <trkpt lat="47.53794" lon="2.0371833">
        <ele>161.0</ele>
        <time>2022-02-27T09:03:35Z</time>
      </trkpt>
      <trkpt lat="47.53794" lon="2.0371985">
        <ele>162.0</ele>
        <time>2022-02-27T09:03:36Z</time>
      </trkpt>
      <trkpt lat="47.53794" lon="2.0372164">
        <ele>163.0</ele>
        <time>2022-02-27T09:03:37Z</time>
      </trkpt>
      <trkpt lat="47.53794" lon="2.0372343">
        <ele>163.0</ele>
        <time>2022-02-27T09:03:38Z</time>
      </trkpt>
      <trkpt lat="47.537945" lon="2.0372524">
        <ele>163.0</ele>
        <time>2022-02-27T09:03:39Z</time>
      </trkpt>
      <trkpt lat="47.53795" lon="2.0372667">
        <ele>163.0</ele>
        <time>2022-02-27T09:03:40Z</time>
      </trkpt>
      <trkpt lat="47.53795" lon="2.037282">
        <ele>162.0</ele>
        <time>2022-02-27T09:03:41Z</time>
      </trkpt>
      <trkpt lat="47.537945" lon="2.0373018">
        <ele>162.0</ele>
        <time>2022-02-27T09:03:42Z</time>
      </trkpt>
      <trkpt lat="47.53795" lon="2.037323">
        <ele>162.0</ele>
        <time>2022-02-27T09:03:43Z</time>
      </trkpt>
      <trkpt lat="47.53795" lon="2.037337">
        <ele>162.0</ele>
        <time>2022-02-27T09:03:44Z</time>
      </trkpt>
      <trkpt lat="47.53795" lon="2.037357">
        <ele>162.0</ele>
        <time>2022-02-27T09:03:45Z</time>
      </trkpt>
      <trkpt lat="47.537952" lon="2.0373764">
        <ele>162.0</ele>
        <time>2022-02-27T09:03:46Z</time>
      </trkpt>
      <trkpt lat="47.53795" lon="2.0373936">
        <ele>161.0</ele>
        <time>2022-02-27T09:03:47Z</time>
      </trkpt>
      <trkpt lat="47.53795" lon="2.0374115">
        <ele>160.0</ele>
        <time>2022-02-27T09:03:48Z</time>
      </trkpt>
      <trkpt lat="47.537945" lon="2.037429">
        <ele>160.0</ele>
        <time>2022-02-27T09:03:49Z</time>
      </trkpt>
      <trkpt lat="47.537937" lon="2.037446">
        <ele>159.0</ele>
        <time>2022-02-27T09:03:50Z</time>
      </trkpt>
      <trkpt lat="47.53793" lon="2.03746">
        <ele>158.0</ele>
        <time>2022-02-27T09:03:51Z</time>
      </trkpt>
      <trkpt lat="47.53792" lon="2.0374715">
        <ele>159.0</ele>
        <time>2022-02-27T09:03:52Z</time>
      </trkpt>
      <trkpt lat="47.537907" lon="2.0374794">
        <ele>159.0</ele>
        <time>2022-02-27T09:03:53Z</time>
      </trkpt>
      <trkpt lat="47.5379" lon="2.0374873">
        <ele>158.0</ele>
        <time>2022-02-27T09:03:54Z</time>
      </trkpt>
      <trkpt lat="47.537888" lon="2.0374932">
        <ele>158.0</ele>
        <time>2022-02-27T09:03:55Z</time>
      </trkpt>
      <trkpt lat="47.53788" lon="2.0374994">
        <ele>158.0</ele>
        <time>2022-02-27T09:03:56Z</time>
      </trkpt>
      <trkpt lat="47.53787" lon="2.0375013">
        <ele>158.0</ele>
        <time>2022-02-27T09:03:57Z</time>
      </trkpt>
      <trkpt lat="47.537857" lon="2.0375054">
        <ele>157.0</ele>
        <time>2022-02-27T09:03:58Z</time>
      </trkpt>
      <trkpt lat="47.537846" lon="2.037511">
        <ele>157.0</ele>
        <time>2022-02-27T09:03:59Z</time>
      </trkpt>
      <trkpt lat="47.537834" lon="2.0375195">
        <ele>158.0</ele>
        <time>2022-02-27T09:04:00Z</time>
      </trkpt>
      <trkpt lat="47.537823" lon="2.0375254">
        <ele>158.0</ele>
        <time>2022-02-27T09:04:01Z</time>
      </trkpt>
      <trkpt lat="47.537815" lon="2.0375297">
        <ele>158.0</ele>
        <time>2022-02-27T09:04:02Z</time>
      </trkpt>
      <trkpt lat="47.537804" lon="2.0375311">
        <ele>158.0</ele>
        <time>2022-02-27T09:04:03Z</time>
      </trkpt>
      <trkpt lat="47.537796" lon="2.0375364">
        <ele>158.0</ele>
        <time>2022-02-27T09:04:04Z</time>
      </trkpt>
      <trkpt lat="47.53779" lon="2.0375433">
        <ele>157.0</ele>
        <time>2022-02-27T09:04:05Z</time>
      </trkpt>
      <trkpt lat="47.537777" lon="2.0375533">
        <ele>156.0</ele>
        <time>2022-02-27T09:04:06Z</time>
      </trkpt>
      <trkpt lat="47.537766" lon="2.0375557">
        <ele>155.0</ele>
        <time>2022-02-27T09:04:07Z</time>
      </trkpt>
      <trkpt lat="47.537754" lon="2.037561">
        <ele>154.0</ele>
        <time>2022-02-27T09:04:08Z</time>
      </trkpt>
      <trkpt lat="47.53775" lon="2.0375657">
        <ele>155.0</ele>
        <time>2022-02-27T09:04:09Z</time>
      </trkpt>
      <trkpt lat="47.537743" lon="2.0375595">
        <ele>155.0</ele>
        <time>2022-02-27T09:04:10Z</time>
      </trkpt>
      <trkpt lat="47.537735" lon="2.0375557">
        <ele>155.0</ele>
        <time>2022-02-27T09:04:11Z</time>
      </trkpt>
      <trkpt lat="47.537727" lon="2.037556">
        <ele>155.0</ele>
        <time>2022-02-27T09:04:12Z</time>
      </trkpt>
      <trkpt lat="47.537716" lon="2.0375597">
        <ele>155.0</ele>
        <time>2022-02-27T09:04:13Z</time>
      </trkpt>
      <trkpt lat="47.5377" lon="2.0375595">
        <ele>155.0</ele>
        <time>2022-02-27T09:04:14Z</time>
      </trkpt>
      <trkpt lat="47.537693" lon="2.0375648">
        <ele>155.0</ele>
        <time>2022-02-27T09:04:15Z</time>
      </trkpt>
      <trkpt lat="47.537674" lon="2.037567">
        <ele>154.0</ele>
        <time>2022-02-27T09:04:16Z</time>
      </trkpt>
      <trkpt lat="47.537666" lon="2.0375724">
        <ele>154.0</ele>
        <time>2022-02-27T09:04:17Z</time>
      </trkpt>
      <trkpt lat="47.537655" lon="2.0375805">
        <ele>154.0</ele>
        <time>2022-02-27T09:04:18Z</time>
      </trkpt>
      <trkpt lat="47.537643" lon="2.0375848">
        <ele>154.0</ele>
        <time>2022-02-27T09:04:19Z</time>
      </trkpt>
      <trkpt lat="47.537632" lon="2.0375845">
        <ele>154.0</ele>
        <time>2022-02-27T09:04:20Z</time>
      </trkpt>
      <trkpt lat="47.53762" lon="2.0375853">
        <ele>154.0</ele>
        <time>2022-02-27T09:04:21Z</time>
      </trkpt>
      <trkpt lat="47.53761" lon="2.0375874">
        <ele>154.0</ele>
        <time>2022-02-27T09:04:22Z</time>
      </trkpt>
      <trkpt lat="47.537598" lon="2.0375903">
        <ele>154.0</ele>
        <time>2022-02-27T09:04:23Z</time>
      </trkpt>
      <trkpt lat="47.537586" lon="2.0376005">
        <ele>155.0</ele>
        <time>2022-02-27T09:04:24Z</time>
      </trkpt>
      <trkpt lat="47.537575" lon="2.037606">
        <ele>155.0</ele>
        <time>2022-02-27T09:04:25Z</time>
      </trkpt>
      <trkpt lat="47.53756" lon="2.0376117">
        <ele>155.0</ele>
        <time>2022-02-27T09:04:26Z</time>
      </trkpt>
      <trkpt lat="47.537548" lon="2.0376163">
        <ele>155.0</ele>
        <time>2022-02-27T09:04:27Z</time>
      </trkpt>
      <trkpt lat="47.537537" lon="2.0376196">
        <ele>155.0</ele>
        <time>2022-02-27T09:04:28Z</time>
      </trkpt>
      <trkpt lat="47.537525" lon="2.0376258">
        <ele>155.0</ele>
        <time>2022-02-27T09:04:29Z</time>
      </trkpt>
      <trkpt lat="47.537514" lon="2.0376313">
        <ele>155.0</ele>
        <time>2022-02-27T09:04:30Z</time>
      </trkpt>
      <trkpt lat="47.537502" lon="2.0376322">
        <ele>156.0</ele>
        <time>2022-02-27T09:04:31Z</time>
      </trkpt>
      <trkpt lat="47.537495" lon="2.0376341">
        <ele>156.0</ele>
        <time>2022-02-27T09:04:32Z</time>
      </trkpt>
      <trkpt lat="47.537487" lon="2.0376387">
        <ele>156.0</ele>
        <time>2022-02-27T09:04:33Z</time>
      </trkpt>
      <trkpt lat="47.53747" lon="2.0376444">
        <ele>156.0</ele>
        <time>2022-02-27T09:04:34Z</time>
      </trkpt>
      <trkpt lat="47.537464" lon="2.0376463">
        <ele>156.0</ele>
        <time>2022-02-27T09:04:35Z</time>
      </trkpt>
      <trkpt lat="47.537457" lon="2.0376508">
        <ele>156.0</ele>
        <time>2022-02-27T09:04:36Z</time>
      </trkpt>
      <trkpt lat="47.537445" lon="2.0376537">
        <ele>156.0</ele>
        <time>2022-02-27T09:04:37Z</time>
      </trkpt>
      <trkpt lat="47.537434" lon="2.0376592">
        <ele>156.0</ele>
        <time>2022-02-27T09:04:38Z</time>
      </trkpt>
      <trkpt lat="47.537426" lon="2.0376635">
        <ele>156.0</ele>
        <time>2022-02-27T09:04:39Z</time>
      </trkpt>
      <trkpt lat="47.537415" lon="2.0376666">
        <ele>155.0</ele>
        <time>2022-02-27T09:04:40Z</time>
      </trkpt>
      <trkpt lat="47.537403" lon="2.0376713">
        <ele>155.0</ele>
        <time>2022-02-27T09:04:41Z</time>
      </trkpt>
      <trkpt lat="47.53739" lon="2.037678">
        <ele>155.0</ele>
        <time>2022-02-27T09:04:42Z</time>
      </trkpt>
      <trkpt lat="47.537376" lon="2.0376842">
        <ele>155.0</ele>
        <time>2022-02-27T09:04:43Z</time>
      </trkpt>
      <trkpt lat="47.537365" lon="2.037687">
        <ele>155.0</ele>
        <time>2022-02-27T09:04:44Z</time>
      </trkpt>
      <trkpt lat="47.537354" lon="2.0376909">
        <ele>155.0</ele>
        <time>2022-02-27T09:04:45Z</time>
      </trkpt>
      <trkpt lat="47.537342" lon="2.0376973">
        <ele>155.0</ele>
        <time>2022-02-27T09:04:46Z</time>
      </trkpt>
      <trkpt lat="47.53733" lon="2.0377002">
        <ele>155.0</ele>
        <time>2022-02-27T09:04:47Z</time>
      </trkpt>
      <trkpt lat="47.53732" lon="2.0377004">
        <ele>155.0</ele>
        <time>2022-02-27T09:04:48Z</time>
      </trkpt>
      <trkpt lat="47.53731" lon="2.037703">
        <ele>155.0</ele>
        <time>2022-02-27T09:04:49Z</time>
      </trkpt>
      <trkpt lat="47.537304" lon="2.037706">
        <ele>155.0</ele>
        <time>2022-02-27T09:04:50Z</time>
      </trkpt>
      <trkpt lat="47.537292" lon="2.037708">
        <ele>155.0</ele>
        <time>2022-02-27T09:04:51Z</time>
      </trkpt>
      <trkpt lat="47.53728" lon="2.0377076">
        <ele>155.0</ele>
        <time>2022-02-27T09:04:52Z</time>
      </trkpt>
      <trkpt lat="47.537273" lon="2.0377102">
        <ele>155.0</ele>
        <time>2022-02-27T09:04:53Z</time>
      </trkpt>
      <trkpt lat="47.53727" lon="2.0377133">
        <ele>155.0</ele>
        <time>2022-02-27T09:04:54Z</time>
      </trkpt>
      <trkpt lat="47.53726" lon="2.0377185">
        <ele>155.0</ele>
        <time>2022-02-27T09:04:55Z</time>
      </trkpt>
      <trkpt lat="47.53725" lon="2.0377197">
        <ele>155.0</ele>
        <time>2022-02-27T09:04:56Z</time>
      </trkpt>
      <trkpt lat="47.537243" lon="2.037723">
        <ele>155.0</ele>
        <time>2022-02-27T09:04:57Z</time>
      </trkpt>
      <trkpt lat="47.537235" lon="2.0377212">
        <ele>154.0</ele>
        <time>2022-02-27T09:04:58Z</time>
      </trkpt>
      <trkpt lat="47.537224" lon="2.0377245">
        <ele>155.0</ele>
        <time>2022-02-27T09:04:59Z</time>
      </trkpt>
      <trkpt lat="47.537216" lon="2.0377266">
        <ele>154.0</ele>
        <time>2022-02-27T09:05:00Z</time>
      </trkpt>
      <trkpt lat="47.5372" lon="2.0377328">
        <ele>154.0</ele>
        <time>2022-02-27T09:05:01Z</time>
      </trkpt>
      <trkpt lat="47.53719" lon="2.037731">
        <ele>154.0</ele>
        <time>2022-02-27T09:05:02Z</time>
      </trkpt>
      <trkpt lat="47.537178" lon="2.0377297">
        <ele>155.0</ele>
        <time>2022-02-27T09:05:03Z</time>
      </trkpt>
      <trkpt lat="47.53717" lon="2.037732">
        <ele>155.0</ele>
        <time>2022-02-27T09:05:04Z</time>
      </trkpt>
      <trkpt lat="47.53716" lon="2.0377333">
        <ele>155.0</ele>
        <time>2022-02-27T09:05:05Z</time>
      </trkpt>
      <trkpt lat="47.53715" lon="2.037736">
        <ele>155.0</ele>
        <time>2022-02-27T09:05:06Z</time>
      </trkpt>
      <trkpt lat="47.53714" lon="2.0377414">
        <ele>155.0</ele>
        <time>2022-02-27T09:05:07Z</time>
      </trkpt>
      <trkpt lat="47.537132" lon="2.0377457">
        <ele>155.0</ele>
        <time>2022-02-27T09:05:08Z</time>
      </trkpt>
      <trkpt lat="47.53712" lon="2.0377476">
        <ele>155.0</ele>
        <time>2022-02-27T09:05:09Z</time>
      </trkpt>
      <trkpt lat="47.537113" lon="2.0377486">
        <ele>154.0</ele>
        <time>2022-02-27T09:05:10Z</time>
      </trkpt>
      <trkpt lat="47.537098" lon="2.0377507">
        <ele>154.0</ele>
        <time>2022-02-27T09:05:11Z</time>
      </trkpt>
      <trkpt lat="47.537086" lon="2.0377584">
        <ele>154.0</ele>
        <time>2022-02-27T09:05:12Z</time>
      </trkpt>
      <trkpt lat="47.537075" lon="2.037766">
        <ele>154.0</ele>
        <time>2022-02-27T09:05:13Z</time>
      </trkpt>
      <trkpt lat="47.537067" lon="2.0377724">
        <ele>154.0</ele>
        <time>2022-02-27T09:05:14Z</time>
      </trkpt>
      <trkpt lat="47.537056" lon="2.037777">
        <ele>154.0</ele>
        <time>2022-02-27T09:05:15Z</time>
      </trkpt>
      <trkpt lat="47.537052" lon="2.0377836">
        <ele>154.0</ele>
        <time>2022-02-27T09:05:16Z</time>
      </trkpt>
      <trkpt lat="47.537045" lon="2.0377905">
        <ele>154.0</ele>
        <time>2022-02-27T09:05:17Z</time>
      </trkpt>
      <trkpt lat="47.537037" lon="2.0378003">
        <ele>154.0</ele>
        <time>2022-02-27T09:05:18Z</time>
      </trkpt>
      <trkpt lat="47.53703" lon="2.0378065">
        <ele>154.0</ele>
        <time>2022-02-27T09:05:19Z</time>
      </trkpt>
      <trkpt lat="47.53702" lon="2.0378094">
        <ele>153.0</ele>
        <time>2022-02-27T09:05:20Z</time>
      </trkpt>
      <trkpt lat="47.537014" lon="2.0378115">
        <ele>153.0</ele>
        <time>2022-02-27T09:05:21Z</time>
      </trkpt>
      <trkpt lat="47.537006" lon="2.0378134">
        <ele>153.0</ele>
        <time>2022-02-27T09:05:22Z</time>
      </trkpt>
      <trkpt lat="47.537003" lon="2.0378156">
        <ele>152.0</ele>
        <time>2022-02-27T09:05:23Z</time>
      </trkpt>
      <trkpt lat="47.537" lon="2.0378232">
        <ele>153.0</ele>
        <time>2022-02-27T09:05:24Z</time>
      </trkpt>
      <trkpt lat="47.53699" lon="2.037828">
        <ele>153.0</ele>
        <time>2022-02-27T09:05:25Z</time>
      </trkpt>
      <trkpt lat="47.536987" lon="2.0378335">
        <ele>153.0</ele>
        <time>2022-02-27T09:05:26Z</time>
      </trkpt>
      <trkpt lat="47.53698" lon="2.037836">
        <ele>153.0</ele>
        <time>2022-02-27T09:05:27Z</time>
      </trkpt>
      <trkpt lat="47.536972" lon="2.0378387">
        <ele>152.0</ele>
        <time>2022-02-27T09:05:28Z</time>
      </trkpt>
      <trkpt lat="47.536964" lon="2.0378377">
        <ele>152.0</ele>
        <time>2022-02-27T09:05:29Z</time>
      </trkpt>
      <trkpt lat="47.536957" lon="2.037841">
        <ele>151.0</ele>
        <time>2022-02-27T09:05:30Z</time>
      </trkpt>
      <trkpt lat="47.53695" lon="2.0378456">
        <ele>150.0</ele>
        <time>2022-02-27T09:05:31Z</time>
      </trkpt>
      <trkpt lat="47.536938" lon="2.03785">
        <ele>150.0</ele>
        <time>2022-02-27T09:05:32Z</time>
      </trkpt>
      <trkpt lat="47.53693" lon="2.0378525">
        <ele>150.0</ele>
        <time>2022-02-27T09:05:33Z</time>
      </trkpt>
      <trkpt lat="47.536915" lon="2.037858">
        <ele>151.0</ele>
        <time>2022-02-27T09:05:34Z</time>
      </trkpt>
      <trkpt lat="47.536903" lon="2.0378637">
        <ele>150.0</ele>
        <time>2022-02-27T09:05:35Z</time>
      </trkpt>
      <trkpt lat="47.53689" lon="2.0378654">
        <ele>150.0</ele>
        <time>2022-02-27T09:05:36Z</time>
      </trkpt>
      <trkpt lat="47.536877" lon="2.0378683">
        <ele>150.0</ele>
        <time>2022-02-27T09:05:37Z</time>
      </trkpt>
      <trkpt lat="47.536865" lon="2.0378706">
        <ele>150.0</ele>
        <time>2022-02-27T09:05:38Z</time>
      </trkpt>
      <trkpt lat="47.536858" lon="2.0378745">
        <ele>150.0</ele>
        <time>2022-02-27T09:05:39Z</time>
      </trkpt>
      <trkpt lat="47.536842" lon="2.0378697">
        <ele>151.0</ele>
        <time>2022-02-27T09:05:40Z</time>
      </trkpt>
      <trkpt lat="47.536827" lon="2.0378718">
        <ele>151.0</ele>
        <time>2022-02-27T09:05:41Z</time>
      </trkpt>
      <trkpt lat="47.536816" lon="2.0378788">
        <ele>151.0</ele>
        <time>2022-02-27T09:05:42Z</time>
      </trkpt>
      <trkpt lat="47.536804" lon="2.0378852">
        <ele>151.0</ele>
        <time>2022-02-27T09:05:43Z</time>
      </trkpt>
      <trkpt lat="47.536793" lon="2.0378833">
        <ele>151.0</ele>
        <time>2022-02-27T09:05:44Z</time>
      </trkpt>
      <trkpt lat="47.536777" lon="2.037883">
        <ele>151.0</ele>
        <time>2022-02-27T09:05:45Z</time>
      </trkpt>
      <trkpt lat="47.536762" lon="2.0378811">
        <ele>150.0</ele>
        <time>2022-02-27T09:05:46Z</time>
      </trkpt>
      <trkpt lat="47.536755" lon="2.037888">
        <ele>151.0</ele>
        <time>2022-02-27T09:05:47Z</time>
      </trkpt>
      <trkpt lat="47.536755" lon="2.0378938">
        <ele>150.0</ele>
        <time>2022-02-27T09:05:48Z</time>
      </trkpt>
      <trkpt lat="47.536747" lon="2.0378962">
        <ele>150.0</ele>
        <time>2022-02-27T09:05:49Z</time>
      </trkpt>
      <trkpt lat="47.536728" lon="2.0379004">
        <ele>149.0</ele>
        <time>2022-02-27T09:05:50Z</time>
      </trkpt>
      <trkpt lat="47.536716" lon="2.0379071">
        <ele>149.0</ele>
        <time>2022-02-27T09:05:51Z</time>
      </trkpt>
      <trkpt lat="47.536713" lon="2.0379083">
        <ele>148.0</ele>
        <time>2022-02-27T09:05:52Z</time>
      </trkpt>
      <trkpt lat="47.53671" lon="2.0379114">
        <ele>148.0</ele>
        <time>2022-02-27T09:05:53Z</time>
      </trkpt>
      <trkpt lat="47.536705" lon="2.0379107">
        <ele>147.0</ele>
        <time>2022-02-27T09:05:54Z</time>
      </trkpt>
      <trkpt lat="47.536694" lon="2.0379124">
        <ele>147.0</ele>
        <time>2022-02-27T09:05:55Z</time>
      </trkpt>
      <trkpt lat="47.536682" lon="2.037916">
        <ele>146.0</ele>
        <time>2022-02-27T09:05:56Z</time>
      </trkpt>
      <trkpt lat="47.536674" lon="2.0379176">
        <ele>146.0</ele>
        <time>2022-02-27T09:05:57Z</time>
      </trkpt>
      <trkpt lat="47.536667" lon="2.0379205">
        <ele>146.0</ele>
        <time>2022-02-27T09:05:58Z</time>
      </trkpt>
      <trkpt lat="47.53666" lon="2.0379167">
        <ele>146.0</ele>
        <time>2022-02-27T09:05:59Z</time>
      </trkpt>
      <trkpt lat="47.536648" lon="2.03792">
        <ele>145.0</ele>
        <time>2022-02-27T09:06:00Z</time>
      </trkpt>
      <trkpt lat="47.536636" lon="2.037924">
        <ele>145.0</ele>
        <time>2022-02-27T09:06:01Z</time>
      </trkpt>
      <trkpt lat="47.536625" lon="2.0379236">
        <ele>145.0</ele>
        <time>2022-02-27T09:06:02Z</time>
      </trkpt>
      <trkpt lat="47.53661" lon="2.0379221">
        <ele>145.0</ele>
        <time>2022-02-27T09:06:03Z</time>
      </trkpt>
      <trkpt lat="47.5366" lon="2.0379114">
        <ele>145.0</ele>
        <time>2022-02-27T09:06:04Z</time>
      </trkpt>
      <trkpt lat="47.53658" lon="2.0378935">
        <ele>144.0</ele>
        <time>2022-02-27T09:06:05Z</time>
      </trkpt>
      <trkpt lat="47.53657" lon="2.0378795">
        <ele>144.0</ele>
        <time>2022-02-27T09:06:06Z</time>
      </trkpt>
      <trkpt lat="47.536564" lon="2.037873">
        <ele>145.0</ele>
        <time>2022-02-27T09:06:07Z</time>
      </trkpt>
      <trkpt lat="47.536556" lon="2.0378656">
        <ele>145.0</ele>
        <time>2022-02-27T09:06:08Z</time>
      </trkpt>
      <trkpt lat="47.536552" lon="2.0378575">
        <ele>145.0</ele>
        <time>2022-02-27T09:06:09Z</time>
      </trkpt>
      <trkpt lat="47.53655" lon="2.0378516">
        <ele>145.0</ele>
        <time>2022-02-27T09:06:10Z</time>
      </trkpt>
      <trkpt lat="47.53654" lon="2.0378401">
        <ele>145.0</ele>
        <time>2022-02-27T09:06:11Z</time>
      </trkpt>
      <trkpt lat="47.536537" lon="2.03783">
        <ele>145.0</ele>
        <time>2022-02-27T09:06:12Z</time>
      </trkpt>
      <trkpt lat="47.536537" lon="2.0378199">
        <ele>145.0</ele>
        <time>2022-02-27T09:06:13Z</time>
      </trkpt>
      <trkpt lat="47.536533" lon="2.0378091">
        <ele>145.0</ele>
        <time>2022-02-27T09:06:14Z</time>
      </trkpt>
      <trkpt lat="47.536533" lon="2.0377963">
        <ele>145.0</ele>
        <time>2022-02-27T09:06:15Z</time>
      </trkpt>
      <trkpt lat="47.53653" lon="2.037787">
        <ele>145.0</ele>
        <time>2022-02-27T09:06:16Z</time>
      </trkpt>
      <trkpt lat="47.536526" lon="2.0377727">
        <ele>145.0</ele>
        <time>2022-02-27T09:06:17Z</time>
      </trkpt>
      <trkpt lat="47.536522" lon="2.0377522">
        <ele>144.0</ele>
        <time>2022-02-27T09:06:18Z</time>
      </trkpt>
      <trkpt lat="47.536522" lon="2.0377347">
        <ele>144.0</ele>
        <time>2022-02-27T09:06:19Z</time>
      </trkpt>
      <trkpt lat="47.53652" lon="2.0377212">
        <ele>144.0</ele>
        <time>2022-02-27T09:06:20Z</time>
      </trkpt>
      <trkpt lat="47.536514" lon="2.0377076">
        <ele>144.0</ele>
        <time>2022-02-27T09:06:21Z</time>
      </trkpt>
      <trkpt lat="47.536507" lon="2.0376945">
        <ele>143.0</ele>
        <time>2022-02-27T09:06:22Z</time>
      </trkpt>
      <trkpt lat="47.536503" lon="2.0376835">
        <ele>143.0</ele>
        <time>2022-02-27T09:06:23Z</time>
      </trkpt>
      <trkpt lat="47.5365" lon="2.0376735">
        <ele>143.0</ele>
        <time>2022-02-27T09:06:24Z</time>
      </trkpt>
      <trkpt lat="47.536495" lon="2.037661">
        <ele>143.0</ele>
        <time>2022-02-27T09:06:25Z</time>
      </trkpt>
      <trkpt lat="47.53649" lon="2.0376484">
        <ele>143.0</ele>
        <time>2022-02-27T09:06:26Z</time>
      </trkpt>
      <trkpt lat="47.536484" lon="2.0376422">
        <ele>142.0</ele>
        <time>2022-02-27T09:06:27Z</time>
      </trkpt>
      <trkpt lat="47.536476" lon="2.0376337">
        <ele>142.0</ele>
        <time>2022-02-27T09:06:28Z</time>
      </trkpt>
      <trkpt lat="47.536472" lon="2.0376263">
        <ele>142.0</ele>
        <time>2022-02-27T09:06:29Z</time>
      </trkpt>
      <trkpt lat="47.53646" lon="2.0376213">
        <ele>142.0</ele>
        <time>2022-02-27T09:06:30Z</time>
      </trkpt>
      <trkpt lat="47.53645" lon="2.03761">
        <ele>142.0</ele>
        <time>2022-02-27T09:06:31Z</time>
      </trkpt>
      <trkpt lat="47.536438" lon="2.037602">
        <ele>143.0</ele>
        <time>2022-02-27T09:06:32Z</time>
      </trkpt>
      <trkpt lat="47.536427" lon="2.0375938">
        <ele>143.0</ele>
        <time>2022-02-27T09:06:33Z</time>
      </trkpt>
      <trkpt lat="47.53641" lon="2.0375872">
        <ele>144.0</ele>
        <time>2022-02-27T09:06:34Z</time>
      </trkpt>
      <trkpt lat="47.5364" lon="2.0375838">
        <ele>144.0</ele>
        <time>2022-02-27T09:06:35Z</time>
      </trkpt>
      <trkpt lat="47.536385" lon="2.0375776">
        <ele>145.0</ele>
        <time>2022-02-27T09:06:36Z</time>
      </trkpt>
      <trkpt lat="47.536377" lon="2.0375693">
        <ele>145.0</ele>
        <time>2022-02-27T09:06:37Z</time>
      </trkpt>
      <trkpt lat="47.53637" lon="2.0375617">
        <ele>145.0</ele>
        <time>2022-02-27T09:06:38Z</time>
      </trkpt>
      <trkpt lat="47.536358" lon="2.0375664">
        <ele>146.0</ele>
        <time>2022-02-27T09:06:39Z</time>
      </trkpt>
      <trkpt lat="47.536346" lon="2.0375674">
        <ele>145.0</ele>
        <time>2022-02-27T09:06:40Z</time>
      </trkpt>
      <trkpt lat="47.536335" lon="2.0375693">
        <ele>146.0</ele>
        <time>2022-02-27T09:06:41Z</time>
      </trkpt>
      <trkpt lat="47.53632" lon="2.037567">
        <ele>146.0</ele>
        <time>2022-02-27T09:06:42Z</time>
      </trkpt>
      <trkpt lat="47.536304" lon="2.0375671">
        <ele>146.0</ele>
        <time>2022-02-27T09:06:43Z</time>
      </trkpt>
      <trkpt lat="47.53629" lon="2.0375679">
        <ele>147.0</ele>
        <time>2022-02-27T09:06:44Z</time>
      </trkpt>
      <trkpt lat="47.536278" lon="2.037568">
        <ele>147.0</ele>
        <time>2022-02-27T09:06:45Z</time>
      </trkpt>
      <trkpt lat="47.536266" lon="2.0375674">
        <ele>147.0</ele>
        <time>2022-02-27T09:06:46Z</time>
      </trkpt>
      <trkpt lat="47.536255" lon="2.0375628">
        <ele>147.0</ele>
        <time>2022-02-27T09:06:47Z</time>
      </trkpt>
      <trkpt lat="47.536247" lon="2.0375595">
        <ele>148.0</ele>
        <time>2022-02-27T09:06:48Z</time>
      </trkpt>
      <trkpt lat="47.53624" lon="2.0375533">
        <ele>148.0</ele>
        <time>2022-02-27T09:06:49Z</time>
      </trkpt>
      <trkpt lat="47.53623" lon="2.037543">
        <ele>148.0</ele>
        <time>2022-02-27T09:06:50Z</time>
      </trkpt>
      <trkpt lat="47.53622" lon="2.0375357">
        <ele>148.0</ele>
        <time>2022-02-27T09:06:51Z</time>
      </trkpt>
      <trkpt lat="47.536213" lon="2.0375285">
        <ele>148.0</ele>
        <time>2022-02-27T09:06:52Z</time>
      </trkpt>
      <trkpt lat="47.536205" lon="2.037526">
        <ele>148.0</ele>
        <time>2022-02-27T09:06:53Z</time>
      </trkpt>
      <trkpt lat="47.5362" lon="2.0375273">
        <ele>148.0</ele>
        <time>2022-02-27T09:06:54Z</time>
      </trkpt>
      <trkpt lat="47.536194" lon="2.0375302">
        <ele>148.0</ele>
        <time>2022-02-27T09:06:55Z</time>
      </trkpt>
      <trkpt lat="47.536182" lon="2.0375323">
        <ele>148.0</ele>
        <time>2022-02-27T09:06:56Z</time>
      </trkpt>
      <trkpt lat="47.53617" lon="2.0375369">
        <ele>149.0</ele>
        <time>2022-02-27T09:06:57Z</time>
      </trkpt>
      <trkpt lat="47.53616" lon="2.037538">
        <ele>149.0</ele>
        <time>2022-02-27T09:06:58Z</time>
      </trkpt>
      <trkpt lat="47.536148" lon="2.0375397">
        <ele>150.0</ele>
        <time>2022-02-27T09:06:59Z</time>
      </trkpt>
      <trkpt lat="47.53614" lon="2.0375392">
        <ele>150.0</ele>
        <time>2022-02-27T09:07:00Z</time>
      </trkpt>
      <trkpt lat="47.53613" lon="2.0375435">
        <ele>151.0</ele>
        <time>2022-02-27T09:07:01Z</time>
      </trkpt>
      <trkpt lat="47.536118" lon="2.0375476">
        <ele>151.0</ele>
        <time>2022-02-27T09:07:02Z</time>
      </trkpt>
      <trkpt lat="47.536106" lon="2.0375547">
        <ele>150.0</ele>
        <time>2022-02-27T09:07:03Z</time>
      </trkpt>
      <trkpt lat="47.5361" lon="2.0375607">
        <ele>150.0</ele>
        <time>2022-02-27T09:07:04Z</time>
      </trkpt>
      <trkpt lat="47.53609" lon="2.0375667">
        <ele>150.0</ele>
        <time>2022-02-27T09:07:05Z</time>
      </trkpt>
      <trkpt lat="47.53608" lon="2.037574">
        <ele>150.0</ele>
        <time>2022-02-27T09:07:06Z</time>
      </trkpt>
      <trkpt lat="47.536068" lon="2.0375834">
        <ele>150.0</ele>
        <time>2022-02-27T09:07:07Z</time>
      </trkpt>
      <trkpt lat="47.536064" lon="2.0375926">
        <ele>149.0</ele>
        <time>2022-02-27T09:07:08Z</time>
      </trkpt>
      <trkpt lat="47.536057" lon="2.0375972">
        <ele>149.0</ele>
        <time>2022-02-27T09:07:09Z</time>
      </trkpt>
      <trkpt lat="47.53605" lon="2.0376043">
        <ele>149.0</ele>
        <time>2022-02-27T09:07:10Z</time>
      </trkpt>
      <trkpt lat="47.53604" lon="2.0376108">
        <ele>149.0</ele>
        <time>2022-02-27T09:07:11Z</time>
      </trkpt>
      <trkpt lat="47.53603" lon="2.037618">
        <ele>149.0</ele>
        <time>2022-02-27T09:07:12Z</time>
      </trkpt>
      <trkpt lat="47.53602" lon="2.0376267">
        <ele>150.0</ele>
        <time>2022-02-27T09:07:13Z</time>
      </trkpt>
      <trkpt lat="47.536007" lon="2.0376318">
        <ele>150.0</ele>
        <time>2022-02-27T09:07:14Z</time>
      </trkpt>
      <trkpt lat="47.53599" lon="2.0376356">
        <ele>149.0</ele>
        <time>2022-02-27T09:07:15Z</time>
      </trkpt>
      <trkpt lat="47.53598" lon="2.0376403">
        <ele>150.0</ele>
        <time>2022-02-27T09:07:16Z</time>
      </trkpt>
      <trkpt lat="47.53596" lon="2.0376422">
        <ele>150.0</ele>
        <time>2022-02-27T09:07:17Z</time>
      </trkpt>
      <trkpt lat="47.53595" lon="2.0376449">
        <ele>151.0</ele>
        <time>2022-02-27T09:07:18Z</time>
      </trkpt>
      <trkpt lat="47.535942" lon="2.0376463">
        <ele>152.0</ele>
        <time>2022-02-27T09:07:19Z</time>
      </trkpt>
      <trkpt lat="47.53593" lon="2.0376532">
        <ele>152.0</ele>
        <time>2022-02-27T09:07:20Z</time>
      </trkpt>
      <trkpt lat="47.535915" lon="2.037653">
        <ele>152.0</ele>
        <time>2022-02-27T09:07:21Z</time>
      </trkpt>
      <trkpt lat="47.535904" lon="2.037659">
        <ele>152.0</ele>
        <time>2022-02-27T09:07:22Z</time>
      </trkpt>
      <trkpt lat="47.535892" lon="2.0376654">
        <ele>153.0</ele>
        <time>2022-02-27T09:07:23Z</time>
      </trkpt>
      <trkpt lat="47.53588" lon="2.0376728">
        <ele>153.0</ele>
        <time>2022-02-27T09:07:24Z</time>
      </trkpt>
      <trkpt lat="47.53587" lon="2.0376763">
        <ele>153.0</ele>
        <time>2022-02-27T09:07:25Z</time>
      </trkpt>
      <trkpt lat="47.535854" lon="2.0376837">
        <ele>154.0</ele>
        <time>2022-02-27T09:07:26Z</time>
      </trkpt>
      <trkpt lat="47.535843" lon="2.0376916">
        <ele>154.0</ele>
        <time>2022-02-27T09:07:27Z</time>
      </trkpt>
      <trkpt lat="47.53583" lon="2.037696">
        <ele>154.0</ele>
        <time>2022-02-27T09:07:28Z</time>
      </trkpt>
      <trkpt lat="47.53582" lon="2.0377023">
        <ele>154.0</ele>
        <time>2022-02-27T09:07:29Z</time>
      </trkpt>
      <trkpt lat="47.53581" lon="2.0377097">
        <ele>154.0</ele>
        <time>2022-02-27T09:07:30Z</time>
      </trkpt>
      <trkpt lat="47.535797" lon="2.0377185">
        <ele>154.0</ele>
        <time>2022-02-27T09:07:31Z</time>
      </trkpt>
      <trkpt lat="47.535786" lon="2.0377235">
        <ele>154.0</ele>
        <time>2022-02-27T09:07:32Z</time>
      </trkpt>
      <trkpt lat="47.535778" lon="2.0377278">
        <ele>154.0</ele>
        <time>2022-02-27T09:07:33Z</time>
      </trkpt>
      <trkpt lat="47.53577" lon="2.0377345">
        <ele>154.0</ele>
        <time>2022-02-27T09:07:34Z</time>
      </trkpt>
      <trkpt lat="47.53576" lon="2.0377426">
        <ele>154.0</ele>
        <time>2022-02-27T09:07:35Z</time>
      </trkpt>
      <trkpt lat="47.53575" lon="2.0377457">
        <ele>154.0</ele>
        <time>2022-02-27T09:07:36Z</time>
      </trkpt>
      <trkpt lat="47.535744" lon="2.0377488">
        <ele>154.0</ele>
        <time>2022-02-27T09:07:37Z</time>
      </trkpt>
      <trkpt lat="47.53574" lon="2.037753">
        <ele>154.0</ele>
        <time>2022-02-27T09:07:38Z</time>
      </trkpt>
      <trkpt lat="47.53573" lon="2.0377572">
        <ele>153.0</ele>
        <time>2022-02-27T09:07:39Z</time>
      </trkpt>
      <trkpt lat="47.535717" lon="2.0377624">
        <ele>153.0</ele>
        <time>2022-02-27T09:07:40Z</time>
      </trkpt>
      <trkpt lat="47.535706" lon="2.037771">
        <ele>153.0</ele>
        <time>2022-02-27T09:07:41Z</time>
      </trkpt>
      <trkpt lat="47.535694" lon="2.0377817">
        <ele>153.0</ele>
        <time>2022-02-27T09:07:42Z</time>
      </trkpt>
      <trkpt lat="47.535683" lon="2.0377862">
        <ele>153.0</ele>
        <time>2022-02-27T09:07:43Z</time>
      </trkpt>
      <trkpt lat="47.53567" lon="2.0377924">
        <ele>153.0</ele>
        <time>2022-02-27T09:07:44Z</time>
      </trkpt>
      <trkpt lat="47.53566" lon="2.0378013">
        <ele>153.0</ele>
        <time>2022-02-27T09:07:45Z</time>
      </trkpt>
      <trkpt lat="47.535652" lon="2.0378118">
        <ele>153.0</ele>
        <time>2022-02-27T09:07:46Z</time>
      </trkpt>
      <trkpt lat="47.535637" lon="2.0378194">
        <ele>154.0</ele>
        <time>2022-02-27T09:07:47Z</time>
      </trkpt>
      <trkpt lat="47.535625" lon="2.0378284">
        <ele>154.0</ele>
        <time>2022-02-27T09:07:48Z</time>
      </trkpt>
      <trkpt lat="47.535614" lon="2.0378382">
        <ele>154.0</ele>
        <time>2022-02-27T09:07:49Z</time>
      </trkpt>
      <trkpt lat="47.535603" lon="2.0378468">
        <ele>154.0</ele>
        <time>2022-02-27T09:07:50Z</time>
      </trkpt>
      <trkpt lat="47.53559" lon="2.037854">
        <ele>155.0</ele>
        <time>2022-02-27T09:07:51Z</time>
      </trkpt>
      <trkpt lat="47.535564" lon="2.037872">
        <ele>156.0</ele>
        <time>2022-02-27T09:07:52Z</time>
      </trkpt>
      <trkpt lat="47.535564" lon="2.037872">
        <ele>156.0</ele>
        <time>2022-02-27T09:07:52Z</time>
      </trkpt>
      <trkpt lat="47.535553" lon="2.0378814">
        <ele>156.0</ele>
        <time>2022-02-27T09:07:54Z</time>
      </trkpt>
      <trkpt lat="47.535545" lon="2.0378916">
        <ele>155.0</ele>
        <time>2022-02-27T09:07:55Z</time>
      </trkpt>
      <trkpt lat="47.535538" lon="2.0378993">
        <ele>155.0</ele>
        <time>2022-02-27T09:07:56Z</time>
      </trkpt>
      <trkpt lat="47.535522" lon="2.0379102">
        <ele>155.0</ele>
        <time>2022-02-27T09:07:57Z</time>
      </trkpt>
      <trkpt lat="47.535515" lon="2.0379198">
        <ele>155.0</ele>
        <time>2022-02-27T09:07:58Z</time>
      </trkpt>
      <trkpt lat="47.535503" lon="2.0379298">
        <ele>154.0</ele>
        <time>2022-02-27T09:07:59Z</time>
      </trkpt>
      <trkpt lat="47.535492" lon="2.0379367">
        <ele>154.0</ele>
        <time>2022-02-27T09:08:00Z</time>
      </trkpt>
      <trkpt lat="47.535477" lon="2.0379407">
        <ele>155.0</ele>
        <time>2022-02-27T09:08:01Z</time>
      </trkpt>
      <trkpt lat="47.535454" lon="2.0379524">
        <ele>154.0</ele>
        <time>2022-02-27T09:08:02Z</time>
      </trkpt>
      <trkpt lat="47.535454" lon="2.0379524">
        <ele>154.0</ele>
        <time>2022-02-27T09:08:02Z</time>
      </trkpt>
      <trkpt lat="47.535442" lon="2.0379562">
        <ele>154.0</ele>
        <time>2022-02-27T09:08:04Z</time>
      </trkpt>
      <trkpt lat="47.53543" lon="2.037961">
        <ele>155.0</ele>
        <time>2022-02-27T09:08:05Z</time>
      </trkpt>
      <trkpt lat="47.53542" lon="2.0379689">
        <ele>154.0</ele>
        <time>2022-02-27T09:08:06Z</time>
      </trkpt>
      <trkpt lat="47.535408" lon="2.0379755">
        <ele>154.0</ele>
        <time>2022-02-27T09:08:07Z</time>
      </trkpt>
      <trkpt lat="47.535397" lon="2.0379822">
        <ele>155.0</ele>
        <time>2022-02-27T09:08:08Z</time>
      </trkpt>
      <trkpt lat="47.535385" lon="2.0379906">
        <ele>155.0</ele>
        <time>2022-02-27T09:08:09Z</time>
      </trkpt>
      <trkpt lat="47.535374" lon="2.037997">
        <ele>155.0</ele>
        <time>2022-02-27T09:08:10Z</time>
      </trkpt>
      <trkpt lat="47.535362" lon="2.0380046">
        <ele>155.0</ele>
        <time>2022-02-27T09:08:11Z</time>
      </trkpt>
      <trkpt lat="47.53535" lon="2.0380132">
        <ele>155.0</ele>
        <time>2022-02-27T09:08:12Z</time>
      </trkpt>
      <trkpt lat="47.535343" lon="2.0380175">
        <ele>155.0</ele>
        <time>2022-02-27T09:08:13Z</time>
      </trkpt>
      <trkpt lat="47.535336" lon="2.038024">
        <ele>155.0</ele>
        <time>2022-02-27T09:08:15Z</time>
      </trkpt>
      <trkpt lat="47.535324" lon="2.0380318">
        <ele>155.0</ele>
        <time>2022-02-27T09:08:16Z</time>
      </trkpt>
      <trkpt lat="47.535313" lon="2.0380397">
        <ele>155.0</ele>
        <time>2022-02-27T09:08:17Z</time>
      </trkpt>
      <trkpt lat="47.5353" lon="2.0380468">
        <ele>155.0</ele>
        <time>2022-02-27T09:08:18Z</time>
      </trkpt>
      <trkpt lat="47.535294" lon="2.038051">
        <ele>155.0</ele>
        <time>2022-02-27T09:08:19Z</time>
      </trkpt>
      <trkpt lat="47.535282" lon="2.0380552">
        <ele>155.0</ele>
        <time>2022-02-27T09:08:20Z</time>
      </trkpt>
      <trkpt lat="47.53527" lon="2.0380604">
        <ele>155.0</ele>
        <time>2022-02-27T09:08:21Z</time>
      </trkpt>
      <trkpt lat="47.53525" lon="2.0380688">
        <ele>155.0</ele>
        <time>2022-02-27T09:08:22Z</time>
      </trkpt>
      <trkpt lat="47.53525" lon="2.0380688">
        <ele>155.0</ele>
        <time>2022-02-27T09:08:22Z</time>
      </trkpt>
      <trkpt lat="47.53524" lon="2.038071">
        <ele>155.0</ele>
        <time>2022-02-27T09:08:24Z</time>
      </trkpt>
      <trkpt lat="47.535236" lon="2.0380716">
        <ele>155.0</ele>
        <time>2022-02-27T09:08:25Z</time>
      </trkpt>
      <trkpt lat="47.53523" lon="2.038074">
        <ele>155.0</ele>
        <time>2022-02-27T09:08:26Z</time>
      </trkpt>
      <trkpt lat="47.535217" lon="2.0380764">
        <ele>155.0</ele>
        <time>2022-02-27T09:08:27Z</time>
      </trkpt>
      <trkpt lat="47.53521" lon="2.0380783">
        <ele>155.0</ele>
        <time>2022-02-27T09:08:28Z</time>
      </trkpt>
      <trkpt lat="47.535202" lon="2.0380805">
        <ele>154.0</ele>
        <time>2022-02-27T09:08:29Z</time>
      </trkpt>
      <trkpt lat="47.535183" lon="2.0380912">
        <ele>154.0</ele>
        <time>2022-02-27T09:08:30Z</time>
      </trkpt>
      <trkpt lat="47.535183" lon="2.0380912">
        <ele>154.0</ele>
        <time>2022-02-27T09:08:30Z</time>
      </trkpt>
      <trkpt lat="47.53517" lon="2.0380957">
        <ele>154.0</ele>
        <time>2022-02-27T09:08:32Z</time>
      </trkpt>
      <trkpt lat="47.53516" lon="2.038097">
        <ele>154.0</ele>
        <time>2022-02-27T09:08:33Z</time>
      </trkpt>
      <trkpt lat="47.53515" lon="2.0381024">
        <ele>154.0</ele>
        <time>2022-02-27T09:08:34Z</time>
      </trkpt>
      <trkpt lat="47.53514" lon="2.0381124">
        <ele>154.0</ele>
        <time>2022-02-27T09:08:35Z</time>
      </trkpt>
      <trkpt lat="47.535133" lon="2.0381203">
        <ele>154.0</ele>
        <time>2022-02-27T09:08:36Z</time>
      </trkpt>
      <trkpt lat="47.535122" lon="2.0381262">
        <ele>155.0</ele>
        <time>2022-02-27T09:08:37Z</time>
      </trkpt>
      <trkpt lat="47.535114" lon="2.0381308">
        <ele>155.0</ele>
        <time>2022-02-27T09:08:38Z</time>
      </trkpt>
      <trkpt lat="47.5351" lon="2.038138">
        <ele>155.0</ele>
        <time>2022-02-27T09:08:39Z</time>
      </trkpt>
      <trkpt lat="47.5351" lon="2.038138">
        <ele>155.0</ele>
        <time>2022-02-27T09:08:39Z</time>
      </trkpt>
      <trkpt lat="47.53509" lon="2.0381427">
        <ele>155.0</ele>
        <time>2022-02-27T09:08:41Z</time>
      </trkpt>
      <trkpt lat="47.53508" lon="2.0381486">
        <ele>155.0</ele>
        <time>2022-02-27T09:08:42Z</time>
      </trkpt>
      <trkpt lat="47.53506" lon="2.038159">
        <ele>155.0</ele>
        <time>2022-02-27T09:08:43Z</time>
      </trkpt>
      <trkpt lat="47.53506" lon="2.038159">
        <ele>155.0</ele>
        <time>2022-02-27T09:08:43Z</time>
      </trkpt>
      <trkpt lat="47.53505" lon="2.038164">
        <ele>155.0</ele>
        <time>2022-02-27T09:08:45Z</time>
      </trkpt>
      <trkpt lat="47.53504" lon="2.0381699">
        <ele>154.0</ele>
        <time>2022-02-27T09:08:46Z</time>
      </trkpt>
      <trkpt lat="47.535034" lon="2.0381804">
        <ele>154.0</ele>
        <time>2022-02-27T09:08:47Z</time>
      </trkpt>
      <trkpt lat="47.53502" lon="2.038198">
        <ele>154.0</ele>
        <time>2022-02-27T09:08:48Z</time>
      </trkpt>
      <trkpt lat="47.53502" lon="2.038198">
        <ele>154.0</ele>
        <time>2022-02-27T09:08:48Z</time>
      </trkpt>
      <trkpt lat="47.53501" lon="2.0382059">
        <ele>154.0</ele>
        <time>2022-02-27T09:08:50Z</time>
      </trkpt>
      <trkpt lat="47.535004" lon="2.0382073">
        <ele>153.0</ele>
        <time>2022-02-27T09:08:51Z</time>
      </trkpt>
      <trkpt lat="47.534996" lon="2.0382128">
        <ele>153.0</ele>
        <time>2022-02-27T09:08:52Z</time>
      </trkpt>
      <trkpt lat="47.534985" lon="2.0382218">
        <ele>153.0</ele>
        <time>2022-02-27T09:08:53Z</time>
      </trkpt>
      <trkpt lat="47.534977" lon="2.0382297">
        <ele>153.0</ele>
        <time>2022-02-27T09:08:54Z</time>
      </trkpt>
      <trkpt lat="47.53497" lon="2.038242">
        <ele>153.0</ele>
        <time>2022-02-27T09:08:55Z</time>
      </trkpt>
      <trkpt lat="47.534958" lon="2.0382528">
        <ele>152.0</ele>
        <time>2022-02-27T09:08:56Z</time>
      </trkpt>
      <trkpt lat="47.53495" lon="2.0382643">
        <ele>152.0</ele>
        <time>2022-02-27T09:08:57Z</time>
      </trkpt>
      <trkpt lat="47.53494" lon="2.038273">
        <ele>151.0</ele>
        <time>2022-02-27T09:08:58Z</time>
      </trkpt>
      <trkpt lat="47.53493" lon="2.0382824">
        <ele>152.0</ele>
        <time>2022-02-27T09:08:59Z</time>
      </trkpt>
      <trkpt lat="47.534924" lon="2.0382931">
        <ele>152.0</ele>
        <time>2022-02-27T09:09:00Z</time>
      </trkpt>
      <trkpt lat="47.53491" lon="2.038319">
        <ele>152.0</ele>
        <time>2022-02-27T09:09:01Z</time>
      </trkpt>
      <trkpt lat="47.5349" lon="2.0383291">
        <ele>152.0</ele>
        <time>2022-02-27T09:09:02Z</time>
      </trkpt>
      <trkpt lat="47.534893" lon="2.0383387">
        <ele>151.0</ele>
        <time>2022-02-27T09:09:03Z</time>
      </trkpt>
      <trkpt lat="47.534885" lon="2.03835">
        <ele>151.0</ele>
        <time>2022-02-27T09:09:04Z</time>
      </trkpt>
      <trkpt lat="47.534878" lon="2.0383618">
        <ele>151.0</ele>
        <time>2022-02-27T09:09:05Z</time>
      </trkpt>
      <trkpt lat="47.534866" lon="2.0383751">
        <ele>151.0</ele>
        <time>2022-02-27T09:09:06Z</time>
      </trkpt>
      <trkpt lat="47.53486" lon="2.0383866">
        <ele>150.0</ele>
        <time>2022-02-27T09:09:07Z</time>
      </trkpt>
      <trkpt lat="47.53485" lon="2.038397">
        <ele>150.0</ele>
        <time>2022-02-27T09:09:08Z</time>
      </trkpt>
      <trkpt lat="47.534843" lon="2.0384128">
        <ele>151.0</ele>
        <time>2022-02-27T09:09:09Z</time>
      </trkpt>
      <trkpt lat="47.534843" lon="2.0384128">
        <ele>151.0</ele>
        <time>2022-02-27T09:09:09Z</time>
      </trkpt>
      <trkpt lat="47.534832" lon="2.0384507">
        <ele>151.0</ele>
        <time>2022-02-27T09:09:11Z</time>
      </trkpt>
      <trkpt lat="47.534824" lon="2.0384624">
        <ele>151.0</ele>
        <time>2022-02-27T09:09:12Z</time>
      </trkpt>
      <trkpt lat="47.534824" lon="2.0384624">
        <ele>151.0</ele>
        <time>2022-02-27T09:09:12Z</time>
      </trkpt>
      <trkpt lat="47.534817" lon="2.0384717">
        <ele>151.0</ele>
        <time>2022-02-27T09:09:14Z</time>
      </trkpt>
      <trkpt lat="47.534794" lon="2.0384884">
        <ele>152.0</ele>
        <time>2022-02-27T09:09:15Z</time>
      </trkpt>
      <trkpt lat="47.534794" lon="2.0384884">
        <ele>152.0</ele>
        <time>2022-02-27T09:09:15Z</time>
      </trkpt>
      <trkpt lat="47.534782" lon="2.0385005">
        <ele>152.0</ele>
        <time>2022-02-27T09:09:17Z</time>
      </trkpt>
      <trkpt lat="47.53477" lon="2.0385127">
        <ele>152.0</ele>
        <time>2022-02-27T09:09:18Z</time>
      </trkpt>
      <trkpt lat="47.53476" lon="2.038526">
        <ele>152.0</ele>
        <time>2022-02-27T09:09:19Z</time>
      </trkpt>
      <trkpt lat="47.534744" lon="2.0385385">
        <ele>153.0</ele>
        <time>2022-02-27T09:09:20Z</time>
      </trkpt>
      <trkpt lat="47.534737" lon="2.0385525">
        <ele>153.0</ele>
        <time>2022-02-27T09:09:21Z</time>
      </trkpt>
      <trkpt lat="47.53473" lon="2.0385652">
        <ele>154.0</ele>
        <time>2022-02-27T09:09:22Z</time>
      </trkpt>
      <trkpt lat="47.534718" lon="2.0385787">
        <ele>154.0</ele>
        <time>2022-02-27T09:09:23Z</time>
      </trkpt>
      <trkpt lat="47.5347" lon="2.0386045">
        <ele>154.0</ele>
        <time>2022-02-27T09:09:24Z</time>
      </trkpt>
      <trkpt lat="47.5347" lon="2.0386045">
        <ele>154.0</ele>
        <time>2022-02-27T09:09:24Z</time>
      </trkpt>
      <trkpt lat="47.534695" lon="2.0386176">
        <ele>154.0</ele>
        <time>2022-02-27T09:09:26Z</time>
      </trkpt>
      <trkpt lat="47.534687" lon="2.0386376">
        <ele>155.0</ele>
        <time>2022-02-27T09:09:27Z</time>
      </trkpt>
      <trkpt lat="47.53468" lon="2.0386703">
        <ele>155.0</ele>
        <time>2022-02-27T09:09:28Z</time>
      </trkpt>
      <trkpt lat="47.53467" lon="2.0386891">
        <ele>155.0</ele>
        <time>2022-02-27T09:09:29Z</time>
      </trkpt>
      <trkpt lat="47.53467" lon="2.0386891">
        <ele>155.0</ele>
        <time>2022-02-27T09:09:29Z</time>
      </trkpt>
      <trkpt lat="47.534664" lon="2.0387132">
        <ele>155.0</ele>
        <time>2022-02-27T09:09:31Z</time>
      </trkpt>
      <trkpt lat="47.534664" lon="2.0387132">
        <ele>155.0</ele>
        <time>2022-02-27T09:09:31Z</time>
      </trkpt>
      <trkpt lat="47.534664" lon="2.0387266">
        <ele>154.0</ele>
        <time>2022-02-27T09:09:33Z</time>
      </trkpt>
      <trkpt lat="47.53466" lon="2.0387528">
        <ele>154.0</ele>
        <time>2022-02-27T09:09:34Z</time>
      </trkpt>
      <trkpt lat="47.534657" lon="2.0387619">
        <ele>154.0</ele>
        <time>2022-02-27T09:09:35Z</time>
      </trkpt>
      <trkpt lat="47.53465" lon="2.038773">
        <ele>154.0</ele>
        <time>2022-02-27T09:09:36Z</time>
      </trkpt>
      <trkpt lat="47.53464" lon="2.038782">
        <ele>154.0</ele>
        <time>2022-02-27T09:09:37Z</time>
      </trkpt>
      <trkpt lat="47.534634" lon="2.0387921">
        <ele>154.0</ele>
        <time>2022-02-27T09:09:38Z</time>
      </trkpt>
      <trkpt lat="47.534626" lon="2.0388048">
        <ele>154.0</ele>
        <time>2022-02-27T09:09:39Z</time>
      </trkpt>
      <trkpt lat="47.534615" lon="2.038818">
        <ele>155.0</ele>
        <time>2022-02-27T09:09:40Z</time>
      </trkpt>
      <trkpt lat="47.534607" lon="2.0388315">
        <ele>155.0</ele>
        <time>2022-02-27T09:09:41Z</time>
      </trkpt>
      <trkpt lat="47.5346" lon="2.0388453">
        <ele>155.0</ele>
        <time>2022-02-27T09:09:42Z</time>
      </trkpt>
      <trkpt lat="47.5346" lon="2.0388453">
        <ele>155.0</ele>
        <time>2022-02-27T09:09:42Z</time>
      </trkpt>
      <trkpt lat="47.534584" lon="2.038874">
        <ele>155.0</ele>
        <time>2022-02-27T09:09:44Z</time>
      </trkpt>
      <trkpt lat="47.534576" lon="2.0388896">
        <ele>155.0</ele>
        <time>2022-02-27T09:09:45Z</time>
      </trkpt>
      <trkpt lat="47.53457" lon="2.0389047">
        <ele>155.0</ele>
        <time>2022-02-27T09:09:46Z</time>
      </trkpt>
      <trkpt lat="47.534565" lon="2.0389197">
        <ele>155.0</ele>
        <time>2022-02-27T09:09:47Z</time>
      </trkpt>
      <trkpt lat="47.53456" lon="2.0389328">
        <ele>155.0</ele>
        <time>2022-02-27T09:09:48Z</time>
      </trkpt>
      <trkpt lat="47.534557" lon="2.0389442">
        <ele>155.0</ele>
        <time>2022-02-27T09:09:49Z</time>
      </trkpt>
      <trkpt lat="47.534554" lon="2.038959">
        <ele>156.0</ele>
        <time>2022-02-27T09:09:50Z</time>
      </trkpt>
      <trkpt lat="47.534546" lon="2.038974">
        <ele>156.0</ele>
        <time>2022-02-27T09:09:51Z</time>
      </trkpt>
      <trkpt lat="47.53454" lon="2.03899">
        <ele>156.0</ele>
        <time>2022-02-27T09:09:52Z</time>
      </trkpt>
      <trkpt lat="47.534534" lon="2.039001">
        <ele>156.0</ele>
        <time>2022-02-27T09:09:53Z</time>
      </trkpt>
      <trkpt lat="47.534527" lon="2.039012">
        <ele>156.0</ele>
        <time>2022-02-27T09:09:54Z</time>
      </trkpt>
      <trkpt lat="47.53452" lon="2.0390272">
        <ele>156.0</ele>
        <time>2022-02-27T09:09:55Z</time>
      </trkpt>
      <trkpt lat="47.53451" lon="2.0390434">
        <ele>156.0</ele>
        <time>2022-02-27T09:09:56Z</time>
      </trkpt>
      <trkpt lat="47.534504" lon="2.0390568">
        <ele>156.0</ele>
        <time>2022-02-27T09:09:57Z</time>
      </trkpt>
      <trkpt lat="47.534504" lon="2.0390694">
        <ele>156.0</ele>
        <time>2022-02-27T09:09:58Z</time>
      </trkpt>
      <trkpt lat="47.534496" lon="2.039082">
        <ele>156.0</ele>
        <time>2022-02-27T09:09:59Z</time>
      </trkpt>
      <trkpt lat="47.534492" lon="2.0390909">
        <ele>156.0</ele>
        <time>2022-02-27T09:10:00Z</time>
      </trkpt>
      <trkpt lat="47.53449" lon="2.0391037">
        <ele>156.0</ele>
        <time>2022-02-27T09:10:01Z</time>
      </trkpt>
      <trkpt lat="47.534485" lon="2.039121">
        <ele>156.0</ele>
        <time>2022-02-27T09:10:02Z</time>
      </trkpt>
      <trkpt lat="47.534477" lon="2.0391335">
        <ele>156.0</ele>
        <time>2022-02-27T09:10:03Z</time>
      </trkpt>
      <trkpt lat="47.534473" lon="2.0391479">
        <ele>156.0</ele>
        <time>2022-02-27T09:10:04Z</time>
      </trkpt>
      <trkpt lat="47.53447" lon="2.0391614">
        <ele>156.0</ele>
        <time>2022-02-27T09:10:05Z</time>
      </trkpt>
      <trkpt lat="47.534466" lon="2.039178">
        <ele>157.0</ele>
        <time>2022-02-27T09:10:06Z</time>
      </trkpt>
      <trkpt lat="47.534462" lon="2.0391896">
        <ele>157.0</ele>
        <time>2022-02-27T09:10:07Z</time>
      </trkpt>
      <trkpt lat="47.534462" lon="2.0392022">
        <ele>157.0</ele>
        <time>2022-02-27T09:10:08Z</time>
      </trkpt>
      <trkpt lat="47.534454" lon="2.039216">
        <ele>157.0</ele>
        <time>2022-02-27T09:10:09Z</time>
      </trkpt>
      <trkpt lat="47.53445" lon="2.0392325">
        <ele>157.0</ele>
        <time>2022-02-27T09:10:10Z</time>
      </trkpt>
      <trkpt lat="47.534443" lon="2.0392442">
        <ele>157.0</ele>
        <time>2022-02-27T09:10:11Z</time>
      </trkpt>
      <trkpt lat="47.53444" lon="2.0392542">
        <ele>157.0</ele>
        <time>2022-02-27T09:10:12Z</time>
      </trkpt>
      <trkpt lat="47.53443" lon="2.0392685">
        <ele>157.0</ele>
        <time>2022-02-27T09:10:13Z</time>
      </trkpt>
      <trkpt lat="47.534424" lon="2.03928">
        <ele>157.0</ele>
        <time>2022-02-27T09:10:14Z</time>
      </trkpt>
      <trkpt lat="47.534416" lon="2.0392876">
        <ele>157.0</ele>
        <time>2022-02-27T09:10:15Z</time>
      </trkpt>
      <trkpt lat="47.534405" lon="2.039294">
        <ele>156.0</ele>
        <time>2022-02-27T09:10:16Z</time>
      </trkpt>
      <trkpt lat="47.534393" lon="2.0393093">
        <ele>157.0</ele>
        <time>2022-02-27T09:10:17Z</time>
      </trkpt>
      <trkpt lat="47.534386" lon="2.039324">
        <ele>157.0</ele>
        <time>2022-02-27T09:10:18Z</time>
      </trkpt>
      <trkpt lat="47.534378" lon="2.0393393">
        <ele>157.0</ele>
        <time>2022-02-27T09:10:19Z</time>
      </trkpt>
      <trkpt lat="47.53437" lon="2.0393493">
        <ele>157.0</ele>
        <time>2022-02-27T09:10:20Z</time>
      </trkpt>
      <trkpt lat="47.534363" lon="2.0393608">
        <ele>156.0</ele>
        <time>2022-02-27T09:10:21Z</time>
      </trkpt>
      <trkpt lat="47.53436" lon="2.039376">
        <ele>156.0</ele>
        <time>2022-02-27T09:10:22Z</time>
      </trkpt>
      <trkpt lat="47.534355" lon="2.0393972">
        <ele>156.0</ele>
        <time>2022-02-27T09:10:23Z</time>
      </trkpt>
      <trkpt lat="47.534348" lon="2.0394118">
        <ele>156.0</ele>
        <time>2022-02-27T09:10:24Z</time>
      </trkpt>
      <trkpt lat="47.53434" lon="2.0394273">
        <ele>156.0</ele>
        <time>2022-02-27T09:10:25Z</time>
      </trkpt>
      <trkpt lat="47.534332" lon="2.0394435">
        <ele>156.0</ele>
        <time>2022-02-27T09:10:26Z</time>
      </trkpt>
      <trkpt lat="47.534325" lon="2.0394619">
        <ele>156.0</ele>
        <time>2022-02-27T09:10:27Z</time>
      </trkpt>
      <trkpt lat="47.534317" lon="2.0394812">
        <ele>155.0</ele>
        <time>2022-02-27T09:10:28Z</time>
      </trkpt>
      <trkpt lat="47.53431" lon="2.0394957">
        <ele>155.0</ele>
        <time>2022-02-27T09:10:29Z</time>
      </trkpt>
      <trkpt lat="47.5343" lon="2.0395086">
        <ele>155.0</ele>
        <time>2022-02-27T09:10:30Z</time>
      </trkpt>
      <trkpt lat="47.534298" lon="2.0395212">
        <ele>155.0</ele>
        <time>2022-02-27T09:10:31Z</time>
      </trkpt>
      <trkpt lat="47.53429" lon="2.0395315">
        <ele>155.0</ele>
        <time>2022-02-27T09:10:32Z</time>
      </trkpt>
      <trkpt lat="47.534283" lon="2.0395458">
        <ele>155.0</ele>
        <time>2022-02-27T09:10:33Z</time>
      </trkpt>
      <trkpt lat="47.53428" lon="2.039561">
        <ele>155.0</ele>
        <time>2022-02-27T09:10:34Z</time>
      </trkpt>
      <trkpt lat="47.53427" lon="2.0395777">
        <ele>156.0</ele>
        <time>2022-02-27T09:10:35Z</time>
      </trkpt>
      <trkpt lat="47.534264" lon="2.0395935">
        <ele>156.0</ele>
        <time>2022-02-27T09:10:36Z</time>
      </trkpt>
      <trkpt lat="47.53426" lon="2.0396056">
        <ele>156.0</ele>
        <time>2022-02-27T09:10:37Z</time>
      </trkpt>
      <trkpt lat="47.534252" lon="2.039622">
        <ele>156.0</ele>
        <time>2022-02-27T09:10:38Z</time>
      </trkpt>
      <trkpt lat="47.53425" lon="2.039641">
        <ele>156.0</ele>
        <time>2022-02-27T09:10:39Z</time>
      </trkpt>
      <trkpt lat="47.53424" lon="2.0396595">
        <ele>156.0</ele>
        <time>2022-02-27T09:10:40Z</time>
      </trkpt>
      <trkpt lat="47.534233" lon="2.0396764">
        <ele>156.0</ele>
        <time>2022-02-27T09:10:41Z</time>
      </trkpt>
      <trkpt lat="47.534225" lon="2.0396912">
        <ele>156.0</ele>
        <time>2022-02-27T09:10:42Z</time>
      </trkpt>
      <trkpt lat="47.534218" lon="2.0397062">
        <ele>156.0</ele>
        <time>2022-02-27T09:10:43Z</time>
      </trkpt>
      <trkpt lat="47.534214" lon="2.03972">
        <ele>157.0</ele>
        <time>2022-02-27T09:10:44Z</time>
      </trkpt>
      <trkpt lat="47.53421" lon="2.0397334">
        <ele>157.0</ele>
        <time>2022-02-27T09:10:45Z</time>
      </trkpt>
      <trkpt lat="47.534203" lon="2.039751">
        <ele>157.0</ele>
        <time>2022-02-27T09:10:46Z</time>
      </trkpt>
      <trkpt lat="47.5342" lon="2.0397666">
        <ele>157.0</ele>
        <time>2022-02-27T09:10:47Z</time>
      </trkpt>
      <trkpt lat="47.534195" lon="2.0397782">
        <ele>157.0</ele>
        <time>2022-02-27T09:10:48Z</time>
      </trkpt>
      <trkpt lat="47.534187" lon="2.039793">
        <ele>157.0</ele>
        <time>2022-02-27T09:10:49Z</time>
      </trkpt>
      <trkpt lat="47.53418" lon="2.039805">
        <ele>158.0</ele>
        <time>2022-02-27T09:10:50Z</time>
      </trkpt>
      <trkpt lat="47.534172" lon="2.0398183">
        <ele>157.0</ele>
        <time>2022-02-27T09:10:51Z</time>
      </trkpt>
      <trkpt lat="47.53417" lon="2.039834">
        <ele>158.0</ele>
        <time>2022-02-27T09:10:52Z</time>
      </trkpt>
      <trkpt lat="47.534164" lon="2.03985">
        <ele>158.0</ele>
        <time>2022-02-27T09:10:53Z</time>
      </trkpt>
      <trkpt lat="47.534157" lon="2.0398655">
        <ele>158.0</ele>
        <time>2022-02-27T09:10:54Z</time>
      </trkpt>
      <trkpt lat="47.534153" lon="2.0398774">
        <ele>157.0</ele>
        <time>2022-02-27T09:10:55Z</time>
      </trkpt>
      <trkpt lat="47.53415" lon="2.0398884">
        <ele>157.0</ele>
        <time>2022-02-27T09:10:56Z</time>
      </trkpt>
      <trkpt lat="47.53414" lon="2.0399024">
        <ele>158.0</ele>
        <time>2022-02-27T09:10:57Z</time>
      </trkpt>
      <trkpt lat="47.534134" lon="2.0399168">
        <ele>157.0</ele>
        <time>2022-02-27T09:10:58Z</time>
      </trkpt>
      <trkpt lat="47.534126" lon="2.0399299">
        <ele>157.0</ele>
        <time>2022-02-27T09:10:59Z</time>
      </trkpt>
      <trkpt lat="47.53412" lon="2.0399415">
        <ele>157.0</ele>
        <time>2022-02-27T09:11:00Z</time>
      </trkpt>
      <trkpt lat="47.53411" lon="2.0399575">
        <ele>157.0</ele>
        <time>2022-02-27T09:11:01Z</time>
      </trkpt>
      <trkpt lat="47.534103" lon="2.0399747">
        <ele>157.0</ele>
        <time>2022-02-27T09:11:02Z</time>
      </trkpt>
      <trkpt lat="47.534092" lon="2.0399897">
        <ele>157.0</ele>
        <time>2022-02-27T09:11:03Z</time>
      </trkpt>
      <trkpt lat="47.534084" lon="2.040004">
        <ele>157.0</ele>
        <time>2022-02-27T09:11:04Z</time>
      </trkpt>
      <trkpt lat="47.53408" lon="2.040019">
        <ele>157.0</ele>
        <time>2022-02-27T09:11:05Z</time>
      </trkpt>
      <trkpt lat="47.534073" lon="2.0400348">
        <ele>157.0</ele>
        <time>2022-02-27T09:11:06Z</time>
      </trkpt>
      <trkpt lat="47.53407" lon="2.0400486">
        <ele>157.0</ele>
        <time>2022-02-27T09:11:07Z</time>
      </trkpt>
      <trkpt lat="47.534065" lon="2.0400655">
        <ele>158.0</ele>
        <time>2022-02-27T09:11:08Z</time>
      </trkpt>
      <trkpt lat="47.534058" lon="2.0400822">
        <ele>158.0</ele>
        <time>2022-02-27T09:11:09Z</time>
      </trkpt>
      <trkpt lat="47.534054" lon="2.0401025">
        <ele>157.0</ele>
        <time>2022-02-27T09:11:10Z</time>
      </trkpt>
      <trkpt lat="47.53405" lon="2.040119">
        <ele>157.0</ele>
        <time>2022-02-27T09:11:11Z</time>
      </trkpt>
      <trkpt lat="47.534046" lon="2.0401306">
        <ele>157.0</ele>
        <time>2022-02-27T09:11:12Z</time>
      </trkpt>
      <trkpt lat="47.534042" lon="2.0401466">
        <ele>157.0</ele>
        <time>2022-02-27T09:11:13Z</time>
      </trkpt>
      <trkpt lat="47.53404" lon="2.0401614">
        <ele>157.0</ele>
        <time>2022-02-27T09:11:14Z</time>
      </trkpt>
      <trkpt lat="47.53403" lon="2.0401764">
        <ele>157.0</ele>
        <time>2022-02-27T09:11:15Z</time>
      </trkpt>
      <trkpt lat="47.534023" lon="2.0401847">
        <ele>157.0</ele>
        <time>2022-02-27T09:11:16Z</time>
      </trkpt>
      <trkpt lat="47.534016" lon="2.040201">
        <ele>157.0</ele>
        <time>2022-02-27T09:11:17Z</time>
      </trkpt>
      <trkpt lat="47.534004" lon="2.040216">
        <ele>157.0</ele>
        <time>2022-02-27T09:11:18Z</time>
      </trkpt>
      <trkpt lat="47.534004" lon="2.04023">
        <ele>157.0</ele>
        <time>2022-02-27T09:11:19Z</time>
      </trkpt>
      <trkpt lat="47.533997" lon="2.0402477">
        <ele>157.0</ele>
        <time>2022-02-27T09:11:20Z</time>
      </trkpt>
      <trkpt lat="47.53399" lon="2.0402641">
        <ele>156.0</ele>
        <time>2022-02-27T09:11:21Z</time>
      </trkpt>
      <trkpt lat="47.53398" lon="2.0402768">
        <ele>156.0</ele>
        <time>2022-02-27T09:11:22Z</time>
      </trkpt>
      <trkpt lat="47.533978" lon="2.040291">
        <ele>156.0</ele>
        <time>2022-02-27T09:11:23Z</time>
      </trkpt>
      <trkpt lat="47.53397" lon="2.0403032">
        <ele>156.0</ele>
        <time>2022-02-27T09:11:24Z</time>
      </trkpt>
      <trkpt lat="47.533962" lon="2.0403202">
        <ele>156.0</ele>
        <time>2022-02-27T09:11:25Z</time>
      </trkpt>
      <trkpt lat="47.53396" lon="2.040335">
        <ele>156.0</ele>
        <time>2022-02-27T09:11:26Z</time>
      </trkpt>
      <trkpt lat="47.53395" lon="2.0403495">
        <ele>156.0</ele>
        <time>2022-02-27T09:11:27Z</time>
      </trkpt>
      <trkpt lat="47.533947" lon="2.0403664">
        <ele>156.0</ele>
        <time>2022-02-27T09:11:28Z</time>
      </trkpt>
      <trkpt lat="47.533943" lon="2.040385">
        <ele>156.0</ele>
        <time>2022-02-27T09:11:29Z</time>
      </trkpt>
      <trkpt lat="47.533936" lon="2.040401">
        <ele>156.0</ele>
        <time>2022-02-27T09:11:30Z</time>
      </trkpt>
      <trkpt lat="47.533928" lon="2.0404193">
        <ele>156.0</ele>
        <time>2022-02-27T09:11:31Z</time>
      </trkpt>
      <trkpt lat="47.53392" lon="2.0404346">
        <ele>156.0</ele>
        <time>2022-02-27T09:11:32Z</time>
      </trkpt>
      <trkpt lat="47.53391" lon="2.0404494">
        <ele>156.0</ele>
        <time>2022-02-27T09:11:33Z</time>
      </trkpt>
      <trkpt lat="47.5339" lon="2.0404687">
        <ele>156.0</ele>
        <time>2022-02-27T09:11:34Z</time>
      </trkpt>
      <trkpt lat="47.53389" lon="2.0404851">
        <ele>157.0</ele>
        <time>2022-02-27T09:11:35Z</time>
      </trkpt>
      <trkpt lat="47.533886" lon="2.0405014">
        <ele>157.0</ele>
        <time>2022-02-27T09:11:36Z</time>
      </trkpt>
      <trkpt lat="47.53388" lon="2.0405138">
        <ele>157.0</ele>
        <time>2022-02-27T09:11:37Z</time>
      </trkpt>
      <trkpt lat="47.533875" lon="2.0405273">
        <ele>157.0</ele>
        <time>2022-02-27T09:11:38Z</time>
      </trkpt>
      <trkpt lat="47.533867" lon="2.0405393">
        <ele>157.0</ele>
        <time>2022-02-27T09:11:39Z</time>
      </trkpt>
      <trkpt lat="47.53386" lon="2.040549">
        <ele>157.0</ele>
        <time>2022-02-27T09:11:40Z</time>
      </trkpt>
      <trkpt lat="47.533855" lon="2.0405607">
        <ele>157.0</ele>
        <time>2022-02-27T09:11:41Z</time>
      </trkpt>
      <trkpt lat="47.53385" lon="2.0405746">
        <ele>157.0</ele>
        <time>2022-02-27T09:11:42Z</time>
      </trkpt>
      <trkpt lat="47.533844" lon="2.040591">
        <ele>157.0</ele>
        <time>2022-02-27T09:11:43Z</time>
      </trkpt>
      <trkpt lat="47.53384" lon="2.0406044">
        <ele>156.0</ele>
        <time>2022-02-27T09:11:44Z</time>
      </trkpt>
      <trkpt lat="47.533836" lon="2.040619">
        <ele>156.0</ele>
        <time>2022-02-27T09:11:45Z</time>
      </trkpt>
      <trkpt lat="47.53383" lon="2.0406315">
        <ele>156.0</ele>
        <time>2022-02-27T09:11:46Z</time>
      </trkpt>
      <trkpt lat="47.53383" lon="2.0406446">
        <ele>156.0</ele>
        <time>2022-02-27T09:11:47Z</time>
      </trkpt>
      <trkpt lat="47.53382" lon="2.0406601">
        <ele>156.0</ele>
        <time>2022-02-27T09:11:48Z</time>
      </trkpt>
      <trkpt lat="47.533817" lon="2.0406778">
        <ele>156.0</ele>
        <time>2022-02-27T09:11:49Z</time>
      </trkpt>
      <trkpt lat="47.53381" lon="2.0406904">
        <ele>156.0</ele>
        <time>2022-02-27T09:11:50Z</time>
      </trkpt>
      <trkpt lat="47.53381" lon="2.0407028">
        <ele>155.0</ele>
        <time>2022-02-27T09:11:51Z</time>
      </trkpt>
      <trkpt lat="47.53381" lon="2.0407214">
        <ele>156.0</ele>
        <time>2022-02-27T09:11:52Z</time>
      </trkpt>
      <trkpt lat="47.53381" lon="2.0407324">
        <ele>155.0</ele>
        <time>2022-02-27T09:11:53Z</time>
      </trkpt>
      <trkpt lat="47.53381" lon="2.0407455">
        <ele>155.0</ele>
        <time>2022-02-27T09:11:54Z</time>
      </trkpt>
      <trkpt lat="47.533802" lon="2.0407624">
        <ele>155.0</ele>
        <time>2022-02-27T09:11:55Z</time>
      </trkpt>
      <trkpt lat="47.53379" lon="2.0407817">
        <ele>155.0</ele>
        <time>2022-02-27T09:11:56Z</time>
      </trkpt>
      <trkpt lat="47.533783" lon="2.040799">
        <ele>156.0</ele>
        <time>2022-02-27T09:11:57Z</time>
      </trkpt>
      <trkpt lat="47.533775" lon="2.0408132">
        <ele>156.0</ele>
        <time>2022-02-27T09:11:58Z</time>
      </trkpt>
      <trkpt lat="47.53377" lon="2.040827">
        <ele>156.0</ele>
        <time>2022-02-27T09:11:59Z</time>
      </trkpt>
      <trkpt lat="47.53376" lon="2.0408404">
        <ele>156.0</ele>
        <time>2022-02-27T09:12:00Z</time>
      </trkpt>
      <trkpt lat="47.533756" lon="2.040854">
        <ele>156.0</ele>
        <time>2022-02-27T09:12:01Z</time>
      </trkpt>
      <trkpt lat="47.533752" lon="2.040867">
        <ele>156.0</ele>
        <time>2022-02-27T09:12:02Z</time>
      </trkpt>
      <trkpt lat="47.533745" lon="2.0408812">
        <ele>157.0</ele>
        <time>2022-02-27T09:12:03Z</time>
      </trkpt>
      <trkpt lat="47.53374" lon="2.04089">
        <ele>157.0</ele>
        <time>2022-02-27T09:12:04Z</time>
      </trkpt>
      <trkpt lat="47.53374" lon="2.0409">
        <ele>157.0</ele>
        <time>2022-02-27T09:12:05Z</time>
      </trkpt>
      <trkpt lat="47.53374" lon="2.040911">
        <ele>156.0</ele>
        <time>2022-02-27T09:12:06Z</time>
      </trkpt>
      <trkpt lat="47.533737" lon="2.040923">
        <ele>156.0</ele>
        <time>2022-02-27T09:12:07Z</time>
      </trkpt>
      <trkpt lat="47.53373" lon="2.0409338">
        <ele>156.0</ele>
        <time>2022-02-27T09:12:08Z</time>
      </trkpt>
      <trkpt lat="47.533726" lon="2.0409496">
        <ele>156.0</ele>
        <time>2022-02-27T09:12:09Z</time>
      </trkpt>
      <trkpt lat="47.53372" lon="2.040964">
        <ele>155.0</ele>
        <time>2022-02-27T09:12:10Z</time>
      </trkpt>
      <trkpt lat="47.53371" lon="2.040978">
        <ele>155.0</ele>
        <time>2022-02-27T09:12:11Z</time>
      </trkpt>
      <trkpt lat="47.533707" lon="2.0409908">
        <ele>155.0</ele>
        <time>2022-02-27T09:12:12Z</time>
      </trkpt>
      <trkpt lat="47.5337" lon="2.041006">
        <ele>155.0</ele>
        <time>2022-02-27T09:12:13Z</time>
      </trkpt>
      <trkpt lat="47.53369" lon="2.04102">
        <ele>155.0</ele>
        <time>2022-02-27T09:12:14Z</time>
      </trkpt>
      <trkpt lat="47.533688" lon="2.0410361">
        <ele>155.0</ele>
        <time>2022-02-27T09:12:15Z</time>
      </trkpt>
      <trkpt lat="47.53368" lon="2.0410511">
        <ele>155.0</ele>
        <time>2022-02-27T09:12:16Z</time>
      </trkpt>
      <trkpt lat="47.533672" lon="2.0410624">
        <ele>156.0</ele>
        <time>2022-02-27T09:12:17Z</time>
      </trkpt>
      <trkpt lat="47.533665" lon="2.0410755">
        <ele>156.0</ele>
        <time>2022-02-27T09:12:18Z</time>
      </trkpt>
      <trkpt lat="47.533657" lon="2.0410895">
        <ele>157.0</ele>
        <time>2022-02-27T09:12:19Z</time>
      </trkpt>
      <trkpt lat="47.53364" lon="2.0411055">
        <ele>157.0</ele>
        <time>2022-02-27T09:12:20Z</time>
      </trkpt>
      <trkpt lat="47.53363" lon="2.0411189">
        <ele>157.0</ele>
        <time>2022-02-27T09:12:21Z</time>
      </trkpt>
      <trkpt lat="47.533623" lon="2.041132">
        <ele>157.0</ele>
        <time>2022-02-27T09:12:22Z</time>
      </trkpt>
      <trkpt lat="47.53362" lon="2.0411448">
        <ele>157.0</ele>
        <time>2022-02-27T09:12:23Z</time>
      </trkpt>
      <trkpt lat="47.533607" lon="2.041159">
        <ele>157.0</ele>
        <time>2022-02-27T09:12:24Z</time>
      </trkpt>
      <trkpt lat="47.533596" lon="2.0411775">
        <ele>157.0</ele>
        <time>2022-02-27T09:12:25Z</time>
      </trkpt>
      <trkpt lat="47.533592" lon="2.0411966">
        <ele>156.0</ele>
        <time>2022-02-27T09:12:26Z</time>
      </trkpt>
      <trkpt lat="47.533585" lon="2.0412164">
        <ele>157.0</ele>
        <time>2022-02-27T09:12:27Z</time>
      </trkpt>
      <trkpt lat="47.533577" lon="2.0412366">
        <ele>157.0</ele>
        <time>2022-02-27T09:12:28Z</time>
      </trkpt>
      <trkpt lat="47.533573" lon="2.0412574">
        <ele>158.0</ele>
        <time>2022-02-27T09:12:29Z</time>
      </trkpt>
      <trkpt lat="47.533566" lon="2.0412757">
        <ele>158.0</ele>
        <time>2022-02-27T09:12:30Z</time>
      </trkpt>
      <trkpt lat="47.533558" lon="2.0412905">
        <ele>159.0</ele>
        <time>2022-02-27T09:12:31Z</time>
      </trkpt>
      <trkpt lat="47.533554" lon="2.0413058">
        <ele>159.0</ele>
        <time>2022-02-27T09:12:32Z</time>
      </trkpt>
      <trkpt lat="47.533543" lon="2.0413237">
        <ele>160.0</ele>
        <time>2022-02-27T09:12:33Z</time>
      </trkpt>
      <trkpt lat="47.53354" lon="2.041338">
        <ele>160.0</ele>
        <time>2022-02-27T09:12:34Z</time>
      </trkpt>
      <trkpt lat="47.53353" lon="2.0413535">
        <ele>160.0</ele>
        <time>2022-02-27T09:12:35Z</time>
      </trkpt>
      <trkpt lat="47.533524" lon="2.0413659">
        <ele>160.0</ele>
        <time>2022-02-27T09:12:36Z</time>
      </trkpt>
      <trkpt lat="47.53352" lon="2.0413787">
        <ele>160.0</ele>
        <time>2022-02-27T09:12:37Z</time>
      </trkpt>
      <trkpt lat="47.533512" lon="2.0413914">
        <ele>160.0</ele>
        <time>2022-02-27T09:12:38Z</time>
      </trkpt>
      <trkpt lat="47.53351" lon="2.0414052">
        <ele>160.0</ele>
        <time>2022-02-27T09:12:39Z</time>
      </trkpt>
      <trkpt lat="47.5335" lon="2.0414164">
        <ele>160.0</ele>
        <time>2022-02-27T09:12:40Z</time>
      </trkpt>
      <trkpt lat="47.533493" lon="2.0414298">
        <ele>160.0</ele>
        <time>2022-02-27T09:12:41Z</time>
      </trkpt>
      <trkpt lat="47.533485" lon="2.0414424">
        <ele>161.0</ele>
        <time>2022-02-27T09:12:42Z</time>
      </trkpt>
      <trkpt lat="47.53348" lon="2.0414548">
        <ele>161.0</ele>
        <time>2022-02-27T09:12:43Z</time>
      </trkpt>
      <trkpt lat="47.533474" lon="2.0414708">
        <ele>161.0</ele>
        <time>2022-02-27T09:12:44Z</time>
      </trkpt>
      <trkpt lat="47.533466" lon="2.0414853">
        <ele>161.0</ele>
        <time>2022-02-27T09:12:45Z</time>
      </trkpt>
      <trkpt lat="47.533455" lon="2.0414953">
        <ele>161.0</ele>
        <time>2022-02-27T09:12:46Z</time>
      </trkpt>
      <trkpt lat="47.533447" lon="2.0414999">
        <ele>161.0</ele>
        <time>2022-02-27T09:12:47Z</time>
      </trkpt>
      <trkpt lat="47.53344" lon="2.0415106">
        <ele>161.0</ele>
        <time>2022-02-27T09:12:48Z</time>
      </trkpt>
      <trkpt lat="47.533432" lon="2.041524">
        <ele>160.0</ele>
        <time>2022-02-27T09:12:49Z</time>
      </trkpt>
      <trkpt lat="47.53343" lon="2.04154">
        <ele>160.0</ele>
        <time>2022-02-27T09:12:50Z</time>
      </trkpt>
      <trkpt lat="47.533424" lon="2.0415573">
        <ele>160.0</ele>
        <time>2022-02-27T09:12:51Z</time>
      </trkpt>
      <trkpt lat="47.53342" lon="2.041572">
        <ele>160.0</ele>
        <time>2022-02-27T09:12:52Z</time>
      </trkpt>
      <trkpt lat="47.533413" lon="2.041586">
        <ele>161.0</ele>
        <time>2022-02-27T09:12:53Z</time>
      </trkpt>
      <trkpt lat="47.533405" lon="2.0416038">
        <ele>161.0</ele>
        <time>2022-02-27T09:12:54Z</time>
      </trkpt>
      <trkpt lat="47.5334" lon="2.0416198">
        <ele>161.0</ele>
        <time>2022-02-27T09:12:55Z</time>
      </trkpt>
      <trkpt lat="47.533394" lon="2.0416322">
        <ele>161.0</ele>
        <time>2022-02-27T09:12:56Z</time>
      </trkpt>
      <trkpt lat="47.533386" lon="2.0416505">
        <ele>161.0</ele>
        <time>2022-02-27T09:12:57Z</time>
      </trkpt>
      <trkpt lat="47.533382" lon="2.0416646">
        <ele>161.0</ele>
        <time>2022-02-27T09:12:58Z</time>
      </trkpt>
      <trkpt lat="47.53338" lon="2.0416822">
        <ele>161.0</ele>
        <time>2022-02-27T09:12:59Z</time>
      </trkpt>
      <trkpt lat="47.533375" lon="2.0417006">
        <ele>162.0</ele>
        <time>2022-02-27T09:13:00Z</time>
      </trkpt>
      <trkpt lat="47.53337" lon="2.0417163">
        <ele>162.0</ele>
        <time>2022-02-27T09:13:01Z</time>
      </trkpt>
      <trkpt lat="47.533363" lon="2.0417314">
        <ele>162.0</ele>
        <time>2022-02-27T09:13:02Z</time>
      </trkpt>
      <trkpt lat="47.533356" lon="2.0417478">
        <ele>162.0</ele>
        <time>2022-02-27T09:13:03Z</time>
      </trkpt>
      <trkpt lat="47.533348" lon="2.0417652">
        <ele>162.0</ele>
        <time>2022-02-27T09:13:04Z</time>
      </trkpt>
      <trkpt lat="47.533344" lon="2.0417771">
        <ele>162.0</ele>
        <time>2022-02-27T09:13:05Z</time>
      </trkpt>
      <trkpt lat="47.533337" lon="2.041795">
        <ele>162.0</ele>
        <time>2022-02-27T09:13:06Z</time>
      </trkpt>
      <trkpt lat="47.53333" lon="2.041812">
        <ele>163.0</ele>
        <time>2022-02-27T09:13:07Z</time>
      </trkpt>
      <trkpt lat="47.53332" lon="2.0418258">
        <ele>162.0</ele>
        <time>2022-02-27T09:13:08Z</time>
      </trkpt>
      <trkpt lat="47.533314" lon="2.041841">
        <ele>163.0</ele>
        <time>2022-02-27T09:13:09Z</time>
      </trkpt>
      <trkpt lat="47.533306" lon="2.041855">
        <ele>163.0</ele>
        <time>2022-02-27T09:13:10Z</time>
      </trkpt>
      <trkpt lat="47.5333" lon="2.041869">
        <ele>163.0</ele>
        <time>2022-02-27T09:13:11Z</time>
      </trkpt>
      <trkpt lat="47.533295" lon="2.041882">
        <ele>163.0</ele>
        <time>2022-02-27T09:13:12Z</time>
      </trkpt>
      <trkpt lat="47.53329" lon="2.0418954">
        <ele>163.0</ele>
        <time>2022-02-27T09:13:13Z</time>
      </trkpt>
      <trkpt lat="47.533287" lon="2.0419095">
        <ele>163.0</ele>
        <time>2022-02-27T09:13:14Z</time>
      </trkpt>
      <trkpt lat="47.53328" lon="2.0419228">
        <ele>163.0</ele>
        <time>2022-02-27T09:13:15Z</time>
      </trkpt>
      <trkpt lat="47.53327" lon="2.0419357">
        <ele>163.0</ele>
        <time>2022-02-27T09:13:16Z</time>
      </trkpt>
      <trkpt lat="47.533268" lon="2.0419483">
        <ele>163.0</ele>
        <time>2022-02-27T09:13:17Z</time>
      </trkpt>
      <trkpt lat="47.53326" lon="2.0419605">
        <ele>163.0</ele>
        <time>2022-02-27T09:13:18Z</time>
      </trkpt>
      <trkpt lat="47.533257" lon="2.0419705">
        <ele>164.0</ele>
        <time>2022-02-27T09:13:19Z</time>
      </trkpt>
      <trkpt lat="47.533253" lon="2.0419827">
        <ele>164.0</ele>
        <time>2022-02-27T09:13:20Z</time>
      </trkpt>
      <trkpt lat="47.53325" lon="2.0419958">
        <ele>164.0</ele>
        <time>2022-02-27T09:13:21Z</time>
      </trkpt>
      <trkpt lat="47.533245" lon="2.0420067">
        <ele>164.0</ele>
        <time>2022-02-27T09:13:22Z</time>
      </trkpt>
      <trkpt lat="47.53324" lon="2.0420184">
        <ele>164.0</ele>
        <time>2022-02-27T09:13:23Z</time>
      </trkpt>
      <trkpt lat="47.533237" lon="2.042027">
        <ele>164.0</ele>
        <time>2022-02-27T09:13:24Z</time>
      </trkpt>
      <trkpt lat="47.53323" lon="2.0420406">
        <ele>164.0</ele>
        <time>2022-02-27T09:13:25Z</time>
      </trkpt>
      <trkpt lat="47.533226" lon="2.0420535">
        <ele>163.0</ele>
        <time>2022-02-27T09:13:26Z</time>
      </trkpt>
      <trkpt lat="47.533222" lon="2.0420644">
        <ele>163.0</ele>
        <time>2022-02-27T09:13:27Z</time>
      </trkpt>
      <trkpt lat="47.533215" lon="2.0420754">
        <ele>163.0</ele>
        <time>2022-02-27T09:13:28Z</time>
      </trkpt>
      <trkpt lat="47.533207" lon="2.0420861">
        <ele>163.0</ele>
        <time>2022-02-27T09:13:29Z</time>
      </trkpt>
      <trkpt lat="47.533203" lon="2.0420973">
        <ele>163.0</ele>
        <time>2022-02-27T09:13:30Z</time>
      </trkpt>
      <trkpt lat="47.533195" lon="2.04211">
        <ele>163.0</ele>
        <time>2022-02-27T09:13:31Z</time>
      </trkpt>
      <trkpt lat="47.53319" lon="2.0421221">
        <ele>163.0</ele>
        <time>2022-02-27T09:13:32Z</time>
      </trkpt>
      <trkpt lat="47.533184" lon="2.0421364">
        <ele>163.0</ele>
        <time>2022-02-27T09:13:33Z</time>
      </trkpt>
      <trkpt lat="47.53318" lon="2.0421517">
        <ele>163.0</ele>
        <time>2022-02-27T09:13:34Z</time>
      </trkpt>
      <trkpt lat="47.533173" lon="2.0421674">
        <ele>163.0</ele>
        <time>2022-02-27T09:13:35Z</time>
      </trkpt>
      <trkpt lat="47.533165" lon="2.0421817">
        <ele>164.0</ele>
        <time>2022-02-27T09:13:36Z</time>
      </trkpt>
      <trkpt lat="47.533157" lon="2.0421963">
        <ele>164.0</ele>
        <time>2022-02-27T09:13:37Z</time>
      </trkpt>
      <trkpt lat="47.53315" lon="2.0422096">
        <ele>164.0</ele>
        <time>2022-02-27T09:13:38Z</time>
      </trkpt>
      <trkpt lat="47.533146" lon="2.042227">
        <ele>164.0</ele>
        <time>2022-02-27T09:13:39Z</time>
      </trkpt>
      <trkpt lat="47.533142" lon="2.0422425">
        <ele>164.0</ele>
        <time>2022-02-27T09:13:40Z</time>
      </trkpt>
      <trkpt lat="47.533134" lon="2.0422592">
        <ele>164.0</ele>
        <time>2022-02-27T09:13:41Z</time>
      </trkpt>
      <trkpt lat="47.53313" lon="2.0422719">
        <ele>164.0</ele>
        <time>2022-02-27T09:13:42Z</time>
      </trkpt>
      <trkpt lat="47.533123" lon="2.042281">
        <ele>164.0</ele>
        <time>2022-02-27T09:13:43Z</time>
      </trkpt>
      <trkpt lat="47.53311" lon="2.0422912">
        <ele>164.0</ele>
        <time>2022-02-27T09:13:44Z</time>
      </trkpt>
      <trkpt lat="47.533104" lon="2.0423028">
        <ele>164.0</ele>
        <time>2022-02-27T09:13:45Z</time>
      </trkpt>
      <trkpt lat="47.5331" lon="2.0423152">
        <ele>164.0</ele>
        <time>2022-02-27T09:13:46Z</time>
      </trkpt>
      <trkpt lat="47.533096" lon="2.0423293">
        <ele>164.0</ele>
        <time>2022-02-27T09:13:47Z</time>
      </trkpt>
      <trkpt lat="47.533092" lon="2.0423398">
        <ele>163.0</ele>
        <time>2022-02-27T09:13:48Z</time>
      </trkpt>
      <trkpt lat="47.53309" lon="2.0423539">
        <ele>163.0</ele>
        <time>2022-02-27T09:13:49Z</time>
      </trkpt>
      <trkpt lat="47.53308" lon="2.0423603">
        <ele>162.0</ele>
        <time>2022-02-27T09:13:50Z</time>
      </trkpt>
      <trkpt lat="47.533073" lon="2.0423653">
        <ele>162.0</ele>
        <time>2022-02-27T09:13:51Z</time>
      </trkpt>
      <trkpt lat="47.533066" lon="2.0423753">
        <ele>162.0</ele>
        <time>2022-02-27T09:13:52Z</time>
      </trkpt>
      <trkpt lat="47.53306" lon="2.0423875">
        <ele>162.0</ele>
        <time>2022-02-27T09:13:53Z</time>
      </trkpt>
      <trkpt lat="47.533054" lon="2.0424013">
        <ele>162.0</ele>
        <time>2022-02-27T09:13:54Z</time>
      </trkpt>
      <trkpt lat="47.53305" lon="2.0424151">
        <ele>162.0</ele>
        <time>2022-02-27T09:13:55Z</time>
      </trkpt>
      <trkpt lat="47.53304" lon="2.0424297">
        <ele>162.0</ele>
        <time>2022-02-27T09:13:56Z</time>
      </trkpt>
      <trkpt lat="47.53303" lon="2.0424466">
        <ele>161.0</ele>
        <time>2022-02-27T09:13:57Z</time>
      </trkpt>
      <trkpt lat="47.533024" lon="2.042465">
        <ele>161.0</ele>
        <time>2022-02-27T09:13:58Z</time>
      </trkpt>
      <trkpt lat="47.53302" lon="2.0424774">
        <ele>161.0</ele>
        <time>2022-02-27T09:13:59Z</time>
      </trkpt>
      <trkpt lat="47.533016" lon="2.0424888">
        <ele>160.0</ele>
        <time>2022-02-27T09:14:00Z</time>
      </trkpt>
      <trkpt lat="47.53301" lon="2.042499">
        <ele>160.0</ele>
        <time>2022-02-27T09:14:01Z</time>
      </trkpt>
      <trkpt lat="47.533005" lon="2.0425155">
        <ele>160.0</ele>
        <time>2022-02-27T09:14:02Z</time>
      </trkpt>
      <trkpt lat="47.532993" lon="2.0425272">
        <ele>159.0</ele>
        <time>2022-02-27T09:14:03Z</time>
      </trkpt>
      <trkpt lat="47.532986" lon="2.0425398">
        <ele>159.0</ele>
        <time>2022-02-27T09:14:04Z</time>
      </trkpt>
      <trkpt lat="47.532978" lon="2.04255">
        <ele>159.0</ele>
        <time>2022-02-27T09:14:05Z</time>
      </trkpt>
      <trkpt lat="47.53297" lon="2.0425677">
        <ele>159.0</ele>
        <time>2022-02-27T09:14:06Z</time>
      </trkpt>
      <trkpt lat="47.532963" lon="2.0425835">
        <ele>159.0</ele>
        <time>2022-02-27T09:14:07Z</time>
      </trkpt>
      <trkpt lat="47.53296" lon="2.0425992">
        <ele>159.0</ele>
        <time>2022-02-27T09:14:08Z</time>
      </trkpt>
      <trkpt lat="47.53296" lon="2.042617">
        <ele>160.0</ele>
        <time>2022-02-27T09:14:09Z</time>
      </trkpt>
      <trkpt lat="47.532955" lon="2.0426283">
        <ele>160.0</ele>
        <time>2022-02-27T09:14:10Z</time>
      </trkpt>
      <trkpt lat="47.53295" lon="2.0426378">
        <ele>160.0</ele>
        <time>2022-02-27T09:14:11Z</time>
      </trkpt>
      <trkpt lat="47.532944" lon="2.042648">
        <ele>160.0</ele>
        <time>2022-02-27T09:14:12Z</time>
      </trkpt>
      <trkpt lat="47.53294" lon="2.0426612">
        <ele>159.0</ele>
        <time>2022-02-27T09:14:13Z</time>
      </trkpt>
      <trkpt lat="47.532932" lon="2.0426757">
        <ele>159.0</ele>
        <time>2022-02-27T09:14:14Z</time>
      </trkpt>
      <trkpt lat="47.53292" lon="2.0426898">
        <ele>159.0</ele>
        <time>2022-02-27T09:14:15Z</time>
      </trkpt>
      <trkpt lat="47.532917" lon="2.0427034">
        <ele>159.0</ele>
        <time>2022-02-27T09:14:16Z</time>
      </trkpt>
      <trkpt lat="47.53291" lon="2.0427213">
        <ele>159.0</ele>
        <time>2022-02-27T09:14:17Z</time>
      </trkpt>
      <trkpt lat="47.5329" lon="2.042735">
        <ele>158.0</ele>
        <time>2022-02-27T09:14:18Z</time>
      </trkpt>
      <trkpt lat="47.532898" lon="2.0427496">
        <ele>158.0</ele>
        <time>2022-02-27T09:14:19Z</time>
      </trkpt>
      <trkpt lat="47.532894" lon="2.042767">
        <ele>158.0</ele>
        <time>2022-02-27T09:14:20Z</time>
      </trkpt>
      <trkpt lat="47.532887" lon="2.0427866">
        <ele>158.0</ele>
        <time>2022-02-27T09:14:21Z</time>
      </trkpt>
      <trkpt lat="47.532883" lon="2.0428002">
        <ele>158.0</ele>
        <time>2022-02-27T09:14:22Z</time>
      </trkpt>
      <trkpt lat="47.53287" lon="2.0428195">
        <ele>158.0</ele>
        <time>2022-02-27T09:14:23Z</time>
      </trkpt>
      <trkpt lat="47.532864" lon="2.0428364">
        <ele>158.0</ele>
        <time>2022-02-27T09:14:24Z</time>
      </trkpt>
      <trkpt lat="47.53286" lon="2.0428557">
        <ele>158.0</ele>
        <time>2022-02-27T09:14:25Z</time>
      </trkpt>
      <trkpt lat="47.532852" lon="2.0428746">
        <ele>157.0</ele>
        <time>2022-02-27T09:14:26Z</time>
      </trkpt>
      <trkpt lat="47.532845" lon="2.0428898">
        <ele>157.0</ele>
        <time>2022-02-27T09:14:27Z</time>
      </trkpt>
      <trkpt lat="47.53284" lon="2.0429022">
        <ele>157.0</ele>
        <time>2022-02-27T09:14:28Z</time>
      </trkpt>
      <trkpt lat="47.532837" lon="2.042917">
        <ele>158.0</ele>
        <time>2022-02-27T09:14:29Z</time>
      </trkpt>
      <trkpt lat="47.53283" lon="2.0429323">
        <ele>158.0</ele>
        <time>2022-02-27T09:14:30Z</time>
      </trkpt>
      <trkpt lat="47.53282" lon="2.0429487">
        <ele>158.0</ele>
        <time>2022-02-27T09:14:31Z</time>
      </trkpt>
      <trkpt lat="47.532814" lon="2.0429652">
        <ele>158.0</ele>
        <time>2022-02-27T09:14:32Z</time>
      </trkpt>
      <trkpt lat="47.53281" lon="2.0429802">
        <ele>157.0</ele>
        <time>2022-02-27T09:14:33Z</time>
      </trkpt>
      <trkpt lat="47.532806" lon="2.0429971">
        <ele>157.0</ele>
        <time>2022-02-27T09:14:34Z</time>
      </trkpt>
      <trkpt lat="47.532803" lon="2.0430174">
        <ele>158.0</ele>
        <time>2022-02-27T09:14:35Z</time>
      </trkpt>
      <trkpt lat="47.5328" lon="2.043036">
        <ele>158.0</ele>
        <time>2022-02-27T09:14:36Z</time>
      </trkpt>
      <trkpt lat="47.532795" lon="2.0430546">
        <ele>158.0</ele>
        <time>2022-02-27T09:14:37Z</time>
      </trkpt>
      <trkpt lat="47.53279" lon="2.043071">
        <ele>158.0</ele>
        <time>2022-02-27T09:14:38Z</time>
      </trkpt>
      <trkpt lat="47.532787" lon="2.043086">
        <ele>158.0</ele>
        <time>2022-02-27T09:14:39Z</time>
      </trkpt>
      <trkpt lat="47.53278" lon="2.0431015">
        <ele>157.0</ele>
        <time>2022-02-27T09:14:40Z</time>
      </trkpt>
      <trkpt lat="47.532772" lon="2.0431204">
        <ele>157.0</ele>
        <time>2022-02-27T09:14:41Z</time>
      </trkpt>
      <trkpt lat="47.532764" lon="2.043136">
        <ele>157.0</ele>
        <time>2022-02-27T09:14:42Z</time>
      </trkpt>
      <trkpt lat="47.53276" lon="2.0431519">
        <ele>157.0</ele>
        <time>2022-02-27T09:14:43Z</time>
      </trkpt>
      <trkpt lat="47.532753" lon="2.0431678">
        <ele>158.0</ele>
        <time>2022-02-27T09:14:44Z</time>
      </trkpt>
      <trkpt lat="47.532745" lon="2.0431826">
        <ele>158.0</ele>
        <time>2022-02-27T09:14:45Z</time>
      </trkpt>
      <trkpt lat="47.53274" lon="2.0431955">
        <ele>158.0</ele>
        <time>2022-02-27T09:14:46Z</time>
      </trkpt>
      <trkpt lat="47.532738" lon="2.0432093">
        <ele>158.0</ele>
        <time>2022-02-27T09:14:47Z</time>
      </trkpt>
      <trkpt lat="47.53273" lon="2.0432265">
        <ele>158.0</ele>
        <time>2022-02-27T09:14:48Z</time>
      </trkpt>
      <trkpt lat="47.53272" lon="2.0432436">
        <ele>159.0</ele>
        <time>2022-02-27T09:14:49Z</time>
      </trkpt>
      <trkpt lat="47.53271" lon="2.0432591">
        <ele>159.0</ele>
        <time>2022-02-27T09:14:50Z</time>
      </trkpt>
      <trkpt lat="47.532703" lon="2.043275">
        <ele>159.0</ele>
        <time>2022-02-27T09:14:51Z</time>
      </trkpt>
      <trkpt lat="47.532696" lon="2.0432901">
        <ele>159.0</ele>
        <time>2022-02-27T09:14:52Z</time>
      </trkpt>
      <trkpt lat="47.53269" lon="2.0433033">
        <ele>159.0</ele>
        <time>2022-02-27T09:14:53Z</time>
      </trkpt>
      <trkpt lat="47.53268" lon="2.0433176">
        <ele>159.0</ele>
        <time>2022-02-27T09:14:54Z</time>
      </trkpt>
      <trkpt lat="47.532673" lon="2.0433333">
        <ele>159.0</ele>
        <time>2022-02-27T09:14:55Z</time>
      </trkpt>
      <trkpt lat="47.53267" lon="2.0433471">
        <ele>160.0</ele>
        <time>2022-02-27T09:14:56Z</time>
      </trkpt>
      <trkpt lat="47.53267" lon="2.0433607">
        <ele>159.0</ele>
        <time>2022-02-27T09:14:57Z</time>
      </trkpt>
      <trkpt lat="47.53266" lon="2.0433784">
        <ele>159.0</ele>
        <time>2022-02-27T09:14:58Z</time>
      </trkpt>
      <trkpt lat="47.532646" lon="2.043408">
        <ele>160.0</ele>
        <time>2022-02-27T09:15:00Z</time>
      </trkpt>
      <trkpt lat="47.532642" lon="2.0434222">
        <ele>160.0</ele>
        <time>2022-02-27T09:15:01Z</time>
      </trkpt>
      <trkpt lat="47.53264" lon="2.043437">
        <ele>160.0</ele>
        <time>2022-02-27T09:15:02Z</time>
      </trkpt>
      <trkpt lat="47.532635" lon="2.0434496">
        <ele>160.0</ele>
        <time>2022-02-27T09:15:03Z</time>
      </trkpt>
      <trkpt lat="47.53263" lon="2.0434616">
        <ele>161.0</ele>
        <time>2022-02-27T09:15:04Z</time>
      </trkpt>
      <trkpt lat="47.532623" lon="2.0434678">
        <ele>161.0</ele>
        <time>2022-02-27T09:15:05Z</time>
      </trkpt>
      <trkpt lat="47.53262" lon="2.0434773">
        <ele>162.0</ele>
        <time>2022-02-27T09:15:06Z</time>
      </trkpt>
      <trkpt lat="47.532616" lon="2.0434892">
        <ele>161.0</ele>
        <time>2022-02-27T09:15:07Z</time>
      </trkpt>
      <trkpt lat="47.53261" lon="2.0434985">
        <ele>162.0</ele>
        <time>2022-02-27T09:15:08Z</time>
      </trkpt>
      <trkpt lat="47.532604" lon="2.0435157">
        <ele>162.0</ele>
        <time>2022-02-27T09:15:09Z</time>
      </trkpt>
      <trkpt lat="47.532597" lon="2.0435302">
        <ele>162.0</ele>
        <time>2022-02-27T09:15:10Z</time>
      </trkpt>
      <trkpt lat="47.53258" lon="2.0435455">
        <ele>162.0</ele>
        <time>2022-02-27T09:15:11Z</time>
      </trkpt>
      <trkpt lat="47.532574" lon="2.0435603">
        <ele>162.0</ele>
        <time>2022-02-27T09:15:12Z</time>
      </trkpt>
      <trkpt lat="47.53257" lon="2.0435753">
        <ele>162.0</ele>
        <time>2022-02-27T09:15:13Z</time>
      </trkpt>
      <trkpt lat="47.532566" lon="2.0435946">
        <ele>162.0</ele>
        <time>2022-02-27T09:15:14Z</time>
      </trkpt>
      <trkpt lat="47.532562" lon="2.043608">
        <ele>162.0</ele>
        <time>2022-02-27T09:15:15Z</time>
      </trkpt>
      <trkpt lat="47.532555" lon="2.0436246">
        <ele>162.0</ele>
        <time>2022-02-27T09:15:16Z</time>
      </trkpt>
      <trkpt lat="47.532547" lon="2.0436435">
        <ele>162.0</ele>
        <time>2022-02-27T09:15:17Z</time>
      </trkpt>
      <trkpt lat="47.53254" lon="2.0436592">
        <ele>162.0</ele>
        <time>2022-02-27T09:15:18Z</time>
      </trkpt>
      <trkpt lat="47.53253" lon="2.043675">
        <ele>162.0</ele>
        <time>2022-02-27T09:15:19Z</time>
      </trkpt>
      <trkpt lat="47.532524" lon="2.0436924">
        <ele>162.0</ele>
        <time>2022-02-27T09:15:20Z</time>
      </trkpt>
      <trkpt lat="47.532516" lon="2.0437098">
        <ele>162.0</ele>
        <time>2022-02-27T09:15:21Z</time>
      </trkpt>
      <trkpt lat="47.53251" lon="2.0437243">
        <ele>161.0</ele>
        <time>2022-02-27T09:15:22Z</time>
      </trkpt>
      <trkpt lat="47.532505" lon="2.0437407">
        <ele>161.0</ele>
        <time>2022-02-27T09:15:23Z</time>
      </trkpt>
      <trkpt lat="47.532497" lon="2.0437565">
        <ele>162.0</ele>
        <time>2022-02-27T09:15:24Z</time>
      </trkpt>
      <trkpt lat="47.53249" lon="2.0437717">
        <ele>161.0</ele>
        <time>2022-02-27T09:15:25Z</time>
      </trkpt>
      <trkpt lat="47.532475" lon="2.0437918">
        <ele>161.0</ele>
        <time>2022-02-27T09:15:26Z</time>
      </trkpt>
      <trkpt lat="47.532467" lon="2.0438132">
        <ele>162.0</ele>
        <time>2022-02-27T09:15:27Z</time>
      </trkpt>
      <trkpt lat="47.53246" lon="2.043832">
        <ele>162.0</ele>
        <time>2022-02-27T09:15:28Z</time>
      </trkpt>
      <trkpt lat="47.53245" lon="2.0438466">
        <ele>162.0</ele>
        <time>2022-02-27T09:15:29Z</time>
      </trkpt>
      <trkpt lat="47.532448" lon="2.0438576">
        <ele>163.0</ele>
        <time>2022-02-27T09:15:30Z</time>
      </trkpt>
      <trkpt lat="47.53244" lon="2.043872">
        <ele>162.0</ele>
        <time>2022-02-27T09:15:31Z</time>
      </trkpt>
      <trkpt lat="47.532436" lon="2.0438888">
        <ele>162.0</ele>
        <time>2022-02-27T09:15:32Z</time>
      </trkpt>
      <trkpt lat="47.532433" lon="2.0439034">
        <ele>161.0</ele>
        <time>2022-02-27T09:15:33Z</time>
      </trkpt>
      <trkpt lat="47.532425" lon="2.0439208">
        <ele>161.0</ele>
        <time>2022-02-27T09:15:34Z</time>
      </trkpt>
      <trkpt lat="47.532417" lon="2.0439363">
        <ele>161.0</ele>
        <time>2022-02-27T09:15:35Z</time>
      </trkpt>
      <trkpt lat="47.53241" lon="2.0439503">
        <ele>161.0</ele>
        <time>2022-02-27T09:15:36Z</time>
      </trkpt>
      <trkpt lat="47.532402" lon="2.0439603">
        <ele>161.0</ele>
        <time>2022-02-27T09:15:37Z</time>
      </trkpt>
      <trkpt lat="47.532394" lon="2.043975">
        <ele>161.0</ele>
        <time>2022-02-27T09:15:38Z</time>
      </trkpt>
      <trkpt lat="47.532383" lon="2.0439816">
        <ele>161.0</ele>
        <time>2022-02-27T09:15:39Z</time>
      </trkpt>
      <trkpt lat="47.532375" lon="2.0439935">
        <ele>161.0</ele>
        <time>2022-02-27T09:15:40Z</time>
      </trkpt>
      <trkpt lat="47.532368" lon="2.044007">
        <ele>161.0</ele>
        <time>2022-02-27T09:15:41Z</time>
      </trkpt>
      <trkpt lat="47.53236" lon="2.044021">
        <ele>161.0</ele>
        <time>2022-02-27T09:15:42Z</time>
      </trkpt>
      <trkpt lat="47.532356" lon="2.0440335">
        <ele>161.0</ele>
        <time>2022-02-27T09:15:43Z</time>
      </trkpt>
      <trkpt lat="47.532352" lon="2.0440466">
        <ele>160.0</ele>
        <time>2022-02-27T09:15:44Z</time>
      </trkpt>
      <trkpt lat="47.532345" lon="2.0440598">
        <ele>161.0</ele>
        <time>2022-02-27T09:15:45Z</time>
      </trkpt>
      <trkpt lat="47.53234" lon="2.0440745">
        <ele>161.0</ele>
        <time>2022-02-27T09:15:46Z</time>
      </trkpt>
      <trkpt lat="47.53234" lon="2.0440896">
        <ele>161.0</ele>
        <time>2022-02-27T09:15:47Z</time>
      </trkpt>
      <trkpt lat="47.532333" lon="2.0441046">
        <ele>161.0</ele>
        <time>2022-02-27T09:15:48Z</time>
      </trkpt>
      <trkpt lat="47.532326" lon="2.044121">
        <ele>161.0</ele>
        <time>2022-02-27T09:15:49Z</time>
      </trkpt>
      <trkpt lat="47.53232" lon="2.0441425">
        <ele>162.0</ele>
        <time>2022-02-27T09:15:50Z</time>
      </trkpt>
      <trkpt lat="47.532314" lon="2.0441577">
        <ele>161.0</ele>
        <time>2022-02-27T09:15:51Z</time>
      </trkpt>
      <trkpt lat="47.532307" lon="2.0441737">
        <ele>161.0</ele>
        <time>2022-02-27T09:15:52Z</time>
      </trkpt>
      <trkpt lat="47.532303" lon="2.04418">
        <ele>162.0</ele>
        <time>2022-02-27T09:15:53Z</time>
      </trkpt>
      <trkpt lat="47.5323" lon="2.04419">
        <ele>161.0</ele>
        <time>2022-02-27T09:15:54Z</time>
      </trkpt>
      <trkpt lat="47.532295" lon="2.0442038">
        <ele>161.0</ele>
        <time>2022-02-27T09:15:55Z</time>
      </trkpt>
      <trkpt lat="47.532284" lon="2.0442166">
        <ele>161.0</ele>
        <time>2022-02-27T09:15:56Z</time>
      </trkpt>
      <trkpt lat="47.532272" lon="2.0442295">
        <ele>161.0</ele>
        <time>2022-02-27T09:15:57Z</time>
      </trkpt>
      <trkpt lat="47.53227" lon="2.0442464">
        <ele>161.0</ele>
        <time>2022-02-27T09:15:58Z</time>
      </trkpt>
      <trkpt lat="47.53226" lon="2.044263">
        <ele>161.0</ele>
        <time>2022-02-27T09:15:59Z</time>
      </trkpt>
      <trkpt lat="47.53226" lon="2.044276">
        <ele>161.0</ele>
        <time>2022-02-27T09:16:00Z</time>
      </trkpt>
      <trkpt lat="47.53226" lon="2.0442894">
        <ele>160.0</ele>
        <time>2022-02-27T09:16:01Z</time>
      </trkpt>
      <trkpt lat="47.532253" lon="2.0443008">
        <ele>160.0</ele>
        <time>2022-02-27T09:16:02Z</time>
      </trkpt>
      <trkpt lat="47.53225" lon="2.0443125">
        <ele>160.0</ele>
        <time>2022-02-27T09:16:03Z</time>
      </trkpt>
      <trkpt lat="47.53224" lon="2.04433">
        <ele>160.0</ele>
        <time>2022-02-27T09:16:04Z</time>
      </trkpt>
      <trkpt lat="47.532238" lon="2.0443406">
        <ele>160.0</ele>
        <time>2022-02-27T09:16:05Z</time>
      </trkpt>
      <trkpt lat="47.532234" lon="2.044353">
        <ele>160.0</ele>
        <time>2022-02-27T09:16:06Z</time>
      </trkpt>
      <trkpt lat="47.53223" lon="2.0443654">
        <ele>160.0</ele>
        <time>2022-02-27T09:16:07Z</time>
      </trkpt>
      <trkpt lat="47.532227" lon="2.0443792">
        <ele>160.0</ele>
        <time>2022-02-27T09:16:08Z</time>
      </trkpt>
      <trkpt lat="47.532223" lon="2.044396">
        <ele>160.0</ele>
        <time>2022-02-27T09:16:09Z</time>
      </trkpt>
      <trkpt lat="47.532215" lon="2.0444095">
        <ele>160.0</ele>
        <time>2022-02-27T09:16:10Z</time>
      </trkpt>
      <trkpt lat="47.532204" lon="2.0444255">
        <ele>160.0</ele>
        <time>2022-02-27T09:16:11Z</time>
      </trkpt>
      <trkpt lat="47.532196" lon="2.0444393">
        <ele>161.0</ele>
        <time>2022-02-27T09:16:12Z</time>
      </trkpt>
      <trkpt lat="47.532185" lon="2.0444536">
        <ele>160.0</ele>
        <time>2022-02-27T09:16:13Z</time>
      </trkpt>
      <trkpt lat="47.53218" lon="2.0444655">
        <ele>161.0</ele>
        <time>2022-02-27T09:16:14Z</time>
      </trkpt>
      <trkpt lat="47.53217" lon="2.044478">
        <ele>160.0</ele>
        <time>2022-02-27T09:16:15Z</time>
      </trkpt>
      <trkpt lat="47.53216" lon="2.0444937">
        <ele>160.0</ele>
        <time>2022-02-27T09:16:16Z</time>
      </trkpt>
      <trkpt lat="47.532154" lon="2.0445073">
        <ele>160.0</ele>
        <time>2022-02-27T09:16:17Z</time>
      </trkpt>
      <trkpt lat="47.532146" lon="2.044519">
        <ele>160.0</ele>
        <time>2022-02-27T09:16:18Z</time>
      </trkpt>
      <trkpt lat="47.53214" lon="2.0445373">
        <ele>160.0</ele>
        <time>2022-02-27T09:16:19Z</time>
      </trkpt>
      <trkpt lat="47.53213" lon="2.0445485">
        <ele>160.0</ele>
        <time>2022-02-27T09:16:20Z</time>
      </trkpt>
      <trkpt lat="47.532127" lon="2.0445628">
        <ele>160.0</ele>
        <time>2022-02-27T09:16:21Z</time>
      </trkpt>
      <trkpt lat="47.532124" lon="2.044579">
        <ele>160.0</ele>
        <time>2022-02-27T09:16:22Z</time>
      </trkpt>
      <trkpt lat="47.532124" lon="2.044599">
        <ele>160.0</ele>
        <time>2022-02-27T09:16:23Z</time>
      </trkpt>
      <trkpt lat="47.53212" lon="2.0446148">
        <ele>160.0</ele>
        <time>2022-02-27T09:16:24Z</time>
      </trkpt>
      <trkpt lat="47.53212" lon="2.0446286">
        <ele>160.0</ele>
        <time>2022-02-27T09:16:25Z</time>
      </trkpt>
      <trkpt lat="47.53212" lon="2.0446408">
        <ele>160.0</ele>
        <time>2022-02-27T09:16:26Z</time>
      </trkpt>
      <trkpt lat="47.53212" lon="2.04465">
        <ele>161.0</ele>
        <time>2022-02-27T09:16:27Z</time>
      </trkpt>
      <trkpt lat="47.53212" lon="2.04465">
        <ele>161.0</ele>
        <time>2022-02-27T09:16:28Z</time>
      </trkpt>
      <trkpt lat="47.53212" lon="2.04465">
        <ele>161.0</ele>
        <time>2022-02-27T09:16:29Z</time>
      </trkpt>
      <trkpt lat="47.53212" lon="2.04465">
        <ele>161.0</ele>
        <time>2022-02-27T09:16:30Z</time>
      </trkpt>
      <trkpt lat="47.53212" lon="2.04465">
        <ele>161.0</ele>
        <time>2022-02-27T09:16:30Z</time>
      </trkpt>
      <trkpt lat="47.53212" lon="2.04465">
        <ele>161.0</ele>
        <time>2022-02-27T09:16:30Z</time>
      </trkpt>
      <trkpt lat="47.53207" lon="2.0446923">
        <ele>167.0</ele>
        <time>2022-02-27T09:17:57Z</time>
      </trkpt>
      <trkpt lat="47.532066" lon="2.0446954">
        <ele>167.0</ele>
        <time>2022-02-27T09:17:58Z</time>
      </trkpt>
      <trkpt lat="47.532063" lon="2.0446973">
        <ele>167.0</ele>
        <time>2022-02-27T09:17:59Z</time>
      </trkpt>
      <trkpt lat="47.532055" lon="2.0447063">
        <ele>167.0</ele>
        <time>2022-02-27T09:18:00Z</time>
      </trkpt>
      <trkpt lat="47.532047" lon="2.0447237">
        <ele>166.0</ele>
        <time>2022-02-27T09:18:01Z</time>
      </trkpt>
      <trkpt lat="47.532043" lon="2.0447419">
        <ele>166.0</ele>
        <time>2022-02-27T09:18:02Z</time>
      </trkpt>
      <trkpt lat="47.53204" lon="2.0447598">
        <ele>166.0</ele>
        <time>2022-02-27T09:18:03Z</time>
      </trkpt>
      <trkpt lat="47.532036" lon="2.0447764">
        <ele>166.0</ele>
        <time>2022-02-27T09:18:04Z</time>
      </trkpt>
      <trkpt lat="47.53203" lon="2.044797">
        <ele>165.0</ele>
        <time>2022-02-27T09:18:05Z</time>
      </trkpt>
      <trkpt lat="47.53202" lon="2.0448163">
        <ele>165.0</ele>
        <time>2022-02-27T09:18:06Z</time>
      </trkpt>
      <trkpt lat="47.532013" lon="2.0448356">
        <ele>165.0</ele>
        <time>2022-02-27T09:18:07Z</time>
      </trkpt>
      <trkpt lat="47.532005" lon="2.0448554">
        <ele>164.0</ele>
        <time>2022-02-27T09:18:08Z</time>
      </trkpt>
      <trkpt lat="47.531998" lon="2.0448742">
        <ele>164.0</ele>
        <time>2022-02-27T09:18:09Z</time>
      </trkpt>
      <trkpt lat="47.53199" lon="2.044884">
        <ele>163.0</ele>
        <time>2022-02-27T09:18:10Z</time>
      </trkpt>
      <trkpt lat="47.531986" lon="2.044892">
        <ele>163.0</ele>
        <time>2022-02-27T09:18:11Z</time>
      </trkpt>
      <trkpt lat="47.531982" lon="2.0448985">
        <ele>163.0</ele>
        <time>2022-02-27T09:18:12Z</time>
      </trkpt>
      <trkpt lat="47.531986" lon="2.044893">
        <ele>163.0</ele>
        <time>2022-02-27T09:18:13Z</time>
      </trkpt>
      <trkpt lat="47.531998" lon="2.0448802">
        <ele>163.0</ele>
        <time>2022-02-27T09:18:14Z</time>
      </trkpt>
      <trkpt lat="47.531998" lon="2.0448759">
        <ele>163.0</ele>
        <time>2022-02-27T09:18:15Z</time>
      </trkpt>
      <trkpt lat="47.532" lon="2.0448732">
        <ele>162.0</ele>
        <time>2022-02-27T09:18:16Z</time>
      </trkpt>
      <trkpt lat="47.532" lon="2.0448732">
        <ele>162.0</ele>
        <time>2022-02-27T09:18:17Z</time>
      </trkpt>
      <trkpt lat="47.532" lon="2.0448732">
        <ele>162.0</ele>
        <time>2022-02-27T09:18:17Z</time>
      </trkpt>
      <trkpt lat="47.532" lon="2.0448732">
        <ele>162.0</ele>
        <time>2022-02-27T09:18:17Z</time>
      </trkpt>
      <trkpt lat="47.531982" lon="2.0449533">
        <ele>160.0</ele>
        <time>2022-02-27T09:18:27Z</time>
      </trkpt>
      <trkpt lat="47.53197" lon="2.0449724">
        <ele>160.0</ele>
        <time>2022-02-27T09:18:28Z</time>
      </trkpt>
      <trkpt lat="47.53196" lon="2.0449896">
        <ele>160.0</ele>
        <time>2022-02-27T09:18:29Z</time>
      </trkpt>
      <trkpt lat="47.53194" lon="2.0450242">
        <ele>161.0</ele>
        <time>2022-02-27T09:18:31Z</time>
      </trkpt>
      <trkpt lat="47.53193" lon="2.0450585">
        <ele>160.0</ele>
        <time>2022-02-27T09:18:33Z</time>
      </trkpt>
      <trkpt lat="47.53192" lon="2.0450754">
        <ele>160.0</ele>
        <time>2022-02-27T09:18:34Z</time>
      </trkpt>
      <trkpt lat="47.531918" lon="2.045095">
        <ele>160.0</ele>
        <time>2022-02-27T09:18:35Z</time>
      </trkpt>
      <trkpt lat="47.531918" lon="2.045111">
        <ele>160.0</ele>
        <time>2022-02-27T09:18:36Z</time>
      </trkpt>
      <trkpt lat="47.531914" lon="2.0451272">
        <ele>160.0</ele>
        <time>2022-02-27T09:18:37Z</time>
      </trkpt>
      <trkpt lat="47.531906" lon="2.0451458">
        <ele>159.0</ele>
        <time>2022-02-27T09:18:38Z</time>
      </trkpt>
      <trkpt lat="47.531902" lon="2.0451643">
        <ele>159.0</ele>
        <time>2022-02-27T09:18:39Z</time>
      </trkpt>
      <trkpt lat="47.53189" lon="2.045184">
        <ele>159.0</ele>
        <time>2022-02-27T09:18:40Z</time>
      </trkpt>
      <trkpt lat="47.53188" lon="2.0451996">
        <ele>159.0</ele>
        <time>2022-02-27T09:18:41Z</time>
      </trkpt>
      <trkpt lat="47.53187" lon="2.0452137">
        <ele>158.0</ele>
        <time>2022-02-27T09:18:42Z</time>
      </trkpt>
      <trkpt lat="47.531864" lon="2.045226">
        <ele>159.0</ele>
        <time>2022-02-27T09:18:43Z</time>
      </trkpt>
      <trkpt lat="47.531857" lon="2.0452397">
        <ele>159.0</ele>
        <time>2022-02-27T09:18:44Z</time>
      </trkpt>
      <trkpt lat="47.531845" lon="2.0452545">
        <ele>159.0</ele>
        <time>2022-02-27T09:18:45Z</time>
      </trkpt>
      <trkpt lat="47.531837" lon="2.0452693">
        <ele>159.0</ele>
        <time>2022-02-27T09:18:46Z</time>
      </trkpt>
      <trkpt lat="47.531826" lon="2.0452855">
        <ele>159.0</ele>
        <time>2022-02-27T09:18:47Z</time>
      </trkpt>
      <trkpt lat="47.53182" lon="2.0453079">
        <ele>160.0</ele>
        <time>2022-02-27T09:18:48Z</time>
      </trkpt>
      <trkpt lat="47.531807" lon="2.045334">
        <ele>160.0</ele>
        <time>2022-02-27T09:18:49Z</time>
      </trkpt>
      <trkpt lat="47.531803" lon="2.0453565">
        <ele>160.0</ele>
        <time>2022-02-27T09:18:50Z</time>
      </trkpt>
      <trkpt lat="47.53179" lon="2.045375">
        <ele>160.0</ele>
        <time>2022-02-27T09:18:51Z</time>
      </trkpt>
      <trkpt lat="47.531788" lon="2.0453985">
        <ele>159.0</ele>
        <time>2022-02-27T09:18:52Z</time>
      </trkpt>
      <trkpt lat="47.53178" lon="2.045421">
        <ele>159.0</ele>
        <time>2022-02-27T09:18:53Z</time>
      </trkpt>
      <trkpt lat="47.531773" lon="2.045441">
        <ele>159.0</ele>
        <time>2022-02-27T09:18:54Z</time>
      </trkpt>
      <trkpt lat="47.531765" lon="2.045461">
        <ele>158.0</ele>
        <time>2022-02-27T09:18:55Z</time>
      </trkpt>
      <trkpt lat="47.53176" lon="2.0454817">
        <ele>158.0</ele>
        <time>2022-02-27T09:18:56Z</time>
      </trkpt>
      <trkpt lat="47.531757" lon="2.0455003">
        <ele>158.0</ele>
        <time>2022-02-27T09:18:57Z</time>
      </trkpt>
      <trkpt lat="47.53175" lon="2.0455172">
        <ele>158.0</ele>
        <time>2022-02-27T09:18:58Z</time>
      </trkpt>
      <trkpt lat="47.531742" lon="2.0455327">
        <ele>158.0</ele>
        <time>2022-02-27T09:18:59Z</time>
      </trkpt>
      <trkpt lat="47.531734" lon="2.0455518">
        <ele>158.0</ele>
        <time>2022-02-27T09:19:00Z</time>
      </trkpt>
      <trkpt lat="47.531727" lon="2.0455709">
        <ele>158.0</ele>
        <time>2022-02-27T09:19:01Z</time>
      </trkpt>
      <trkpt lat="47.53172" lon="2.0455873">
        <ele>158.0</ele>
        <time>2022-02-27T09:19:02Z</time>
      </trkpt>
      <trkpt lat="47.531708" lon="2.0456026">
        <ele>159.0</ele>
        <time>2022-02-27T09:19:03Z</time>
      </trkpt>
      <trkpt lat="47.5317" lon="2.04562">
        <ele>160.0</ele>
        <time>2022-02-27T09:19:04Z</time>
      </trkpt>
      <trkpt lat="47.531685" lon="2.0456614">
        <ele>159.0</ele>
        <time>2022-02-27T09:19:06Z</time>
      </trkpt>
      <trkpt lat="47.531662" lon="2.0456893">
        <ele>159.0</ele>
        <time>2022-02-27T09:19:08Z</time>
      </trkpt>
      <trkpt lat="47.531654" lon="2.045701">
        <ele>159.0</ele>
        <time>2022-02-27T09:19:09Z</time>
      </trkpt>
      <trkpt lat="47.531647" lon="2.0457163">
        <ele>159.0</ele>
        <time>2022-02-27T09:19:10Z</time>
      </trkpt>
      <trkpt lat="47.53164" lon="2.0457337">
        <ele>159.0</ele>
        <time>2022-02-27T09:19:11Z</time>
      </trkpt>
      <trkpt lat="47.53163" lon="2.0457516">
        <ele>159.0</ele>
        <time>2022-02-27T09:19:12Z</time>
      </trkpt>
      <trkpt lat="47.531624" lon="2.045768">
        <ele>159.0</ele>
        <time>2022-02-27T09:19:13Z</time>
      </trkpt>
      <trkpt lat="47.531616" lon="2.0457902">
        <ele>159.0</ele>
        <time>2022-02-27T09:19:14Z</time>
      </trkpt>
      <trkpt lat="47.531612" lon="2.045804">
        <ele>158.0</ele>
        <time>2022-02-27T09:19:15Z</time>
      </trkpt>
      <trkpt lat="47.531605" lon="2.0458164">
        <ele>159.0</ele>
        <time>2022-02-27T09:19:16Z</time>
      </trkpt>
      <trkpt lat="47.5316" lon="2.0458283">
        <ele>158.0</ele>
        <time>2022-02-27T09:19:17Z</time>
      </trkpt>
      <trkpt lat="47.531597" lon="2.045843">
        <ele>158.0</ele>
        <time>2022-02-27T09:19:18Z</time>
      </trkpt>
      <trkpt lat="47.531593" lon="2.0458531">
        <ele>157.0</ele>
        <time>2022-02-27T09:19:19Z</time>
      </trkpt>
      <trkpt lat="47.531586" lon="2.04587">
        <ele>157.0</ele>
        <time>2022-02-27T09:19:20Z</time>
      </trkpt>
      <trkpt lat="47.531578" lon="2.045892">
        <ele>157.0</ele>
        <time>2022-02-27T09:19:21Z</time>
      </trkpt>
      <trkpt lat="47.53157" lon="2.045912">
        <ele>157.0</ele>
        <time>2022-02-27T09:19:22Z</time>
      </trkpt>
      <trkpt lat="47.531563" lon="2.0459323">
        <ele>157.0</ele>
        <time>2022-02-27T09:19:23Z</time>
      </trkpt>
      <trkpt lat="47.53156" lon="2.0459468">
        <ele>156.0</ele>
        <time>2022-02-27T09:19:24Z</time>
      </trkpt>
      <trkpt lat="47.531555" lon="2.0459652">
        <ele>156.0</ele>
        <time>2022-02-27T09:19:25Z</time>
      </trkpt>
      <trkpt lat="47.53155" lon="2.0459816">
        <ele>156.0</ele>
        <time>2022-02-27T09:19:26Z</time>
      </trkpt>
      <trkpt lat="47.531544" lon="2.0459988">
        <ele>155.0</ele>
        <time>2022-02-27T09:19:27Z</time>
      </trkpt>
      <trkpt lat="47.53154" lon="2.0460134">
        <ele>156.0</ele>
        <time>2022-02-27T09:19:28Z</time>
      </trkpt>
      <trkpt lat="47.531532" lon="2.0460274">
        <ele>156.0</ele>
        <time>2022-02-27T09:19:29Z</time>
      </trkpt>
      <trkpt lat="47.53153" lon="2.0460436">
        <ele>156.0</ele>
        <time>2022-02-27T09:19:30Z</time>
      </trkpt>
      <trkpt lat="47.53153" lon="2.04606">
        <ele>156.0</ele>
        <time>2022-02-27T09:19:31Z</time>
      </trkpt>
      <trkpt lat="47.53152" lon="2.0460773">
        <ele>156.0</ele>
        <time>2022-02-27T09:19:32Z</time>
      </trkpt>
      <trkpt lat="47.53151" lon="2.0460935">
        <ele>155.0</ele>
        <time>2022-02-27T09:19:33Z</time>
      </trkpt>
      <trkpt lat="47.5315" lon="2.0461092">
        <ele>154.0</ele>
        <time>2022-02-27T09:19:34Z</time>
      </trkpt>
      <trkpt lat="47.531487" lon="2.0461283">
        <ele>154.0</ele>
        <time>2022-02-27T09:19:35Z</time>
      </trkpt>
      <trkpt lat="47.531475" lon="2.0461483">
        <ele>153.0</ele>
        <time>2022-02-27T09:19:36Z</time>
      </trkpt>
      <trkpt lat="47.531467" lon="2.04617">
        <ele>153.0</ele>
        <time>2022-02-27T09:19:37Z</time>
      </trkpt>
      <trkpt lat="47.531464" lon="2.0461905">
        <ele>153.0</ele>
        <time>2022-02-27T09:19:38Z</time>
      </trkpt>
      <trkpt lat="47.531456" lon="2.0462158">
        <ele>153.0</ele>
        <time>2022-02-27T09:19:39Z</time>
      </trkpt>
      <trkpt lat="47.53145" lon="2.0462337">
        <ele>153.0</ele>
        <time>2022-02-27T09:19:40Z</time>
      </trkpt>
      <trkpt lat="47.531445" lon="2.0462532">
        <ele>153.0</ele>
        <time>2022-02-27T09:19:41Z</time>
      </trkpt>
      <trkpt lat="47.531433" lon="2.0462716">
        <ele>152.0</ele>
        <time>2022-02-27T09:19:42Z</time>
      </trkpt>
      <trkpt lat="47.53143" lon="2.0462928">
        <ele>152.0</ele>
        <time>2022-02-27T09:19:43Z</time>
      </trkpt>
      <trkpt lat="47.53142" lon="2.0463192">
        <ele>153.0</ele>
        <time>2022-02-27T09:19:44Z</time>
      </trkpt>
      <trkpt lat="47.531406" lon="2.0463448">
        <ele>153.0</ele>
        <time>2022-02-27T09:19:45Z</time>
      </trkpt>
      <trkpt lat="47.531395" lon="2.0463624">
        <ele>153.0</ele>
        <time>2022-02-27T09:19:46Z</time>
      </trkpt>
      <trkpt lat="47.531387" lon="2.0463798">
        <ele>153.0</ele>
        <time>2022-02-27T09:19:47Z</time>
      </trkpt>
      <trkpt lat="47.53138" lon="2.0464005">
        <ele>153.0</ele>
        <time>2022-02-27T09:19:48Z</time>
      </trkpt>
      <trkpt lat="47.53137" lon="2.0464203">
        <ele>152.0</ele>
        <time>2022-02-27T09:19:49Z</time>
      </trkpt>
      <trkpt lat="47.53136" lon="2.0464392">
        <ele>152.0</ele>
        <time>2022-02-27T09:19:50Z</time>
      </trkpt>
      <trkpt lat="47.531345" lon="2.0464582">
        <ele>152.0</ele>
        <time>2022-02-27T09:19:51Z</time>
      </trkpt>
      <trkpt lat="47.531334" lon="2.046478">
        <ele>152.0</ele>
        <time>2022-02-27T09:19:52Z</time>
      </trkpt>
      <trkpt lat="47.531322" lon="2.0465016">
        <ele>152.0</ele>
        <time>2022-02-27T09:19:53Z</time>
      </trkpt>
      <trkpt lat="47.53132" lon="2.046522">
        <ele>152.0</ele>
        <time>2022-02-27T09:19:54Z</time>
      </trkpt>
      <trkpt lat="47.53131" lon="2.0465424">
        <ele>152.0</ele>
        <time>2022-02-27T09:19:55Z</time>
      </trkpt>
      <trkpt lat="47.531307" lon="2.0465577">
        <ele>152.0</ele>
        <time>2022-02-27T09:19:56Z</time>
      </trkpt>
      <trkpt lat="47.5313" lon="2.0465732">
        <ele>151.0</ele>
        <time>2022-02-27T09:19:57Z</time>
      </trkpt>
      <trkpt lat="47.531292" lon="2.0465946">
        <ele>151.0</ele>
        <time>2022-02-27T09:19:58Z</time>
      </trkpt>
      <trkpt lat="47.53129" lon="2.0466142">
        <ele>151.0</ele>
        <time>2022-02-27T09:19:59Z</time>
      </trkpt>
      <trkpt lat="47.53128" lon="2.0466363">
        <ele>152.0</ele>
        <time>2022-02-27T09:20:00Z</time>
      </trkpt>
      <trkpt lat="47.531277" lon="2.046654">
        <ele>151.0</ele>
        <time>2022-02-27T09:20:01Z</time>
      </trkpt>
      <trkpt lat="47.53127" lon="2.0466712">
        <ele>151.0</ele>
        <time>2022-02-27T09:20:02Z</time>
      </trkpt>
      <trkpt lat="47.531258" lon="2.0466914">
        <ele>152.0</ele>
        <time>2022-02-27T09:20:03Z</time>
      </trkpt>
      <trkpt lat="47.53125" lon="2.0467122">
        <ele>152.0</ele>
        <time>2022-02-27T09:20:04Z</time>
      </trkpt>
      <trkpt lat="47.53124" lon="2.0467334">
        <ele>152.0</ele>
        <time>2022-02-27T09:20:05Z</time>
      </trkpt>
      <trkpt lat="47.531227" lon="2.0467556">
        <ele>151.0</ele>
        <time>2022-02-27T09:20:06Z</time>
      </trkpt>
      <trkpt lat="47.53122" lon="2.0467713">
        <ele>151.0</ele>
        <time>2022-02-27T09:20:07Z</time>
      </trkpt>
      <trkpt lat="47.531216" lon="2.046786">
        <ele>151.0</ele>
        <time>2022-02-27T09:20:08Z</time>
      </trkpt>
      <trkpt lat="47.53121" lon="2.0468013">
        <ele>152.0</ele>
        <time>2022-02-27T09:20:09Z</time>
      </trkpt>
      <trkpt lat="47.531208" lon="2.0468216">
        <ele>151.0</ele>
        <time>2022-02-27T09:20:10Z</time>
      </trkpt>
      <trkpt lat="47.5312" lon="2.0468397">
        <ele>151.0</ele>
        <time>2022-02-27T09:20:11Z</time>
      </trkpt>
      <trkpt lat="47.53119" lon="2.046859">
        <ele>151.0</ele>
        <time>2022-02-27T09:20:12Z</time>
      </trkpt>
      <trkpt lat="47.53118" lon="2.0468714">
        <ele>151.0</ele>
        <time>2022-02-27T09:20:13Z</time>
      </trkpt>
      <trkpt lat="47.531174" lon="2.0468886">
        <ele>151.0</ele>
        <time>2022-02-27T09:20:14Z</time>
      </trkpt>
      <trkpt lat="47.53117" lon="2.046907">
        <ele>151.0</ele>
        <time>2022-02-27T09:20:15Z</time>
      </trkpt>
      <trkpt lat="47.53116" lon="2.04693">
        <ele>150.0</ele>
        <time>2022-02-27T09:20:16Z</time>
      </trkpt>
      <trkpt lat="47.531147" lon="2.0469513">
        <ele>151.0</ele>
        <time>2022-02-27T09:20:17Z</time>
      </trkpt>
      <trkpt lat="47.53114" lon="2.04697">
        <ele>151.0</ele>
        <time>2022-02-27T09:20:18Z</time>
      </trkpt>
      <trkpt lat="47.531136" lon="2.0469859">
        <ele>151.0</ele>
        <time>2022-02-27T09:20:19Z</time>
      </trkpt>
      <trkpt lat="47.53113" lon="2.047005">
        <ele>151.0</ele>
        <time>2022-02-27T09:20:20Z</time>
      </trkpt>
      <trkpt lat="47.531124" lon="2.0470257">
        <ele>151.0</ele>
        <time>2022-02-27T09:20:21Z</time>
      </trkpt>
      <trkpt lat="47.531116" lon="2.0470505">
        <ele>151.0</ele>
        <time>2022-02-27T09:20:22Z</time>
      </trkpt>
      <trkpt lat="47.531105" lon="2.0470722">
        <ele>151.0</ele>
        <time>2022-02-27T09:20:23Z</time>
      </trkpt>
      <trkpt lat="47.531094" lon="2.0470943">
        <ele>151.0</ele>
        <time>2022-02-27T09:20:24Z</time>
      </trkpt>
      <trkpt lat="47.531086" lon="2.0471158">
        <ele>151.0</ele>
        <time>2022-02-27T09:20:25Z</time>
      </trkpt>
      <trkpt lat="47.53108" lon="2.0471365">
        <ele>151.0</ele>
        <time>2022-02-27T09:20:26Z</time>
      </trkpt>
      <trkpt lat="47.531067" lon="2.0471563">
        <ele>151.0</ele>
        <time>2022-02-27T09:20:27Z</time>
      </trkpt>
      <trkpt lat="47.531055" lon="2.047176">
        <ele>151.0</ele>
        <time>2022-02-27T09:20:28Z</time>
      </trkpt>
      <trkpt lat="47.531044" lon="2.0471923">
        <ele>152.0</ele>
        <time>2022-02-27T09:20:29Z</time>
      </trkpt>
      <trkpt lat="47.531033" lon="2.0472097">
        <ele>152.0</ele>
        <time>2022-02-27T09:20:30Z</time>
      </trkpt>
      <trkpt lat="47.53102" lon="2.0472264">
        <ele>152.0</ele>
        <time>2022-02-27T09:20:31Z</time>
      </trkpt>
      <trkpt lat="47.53101" lon="2.0472476">
        <ele>152.0</ele>
        <time>2022-02-27T09:20:32Z</time>
      </trkpt>
      <trkpt lat="47.531002" lon="2.0472662">
        <ele>151.0</ele>
        <time>2022-02-27T09:20:33Z</time>
      </trkpt>
      <trkpt lat="47.53099" lon="2.0472856">
        <ele>151.0</ele>
        <time>2022-02-27T09:20:34Z</time>
      </trkpt>
      <trkpt lat="47.530983" lon="2.047304">
        <ele>151.0</ele>
        <time>2022-02-27T09:20:35Z</time>
      </trkpt>
      <trkpt lat="47.530975" lon="2.047324">
        <ele>151.0</ele>
        <time>2022-02-27T09:20:36Z</time>
      </trkpt>
      <trkpt lat="47.530968" lon="2.047344">
        <ele>151.0</ele>
        <time>2022-02-27T09:20:37Z</time>
      </trkpt>
      <trkpt lat="47.530956" lon="2.0473645">
        <ele>151.0</ele>
        <time>2022-02-27T09:20:38Z</time>
      </trkpt>
      <trkpt lat="47.53095" lon="2.0473855">
        <ele>151.0</ele>
        <time>2022-02-27T09:20:39Z</time>
      </trkpt>
      <trkpt lat="47.530937" lon="2.047405">
        <ele>152.0</ele>
        <time>2022-02-27T09:20:40Z</time>
      </trkpt>
      <trkpt lat="47.530926" lon="2.0474277">
        <ele>152.0</ele>
        <time>2022-02-27T09:20:41Z</time>
      </trkpt>
      <trkpt lat="47.530914" lon="2.0474508">
        <ele>152.0</ele>
        <time>2022-02-27T09:20:42Z</time>
      </trkpt>
      <trkpt lat="47.530903" lon="2.0474777">
        <ele>152.0</ele>
        <time>2022-02-27T09:20:43Z</time>
      </trkpt>
      <trkpt lat="47.530895" lon="2.0474966">
        <ele>152.0</ele>
        <time>2022-02-27T09:20:44Z</time>
      </trkpt>
      <trkpt lat="47.530884" lon="2.047518">
        <ele>153.0</ele>
        <time>2022-02-27T09:20:45Z</time>
      </trkpt>
      <trkpt lat="47.530876" lon="2.04754">
        <ele>153.0</ele>
        <time>2022-02-27T09:20:46Z</time>
      </trkpt>
      <trkpt lat="47.53087" lon="2.0475597">
        <ele>154.0</ele>
        <time>2022-02-27T09:20:47Z</time>
      </trkpt>
      <trkpt lat="47.53086" lon="2.0475764">
        <ele>154.0</ele>
        <time>2022-02-27T09:20:48Z</time>
      </trkpt>
      <trkpt lat="47.530853" lon="2.0475972">
        <ele>154.0</ele>
        <time>2022-02-27T09:20:49Z</time>
      </trkpt>
      <trkpt lat="47.53084" lon="2.0476217">
        <ele>154.0</ele>
        <time>2022-02-27T09:20:50Z</time>
      </trkpt>
      <trkpt lat="47.53083" lon="2.0476408">
        <ele>154.0</ele>
        <time>2022-02-27T09:20:51Z</time>
      </trkpt>
      <trkpt lat="47.530827" lon="2.0476575">
        <ele>154.0</ele>
        <time>2022-02-27T09:20:52Z</time>
      </trkpt>
      <trkpt lat="47.53082" lon="2.0476763">
        <ele>154.0</ele>
        <time>2022-02-27T09:20:53Z</time>
      </trkpt>
      <trkpt lat="47.53081" lon="2.047696">
        <ele>154.0</ele>
        <time>2022-02-27T09:20:54Z</time>
      </trkpt>
      <trkpt lat="47.5308" lon="2.0477161">
        <ele>154.0</ele>
        <time>2022-02-27T09:20:55Z</time>
      </trkpt>
      <trkpt lat="47.530792" lon="2.0477328">
        <ele>154.0</ele>
        <time>2022-02-27T09:20:56Z</time>
      </trkpt>
      <trkpt lat="47.530785" lon="2.0477495">
        <ele>154.0</ele>
        <time>2022-02-27T09:20:57Z</time>
      </trkpt>
      <trkpt lat="47.530773" lon="2.0477722">
        <ele>154.0</ele>
        <time>2022-02-27T09:20:58Z</time>
      </trkpt>
      <trkpt lat="47.530766" lon="2.047791">
        <ele>153.0</ele>
        <time>2022-02-27T09:20:59Z</time>
      </trkpt>
      <trkpt lat="47.530758" lon="2.0478134">
        <ele>153.0</ele>
        <time>2022-02-27T09:21:00Z</time>
      </trkpt>
      <trkpt lat="47.530754" lon="2.0478327">
        <ele>153.0</ele>
        <time>2022-02-27T09:21:01Z</time>
      </trkpt>
      <trkpt lat="47.530746" lon="2.0478587">
        <ele>153.0</ele>
        <time>2022-02-27T09:21:02Z</time>
      </trkpt>
      <trkpt lat="47.53074" lon="2.0478828">
        <ele>153.0</ele>
        <time>2022-02-27T09:21:03Z</time>
      </trkpt>
      <trkpt lat="47.530735" lon="2.0479007">
        <ele>153.0</ele>
        <time>2022-02-27T09:21:04Z</time>
      </trkpt>
      <trkpt lat="47.53073" lon="2.0479212">
        <ele>152.0</ele>
        <time>2022-02-27T09:21:05Z</time>
      </trkpt>
      <trkpt lat="47.530727" lon="2.0479434">
        <ele>152.0</ele>
        <time>2022-02-27T09:21:06Z</time>
      </trkpt>
      <trkpt lat="47.53072" lon="2.0479646">
        <ele>152.0</ele>
        <time>2022-02-27T09:21:07Z</time>
      </trkpt>
      <trkpt lat="47.530712" lon="2.047989">
        <ele>152.0</ele>
        <time>2022-02-27T09:21:08Z</time>
      </trkpt>
      <trkpt lat="47.530704" lon="2.048006">
        <ele>152.0</ele>
        <time>2022-02-27T09:21:09Z</time>
      </trkpt>
      <trkpt lat="47.5307" lon="2.0480223">
        <ele>152.0</ele>
        <time>2022-02-27T09:21:10Z</time>
      </trkpt>
      <trkpt lat="47.530693" lon="2.0480394">
        <ele>152.0</ele>
        <time>2022-02-27T09:21:11Z</time>
      </trkpt>
      <trkpt lat="47.53068" lon="2.0480611">
        <ele>152.0</ele>
        <time>2022-02-27T09:21:12Z</time>
      </trkpt>
      <trkpt lat="47.530674" lon="2.0480769">
        <ele>152.0</ele>
        <time>2022-02-27T09:21:13Z</time>
      </trkpt>
      <trkpt lat="47.530666" lon="2.0480938">
        <ele>152.0</ele>
        <time>2022-02-27T09:21:14Z</time>
      </trkpt>
      <trkpt lat="47.530663" lon="2.048112">
        <ele>152.0</ele>
        <time>2022-02-27T09:21:15Z</time>
      </trkpt>
      <trkpt lat="47.53066" lon="2.0481298">
        <ele>152.0</ele>
        <time>2022-02-27T09:21:16Z</time>
      </trkpt>
      <trkpt lat="47.530647" lon="2.0481515">
        <ele>152.0</ele>
        <time>2022-02-27T09:21:17Z</time>
      </trkpt>
      <trkpt lat="47.530636" lon="2.0481753">
        <ele>152.0</ele>
        <time>2022-02-27T09:21:18Z</time>
      </trkpt>
      <trkpt lat="47.53063" lon="2.0481946">
        <ele>152.0</ele>
        <time>2022-02-27T09:21:19Z</time>
      </trkpt>
      <trkpt lat="47.53062" lon="2.048217">
        <ele>152.0</ele>
        <time>2022-02-27T09:21:20Z</time>
      </trkpt>
      <trkpt lat="47.530613" lon="2.048235">
        <ele>152.0</ele>
        <time>2022-02-27T09:21:21Z</time>
      </trkpt>
      <trkpt lat="47.530605" lon="2.0482557">
        <ele>152.0</ele>
        <time>2022-02-27T09:21:22Z</time>
      </trkpt>
      <trkpt lat="47.530598" lon="2.0482783">
        <ele>151.0</ele>
        <time>2022-02-27T09:21:23Z</time>
      </trkpt>
      <trkpt lat="47.53059" lon="2.0483005">
        <ele>151.0</ele>
        <time>2022-02-27T09:21:24Z</time>
      </trkpt>
      <trkpt lat="47.530586" lon="2.0483246">
        <ele>151.0</ele>
        <time>2022-02-27T09:21:25Z</time>
      </trkpt>
      <trkpt lat="47.530582" lon="2.0483475">
        <ele>151.0</ele>
        <time>2022-02-27T09:21:26Z</time>
      </trkpt>
      <trkpt lat="47.530575" lon="2.0483656">
        <ele>150.0</ele>
        <time>2022-02-27T09:21:27Z</time>
      </trkpt>
      <trkpt lat="47.530567" lon="2.048386">
        <ele>150.0</ele>
        <time>2022-02-27T09:21:28Z</time>
      </trkpt>
      <trkpt lat="47.530556" lon="2.0484037">
        <ele>149.0</ele>
        <time>2022-02-27T09:21:29Z</time>
      </trkpt>
      <trkpt lat="47.53055" lon="2.0484257">
        <ele>149.0</ele>
        <time>2022-02-27T09:21:30Z</time>
      </trkpt>
      <trkpt lat="47.53054" lon="2.048449">
        <ele>149.0</ele>
        <time>2022-02-27T09:21:31Z</time>
      </trkpt>
      <trkpt lat="47.530533" lon="2.048472">
        <ele>149.0</ele>
        <time>2022-02-27T09:21:32Z</time>
      </trkpt>
      <trkpt lat="47.53052" lon="2.0484924">
        <ele>148.0</ele>
        <time>2022-02-27T09:21:33Z</time>
      </trkpt>
      <trkpt lat="47.53052" lon="2.0485098">
        <ele>148.0</ele>
        <time>2022-02-27T09:21:34Z</time>
      </trkpt>
      <trkpt lat="47.53051" lon="2.048524">
        <ele>148.0</ele>
        <time>2022-02-27T09:21:35Z</time>
      </trkpt>
      <trkpt lat="47.5305" lon="2.0485384">
        <ele>148.0</ele>
        <time>2022-02-27T09:21:36Z</time>
      </trkpt>
      <trkpt lat="47.530483" lon="2.0485592">
        <ele>148.0</ele>
        <time>2022-02-27T09:21:37Z</time>
      </trkpt>
      <trkpt lat="47.53047" lon="2.0485806">
        <ele>148.0</ele>
        <time>2022-02-27T09:21:38Z</time>
      </trkpt>
      <trkpt lat="47.53046" lon="2.0486007">
        <ele>149.0</ele>
        <time>2022-02-27T09:21:39Z</time>
      </trkpt>
      <trkpt lat="47.53045" lon="2.048621">
        <ele>149.0</ele>
        <time>2022-02-27T09:21:40Z</time>
      </trkpt>
      <trkpt lat="47.530437" lon="2.0486364">
        <ele>149.0</ele>
        <time>2022-02-27T09:21:41Z</time>
      </trkpt>
      <trkpt lat="47.530426" lon="2.0486536">
        <ele>150.0</ele>
        <time>2022-02-27T09:21:42Z</time>
      </trkpt>
      <trkpt lat="47.530415" lon="2.048671">
        <ele>150.0</ele>
        <time>2022-02-27T09:21:43Z</time>
      </trkpt>
      <trkpt lat="47.530403" lon="2.0486891">
        <ele>150.0</ele>
        <time>2022-02-27T09:21:44Z</time>
      </trkpt>
      <trkpt lat="47.53039" lon="2.0487108">
        <ele>149.0</ele>
        <time>2022-02-27T09:21:45Z</time>
      </trkpt>
      <trkpt lat="47.530384" lon="2.0487306">
        <ele>149.0</ele>
        <time>2022-02-27T09:21:46Z</time>
      </trkpt>
      <trkpt lat="47.530373" lon="2.048748">
        <ele>150.0</ele>
        <time>2022-02-27T09:21:47Z</time>
      </trkpt>
      <trkpt lat="47.530365" lon="2.0487714">
        <ele>149.0</ele>
        <time>2022-02-27T09:21:48Z</time>
      </trkpt>
      <trkpt lat="47.530354" lon="2.0487938">
        <ele>149.0</ele>
        <time>2022-02-27T09:21:49Z</time>
      </trkpt>
      <trkpt lat="47.530346" lon="2.048814">
        <ele>149.0</ele>
        <time>2022-02-27T09:21:50Z</time>
      </trkpt>
      <trkpt lat="47.530334" lon="2.0488336">
        <ele>149.0</ele>
        <time>2022-02-27T09:21:51Z</time>
      </trkpt>
      <trkpt lat="47.530323" lon="2.0488565">
        <ele>149.0</ele>
        <time>2022-02-27T09:21:52Z</time>
      </trkpt>
      <trkpt lat="47.53031" lon="2.0488796">
        <ele>149.0</ele>
        <time>2022-02-27T09:21:53Z</time>
      </trkpt>
      <trkpt lat="47.5303" lon="2.0489006">
        <ele>148.0</ele>
        <time>2022-02-27T09:21:54Z</time>
      </trkpt>
      <trkpt lat="47.530285" lon="2.0489197">
        <ele>149.0</ele>
        <time>2022-02-27T09:21:55Z</time>
      </trkpt>
      <trkpt lat="47.530273" lon="2.048937">
        <ele>149.0</ele>
        <time>2022-02-27T09:21:56Z</time>
      </trkpt>
      <trkpt lat="47.530262" lon="2.0489576">
        <ele>150.0</ele>
        <time>2022-02-27T09:21:57Z</time>
      </trkpt>
      <trkpt lat="47.53025" lon="2.0489767">
        <ele>150.0</ele>
        <time>2022-02-27T09:21:58Z</time>
      </trkpt>
      <trkpt lat="47.53024" lon="2.0489902">
        <ele>150.0</ele>
        <time>2022-02-27T09:21:59Z</time>
      </trkpt>
      <trkpt lat="47.53023" lon="2.049004">
        <ele>150.0</ele>
        <time>2022-02-27T09:22:00Z</time>
      </trkpt>
      <trkpt lat="47.530224" lon="2.0490172">
        <ele>150.0</ele>
        <time>2022-02-27T09:22:01Z</time>
      </trkpt>
      <trkpt lat="47.530216" lon="2.0490332">
        <ele>150.0</ele>
        <time>2022-02-27T09:22:02Z</time>
      </trkpt>
      <trkpt lat="47.530205" lon="2.0490515">
        <ele>150.0</ele>
        <time>2022-02-27T09:22:03Z</time>
      </trkpt>
      <trkpt lat="47.530193" lon="2.0490701">
        <ele>150.0</ele>
        <time>2022-02-27T09:22:04Z</time>
      </trkpt>
      <trkpt lat="47.530186" lon="2.049088">
        <ele>150.0</ele>
        <time>2022-02-27T09:22:05Z</time>
      </trkpt>
      <trkpt lat="47.530178" lon="2.049104">
        <ele>150.0</ele>
        <time>2022-02-27T09:22:06Z</time>
      </trkpt>
      <trkpt lat="47.530167" lon="2.0491192">
        <ele>150.0</ele>
        <time>2022-02-27T09:22:07Z</time>
      </trkpt>
      <trkpt lat="47.530155" lon="2.049143">
        <ele>150.0</ele>
        <time>2022-02-27T09:22:08Z</time>
      </trkpt>
      <trkpt lat="47.530144" lon="2.04916">
        <ele>150.0</ele>
        <time>2022-02-27T09:22:09Z</time>
      </trkpt>
      <trkpt lat="47.530136" lon="2.0491807">
        <ele>151.0</ele>
        <time>2022-02-27T09:22:10Z</time>
      </trkpt>
      <trkpt lat="47.53013" lon="2.0492046">
        <ele>152.0</ele>
        <time>2022-02-27T09:22:11Z</time>
      </trkpt>
      <trkpt lat="47.530117" lon="2.0492277">
        <ele>152.0</ele>
        <time>2022-02-27T09:22:12Z</time>
      </trkpt>
      <trkpt lat="47.530106" lon="2.0492554">
        <ele>152.0</ele>
        <time>2022-02-27T09:22:13Z</time>
      </trkpt>
      <trkpt lat="47.530094" lon="2.0492785">
        <ele>152.0</ele>
        <time>2022-02-27T09:22:14Z</time>
      </trkpt>
      <trkpt lat="47.530087" lon="2.0493011">
        <ele>152.0</ele>
        <time>2022-02-27T09:22:15Z</time>
      </trkpt>
      <trkpt lat="47.53008" lon="2.0493224">
        <ele>152.0</ele>
        <time>2022-02-27T09:22:16Z</time>
      </trkpt>
      <trkpt lat="47.53007" lon="2.0493436">
        <ele>152.0</ele>
        <time>2022-02-27T09:22:17Z</time>
      </trkpt>
      <trkpt lat="47.530064" lon="2.0493658">
        <ele>152.0</ele>
        <time>2022-02-27T09:22:18Z</time>
      </trkpt>
      <trkpt lat="47.530052" lon="2.0493867">
        <ele>152.0</ele>
        <time>2022-02-27T09:22:19Z</time>
      </trkpt>
      <trkpt lat="47.530045" lon="2.0494044">
        <ele>152.0</ele>
        <time>2022-02-27T09:22:20Z</time>
      </trkpt>
      <trkpt lat="47.53003" lon="2.0494235">
        <ele>153.0</ele>
        <time>2022-02-27T09:22:21Z</time>
      </trkpt>
      <trkpt lat="47.53002" lon="2.0494442">
        <ele>153.0</ele>
        <time>2022-02-27T09:22:22Z</time>
      </trkpt>
      <trkpt lat="47.530014" lon="2.0494623">
        <ele>153.0</ele>
        <time>2022-02-27T09:22:23Z</time>
      </trkpt>
      <trkpt lat="47.530006" lon="2.0494847">
        <ele>154.0</ele>
        <time>2022-02-27T09:22:24Z</time>
      </trkpt>
      <trkpt lat="47.53" lon="2.049509">
        <ele>154.0</ele>
        <time>2022-02-27T09:22:25Z</time>
      </trkpt>
      <trkpt lat="47.52999" lon="2.0495307">
        <ele>154.0</ele>
        <time>2022-02-27T09:22:26Z</time>
      </trkpt>
      <trkpt lat="47.529984" lon="2.0495503">
        <ele>154.0</ele>
        <time>2022-02-27T09:22:27Z</time>
      </trkpt>
      <trkpt lat="47.529972" lon="2.049572">
        <ele>154.0</ele>
        <time>2022-02-27T09:22:28Z</time>
      </trkpt>
      <trkpt lat="47.52996" lon="2.0495896">
        <ele>154.0</ele>
        <time>2022-02-27T09:22:29Z</time>
      </trkpt>
      <trkpt lat="47.529953" lon="2.0496118">
        <ele>154.0</ele>
        <time>2022-02-27T09:22:30Z</time>
      </trkpt>
      <trkpt lat="47.52995" lon="2.0496316">
        <ele>154.0</ele>
        <time>2022-02-27T09:22:31Z</time>
      </trkpt>
      <trkpt lat="47.52994" lon="2.0496492">
        <ele>154.0</ele>
        <time>2022-02-27T09:22:32Z</time>
      </trkpt>
      <trkpt lat="47.529938" lon="2.0496693">
        <ele>154.0</ele>
        <time>2022-02-27T09:22:33Z</time>
      </trkpt>
      <trkpt lat="47.52993" lon="2.0496862">
        <ele>154.0</ele>
        <time>2022-02-27T09:22:34Z</time>
      </trkpt>
      <trkpt lat="47.529926" lon="2.0497005">
        <ele>154.0</ele>
        <time>2022-02-27T09:22:35Z</time>
      </trkpt>
      <trkpt lat="47.529926" lon="2.049709">
        <ele>154.0</ele>
        <time>2022-02-27T09:22:36Z</time>
      </trkpt>
      <trkpt lat="47.529922" lon="2.0497239">
        <ele>154.0</ele>
        <time>2022-02-27T09:22:37Z</time>
      </trkpt>
      <trkpt lat="47.52992" lon="2.0497394">
        <ele>154.0</ele>
        <time>2022-02-27T09:22:38Z</time>
      </trkpt>
      <trkpt lat="47.529915" lon="2.049755">
        <ele>154.0</ele>
        <time>2022-02-27T09:22:39Z</time>
      </trkpt>
      <trkpt lat="47.529907" lon="2.0497663">
        <ele>154.0</ele>
        <time>2022-02-27T09:22:40Z</time>
      </trkpt>
      <trkpt lat="47.529896" lon="2.0497773">
        <ele>153.0</ele>
        <time>2022-02-27T09:22:41Z</time>
      </trkpt>
      <trkpt lat="47.52989" lon="2.0497928">
        <ele>153.0</ele>
        <time>2022-02-27T09:22:42Z</time>
      </trkpt>
      <trkpt lat="47.529877" lon="2.0498116">
        <ele>154.0</ele>
        <time>2022-02-27T09:22:43Z</time>
      </trkpt>
      <trkpt lat="47.52987" lon="2.049823">
        <ele>154.0</ele>
        <time>2022-02-27T09:22:44Z</time>
      </trkpt>
      <trkpt lat="47.52986" lon="2.0498393">
        <ele>153.0</ele>
        <time>2022-02-27T09:22:45Z</time>
      </trkpt>
      <trkpt lat="47.529858" lon="2.0498533">
        <ele>153.0</ele>
        <time>2022-02-27T09:22:46Z</time>
      </trkpt>
      <trkpt lat="47.529854" lon="2.0498683">
        <ele>153.0</ele>
        <time>2022-02-27T09:22:47Z</time>
      </trkpt>
      <trkpt lat="47.529846" lon="2.049884">
        <ele>152.0</ele>
        <time>2022-02-27T09:22:48Z</time>
      </trkpt>
      <trkpt lat="47.52984" lon="2.0499024">
        <ele>152.0</ele>
        <time>2022-02-27T09:22:49Z</time>
      </trkpt>
      <trkpt lat="47.52983" lon="2.0499268">
        <ele>152.0</ele>
        <time>2022-02-27T09:22:50Z</time>
      </trkpt>
      <trkpt lat="47.529823" lon="2.0499477">
        <ele>152.0</ele>
        <time>2022-02-27T09:22:51Z</time>
      </trkpt>
      <trkpt lat="47.52982" lon="2.0499647">
        <ele>152.0</ele>
        <time>2022-02-27T09:22:52Z</time>
      </trkpt>
      <trkpt lat="47.529816" lon="2.049982">
        <ele>152.0</ele>
        <time>2022-02-27T09:22:53Z</time>
      </trkpt>
      <trkpt lat="47.52981" lon="2.0499997">
        <ele>152.0</ele>
        <time>2022-02-27T09:22:54Z</time>
      </trkpt>
      <trkpt lat="47.529804" lon="2.0500193">
        <ele>152.0</ele>
        <time>2022-02-27T09:22:55Z</time>
      </trkpt>
      <trkpt lat="47.529797" lon="2.0500386">
        <ele>152.0</ele>
        <time>2022-02-27T09:22:56Z</time>
      </trkpt>
      <trkpt lat="47.52979" lon="2.0500584">
        <ele>151.0</ele>
        <time>2022-02-27T09:22:57Z</time>
      </trkpt>
      <trkpt lat="47.529778" lon="2.0500758">
        <ele>152.0</ele>
        <time>2022-02-27T09:22:58Z</time>
      </trkpt>
      <trkpt lat="47.529766" lon="2.050094">
        <ele>152.0</ele>
        <time>2022-02-27T09:22:59Z</time>
      </trkpt>
      <trkpt lat="47.52976" lon="2.0501113">
        <ele>152.0</ele>
        <time>2022-02-27T09:23:00Z</time>
      </trkpt>
      <trkpt lat="47.529747" lon="2.0501297">
        <ele>153.0</ele>
        <time>2022-02-27T09:23:01Z</time>
      </trkpt>
      <trkpt lat="47.529743" lon="2.0501509">
        <ele>153.0</ele>
        <time>2022-02-27T09:23:02Z</time>
      </trkpt>
      <trkpt lat="47.529736" lon="2.0501783">
        <ele>153.0</ele>
        <time>2022-02-27T09:23:03Z</time>
      </trkpt>
      <trkpt lat="47.529728" lon="2.050206">
        <ele>153.0</ele>
        <time>2022-02-27T09:23:04Z</time>
      </trkpt>
      <trkpt lat="47.529716" lon="2.0502303">
        <ele>153.0</ele>
        <time>2022-02-27T09:23:05Z</time>
      </trkpt>
      <trkpt lat="47.5297" lon="2.0502536">
        <ele>154.0</ele>
        <time>2022-02-27T09:23:06Z</time>
      </trkpt>
      <trkpt lat="47.52969" lon="2.0502727">
        <ele>154.0</ele>
        <time>2022-02-27T09:23:07Z</time>
      </trkpt>
      <trkpt lat="47.529675" lon="2.0502899">
        <ele>154.0</ele>
        <time>2022-02-27T09:23:08Z</time>
      </trkpt>
      <trkpt lat="47.529667" lon="2.0503073">
        <ele>154.0</ele>
        <time>2022-02-27T09:23:09Z</time>
      </trkpt>
      <trkpt lat="47.52966" lon="2.0503247">
        <ele>154.0</ele>
        <time>2022-02-27T09:23:10Z</time>
      </trkpt>
      <trkpt lat="47.52965" lon="2.0503376">
        <ele>153.0</ele>
        <time>2022-02-27T09:23:11Z</time>
      </trkpt>
      <trkpt lat="47.52964" lon="2.0503511">
        <ele>153.0</ele>
        <time>2022-02-27T09:23:12Z</time>
      </trkpt>
      <trkpt lat="47.529636" lon="2.0503623">
        <ele>153.0</ele>
        <time>2022-02-27T09:23:13Z</time>
      </trkpt>
      <trkpt lat="47.529636" lon="2.0503623">
        <ele>153.0</ele>
        <time>2022-02-27T09:23:14Z</time>
      </trkpt>
      <trkpt lat="47.529636" lon="2.0503623">
        <ele>153.0</ele>
        <time>2022-02-27T09:23:15Z</time>
      </trkpt>
      <trkpt lat="47.529613" lon="2.0504024">
        <ele>153.0</ele>
        <time>2022-02-27T09:23:16Z</time>
      </trkpt>
      <trkpt lat="47.529606" lon="2.0504146">
        <ele>153.0</ele>
        <time>2022-02-27T09:23:17Z</time>
      </trkpt>
      <trkpt lat="47.5296" lon="2.0504246">
        <ele>153.0</ele>
        <time>2022-02-27T09:23:18Z</time>
      </trkpt>
      <trkpt lat="47.529594" lon="2.0504386">
        <ele>153.0</ele>
        <time>2022-02-27T09:23:19Z</time>
      </trkpt>
      <trkpt lat="47.529594" lon="2.0504386">
        <ele>153.0</ele>
        <time>2022-02-27T09:23:20Z</time>
      </trkpt>
      <trkpt lat="47.529594" lon="2.0504386">
        <ele>153.0</ele>
        <time>2022-02-27T09:23:21Z</time>
      </trkpt>
      <trkpt lat="47.529583" lon="2.0504813">
        <ele>153.0</ele>
        <time>2022-02-27T09:23:22Z</time>
      </trkpt>
      <trkpt lat="47.52957" lon="2.050494">
        <ele>153.0</ele>
        <time>2022-02-27T09:23:23Z</time>
      </trkpt>
      <trkpt lat="47.529564" lon="2.0505047">
        <ele>153.0</ele>
        <time>2022-02-27T09:23:24Z</time>
      </trkpt>
      <trkpt lat="47.529556" lon="2.0505188">
        <ele>152.0</ele>
        <time>2022-02-27T09:23:25Z</time>
      </trkpt>
      <trkpt lat="47.529552" lon="2.0505326">
        <ele>152.0</ele>
        <time>2022-02-27T09:23:26Z</time>
      </trkpt>
      <trkpt lat="47.529545" lon="2.0505505">
        <ele>152.0</ele>
        <time>2022-02-27T09:23:27Z</time>
      </trkpt>
      <trkpt lat="47.529537" lon="2.050566">
        <ele>152.0</ele>
        <time>2022-02-27T09:23:28Z</time>
      </trkpt>
      <trkpt lat="47.52953" lon="2.0505786">
        <ele>152.0</ele>
        <time>2022-02-27T09:23:29Z</time>
      </trkpt>
      <trkpt lat="47.529522" lon="2.0505946">
        <ele>152.0</ele>
        <time>2022-02-27T09:23:30Z</time>
      </trkpt>
      <trkpt lat="47.52952" lon="2.0506098">
        <ele>152.0</ele>
        <time>2022-02-27T09:23:31Z</time>
      </trkpt>
      <trkpt lat="47.52951" lon="2.0506306">
        <ele>152.0</ele>
        <time>2022-02-27T09:23:32Z</time>
      </trkpt>
      <trkpt lat="47.529507" lon="2.0506454">
        <ele>152.0</ele>
        <time>2022-02-27T09:23:33Z</time>
      </trkpt>
      <trkpt lat="47.5295" lon="2.0506613">
        <ele>152.0</ele>
        <time>2022-02-27T09:23:34Z</time>
      </trkpt>
      <trkpt lat="47.52949" lon="2.0506783">
        <ele>153.0</ele>
        <time>2022-02-27T09:23:35Z</time>
      </trkpt>
      <trkpt lat="47.529488" lon="2.0506983">
        <ele>153.0</ele>
        <time>2022-02-27T09:23:36Z</time>
      </trkpt>
      <trkpt lat="47.529484" lon="2.0507207">
        <ele>153.0</ele>
        <time>2022-02-27T09:23:37Z</time>
      </trkpt>
      <trkpt lat="47.529476" lon="2.050737">
        <ele>152.0</ele>
        <time>2022-02-27T09:23:38Z</time>
      </trkpt>
      <trkpt lat="47.52947" lon="2.0507548">
        <ele>152.0</ele>
        <time>2022-02-27T09:23:39Z</time>
      </trkpt>
      <trkpt lat="47.529465" lon="2.050772">
        <ele>152.0</ele>
        <time>2022-02-27T09:23:40Z</time>
      </trkpt>
      <trkpt lat="47.52946" lon="2.0507877">
        <ele>153.0</ele>
        <time>2022-02-27T09:23:41Z</time>
      </trkpt>
      <trkpt lat="47.52945" lon="2.0508018">
        <ele>153.0</ele>
        <time>2022-02-27T09:23:42Z</time>
      </trkpt>
      <trkpt lat="47.529446" lon="2.0508137">
        <ele>153.0</ele>
        <time>2022-02-27T09:23:43Z</time>
      </trkpt>
      <trkpt lat="47.529438" lon="2.0508275">
        <ele>153.0</ele>
        <time>2022-02-27T09:23:44Z</time>
      </trkpt>
      <trkpt lat="47.52943" lon="2.0508418">
        <ele>153.0</ele>
        <time>2022-02-27T09:23:45Z</time>
      </trkpt>
      <trkpt lat="47.529423" lon="2.0508597">
        <ele>153.0</ele>
        <time>2022-02-27T09:23:46Z</time>
      </trkpt>
      <trkpt lat="47.52941" lon="2.0508766">
        <ele>152.0</ele>
        <time>2022-02-27T09:23:47Z</time>
      </trkpt>
      <trkpt lat="47.529404" lon="2.0508966">
        <ele>152.0</ele>
        <time>2022-02-27T09:23:48Z</time>
      </trkpt>
      <trkpt lat="47.529396" lon="2.050916">
        <ele>153.0</ele>
        <time>2022-02-27T09:23:49Z</time>
      </trkpt>
      <trkpt lat="47.529392" lon="2.0509288">
        <ele>153.0</ele>
        <time>2022-02-27T09:23:50Z</time>
      </trkpt>
      <trkpt lat="47.529385" lon="2.0509436">
        <ele>153.0</ele>
        <time>2022-02-27T09:23:51Z</time>
      </trkpt>
      <trkpt lat="47.529377" lon="2.0509586">
        <ele>153.0</ele>
        <time>2022-02-27T09:23:52Z</time>
      </trkpt>
      <trkpt lat="47.52937" lon="2.050977">
        <ele>153.0</ele>
        <time>2022-02-27T09:23:53Z</time>
      </trkpt>
      <trkpt lat="47.529366" lon="2.0509927">
        <ele>153.0</ele>
        <time>2022-02-27T09:23:54Z</time>
      </trkpt>
      <trkpt lat="47.52936" lon="2.051008">
        <ele>152.0</ele>
        <time>2022-02-27T09:23:55Z</time>
      </trkpt>
      <trkpt lat="47.529354" lon="2.0510242">
        <ele>153.0</ele>
        <time>2022-02-27T09:23:56Z</time>
      </trkpt>
      <trkpt lat="47.52935" lon="2.0510373">
        <ele>153.0</ele>
        <time>2022-02-27T09:23:57Z</time>
      </trkpt>
      <trkpt lat="47.52934" lon="2.0510519">
        <ele>153.0</ele>
        <time>2022-02-27T09:23:58Z</time>
      </trkpt>
      <trkpt lat="47.52933" lon="2.0510705">
        <ele>154.0</ele>
        <time>2022-02-27T09:23:59Z</time>
      </trkpt>
      <trkpt lat="47.529327" lon="2.0510867">
        <ele>154.0</ele>
        <time>2022-02-27T09:24:00Z</time>
      </trkpt>
      <trkpt lat="47.52932" lon="2.0511005">
        <ele>154.0</ele>
        <time>2022-02-27T09:24:01Z</time>
      </trkpt>
      <trkpt lat="47.529316" lon="2.0511138">
        <ele>154.0</ele>
        <time>2022-02-27T09:24:02Z</time>
      </trkpt>
      <trkpt lat="47.52931" lon="2.0511293">
        <ele>154.0</ele>
        <time>2022-02-27T09:24:03Z</time>
      </trkpt>
      <trkpt lat="47.529305" lon="2.0511453">
        <ele>154.0</ele>
        <time>2022-02-27T09:24:04Z</time>
      </trkpt>
      <trkpt lat="47.5293" lon="2.0511622">
        <ele>154.0</ele>
        <time>2022-02-27T09:24:05Z</time>
      </trkpt>
      <trkpt lat="47.529297" lon="2.0511787">
        <ele>154.0</ele>
        <time>2022-02-27T09:24:06Z</time>
      </trkpt>
      <trkpt lat="47.52929" lon="2.0511913">
        <ele>154.0</ele>
        <time>2022-02-27T09:24:07Z</time>
      </trkpt>
      <trkpt lat="47.52928" lon="2.0512064">
        <ele>155.0</ele>
        <time>2022-02-27T09:24:08Z</time>
      </trkpt>
      <trkpt lat="47.529278" lon="2.0512195">
        <ele>155.0</ele>
        <time>2022-02-27T09:24:09Z</time>
      </trkpt>
      <trkpt lat="47.529274" lon="2.0512338">
        <ele>155.0</ele>
        <time>2022-02-27T09:24:10Z</time>
      </trkpt>
      <trkpt lat="47.529266" lon="2.0512538">
        <ele>155.0</ele>
        <time>2022-02-27T09:24:11Z</time>
      </trkpt>
      <trkpt lat="47.529263" lon="2.051274">
        <ele>155.0</ele>
        <time>2022-02-27T09:24:12Z</time>
      </trkpt>
      <trkpt lat="47.529255" lon="2.0512943">
        <ele>156.0</ele>
        <time>2022-02-27T09:24:13Z</time>
      </trkpt>
      <trkpt lat="47.529247" lon="2.0513155">
        <ele>156.0</ele>
        <time>2022-02-27T09:24:14Z</time>
      </trkpt>
      <trkpt lat="47.52924" lon="2.0513358">
        <ele>156.0</ele>
        <time>2022-02-27T09:24:15Z</time>
      </trkpt>
      <trkpt lat="47.529232" lon="2.0513592">
        <ele>156.0</ele>
        <time>2022-02-27T09:24:16Z</time>
      </trkpt>
      <trkpt lat="47.529224" lon="2.0513768">
        <ele>156.0</ele>
        <time>2022-02-27T09:24:17Z</time>
      </trkpt>
      <trkpt lat="47.529213" lon="2.0513904">
        <ele>156.0</ele>
        <time>2022-02-27T09:24:18Z</time>
      </trkpt>
      <trkpt lat="47.52921" lon="2.051411">
        <ele>156.0</ele>
        <time>2022-02-27T09:24:19Z</time>
      </trkpt>
      <trkpt lat="47.529205" lon="2.0514255">
        <ele>157.0</ele>
        <time>2022-02-27T09:24:20Z</time>
      </trkpt>
      <trkpt lat="47.5292" lon="2.0514407">
        <ele>157.0</ele>
        <time>2022-02-27T09:24:21Z</time>
      </trkpt>
      <trkpt lat="47.529194" lon="2.0514534">
        <ele>158.0</ele>
        <time>2022-02-27T09:24:22Z</time>
      </trkpt>
      <trkpt lat="47.52919" lon="2.0514724">
        <ele>158.0</ele>
        <time>2022-02-27T09:24:23Z</time>
      </trkpt>
      <trkpt lat="47.52918" lon="2.0514898">
        <ele>158.0</ele>
        <time>2022-02-27T09:24:24Z</time>
      </trkpt>
      <trkpt lat="47.529167" lon="2.051502">
        <ele>158.0</ele>
        <time>2022-02-27T09:24:25Z</time>
      </trkpt>
      <trkpt lat="47.52916" lon="2.0515149">
        <ele>158.0</ele>
        <time>2022-02-27T09:24:26Z</time>
      </trkpt>
      <trkpt lat="47.529156" lon="2.051528">
        <ele>158.0</ele>
        <time>2022-02-27T09:24:27Z</time>
      </trkpt>
      <trkpt lat="47.529152" lon="2.0515451">
        <ele>158.0</ele>
        <time>2022-02-27T09:24:28Z</time>
      </trkpt>
      <trkpt lat="47.52915" lon="2.0515628">
        <ele>158.0</ele>
        <time>2022-02-27T09:24:29Z</time>
      </trkpt>
      <trkpt lat="47.529144" lon="2.0515783">
        <ele>158.0</ele>
        <time>2022-02-27T09:24:30Z</time>
      </trkpt>
      <trkpt lat="47.529133" lon="2.0515945">
        <ele>159.0</ele>
        <time>2022-02-27T09:24:31Z</time>
      </trkpt>
      <trkpt lat="47.52913" lon="2.0516124">
        <ele>159.0</ele>
        <time>2022-02-27T09:24:32Z</time>
      </trkpt>
      <trkpt lat="47.529125" lon="2.0516284">
        <ele>158.0</ele>
        <time>2022-02-27T09:24:33Z</time>
      </trkpt>
      <trkpt lat="47.529125" lon="2.051643">
        <ele>158.0</ele>
        <time>2022-02-27T09:24:34Z</time>
      </trkpt>
      <trkpt lat="47.529114" lon="2.051662">
        <ele>159.0</ele>
        <time>2022-02-27T09:24:35Z</time>
      </trkpt>
      <trkpt lat="47.52911" lon="2.05168">
        <ele>159.0</ele>
        <time>2022-02-27T09:24:36Z</time>
      </trkpt>
      <trkpt lat="47.529102" lon="2.0516937">
        <ele>159.0</ele>
        <time>2022-02-27T09:24:37Z</time>
      </trkpt>
      <trkpt lat="47.529095" lon="2.05171">
        <ele>159.0</ele>
        <time>2022-02-27T09:24:38Z</time>
      </trkpt>
      <trkpt lat="47.52909" lon="2.051725">
        <ele>159.0</ele>
        <time>2022-02-27T09:24:39Z</time>
      </trkpt>
      <trkpt lat="47.529087" lon="2.0517364">
        <ele>159.0</ele>
        <time>2022-02-27T09:24:40Z</time>
      </trkpt>
      <trkpt lat="47.529083" lon="2.0517502">
        <ele>159.0</ele>
        <time>2022-02-27T09:24:41Z</time>
      </trkpt>
      <trkpt lat="47.529076" lon="2.051763">
        <ele>159.0</ele>
        <time>2022-02-27T09:24:42Z</time>
      </trkpt>
      <trkpt lat="47.52907" lon="2.0517764">
        <ele>159.0</ele>
        <time>2022-02-27T09:24:43Z</time>
      </trkpt>
      <trkpt lat="47.529064" lon="2.0517905">
        <ele>159.0</ele>
        <time>2022-02-27T09:24:44Z</time>
      </trkpt>
      <trkpt lat="47.529057" lon="2.0518053">
        <ele>159.0</ele>
        <time>2022-02-27T09:24:45Z</time>
      </trkpt>
      <trkpt lat="47.529053" lon="2.0518181">
        <ele>159.0</ele>
        <time>2022-02-27T09:24:46Z</time>
      </trkpt>
      <trkpt lat="47.52905" lon="2.0518324">
        <ele>159.0</ele>
        <time>2022-02-27T09:24:47Z</time>
      </trkpt>
      <trkpt lat="47.529045" lon="2.0518465">
        <ele>159.0</ele>
        <time>2022-02-27T09:24:48Z</time>
      </trkpt>
      <trkpt lat="47.52904" lon="2.0518608">
        <ele>159.0</ele>
        <time>2022-02-27T09:24:49Z</time>
      </trkpt>
      <trkpt lat="47.529037" lon="2.0518723">
        <ele>159.0</ele>
        <time>2022-02-27T09:24:50Z</time>
      </trkpt>
      <trkpt lat="47.529034" lon="2.0518882">
        <ele>158.0</ele>
        <time>2022-02-27T09:24:51Z</time>
      </trkpt>
      <trkpt lat="47.529034" lon="2.0519006">
        <ele>158.0</ele>
        <time>2022-02-27T09:24:52Z</time>
      </trkpt>
      <trkpt lat="47.529026" lon="2.0519133">
        <ele>158.0</ele>
        <time>2022-02-27T09:24:53Z</time>
      </trkpt>
      <trkpt lat="47.52902" lon="2.0519254">
        <ele>157.0</ele>
        <time>2022-02-27T09:24:54Z</time>
      </trkpt>
      <trkpt lat="47.529015" lon="2.0519447">
        <ele>158.0</ele>
        <time>2022-02-27T09:24:55Z</time>
      </trkpt>
      <trkpt lat="47.529007" lon="2.0519638">
        <ele>158.0</ele>
        <time>2022-02-27T09:24:56Z</time>
      </trkpt>
      <trkpt lat="47.529" lon="2.0519786">
        <ele>158.0</ele>
        <time>2022-02-27T09:24:57Z</time>
      </trkpt>
      <trkpt lat="47.528996" lon="2.051995">
        <ele>158.0</ele>
        <time>2022-02-27T09:24:58Z</time>
      </trkpt>
      <trkpt lat="47.528988" lon="2.0520065">
        <ele>158.0</ele>
        <time>2022-02-27T09:24:59Z</time>
      </trkpt>
      <trkpt lat="47.528984" lon="2.052024">
        <ele>158.0</ele>
        <time>2022-02-27T09:25:00Z</time>
      </trkpt>
      <trkpt lat="47.528976" lon="2.052042">
        <ele>158.0</ele>
        <time>2022-02-27T09:25:01Z</time>
      </trkpt>
      <trkpt lat="47.528976" lon="2.0520594">
        <ele>158.0</ele>
        <time>2022-02-27T09:25:02Z</time>
      </trkpt>
      <trkpt lat="47.528973" lon="2.0520735">
        <ele>158.0</ele>
        <time>2022-02-27T09:25:03Z</time>
      </trkpt>
      <trkpt lat="47.528965" lon="2.0520887">
        <ele>158.0</ele>
        <time>2022-02-27T09:25:04Z</time>
      </trkpt>
      <trkpt lat="47.528954" lon="2.0521042">
        <ele>157.0</ele>
        <time>2022-02-27T09:25:05Z</time>
      </trkpt>
      <trkpt lat="47.52895" lon="2.0521195">
        <ele>158.0</ele>
        <time>2022-02-27T09:25:06Z</time>
      </trkpt>
      <trkpt lat="47.528942" lon="2.0521317">
        <ele>158.0</ele>
        <time>2022-02-27T09:25:07Z</time>
      </trkpt>
      <trkpt lat="47.52894" lon="2.052145">
        <ele>157.0</ele>
        <time>2022-02-27T09:25:08Z</time>
      </trkpt>
      <trkpt lat="47.52894" lon="2.052156">
        <ele>158.0</ele>
        <time>2022-02-27T09:25:09Z</time>
      </trkpt>
      <trkpt lat="47.52893" lon="2.0521667">
        <ele>157.0</ele>
        <time>2022-02-27T09:25:10Z</time>
      </trkpt>
      <trkpt lat="47.528927" lon="2.0521803">
        <ele>157.0</ele>
        <time>2022-02-27T09:25:11Z</time>
      </trkpt>
      <trkpt lat="47.52892" lon="2.0521934">
        <ele>157.0</ele>
        <time>2022-02-27T09:25:12Z</time>
      </trkpt>
      <trkpt lat="47.528915" lon="2.0522094">
        <ele>157.0</ele>
        <time>2022-02-27T09:25:13Z</time>
      </trkpt>
      <trkpt lat="47.52891" lon="2.0522294">
        <ele>156.0</ele>
        <time>2022-02-27T09:25:14Z</time>
      </trkpt>
      <trkpt lat="47.528908" lon="2.0522437">
        <ele>156.0</ele>
        <time>2022-02-27T09:25:15Z</time>
      </trkpt>
      <trkpt lat="47.528904" lon="2.0522552">
        <ele>156.0</ele>
        <time>2022-02-27T09:25:16Z</time>
      </trkpt>
      <trkpt lat="47.528896" lon="2.0522668">
        <ele>155.0</ele>
        <time>2022-02-27T09:25:17Z</time>
      </trkpt>
      <trkpt lat="47.528893" lon="2.0522797">
        <ele>155.0</ele>
        <time>2022-02-27T09:25:18Z</time>
      </trkpt>
      <trkpt lat="47.52889" lon="2.0522907">
        <ele>155.0</ele>
        <time>2022-02-27T09:25:19Z</time>
      </trkpt>
      <trkpt lat="47.528885" lon="2.0523043">
        <ele>155.0</ele>
        <time>2022-02-27T09:25:20Z</time>
      </trkpt>
      <trkpt lat="47.52888" lon="2.0523167">
        <ele>155.0</ele>
        <time>2022-02-27T09:25:21Z</time>
      </trkpt>
      <trkpt lat="47.52887" lon="2.0523298">
        <ele>154.0</ele>
        <time>2022-02-27T09:25:22Z</time>
      </trkpt>
      <trkpt lat="47.52887" lon="2.0523298">
        <ele>154.0</ele>
        <time>2022-02-27T09:25:23Z</time>
      </trkpt>
      <trkpt lat="47.528866" lon="2.0523574">
        <ele>154.0</ele>
        <time>2022-02-27T09:25:24Z</time>
      </trkpt>
      <trkpt lat="47.52886" lon="2.0523777">
        <ele>155.0</ele>
        <time>2022-02-27T09:25:25Z</time>
      </trkpt>
      <trkpt lat="47.528854" lon="2.0523956">
        <ele>154.0</ele>
        <time>2022-02-27T09:25:26Z</time>
      </trkpt>
      <trkpt lat="47.52885" lon="2.0524101">
        <ele>154.0</ele>
        <time>2022-02-27T09:25:27Z</time>
      </trkpt>
      <trkpt lat="47.528847" lon="2.0524278">
        <ele>154.0</ele>
        <time>2022-02-27T09:25:28Z</time>
      </trkpt>
      <trkpt lat="47.528843" lon="2.0524387">
        <ele>154.0</ele>
        <time>2022-02-27T09:25:29Z</time>
      </trkpt>
      <trkpt lat="47.528843" lon="2.052452">
        <ele>154.0</ele>
        <time>2022-02-27T09:25:30Z</time>
      </trkpt>
      <trkpt lat="47.52884" lon="2.052472">
        <ele>155.0</ele>
        <time>2022-02-27T09:25:31Z</time>
      </trkpt>
      <trkpt lat="47.52884" lon="2.0524933">
        <ele>155.0</ele>
        <time>2022-02-27T09:25:32Z</time>
      </trkpt>
      <trkpt lat="47.528835" lon="2.052513">
        <ele>155.0</ele>
        <time>2022-02-27T09:25:33Z</time>
      </trkpt>
      <trkpt lat="47.528835" lon="2.0525277">
        <ele>155.0</ele>
        <time>2022-02-27T09:25:34Z</time>
      </trkpt>
      <trkpt lat="47.528835" lon="2.0525427">
        <ele>156.0</ele>
        <time>2022-02-27T09:25:35Z</time>
      </trkpt>
      <trkpt lat="47.528828" lon="2.052562">
        <ele>156.0</ele>
        <time>2022-02-27T09:25:36Z</time>
      </trkpt>
      <trkpt lat="47.528824" lon="2.052581">
        <ele>156.0</ele>
        <time>2022-02-27T09:25:37Z</time>
      </trkpt>
      <trkpt lat="47.52882" lon="2.0526013">
        <ele>156.0</ele>
        <time>2022-02-27T09:25:38Z</time>
      </trkpt>
      <trkpt lat="47.528816" lon="2.0526147">
        <ele>155.0</ele>
        <time>2022-02-27T09:25:39Z</time>
      </trkpt>
      <trkpt lat="47.528812" lon="2.0526283">
        <ele>156.0</ele>
        <time>2022-02-27T09:25:40Z</time>
      </trkpt>
      <trkpt lat="47.528812" lon="2.052644">
        <ele>156.0</ele>
        <time>2022-02-27T09:25:41Z</time>
      </trkpt>
      <trkpt lat="47.52881" lon="2.0526574">
        <ele>156.0</ele>
        <time>2022-02-27T09:25:42Z</time>
      </trkpt>
      <trkpt lat="47.52881" lon="2.0526574">
        <ele>156.0</ele>
        <time>2022-02-27T09:25:43Z</time>
      </trkpt>
      <trkpt lat="47.528797" lon="2.0526826">
        <ele>156.0</ele>
        <time>2022-02-27T09:25:44Z</time>
      </trkpt>
      <trkpt lat="47.52879" lon="2.0526962">
        <ele>156.0</ele>
        <time>2022-02-27T09:25:45Z</time>
      </trkpt>
      <trkpt lat="47.528786" lon="2.0527136">
        <ele>156.0</ele>
        <time>2022-02-27T09:25:46Z</time>
      </trkpt>
      <trkpt lat="47.52878" lon="2.0527303">
        <ele>156.0</ele>
        <time>2022-02-27T09:25:47Z</time>
      </trkpt>
      <trkpt lat="47.52878" lon="2.0527477">
        <ele>156.0</ele>
        <time>2022-02-27T09:25:48Z</time>
      </trkpt>
      <trkpt lat="47.528778" lon="2.052765">
        <ele>156.0</ele>
        <time>2022-02-27T09:25:49Z</time>
      </trkpt>
      <trkpt lat="47.528774" lon="2.052783">
        <ele>156.0</ele>
        <time>2022-02-27T09:25:50Z</time>
      </trkpt>
      <trkpt lat="47.528774" lon="2.0528002">
        <ele>157.0</ele>
        <time>2022-02-27T09:25:51Z</time>
      </trkpt>
      <trkpt lat="47.528767" lon="2.0528154">
        <ele>157.0</ele>
        <time>2022-02-27T09:25:52Z</time>
      </trkpt>
      <trkpt lat="47.52876" lon="2.0528283">
        <ele>157.0</ele>
        <time>2022-02-27T09:25:53Z</time>
      </trkpt>
      <trkpt lat="47.528755" lon="2.0528462">
        <ele>158.0</ele>
        <time>2022-02-27T09:25:54Z</time>
      </trkpt>
      <trkpt lat="47.52875" lon="2.0528595">
        <ele>158.0</ele>
        <time>2022-02-27T09:25:55Z</time>
      </trkpt>
      <trkpt lat="47.528744" lon="2.0528688">
        <ele>158.0</ele>
        <time>2022-02-27T09:25:56Z</time>
      </trkpt>
      <trkpt lat="47.528732" lon="2.0528827">
        <ele>158.0</ele>
        <time>2022-02-27T09:25:57Z</time>
      </trkpt>
      <trkpt lat="47.52873" lon="2.0528972">
        <ele>158.0</ele>
        <time>2022-02-27T09:25:58Z</time>
      </trkpt>
      <trkpt lat="47.528725" lon="2.052908">
        <ele>158.0</ele>
        <time>2022-02-27T09:25:59Z</time>
      </trkpt>
      <trkpt lat="47.528717" lon="2.052917">
        <ele>158.0</ele>
        <time>2022-02-27T09:26:00Z</time>
      </trkpt>
      <trkpt lat="47.528713" lon="2.0529304">
        <ele>158.0</ele>
        <time>2022-02-27T09:26:01Z</time>
      </trkpt>
      <trkpt lat="47.528706" lon="2.0529459">
        <ele>158.0</ele>
        <time>2022-02-27T09:26:02Z</time>
      </trkpt>
      <trkpt lat="47.5287" lon="2.0529675">
        <ele>158.0</ele>
        <time>2022-02-27T09:26:03Z</time>
      </trkpt>
      <trkpt lat="47.528698" lon="2.0529778">
        <ele>157.0</ele>
        <time>2022-02-27T09:26:04Z</time>
      </trkpt>
      <trkpt lat="47.52869" lon="2.0529928">
        <ele>157.0</ele>
        <time>2022-02-27T09:26:05Z</time>
      </trkpt>
      <trkpt lat="47.528683" lon="2.053003">
        <ele>156.0</ele>
        <time>2022-02-27T09:26:06Z</time>
      </trkpt>
      <trkpt lat="47.52868" lon="2.0530133">
        <ele>155.0</ele>
        <time>2022-02-27T09:26:07Z</time>
      </trkpt>
      <trkpt lat="47.52867" lon="2.0530293">
        <ele>155.0</ele>
        <time>2022-02-27T09:26:08Z</time>
      </trkpt>
      <trkpt lat="47.528667" lon="2.0530453">
        <ele>154.0</ele>
        <time>2022-02-27T09:26:09Z</time>
      </trkpt>
      <trkpt lat="47.52866" lon="2.0530572">
        <ele>154.0</ele>
        <time>2022-02-27T09:26:10Z</time>
      </trkpt>
      <trkpt lat="47.528656" lon="2.0530677">
        <ele>154.0</ele>
        <time>2022-02-27T09:26:11Z</time>
      </trkpt>
      <trkpt lat="47.528652" lon="2.0530825">
        <ele>154.0</ele>
        <time>2022-02-27T09:26:12Z</time>
      </trkpt>
      <trkpt lat="47.528645" lon="2.0530996">
        <ele>154.0</ele>
        <time>2022-02-27T09:26:13Z</time>
      </trkpt>
      <trkpt lat="47.528637" lon="2.05311">
        <ele>154.0</ele>
        <time>2022-02-27T09:26:14Z</time>
      </trkpt>
      <trkpt lat="47.528633" lon="2.0531266">
        <ele>154.0</ele>
        <time>2022-02-27T09:26:15Z</time>
      </trkpt>
      <trkpt lat="47.528625" lon="2.0531414">
        <ele>154.0</ele>
        <time>2022-02-27T09:26:16Z</time>
      </trkpt>
      <trkpt lat="47.52862" lon="2.053158">
        <ele>154.0</ele>
        <time>2022-02-27T09:26:17Z</time>
      </trkpt>
      <trkpt lat="47.528614" lon="2.0531752">
        <ele>154.0</ele>
        <time>2022-02-27T09:26:18Z</time>
      </trkpt>
      <trkpt lat="47.52861" lon="2.0531943">
        <ele>154.0</ele>
        <time>2022-02-27T09:26:19Z</time>
      </trkpt>
      <trkpt lat="47.528606" lon="2.0532095">
        <ele>154.0</ele>
        <time>2022-02-27T09:26:20Z</time>
      </trkpt>
      <trkpt lat="47.5286" lon="2.053227">
        <ele>153.0</ele>
        <time>2022-02-27T09:26:21Z</time>
      </trkpt>
      <trkpt lat="47.52859" lon="2.053247">
        <ele>153.0</ele>
        <time>2022-02-27T09:26:22Z</time>
      </trkpt>
      <trkpt lat="47.528587" lon="2.0532663">
        <ele>153.0</ele>
        <time>2022-02-27T09:26:23Z</time>
      </trkpt>
      <trkpt lat="47.52858" lon="2.053288">
        <ele>154.0</ele>
        <time>2022-02-27T09:26:24Z</time>
      </trkpt>
      <trkpt lat="47.528576" lon="2.053303">
        <ele>154.0</ele>
        <time>2022-02-27T09:26:25Z</time>
      </trkpt>
      <trkpt lat="47.528572" lon="2.053322">
        <ele>154.0</ele>
        <time>2022-02-27T09:26:26Z</time>
      </trkpt>
      <trkpt lat="47.52857" lon="2.0533426">
        <ele>154.0</ele>
        <time>2022-02-27T09:26:27Z</time>
      </trkpt>
      <trkpt lat="47.52856" lon="2.0533662">
        <ele>154.0</ele>
        <time>2022-02-27T09:26:28Z</time>
      </trkpt>
      <trkpt lat="47.528557" lon="2.053388">
        <ele>154.0</ele>
        <time>2022-02-27T09:26:29Z</time>
      </trkpt>
      <trkpt lat="47.528553" lon="2.0534086">
        <ele>154.0</ele>
        <time>2022-02-27T09:26:30Z</time>
      </trkpt>
      <trkpt lat="47.52855" lon="2.0534263">
        <ele>154.0</ele>
        <time>2022-02-27T09:26:31Z</time>
      </trkpt>
      <trkpt lat="47.52854" lon="2.053446">
        <ele>154.0</ele>
        <time>2022-02-27T09:26:32Z</time>
      </trkpt>
      <trkpt lat="47.528538" lon="2.0534658">
        <ele>154.0</ele>
        <time>2022-02-27T09:26:33Z</time>
      </trkpt>
      <trkpt lat="47.52853" lon="2.0534842">
        <ele>154.0</ele>
        <time>2022-02-27T09:26:34Z</time>
      </trkpt>
      <trkpt lat="47.528526" lon="2.053502">
        <ele>154.0</ele>
        <time>2022-02-27T09:26:35Z</time>
      </trkpt>
      <trkpt lat="47.52852" lon="2.0535228">
        <ele>154.0</ele>
        <time>2022-02-27T09:26:36Z</time>
      </trkpt>
      <trkpt lat="47.52851" lon="2.0535407">
        <ele>155.0</ele>
        <time>2022-02-27T09:26:37Z</time>
      </trkpt>
      <trkpt lat="47.52851" lon="2.0535576">
        <ele>155.0</ele>
        <time>2022-02-27T09:26:38Z</time>
      </trkpt>
      <trkpt lat="47.528503" lon="2.053572">
        <ele>155.0</ele>
        <time>2022-02-27T09:26:39Z</time>
      </trkpt>
      <trkpt lat="47.528496" lon="2.0535927">
        <ele>156.0</ele>
        <time>2022-02-27T09:26:40Z</time>
      </trkpt>
      <trkpt lat="47.52849" lon="2.0536132">
        <ele>156.0</ele>
        <time>2022-02-27T09:26:41Z</time>
      </trkpt>
      <trkpt lat="47.528484" lon="2.053629">
        <ele>156.0</ele>
        <time>2022-02-27T09:26:42Z</time>
      </trkpt>
      <trkpt lat="47.52848" lon="2.0536473">
        <ele>156.0</ele>
        <time>2022-02-27T09:26:43Z</time>
      </trkpt>
      <trkpt lat="47.528477" lon="2.0536635">
        <ele>156.0</ele>
        <time>2022-02-27T09:26:44Z</time>
      </trkpt>
      <trkpt lat="47.528473" lon="2.0536785">
        <ele>156.0</ele>
        <time>2022-02-27T09:26:45Z</time>
      </trkpt>
      <trkpt lat="47.52847" lon="2.0536957">
        <ele>157.0</ele>
        <time>2022-02-27T09:26:46Z</time>
      </trkpt>
      <trkpt lat="47.528465" lon="2.0537138">
        <ele>157.0</ele>
        <time>2022-02-27T09:26:47Z</time>
      </trkpt>
      <trkpt lat="47.52846" lon="2.0537336">
        <ele>157.0</ele>
        <time>2022-02-27T09:26:48Z</time>
      </trkpt>
      <trkpt lat="47.528458" lon="2.0537486">
        <ele>158.0</ele>
        <time>2022-02-27T09:26:49Z</time>
      </trkpt>
      <trkpt lat="47.528446" lon="2.0537665">
        <ele>158.0</ele>
        <time>2022-02-27T09:26:50Z</time>
      </trkpt>
      <trkpt lat="47.528446" lon="2.0537798">
        <ele>158.0</ele>
        <time>2022-02-27T09:26:51Z</time>
      </trkpt>
      <trkpt lat="47.528442" lon="2.0537956">
        <ele>158.0</ele>
        <time>2022-02-27T09:26:52Z</time>
      </trkpt>
      <trkpt lat="47.528435" lon="2.0538144">
        <ele>158.0</ele>
        <time>2022-02-27T09:26:53Z</time>
      </trkpt>
      <trkpt lat="47.528427" lon="2.053833">
        <ele>158.0</ele>
        <time>2022-02-27T09:26:54Z</time>
      </trkpt>
      <trkpt lat="47.528423" lon="2.0538518">
        <ele>158.0</ele>
        <time>2022-02-27T09:26:55Z</time>
      </trkpt>
      <trkpt lat="47.52842" lon="2.0538707">
        <ele>159.0</ele>
        <time>2022-02-27T09:26:56Z</time>
      </trkpt>
      <trkpt lat="47.528408" lon="2.0538907">
        <ele>158.0</ele>
        <time>2022-02-27T09:26:57Z</time>
      </trkpt>
      <trkpt lat="47.528408" lon="2.0539103">
        <ele>158.0</ele>
        <time>2022-02-27T09:26:58Z</time>
      </trkpt>
      <trkpt lat="47.528404" lon="2.0539274">
        <ele>159.0</ele>
        <time>2022-02-27T09:26:59Z</time>
      </trkpt>
      <trkpt lat="47.5284" lon="2.053945">
        <ele>159.0</ele>
        <time>2022-02-27T09:27:00Z</time>
      </trkpt>
      <trkpt lat="47.528397" lon="2.053963">
        <ele>159.0</ele>
        <time>2022-02-27T09:27:01Z</time>
      </trkpt>
      <trkpt lat="47.52839" lon="2.0539804">
        <ele>160.0</ele>
        <time>2022-02-27T09:27:02Z</time>
      </trkpt>
      <trkpt lat="47.528385" lon="2.0539973">
        <ele>160.0</ele>
        <time>2022-02-27T09:27:03Z</time>
      </trkpt>
      <trkpt lat="47.528378" lon="2.0540152">
        <ele>160.0</ele>
        <time>2022-02-27T09:27:04Z</time>
      </trkpt>
      <trkpt lat="47.528378" lon="2.0540333">
        <ele>160.0</ele>
        <time>2022-02-27T09:27:05Z</time>
      </trkpt>
      <trkpt lat="47.528374" lon="2.0540528">
        <ele>161.0</ele>
        <time>2022-02-27T09:27:06Z</time>
      </trkpt>
      <trkpt lat="47.52837" lon="2.0540628">
        <ele>161.0</ele>
        <time>2022-02-27T09:27:07Z</time>
      </trkpt>
      <trkpt lat="47.528366" lon="2.0540779">
        <ele>161.0</ele>
        <time>2022-02-27T09:27:08Z</time>
      </trkpt>
      <trkpt lat="47.528362" lon="2.0540938">
        <ele>162.0</ele>
        <time>2022-02-27T09:27:09Z</time>
      </trkpt>
      <trkpt lat="47.52836" lon="2.0541134">
        <ele>162.0</ele>
        <time>2022-02-27T09:27:10Z</time>
      </trkpt>
      <trkpt lat="47.528355" lon="2.054129">
        <ele>162.0</ele>
        <time>2022-02-27T09:27:11Z</time>
      </trkpt>
      <trkpt lat="47.528347" lon="2.0541453">
        <ele>163.0</ele>
        <time>2022-02-27T09:27:12Z</time>
      </trkpt>
      <trkpt lat="47.52834" lon="2.0541608">
        <ele>163.0</ele>
        <time>2022-02-27T09:27:13Z</time>
      </trkpt>
      <trkpt lat="47.528336" lon="2.0541766">
        <ele>163.0</ele>
        <time>2022-02-27T09:27:14Z</time>
      </trkpt>
      <trkpt lat="47.52833" lon="2.0541923">
        <ele>163.0</ele>
        <time>2022-02-27T09:27:15Z</time>
      </trkpt>
      <trkpt lat="47.528328" lon="2.0542102">
        <ele>163.0</ele>
        <time>2022-02-27T09:27:16Z</time>
      </trkpt>
      <trkpt lat="47.528324" lon="2.0542278">
        <ele>163.0</ele>
        <time>2022-02-27T09:27:17Z</time>
      </trkpt>
      <trkpt lat="47.528316" lon="2.0542452">
        <ele>163.0</ele>
        <time>2022-02-27T09:27:18Z</time>
      </trkpt>
      <trkpt lat="47.528316" lon="2.054257">
        <ele>163.0</ele>
        <time>2022-02-27T09:27:19Z</time>
      </trkpt>
      <trkpt lat="47.528313" lon="2.0542696">
        <ele>163.0</ele>
        <time>2022-02-27T09:27:20Z</time>
      </trkpt>
      <trkpt lat="47.52831" lon="2.0542796">
        <ele>163.0</ele>
        <time>2022-02-27T09:27:21Z</time>
      </trkpt>
      <trkpt lat="47.52831" lon="2.054298">
        <ele>164.0</ele>
        <time>2022-02-27T09:27:22Z</time>
      </trkpt>
      <trkpt lat="47.528305" lon="2.0543146">
        <ele>164.0</ele>
        <time>2022-02-27T09:27:23Z</time>
      </trkpt>
      <trkpt lat="47.528297" lon="2.054334">
        <ele>165.0</ele>
        <time>2022-02-27T09:27:24Z</time>
      </trkpt>
      <trkpt lat="47.52829" lon="2.0543537">
        <ele>165.0</ele>
        <time>2022-02-27T09:27:25Z</time>
      </trkpt>
      <trkpt lat="47.528286" lon="2.054369">
        <ele>165.0</ele>
        <time>2022-02-27T09:27:26Z</time>
      </trkpt>
      <trkpt lat="47.52828" lon="2.054389">
        <ele>166.0</ele>
        <time>2022-02-27T09:27:27Z</time>
      </trkpt>
      <trkpt lat="47.528275" lon="2.0544052">
        <ele>166.0</ele>
        <time>2022-02-27T09:27:28Z</time>
      </trkpt>
      <trkpt lat="47.528267" lon="2.054419">
        <ele>167.0</ele>
        <time>2022-02-27T09:27:29Z</time>
      </trkpt>
      <trkpt lat="47.52826" lon="2.0544338">
        <ele>167.0</ele>
        <time>2022-02-27T09:27:30Z</time>
      </trkpt>
      <trkpt lat="47.52825" lon="2.05445">
        <ele>166.0</ele>
        <time>2022-02-27T09:27:31Z</time>
      </trkpt>
      <trkpt lat="47.528248" lon="2.0544648">
        <ele>167.0</ele>
        <time>2022-02-27T09:27:32Z</time>
      </trkpt>
      <trkpt lat="47.528244" lon="2.0544815">
        <ele>167.0</ele>
        <time>2022-02-27T09:27:33Z</time>
      </trkpt>
      <trkpt lat="47.52824" lon="2.054498">
        <ele>167.0</ele>
        <time>2022-02-27T09:27:34Z</time>
      </trkpt>
      <trkpt lat="47.52824" lon="2.0545132">
        <ele>167.0</ele>
        <time>2022-02-27T09:27:35Z</time>
      </trkpt>
      <trkpt lat="47.528233" lon="2.054533">
        <ele>166.0</ele>
        <time>2022-02-27T09:27:36Z</time>
      </trkpt>
      <trkpt lat="47.52823" lon="2.0545495">
        <ele>166.0</ele>
        <time>2022-02-27T09:27:37Z</time>
      </trkpt>
      <trkpt lat="47.528225" lon="2.0545654">
        <ele>167.0</ele>
        <time>2022-02-27T09:27:38Z</time>
      </trkpt>
      <trkpt lat="47.528217" lon="2.0545793">
        <ele>167.0</ele>
        <time>2022-02-27T09:27:39Z</time>
      </trkpt>
      <trkpt lat="47.528214" lon="2.054595">
        <ele>167.0</ele>
        <time>2022-02-27T09:27:40Z</time>
      </trkpt>
      <trkpt lat="47.528206" lon="2.0546067">
        <ele>167.0</ele>
        <time>2022-02-27T09:27:41Z</time>
      </trkpt>
      <trkpt lat="47.528202" lon="2.0546222">
        <ele>167.0</ele>
        <time>2022-02-27T09:27:42Z</time>
      </trkpt>
      <trkpt lat="47.528194" lon="2.0546355">
        <ele>167.0</ele>
        <time>2022-02-27T09:27:43Z</time>
      </trkpt>
      <trkpt lat="47.52819" lon="2.05465">
        <ele>167.0</ele>
        <time>2022-02-27T09:27:44Z</time>
      </trkpt>
      <trkpt lat="47.528183" lon="2.0546663">
        <ele>167.0</ele>
        <time>2022-02-27T09:27:45Z</time>
      </trkpt>
      <trkpt lat="47.52818" lon="2.0546827">
        <ele>167.0</ele>
        <time>2022-02-27T09:27:46Z</time>
      </trkpt>
      <trkpt lat="47.52817" lon="2.0546963">
        <ele>167.0</ele>
        <time>2022-02-27T09:27:47Z</time>
      </trkpt>
      <trkpt lat="47.528164" lon="2.0547106">
        <ele>167.0</ele>
        <time>2022-02-27T09:27:48Z</time>
      </trkpt>
      <trkpt lat="47.528156" lon="2.0547276">
        <ele>166.0</ele>
        <time>2022-02-27T09:27:49Z</time>
      </trkpt>
      <trkpt lat="47.528152" lon="2.054739">
        <ele>166.0</ele>
        <time>2022-02-27T09:27:50Z</time>
      </trkpt>
      <trkpt lat="47.52815" lon="2.0547512">
        <ele>166.0</ele>
        <time>2022-02-27T09:27:51Z</time>
      </trkpt>
      <trkpt lat="47.52814" lon="2.0547667">
        <ele>165.0</ele>
        <time>2022-02-27T09:27:52Z</time>
      </trkpt>
      <trkpt lat="47.528133" lon="2.0547853">
        <ele>165.0</ele>
        <time>2022-02-27T09:27:53Z</time>
      </trkpt>
      <trkpt lat="47.528126" lon="2.0548036">
        <ele>165.0</ele>
        <time>2022-02-27T09:27:54Z</time>
      </trkpt>
      <trkpt lat="47.528114" lon="2.0548189">
        <ele>165.0</ele>
        <time>2022-02-27T09:27:55Z</time>
      </trkpt>
      <trkpt lat="47.528107" lon="2.0548306">
        <ele>165.0</ele>
        <time>2022-02-27T09:27:56Z</time>
      </trkpt>
      <trkpt lat="47.528103" lon="2.0548475">
        <ele>165.0</ele>
        <time>2022-02-27T09:27:57Z</time>
      </trkpt>
      <trkpt lat="47.528095" lon="2.0548627">
        <ele>165.0</ele>
        <time>2022-02-27T09:27:58Z</time>
      </trkpt>
      <trkpt lat="47.528088" lon="2.0548756">
        <ele>165.0</ele>
        <time>2022-02-27T09:27:59Z</time>
      </trkpt>
      <trkpt lat="47.528084" lon="2.0548952">
        <ele>165.0</ele>
        <time>2022-02-27T09:28:00Z</time>
      </trkpt>
      <trkpt lat="47.52808" lon="2.0549042">
        <ele>164.0</ele>
        <time>2022-02-27T09:28:01Z</time>
      </trkpt>
      <trkpt lat="47.52808" lon="2.054915">
        <ele>165.0</ele>
        <time>2022-02-27T09:28:02Z</time>
      </trkpt>
      <trkpt lat="47.528076" lon="2.0549247">
        <ele>165.0</ele>
        <time>2022-02-27T09:28:03Z</time>
      </trkpt>
      <trkpt lat="47.528072" lon="2.0549378">
        <ele>164.0</ele>
        <time>2022-02-27T09:28:04Z</time>
      </trkpt>
      <trkpt lat="47.52807" lon="2.0549495">
        <ele>164.0</ele>
        <time>2022-02-27T09:28:05Z</time>
      </trkpt>
      <trkpt lat="47.528065" lon="2.0549629">
        <ele>164.0</ele>
        <time>2022-02-27T09:28:06Z</time>
      </trkpt>
      <trkpt lat="47.528057" lon="2.0549805">
        <ele>164.0</ele>
        <time>2022-02-27T09:28:07Z</time>
      </trkpt>
      <trkpt lat="47.52805" lon="2.0549946">
        <ele>164.0</ele>
        <time>2022-02-27T09:28:08Z</time>
      </trkpt>
      <trkpt lat="47.52804" lon="2.0550098">
        <ele>164.0</ele>
        <time>2022-02-27T09:28:09Z</time>
      </trkpt>
      <trkpt lat="47.528038" lon="2.0550246">
        <ele>164.0</ele>
        <time>2022-02-27T09:28:10Z</time>
      </trkpt>
      <trkpt lat="47.52803" lon="2.0550387">
        <ele>164.0</ele>
        <time>2022-02-27T09:28:11Z</time>
      </trkpt>
      <trkpt lat="47.528027" lon="2.0550482">
        <ele>164.0</ele>
        <time>2022-02-27T09:28:12Z</time>
      </trkpt>
      <trkpt lat="47.528027" lon="2.0550523">
        <ele>164.0</ele>
        <time>2022-02-27T09:28:13Z</time>
      </trkpt>
      <trkpt lat="47.52802" lon="2.055065">
        <ele>164.0</ele>
        <time>2022-02-27T09:28:14Z</time>
      </trkpt>
      <trkpt lat="47.528008" lon="2.0550795">
        <ele>164.0</ele>
        <time>2022-02-27T09:28:15Z</time>
      </trkpt>
      <trkpt lat="47.528" lon="2.0550945">
        <ele>165.0</ele>
        <time>2022-02-27T09:28:16Z</time>
      </trkpt>
      <trkpt lat="47.527992" lon="2.0551074">
        <ele>165.0</ele>
        <time>2022-02-27T09:28:17Z</time>
      </trkpt>
      <trkpt lat="47.527985" lon="2.0551136">
        <ele>165.0</ele>
        <time>2022-02-27T09:28:18Z</time>
      </trkpt>
      <trkpt lat="47.52798" lon="2.0551224">
        <ele>164.0</ele>
        <time>2022-02-27T09:28:19Z</time>
      </trkpt>
      <trkpt lat="47.527973" lon="2.0551314">
        <ele>164.0</ele>
        <time>2022-02-27T09:28:20Z</time>
      </trkpt>
      <trkpt lat="47.527966" lon="2.0551417">
        <ele>164.0</ele>
        <time>2022-02-27T09:28:21Z</time>
      </trkpt>
      <trkpt lat="47.527958" lon="2.0551543">
        <ele>164.0</ele>
        <time>2022-02-27T09:28:22Z</time>
      </trkpt>
      <trkpt lat="47.52795" lon="2.0551636">
        <ele>164.0</ele>
        <time>2022-02-27T09:28:23Z</time>
      </trkpt>
      <trkpt lat="47.527943" lon="2.0551765">
        <ele>164.0</ele>
        <time>2022-02-27T09:28:24Z</time>
      </trkpt>
      <trkpt lat="47.52793" lon="2.0551946">
        <ele>163.0</ele>
        <time>2022-02-27T09:28:25Z</time>
      </trkpt>
      <trkpt lat="47.527924" lon="2.055211">
        <ele>163.0</ele>
        <time>2022-02-27T09:28:26Z</time>
      </trkpt>
      <trkpt lat="47.52792" lon="2.0552268">
        <ele>163.0</ele>
        <time>2022-02-27T09:28:27Z</time>
      </trkpt>
      <trkpt lat="47.527912" lon="2.055244">
        <ele>163.0</ele>
        <time>2022-02-27T09:28:28Z</time>
      </trkpt>
      <trkpt lat="47.527905" lon="2.0552595">
        <ele>163.0</ele>
        <time>2022-02-27T09:28:29Z</time>
      </trkpt>
      <trkpt lat="47.527897" lon="2.055275">
        <ele>163.0</ele>
        <time>2022-02-27T09:28:30Z</time>
      </trkpt>
      <trkpt lat="47.52789" lon="2.0552905">
        <ele>163.0</ele>
        <time>2022-02-27T09:28:31Z</time>
      </trkpt>
      <trkpt lat="47.52788" lon="2.0553062">
        <ele>163.0</ele>
        <time>2022-02-27T09:28:32Z</time>
      </trkpt>
      <trkpt lat="47.527874" lon="2.0553222">
        <ele>163.0</ele>
        <time>2022-02-27T09:28:33Z</time>
      </trkpt>
      <trkpt lat="47.527866" lon="2.0553284">
        <ele>164.0</ele>
        <time>2022-02-27T09:28:34Z</time>
      </trkpt>
      <trkpt lat="47.52785" lon="2.055342">
        <ele>164.0</ele>
        <time>2022-02-27T09:28:35Z</time>
      </trkpt>
      <trkpt lat="47.527843" lon="2.0553577">
        <ele>164.0</ele>
        <time>2022-02-27T09:28:36Z</time>
      </trkpt>
      <trkpt lat="47.52783" lon="2.0553694">
        <ele>164.0</ele>
        <time>2022-02-27T09:28:37Z</time>
      </trkpt>
      <trkpt lat="47.527817" lon="2.0553846">
        <ele>164.0</ele>
        <time>2022-02-27T09:28:38Z</time>
      </trkpt>
      <trkpt lat="47.527805" lon="2.0553973">
        <ele>164.0</ele>
        <time>2022-02-27T09:28:39Z</time>
      </trkpt>
      <trkpt lat="47.5278" lon="2.055408">
        <ele>164.0</ele>
        <time>2022-02-27T09:28:40Z</time>
      </trkpt>
      <trkpt lat="47.52779" lon="2.0554202">
        <ele>165.0</ele>
        <time>2022-02-27T09:28:41Z</time>
      </trkpt>
      <trkpt lat="47.527786" lon="2.0554342">
        <ele>164.0</ele>
        <time>2022-02-27T09:28:42Z</time>
      </trkpt>
      <trkpt lat="47.527782" lon="2.0554476">
        <ele>164.0</ele>
        <time>2022-02-27T09:28:43Z</time>
      </trkpt>
      <trkpt lat="47.52778" lon="2.0554624">
        <ele>164.0</ele>
        <time>2022-02-27T09:28:44Z</time>
      </trkpt>
      <trkpt lat="47.527775" lon="2.0554788">
        <ele>164.0</ele>
        <time>2022-02-27T09:28:45Z</time>
      </trkpt>
      <trkpt lat="47.527775" lon="2.0554914">
        <ele>164.0</ele>
        <time>2022-02-27T09:28:46Z</time>
      </trkpt>
      <trkpt lat="47.527767" lon="2.0555086">
        <ele>164.0</ele>
        <time>2022-02-27T09:28:47Z</time>
      </trkpt>
      <trkpt lat="47.52776" lon="2.055521">
        <ele>163.0</ele>
        <time>2022-02-27T09:28:48Z</time>
      </trkpt>
      <trkpt lat="47.527756" lon="2.0555387">
        <ele>163.0</ele>
        <time>2022-02-27T09:28:49Z</time>
      </trkpt>
      <trkpt lat="47.527752" lon="2.0555549">
        <ele>164.0</ele>
        <time>2022-02-27T09:28:50Z</time>
      </trkpt>
      <trkpt lat="47.52775" lon="2.055571">
        <ele>164.0</ele>
        <time>2022-02-27T09:28:51Z</time>
      </trkpt>
      <trkpt lat="47.527744" lon="2.0555892">
        <ele>164.0</ele>
        <time>2022-02-27T09:28:52Z</time>
      </trkpt>
      <trkpt lat="47.52774" lon="2.0556066">
        <ele>164.0</ele>
        <time>2022-02-27T09:28:53Z</time>
      </trkpt>
      <trkpt lat="47.52774" lon="2.0556235">
        <ele>164.0</ele>
        <time>2022-02-27T09:28:54Z</time>
      </trkpt>
      <trkpt lat="47.527737" lon="2.0556395">
        <ele>164.0</ele>
        <time>2022-02-27T09:28:55Z</time>
      </trkpt>
      <trkpt lat="47.527733" lon="2.0556536">
        <ele>164.0</ele>
        <time>2022-02-27T09:28:56Z</time>
      </trkpt>
      <trkpt lat="47.527733" lon="2.055665">
        <ele>164.0</ele>
        <time>2022-02-27T09:28:57Z</time>
      </trkpt>
      <trkpt lat="47.52773" lon="2.055675">
        <ele>165.0</ele>
        <time>2022-02-27T09:28:58Z</time>
      </trkpt>
      <trkpt lat="47.527725" lon="2.055688">
        <ele>165.0</ele>
        <time>2022-02-27T09:28:59Z</time>
      </trkpt>
      <trkpt lat="47.52772" lon="2.0556996">
        <ele>165.0</ele>
        <time>2022-02-27T09:29:00Z</time>
      </trkpt>
      <trkpt lat="47.527718" lon="2.0557098">
        <ele>165.0</ele>
        <time>2022-02-27T09:29:01Z</time>
      </trkpt>
      <trkpt lat="47.527714" lon="2.0557234">
        <ele>165.0</ele>
        <time>2022-02-27T09:29:02Z</time>
      </trkpt>
      <trkpt lat="47.527706" lon="2.0557375">
        <ele>165.0</ele>
        <time>2022-02-27T09:29:03Z</time>
      </trkpt>
      <trkpt lat="47.527702" lon="2.0557456">
        <ele>166.0</ele>
        <time>2022-02-27T09:29:04Z</time>
      </trkpt>
      <trkpt lat="47.527695" lon="2.0557518">
        <ele>165.0</ele>
        <time>2022-02-27T09:29:05Z</time>
      </trkpt>
      <trkpt lat="47.527695" lon="2.0557597">
        <ele>165.0</ele>
        <time>2022-02-27T09:29:06Z</time>
      </trkpt>
      <trkpt lat="47.52769" lon="2.055765">
        <ele>165.0</ele>
        <time>2022-02-27T09:29:07Z</time>
      </trkpt>
      <trkpt lat="47.52769" lon="2.055765">
        <ele>165.0</ele>
        <time>2022-02-27T09:29:08Z</time>
      </trkpt>
      <trkpt lat="47.52769" lon="2.055765">
        <ele>165.0</ele>
        <time>2022-02-27T09:29:09Z</time>
      </trkpt>
      <trkpt lat="47.52769" lon="2.055765">
        <ele>165.0</ele>
        <time>2022-02-27T09:29:10Z</time>
      </trkpt>
      <trkpt lat="47.52769" lon="2.055765">
        <ele>165.0</ele>
        <time>2022-02-27T09:29:11Z</time>
      </trkpt>
      <trkpt lat="47.52769" lon="2.055765">
        <ele>165.0</ele>
        <time>2022-02-27T09:29:12Z</time>
      </trkpt>
      <trkpt lat="47.52769" lon="2.055765">
        <ele>165.0</ele>
        <time>2022-02-27T09:29:13Z</time>
      </trkpt>
      <trkpt lat="47.52769" lon="2.055765">
        <ele>165.0</ele>
        <time>2022-02-27T09:29:13Z</time>
      </trkpt>
      <trkpt lat="47.52769" lon="2.055765">
        <ele>165.0</ele>
        <time>2022-02-27T09:29:13Z</time>
      </trkpt>
      <trkpt lat="47.527622" lon="2.055805">
        <ele>164.0</ele>
        <time>2022-02-27T09:29:55Z</time>
      </trkpt>
      <trkpt lat="47.527615" lon="2.055808">
        <ele>163.0</ele>
        <time>2022-02-27T09:29:56Z</time>
      </trkpt>
      <trkpt lat="47.527603" lon="2.0558133">
        <ele>163.0</ele>
        <time>2022-02-27T09:29:57Z</time>
      </trkpt>
      <trkpt lat="47.527603" lon="2.0558214">
        <ele>163.0</ele>
        <time>2022-02-27T09:29:58Z</time>
      </trkpt>
      <trkpt lat="47.5276" lon="2.0558326">
        <ele>163.0</ele>
        <time>2022-02-27T09:29:59Z</time>
      </trkpt>
      <trkpt lat="47.5276" lon="2.0558326">
        <ele>163.0</ele>
        <time>2022-02-27T09:30:00Z</time>
      </trkpt>
      <trkpt lat="47.5276" lon="2.0558326">
        <ele>163.0</ele>
        <time>2022-02-27T09:30:01Z</time>
      </trkpt>
      <trkpt lat="47.52759" lon="2.0558574">
        <ele>163.0</ele>
        <time>2022-02-27T09:30:02Z</time>
      </trkpt>
      <trkpt lat="47.52759" lon="2.0558724">
        <ele>162.0</ele>
        <time>2022-02-27T09:30:03Z</time>
      </trkpt>
      <trkpt lat="47.52759" lon="2.0558891">
        <ele>162.0</ele>
        <time>2022-02-27T09:30:04Z</time>
      </trkpt>
      <trkpt lat="47.527596" lon="2.0559118">
        <ele>162.0</ele>
        <time>2022-02-27T09:30:05Z</time>
      </trkpt>
      <trkpt lat="47.5276" lon="2.0559335">
        <ele>161.0</ele>
        <time>2022-02-27T09:30:06Z</time>
      </trkpt>
      <trkpt lat="47.5276" lon="2.0559509">
        <ele>162.0</ele>
        <time>2022-02-27T09:30:07Z</time>
      </trkpt>
      <trkpt lat="47.527603" lon="2.055967">
        <ele>162.0</ele>
        <time>2022-02-27T09:30:08Z</time>
      </trkpt>
      <trkpt lat="47.527607" lon="2.0559785">
        <ele>162.0</ele>
        <time>2022-02-27T09:30:09Z</time>
      </trkpt>
      <trkpt lat="47.52761" lon="2.0559907">
        <ele>162.0</ele>
        <time>2022-02-27T09:30:10Z</time>
      </trkpt>
      <trkpt lat="47.52762" lon="2.0560002">
        <ele>162.0</ele>
        <time>2022-02-27T09:30:11Z</time>
      </trkpt>
      <trkpt lat="47.527622" lon="2.0560095">
        <ele>162.0</ele>
        <time>2022-02-27T09:30:12Z</time>
      </trkpt>
      <trkpt lat="47.527626" lon="2.056021">
        <ele>162.0</ele>
        <time>2022-02-27T09:30:13Z</time>
      </trkpt>
      <trkpt lat="47.527634" lon="2.0560343">
        <ele>162.0</ele>
        <time>2022-02-27T09:30:14Z</time>
      </trkpt>
      <trkpt lat="47.527645" lon="2.0560462">
        <ele>163.0</ele>
        <time>2022-02-27T09:30:15Z</time>
      </trkpt>
      <trkpt lat="47.52765" lon="2.056058">
        <ele>163.0</ele>
        <time>2022-02-27T09:30:16Z</time>
      </trkpt>
      <trkpt lat="47.52766" lon="2.0560713">
        <ele>163.0</ele>
        <time>2022-02-27T09:30:17Z</time>
      </trkpt>
      <trkpt lat="47.527668" lon="2.056085">
        <ele>163.0</ele>
        <time>2022-02-27T09:30:18Z</time>
      </trkpt>
      <trkpt lat="47.527676" lon="2.0560954">
        <ele>163.0</ele>
        <time>2022-02-27T09:30:19Z</time>
      </trkpt>
      <trkpt lat="47.527683" lon="2.0561104">
        <ele>163.0</ele>
        <time>2022-02-27T09:30:20Z</time>
      </trkpt>
      <trkpt lat="47.52769" lon="2.056127">
        <ele>164.0</ele>
        <time>2022-02-27T09:30:21Z</time>
      </trkpt>
      <trkpt lat="47.527695" lon="2.0561392">
        <ele>164.0</ele>
        <time>2022-02-27T09:30:22Z</time>
      </trkpt>
      <trkpt lat="47.527695" lon="2.0561512">
        <ele>163.0</ele>
        <time>2022-02-27T09:30:23Z</time>
      </trkpt>
      <trkpt lat="47.5277" lon="2.0561647">
        <ele>163.0</ele>
        <time>2022-02-27T09:30:24Z</time>
      </trkpt>
      <trkpt lat="47.527702" lon="2.056181">
        <ele>163.0</ele>
        <time>2022-02-27T09:30:25Z</time>
      </trkpt>
      <trkpt lat="47.527702" lon="2.0561943">
        <ele>163.0</ele>
        <time>2022-02-27T09:30:26Z</time>
      </trkpt>
      <trkpt lat="47.52771" lon="2.0562103">
        <ele>163.0</ele>
        <time>2022-02-27T09:30:27Z</time>
      </trkpt>
      <trkpt lat="47.527714" lon="2.0562255">
        <ele>163.0</ele>
        <time>2022-02-27T09:30:28Z</time>
      </trkpt>
      <trkpt lat="47.527725" lon="2.0562403">
        <ele>164.0</ele>
        <time>2022-02-27T09:30:29Z</time>
      </trkpt>
      <trkpt lat="47.52773" lon="2.0562522">
        <ele>164.0</ele>
        <time>2022-02-27T09:30:30Z</time>
      </trkpt>
      <trkpt lat="47.52773" lon="2.0562599">
        <ele>164.0</ele>
        <time>2022-02-27T09:30:31Z</time>
      </trkpt>
      <trkpt lat="47.52773" lon="2.0562708">
        <ele>163.0</ele>
        <time>2022-02-27T09:30:32Z</time>
      </trkpt>
      <trkpt lat="47.527733" lon="2.0562885">
        <ele>163.0</ele>
        <time>2022-02-27T09:30:33Z</time>
      </trkpt>
      <trkpt lat="47.527733" lon="2.0563107">
        <ele>163.0</ele>
        <time>2022-02-27T09:30:34Z</time>
      </trkpt>
      <trkpt lat="47.527733" lon="2.0563297">
        <ele>163.0</ele>
        <time>2022-02-27T09:30:35Z</time>
      </trkpt>
      <trkpt lat="47.527737" lon="2.0563486">
        <ele>163.0</ele>
        <time>2022-02-27T09:30:36Z</time>
      </trkpt>
      <trkpt lat="47.52774" lon="2.0563662">
        <ele>162.0</ele>
        <time>2022-02-27T09:30:37Z</time>
      </trkpt>
      <trkpt lat="47.527744" lon="2.0563817">
        <ele>163.0</ele>
        <time>2022-02-27T09:30:38Z</time>
      </trkpt>
      <trkpt lat="47.527752" lon="2.0564008">
        <ele>163.0</ele>
        <time>2022-02-27T09:30:39Z</time>
      </trkpt>
      <trkpt lat="47.527756" lon="2.0564163">
        <ele>163.0</ele>
        <time>2022-02-27T09:30:40Z</time>
      </trkpt>
      <trkpt lat="47.527756" lon="2.0564306">
        <ele>162.0</ele>
        <time>2022-02-27T09:30:41Z</time>
      </trkpt>
      <trkpt lat="47.52776" lon="2.0564475">
        <ele>162.0</ele>
        <time>2022-02-27T09:30:42Z</time>
      </trkpt>
      <trkpt lat="47.52776" lon="2.0564475">
        <ele>162.0</ele>
        <time>2022-02-27T09:30:43Z</time>
      </trkpt>
      <trkpt lat="47.52776" lon="2.0564475">
        <ele>162.0</ele>
        <time>2022-02-27T09:30:44Z</time>
      </trkpt>
      <trkpt lat="47.52776" lon="2.0564852">
        <ele>162.0</ele>
        <time>2022-02-27T09:30:45Z</time>
      </trkpt>
      <trkpt lat="47.527756" lon="2.0565128">
        <ele>161.0</ele>
        <time>2022-02-27T09:30:46Z</time>
      </trkpt>
      <trkpt lat="47.527752" lon="2.0565348">
        <ele>160.0</ele>
        <time>2022-02-27T09:30:47Z</time>
      </trkpt>
      <trkpt lat="47.52775" lon="2.056553">
        <ele>160.0</ele>
        <time>2022-02-27T09:30:48Z</time>
      </trkpt>
      <trkpt lat="47.527744" lon="2.0565703">
        <ele>160.0</ele>
        <time>2022-02-27T09:30:49Z</time>
      </trkpt>
      <trkpt lat="47.52774" lon="2.0565872">
        <ele>161.0</ele>
        <time>2022-02-27T09:30:50Z</time>
      </trkpt>
      <trkpt lat="47.527733" lon="2.0566013">
        <ele>160.0</ele>
        <time>2022-02-27T09:30:51Z</time>
      </trkpt>
      <trkpt lat="47.527737" lon="2.0566192">
        <ele>161.0</ele>
        <time>2022-02-27T09:30:52Z</time>
      </trkpt>
      <trkpt lat="47.527744" lon="2.0566404">
        <ele>161.0</ele>
        <time>2022-02-27T09:30:53Z</time>
      </trkpt>
      <trkpt lat="47.52774" lon="2.056661">
        <ele>160.0</ele>
        <time>2022-02-27T09:30:54Z</time>
      </trkpt>
      <trkpt lat="47.52774" lon="2.056682">
        <ele>159.0</ele>
        <time>2022-02-27T09:30:55Z</time>
      </trkpt>
      <trkpt lat="47.527744" lon="2.0567064">
        <ele>159.0</ele>
        <time>2022-02-27T09:30:56Z</time>
      </trkpt>
      <trkpt lat="47.527752" lon="2.0567255">
        <ele>160.0</ele>
        <time>2022-02-27T09:30:57Z</time>
      </trkpt>
      <trkpt lat="47.527752" lon="2.0567439">
        <ele>159.0</ele>
        <time>2022-02-27T09:30:58Z</time>
      </trkpt>
      <trkpt lat="47.527752" lon="2.0567603">
        <ele>159.0</ele>
        <time>2022-02-27T09:30:59Z</time>
      </trkpt>
      <trkpt lat="47.527752" lon="2.0567765">
        <ele>159.0</ele>
        <time>2022-02-27T09:31:00Z</time>
      </trkpt>
      <trkpt lat="47.527756" lon="2.056794">
        <ele>159.0</ele>
        <time>2022-02-27T09:31:01Z</time>
      </trkpt>
      <trkpt lat="47.52776" lon="2.0568092">
        <ele>159.0</ele>
        <time>2022-02-27T09:31:02Z</time>
      </trkpt>
      <trkpt lat="47.52776" lon="2.0568187">
        <ele>159.0</ele>
        <time>2022-02-27T09:31:03Z</time>
      </trkpt>
      <trkpt lat="47.52776" lon="2.0568295">
        <ele>159.0</ele>
        <time>2022-02-27T09:31:04Z</time>
      </trkpt>
      <trkpt lat="47.52776" lon="2.056841">
        <ele>159.0</ele>
        <time>2022-02-27T09:31:05Z</time>
      </trkpt>
      <trkpt lat="47.527763" lon="2.0568514">
        <ele>159.0</ele>
        <time>2022-02-27T09:31:06Z</time>
      </trkpt>
      <trkpt lat="47.527767" lon="2.0568693">
        <ele>159.0</ele>
        <time>2022-02-27T09:31:07Z</time>
      </trkpt>
      <trkpt lat="47.527775" lon="2.056886">
        <ele>159.0</ele>
        <time>2022-02-27T09:31:08Z</time>
      </trkpt>
      <trkpt lat="47.527775" lon="2.0569012">
        <ele>158.0</ele>
        <time>2022-02-27T09:31:09Z</time>
      </trkpt>
      <trkpt lat="47.52777" lon="2.056918">
        <ele>158.0</ele>
        <time>2022-02-27T09:31:10Z</time>
      </trkpt>
      <trkpt lat="47.52777" lon="2.0569398">
        <ele>158.0</ele>
        <time>2022-02-27T09:31:11Z</time>
      </trkpt>
      <trkpt lat="47.527775" lon="2.0569584">
        <ele>159.0</ele>
        <time>2022-02-27T09:31:12Z</time>
      </trkpt>
      <trkpt lat="47.527775" lon="2.056977">
        <ele>159.0</ele>
        <time>2022-02-27T09:31:13Z</time>
      </trkpt>
      <trkpt lat="47.52778" lon="2.0569954">
        <ele>159.0</ele>
        <time>2022-02-27T09:31:14Z</time>
      </trkpt>
      <trkpt lat="47.52778" lon="2.0570111">
        <ele>159.0</ele>
        <time>2022-02-27T09:31:15Z</time>
      </trkpt>
      <trkpt lat="47.527782" lon="2.0570323">
        <ele>159.0</ele>
        <time>2022-02-27T09:31:16Z</time>
      </trkpt>
      <trkpt lat="47.52779" lon="2.0570524">
        <ele>159.0</ele>
        <time>2022-02-27T09:31:17Z</time>
      </trkpt>
      <trkpt lat="47.527794" lon="2.0570714">
        <ele>161.0</ele>
        <time>2022-02-27T09:31:18Z</time>
      </trkpt>
      <trkpt lat="47.527794" lon="2.0570927">
        <ele>160.0</ele>
        <time>2022-02-27T09:31:19Z</time>
      </trkpt>
      <trkpt lat="47.527798" lon="2.057113">
        <ele>160.0</ele>
        <time>2022-02-27T09:31:20Z</time>
      </trkpt>
      <trkpt lat="47.527798" lon="2.0571277">
        <ele>160.0</ele>
        <time>2022-02-27T09:31:21Z</time>
      </trkpt>
      <trkpt lat="47.527798" lon="2.0571413">
        <ele>160.0</ele>
        <time>2022-02-27T09:31:22Z</time>
      </trkpt>
      <trkpt lat="47.527798" lon="2.0571594">
        <ele>161.0</ele>
        <time>2022-02-27T09:31:23Z</time>
      </trkpt>
      <trkpt lat="47.5278" lon="2.0571783">
        <ele>161.0</ele>
        <time>2022-02-27T09:31:24Z</time>
      </trkpt>
      <trkpt lat="47.5278" lon="2.057202">
        <ele>161.0</ele>
        <time>2022-02-27T09:31:25Z</time>
      </trkpt>
      <trkpt lat="47.527798" lon="2.057225">
        <ele>161.0</ele>
        <time>2022-02-27T09:31:26Z</time>
      </trkpt>
      <trkpt lat="47.527798" lon="2.0572436">
        <ele>162.0</ele>
        <time>2022-02-27T09:31:27Z</time>
      </trkpt>
      <trkpt lat="47.527798" lon="2.0572596">
        <ele>162.0</ele>
        <time>2022-02-27T09:31:28Z</time>
      </trkpt>
      <trkpt lat="47.5278" lon="2.057273">
        <ele>161.0</ele>
        <time>2022-02-27T09:31:29Z</time>
      </trkpt>
      <trkpt lat="47.527805" lon="2.057288">
        <ele>162.0</ele>
        <time>2022-02-27T09:31:30Z</time>
      </trkpt>
      <trkpt lat="47.527813" lon="2.057308">
        <ele>162.0</ele>
        <time>2022-02-27T09:31:31Z</time>
      </trkpt>
      <trkpt lat="47.52782" lon="2.0573254">
        <ele>162.0</ele>
        <time>2022-02-27T09:31:32Z</time>
      </trkpt>
      <trkpt lat="47.527824" lon="2.0573375">
        <ele>161.0</ele>
        <time>2022-02-27T09:31:33Z</time>
      </trkpt>
      <trkpt lat="47.527824" lon="2.0573514">
        <ele>162.0</ele>
        <time>2022-02-27T09:31:34Z</time>
      </trkpt>
      <trkpt lat="47.52782" lon="2.0573685">
        <ele>162.0</ele>
        <time>2022-02-27T09:31:35Z</time>
      </trkpt>
      <trkpt lat="47.52782" lon="2.057383">
        <ele>163.0</ele>
        <time>2022-02-27T09:31:36Z</time>
      </trkpt>
      <trkpt lat="47.52782" lon="2.0573936">
        <ele>163.0</ele>
        <time>2022-02-27T09:31:37Z</time>
      </trkpt>
      <trkpt lat="47.52782" lon="2.0574105">
        <ele>163.0</ele>
        <time>2022-02-27T09:31:38Z</time>
      </trkpt>
      <trkpt lat="47.52782" lon="2.0574272">
        <ele>163.0</ele>
        <time>2022-02-27T09:31:39Z</time>
      </trkpt>
      <trkpt lat="47.52782" lon="2.0574439">
        <ele>162.0</ele>
        <time>2022-02-27T09:31:40Z</time>
      </trkpt>
      <trkpt lat="47.52782" lon="2.0574572">
        <ele>162.0</ele>
        <time>2022-02-27T09:31:41Z</time>
      </trkpt>
      <trkpt lat="47.527824" lon="2.0574703">
        <ele>162.0</ele>
        <time>2022-02-27T09:31:42Z</time>
      </trkpt>
      <trkpt lat="47.52783" lon="2.057489">
        <ele>162.0</ele>
        <time>2022-02-27T09:31:43Z</time>
      </trkpt>
      <trkpt lat="47.527832" lon="2.0575082">
        <ele>162.0</ele>
        <time>2022-02-27T09:31:44Z</time>
      </trkpt>
      <trkpt lat="47.52784" lon="2.0575237">
        <ele>162.0</ele>
        <time>2022-02-27T09:31:45Z</time>
      </trkpt>
      <trkpt lat="47.527843" lon="2.0575426">
        <ele>163.0</ele>
        <time>2022-02-27T09:31:46Z</time>
      </trkpt>
      <trkpt lat="47.527843" lon="2.0575604">
        <ele>162.0</ele>
        <time>2022-02-27T09:31:47Z</time>
      </trkpt>
      <trkpt lat="47.527843" lon="2.0575747">
        <ele>163.0</ele>
        <time>2022-02-27T09:31:48Z</time>
      </trkpt>
      <trkpt lat="47.527843" lon="2.057592">
        <ele>163.0</ele>
        <time>2022-02-27T09:31:49Z</time>
      </trkpt>
      <trkpt lat="47.527847" lon="2.0576084">
        <ele>162.0</ele>
        <time>2022-02-27T09:31:50Z</time>
      </trkpt>
      <trkpt lat="47.52785" lon="2.057621">
        <ele>163.0</ele>
        <time>2022-02-27T09:31:51Z</time>
      </trkpt>
      <trkpt lat="47.52785" lon="2.0576384">
        <ele>163.0</ele>
        <time>2022-02-27T09:31:52Z</time>
      </trkpt>
      <trkpt lat="47.52785" lon="2.0576496">
        <ele>162.0</ele>
        <time>2022-02-27T09:31:53Z</time>
      </trkpt>
      <trkpt lat="47.527855" lon="2.0576637">
        <ele>162.0</ele>
        <time>2022-02-27T09:31:54Z</time>
      </trkpt>
      <trkpt lat="47.52786" lon="2.057684">
        <ele>161.0</ele>
        <time>2022-02-27T09:31:55Z</time>
      </trkpt>
      <trkpt lat="47.52786" lon="2.0576982">
        <ele>161.0</ele>
        <time>2022-02-27T09:31:56Z</time>
      </trkpt>
      <trkpt lat="47.527863" lon="2.0577161">
        <ele>161.0</ele>
        <time>2022-02-27T09:31:57Z</time>
      </trkpt>
      <trkpt lat="47.527866" lon="2.057733">
        <ele>161.0</ele>
        <time>2022-02-27T09:31:58Z</time>
      </trkpt>
      <trkpt lat="47.527866" lon="2.05775">
        <ele>161.0</ele>
        <time>2022-02-27T09:31:59Z</time>
      </trkpt>
      <trkpt lat="47.527866" lon="2.0577674">
        <ele>162.0</ele>
        <time>2022-02-27T09:32:00Z</time>
      </trkpt>
      <trkpt lat="47.527866" lon="2.0577812">
        <ele>163.0</ele>
        <time>2022-02-27T09:32:01Z</time>
      </trkpt>
      <trkpt lat="47.52787" lon="2.057799">
        <ele>163.0</ele>
        <time>2022-02-27T09:32:02Z</time>
      </trkpt>
      <trkpt lat="47.527874" lon="2.0578156">
        <ele>163.0</ele>
        <time>2022-02-27T09:32:03Z</time>
      </trkpt>
      <trkpt lat="47.527878" lon="2.0578349">
        <ele>163.0</ele>
        <time>2022-02-27T09:32:04Z</time>
      </trkpt>
      <trkpt lat="47.527878" lon="2.0578518">
        <ele>163.0</ele>
        <time>2022-02-27T09:32:05Z</time>
      </trkpt>
      <trkpt lat="47.52788" lon="2.0578673">
        <ele>163.0</ele>
        <time>2022-02-27T09:32:06Z</time>
      </trkpt>
      <trkpt lat="47.52788" lon="2.057878">
        <ele>163.0</ele>
        <time>2022-02-27T09:32:07Z</time>
      </trkpt>
      <trkpt lat="47.52788" lon="2.0578933">
        <ele>162.0</ele>
        <time>2022-02-27T09:32:08Z</time>
      </trkpt>
      <trkpt lat="47.527885" lon="2.0579107">
        <ele>163.0</ele>
        <time>2022-02-27T09:32:09Z</time>
      </trkpt>
      <trkpt lat="47.52789" lon="2.0579262">
        <ele>163.0</ele>
        <time>2022-02-27T09:32:10Z</time>
      </trkpt>
      <trkpt lat="47.527893" lon="2.0579407">
        <ele>163.0</ele>
        <time>2022-02-27T09:32:11Z</time>
      </trkpt>
      <trkpt lat="47.527897" lon="2.0579574">
        <ele>162.0</ele>
        <time>2022-02-27T09:32:12Z</time>
      </trkpt>
      <trkpt lat="47.5279" lon="2.0579708">
        <ele>163.0</ele>
        <time>2022-02-27T09:32:13Z</time>
      </trkpt>
      <trkpt lat="47.527905" lon="2.057986">
        <ele>163.0</ele>
        <time>2022-02-27T09:32:14Z</time>
      </trkpt>
      <trkpt lat="47.527905" lon="2.0580003">
        <ele>163.0</ele>
        <time>2022-02-27T09:32:15Z</time>
      </trkpt>
      <trkpt lat="47.527905" lon="2.0580168">
        <ele>163.0</ele>
        <time>2022-02-27T09:32:16Z</time>
      </trkpt>
      <trkpt lat="47.527912" lon="2.0580306">
        <ele>163.0</ele>
        <time>2022-02-27T09:32:17Z</time>
      </trkpt>
      <trkpt lat="47.52792" lon="2.0580447">
        <ele>163.0</ele>
        <time>2022-02-27T09:32:18Z</time>
      </trkpt>
      <trkpt lat="47.527924" lon="2.058063">
        <ele>162.0</ele>
        <time>2022-02-27T09:32:19Z</time>
      </trkpt>
      <trkpt lat="47.527924" lon="2.0580802">
        <ele>163.0</ele>
        <time>2022-02-27T09:32:20Z</time>
      </trkpt>
      <trkpt lat="47.527927" lon="2.0580964">
        <ele>162.0</ele>
        <time>2022-02-27T09:32:21Z</time>
      </trkpt>
      <trkpt lat="47.527927" lon="2.0581136">
        <ele>163.0</ele>
        <time>2022-02-27T09:32:22Z</time>
      </trkpt>
      <trkpt lat="47.52793" lon="2.0581305">
        <ele>163.0</ele>
        <time>2022-02-27T09:32:23Z</time>
      </trkpt>
      <trkpt lat="47.527935" lon="2.0581465">
        <ele>163.0</ele>
        <time>2022-02-27T09:32:24Z</time>
      </trkpt>
      <trkpt lat="47.52794" lon="2.0581617">
        <ele>163.0</ele>
        <time>2022-02-27T09:32:25Z</time>
      </trkpt>
      <trkpt lat="47.527943" lon="2.0581748">
        <ele>163.0</ele>
        <time>2022-02-27T09:32:26Z</time>
      </trkpt>
      <trkpt lat="47.527943" lon="2.0581896">
        <ele>163.0</ele>
        <time>2022-02-27T09:32:27Z</time>
      </trkpt>
      <trkpt lat="47.527946" lon="2.0582094">
        <ele>163.0</ele>
        <time>2022-02-27T09:32:28Z</time>
      </trkpt>
      <trkpt lat="47.527946" lon="2.0582263">
        <ele>163.0</ele>
        <time>2022-02-27T09:32:29Z</time>
      </trkpt>
      <trkpt lat="47.52795" lon="2.058244">
        <ele>163.0</ele>
        <time>2022-02-27T09:32:30Z</time>
      </trkpt>
      <trkpt lat="47.527954" lon="2.05826">
        <ele>163.0</ele>
        <time>2022-02-27T09:32:31Z</time>
      </trkpt>
      <trkpt lat="47.527958" lon="2.0582778">
        <ele>163.0</ele>
        <time>2022-02-27T09:32:32Z</time>
      </trkpt>
      <trkpt lat="47.52796" lon="2.058294">
        <ele>163.0</ele>
        <time>2022-02-27T09:32:33Z</time>
      </trkpt>
      <trkpt lat="47.527966" lon="2.0583138">
        <ele>163.0</ele>
        <time>2022-02-27T09:32:34Z</time>
      </trkpt>
      <trkpt lat="47.527973" lon="2.058329">
        <ele>163.0</ele>
        <time>2022-02-27T09:32:35Z</time>
      </trkpt>
      <trkpt lat="47.527977" lon="2.0583413">
        <ele>163.0</ele>
        <time>2022-02-27T09:32:36Z</time>
      </trkpt>
      <trkpt lat="47.527985" lon="2.0583577">
        <ele>163.0</ele>
        <time>2022-02-27T09:32:37Z</time>
      </trkpt>
      <trkpt lat="47.52799" lon="2.0583737">
        <ele>163.0</ele>
        <time>2022-02-27T09:32:38Z</time>
      </trkpt>
      <trkpt lat="47.527992" lon="2.0583866">
        <ele>162.0</ele>
        <time>2022-02-27T09:32:39Z</time>
      </trkpt>
      <trkpt lat="47.528" lon="2.0583944">
        <ele>162.0</ele>
        <time>2022-02-27T09:32:40Z</time>
      </trkpt>
      <trkpt lat="47.528004" lon="2.0584118">
        <ele>162.0</ele>
        <time>2022-02-27T09:32:41Z</time>
      </trkpt>
      <trkpt lat="47.528008" lon="2.0584304">
        <ele>162.0</ele>
        <time>2022-02-27T09:32:42Z</time>
      </trkpt>
      <trkpt lat="47.52801" lon="2.0584486">
        <ele>162.0</ele>
        <time>2022-02-27T09:32:43Z</time>
      </trkpt>
      <trkpt lat="47.528015" lon="2.0584657">
        <ele>162.0</ele>
        <time>2022-02-27T09:32:44Z</time>
      </trkpt>
      <trkpt lat="47.52802" lon="2.0584817">
        <ele>162.0</ele>
        <time>2022-02-27T09:32:45Z</time>
      </trkpt>
      <trkpt lat="47.52802" lon="2.0584962">
        <ele>162.0</ele>
        <time>2022-02-27T09:32:46Z</time>
      </trkpt>
      <trkpt lat="47.528023" lon="2.0585082">
        <ele>163.0</ele>
        <time>2022-02-27T09:32:47Z</time>
      </trkpt>
      <trkpt lat="47.528027" lon="2.0585234">
        <ele>164.0</ele>
        <time>2022-02-27T09:32:48Z</time>
      </trkpt>
      <trkpt lat="47.52803" lon="2.0585403">
        <ele>163.0</ele>
        <time>2022-02-27T09:32:49Z</time>
      </trkpt>
      <trkpt lat="47.528038" lon="2.0585585">
        <ele>163.0</ele>
        <time>2022-02-27T09:32:50Z</time>
      </trkpt>
      <trkpt lat="47.528038" lon="2.0585742">
        <ele>163.0</ele>
        <time>2022-02-27T09:32:51Z</time>
      </trkpt>
      <trkpt lat="47.52804" lon="2.0585902">
        <ele>163.0</ele>
        <time>2022-02-27T09:32:52Z</time>
      </trkpt>
      <trkpt lat="47.52805" lon="2.0586085">
        <ele>163.0</ele>
        <time>2022-02-27T09:32:53Z</time>
      </trkpt>
      <trkpt lat="47.528057" lon="2.058624">
        <ele>164.0</ele>
        <time>2022-02-27T09:32:54Z</time>
      </trkpt>
      <trkpt lat="47.52806" lon="2.0586386">
        <ele>164.0</ele>
        <time>2022-02-27T09:32:55Z</time>
      </trkpt>
      <trkpt lat="47.52807" lon="2.0586522">
        <ele>164.0</ele>
        <time>2022-02-27T09:32:56Z</time>
      </trkpt>
      <trkpt lat="47.528072" lon="2.0586662">
        <ele>164.0</ele>
        <time>2022-02-27T09:32:57Z</time>
      </trkpt>
      <trkpt lat="47.528076" lon="2.058679">
        <ele>164.0</ele>
        <time>2022-02-27T09:32:58Z</time>
      </trkpt>
      <trkpt lat="47.52808" lon="2.0586925">
        <ele>164.0</ele>
        <time>2022-02-27T09:32:59Z</time>
      </trkpt>
      <trkpt lat="47.52808" lon="2.058705">
        <ele>163.0</ele>
        <time>2022-02-27T09:33:00Z</time>
      </trkpt>
      <trkpt lat="47.52808" lon="2.058705">
        <ele>163.0</ele>
        <time>2022-02-27T09:33:01Z</time>
      </trkpt>
      <trkpt lat="47.52808" lon="2.058705">
        <ele>163.0</ele>
        <time>2022-02-27T09:33:02Z</time>
      </trkpt>
      <trkpt lat="47.528072" lon="2.0587375">
        <ele>164.0</ele>
        <time>2022-02-27T09:33:03Z</time>
      </trkpt>
      <trkpt lat="47.528076" lon="2.0587504">
        <ele>164.0</ele>
        <time>2022-02-27T09:33:04Z</time>
      </trkpt>
      <trkpt lat="47.52808" lon="2.058766">
        <ele>164.0</ele>
        <time>2022-02-27T09:33:05Z</time>
      </trkpt>
      <trkpt lat="47.528084" lon="2.05878">
        <ele>164.0</ele>
        <time>2022-02-27T09:33:06Z</time>
      </trkpt>
      <trkpt lat="47.528088" lon="2.0587893">
        <ele>165.0</ele>
        <time>2022-02-27T09:33:07Z</time>
      </trkpt>
      <trkpt lat="47.52809" lon="2.0587995">
        <ele>164.0</ele>
        <time>2022-02-27T09:33:08Z</time>
      </trkpt>
      <trkpt lat="47.5281" lon="2.0588129">
        <ele>164.0</ele>
        <time>2022-02-27T09:33:09Z</time>
      </trkpt>
      <trkpt lat="47.528103" lon="2.058827">
        <ele>164.0</ele>
        <time>2022-02-27T09:33:10Z</time>
      </trkpt>
      <trkpt lat="47.528107" lon="2.058841">
        <ele>164.0</ele>
        <time>2022-02-27T09:33:11Z</time>
      </trkpt>
      <trkpt lat="47.528114" lon="2.0588589">
        <ele>164.0</ele>
        <time>2022-02-27T09:33:12Z</time>
      </trkpt>
      <trkpt lat="47.528114" lon="2.0588589">
        <ele>164.0</ele>
        <time>2022-02-27T09:33:13Z</time>
      </trkpt>
      <trkpt lat="47.528114" lon="2.0588589">
        <ele>164.0</ele>
        <time>2022-02-27T09:33:14Z</time>
      </trkpt>
      <trkpt lat="47.528126" lon="2.0588973">
        <ele>164.0</ele>
        <time>2022-02-27T09:33:15Z</time>
      </trkpt>
      <trkpt lat="47.52813" lon="2.0589097">
        <ele>164.0</ele>
        <time>2022-02-27T09:33:16Z</time>
      </trkpt>
      <trkpt lat="47.528133" lon="2.0589242">
        <ele>164.0</ele>
        <time>2022-02-27T09:33:17Z</time>
      </trkpt>
      <trkpt lat="47.528137" lon="2.0589356">
        <ele>163.0</ele>
        <time>2022-02-27T09:33:18Z</time>
      </trkpt>
      <trkpt lat="47.528137" lon="2.0589356">
        <ele>163.0</ele>
        <time>2022-02-27T09:33:19Z</time>
      </trkpt>
      <trkpt lat="47.528137" lon="2.0589356">
        <ele>163.0</ele>
        <time>2022-02-27T09:33:20Z</time>
      </trkpt>
      <trkpt lat="47.528156" lon="2.0589726">
        <ele>164.0</ele>
        <time>2022-02-27T09:33:21Z</time>
      </trkpt>
      <trkpt lat="47.528168" lon="2.0589852">
        <ele>164.0</ele>
        <time>2022-02-27T09:33:22Z</time>
      </trkpt>
      <trkpt lat="47.52817" lon="2.0589972">
        <ele>164.0</ele>
        <time>2022-02-27T09:33:23Z</time>
      </trkpt>
      <trkpt lat="47.52817" lon="2.059006">
        <ele>164.0</ele>
        <time>2022-02-27T09:33:24Z</time>
      </trkpt>
      <trkpt lat="47.52817" lon="2.059023">
        <ele>164.0</ele>
        <time>2022-02-27T09:33:25Z</time>
      </trkpt>
      <trkpt lat="47.528175" lon="2.059042">
        <ele>165.0</ele>
        <time>2022-02-27T09:33:26Z</time>
      </trkpt>
      <trkpt lat="47.52818" lon="2.0590577">
        <ele>165.0</ele>
        <time>2022-02-27T09:33:27Z</time>
      </trkpt>
      <trkpt lat="47.528183" lon="2.0590715">
        <ele>165.0</ele>
        <time>2022-02-27T09:33:28Z</time>
      </trkpt>
      <trkpt lat="47.528187" lon="2.05909">
        <ele>166.0</ele>
        <time>2022-02-27T09:33:29Z</time>
      </trkpt>
      <trkpt lat="47.5282" lon="2.0591261">
        <ele>166.0</ele>
        <time>2022-02-27T09:33:30Z</time>
      </trkpt>
      <trkpt lat="47.5282" lon="2.0591261">
        <ele>166.0</ele>
        <time>2022-02-27T09:33:30Z</time>
      </trkpt>
      <trkpt lat="47.528202" lon="2.05914">
        <ele>166.0</ele>
        <time>2022-02-27T09:33:32Z</time>
      </trkpt>
      <trkpt lat="47.528206" lon="2.0591607">
        <ele>165.0</ele>
        <time>2022-02-27T09:33:33Z</time>
      </trkpt>
      <trkpt lat="47.528206" lon="2.0591846">
        <ele>165.0</ele>
        <time>2022-02-27T09:33:34Z</time>
      </trkpt>
      <trkpt lat="47.52822" lon="2.0592163">
        <ele>164.0</ele>
        <time>2022-02-27T09:33:35Z</time>
      </trkpt>
      <trkpt lat="47.52822" lon="2.0592163">
        <ele>164.0</ele>
        <time>2022-02-27T09:33:35Z</time>
      </trkpt>
      <trkpt lat="47.528225" lon="2.05923">
        <ele>164.0</ele>
        <time>2022-02-27T09:33:37Z</time>
      </trkpt>
      <trkpt lat="47.528244" lon="2.0592632">
        <ele>164.0</ele>
        <time>2022-02-27T09:33:38Z</time>
      </trkpt>
      <trkpt lat="47.528244" lon="2.0592632">
        <ele>164.0</ele>
        <time>2022-02-27T09:33:38Z</time>
      </trkpt>
      <trkpt lat="47.528244" lon="2.059279">
        <ele>164.0</ele>
        <time>2022-02-27T09:33:40Z</time>
      </trkpt>
      <trkpt lat="47.528248" lon="2.0592973">
        <ele>164.0</ele>
        <time>2022-02-27T09:33:41Z</time>
      </trkpt>
      <trkpt lat="47.52825" lon="2.0593119">
        <ele>164.0</ele>
        <time>2022-02-27T09:33:42Z</time>
      </trkpt>
      <trkpt lat="47.528255" lon="2.0593228">
        <ele>164.0</ele>
        <time>2022-02-27T09:33:44Z</time>
      </trkpt>
      <trkpt lat="47.52826" lon="2.059338">
        <ele>164.0</ele>
        <time>2022-02-27T09:33:45Z</time>
      </trkpt>
      <trkpt lat="47.528267" lon="2.0593805">
        <ele>164.0</ele>
        <time>2022-02-27T09:33:46Z</time>
      </trkpt>
      <trkpt lat="47.528267" lon="2.0593805">
        <ele>164.0</ele>
        <time>2022-02-27T09:33:46Z</time>
      </trkpt>
      <trkpt lat="47.528275" lon="2.0594027">
        <ele>164.0</ele>
        <time>2022-02-27T09:33:48Z</time>
      </trkpt>
      <trkpt lat="47.528282" lon="2.0594444">
        <ele>165.0</ele>
        <time>2022-02-27T09:33:49Z</time>
      </trkpt>
      <trkpt lat="47.528282" lon="2.0594444">
        <ele>165.0</ele>
        <time>2022-02-27T09:33:49Z</time>
      </trkpt>
      <trkpt lat="47.52829" lon="2.0594604">
        <ele>164.0</ele>
        <time>2022-02-27T09:33:51Z</time>
      </trkpt>
      <trkpt lat="47.528294" lon="2.0594728">
        <ele>164.0</ele>
        <time>2022-02-27T09:33:52Z</time>
      </trkpt>
      <trkpt lat="47.5283" lon="2.0594885">
        <ele>164.0</ele>
        <time>2022-02-27T09:33:53Z</time>
      </trkpt>
      <trkpt lat="47.5283" lon="2.0595045">
        <ele>164.0</ele>
        <time>2022-02-27T09:33:54Z</time>
      </trkpt>
      <trkpt lat="47.528305" lon="2.0595226">
        <ele>164.0</ele>
        <time>2022-02-27T09:33:55Z</time>
      </trkpt>
      <trkpt lat="47.528313" lon="2.0595374">
        <ele>164.0</ele>
        <time>2022-02-27T09:33:56Z</time>
      </trkpt>
      <trkpt lat="47.52832" lon="2.0595508">
        <ele>164.0</ele>
        <time>2022-02-27T09:33:57Z</time>
      </trkpt>
      <trkpt lat="47.528328" lon="2.0595756">
        <ele>163.0</ele>
        <time>2022-02-27T09:33:58Z</time>
      </trkpt>
      <trkpt lat="47.528328" lon="2.0595756">
        <ele>163.0</ele>
        <time>2022-02-27T09:33:58Z</time>
      </trkpt>
      <trkpt lat="47.528336" lon="2.059611">
        <ele>163.0</ele>
        <time>2022-02-27T09:34:00Z</time>
      </trkpt>
      <trkpt lat="47.528336" lon="2.0596216">
        <ele>163.0</ele>
        <time>2022-02-27T09:34:01Z</time>
      </trkpt>
      <trkpt lat="47.528336" lon="2.059634">
        <ele>162.0</ele>
        <time>2022-02-27T09:34:02Z</time>
      </trkpt>
      <trkpt lat="47.52834" lon="2.0596542">
        <ele>163.0</ele>
        <time>2022-02-27T09:34:03Z</time>
      </trkpt>
      <trkpt lat="47.528343" lon="2.0596683">
        <ele>163.0</ele>
        <time>2022-02-27T09:34:04Z</time>
      </trkpt>
      <trkpt lat="47.528343" lon="2.0596683">
        <ele>163.0</ele>
        <time>2022-02-27T09:34:04Z</time>
      </trkpt>
      <trkpt lat="47.528355" lon="2.0596933">
        <ele>163.0</ele>
        <time>2022-02-27T09:34:06Z</time>
      </trkpt>
      <trkpt lat="47.528355" lon="2.0596933">
        <ele>163.0</ele>
        <time>2022-02-27T09:34:06Z</time>
      </trkpt>
      <trkpt lat="47.528355" lon="2.0597048">
        <ele>163.0</ele>
        <time>2022-02-27T09:34:08Z</time>
      </trkpt>
      <trkpt lat="47.528362" lon="2.0597327">
        <ele>163.0</ele>
        <time>2022-02-27T09:34:09Z</time>
      </trkpt>
      <trkpt lat="47.528366" lon="2.0597477">
        <ele>162.0</ele>
        <time>2022-02-27T09:34:10Z</time>
      </trkpt>
      <trkpt lat="47.528366" lon="2.0597684">
        <ele>162.0</ele>
        <time>2022-02-27T09:34:11Z</time>
      </trkpt>
      <trkpt lat="47.52837" lon="2.059785">
        <ele>163.0</ele>
        <time>2022-02-27T09:34:12Z</time>
      </trkpt>
      <trkpt lat="47.528374" lon="2.0598">
        <ele>163.0</ele>
        <time>2022-02-27T09:34:13Z</time>
      </trkpt>
      <trkpt lat="47.528378" lon="2.0598128">
        <ele>163.0</ele>
        <time>2022-02-27T09:34:14Z</time>
      </trkpt>
      <trkpt lat="47.52838" lon="2.0598211">
        <ele>163.0</ele>
        <time>2022-02-27T09:34:15Z</time>
      </trkpt>
      <trkpt lat="47.528385" lon="2.0598307">
        <ele>163.0</ele>
        <time>2022-02-27T09:34:16Z</time>
      </trkpt>
      <trkpt lat="47.52839" lon="2.059846">
        <ele>163.0</ele>
        <time>2022-02-27T09:34:17Z</time>
      </trkpt>
      <trkpt lat="47.52839" lon="2.05986">
        <ele>163.0</ele>
        <time>2022-02-27T09:34:18Z</time>
      </trkpt>
      <trkpt lat="47.528397" lon="2.0598722">
        <ele>163.0</ele>
        <time>2022-02-27T09:34:19Z</time>
      </trkpt>
      <trkpt lat="47.5284" lon="2.0598853">
        <ele>163.0</ele>
        <time>2022-02-27T09:34:20Z</time>
      </trkpt>
      <trkpt lat="47.5284" lon="2.0598853">
        <ele>163.0</ele>
        <time>2022-02-27T09:34:20Z</time>
      </trkpt>
      <trkpt lat="47.528404" lon="2.059922">
        <ele>163.0</ele>
        <time>2022-02-27T09:34:22Z</time>
      </trkpt>
      <trkpt lat="47.528408" lon="2.0599382">
        <ele>163.0</ele>
        <time>2022-02-27T09:34:23Z</time>
      </trkpt>
      <trkpt lat="47.528408" lon="2.0599382">
        <ele>163.0</ele>
        <time>2022-02-27T09:34:23Z</time>
      </trkpt>
      <trkpt lat="47.528416" lon="2.0599704">
        <ele>162.0</ele>
        <time>2022-02-27T09:34:25Z</time>
      </trkpt>
      <trkpt lat="47.52842" lon="2.0599868">
        <ele>162.0</ele>
        <time>2022-02-27T09:34:26Z</time>
      </trkpt>
      <trkpt lat="47.528423" lon="2.06">
        <ele>162.0</ele>
        <time>2022-02-27T09:34:27Z</time>
      </trkpt>
      <trkpt lat="47.52842" lon="2.0600135">
        <ele>162.0</ele>
        <time>2022-02-27T09:34:28Z</time>
      </trkpt>
      <trkpt lat="47.52842" lon="2.0600302">
        <ele>162.0</ele>
        <time>2022-02-27T09:34:29Z</time>
      </trkpt>
      <trkpt lat="47.52842" lon="2.0600474">
        <ele>162.0</ele>
        <time>2022-02-27T09:34:30Z</time>
      </trkpt>
      <trkpt lat="47.52842" lon="2.060064">
        <ele>162.0</ele>
        <time>2022-02-27T09:34:31Z</time>
      </trkpt>
      <trkpt lat="47.52842" lon="2.0600786">
        <ele>162.0</ele>
        <time>2022-02-27T09:34:32Z</time>
      </trkpt>
      <trkpt lat="47.528427" lon="2.060093">
        <ele>163.0</ele>
        <time>2022-02-27T09:34:33Z</time>
      </trkpt>
      <trkpt lat="47.52843" lon="2.0601072">
        <ele>163.0</ele>
        <time>2022-02-27T09:34:34Z</time>
      </trkpt>
      <trkpt lat="47.52843" lon="2.060132">
        <ele>163.0</ele>
        <time>2022-02-27T09:34:35Z</time>
      </trkpt>
      <trkpt lat="47.528435" lon="2.060148">
        <ele>163.0</ele>
        <time>2022-02-27T09:34:36Z</time>
      </trkpt>
      <trkpt lat="47.52844" lon="2.060165">
        <ele>163.0</ele>
        <time>2022-02-27T09:34:37Z</time>
      </trkpt>
      <trkpt lat="47.528435" lon="2.0601854">
        <ele>163.0</ele>
        <time>2022-02-27T09:34:38Z</time>
      </trkpt>
      <trkpt lat="47.52843" lon="2.0602007">
        <ele>164.0</ele>
        <time>2022-02-27T09:34:39Z</time>
      </trkpt>
      <trkpt lat="47.52843" lon="2.060218">
        <ele>164.0</ele>
        <time>2022-02-27T09:34:40Z</time>
      </trkpt>
      <trkpt lat="47.528427" lon="2.0602317">
        <ele>164.0</ele>
        <time>2022-02-27T09:34:41Z</time>
      </trkpt>
      <trkpt lat="47.528427" lon="2.0602407">
        <ele>164.0</ele>
        <time>2022-02-27T09:34:42Z</time>
      </trkpt>
      <trkpt lat="47.52842" lon="2.060253">
        <ele>164.0</ele>
        <time>2022-02-27T09:34:43Z</time>
      </trkpt>
      <trkpt lat="47.52841" lon="2.0602689">
        <ele>163.0</ele>
        <time>2022-02-27T09:34:44Z</time>
      </trkpt>
      <trkpt lat="47.528404" lon="2.0602794">
        <ele>163.0</ele>
        <time>2022-02-27T09:34:45Z</time>
      </trkpt>
      <trkpt lat="47.5284" lon="2.0602965">
        <ele>163.0</ele>
        <time>2022-02-27T09:34:46Z</time>
      </trkpt>
      <trkpt lat="47.52839" lon="2.0603101">
        <ele>163.0</ele>
        <time>2022-02-27T09:34:47Z</time>
      </trkpt>
      <trkpt lat="47.528385" lon="2.0603302">
        <ele>163.0</ele>
        <time>2022-02-27T09:34:48Z</time>
      </trkpt>
      <trkpt lat="47.528378" lon="2.0603442">
        <ele>163.0</ele>
        <time>2022-02-27T09:34:49Z</time>
      </trkpt>
      <trkpt lat="47.528374" lon="2.0603604">
        <ele>164.0</ele>
        <time>2022-02-27T09:34:50Z</time>
      </trkpt>
      <trkpt lat="47.528362" lon="2.0603771">
        <ele>164.0</ele>
        <time>2022-02-27T09:34:51Z</time>
      </trkpt>
      <trkpt lat="47.528355" lon="2.0603933">
        <ele>164.0</ele>
        <time>2022-02-27T09:34:52Z</time>
      </trkpt>
      <trkpt lat="47.52835" lon="2.0604055">
        <ele>163.0</ele>
        <time>2022-02-27T09:34:53Z</time>
      </trkpt>
      <trkpt lat="47.528347" lon="2.0604184">
        <ele>163.0</ele>
        <time>2022-02-27T09:34:54Z</time>
      </trkpt>
      <trkpt lat="47.52834" lon="2.0604365">
        <ele>163.0</ele>
        <time>2022-02-27T09:34:55Z</time>
      </trkpt>
      <trkpt lat="47.528336" lon="2.0604503">
        <ele>163.0</ele>
        <time>2022-02-27T09:34:56Z</time>
      </trkpt>
      <trkpt lat="47.52833" lon="2.0604637">
        <ele>163.0</ele>
        <time>2022-02-27T09:34:57Z</time>
      </trkpt>
      <trkpt lat="47.528328" lon="2.0604765">
        <ele>163.0</ele>
        <time>2022-02-27T09:34:58Z</time>
      </trkpt>
      <trkpt lat="47.528316" lon="2.0604913">
        <ele>163.0</ele>
        <time>2022-02-27T09:34:59Z</time>
      </trkpt>
      <trkpt lat="47.528313" lon="2.060508">
        <ele>163.0</ele>
        <time>2022-02-27T09:35:00Z</time>
      </trkpt>
      <trkpt lat="47.528305" lon="2.0605278">
        <ele>163.0</ele>
        <time>2022-02-27T09:35:01Z</time>
      </trkpt>
      <trkpt lat="47.5283" lon="2.060545">
        <ele>163.0</ele>
        <time>2022-02-27T09:35:02Z</time>
      </trkpt>
      <trkpt lat="47.528297" lon="2.0605597">
        <ele>162.0</ele>
        <time>2022-02-27T09:35:03Z</time>
      </trkpt>
      <trkpt lat="47.528294" lon="2.0605724">
        <ele>162.0</ele>
        <time>2022-02-27T09:35:04Z</time>
      </trkpt>
      <trkpt lat="47.528282" lon="2.060585">
        <ele>162.0</ele>
        <time>2022-02-27T09:35:05Z</time>
      </trkpt>
      <trkpt lat="47.52828" lon="2.060598">
        <ele>162.0</ele>
        <time>2022-02-27T09:35:06Z</time>
      </trkpt>
      <trkpt lat="47.52827" lon="2.0606103">
        <ele>162.0</ele>
        <time>2022-02-27T09:35:07Z</time>
      </trkpt>
      <trkpt lat="47.528263" lon="2.0606234">
        <ele>161.0</ele>
        <time>2022-02-27T09:35:08Z</time>
      </trkpt>
      <trkpt lat="47.528255" lon="2.0606349">
        <ele>162.0</ele>
        <time>2022-02-27T09:35:09Z</time>
      </trkpt>
      <trkpt lat="47.528248" lon="2.060646">
        <ele>162.0</ele>
        <time>2022-02-27T09:35:10Z</time>
      </trkpt>
      <trkpt lat="47.528244" lon="2.0606573">
        <ele>162.0</ele>
        <time>2022-02-27T09:35:11Z</time>
      </trkpt>
      <trkpt lat="47.52824" lon="2.0606687">
        <ele>162.0</ele>
        <time>2022-02-27T09:35:12Z</time>
      </trkpt>
      <trkpt lat="47.528236" lon="2.0606825">
        <ele>162.0</ele>
        <time>2022-02-27T09:35:13Z</time>
      </trkpt>
      <trkpt lat="47.528233" lon="2.0606961">
        <ele>161.0</ele>
        <time>2022-02-27T09:35:14Z</time>
      </trkpt>
      <trkpt lat="47.52823" lon="2.0607133">
        <ele>162.0</ele>
        <time>2022-02-27T09:35:15Z</time>
      </trkpt>
      <trkpt lat="47.52822" lon="2.0607257">
        <ele>162.0</ele>
        <time>2022-02-27T09:35:16Z</time>
      </trkpt>
      <trkpt lat="47.528217" lon="2.0607443">
        <ele>162.0</ele>
        <time>2022-02-27T09:35:17Z</time>
      </trkpt>
      <trkpt lat="47.528214" lon="2.060761">
        <ele>161.0</ele>
        <time>2022-02-27T09:35:18Z</time>
      </trkpt>
      <trkpt lat="47.52821" lon="2.060777">
        <ele>161.0</ele>
        <time>2022-02-27T09:35:19Z</time>
      </trkpt>
      <trkpt lat="47.52821" lon="2.0607913">
        <ele>161.0</ele>
        <time>2022-02-27T09:35:20Z</time>
      </trkpt>
      <trkpt lat="47.528202" lon="2.0608068">
        <ele>161.0</ele>
        <time>2022-02-27T09:35:21Z</time>
      </trkpt>
      <trkpt lat="47.528194" lon="2.0608208">
        <ele>161.0</ele>
        <time>2022-02-27T09:35:22Z</time>
      </trkpt>
      <trkpt lat="47.52819" lon="2.060831">
        <ele>162.0</ele>
        <time>2022-02-27T09:35:23Z</time>
      </trkpt>
      <trkpt lat="47.528187" lon="2.0608437">
        <ele>162.0</ele>
        <time>2022-02-27T09:35:24Z</time>
      </trkpt>
      <trkpt lat="47.528183" lon="2.0608563">
        <ele>162.0</ele>
        <time>2022-02-27T09:35:25Z</time>
      </trkpt>
      <trkpt lat="47.52818" lon="2.0608711">
        <ele>162.0</ele>
        <time>2022-02-27T09:35:26Z</time>
      </trkpt>
      <trkpt lat="47.52817" lon="2.0608869">
        <ele>162.0</ele>
        <time>2022-02-27T09:35:27Z</time>
      </trkpt>
      <trkpt lat="47.528168" lon="2.0609016">
        <ele>162.0</ele>
        <time>2022-02-27T09:35:28Z</time>
      </trkpt>
      <trkpt lat="47.52816" lon="2.0609164">
        <ele>162.0</ele>
        <time>2022-02-27T09:35:29Z</time>
      </trkpt>
      <trkpt lat="47.52816" lon="2.0609343">
        <ele>162.0</ele>
        <time>2022-02-27T09:35:30Z</time>
      </trkpt>
      <trkpt lat="47.528156" lon="2.0609534">
        <ele>162.0</ele>
        <time>2022-02-27T09:35:31Z</time>
      </trkpt>
      <trkpt lat="47.52816" lon="2.060966">
        <ele>162.0</ele>
        <time>2022-02-27T09:35:32Z</time>
      </trkpt>
      <trkpt lat="47.52816" lon="2.0609818">
        <ele>161.0</ele>
        <time>2022-02-27T09:35:33Z</time>
      </trkpt>
      <trkpt lat="47.528156" lon="2.0609932">
        <ele>161.0</ele>
        <time>2022-02-27T09:35:34Z</time>
      </trkpt>
      <trkpt lat="47.528152" lon="2.061001">
        <ele>162.0</ele>
        <time>2022-02-27T09:35:35Z</time>
      </trkpt>
      <trkpt lat="47.528152" lon="2.0610125">
        <ele>162.0</ele>
        <time>2022-02-27T09:35:36Z</time>
      </trkpt>
      <trkpt lat="47.52815" lon="2.0610242">
        <ele>162.0</ele>
        <time>2022-02-27T09:35:37Z</time>
      </trkpt>
      <trkpt lat="47.52815" lon="2.0610242">
        <ele>162.0</ele>
        <time>2022-02-27T09:35:38Z</time>
      </trkpt>
      <trkpt lat="47.52815" lon="2.0610242">
        <ele>162.0</ele>
        <time>2022-02-27T09:35:39Z</time>
      </trkpt>
      <trkpt lat="47.52814" lon="2.0610569">
        <ele>162.0</ele>
        <time>2022-02-27T09:35:40Z</time>
      </trkpt>
      <trkpt lat="47.528137" lon="2.0610762">
        <ele>162.0</ele>
        <time>2022-02-27T09:35:41Z</time>
      </trkpt>
      <trkpt lat="47.528133" lon="2.0610921">
        <ele>161.0</ele>
        <time>2022-02-27T09:35:42Z</time>
      </trkpt>
      <trkpt lat="47.528137" lon="2.061106">
        <ele>161.0</ele>
        <time>2022-02-27T09:35:43Z</time>
      </trkpt>
      <trkpt lat="47.52814" lon="2.0611215">
        <ele>161.0</ele>
        <time>2022-02-27T09:35:44Z</time>
      </trkpt>
      <trkpt lat="47.528145" lon="2.06114">
        <ele>160.0</ele>
        <time>2022-02-27T09:35:45Z</time>
      </trkpt>
      <trkpt lat="47.52815" lon="2.0611594">
        <ele>161.0</ele>
        <time>2022-02-27T09:35:46Z</time>
      </trkpt>
      <trkpt lat="47.52815" lon="2.0611758">
        <ele>161.0</ele>
        <time>2022-02-27T09:35:47Z</time>
      </trkpt>
      <trkpt lat="47.528156" lon="2.061194">
        <ele>161.0</ele>
        <time>2022-02-27T09:35:48Z</time>
      </trkpt>
      <trkpt lat="47.528156" lon="2.061216">
        <ele>161.0</ele>
        <time>2022-02-27T09:35:49Z</time>
      </trkpt>
      <trkpt lat="47.52816" lon="2.0612316">
        <ele>161.0</ele>
        <time>2022-02-27T09:35:50Z</time>
      </trkpt>
      <trkpt lat="47.528164" lon="2.0612462">
        <ele>161.0</ele>
        <time>2022-02-27T09:35:51Z</time>
      </trkpt>
      <trkpt lat="47.52817" lon="2.0612636">
        <ele>161.0</ele>
        <time>2022-02-27T09:35:52Z</time>
      </trkpt>
      <trkpt lat="47.528175" lon="2.061279">
        <ele>161.0</ele>
        <time>2022-02-27T09:35:53Z</time>
      </trkpt>
      <trkpt lat="47.52818" lon="2.0612917">
        <ele>160.0</ele>
        <time>2022-02-27T09:35:54Z</time>
      </trkpt>
      <trkpt lat="47.528183" lon="2.0613065">
        <ele>160.0</ele>
        <time>2022-02-27T09:35:55Z</time>
      </trkpt>
      <trkpt lat="47.528183" lon="2.0613213">
        <ele>160.0</ele>
        <time>2022-02-27T09:35:56Z</time>
      </trkpt>
      <trkpt lat="47.52819" lon="2.0613382">
        <ele>161.0</ele>
        <time>2022-02-27T09:35:57Z</time>
      </trkpt>
      <trkpt lat="47.5282" lon="2.0613518">
        <ele>161.0</ele>
        <time>2022-02-27T09:35:58Z</time>
      </trkpt>
      <trkpt lat="47.528202" lon="2.0613618">
        <ele>161.0</ele>
        <time>2022-02-27T09:35:59Z</time>
      </trkpt>
      <trkpt lat="47.528206" lon="2.0613737">
        <ele>161.0</ele>
        <time>2022-02-27T09:36:00Z</time>
      </trkpt>
      <trkpt lat="47.528214" lon="2.0613906">
        <ele>161.0</ele>
        <time>2022-02-27T09:36:01Z</time>
      </trkpt>
      <trkpt lat="47.528214" lon="2.0614123">
        <ele>161.0</ele>
        <time>2022-02-27T09:36:02Z</time>
      </trkpt>
      <trkpt lat="47.528217" lon="2.0614297">
        <ele>162.0</ele>
        <time>2022-02-27T09:36:03Z</time>
      </trkpt>
      <trkpt lat="47.52822" lon="2.061445">
        <ele>162.0</ele>
        <time>2022-02-27T09:36:04Z</time>
      </trkpt>
      <trkpt lat="47.528225" lon="2.06146">
        <ele>162.0</ele>
        <time>2022-02-27T09:36:05Z</time>
      </trkpt>
      <trkpt lat="47.528233" lon="2.0614789">
        <ele>162.0</ele>
        <time>2022-02-27T09:36:06Z</time>
      </trkpt>
      <trkpt lat="47.52824" lon="2.061495">
        <ele>162.0</ele>
        <time>2022-02-27T09:36:07Z</time>
      </trkpt>
      <trkpt lat="47.528244" lon="2.0615094">
        <ele>163.0</ele>
        <time>2022-02-27T09:36:08Z</time>
      </trkpt>
      <trkpt lat="47.52825" lon="2.0615227">
        <ele>163.0</ele>
        <time>2022-02-27T09:36:09Z</time>
      </trkpt>
      <trkpt lat="47.528255" lon="2.0615354">
        <ele>163.0</ele>
        <time>2022-02-27T09:36:10Z</time>
      </trkpt>
      <trkpt lat="47.52825" lon="2.0615485">
        <ele>163.0</ele>
        <time>2022-02-27T09:36:11Z</time>
      </trkpt>
      <trkpt lat="47.52825" lon="2.0615642">
        <ele>163.0</ele>
        <time>2022-02-27T09:36:12Z</time>
      </trkpt>
      <trkpt lat="47.52825" lon="2.0615816">
        <ele>163.0</ele>
        <time>2022-02-27T09:36:13Z</time>
      </trkpt>
      <trkpt lat="47.528248" lon="2.0616007">
        <ele>163.0</ele>
        <time>2022-02-27T09:36:14Z</time>
      </trkpt>
      <trkpt lat="47.528244" lon="2.0616217">
        <ele>162.0</ele>
        <time>2022-02-27T09:36:15Z</time>
      </trkpt>
      <trkpt lat="47.52824" lon="2.0616395">
        <ele>162.0</ele>
        <time>2022-02-27T09:36:16Z</time>
      </trkpt>
      <trkpt lat="47.52824" lon="2.0616593">
        <ele>162.0</ele>
        <time>2022-02-27T09:36:17Z</time>
      </trkpt>
      <trkpt lat="47.52824" lon="2.061677">
        <ele>162.0</ele>
        <time>2022-02-27T09:36:18Z</time>
      </trkpt>
      <trkpt lat="47.528236" lon="2.0616915">
        <ele>162.0</ele>
        <time>2022-02-27T09:36:19Z</time>
      </trkpt>
      <trkpt lat="47.528236" lon="2.061704">
        <ele>162.0</ele>
        <time>2022-02-27T09:36:20Z</time>
      </trkpt>
      <trkpt lat="47.528233" lon="2.0617187">
        <ele>162.0</ele>
        <time>2022-02-27T09:36:21Z</time>
      </trkpt>
      <trkpt lat="47.528225" lon="2.061734">
        <ele>162.0</ele>
        <time>2022-02-27T09:36:22Z</time>
      </trkpt>
      <trkpt lat="47.528225" lon="2.0617483">
        <ele>162.0</ele>
        <time>2022-02-27T09:36:23Z</time>
      </trkpt>
      <trkpt lat="47.528217" lon="2.061766">
        <ele>162.0</ele>
        <time>2022-02-27T09:36:24Z</time>
      </trkpt>
      <trkpt lat="47.528217" lon="2.0617824">
        <ele>162.0</ele>
        <time>2022-02-27T09:36:25Z</time>
      </trkpt>
      <trkpt lat="47.528214" lon="2.0617993">
        <ele>162.0</ele>
        <time>2022-02-27T09:36:26Z</time>
      </trkpt>
      <trkpt lat="47.528214" lon="2.0618145">
        <ele>162.0</ele>
        <time>2022-02-27T09:36:27Z</time>
      </trkpt>
      <trkpt lat="47.528214" lon="2.06183">
        <ele>162.0</ele>
        <time>2022-02-27T09:36:28Z</time>
      </trkpt>
      <trkpt lat="47.528214" lon="2.0618455">
        <ele>162.0</ele>
        <time>2022-02-27T09:36:29Z</time>
      </trkpt>
      <trkpt lat="47.528214" lon="2.0618613">
        <ele>162.0</ele>
        <time>2022-02-27T09:36:30Z</time>
      </trkpt>
      <trkpt lat="47.528217" lon="2.061882">
        <ele>162.0</ele>
        <time>2022-02-27T09:36:31Z</time>
      </trkpt>
      <trkpt lat="47.52822" lon="2.0618982">
        <ele>162.0</ele>
        <time>2022-02-27T09:36:32Z</time>
      </trkpt>
      <trkpt lat="47.52822" lon="2.0619137">
        <ele>162.0</ele>
        <time>2022-02-27T09:36:33Z</time>
      </trkpt>
      <trkpt lat="47.52822" lon="2.0619311">
        <ele>163.0</ele>
        <time>2022-02-27T09:36:34Z</time>
      </trkpt>
      <trkpt lat="47.528225" lon="2.0619528">
        <ele>162.0</ele>
        <time>2022-02-27T09:36:35Z</time>
      </trkpt>
      <trkpt lat="47.528225" lon="2.0619702">
        <ele>162.0</ele>
        <time>2022-02-27T09:36:36Z</time>
      </trkpt>
      <trkpt lat="47.52822" lon="2.0619879">
        <ele>162.0</ele>
        <time>2022-02-27T09:36:37Z</time>
      </trkpt>
      <trkpt lat="47.52822" lon="2.0620036">
        <ele>162.0</ele>
        <time>2022-02-27T09:36:38Z</time>
      </trkpt>
      <trkpt lat="47.52822" lon="2.062015">
        <ele>163.0</ele>
        <time>2022-02-27T09:36:39Z</time>
      </trkpt>
      <trkpt lat="47.528217" lon="2.0620294">
        <ele>163.0</ele>
        <time>2022-02-27T09:36:40Z</time>
      </trkpt>
      <trkpt lat="47.528214" lon="2.0620408">
        <ele>163.0</ele>
        <time>2022-02-27T09:36:41Z</time>
      </trkpt>
      <trkpt lat="47.528214" lon="2.0620534">
        <ele>162.0</ele>
        <time>2022-02-27T09:36:42Z</time>
      </trkpt>
      <trkpt lat="47.528214" lon="2.0620668">
        <ele>162.0</ele>
        <time>2022-02-27T09:36:43Z</time>
      </trkpt>
      <trkpt lat="47.52821" lon="2.0620797">
        <ele>162.0</ele>
        <time>2022-02-27T09:36:44Z</time>
      </trkpt>
      <trkpt lat="47.52821" lon="2.062094">
        <ele>162.0</ele>
        <time>2022-02-27T09:36:45Z</time>
      </trkpt>
      <trkpt lat="47.528206" lon="2.06211">
        <ele>162.0</ele>
        <time>2022-02-27T09:36:46Z</time>
      </trkpt>
      <trkpt lat="47.528202" lon="2.062124">
        <ele>162.0</ele>
        <time>2022-02-27T09:36:47Z</time>
      </trkpt>
      <trkpt lat="47.5282" lon="2.0621388">
        <ele>162.0</ele>
        <time>2022-02-27T09:36:48Z</time>
      </trkpt>
      <trkpt lat="47.5282" lon="2.062151">
        <ele>162.0</ele>
        <time>2022-02-27T09:36:49Z</time>
      </trkpt>
      <trkpt lat="47.528194" lon="2.0621626">
        <ele>161.0</ele>
        <time>2022-02-27T09:36:50Z</time>
      </trkpt>
      <trkpt lat="47.52819" lon="2.062173">
        <ele>161.0</ele>
        <time>2022-02-27T09:36:51Z</time>
      </trkpt>
      <trkpt lat="47.52819" lon="2.062173">
        <ele>161.0</ele>
        <time>2022-02-27T09:36:52Z</time>
      </trkpt>
      <trkpt lat="47.52819" lon="2.062173">
        <ele>161.0</ele>
        <time>2022-02-27T09:36:53Z</time>
      </trkpt>
      <trkpt lat="47.528183" lon="2.0622017">
        <ele>159.0</ele>
        <time>2022-02-27T09:36:54Z</time>
      </trkpt>
      <trkpt lat="47.528187" lon="2.0622094">
        <ele>159.0</ele>
        <time>2022-02-27T09:36:55Z</time>
      </trkpt>
      <trkpt lat="47.528183" lon="2.0622215">
        <ele>160.0</ele>
        <time>2022-02-27T09:36:56Z</time>
      </trkpt>
      <trkpt lat="47.528183" lon="2.062237">
        <ele>160.0</ele>
        <time>2022-02-27T09:36:57Z</time>
      </trkpt>
      <trkpt lat="47.52818" lon="2.062249">
        <ele>160.0</ele>
        <time>2022-02-27T09:36:58Z</time>
      </trkpt>
      <trkpt lat="47.52818" lon="2.062265">
        <ele>160.0</ele>
        <time>2022-02-27T09:36:59Z</time>
      </trkpt>
      <trkpt lat="47.528175" lon="2.0622818">
        <ele>161.0</ele>
        <time>2022-02-27T09:37:00Z</time>
      </trkpt>
      <trkpt lat="47.528175" lon="2.0623033">
        <ele>161.0</ele>
        <time>2022-02-27T09:37:01Z</time>
      </trkpt>
      <trkpt lat="47.528175" lon="2.0623212">
        <ele>161.0</ele>
        <time>2022-02-27T09:37:02Z</time>
      </trkpt>
      <trkpt lat="47.528175" lon="2.0623384">
        <ele>161.0</ele>
        <time>2022-02-27T09:37:03Z</time>
      </trkpt>
      <trkpt lat="47.52817" lon="2.0623522">
        <ele>161.0</ele>
        <time>2022-02-27T09:37:04Z</time>
      </trkpt>
      <trkpt lat="47.52817" lon="2.0623655">
        <ele>161.0</ele>
        <time>2022-02-27T09:37:05Z</time>
      </trkpt>
      <trkpt lat="47.528164" lon="2.0623755">
        <ele>161.0</ele>
        <time>2022-02-27T09:37:06Z</time>
      </trkpt>
      <trkpt lat="47.52816" lon="2.062382">
        <ele>161.0</ele>
        <time>2022-02-27T09:37:07Z</time>
      </trkpt>
      <trkpt lat="47.52815" lon="2.0623882">
        <ele>160.0</ele>
        <time>2022-02-27T09:37:08Z</time>
      </trkpt>
      <trkpt lat="47.52814" lon="2.0623946">
        <ele>161.0</ele>
        <time>2022-02-27T09:37:09Z</time>
      </trkpt>
      <trkpt lat="47.52813" lon="2.0623994">
        <ele>160.0</ele>
        <time>2022-02-27T09:37:10Z</time>
      </trkpt>
      <trkpt lat="47.528122" lon="2.062406">
        <ele>160.0</ele>
        <time>2022-02-27T09:37:11Z</time>
      </trkpt>
      <trkpt lat="47.528114" lon="2.0624094">
        <ele>161.0</ele>
        <time>2022-02-27T09:37:12Z</time>
      </trkpt>
      <trkpt lat="47.528107" lon="2.0624125">
        <ele>162.0</ele>
        <time>2022-02-27T09:37:13Z</time>
      </trkpt>
      <trkpt lat="47.528095" lon="2.0624142">
        <ele>162.0</ele>
        <time>2022-02-27T09:37:14Z</time>
      </trkpt>
      <trkpt lat="47.528084" lon="2.0624104">
        <ele>163.0</ele>
        <time>2022-02-27T09:37:15Z</time>
      </trkpt>
      <trkpt lat="47.528072" lon="2.0624094">
        <ele>163.0</ele>
        <time>2022-02-27T09:37:16Z</time>
      </trkpt>
      <trkpt lat="47.52807" lon="2.0624127">
        <ele>164.0</ele>
        <time>2022-02-27T09:37:17Z</time>
      </trkpt>
      <trkpt lat="47.52806" lon="2.0624127">
        <ele>165.0</ele>
        <time>2022-02-27T09:37:18Z</time>
      </trkpt>
      <trkpt lat="47.528053" lon="2.0624132">
        <ele>165.0</ele>
        <time>2022-02-27T09:37:19Z</time>
      </trkpt>
      <trkpt lat="47.52804" lon="2.06241">
        <ele>166.0</ele>
        <time>2022-02-27T09:37:20Z</time>
      </trkpt>
      <trkpt lat="47.52803" lon="2.0624082">
        <ele>167.0</ele>
        <time>2022-02-27T09:37:21Z</time>
      </trkpt>
      <trkpt lat="47.52802" lon="2.0624056">
        <ele>167.0</ele>
        <time>2022-02-27T09:37:22Z</time>
      </trkpt>
      <trkpt lat="47.528008" lon="2.0624073">
        <ele>166.0</ele>
        <time>2022-02-27T09:37:23Z</time>
      </trkpt>
      <trkpt lat="47.527992" lon="2.0624108">
        <ele>166.0</ele>
        <time>2022-02-27T09:37:24Z</time>
      </trkpt>
      <trkpt lat="47.52798" lon="2.0624046">
        <ele>166.0</ele>
        <time>2022-02-27T09:37:25Z</time>
      </trkpt>
      <trkpt lat="47.52797" lon="2.0624">
        <ele>166.0</ele>
        <time>2022-02-27T09:37:26Z</time>
      </trkpt>
      <trkpt lat="47.527958" lon="2.0623932">
        <ele>166.0</ele>
        <time>2022-02-27T09:37:27Z</time>
      </trkpt>
      <trkpt lat="47.52795" lon="2.0623848">
        <ele>167.0</ele>
        <time>2022-02-27T09:37:28Z</time>
      </trkpt>
      <trkpt lat="47.52794" lon="2.0623813">
        <ele>167.0</ele>
        <time>2022-02-27T09:37:29Z</time>
      </trkpt>
      <trkpt lat="47.52793" lon="2.0623782">
        <ele>167.0</ele>
        <time>2022-02-27T09:37:30Z</time>
      </trkpt>
      <trkpt lat="47.527916" lon="2.0623734">
        <ele>167.0</ele>
        <time>2022-02-27T09:37:31Z</time>
      </trkpt>
      <trkpt lat="47.527916" lon="2.0623744">
        <ele>167.0</ele>
        <time>2022-02-27T09:37:32Z</time>
      </trkpt>
      <trkpt lat="47.527912" lon="2.0623727">
        <ele>168.0</ele>
        <time>2022-02-27T09:37:33Z</time>
      </trkpt>
      <trkpt lat="47.527905" lon="2.0623682">
        <ele>168.0</ele>
        <time>2022-02-27T09:37:34Z</time>
      </trkpt>
      <trkpt lat="47.527897" lon="2.062364">
        <ele>168.0</ele>
        <time>2022-02-27T09:37:35Z</time>
      </trkpt>
      <trkpt lat="47.527885" lon="2.0623596">
        <ele>168.0</ele>
        <time>2022-02-27T09:37:36Z</time>
      </trkpt>
      <trkpt lat="47.527885" lon="2.0623596">
        <ele>168.0</ele>
        <time>2022-02-27T09:37:37Z</time>
      </trkpt>
      <trkpt lat="47.52787" lon="2.0623493">
        <ele>168.0</ele>
        <time>2022-02-27T09:37:38Z</time>
      </trkpt>
      <trkpt lat="47.52786" lon="2.062344">
        <ele>168.0</ele>
        <time>2022-02-27T09:37:39Z</time>
      </trkpt>
      <trkpt lat="47.527847" lon="2.0623336">
        <ele>168.0</ele>
        <time>2022-02-27T09:37:40Z</time>
      </trkpt>
      <trkpt lat="47.527836" lon="2.0623257">
        <ele>167.0</ele>
        <time>2022-02-27T09:37:41Z</time>
      </trkpt>
      <trkpt lat="47.52783" lon="2.0623183">
        <ele>167.0</ele>
        <time>2022-02-27T09:37:42Z</time>
      </trkpt>
      <trkpt lat="47.527813" lon="2.0623112">
        <ele>167.0</ele>
        <time>2022-02-27T09:37:43Z</time>
      </trkpt>
      <trkpt lat="47.5278" lon="2.062303">
        <ele>167.0</ele>
        <time>2022-02-27T09:37:44Z</time>
      </trkpt>
      <trkpt lat="47.52779" lon="2.0623028">
        <ele>167.0</ele>
        <time>2022-02-27T09:37:45Z</time>
      </trkpt>
      <trkpt lat="47.52778" lon="2.0623019">
        <ele>167.0</ele>
        <time>2022-02-27T09:37:46Z</time>
      </trkpt>
      <trkpt lat="47.52777" lon="2.062298">
        <ele>167.0</ele>
        <time>2022-02-27T09:37:47Z</time>
      </trkpt>
      <trkpt lat="47.52776" lon="2.062294">
        <ele>167.0</ele>
        <time>2022-02-27T09:37:48Z</time>
      </trkpt>
      <trkpt lat="47.527752" lon="2.0622907">
        <ele>168.0</ele>
        <time>2022-02-27T09:37:49Z</time>
      </trkpt>
      <trkpt lat="47.527737" lon="2.0622864">
        <ele>168.0</ele>
        <time>2022-02-27T09:37:50Z</time>
      </trkpt>
      <trkpt lat="47.527725" lon="2.0622795">
        <ele>168.0</ele>
        <time>2022-02-27T09:37:51Z</time>
      </trkpt>
      <trkpt lat="47.527714" lon="2.0622733">
        <ele>168.0</ele>
        <time>2022-02-27T09:37:52Z</time>
      </trkpt>
      <trkpt lat="47.527702" lon="2.062269">
        <ele>168.0</ele>
        <time>2022-02-27T09:37:53Z</time>
      </trkpt>
      <trkpt lat="47.527695" lon="2.0622625">
        <ele>168.0</ele>
        <time>2022-02-27T09:37:54Z</time>
      </trkpt>
      <trkpt lat="47.527683" lon="2.0622594">
        <ele>168.0</ele>
        <time>2022-02-27T09:37:55Z</time>
      </trkpt>
      <trkpt lat="47.527676" lon="2.0622575">
        <ele>168.0</ele>
        <time>2022-02-27T09:37:56Z</time>
      </trkpt>
      <trkpt lat="47.527664" lon="2.0622537">
        <ele>168.0</ele>
        <time>2022-02-27T09:37:57Z</time>
      </trkpt>
      <trkpt lat="47.52765" lon="2.0622485">
        <ele>168.0</ele>
        <time>2022-02-27T09:37:58Z</time>
      </trkpt>
      <trkpt lat="47.52764" lon="2.0622447">
        <ele>168.0</ele>
        <time>2022-02-27T09:37:59Z</time>
      </trkpt>
      <trkpt lat="47.52763" lon="2.0622392">
        <ele>167.0</ele>
        <time>2022-02-27T09:38:00Z</time>
      </trkpt>
      <trkpt lat="47.52762" lon="2.0622354">
        <ele>167.0</ele>
        <time>2022-02-27T09:38:01Z</time>
      </trkpt>
      <trkpt lat="47.527607" lon="2.0622308">
        <ele>166.0</ele>
        <time>2022-02-27T09:38:02Z</time>
      </trkpt>
      <trkpt lat="47.5276" lon="2.0622256">
        <ele>166.0</ele>
        <time>2022-02-27T09:38:03Z</time>
      </trkpt>
      <trkpt lat="47.527588" lon="2.062223">
        <ele>165.0</ele>
        <time>2022-02-27T09:38:04Z</time>
      </trkpt>
      <trkpt lat="47.52758" lon="2.0622182">
        <ele>166.0</ele>
        <time>2022-02-27T09:38:05Z</time>
      </trkpt>
      <trkpt lat="47.52757" lon="2.0622149">
        <ele>166.0</ele>
        <time>2022-02-27T09:38:06Z</time>
      </trkpt>
      <trkpt lat="47.52756" lon="2.0622106">
        <ele>166.0</ele>
        <time>2022-02-27T09:38:07Z</time>
      </trkpt>
      <trkpt lat="47.52755" lon="2.062205">
        <ele>166.0</ele>
        <time>2022-02-27T09:38:08Z</time>
      </trkpt>
      <trkpt lat="47.527542" lon="2.0622005">
        <ele>166.0</ele>
        <time>2022-02-27T09:38:09Z</time>
      </trkpt>
      <trkpt lat="47.527534" lon="2.062199">
        <ele>166.0</ele>
        <time>2022-02-27T09:38:10Z</time>
      </trkpt>
      <trkpt lat="47.527534" lon="2.062199">
        <ele>166.0</ele>
        <time>2022-02-27T09:38:11Z</time>
      </trkpt>
      <trkpt lat="47.52752" lon="2.0621886">
        <ele>166.0</ele>
        <time>2022-02-27T09:38:12Z</time>
      </trkpt>
      <trkpt lat="47.527508" lon="2.0621767">
        <ele>166.0</ele>
        <time>2022-02-27T09:38:13Z</time>
      </trkpt>
      <trkpt lat="47.527493" lon="2.0621667">
        <ele>166.0</ele>
        <time>2022-02-27T09:38:14Z</time>
      </trkpt>
      <trkpt lat="47.527485" lon="2.062159">
        <ele>166.0</ele>
        <time>2022-02-27T09:38:15Z</time>
      </trkpt>
      <trkpt lat="47.527473" lon="2.062151">
        <ele>165.0</ele>
        <time>2022-02-27T09:38:16Z</time>
      </trkpt>
      <trkpt lat="47.527466" lon="2.062147">
        <ele>165.0</ele>
        <time>2022-02-27T09:38:17Z</time>
      </trkpt>
      <trkpt lat="47.527454" lon="2.062139">
        <ele>165.0</ele>
        <time>2022-02-27T09:38:18Z</time>
      </trkpt>
      <trkpt lat="47.527447" lon="2.0621324">
        <ele>165.0</ele>
        <time>2022-02-27T09:38:19Z</time>
      </trkpt>
      <trkpt lat="47.527435" lon="2.0621243">
        <ele>165.0</ele>
        <time>2022-02-27T09:38:20Z</time>
      </trkpt>
      <trkpt lat="47.527424" lon="2.062117">
        <ele>165.0</ele>
        <time>2022-02-27T09:38:21Z</time>
      </trkpt>
      <trkpt lat="47.527412" lon="2.0621111">
        <ele>164.0</ele>
        <time>2022-02-27T09:38:22Z</time>
      </trkpt>
      <trkpt lat="47.5274" lon="2.0621047">
        <ele>164.0</ele>
        <time>2022-02-27T09:38:23Z</time>
      </trkpt>
      <trkpt lat="47.52739" lon="2.0621052">
        <ele>165.0</ele>
        <time>2022-02-27T09:38:24Z</time>
      </trkpt>
      <trkpt lat="47.527378" lon="2.062105">
        <ele>164.0</ele>
        <time>2022-02-27T09:38:25Z</time>
      </trkpt>
      <trkpt lat="47.527363" lon="2.062103">
        <ele>164.0</ele>
        <time>2022-02-27T09:38:26Z</time>
      </trkpt>
      <trkpt lat="47.52735" lon="2.0620997">
        <ele>164.0</ele>
        <time>2022-02-27T09:38:27Z</time>
      </trkpt>
      <trkpt lat="47.527336" lon="2.0620956">
        <ele>164.0</ele>
        <time>2022-02-27T09:38:28Z</time>
      </trkpt>
      <trkpt lat="47.52733" lon="2.062094">
        <ele>164.0</ele>
        <time>2022-02-27T09:38:29Z</time>
      </trkpt>
      <trkpt lat="47.527313" lon="2.06209">
        <ele>164.0</ele>
        <time>2022-02-27T09:38:30Z</time>
      </trkpt>
      <trkpt lat="47.5273" lon="2.0620852">
        <ele>164.0</ele>
        <time>2022-02-27T09:38:31Z</time>
      </trkpt>
      <trkpt lat="47.52729" lon="2.0620797">
        <ele>163.0</ele>
        <time>2022-02-27T09:38:32Z</time>
      </trkpt>
      <trkpt lat="47.52728" lon="2.062076">
        <ele>163.0</ele>
        <time>2022-02-27T09:38:33Z</time>
      </trkpt>
      <trkpt lat="47.527267" lon="2.0620766">
        <ele>163.0</ele>
        <time>2022-02-27T09:38:34Z</time>
      </trkpt>
      <trkpt lat="47.527256" lon="2.0620732">
        <ele>163.0</ele>
        <time>2022-02-27T09:38:35Z</time>
      </trkpt>
      <trkpt lat="47.527245" lon="2.0620685">
        <ele>163.0</ele>
        <time>2022-02-27T09:38:36Z</time>
      </trkpt>
      <trkpt lat="47.527237" lon="2.0620637">
        <ele>163.0</ele>
        <time>2022-02-27T09:38:37Z</time>
      </trkpt>
      <trkpt lat="47.52723" lon="2.0620613">
        <ele>163.0</ele>
        <time>2022-02-27T09:38:38Z</time>
      </trkpt>
      <trkpt lat="47.52722" lon="2.062058">
        <ele>163.0</ele>
        <time>2022-02-27T09:38:39Z</time>
      </trkpt>
      <trkpt lat="47.527206" lon="2.062056">
        <ele>162.0</ele>
        <time>2022-02-27T09:38:40Z</time>
      </trkpt>
      <trkpt lat="47.527195" lon="2.062049">
        <ele>162.0</ele>
        <time>2022-02-27T09:38:41Z</time>
      </trkpt>
      <trkpt lat="47.527187" lon="2.0620475">
        <ele>161.0</ele>
        <time>2022-02-27T09:38:42Z</time>
      </trkpt>
      <trkpt lat="47.527176" lon="2.0620446">
        <ele>161.0</ele>
        <time>2022-02-27T09:38:43Z</time>
      </trkpt>
      <trkpt lat="47.527176" lon="2.0620446">
        <ele>161.0</ele>
        <time>2022-02-27T09:38:44Z</time>
      </trkpt>
      <trkpt lat="47.527157" lon="2.06204">
        <ele>160.0</ele>
        <time>2022-02-27T09:38:45Z</time>
      </trkpt>
      <trkpt lat="47.52714" lon="2.062035">
        <ele>159.0</ele>
        <time>2022-02-27T09:38:46Z</time>
      </trkpt>
      <trkpt lat="47.527126" lon="2.0620308">
        <ele>159.0</ele>
        <time>2022-02-27T09:38:47Z</time>
      </trkpt>
      <trkpt lat="47.527115" lon="2.0620246">
        <ele>159.0</ele>
        <time>2022-02-27T09:38:48Z</time>
      </trkpt>
      <trkpt lat="47.527107" lon="2.06202">
        <ele>159.0</ele>
        <time>2022-02-27T09:38:49Z</time>
      </trkpt>
      <trkpt lat="47.5271" lon="2.062015">
        <ele>159.0</ele>
        <time>2022-02-27T09:38:50Z</time>
      </trkpt>
      <trkpt lat="47.527092" lon="2.0620134">
        <ele>159.0</ele>
        <time>2022-02-27T09:38:51Z</time>
      </trkpt>
      <trkpt lat="47.52708" lon="2.0620131">
        <ele>159.0</ele>
        <time>2022-02-27T09:38:52Z</time>
      </trkpt>
      <trkpt lat="47.527073" lon="2.0620165">
        <ele>160.0</ele>
        <time>2022-02-27T09:38:53Z</time>
      </trkpt>
      <trkpt lat="47.527065" lon="2.0620148">
        <ele>160.0</ele>
        <time>2022-02-27T09:38:54Z</time>
      </trkpt>
      <trkpt lat="47.527054" lon="2.0620115">
        <ele>160.0</ele>
        <time>2022-02-27T09:38:55Z</time>
      </trkpt>
      <trkpt lat="47.527058" lon="2.062013">
        <ele>160.0</ele>
        <time>2022-02-27T09:38:56Z</time>
      </trkpt>
      <trkpt lat="47.52705" lon="2.0620117">
        <ele>160.0</ele>
        <time>2022-02-27T09:38:57Z</time>
      </trkpt>
      <trkpt lat="47.52704" lon="2.062009">
        <ele>160.0</ele>
        <time>2022-02-27T09:38:58Z</time>
      </trkpt>
      <trkpt lat="47.527027" lon="2.062006">
        <ele>160.0</ele>
        <time>2022-02-27T09:38:59Z</time>
      </trkpt>
      <trkpt lat="47.52702" lon="2.0619998">
        <ele>160.0</ele>
        <time>2022-02-27T09:39:00Z</time>
      </trkpt>
      <trkpt lat="47.52701" lon="2.0619938">
        <ele>160.0</ele>
        <time>2022-02-27T09:39:01Z</time>
      </trkpt>
      <trkpt lat="47.52701" lon="2.0619938">
        <ele>160.0</ele>
        <time>2022-02-27T09:39:02Z</time>
      </trkpt>
      <trkpt lat="47.52701" lon="2.0619938">
        <ele>160.0</ele>
        <time>2022-02-27T09:39:03Z</time>
      </trkpt>
      <trkpt lat="47.526985" lon="2.0619829">
        <ele>160.0</ele>
        <time>2022-02-27T09:39:04Z</time>
      </trkpt>
      <trkpt lat="47.52697" lon="2.0619788">
        <ele>160.0</ele>
        <time>2022-02-27T09:39:05Z</time>
      </trkpt>
      <trkpt lat="47.52696" lon="2.0619776">
        <ele>160.0</ele>
        <time>2022-02-27T09:39:06Z</time>
      </trkpt>
      <trkpt lat="47.526943" lon="2.0619714">
        <ele>160.0</ele>
        <time>2022-02-27T09:39:07Z</time>
      </trkpt>
      <trkpt lat="47.526936" lon="2.0619662">
        <ele>160.0</ele>
        <time>2022-02-27T09:39:08Z</time>
      </trkpt>
      <trkpt lat="47.526924" lon="2.061962">
        <ele>160.0</ele>
        <time>2022-02-27T09:39:09Z</time>
      </trkpt>
      <trkpt lat="47.526913" lon="2.0619557">
        <ele>160.0</ele>
        <time>2022-02-27T09:39:10Z</time>
      </trkpt>
      <trkpt lat="47.526897" lon="2.0619555">
        <ele>160.0</ele>
        <time>2022-02-27T09:39:11Z</time>
      </trkpt>
      <trkpt lat="47.52689" lon="2.0619528">
        <ele>160.0</ele>
        <time>2022-02-27T09:39:12Z</time>
      </trkpt>
      <trkpt lat="47.52688" lon="2.0619528">
        <ele>160.0</ele>
        <time>2022-02-27T09:39:13Z</time>
      </trkpt>
      <trkpt lat="47.526867" lon="2.0619524">
        <ele>160.0</ele>
        <time>2022-02-27T09:39:14Z</time>
      </trkpt>
      <trkpt lat="47.52686" lon="2.061951">
        <ele>161.0</ele>
        <time>2022-02-27T09:39:15Z</time>
      </trkpt>
      <trkpt lat="47.526848" lon="2.0619493">
        <ele>161.0</ele>
        <time>2022-02-27T09:39:16Z</time>
      </trkpt>
      <trkpt lat="47.526836" lon="2.0619452">
        <ele>162.0</ele>
        <time>2022-02-27T09:39:17Z</time>
      </trkpt>
      <trkpt lat="47.526825" lon="2.0619426">
        <ele>162.0</ele>
        <time>2022-02-27T09:39:18Z</time>
      </trkpt>
      <trkpt lat="47.526814" lon="2.0619414">
        <ele>162.0</ele>
        <time>2022-02-27T09:39:19Z</time>
      </trkpt>
      <trkpt lat="47.526802" lon="2.0619373">
        <ele>162.0</ele>
        <time>2022-02-27T09:39:20Z</time>
      </trkpt>
      <trkpt lat="47.52679" lon="2.0619314">
        <ele>162.0</ele>
        <time>2022-02-27T09:39:21Z</time>
      </trkpt>
      <trkpt lat="47.52678" lon="2.0619276">
        <ele>162.0</ele>
        <time>2022-02-27T09:39:22Z</time>
      </trkpt>
      <trkpt lat="47.526768" lon="2.0619256">
        <ele>162.0</ele>
        <time>2022-02-27T09:39:23Z</time>
      </trkpt>
      <trkpt lat="47.526752" lon="2.0619168">
        <ele>161.0</ele>
        <time>2022-02-27T09:39:24Z</time>
      </trkpt>
      <trkpt lat="47.526737" lon="2.0619073">
        <ele>162.0</ele>
        <time>2022-02-27T09:39:25Z</time>
      </trkpt>
      <trkpt lat="47.526726" lon="2.0619044">
        <ele>162.0</ele>
        <time>2022-02-27T09:39:26Z</time>
      </trkpt>
      <trkpt lat="47.526714" lon="2.0619037">
        <ele>162.0</ele>
        <time>2022-02-27T09:39:27Z</time>
      </trkpt>
      <trkpt lat="47.526707" lon="2.061905">
        <ele>163.0</ele>
        <time>2022-02-27T09:39:28Z</time>
      </trkpt>
      <trkpt lat="47.526707" lon="2.061905">
        <ele>163.0</ele>
        <time>2022-02-27T09:39:29Z</time>
      </trkpt>
      <trkpt lat="47.526688" lon="2.0618997">
        <ele>163.0</ele>
        <time>2022-02-27T09:39:30Z</time>
      </trkpt>
      <trkpt lat="47.52668" lon="2.0618958">
        <ele>163.0</ele>
        <time>2022-02-27T09:39:31Z</time>
      </trkpt>
      <trkpt lat="47.526665" lon="2.0618932">
        <ele>163.0</ele>
        <time>2022-02-27T09:39:32Z</time>
      </trkpt>
      <trkpt lat="47.526653" lon="2.061894">
        <ele>163.0</ele>
        <time>2022-02-27T09:39:33Z</time>
      </trkpt>
      <trkpt lat="47.526638" lon="2.0618827">
        <ele>163.0</ele>
        <time>2022-02-27T09:39:34Z</time>
      </trkpt>
      <trkpt lat="47.52662" lon="2.061871">
        <ele>163.0</ele>
        <time>2022-02-27T09:39:35Z</time>
      </trkpt>
      <trkpt lat="47.526604" lon="2.0618632">
        <ele>163.0</ele>
        <time>2022-02-27T09:39:36Z</time>
      </trkpt>
      <trkpt lat="47.526592" lon="2.0618532">
        <ele>162.0</ele>
        <time>2022-02-27T09:39:37Z</time>
      </trkpt>
      <trkpt lat="47.52658" lon="2.061849">
        <ele>162.0</ele>
        <time>2022-02-27T09:39:38Z</time>
      </trkpt>
      <trkpt lat="47.52657" lon="2.0618436">
        <ele>162.0</ele>
        <time>2022-02-27T09:39:39Z</time>
      </trkpt>
      <trkpt lat="47.526558" lon="2.0618396">
        <ele>162.0</ele>
        <time>2022-02-27T09:39:40Z</time>
      </trkpt>
      <trkpt lat="47.526543" lon="2.0618365">
        <ele>162.0</ele>
        <time>2022-02-27T09:39:41Z</time>
      </trkpt>
      <trkpt lat="47.52653" lon="2.0618324">
        <ele>162.0</ele>
        <time>2022-02-27T09:39:42Z</time>
      </trkpt>
      <trkpt lat="47.526524" lon="2.0618312">
        <ele>162.0</ele>
        <time>2022-02-27T09:39:43Z</time>
      </trkpt>
      <trkpt lat="47.526512" lon="2.0618317">
        <ele>162.0</ele>
        <time>2022-02-27T09:39:44Z</time>
      </trkpt>
      <trkpt lat="47.5265" lon="2.0618274">
        <ele>162.0</ele>
        <time>2022-02-27T09:39:45Z</time>
      </trkpt>
      <trkpt lat="47.526493" lon="2.061824">
        <ele>162.0</ele>
        <time>2022-02-27T09:39:46Z</time>
      </trkpt>
      <trkpt lat="47.52648" lon="2.061819">
        <ele>162.0</ele>
        <time>2022-02-27T09:39:47Z</time>
      </trkpt>
      <trkpt lat="47.52647" lon="2.0618145">
        <ele>162.0</ele>
        <time>2022-02-27T09:39:48Z</time>
      </trkpt>
      <trkpt lat="47.526455" lon="2.061812">
        <ele>162.0</ele>
        <time>2022-02-27T09:39:49Z</time>
      </trkpt>
      <trkpt lat="47.526447" lon="2.061811">
        <ele>161.0</ele>
        <time>2022-02-27T09:39:50Z</time>
      </trkpt>
      <trkpt lat="47.526436" lon="2.0618103">
        <ele>161.0</ele>
        <time>2022-02-27T09:39:51Z</time>
      </trkpt>
      <trkpt lat="47.526436" lon="2.0618136">
        <ele>162.0</ele>
        <time>2022-02-27T09:39:52Z</time>
      </trkpt>
      <trkpt lat="47.52643" lon="2.0618157">
        <ele>162.0</ele>
        <time>2022-02-27T09:39:53Z</time>
      </trkpt>
      <trkpt lat="47.52642" lon="2.0618174">
        <ele>163.0</ele>
        <time>2022-02-27T09:39:54Z</time>
      </trkpt>
      <trkpt lat="47.52641" lon="2.0618243">
        <ele>162.0</ele>
        <time>2022-02-27T09:39:55Z</time>
      </trkpt>
      <trkpt lat="47.5264" lon="2.0618293">
        <ele>162.0</ele>
        <time>2022-02-27T09:39:56Z</time>
      </trkpt>
      <trkpt lat="47.526394" lon="2.061835">
        <ele>161.0</ele>
        <time>2022-02-27T09:39:57Z</time>
      </trkpt>
      <trkpt lat="47.526382" lon="2.0618424">
        <ele>161.0</ele>
        <time>2022-02-27T09:39:58Z</time>
      </trkpt>
      <trkpt lat="47.526375" lon="2.0618544">
        <ele>160.0</ele>
        <time>2022-02-27T09:39:59Z</time>
      </trkpt>
      <trkpt lat="47.526367" lon="2.061866">
        <ele>160.0</ele>
        <time>2022-02-27T09:40:00Z</time>
      </trkpt>
      <trkpt lat="47.52636" lon="2.0618708">
        <ele>160.0</ele>
        <time>2022-02-27T09:40:01Z</time>
      </trkpt>
      <trkpt lat="47.52636" lon="2.0618708">
        <ele>160.0</ele>
        <time>2022-02-27T09:40:02Z</time>
      </trkpt>
      <trkpt lat="47.52636" lon="2.0618708">
        <ele>160.0</ele>
        <time>2022-02-27T09:40:03Z</time>
      </trkpt>
      <trkpt lat="47.526333" lon="2.0618968">
        <ele>159.0</ele>
        <time>2022-02-27T09:40:04Z</time>
      </trkpt>
      <trkpt lat="47.52633" lon="2.0619063">
        <ele>158.0</ele>
        <time>2022-02-27T09:40:05Z</time>
      </trkpt>
      <trkpt lat="47.52632" lon="2.0619192">
        <ele>158.0</ele>
        <time>2022-02-27T09:40:06Z</time>
      </trkpt>
      <trkpt lat="47.526318" lon="2.061935">
        <ele>158.0</ele>
        <time>2022-02-27T09:40:07Z</time>
      </trkpt>
      <trkpt lat="47.52631" lon="2.0619473">
        <ele>157.0</ele>
        <time>2022-02-27T09:40:08Z</time>
      </trkpt>
      <trkpt lat="47.526306" lon="2.061966">
        <ele>157.0</ele>
        <time>2022-02-27T09:40:09Z</time>
      </trkpt>
      <trkpt lat="47.5263" lon="2.0619826">
        <ele>156.0</ele>
        <time>2022-02-27T09:40:10Z</time>
      </trkpt>
      <trkpt lat="47.526295" lon="2.062">
        <ele>156.0</ele>
        <time>2022-02-27T09:40:11Z</time>
      </trkpt>
      <trkpt lat="47.526287" lon="2.0620172">
        <ele>155.0</ele>
        <time>2022-02-27T09:40:12Z</time>
      </trkpt>
      <trkpt lat="47.526283" lon="2.0620332">
        <ele>155.0</ele>
        <time>2022-02-27T09:40:13Z</time>
      </trkpt>
      <trkpt lat="47.526276" lon="2.0620499">
        <ele>154.0</ele>
        <time>2022-02-27T09:40:14Z</time>
      </trkpt>
      <trkpt lat="47.52627" lon="2.0620704">
        <ele>154.0</ele>
        <time>2022-02-27T09:40:15Z</time>
      </trkpt>
      <trkpt lat="47.52627" lon="2.0620914">
        <ele>154.0</ele>
        <time>2022-02-27T09:40:16Z</time>
      </trkpt>
      <trkpt lat="47.52627" lon="2.0621104">
        <ele>154.0</ele>
        <time>2022-02-27T09:40:17Z</time>
      </trkpt>
      <trkpt lat="47.526268" lon="2.0621266">
        <ele>155.0</ele>
        <time>2022-02-27T09:40:18Z</time>
      </trkpt>
      <trkpt lat="47.526264" lon="2.062138">
        <ele>155.0</ele>
        <time>2022-02-27T09:40:19Z</time>
      </trkpt>
      <trkpt lat="47.526257" lon="2.0621474">
        <ele>155.0</ele>
        <time>2022-02-27T09:40:20Z</time>
      </trkpt>
      <trkpt lat="47.526257" lon="2.0621545">
        <ele>155.0</ele>
        <time>2022-02-27T09:40:21Z</time>
      </trkpt>
      <trkpt lat="47.526253" lon="2.0621672">
        <ele>155.0</ele>
        <time>2022-02-27T09:40:22Z</time>
      </trkpt>
      <trkpt lat="47.52625" lon="2.06218">
        <ele>155.0</ele>
        <time>2022-02-27T09:40:23Z</time>
      </trkpt>
      <trkpt lat="47.526253" lon="2.062194">
        <ele>155.0</ele>
        <time>2022-02-27T09:40:24Z</time>
      </trkpt>
      <trkpt lat="47.526253" lon="2.06221">
        <ele>155.0</ele>
        <time>2022-02-27T09:40:25Z</time>
      </trkpt>
      <trkpt lat="47.52625" lon="2.062225">
        <ele>155.0</ele>
        <time>2022-02-27T09:40:26Z</time>
      </trkpt>
      <trkpt lat="47.526245" lon="2.0622418">
        <ele>155.0</ele>
        <time>2022-02-27T09:40:27Z</time>
      </trkpt>
      <trkpt lat="47.526245" lon="2.062256">
        <ele>156.0</ele>
        <time>2022-02-27T09:40:28Z</time>
      </trkpt>
      <trkpt lat="47.526245" lon="2.062268">
        <ele>156.0</ele>
        <time>2022-02-27T09:40:29Z</time>
      </trkpt>
      <trkpt lat="47.52625" lon="2.0622804">
        <ele>156.0</ele>
        <time>2022-02-27T09:40:30Z</time>
      </trkpt>
      <trkpt lat="47.526253" lon="2.0622945">
        <ele>156.0</ele>
        <time>2022-02-27T09:40:31Z</time>
      </trkpt>
      <trkpt lat="47.526253" lon="2.0623074">
        <ele>156.0</ele>
        <time>2022-02-27T09:40:32Z</time>
      </trkpt>
      <trkpt lat="47.526253" lon="2.0623229">
        <ele>156.0</ele>
        <time>2022-02-27T09:40:33Z</time>
      </trkpt>
      <trkpt lat="47.526257" lon="2.0623398">
        <ele>156.0</ele>
        <time>2022-02-27T09:40:34Z</time>
      </trkpt>
      <trkpt lat="47.52626" lon="2.0623596">
        <ele>156.0</ele>
        <time>2022-02-27T09:40:35Z</time>
      </trkpt>
      <trkpt lat="47.526257" lon="2.0623739">
        <ele>156.0</ele>
        <time>2022-02-27T09:40:36Z</time>
      </trkpt>
      <trkpt lat="47.526257" lon="2.0623906">
        <ele>156.0</ele>
        <time>2022-02-27T09:40:37Z</time>
      </trkpt>
      <trkpt lat="47.526257" lon="2.0624077">
        <ele>156.0</ele>
        <time>2022-02-27T09:40:38Z</time>
      </trkpt>
      <trkpt lat="47.526257" lon="2.0624225">
        <ele>156.0</ele>
        <time>2022-02-27T09:40:39Z</time>
      </trkpt>
      <trkpt lat="47.526257" lon="2.0624373">
        <ele>157.0</ele>
        <time>2022-02-27T09:40:40Z</time>
      </trkpt>
      <trkpt lat="47.526257" lon="2.0624373">
        <ele>157.0</ele>
        <time>2022-02-27T09:40:41Z</time>
      </trkpt>
      <trkpt lat="47.526264" lon="2.0624635">
        <ele>156.0</ele>
        <time>2022-02-27T09:40:42Z</time>
      </trkpt>
      <trkpt lat="47.526268" lon="2.0624762">
        <ele>156.0</ele>
        <time>2022-02-27T09:40:43Z</time>
      </trkpt>
      <trkpt lat="47.526268" lon="2.062491">
        <ele>156.0</ele>
        <time>2022-02-27T09:40:44Z</time>
      </trkpt>
      <trkpt lat="47.526276" lon="2.0625105">
        <ele>156.0</ele>
        <time>2022-02-27T09:40:45Z</time>
      </trkpt>
      <trkpt lat="47.52628" lon="2.0625234">
        <ele>155.0</ele>
        <time>2022-02-27T09:40:46Z</time>
      </trkpt>
      <trkpt lat="47.526276" lon="2.0625386">
        <ele>156.0</ele>
        <time>2022-02-27T09:40:47Z</time>
      </trkpt>
      <trkpt lat="47.526276" lon="2.0625525">
        <ele>156.0</ele>
        <time>2022-02-27T09:40:48Z</time>
      </trkpt>
      <trkpt lat="47.526276" lon="2.0625696">
        <ele>156.0</ele>
        <time>2022-02-27T09:40:49Z</time>
      </trkpt>
      <trkpt lat="47.526276" lon="2.0625803">
        <ele>156.0</ele>
        <time>2022-02-27T09:40:50Z</time>
      </trkpt>
      <trkpt lat="47.526276" lon="2.0625918">
        <ele>156.0</ele>
        <time>2022-02-27T09:40:51Z</time>
      </trkpt>
      <trkpt lat="47.52628" lon="2.0626056">
        <ele>157.0</ele>
        <time>2022-02-27T09:40:52Z</time>
      </trkpt>
      <trkpt lat="47.526276" lon="2.062628">
        <ele>156.0</ele>
        <time>2022-02-27T09:40:53Z</time>
      </trkpt>
      <trkpt lat="47.526276" lon="2.0626442">
        <ele>156.0</ele>
        <time>2022-02-27T09:40:54Z</time>
      </trkpt>
      <trkpt lat="47.526268" lon="2.0626607">
        <ele>156.0</ele>
        <time>2022-02-27T09:40:55Z</time>
      </trkpt>
      <trkpt lat="47.526264" lon="2.0626771">
        <ele>156.0</ele>
        <time>2022-02-27T09:40:56Z</time>
      </trkpt>
      <trkpt lat="47.52626" lon="2.0626943">
        <ele>156.0</ele>
        <time>2022-02-27T09:40:57Z</time>
      </trkpt>
      <trkpt lat="47.526264" lon="2.0627103">
        <ele>156.0</ele>
        <time>2022-02-27T09:40:58Z</time>
      </trkpt>
      <trkpt lat="47.526264" lon="2.0627277">
        <ele>156.0</ele>
        <time>2022-02-27T09:40:59Z</time>
      </trkpt>
      <trkpt lat="47.526264" lon="2.0627453">
        <ele>156.0</ele>
        <time>2022-02-27T09:41:00Z</time>
      </trkpt>
      <trkpt lat="47.526268" lon="2.0627606">
        <ele>155.0</ele>
        <time>2022-02-27T09:41:01Z</time>
      </trkpt>
      <trkpt lat="47.526268" lon="2.0627763">
        <ele>155.0</ele>
        <time>2022-02-27T09:41:02Z</time>
      </trkpt>
      <trkpt lat="47.526268" lon="2.0627875">
        <ele>155.0</ele>
        <time>2022-02-27T09:41:03Z</time>
      </trkpt>
      <trkpt lat="47.52627" lon="2.0628014">
        <ele>155.0</ele>
        <time>2022-02-27T09:41:04Z</time>
      </trkpt>
      <trkpt lat="47.526276" lon="2.0628147">
        <ele>155.0</ele>
        <time>2022-02-27T09:41:05Z</time>
      </trkpt>
      <trkpt lat="47.526283" lon="2.062829">
        <ele>156.0</ele>
        <time>2022-02-27T09:41:06Z</time>
      </trkpt>
      <trkpt lat="47.526287" lon="2.0628402">
        <ele>155.0</ele>
        <time>2022-02-27T09:41:07Z</time>
      </trkpt>
      <trkpt lat="47.52629" lon="2.0628512">
        <ele>156.0</ele>
        <time>2022-02-27T09:41:08Z</time>
      </trkpt>
      <trkpt lat="47.526295" lon="2.0628653">
        <ele>155.0</ele>
        <time>2022-02-27T09:41:09Z</time>
      </trkpt>
      <trkpt lat="47.526295" lon="2.0628827">
        <ele>155.0</ele>
        <time>2022-02-27T09:41:10Z</time>
      </trkpt>
      <trkpt lat="47.526295" lon="2.0629041">
        <ele>155.0</ele>
        <time>2022-02-27T09:41:11Z</time>
      </trkpt>
      <trkpt lat="47.526295" lon="2.062919">
        <ele>155.0</ele>
        <time>2022-02-27T09:41:12Z</time>
      </trkpt>
      <trkpt lat="47.5263" lon="2.062933">
        <ele>155.0</ele>
        <time>2022-02-27T09:41:13Z</time>
      </trkpt>
      <trkpt lat="47.526295" lon="2.0629435">
        <ele>155.0</ele>
        <time>2022-02-27T09:41:14Z</time>
      </trkpt>
      <trkpt lat="47.5263" lon="2.0629551">
        <ele>155.0</ele>
        <time>2022-02-27T09:41:15Z</time>
      </trkpt>
      <trkpt lat="47.5263" lon="2.0629551">
        <ele>155.0</ele>
        <time>2022-02-27T09:41:16Z</time>
      </trkpt>
      <trkpt lat="47.5263" lon="2.0629551">
        <ele>155.0</ele>
        <time>2022-02-27T09:41:17Z</time>
      </trkpt>
      <trkpt lat="47.526295" lon="2.0630028">
        <ele>155.0</ele>
        <time>2022-02-27T09:41:18Z</time>
      </trkpt>
      <trkpt lat="47.52629" lon="2.0630236">
        <ele>155.0</ele>
        <time>2022-02-27T09:41:19Z</time>
      </trkpt>
      <trkpt lat="47.52629" lon="2.0630405">
        <ele>155.0</ele>
        <time>2022-02-27T09:41:20Z</time>
      </trkpt>
      <trkpt lat="47.52629" lon="2.0630624">
        <ele>155.0</ele>
        <time>2022-02-27T09:41:21Z</time>
      </trkpt>
      <trkpt lat="47.52629" lon="2.063083">
        <ele>155.0</ele>
        <time>2022-02-27T09:41:22Z</time>
      </trkpt>
      <trkpt lat="47.526287" lon="2.063103">
        <ele>155.0</ele>
        <time>2022-02-27T09:41:23Z</time>
      </trkpt>
      <trkpt lat="47.526283" lon="2.0631235">
        <ele>155.0</ele>
        <time>2022-02-27T09:41:24Z</time>
      </trkpt>
      <trkpt lat="47.526287" lon="2.0631406">
        <ele>154.0</ele>
        <time>2022-02-27T09:41:25Z</time>
      </trkpt>
      <trkpt lat="47.52629" lon="2.06316">
        <ele>155.0</ele>
        <time>2022-02-27T09:41:26Z</time>
      </trkpt>
      <trkpt lat="47.526287" lon="2.0631802">
        <ele>155.0</ele>
        <time>2022-02-27T09:41:27Z</time>
      </trkpt>
      <trkpt lat="47.526283" lon="2.0631988">
        <ele>155.0</ele>
        <time>2022-02-27T09:41:28Z</time>
      </trkpt>
      <trkpt lat="47.526283" lon="2.0632157">
        <ele>155.0</ele>
        <time>2022-02-27T09:41:29Z</time>
      </trkpt>
      <trkpt lat="47.526283" lon="2.0632305">
        <ele>155.0</ele>
        <time>2022-02-27T09:41:30Z</time>
      </trkpt>
      <trkpt lat="47.526283" lon="2.0632486">
        <ele>155.0</ele>
        <time>2022-02-27T09:41:31Z</time>
      </trkpt>
      <trkpt lat="47.526283" lon="2.0632622">
        <ele>155.0</ele>
        <time>2022-02-27T09:41:32Z</time>
      </trkpt>
      <trkpt lat="47.526287" lon="2.0632765">
        <ele>155.0</ele>
        <time>2022-02-27T09:41:33Z</time>
      </trkpt>
      <trkpt lat="47.52629" lon="2.0632896">
        <ele>155.0</ele>
        <time>2022-02-27T09:41:34Z</time>
      </trkpt>
      <trkpt lat="47.52629" lon="2.0632896">
        <ele>155.0</ele>
        <time>2022-02-27T09:41:35Z</time>
      </trkpt>
      <trkpt lat="47.52629" lon="2.0632896">
        <ele>155.0</ele>
        <time>2022-02-27T09:41:36Z</time>
      </trkpt>
      <trkpt lat="47.5263" lon="2.0633297">
        <ele>156.0</ele>
        <time>2022-02-27T09:41:37Z</time>
      </trkpt>
      <trkpt lat="47.5263" lon="2.0633483">
        <ele>156.0</ele>
        <time>2022-02-27T09:41:38Z</time>
      </trkpt>
      <trkpt lat="47.5263" lon="2.0633678">
        <ele>156.0</ele>
        <time>2022-02-27T09:41:39Z</time>
      </trkpt>
      <trkpt lat="47.52629" lon="2.0633893">
        <ele>156.0</ele>
        <time>2022-02-27T09:41:40Z</time>
      </trkpt>
      <trkpt lat="47.526287" lon="2.0634081">
        <ele>156.0</ele>
        <time>2022-02-27T09:41:41Z</time>
      </trkpt>
      <trkpt lat="47.526287" lon="2.0634267">
        <ele>156.0</ele>
        <time>2022-02-27T09:41:42Z</time>
      </trkpt>
      <trkpt lat="47.526283" lon="2.063449">
        <ele>156.0</ele>
        <time>2022-02-27T09:41:43Z</time>
      </trkpt>
      <trkpt lat="47.52628" lon="2.0634637">
        <ele>157.0</ele>
        <time>2022-02-27T09:41:44Z</time>
      </trkpt>
      <trkpt lat="47.526276" lon="2.0634851">
        <ele>157.0</ele>
        <time>2022-02-27T09:41:45Z</time>
      </trkpt>
      <trkpt lat="47.526276" lon="2.063504">
        <ele>158.0</ele>
        <time>2022-02-27T09:41:46Z</time>
      </trkpt>
      <trkpt lat="47.52627" lon="2.063514">
        <ele>159.0</ele>
        <time>2022-02-27T09:41:47Z</time>
      </trkpt>
      <trkpt lat="47.52627" lon="2.0635278">
        <ele>159.0</ele>
        <time>2022-02-27T09:41:48Z</time>
      </trkpt>
      <trkpt lat="47.526276" lon="2.0635417">
        <ele>159.0</ele>
        <time>2022-02-27T09:41:49Z</time>
      </trkpt>
      <trkpt lat="47.526276" lon="2.0635574">
        <ele>159.0</ele>
        <time>2022-02-27T09:41:50Z</time>
      </trkpt>
      <trkpt lat="47.52627" lon="2.0635774">
        <ele>159.0</ele>
        <time>2022-02-27T09:41:51Z</time>
      </trkpt>
      <trkpt lat="47.526276" lon="2.0635986">
        <ele>159.0</ele>
        <time>2022-02-27T09:41:52Z</time>
      </trkpt>
      <trkpt lat="47.52628" lon="2.0636165">
        <ele>159.0</ele>
        <time>2022-02-27T09:41:53Z</time>
      </trkpt>
      <trkpt lat="47.526283" lon="2.0636373">
        <ele>159.0</ele>
        <time>2022-02-27T09:41:54Z</time>
      </trkpt>
      <trkpt lat="47.526283" lon="2.063659">
        <ele>159.0</ele>
        <time>2022-02-27T09:41:55Z</time>
      </trkpt>
      <trkpt lat="47.52628" lon="2.0636818">
        <ele>158.0</ele>
        <time>2022-02-27T09:41:56Z</time>
      </trkpt>
      <trkpt lat="47.526283" lon="2.0637012">
        <ele>158.0</ele>
        <time>2022-02-27T09:41:57Z</time>
      </trkpt>
      <trkpt lat="47.52628" lon="2.0637207">
        <ele>158.0</ele>
        <time>2022-02-27T09:41:58Z</time>
      </trkpt>
      <trkpt lat="47.526287" lon="2.0637364">
        <ele>158.0</ele>
        <time>2022-02-27T09:41:59Z</time>
      </trkpt>
      <trkpt lat="47.52629" lon="2.0637538">
        <ele>159.0</ele>
        <time>2022-02-27T09:42:00Z</time>
      </trkpt>
      <trkpt lat="47.52629" lon="2.06377">
        <ele>159.0</ele>
        <time>2022-02-27T09:42:01Z</time>
      </trkpt>
      <trkpt lat="47.526295" lon="2.0637846">
        <ele>159.0</ele>
        <time>2022-02-27T09:42:02Z</time>
      </trkpt>
      <trkpt lat="47.5263" lon="2.0638022">
        <ele>159.0</ele>
        <time>2022-02-27T09:42:03Z</time>
      </trkpt>
      <trkpt lat="47.526295" lon="2.063822">
        <ele>159.0</ele>
        <time>2022-02-27T09:42:04Z</time>
      </trkpt>
      <trkpt lat="47.526295" lon="2.0638433">
        <ele>159.0</ele>
        <time>2022-02-27T09:42:05Z</time>
      </trkpt>
      <trkpt lat="47.52629" lon="2.0638618">
        <ele>159.0</ele>
        <time>2022-02-27T09:42:06Z</time>
      </trkpt>
      <trkpt lat="47.52629" lon="2.063881">
        <ele>160.0</ele>
        <time>2022-02-27T09:42:07Z</time>
      </trkpt>
      <trkpt lat="47.52629" lon="2.0639014">
        <ele>160.0</ele>
        <time>2022-02-27T09:42:08Z</time>
      </trkpt>
      <trkpt lat="47.526287" lon="2.0639174">
        <ele>160.0</ele>
        <time>2022-02-27T09:42:09Z</time>
      </trkpt>
      <trkpt lat="47.52629" lon="2.0639307">
        <ele>160.0</ele>
        <time>2022-02-27T09:42:10Z</time>
      </trkpt>
      <trkpt lat="47.526287" lon="2.063948">
        <ele>160.0</ele>
        <time>2022-02-27T09:42:11Z</time>
      </trkpt>
      <trkpt lat="47.526283" lon="2.0639646">
        <ele>160.0</ele>
        <time>2022-02-27T09:42:12Z</time>
      </trkpt>
      <trkpt lat="47.526287" lon="2.0639834">
        <ele>160.0</ele>
        <time>2022-02-27T09:42:13Z</time>
      </trkpt>
      <trkpt lat="47.52629" lon="2.064002">
        <ele>161.0</ele>
        <time>2022-02-27T09:42:14Z</time>
      </trkpt>
      <trkpt lat="47.526295" lon="2.0640197">
        <ele>160.0</ele>
        <time>2022-02-27T09:42:15Z</time>
      </trkpt>
      <trkpt lat="47.5263" lon="2.0640397">
        <ele>160.0</ele>
        <time>2022-02-27T09:42:16Z</time>
      </trkpt>
      <trkpt lat="47.526295" lon="2.0640552">
        <ele>160.0</ele>
        <time>2022-02-27T09:42:17Z</time>
      </trkpt>
      <trkpt lat="47.526295" lon="2.0640712">
        <ele>160.0</ele>
        <time>2022-02-27T09:42:18Z</time>
      </trkpt>
      <trkpt lat="47.526287" lon="2.0640843">
        <ele>160.0</ele>
        <time>2022-02-27T09:42:19Z</time>
      </trkpt>
      <trkpt lat="47.526283" lon="2.0640972">
        <ele>160.0</ele>
        <time>2022-02-27T09:42:20Z</time>
      </trkpt>
      <trkpt lat="47.526283" lon="2.0641112">
        <ele>160.0</ele>
        <time>2022-02-27T09:42:21Z</time>
      </trkpt>
      <trkpt lat="47.52628" lon="2.0641227">
        <ele>159.0</ele>
        <time>2022-02-27T09:42:22Z</time>
      </trkpt>
      <trkpt lat="47.52628" lon="2.0641334">
        <ele>159.0</ele>
        <time>2022-02-27T09:42:23Z</time>
      </trkpt>
      <trkpt lat="47.526283" lon="2.0641494">
        <ele>159.0</ele>
        <time>2022-02-27T09:42:24Z</time>
      </trkpt>
      <trkpt lat="47.526287" lon="2.0641654">
        <ele>159.0</ele>
        <time>2022-02-27T09:42:25Z</time>
      </trkpt>
      <trkpt lat="47.52629" lon="2.0641775">
        <ele>159.0</ele>
        <time>2022-02-27T09:42:26Z</time>
      </trkpt>
      <trkpt lat="47.52629" lon="2.0641942">
        <ele>158.0</ele>
        <time>2022-02-27T09:42:27Z</time>
      </trkpt>
      <trkpt lat="47.526287" lon="2.0642128">
        <ele>158.0</ele>
        <time>2022-02-27T09:42:28Z</time>
      </trkpt>
      <trkpt lat="47.52629" lon="2.06423">
        <ele>158.0</ele>
        <time>2022-02-27T09:42:29Z</time>
      </trkpt>
      <trkpt lat="47.526287" lon="2.0642486">
        <ele>158.0</ele>
        <time>2022-02-27T09:42:30Z</time>
      </trkpt>
      <trkpt lat="47.526287" lon="2.0642612">
        <ele>158.0</ele>
        <time>2022-02-27T09:42:31Z</time>
      </trkpt>
      <trkpt lat="47.526287" lon="2.0642776">
        <ele>158.0</ele>
        <time>2022-02-27T09:42:32Z</time>
      </trkpt>
      <trkpt lat="47.52628" lon="2.0642939">
        <ele>158.0</ele>
        <time>2022-02-27T09:42:33Z</time>
      </trkpt>
      <trkpt lat="47.52628" lon="2.0643086">
        <ele>158.0</ele>
        <time>2022-02-27T09:42:34Z</time>
      </trkpt>
      <trkpt lat="47.52628" lon="2.0643227">
        <ele>158.0</ele>
        <time>2022-02-27T09:42:35Z</time>
      </trkpt>
      <trkpt lat="47.526276" lon="2.0643349">
        <ele>158.0</ele>
        <time>2022-02-27T09:42:36Z</time>
      </trkpt>
      <trkpt lat="47.526283" lon="2.0643523">
        <ele>158.0</ele>
        <time>2022-02-27T09:42:37Z</time>
      </trkpt>
      <trkpt lat="47.526283" lon="2.064367">
        <ele>159.0</ele>
        <time>2022-02-27T09:42:38Z</time>
      </trkpt>
      <trkpt lat="47.526283" lon="2.0643833">
        <ele>159.0</ele>
        <time>2022-02-27T09:42:39Z</time>
      </trkpt>
      <trkpt lat="47.526287" lon="2.0644023">
        <ele>159.0</ele>
        <time>2022-02-27T09:42:40Z</time>
      </trkpt>
      <trkpt lat="47.526287" lon="2.0644202">
        <ele>159.0</ele>
        <time>2022-02-27T09:42:41Z</time>
      </trkpt>
      <trkpt lat="47.526287" lon="2.0644352">
        <ele>159.0</ele>
        <time>2022-02-27T09:42:42Z</time>
      </trkpt>
      <trkpt lat="47.526287" lon="2.0644503">
        <ele>160.0</ele>
        <time>2022-02-27T09:42:43Z</time>
      </trkpt>
      <trkpt lat="47.526287" lon="2.0644503">
        <ele>160.0</ele>
        <time>2022-02-27T09:42:44Z</time>
      </trkpt>
      <trkpt lat="47.526287" lon="2.0644503">
        <ele>160.0</ele>
        <time>2022-02-27T09:42:45Z</time>
      </trkpt>
      <trkpt lat="47.52629" lon="2.0644946">
        <ele>160.0</ele>
        <time>2022-02-27T09:42:46Z</time>
      </trkpt>
      <trkpt lat="47.52629" lon="2.0645125">
        <ele>161.0</ele>
        <time>2022-02-27T09:42:47Z</time>
      </trkpt>
      <trkpt lat="47.526295" lon="2.0645292">
        <ele>161.0</ele>
        <time>2022-02-27T09:42:48Z</time>
      </trkpt>
      <trkpt lat="47.5263" lon="2.0645444">
        <ele>161.0</ele>
        <time>2022-02-27T09:42:49Z</time>
      </trkpt>
      <trkpt lat="47.5263" lon="2.0645618">
        <ele>161.0</ele>
        <time>2022-02-27T09:42:50Z</time>
      </trkpt>
      <trkpt lat="47.5263" lon="2.0645792">
        <ele>161.0</ele>
        <time>2022-02-27T09:42:51Z</time>
      </trkpt>
      <trkpt lat="47.526295" lon="2.0645957">
        <ele>160.0</ele>
        <time>2022-02-27T09:42:52Z</time>
      </trkpt>
      <trkpt lat="47.526295" lon="2.0646152">
        <ele>160.0</ele>
        <time>2022-02-27T09:42:53Z</time>
      </trkpt>
      <trkpt lat="47.526295" lon="2.0646372">
        <ele>160.0</ele>
        <time>2022-02-27T09:42:54Z</time>
      </trkpt>
      <trkpt lat="47.5263" lon="2.0646546">
        <ele>160.0</ele>
        <time>2022-02-27T09:42:55Z</time>
      </trkpt>
      <trkpt lat="47.526295" lon="2.0646722">
        <ele>161.0</ele>
        <time>2022-02-27T09:42:56Z</time>
      </trkpt>
      <trkpt lat="47.52629" lon="2.0646899">
        <ele>161.0</ele>
        <time>2022-02-27T09:42:57Z</time>
      </trkpt>
      <trkpt lat="47.526287" lon="2.0647058">
        <ele>162.0</ele>
        <time>2022-02-27T09:42:58Z</time>
      </trkpt>
      <trkpt lat="47.526283" lon="2.0647235">
        <ele>162.0</ele>
        <time>2022-02-27T09:42:59Z</time>
      </trkpt>
      <trkpt lat="47.526283" lon="2.0647402">
        <ele>162.0</ele>
        <time>2022-02-27T09:43:00Z</time>
      </trkpt>
      <trkpt lat="47.526283" lon="2.0647583">
        <ele>162.0</ele>
        <time>2022-02-27T09:43:01Z</time>
      </trkpt>
      <trkpt lat="47.526283" lon="2.0647743">
        <ele>162.0</ele>
        <time>2022-02-27T09:43:02Z</time>
      </trkpt>
      <trkpt lat="47.52628" lon="2.0647905">
        <ele>162.0</ele>
        <time>2022-02-27T09:43:03Z</time>
      </trkpt>
      <trkpt lat="47.526276" lon="2.0648053">
        <ele>162.0</ele>
        <time>2022-02-27T09:43:04Z</time>
      </trkpt>
      <trkpt lat="47.526276" lon="2.064825">
        <ele>162.0</ele>
        <time>2022-02-27T09:43:05Z</time>
      </trkpt>
      <trkpt lat="47.52627" lon="2.0648417">
        <ele>162.0</ele>
        <time>2022-02-27T09:43:06Z</time>
      </trkpt>
      <trkpt lat="47.52627" lon="2.064859">
        <ele>162.0</ele>
        <time>2022-02-27T09:43:07Z</time>
      </trkpt>
      <trkpt lat="47.52627" lon="2.0648737">
        <ele>162.0</ele>
        <time>2022-02-27T09:43:08Z</time>
      </trkpt>
      <trkpt lat="47.52627" lon="2.0648887">
        <ele>162.0</ele>
        <time>2022-02-27T09:43:09Z</time>
      </trkpt>
      <trkpt lat="47.526264" lon="2.064904">
        <ele>162.0</ele>
        <time>2022-02-27T09:43:10Z</time>
      </trkpt>
      <trkpt lat="47.526257" lon="2.06492">
        <ele>162.0</ele>
        <time>2022-02-27T09:43:11Z</time>
      </trkpt>
      <trkpt lat="47.52625" lon="2.0649316">
        <ele>162.0</ele>
        <time>2022-02-27T09:43:12Z</time>
      </trkpt>
      <trkpt lat="47.52624" lon="2.0649452">
        <ele>162.0</ele>
        <time>2022-02-27T09:43:13Z</time>
      </trkpt>
      <trkpt lat="47.526234" lon="2.064956">
        <ele>163.0</ele>
        <time>2022-02-27T09:43:14Z</time>
      </trkpt>
      <trkpt lat="47.526222" lon="2.064967">
        <ele>163.0</ele>
        <time>2022-02-27T09:43:15Z</time>
      </trkpt>
      <trkpt lat="47.52621" lon="2.0649734">
        <ele>164.0</ele>
        <time>2022-02-27T09:43:16Z</time>
      </trkpt>
      <trkpt lat="47.526196" lon="2.064981">
        <ele>164.0</ele>
        <time>2022-02-27T09:43:17Z</time>
      </trkpt>
      <trkpt lat="47.526188" lon="2.0649881">
        <ele>165.0</ele>
        <time>2022-02-27T09:43:18Z</time>
      </trkpt>
      <trkpt lat="47.526176" lon="2.0649934">
        <ele>165.0</ele>
        <time>2022-02-27T09:43:19Z</time>
      </trkpt>
      <trkpt lat="47.526165" lon="2.0649922">
        <ele>165.0</ele>
        <time>2022-02-27T09:43:20Z</time>
      </trkpt>
      <trkpt lat="47.526157" lon="2.0649917">
        <ele>165.0</ele>
        <time>2022-02-27T09:43:21Z</time>
      </trkpt>
      <trkpt lat="47.526146" lon="2.0649934">
        <ele>165.0</ele>
        <time>2022-02-27T09:43:22Z</time>
      </trkpt>
      <trkpt lat="47.526134" lon="2.0649915">
        <ele>165.0</ele>
        <time>2022-02-27T09:43:23Z</time>
      </trkpt>
      <trkpt lat="47.526123" lon="2.064992">
        <ele>165.0</ele>
        <time>2022-02-27T09:43:24Z</time>
      </trkpt>
      <trkpt lat="47.52611" lon="2.0650005">
        <ele>164.0</ele>
        <time>2022-02-27T09:43:25Z</time>
      </trkpt>
      <trkpt lat="47.526096" lon="2.0650055">
        <ele>164.0</ele>
        <time>2022-02-27T09:43:26Z</time>
      </trkpt>
      <trkpt lat="47.526085" lon="2.0650144">
        <ele>164.0</ele>
        <time>2022-02-27T09:43:27Z</time>
      </trkpt>
      <trkpt lat="47.526073" lon="2.065019">
        <ele>164.0</ele>
        <time>2022-02-27T09:43:28Z</time>
      </trkpt>
      <trkpt lat="47.526062" lon="2.065018">
        <ele>164.0</ele>
        <time>2022-02-27T09:43:29Z</time>
      </trkpt>
      <trkpt lat="47.52605" lon="2.065017">
        <ele>164.0</ele>
        <time>2022-02-27T09:43:30Z</time>
      </trkpt>
      <trkpt lat="47.52604" lon="2.0650194">
        <ele>164.0</ele>
        <time>2022-02-27T09:43:31Z</time>
      </trkpt>
      <trkpt lat="47.52603" lon="2.0650225">
        <ele>164.0</ele>
        <time>2022-02-27T09:43:32Z</time>
      </trkpt>
      <trkpt lat="47.52602" lon="2.0650246">
        <ele>164.0</ele>
        <time>2022-02-27T09:43:33Z</time>
      </trkpt>
      <trkpt lat="47.52601" lon="2.0650234">
        <ele>164.0</ele>
        <time>2022-02-27T09:43:34Z</time>
      </trkpt>
      <trkpt lat="47.525997" lon="2.0650234">
        <ele>164.0</ele>
        <time>2022-02-27T09:43:35Z</time>
      </trkpt>
      <trkpt lat="47.525986" lon="2.0650206">
        <ele>164.0</ele>
        <time>2022-02-27T09:43:36Z</time>
      </trkpt>
      <trkpt lat="47.525974" lon="2.065028">
        <ele>164.0</ele>
        <time>2022-02-27T09:43:37Z</time>
      </trkpt>
      <trkpt lat="47.525967" lon="2.0650268">
        <ele>164.0</ele>
        <time>2022-02-27T09:43:38Z</time>
      </trkpt>
      <trkpt lat="47.525955" lon="2.0650294">
        <ele>164.0</ele>
        <time>2022-02-27T09:43:39Z</time>
      </trkpt>
      <trkpt lat="47.525955" lon="2.0650294">
        <ele>164.0</ele>
        <time>2022-02-27T09:43:40Z</time>
      </trkpt>
      <trkpt lat="47.525932" lon="2.0650265">
        <ele>163.0</ele>
        <time>2022-02-27T09:43:41Z</time>
      </trkpt>
      <trkpt lat="47.52592" lon="2.0650253">
        <ele>163.0</ele>
        <time>2022-02-27T09:43:42Z</time>
      </trkpt>
      <trkpt lat="47.525913" lon="2.065031">
        <ele>163.0</ele>
        <time>2022-02-27T09:43:43Z</time>
      </trkpt>
      <trkpt lat="47.525906" lon="2.0650332">
        <ele>163.0</ele>
        <time>2022-02-27T09:43:44Z</time>
      </trkpt>
      <trkpt lat="47.525894" lon="2.0650342">
        <ele>164.0</ele>
        <time>2022-02-27T09:43:45Z</time>
      </trkpt>
      <trkpt lat="47.52588" lon="2.065036">
        <ele>164.0</ele>
        <time>2022-02-27T09:43:46Z</time>
      </trkpt>
      <trkpt lat="47.525867" lon="2.0650403">
        <ele>164.0</ele>
        <time>2022-02-27T09:43:47Z</time>
      </trkpt>
      <trkpt lat="47.52586" lon="2.065044">
        <ele>164.0</ele>
        <time>2022-02-27T09:43:48Z</time>
      </trkpt>
      <trkpt lat="47.52585" lon="2.0650482">
        <ele>164.0</ele>
        <time>2022-02-27T09:43:49Z</time>
      </trkpt>
      <trkpt lat="47.525837" lon="2.0650475">
        <ele>164.0</ele>
        <time>2022-02-27T09:43:50Z</time>
      </trkpt>
      <trkpt lat="47.52582" lon="2.0650477">
        <ele>164.0</ele>
        <time>2022-02-27T09:43:51Z</time>
      </trkpt>
      <trkpt lat="47.525806" lon="2.0650494">
        <ele>164.0</ele>
        <time>2022-02-27T09:43:52Z</time>
      </trkpt>
      <trkpt lat="47.52579" lon="2.0650506">
        <ele>164.0</ele>
        <time>2022-02-27T09:43:53Z</time>
      </trkpt>
      <trkpt lat="47.52578" lon="2.065053">
        <ele>164.0</ele>
        <time>2022-02-27T09:43:54Z</time>
      </trkpt>
      <trkpt lat="47.525776" lon="2.0650532">
        <ele>164.0</ele>
        <time>2022-02-27T09:43:55Z</time>
      </trkpt>
      <trkpt lat="47.52577" lon="2.0650516">
        <ele>165.0</ele>
        <time>2022-02-27T09:43:56Z</time>
      </trkpt>
      <trkpt lat="47.525757" lon="2.0650465">
        <ele>165.0</ele>
        <time>2022-02-27T09:43:57Z</time>
      </trkpt>
      <trkpt lat="47.52574" lon="2.06504">
        <ele>165.0</ele>
        <time>2022-02-27T09:43:58Z</time>
      </trkpt>
      <trkpt lat="47.525726" lon="2.065038">
        <ele>165.0</ele>
        <time>2022-02-27T09:43:59Z</time>
      </trkpt>
      <trkpt lat="47.52571" lon="2.0650382">
        <ele>165.0</ele>
        <time>2022-02-27T09:44:00Z</time>
      </trkpt>
      <trkpt lat="47.525696" lon="2.0650399">
        <ele>165.0</ele>
        <time>2022-02-27T09:44:01Z</time>
      </trkpt>
      <trkpt lat="47.52568" lon="2.0650418">
        <ele>165.0</ele>
        <time>2022-02-27T09:44:02Z</time>
      </trkpt>
      <trkpt lat="47.52567" lon="2.0650423">
        <ele>165.0</ele>
        <time>2022-02-27T09:44:03Z</time>
      </trkpt>
      <trkpt lat="47.525654" lon="2.0650454">
        <ele>165.0</ele>
        <time>2022-02-27T09:44:04Z</time>
      </trkpt>
      <trkpt lat="47.52564" lon="2.065044">
        <ele>166.0</ele>
        <time>2022-02-27T09:44:05Z</time>
      </trkpt>
      <trkpt lat="47.525627" lon="2.065038">
        <ele>166.0</ele>
        <time>2022-02-27T09:44:06Z</time>
      </trkpt>
      <trkpt lat="47.52562" lon="2.0650368">
        <ele>166.0</ele>
        <time>2022-02-27T09:44:07Z</time>
      </trkpt>
      <trkpt lat="47.525608" lon="2.0650375">
        <ele>165.0</ele>
        <time>2022-02-27T09:44:08Z</time>
      </trkpt>
      <trkpt lat="47.525593" lon="2.0650373">
        <ele>165.0</ele>
        <time>2022-02-27T09:44:09Z</time>
      </trkpt>
      <trkpt lat="47.52558" lon="2.065041">
        <ele>165.0</ele>
        <time>2022-02-27T09:44:10Z</time>
      </trkpt>
      <trkpt lat="47.52557" lon="2.06505">
        <ele>165.0</ele>
        <time>2022-02-27T09:44:11Z</time>
      </trkpt>
      <trkpt lat="47.525562" lon="2.0650516">
        <ele>164.0</ele>
        <time>2022-02-27T09:44:12Z</time>
      </trkpt>
      <trkpt lat="47.525547" lon="2.0650492">
        <ele>165.0</ele>
        <time>2022-02-27T09:44:13Z</time>
      </trkpt>
      <trkpt lat="47.52553" lon="2.0650516">
        <ele>165.0</ele>
        <time>2022-02-27T09:44:14Z</time>
      </trkpt>
      <trkpt lat="47.52552" lon="2.0650501">
        <ele>164.0</ele>
        <time>2022-02-27T09:44:15Z</time>
      </trkpt>
      <trkpt lat="47.52551" lon="2.0650568">
        <ele>163.0</ele>
        <time>2022-02-27T09:44:16Z</time>
      </trkpt>
      <trkpt lat="47.525497" lon="2.0650558">
        <ele>163.0</ele>
        <time>2022-02-27T09:44:17Z</time>
      </trkpt>
      <trkpt lat="47.525486" lon="2.065059">
        <ele>163.0</ele>
        <time>2022-02-27T09:44:18Z</time>
      </trkpt>
      <trkpt lat="47.525475" lon="2.0650592">
        <ele>163.0</ele>
        <time>2022-02-27T09:44:19Z</time>
      </trkpt>
      <trkpt lat="47.525467" lon="2.065059">
        <ele>163.0</ele>
        <time>2022-02-27T09:44:20Z</time>
      </trkpt>
      <trkpt lat="47.525455" lon="2.065058">
        <ele>163.0</ele>
        <time>2022-02-27T09:44:21Z</time>
      </trkpt>
      <trkpt lat="47.525444" lon="2.0650585">
        <ele>163.0</ele>
        <time>2022-02-27T09:44:22Z</time>
      </trkpt>
      <trkpt lat="47.52543" lon="2.0650601">
        <ele>163.0</ele>
        <time>2022-02-27T09:44:23Z</time>
      </trkpt>
      <trkpt lat="47.52542" lon="2.0650604">
        <ele>163.0</ele>
        <time>2022-02-27T09:44:24Z</time>
      </trkpt>
      <trkpt lat="47.52541" lon="2.0650632">
        <ele>163.0</ele>
        <time>2022-02-27T09:44:25Z</time>
      </trkpt>
      <trkpt lat="47.525394" lon="2.0650642">
        <ele>162.0</ele>
        <time>2022-02-27T09:44:26Z</time>
      </trkpt>
      <trkpt lat="47.525383" lon="2.065063">
        <ele>162.0</ele>
        <time>2022-02-27T09:44:27Z</time>
      </trkpt>
      <trkpt lat="47.52537" lon="2.0650606">
        <ele>162.0</ele>
        <time>2022-02-27T09:44:28Z</time>
      </trkpt>
      <trkpt lat="47.52536" lon="2.065062">
        <ele>162.0</ele>
        <time>2022-02-27T09:44:29Z</time>
      </trkpt>
      <trkpt lat="47.525345" lon="2.06506">
        <ele>162.0</ele>
        <time>2022-02-27T09:44:30Z</time>
      </trkpt>
      <trkpt lat="47.525333" lon="2.06506">
        <ele>162.0</ele>
        <time>2022-02-27T09:44:31Z</time>
      </trkpt>
      <trkpt lat="47.525322" lon="2.0650601">
        <ele>161.0</ele>
        <time>2022-02-27T09:44:32Z</time>
      </trkpt>
      <trkpt lat="47.52531" lon="2.0650592">
        <ele>161.0</ele>
        <time>2022-02-27T09:44:33Z</time>
      </trkpt>
      <trkpt lat="47.525295" lon="2.0650618">
        <ele>162.0</ele>
        <time>2022-02-27T09:44:34Z</time>
      </trkpt>
      <trkpt lat="47.525284" lon="2.0650651">
        <ele>162.0</ele>
        <time>2022-02-27T09:44:35Z</time>
      </trkpt>
      <trkpt lat="47.525276" lon="2.0650644">
        <ele>161.0</ele>
        <time>2022-02-27T09:44:36Z</time>
      </trkpt>
      <trkpt lat="47.525265" lon="2.0650654">
        <ele>161.0</ele>
        <time>2022-02-27T09:44:37Z</time>
      </trkpt>
      <trkpt lat="47.52525" lon="2.0650663">
        <ele>161.0</ele>
        <time>2022-02-27T09:44:38Z</time>
      </trkpt>
      <trkpt lat="47.525238" lon="2.065071">
        <ele>161.0</ele>
        <time>2022-02-27T09:44:39Z</time>
      </trkpt>
      <trkpt lat="47.525223" lon="2.0650778">
        <ele>162.0</ele>
        <time>2022-02-27T09:44:40Z</time>
      </trkpt>
      <trkpt lat="47.52521" lon="2.0650845">
        <ele>162.0</ele>
        <time>2022-02-27T09:44:41Z</time>
      </trkpt>
      <trkpt lat="47.5252" lon="2.0650878">
        <ele>162.0</ele>
        <time>2022-02-27T09:44:42Z</time>
      </trkpt>
      <trkpt lat="47.52519" lon="2.0650926">
        <ele>162.0</ele>
        <time>2022-02-27T09:44:43Z</time>
      </trkpt>
      <trkpt lat="47.52518" lon="2.0650938">
        <ele>163.0</ele>
        <time>2022-02-27T09:44:44Z</time>
      </trkpt>
      <trkpt lat="47.52517" lon="2.065095">
        <ele>163.0</ele>
        <time>2022-02-27T09:44:45Z</time>
      </trkpt>
      <trkpt lat="47.52516" lon="2.0650914">
        <ele>163.0</ele>
        <time>2022-02-27T09:44:46Z</time>
      </trkpt>
      <trkpt lat="47.52515" lon="2.0650873">
        <ele>163.0</ele>
        <time>2022-02-27T09:44:47Z</time>
      </trkpt>
      <trkpt lat="47.52513" lon="2.0650854">
        <ele>163.0</ele>
        <time>2022-02-27T09:44:48Z</time>
      </trkpt>
      <trkpt lat="47.52512" lon="2.0650847">
        <ele>163.0</ele>
        <time>2022-02-27T09:44:49Z</time>
      </trkpt>
      <trkpt lat="47.52511" lon="2.0650847">
        <ele>163.0</ele>
        <time>2022-02-27T09:44:50Z</time>
      </trkpt>
      <trkpt lat="47.525097" lon="2.0650835">
        <ele>162.0</ele>
        <time>2022-02-27T09:44:51Z</time>
      </trkpt>
      <trkpt lat="47.52508" lon="2.065081">
        <ele>162.0</ele>
        <time>2022-02-27T09:44:52Z</time>
      </trkpt>
      <trkpt lat="47.52507" lon="2.0650804">
        <ele>161.0</ele>
        <time>2022-02-27T09:44:53Z</time>
      </trkpt>
      <trkpt lat="47.525055" lon="2.0650783">
        <ele>161.0</ele>
        <time>2022-02-27T09:44:54Z</time>
      </trkpt>
      <trkpt lat="47.525047" lon="2.0650806">
        <ele>160.0</ele>
        <time>2022-02-27T09:44:55Z</time>
      </trkpt>
      <trkpt lat="47.525036" lon="2.0650773">
        <ele>160.0</ele>
        <time>2022-02-27T09:44:56Z</time>
      </trkpt>
      <trkpt lat="47.52502" lon="2.0650792">
        <ele>160.0</ele>
        <time>2022-02-27T09:44:57Z</time>
      </trkpt>
      <trkpt lat="47.52501" lon="2.065078">
        <ele>160.0</ele>
        <time>2022-02-27T09:44:58Z</time>
      </trkpt>
      <trkpt lat="47.525" lon="2.0650764">
        <ele>160.0</ele>
        <time>2022-02-27T09:44:59Z</time>
      </trkpt>
      <trkpt lat="47.52499" lon="2.0650787">
        <ele>161.0</ele>
        <time>2022-02-27T09:45:00Z</time>
      </trkpt>
      <trkpt lat="47.52498" lon="2.0650795">
        <ele>161.0</ele>
        <time>2022-02-27T09:45:01Z</time>
      </trkpt>
      <trkpt lat="47.524963" lon="2.0650811">
        <ele>162.0</ele>
        <time>2022-02-27T09:45:02Z</time>
      </trkpt>
      <trkpt lat="47.52495" lon="2.065082">
        <ele>162.0</ele>
        <time>2022-02-27T09:45:03Z</time>
      </trkpt>
      <trkpt lat="47.524937" lon="2.065081">
        <ele>162.0</ele>
        <time>2022-02-27T09:45:04Z</time>
      </trkpt>
      <trkpt lat="47.524925" lon="2.0650823">
        <ele>162.0</ele>
        <time>2022-02-27T09:45:05Z</time>
      </trkpt>
      <trkpt lat="47.524918" lon="2.0650823">
        <ele>162.0</ele>
        <time>2022-02-27T09:45:06Z</time>
      </trkpt>
      <trkpt lat="47.524914" lon="2.0650797">
        <ele>163.0</ele>
        <time>2022-02-27T09:45:07Z</time>
      </trkpt>
      <trkpt lat="47.524902" lon="2.0650778">
        <ele>163.0</ele>
        <time>2022-02-27T09:45:08Z</time>
      </trkpt>
      <trkpt lat="47.52489" lon="2.065077">
        <ele>163.0</ele>
        <time>2022-02-27T09:45:09Z</time>
      </trkpt>
      <trkpt lat="47.524876" lon="2.065073">
        <ele>163.0</ele>
        <time>2022-02-27T09:45:10Z</time>
      </trkpt>
      <trkpt lat="47.524864" lon="2.0650718">
        <ele>162.0</ele>
        <time>2022-02-27T09:45:11Z</time>
      </trkpt>
      <trkpt lat="47.524845" lon="2.0650713">
        <ele>162.0</ele>
        <time>2022-02-27T09:45:12Z</time>
      </trkpt>
      <trkpt lat="47.524834" lon="2.0650728">
        <ele>162.0</ele>
        <time>2022-02-27T09:45:13Z</time>
      </trkpt>
      <trkpt lat="47.524822" lon="2.0650826">
        <ele>162.0</ele>
        <time>2022-02-27T09:45:14Z</time>
      </trkpt>
      <trkpt lat="47.524807" lon="2.065093">
        <ele>162.0</ele>
        <time>2022-02-27T09:45:15Z</time>
      </trkpt>
      <trkpt lat="47.5248" lon="2.0650992">
        <ele>162.0</ele>
        <time>2022-02-27T09:45:16Z</time>
      </trkpt>
      <trkpt lat="47.524788" lon="2.0651026">
        <ele>162.0</ele>
        <time>2022-02-27T09:45:17Z</time>
      </trkpt>
      <trkpt lat="47.52478" lon="2.0651073">
        <ele>162.0</ele>
        <time>2022-02-27T09:45:18Z</time>
      </trkpt>
      <trkpt lat="47.52477" lon="2.065113">
        <ele>162.0</ele>
        <time>2022-02-27T09:45:19Z</time>
      </trkpt>
      <trkpt lat="47.52476" lon="2.0651186">
        <ele>162.0</ele>
        <time>2022-02-27T09:45:20Z</time>
      </trkpt>
      <trkpt lat="47.524754" lon="2.065127">
        <ele>161.0</ele>
        <time>2022-02-27T09:45:21Z</time>
      </trkpt>
      <trkpt lat="47.52475" lon="2.06513">
        <ele>161.0</ele>
        <time>2022-02-27T09:45:22Z</time>
      </trkpt>
      <trkpt lat="47.524742" lon="2.065138">
        <ele>162.0</ele>
        <time>2022-02-27T09:45:23Z</time>
      </trkpt>
      <trkpt lat="47.52473" lon="2.065143">
        <ele>161.0</ele>
        <time>2022-02-27T09:45:24Z</time>
      </trkpt>
      <trkpt lat="47.524727" lon="2.0651462">
        <ele>161.0</ele>
        <time>2022-02-27T09:45:25Z</time>
      </trkpt>
      <trkpt lat="47.524723" lon="2.065149">
        <ele>161.0</ele>
        <time>2022-02-27T09:45:26Z</time>
      </trkpt>
      <trkpt lat="47.524715" lon="2.0651548">
        <ele>161.0</ele>
        <time>2022-02-27T09:45:27Z</time>
      </trkpt>
      <trkpt lat="47.524715" lon="2.0651548">
        <ele>161.0</ele>
        <time>2022-02-27T09:45:28Z</time>
      </trkpt>
      <trkpt lat="47.524715" lon="2.0651548">
        <ele>161.0</ele>
        <time>2022-02-27T09:45:29Z</time>
      </trkpt>
      <trkpt lat="47.524696" lon="2.0651803">
        <ele>160.0</ele>
        <time>2022-02-27T09:45:30Z</time>
      </trkpt>
      <trkpt lat="47.524685" lon="2.065186">
        <ele>160.0</ele>
        <time>2022-02-27T09:45:31Z</time>
      </trkpt>
      <trkpt lat="47.524677" lon="2.0651915">
        <ele>160.0</ele>
        <time>2022-02-27T09:45:32Z</time>
      </trkpt>
      <trkpt lat="47.524666" lon="2.0651982">
        <ele>160.0</ele>
        <time>2022-02-27T09:45:33Z</time>
      </trkpt>
      <trkpt lat="47.52466" lon="2.0652084">
        <ele>161.0</ele>
        <time>2022-02-27T09:45:34Z</time>
      </trkpt>
      <trkpt lat="47.524647" lon="2.0652182">
        <ele>161.0</ele>
        <time>2022-02-27T09:45:35Z</time>
      </trkpt>
      <trkpt lat="47.524635" lon="2.065227">
        <ele>161.0</ele>
        <time>2022-02-27T09:45:36Z</time>
      </trkpt>
      <trkpt lat="47.524628" lon="2.0652368">
        <ele>160.0</ele>
        <time>2022-02-27T09:45:37Z</time>
      </trkpt>
      <trkpt lat="47.524616" lon="2.0652444">
        <ele>160.0</ele>
        <time>2022-02-27T09:45:38Z</time>
      </trkpt>
      <trkpt lat="47.52461" lon="2.0652492">
        <ele>160.0</ele>
        <time>2022-02-27T09:45:39Z</time>
      </trkpt>
      <trkpt lat="47.524593" lon="2.065253">
        <ele>160.0</ele>
        <time>2022-02-27T09:45:40Z</time>
      </trkpt>
      <trkpt lat="47.52458" lon="2.0652573">
        <ele>160.0</ele>
        <time>2022-02-27T09:45:41Z</time>
      </trkpt>
      <trkpt lat="47.524582" lon="2.0652568">
        <ele>160.0</ele>
        <time>2022-02-27T09:45:42Z</time>
      </trkpt>
      <trkpt lat="47.524574" lon="2.0652616">
        <ele>160.0</ele>
        <time>2022-02-27T09:45:43Z</time>
      </trkpt>
      <trkpt lat="47.524567" lon="2.0652728">
        <ele>160.0</ele>
        <time>2022-02-27T09:45:44Z</time>
      </trkpt>
      <trkpt lat="47.52456" lon="2.065283">
        <ele>159.0</ele>
        <time>2022-02-27T09:45:45Z</time>
      </trkpt>
      <trkpt lat="47.524548" lon="2.0652874">
        <ele>159.0</ele>
        <time>2022-02-27T09:45:46Z</time>
      </trkpt>
      <trkpt lat="47.524536" lon="2.0652995">
        <ele>158.0</ele>
        <time>2022-02-27T09:45:47Z</time>
      </trkpt>
      <trkpt lat="47.52452" lon="2.0653098">
        <ele>158.0</ele>
        <time>2022-02-27T09:45:48Z</time>
      </trkpt>
      <trkpt lat="47.52451" lon="2.0653167">
        <ele>157.0</ele>
        <time>2022-02-27T09:45:49Z</time>
      </trkpt>
      <trkpt lat="47.524494" lon="2.0653265">
        <ele>157.0</ele>
        <time>2022-02-27T09:45:50Z</time>
      </trkpt>
      <trkpt lat="47.52448" lon="2.0653343">
        <ele>157.0</ele>
        <time>2022-02-27T09:45:51Z</time>
      </trkpt>
      <trkpt lat="47.524464" lon="2.065341">
        <ele>156.0</ele>
        <time>2022-02-27T09:45:52Z</time>
      </trkpt>
      <trkpt lat="47.52445" lon="2.0653484">
        <ele>156.0</ele>
        <time>2022-02-27T09:45:53Z</time>
      </trkpt>
      <trkpt lat="47.52443" lon="2.0653527">
        <ele>156.0</ele>
        <time>2022-02-27T09:45:54Z</time>
      </trkpt>
      <trkpt lat="47.524414" lon="2.0653622">
        <ele>156.0</ele>
        <time>2022-02-27T09:45:55Z</time>
      </trkpt>
      <trkpt lat="47.524403" lon="2.0653687">
        <ele>156.0</ele>
        <time>2022-02-27T09:45:56Z</time>
      </trkpt>
      <trkpt lat="47.524384" lon="2.0653734">
        <ele>156.0</ele>
        <time>2022-02-27T09:45:57Z</time>
      </trkpt>
      <trkpt lat="47.52437" lon="2.0653772">
        <ele>155.0</ele>
        <time>2022-02-27T09:45:58Z</time>
      </trkpt>
      <trkpt lat="47.524357" lon="2.0653808">
        <ele>155.0</ele>
        <time>2022-02-27T09:45:59Z</time>
      </trkpt>
      <trkpt lat="47.524345" lon="2.0653822">
        <ele>156.0</ele>
        <time>2022-02-27T09:46:00Z</time>
      </trkpt>
      <trkpt lat="47.524334" lon="2.0653849">
        <ele>155.0</ele>
        <time>2022-02-27T09:46:01Z</time>
      </trkpt>
      <trkpt lat="47.524323" lon="2.0653944">
        <ele>155.0</ele>
        <time>2022-02-27T09:46:02Z</time>
      </trkpt>
      <trkpt lat="47.524315" lon="2.0654044">
        <ele>155.0</ele>
        <time>2022-02-27T09:46:03Z</time>
      </trkpt>
      <trkpt lat="47.524303" lon="2.0654144">
        <ele>156.0</ele>
        <time>2022-02-27T09:46:04Z</time>
      </trkpt>
      <trkpt lat="47.524296" lon="2.065427">
        <ele>156.0</ele>
        <time>2022-02-27T09:46:05Z</time>
      </trkpt>
      <trkpt lat="47.52429" lon="2.0654333">
        <ele>156.0</ele>
        <time>2022-02-27T09:46:06Z</time>
      </trkpt>
      <trkpt lat="47.524284" lon="2.065448">
        <ele>156.0</ele>
        <time>2022-02-27T09:46:07Z</time>
      </trkpt>
      <trkpt lat="47.52428" lon="2.0654597">
        <ele>156.0</ele>
        <time>2022-02-27T09:46:08Z</time>
      </trkpt>
      <trkpt lat="47.52428" lon="2.0654707">
        <ele>156.0</ele>
        <time>2022-02-27T09:46:09Z</time>
      </trkpt>
      <trkpt lat="47.524284" lon="2.0654829">
        <ele>156.0</ele>
        <time>2022-02-27T09:46:10Z</time>
      </trkpt>
      <trkpt lat="47.524284" lon="2.065496">
        <ele>156.0</ele>
        <time>2022-02-27T09:46:11Z</time>
      </trkpt>
      <trkpt lat="47.52429" lon="2.0655067">
        <ele>156.0</ele>
        <time>2022-02-27T09:46:12Z</time>
      </trkpt>
      <trkpt lat="47.52429" lon="2.0655067">
        <ele>156.0</ele>
        <time>2022-02-27T09:46:13Z</time>
      </trkpt>
      <trkpt lat="47.52429" lon="2.0655296">
        <ele>155.0</ele>
        <time>2022-02-27T09:46:14Z</time>
      </trkpt>
      <trkpt lat="47.52429" lon="2.0655391">
        <ele>155.0</ele>
        <time>2022-02-27T09:46:15Z</time>
      </trkpt>
      <trkpt lat="47.524292" lon="2.0655537">
        <ele>155.0</ele>
        <time>2022-02-27T09:46:16Z</time>
      </trkpt>
      <trkpt lat="47.524292" lon="2.065567">
        <ele>155.0</ele>
        <time>2022-02-27T09:46:17Z</time>
      </trkpt>
      <trkpt lat="47.524292" lon="2.065583">
        <ele>155.0</ele>
        <time>2022-02-27T09:46:18Z</time>
      </trkpt>
      <trkpt lat="47.524296" lon="2.0656013">
        <ele>155.0</ele>
        <time>2022-02-27T09:46:19Z</time>
      </trkpt>
      <trkpt lat="47.5243" lon="2.0656204">
        <ele>155.0</ele>
        <time>2022-02-27T09:46:20Z</time>
      </trkpt>
      <trkpt lat="47.5243" lon="2.0656354">
        <ele>155.0</ele>
        <time>2022-02-27T09:46:21Z</time>
      </trkpt>
      <trkpt lat="47.5243" lon="2.0656538">
        <ele>154.0</ele>
        <time>2022-02-27T09:46:22Z</time>
      </trkpt>
      <trkpt lat="47.524296" lon="2.0656688">
        <ele>154.0</ele>
        <time>2022-02-27T09:46:23Z</time>
      </trkpt>
      <trkpt lat="47.524296" lon="2.0656874">
        <ele>154.0</ele>
        <time>2022-02-27T09:46:24Z</time>
      </trkpt>
      <trkpt lat="47.5243" lon="2.0657055">
        <ele>154.0</ele>
        <time>2022-02-27T09:46:25Z</time>
      </trkpt>
      <trkpt lat="47.524303" lon="2.0657237">
        <ele>153.0</ele>
        <time>2022-02-27T09:46:26Z</time>
      </trkpt>
      <trkpt lat="47.5243" lon="2.0657403">
        <ele>153.0</ele>
        <time>2022-02-27T09:46:27Z</time>
      </trkpt>
      <trkpt lat="47.5243" lon="2.0657566">
        <ele>153.0</ele>
        <time>2022-02-27T09:46:28Z</time>
      </trkpt>
      <trkpt lat="47.5243" lon="2.0657775">
        <ele>153.0</ele>
        <time>2022-02-27T09:46:29Z</time>
      </trkpt>
      <trkpt lat="47.524303" lon="2.065796">
        <ele>153.0</ele>
        <time>2022-02-27T09:46:30Z</time>
      </trkpt>
      <trkpt lat="47.524307" lon="2.0658164">
        <ele>153.0</ele>
        <time>2022-02-27T09:46:31Z</time>
      </trkpt>
      <trkpt lat="47.524307" lon="2.0658288">
        <ele>153.0</ele>
        <time>2022-02-27T09:46:32Z</time>
      </trkpt>
      <trkpt lat="47.52431" lon="2.0658462">
        <ele>153.0</ele>
        <time>2022-02-27T09:46:33Z</time>
      </trkpt>
      <trkpt lat="47.524315" lon="2.0658584">
        <ele>153.0</ele>
        <time>2022-02-27T09:46:34Z</time>
      </trkpt>
      <trkpt lat="47.524315" lon="2.0658681">
        <ele>153.0</ele>
        <time>2022-02-27T09:46:35Z</time>
      </trkpt>
      <trkpt lat="47.524315" lon="2.0658846">
        <ele>154.0</ele>
        <time>2022-02-27T09:46:36Z</time>
      </trkpt>
      <trkpt lat="47.524315" lon="2.0659034">
        <ele>154.0</ele>
        <time>2022-02-27T09:46:37Z</time>
      </trkpt>
      <trkpt lat="47.524315" lon="2.0659213">
        <ele>154.0</ele>
        <time>2022-02-27T09:46:38Z</time>
      </trkpt>
      <trkpt lat="47.524315" lon="2.0659392">
        <ele>154.0</ele>
        <time>2022-02-27T09:46:39Z</time>
      </trkpt>
      <trkpt lat="47.524315" lon="2.065954">
        <ele>155.0</ele>
        <time>2022-02-27T09:46:40Z</time>
      </trkpt>
      <trkpt lat="47.52432" lon="2.065968">
        <ele>155.0</ele>
        <time>2022-02-27T09:46:41Z</time>
      </trkpt>
      <trkpt lat="47.52432" lon="2.065985">
        <ele>155.0</ele>
        <time>2022-02-27T09:46:42Z</time>
      </trkpt>
      <trkpt lat="47.52432" lon="2.066003">
        <ele>155.0</ele>
        <time>2022-02-27T09:46:43Z</time>
      </trkpt>
      <trkpt lat="47.52432" lon="2.0660236">
        <ele>156.0</ele>
        <time>2022-02-27T09:46:44Z</time>
      </trkpt>
      <trkpt lat="47.52432" lon="2.0660386">
        <ele>156.0</ele>
        <time>2022-02-27T09:46:45Z</time>
      </trkpt>
      <trkpt lat="47.524323" lon="2.0660584">
        <ele>157.0</ele>
        <time>2022-02-27T09:46:46Z</time>
      </trkpt>
      <trkpt lat="47.524323" lon="2.066081">
        <ele>157.0</ele>
        <time>2022-02-27T09:46:47Z</time>
      </trkpt>
      <trkpt lat="47.524323" lon="2.0661008">
        <ele>157.0</ele>
        <time>2022-02-27T09:46:48Z</time>
      </trkpt>
      <trkpt lat="47.524323" lon="2.0661142">
        <ele>157.0</ele>
        <time>2022-02-27T09:46:49Z</time>
      </trkpt>
      <trkpt lat="47.524323" lon="2.0661335">
        <ele>157.0</ele>
        <time>2022-02-27T09:46:50Z</time>
      </trkpt>
      <trkpt lat="47.524323" lon="2.0661478">
        <ele>157.0</ele>
        <time>2022-02-27T09:46:51Z</time>
      </trkpt>
      <trkpt lat="47.52432" lon="2.066165">
        <ele>158.0</ele>
        <time>2022-02-27T09:46:52Z</time>
      </trkpt>
      <trkpt lat="47.52431" lon="2.0661755">
        <ele>158.0</ele>
        <time>2022-02-27T09:46:53Z</time>
      </trkpt>
      <trkpt lat="47.524303" lon="2.0661874">
        <ele>158.0</ele>
        <time>2022-02-27T09:46:54Z</time>
      </trkpt>
      <trkpt lat="47.5243" lon="2.0662026">
        <ele>158.0</ele>
        <time>2022-02-27T09:46:55Z</time>
      </trkpt>
      <trkpt lat="47.5243" lon="2.0662026">
        <ele>158.0</ele>
        <time>2022-02-27T09:46:56Z</time>
      </trkpt>
      <trkpt lat="47.5243" lon="2.0662026">
        <ele>158.0</ele>
        <time>2022-02-27T09:46:57Z</time>
      </trkpt>
      <trkpt lat="47.524284" lon="2.0662284">
        <ele>158.0</ele>
        <time>2022-02-27T09:46:58Z</time>
      </trkpt>
      <trkpt lat="47.52428" lon="2.066237">
        <ele>158.0</ele>
        <time>2022-02-27T09:46:59Z</time>
      </trkpt>
      <trkpt lat="47.524273" lon="2.0662417">
        <ele>157.0</ele>
        <time>2022-02-27T09:47:00Z</time>
      </trkpt>
      <trkpt lat="47.52426" lon="2.0662477">
        <ele>157.0</ele>
        <time>2022-02-27T09:47:01Z</time>
      </trkpt>
      <trkpt lat="47.52425" lon="2.0662546">
        <ele>157.0</ele>
        <time>2022-02-27T09:47:02Z</time>
      </trkpt>
      <trkpt lat="47.524235" lon="2.066264">
        <ele>157.0</ele>
        <time>2022-02-27T09:47:03Z</time>
      </trkpt>
      <trkpt lat="47.52422" lon="2.0662706">
        <ele>157.0</ele>
        <time>2022-02-27T09:47:04Z</time>
      </trkpt>
      <trkpt lat="47.52421" lon="2.0662782">
        <ele>156.0</ele>
        <time>2022-02-27T09:47:05Z</time>
      </trkpt>
      <trkpt lat="47.5242" lon="2.0662804">
        <ele>157.0</ele>
        <time>2022-02-27T09:47:06Z</time>
      </trkpt>
      <trkpt lat="47.52419" lon="2.0662832">
        <ele>156.0</ele>
        <time>2022-02-27T09:47:07Z</time>
      </trkpt>
      <trkpt lat="47.52418" lon="2.0662866">
        <ele>156.0</ele>
        <time>2022-02-27T09:47:08Z</time>
      </trkpt>
      <trkpt lat="47.524166" lon="2.066292">
        <ele>156.0</ele>
        <time>2022-02-27T09:47:09Z</time>
      </trkpt>
      <trkpt lat="47.52415" lon="2.0662956">
        <ele>156.0</ele>
        <time>2022-02-27T09:47:10Z</time>
      </trkpt>
      <trkpt lat="47.524136" lon="2.0663004">
        <ele>156.0</ele>
        <time>2022-02-27T09:47:11Z</time>
      </trkpt>
      <trkpt lat="47.524124" lon="2.0663044">
        <ele>156.0</ele>
        <time>2022-02-27T09:47:12Z</time>
      </trkpt>
      <trkpt lat="47.524117" lon="2.0663092">
        <ele>156.0</ele>
        <time>2022-02-27T09:47:13Z</time>
      </trkpt>
      <trkpt lat="47.524105" lon="2.0663154">
        <ele>156.0</ele>
        <time>2022-02-27T09:47:14Z</time>
      </trkpt>
      <trkpt lat="47.524094" lon="2.066322">
        <ele>156.0</ele>
        <time>2022-02-27T09:47:15Z</time>
      </trkpt>
      <trkpt lat="47.524086" lon="2.0663269">
        <ele>156.0</ele>
        <time>2022-02-27T09:47:16Z</time>
      </trkpt>
      <trkpt lat="47.524075" lon="2.0663295">
        <ele>156.0</ele>
        <time>2022-02-27T09:47:17Z</time>
      </trkpt>
      <trkpt lat="47.524063" lon="2.0663338">
        <ele>155.0</ele>
        <time>2022-02-27T09:47:18Z</time>
      </trkpt>
      <trkpt lat="47.524055" lon="2.0663443">
        <ele>154.0</ele>
        <time>2022-02-27T09:47:19Z</time>
      </trkpt>
      <trkpt lat="47.524048" lon="2.066358">
        <ele>154.0</ele>
        <time>2022-02-27T09:47:20Z</time>
      </trkpt>
      <trkpt lat="47.52404" lon="2.066372">
        <ele>153.0</ele>
        <time>2022-02-27T09:47:21Z</time>
      </trkpt>
      <trkpt lat="47.52404" lon="2.066372">
        <ele>153.0</ele>
        <time>2022-02-27T09:47:22Z</time>
      </trkpt>
      <trkpt lat="47.52404" lon="2.066372">
        <ele>153.0</ele>
        <time>2022-02-27T09:47:23Z</time>
      </trkpt>
      <trkpt lat="47.52402" lon="2.0663877">
        <ele>153.0</ele>
        <time>2022-02-27T09:47:24Z</time>
      </trkpt>
      <trkpt lat="47.524006" lon="2.0663948">
        <ele>154.0</ele>
        <time>2022-02-27T09:47:25Z</time>
      </trkpt>
      <trkpt lat="47.52399" lon="2.0664034">
        <ele>154.0</ele>
        <time>2022-02-27T09:47:26Z</time>
      </trkpt>
      <trkpt lat="47.523983" lon="2.066416">
        <ele>154.0</ele>
        <time>2022-02-27T09:47:27Z</time>
      </trkpt>
      <trkpt lat="47.52397" lon="2.0664315">
        <ele>155.0</ele>
        <time>2022-02-27T09:47:28Z</time>
      </trkpt>
      <trkpt lat="47.52396" lon="2.0664394">
        <ele>155.0</ele>
        <time>2022-02-27T09:47:29Z</time>
      </trkpt>
      <trkpt lat="47.523952" lon="2.0664473">
        <ele>155.0</ele>
        <time>2022-02-27T09:47:30Z</time>
      </trkpt>
      <trkpt lat="47.523945" lon="2.0664554">
        <ele>155.0</ele>
        <time>2022-02-27T09:47:31Z</time>
      </trkpt>
      <trkpt lat="47.523933" lon="2.0664659">
        <ele>155.0</ele>
        <time>2022-02-27T09:47:32Z</time>
      </trkpt>
      <trkpt lat="47.523926" lon="2.0664706">
        <ele>154.0</ele>
        <time>2022-02-27T09:47:33Z</time>
      </trkpt>
      <trkpt lat="47.523914" lon="2.0664735">
        <ele>154.0</ele>
        <time>2022-02-27T09:47:34Z</time>
      </trkpt>
      <trkpt lat="47.523903" lon="2.0664728">
        <ele>153.0</ele>
        <time>2022-02-27T09:47:35Z</time>
      </trkpt>
      <trkpt lat="47.52389" lon="2.06648">
        <ele>153.0</ele>
        <time>2022-02-27T09:47:36Z</time>
      </trkpt>
      <trkpt lat="47.52389" lon="2.0664794">
        <ele>153.0</ele>
        <time>2022-02-27T09:47:37Z</time>
      </trkpt>
      <trkpt lat="47.523888" lon="2.0664794">
        <ele>153.0</ele>
        <time>2022-02-27T09:47:38Z</time>
      </trkpt>
      <trkpt lat="47.523876" lon="2.066486">
        <ele>153.0</ele>
        <time>2022-02-27T09:47:39Z</time>
      </trkpt>
      <trkpt lat="47.52387" lon="2.0664902">
        <ele>153.0</ele>
        <time>2022-02-27T09:47:40Z</time>
      </trkpt>
      <trkpt lat="47.52386" lon="2.066499">
        <ele>153.0</ele>
        <time>2022-02-27T09:47:41Z</time>
      </trkpt>
      <trkpt lat="47.523853" lon="2.0665038">
        <ele>153.0</ele>
        <time>2022-02-27T09:47:42Z</time>
      </trkpt>
      <trkpt lat="47.523846" lon="2.0665116">
        <ele>153.0</ele>
        <time>2022-02-27T09:47:43Z</time>
      </trkpt>
      <trkpt lat="47.523838" lon="2.0665238">
        <ele>153.0</ele>
        <time>2022-02-27T09:47:44Z</time>
      </trkpt>
      <trkpt lat="47.523827" lon="2.0665362">
        <ele>152.0</ele>
        <time>2022-02-27T09:47:45Z</time>
      </trkpt>
      <trkpt lat="47.52382" lon="2.0665445">
        <ele>152.0</ele>
        <time>2022-02-27T09:47:46Z</time>
      </trkpt>
      <trkpt lat="47.523808" lon="2.0665507">
        <ele>152.0</ele>
        <time>2022-02-27T09:47:47Z</time>
      </trkpt>
      <trkpt lat="47.5238" lon="2.0665584">
        <ele>152.0</ele>
        <time>2022-02-27T09:47:48Z</time>
      </trkpt>
      <trkpt lat="47.52379" lon="2.066567">
        <ele>152.0</ele>
        <time>2022-02-27T09:47:49Z</time>
      </trkpt>
      <trkpt lat="47.523777" lon="2.0665698">
        <ele>151.0</ele>
        <time>2022-02-27T09:47:50Z</time>
      </trkpt>
      <trkpt lat="47.523766" lon="2.0665746">
        <ele>151.0</ele>
        <time>2022-02-27T09:47:51Z</time>
      </trkpt>
      <trkpt lat="47.523754" lon="2.0665798">
        <ele>151.0</ele>
        <time>2022-02-27T09:47:52Z</time>
      </trkpt>
      <trkpt lat="47.523746" lon="2.0665915">
        <ele>151.0</ele>
        <time>2022-02-27T09:47:53Z</time>
      </trkpt>
      <trkpt lat="47.52374" lon="2.066603">
        <ele>151.0</ele>
        <time>2022-02-27T09:47:54Z</time>
      </trkpt>
      <trkpt lat="47.523727" lon="2.0666149">
        <ele>151.0</ele>
        <time>2022-02-27T09:47:55Z</time>
      </trkpt>
      <trkpt lat="47.523716" lon="2.066626">
        <ele>151.0</ele>
        <time>2022-02-27T09:47:56Z</time>
      </trkpt>
      <trkpt lat="47.52371" lon="2.0666373">
        <ele>152.0</ele>
        <time>2022-02-27T09:47:57Z</time>
      </trkpt>
      <trkpt lat="47.523697" lon="2.0666487">
        <ele>152.0</ele>
        <time>2022-02-27T09:47:58Z</time>
      </trkpt>
      <trkpt lat="47.523685" lon="2.0666606">
        <ele>151.0</ele>
        <time>2022-02-27T09:47:59Z</time>
      </trkpt>
      <trkpt lat="47.523678" lon="2.0666685">
        <ele>151.0</ele>
        <time>2022-02-27T09:48:00Z</time>
      </trkpt>
      <trkpt lat="47.52367" lon="2.0666811">
        <ele>151.0</ele>
        <time>2022-02-27T09:48:01Z</time>
      </trkpt>
      <trkpt lat="47.52366" lon="2.0666885">
        <ele>151.0</ele>
        <time>2022-02-27T09:48:02Z</time>
      </trkpt>
      <trkpt lat="47.523647" lon="2.066699">
        <ele>151.0</ele>
        <time>2022-02-27T09:48:03Z</time>
      </trkpt>
      <trkpt lat="47.523632" lon="2.0667086">
        <ele>152.0</ele>
        <time>2022-02-27T09:48:04Z</time>
      </trkpt>
      <trkpt lat="47.52362" lon="2.0667193">
        <ele>153.0</ele>
        <time>2022-02-27T09:48:05Z</time>
      </trkpt>
      <trkpt lat="47.5236" lon="2.0667274">
        <ele>153.0</ele>
        <time>2022-02-27T09:48:06Z</time>
      </trkpt>
      <trkpt lat="47.52359" lon="2.0667374">
        <ele>153.0</ele>
        <time>2022-02-27T09:48:07Z</time>
      </trkpt>
      <trkpt lat="47.52358" lon="2.0667436">
        <ele>153.0</ele>
        <time>2022-02-27T09:48:08Z</time>
      </trkpt>
      <trkpt lat="47.523567" lon="2.0667515">
        <ele>153.0</ele>
        <time>2022-02-27T09:48:09Z</time>
      </trkpt>
      <trkpt lat="47.523556" lon="2.0667582">
        <ele>153.0</ele>
        <time>2022-02-27T09:48:10Z</time>
      </trkpt>
      <trkpt lat="47.52355" lon="2.066768">
        <ele>153.0</ele>
        <time>2022-02-27T09:48:11Z</time>
      </trkpt>
      <trkpt lat="47.523537" lon="2.066775">
        <ele>154.0</ele>
        <time>2022-02-27T09:48:12Z</time>
      </trkpt>
      <trkpt lat="47.523525" lon="2.06678">
        <ele>154.0</ele>
        <time>2022-02-27T09:48:13Z</time>
      </trkpt>
      <trkpt lat="47.523518" lon="2.066791">
        <ele>154.0</ele>
        <time>2022-02-27T09:48:14Z</time>
      </trkpt>
      <trkpt lat="47.523518" lon="2.066791">
        <ele>154.0</ele>
        <time>2022-02-27T09:48:15Z</time>
      </trkpt>
      <trkpt lat="47.523502" lon="2.0667994">
        <ele>154.0</ele>
        <time>2022-02-27T09:48:16Z</time>
      </trkpt>
      <trkpt lat="47.52349" lon="2.066805">
        <ele>154.0</ele>
        <time>2022-02-27T09:48:17Z</time>
      </trkpt>
      <trkpt lat="47.52348" lon="2.0668128">
        <ele>154.0</ele>
        <time>2022-02-27T09:48:18Z</time>
      </trkpt>
      <trkpt lat="47.523468" lon="2.0668206">
        <ele>153.0</ele>
        <time>2022-02-27T09:48:19Z</time>
      </trkpt>
      <trkpt lat="47.523457" lon="2.0668306">
        <ele>153.0</ele>
        <time>2022-02-27T09:48:20Z</time>
      </trkpt>
      <trkpt lat="47.523445" lon="2.0668392">
        <ele>153.0</ele>
        <time>2022-02-27T09:48:21Z</time>
      </trkpt>
      <trkpt lat="47.523438" lon="2.06685">
        <ele>154.0</ele>
        <time>2022-02-27T09:48:22Z</time>
      </trkpt>
      <trkpt lat="47.523426" lon="2.0668583">
        <ele>154.0</ele>
        <time>2022-02-27T09:48:23Z</time>
      </trkpt>
      <trkpt lat="47.523422" lon="2.066866">
        <ele>154.0</ele>
        <time>2022-02-27T09:48:24Z</time>
      </trkpt>
      <trkpt lat="47.52341" lon="2.0668738">
        <ele>154.0</ele>
        <time>2022-02-27T09:48:25Z</time>
      </trkpt>
      <trkpt lat="47.52341" lon="2.0668738">
        <ele>154.0</ele>
        <time>2022-02-27T09:48:26Z</time>
      </trkpt>
      <trkpt lat="47.523388" lon="2.0668962">
        <ele>154.0</ele>
        <time>2022-02-27T09:48:27Z</time>
      </trkpt>
      <trkpt lat="47.523376" lon="2.0669045">
        <ele>154.0</ele>
        <time>2022-02-27T09:48:28Z</time>
      </trkpt>
      <trkpt lat="47.523365" lon="2.0669107">
        <ele>154.0</ele>
        <time>2022-02-27T09:48:29Z</time>
      </trkpt>
      <trkpt lat="47.523354" lon="2.066922">
        <ele>154.0</ele>
        <time>2022-02-27T09:48:30Z</time>
      </trkpt>
      <trkpt lat="47.523346" lon="2.0669305">
        <ele>153.0</ele>
        <time>2022-02-27T09:48:31Z</time>
      </trkpt>
      <trkpt lat="47.52333" lon="2.0669425">
        <ele>153.0</ele>
        <time>2022-02-27T09:48:32Z</time>
      </trkpt>
      <trkpt lat="47.52332" lon="2.0669467">
        <ele>153.0</ele>
        <time>2022-02-27T09:48:33Z</time>
      </trkpt>
      <trkpt lat="47.52331" lon="2.0669537">
        <ele>153.0</ele>
        <time>2022-02-27T09:48:34Z</time>
      </trkpt>
      <trkpt lat="47.523304" lon="2.0669572">
        <ele>152.0</ele>
        <time>2022-02-27T09:48:35Z</time>
      </trkpt>
      <trkpt lat="47.523296" lon="2.0669591">
        <ele>152.0</ele>
        <time>2022-02-27T09:48:36Z</time>
      </trkpt>
      <trkpt lat="47.52329" lon="2.066969">
        <ele>152.0</ele>
        <time>2022-02-27T09:48:37Z</time>
      </trkpt>
      <trkpt lat="47.523277" lon="2.0669777">
        <ele>152.0</ele>
        <time>2022-02-27T09:48:38Z</time>
      </trkpt>
      <trkpt lat="47.523266" lon="2.066984">
        <ele>152.0</ele>
        <time>2022-02-27T09:48:39Z</time>
      </trkpt>
      <trkpt lat="47.52326" lon="2.0669892">
        <ele>153.0</ele>
        <time>2022-02-27T09:48:40Z</time>
      </trkpt>
      <trkpt lat="47.523247" lon="2.066992">
        <ele>153.0</ele>
        <time>2022-02-27T09:48:41Z</time>
      </trkpt>
      <trkpt lat="47.52324" lon="2.0669944">
        <ele>153.0</ele>
        <time>2022-02-27T09:48:42Z</time>
      </trkpt>
      <trkpt lat="47.52323" lon="2.0669982">
        <ele>153.0</ele>
        <time>2022-02-27T09:48:43Z</time>
      </trkpt>
      <trkpt lat="47.523224" lon="2.0670044">
        <ele>153.0</ele>
        <time>2022-02-27T09:48:44Z</time>
      </trkpt>
      <trkpt lat="47.523224" lon="2.0670044">
        <ele>153.0</ele>
        <time>2022-02-27T09:48:45Z</time>
      </trkpt>
      <trkpt lat="47.523224" lon="2.0670044">
        <ele>153.0</ele>
        <time>2022-02-27T09:48:46Z</time>
      </trkpt>
      <trkpt lat="47.523205" lon="2.0670228">
        <ele>153.0</ele>
        <time>2022-02-27T09:48:47Z</time>
      </trkpt>
      <trkpt lat="47.523193" lon="2.0670226">
        <ele>153.0</ele>
        <time>2022-02-27T09:48:48Z</time>
      </trkpt>
      <trkpt lat="47.52319" lon="2.0670345">
        <ele>153.0</ele>
        <time>2022-02-27T09:48:49Z</time>
      </trkpt>
      <trkpt lat="47.52318" lon="2.0670426">
        <ele>153.0</ele>
        <time>2022-02-27T09:48:50Z</time>
      </trkpt>
      <trkpt lat="47.523167" lon="2.0670497">
        <ele>152.0</ele>
        <time>2022-02-27T09:48:51Z</time>
      </trkpt>
      <trkpt lat="47.523155" lon="2.0670576">
        <ele>152.0</ele>
        <time>2022-02-27T09:48:52Z</time>
      </trkpt>
      <trkpt lat="47.523144" lon="2.0670722">
        <ele>152.0</ele>
        <time>2022-02-27T09:48:53Z</time>
      </trkpt>
      <trkpt lat="47.523132" lon="2.067087">
        <ele>151.0</ele>
        <time>2022-02-27T09:48:54Z</time>
      </trkpt>
      <trkpt lat="47.523117" lon="2.0671">
        <ele>151.0</ele>
        <time>2022-02-27T09:48:55Z</time>
      </trkpt>
      <trkpt lat="47.52311" lon="2.0671136">
        <ele>151.0</ele>
        <time>2022-02-27T09:48:56Z</time>
      </trkpt>
      <trkpt lat="47.523098" lon="2.067127">
        <ele>151.0</ele>
        <time>2022-02-27T09:48:57Z</time>
      </trkpt>
      <trkpt lat="47.52309" lon="2.067137">
        <ele>151.0</ele>
        <time>2022-02-27T09:48:58Z</time>
      </trkpt>
      <trkpt lat="47.52308" lon="2.067148">
        <ele>151.0</ele>
        <time>2022-02-27T09:48:59Z</time>
      </trkpt>
      <trkpt lat="47.52307" lon="2.067154">
        <ele>151.0</ele>
        <time>2022-02-27T09:49:00Z</time>
      </trkpt>
      <trkpt lat="47.52307" lon="2.067154">
        <ele>151.0</ele>
        <time>2022-02-27T09:49:01Z</time>
      </trkpt>
      <trkpt lat="47.523052" lon="2.0671692">
        <ele>152.0</ele>
        <time>2022-02-27T09:49:02Z</time>
      </trkpt>
      <trkpt lat="47.52304" lon="2.067186">
        <ele>152.0</ele>
        <time>2022-02-27T09:49:03Z</time>
      </trkpt>
      <trkpt lat="47.52303" lon="2.0671995">
        <ele>151.0</ele>
        <time>2022-02-27T09:49:04Z</time>
      </trkpt>
      <trkpt lat="47.52302" lon="2.0672061">
        <ele>151.0</ele>
        <time>2022-02-27T09:49:05Z</time>
      </trkpt>
      <trkpt lat="47.52301" lon="2.0672166">
        <ele>151.0</ele>
        <time>2022-02-27T09:49:06Z</time>
      </trkpt>
      <trkpt lat="47.52301" lon="2.0672166">
        <ele>151.0</ele>
        <time>2022-02-27T09:49:07Z</time>
      </trkpt>
      <trkpt lat="47.52301" lon="2.0672166">
        <ele>151.0</ele>
        <time>2022-02-27T09:49:08Z</time>
      </trkpt>
      <trkpt lat="47.522987" lon="2.0672412">
        <ele>151.0</ele>
        <time>2022-02-27T09:49:09Z</time>
      </trkpt>
      <trkpt lat="47.522976" lon="2.0672524">
        <ele>150.0</ele>
        <time>2022-02-27T09:49:10Z</time>
      </trkpt>
      <trkpt lat="47.522964" lon="2.0672655">
        <ele>150.0</ele>
        <time>2022-02-27T09:49:11Z</time>
      </trkpt>
      <trkpt lat="47.522953" lon="2.0672743">
        <ele>149.0</ele>
        <time>2022-02-27T09:49:12Z</time>
      </trkpt>
      <trkpt lat="47.522938" lon="2.0672762">
        <ele>149.0</ele>
        <time>2022-02-27T09:49:13Z</time>
      </trkpt>
      <trkpt lat="47.522926" lon="2.0672877">
        <ele>148.0</ele>
        <time>2022-02-27T09:49:14Z</time>
      </trkpt>
      <trkpt lat="47.52291" lon="2.0672977">
        <ele>148.0</ele>
        <time>2022-02-27T09:49:15Z</time>
      </trkpt>
      <trkpt lat="47.5229" lon="2.067312">
        <ele>147.0</ele>
        <time>2022-02-27T09:49:16Z</time>
      </trkpt>
      <trkpt lat="47.52289" lon="2.067324">
        <ele>147.0</ele>
        <time>2022-02-27T09:49:17Z</time>
      </trkpt>
      <trkpt lat="47.52288" lon="2.0673273">
        <ele>147.0</ele>
        <time>2022-02-27T09:49:18Z</time>
      </trkpt>
      <trkpt lat="47.522865" lon="2.0673287">
        <ele>147.0</ele>
        <time>2022-02-27T09:49:19Z</time>
      </trkpt>
      <trkpt lat="47.52285" lon="2.0673287">
        <ele>147.0</ele>
        <time>2022-02-27T09:49:20Z</time>
      </trkpt>
      <trkpt lat="47.522835" lon="2.0673337">
        <ele>147.0</ele>
        <time>2022-02-27T09:49:21Z</time>
      </trkpt>
      <trkpt lat="47.522823" lon="2.0673437">
        <ele>147.0</ele>
        <time>2022-02-27T09:49:22Z</time>
      </trkpt>
      <trkpt lat="47.52281" lon="2.0673544">
        <ele>147.0</ele>
        <time>2022-02-27T09:49:23Z</time>
      </trkpt>
      <trkpt lat="47.5228" lon="2.067365">
        <ele>147.0</ele>
        <time>2022-02-27T09:49:24Z</time>
      </trkpt>
      <trkpt lat="47.522797" lon="2.0673711">
        <ele>146.0</ele>
        <time>2022-02-27T09:49:25Z</time>
      </trkpt>
      <trkpt lat="47.52279" lon="2.067382">
        <ele>147.0</ele>
        <time>2022-02-27T09:49:26Z</time>
      </trkpt>
      <trkpt lat="47.522778" lon="2.067394">
        <ele>146.0</ele>
        <time>2022-02-27T09:49:27Z</time>
      </trkpt>
      <trkpt lat="47.522766" lon="2.067405">
        <ele>146.0</ele>
        <time>2022-02-27T09:49:28Z</time>
      </trkpt>
      <trkpt lat="47.52276" lon="2.0674157">
        <ele>146.0</ele>
        <time>2022-02-27T09:49:29Z</time>
      </trkpt>
      <trkpt lat="47.522755" lon="2.0674205">
        <ele>146.0</ele>
        <time>2022-02-27T09:49:30Z</time>
      </trkpt>
      <trkpt lat="47.522755" lon="2.0674205">
        <ele>146.0</ele>
        <time>2022-02-27T09:49:31Z</time>
      </trkpt>
      <trkpt lat="47.522755" lon="2.0674205">
        <ele>146.0</ele>
        <time>2022-02-27T09:49:32Z</time>
      </trkpt>
      <trkpt lat="47.52273" lon="2.0674372">
        <ele>146.0</ele>
        <time>2022-02-27T09:49:33Z</time>
      </trkpt>
      <trkpt lat="47.522724" lon="2.0674472">
        <ele>146.0</ele>
        <time>2022-02-27T09:49:34Z</time>
      </trkpt>
      <trkpt lat="47.522713" lon="2.0674539">
        <ele>146.0</ele>
        <time>2022-02-27T09:49:35Z</time>
      </trkpt>
      <trkpt lat="47.5227" lon="2.0674624">
        <ele>146.0</ele>
        <time>2022-02-27T09:49:36Z</time>
      </trkpt>
      <trkpt lat="47.52269" lon="2.0674648">
        <ele>146.0</ele>
        <time>2022-02-27T09:49:37Z</time>
      </trkpt>
      <trkpt lat="47.52268" lon="2.0674713">
        <ele>147.0</ele>
        <time>2022-02-27T09:49:38Z</time>
      </trkpt>
      <trkpt lat="47.522663" lon="2.0674791">
        <ele>146.0</ele>
        <time>2022-02-27T09:49:39Z</time>
      </trkpt>
      <trkpt lat="47.522648" lon="2.067487">
        <ele>147.0</ele>
        <time>2022-02-27T09:49:40Z</time>
      </trkpt>
      <trkpt lat="47.522633" lon="2.0674942">
        <ele>147.0</ele>
        <time>2022-02-27T09:49:41Z</time>
      </trkpt>
      <trkpt lat="47.522614" lon="2.0675054">
        <ele>147.0</ele>
        <time>2022-02-27T09:49:42Z</time>
      </trkpt>
      <trkpt lat="47.522602" lon="2.067512">
        <ele>148.0</ele>
        <time>2022-02-27T09:49:43Z</time>
      </trkpt>
      <trkpt lat="47.522587" lon="2.067512">
        <ele>148.0</ele>
        <time>2022-02-27T09:49:44Z</time>
      </trkpt>
      <trkpt lat="47.522575" lon="2.0675156">
        <ele>149.0</ele>
        <time>2022-02-27T09:49:45Z</time>
      </trkpt>
      <trkpt lat="47.522564" lon="2.0675192">
        <ele>149.0</ele>
        <time>2022-02-27T09:49:46Z</time>
      </trkpt>
      <trkpt lat="47.522552" lon="2.0675235">
        <ele>150.0</ele>
        <time>2022-02-27T09:49:47Z</time>
      </trkpt>
      <trkpt lat="47.52254" lon="2.0675287">
        <ele>150.0</ele>
        <time>2022-02-27T09:49:48Z</time>
      </trkpt>
      <trkpt lat="47.522537" lon="2.0675406">
        <ele>151.0</ele>
        <time>2022-02-27T09:49:49Z</time>
      </trkpt>
      <trkpt lat="47.52253" lon="2.0675569">
        <ele>151.0</ele>
        <time>2022-02-27T09:49:50Z</time>
      </trkpt>
      <trkpt lat="47.522522" lon="2.0675688">
        <ele>150.0</ele>
        <time>2022-02-27T09:49:51Z</time>
      </trkpt>
      <trkpt lat="47.522514" lon="2.0675826">
        <ele>151.0</ele>
        <time>2022-02-27T09:49:52Z</time>
      </trkpt>
      <trkpt lat="47.522503" lon="2.0675936">
        <ele>150.0</ele>
        <time>2022-02-27T09:49:53Z</time>
      </trkpt>
      <trkpt lat="47.52249" lon="2.0676007">
        <ele>151.0</ele>
        <time>2022-02-27T09:49:54Z</time>
      </trkpt>
      <trkpt lat="47.522484" lon="2.0676062">
        <ele>151.0</ele>
        <time>2022-02-27T09:49:55Z</time>
      </trkpt>
      <trkpt lat="47.522476" lon="2.0676131">
        <ele>151.0</ele>
        <time>2022-02-27T09:49:56Z</time>
      </trkpt>
      <trkpt lat="47.522465" lon="2.0676196">
        <ele>151.0</ele>
        <time>2022-02-27T09:49:57Z</time>
      </trkpt>
      <trkpt lat="47.522457" lon="2.0676248">
        <ele>151.0</ele>
        <time>2022-02-27T09:49:58Z</time>
      </trkpt>
      <trkpt lat="47.522446" lon="2.0676289">
        <ele>150.0</ele>
        <time>2022-02-27T09:49:59Z</time>
      </trkpt>
      <trkpt lat="47.522434" lon="2.0676367">
        <ele>149.0</ele>
        <time>2022-02-27T09:50:00Z</time>
      </trkpt>
      <trkpt lat="47.522427" lon="2.067648">
        <ele>149.0</ele>
        <time>2022-02-27T09:50:01Z</time>
      </trkpt>
      <trkpt lat="47.52242" lon="2.0676548">
        <ele>149.0</ele>
        <time>2022-02-27T09:50:02Z</time>
      </trkpt>
      <trkpt lat="47.522408" lon="2.0676644">
        <ele>149.0</ele>
        <time>2022-02-27T09:50:03Z</time>
      </trkpt>
      <trkpt lat="47.5224" lon="2.067676">
        <ele>150.0</ele>
        <time>2022-02-27T09:50:04Z</time>
      </trkpt>
      <trkpt lat="47.52239" lon="2.0676885">
        <ele>150.0</ele>
        <time>2022-02-27T09:50:05Z</time>
      </trkpt>
      <trkpt lat="47.522377" lon="2.0676956">
        <ele>150.0</ele>
        <time>2022-02-27T09:50:06Z</time>
      </trkpt>
      <trkpt lat="47.522366" lon="2.0676978">
        <ele>151.0</ele>
        <time>2022-02-27T09:50:07Z</time>
      </trkpt>
      <trkpt lat="47.522354" lon="2.0677023">
        <ele>152.0</ele>
        <time>2022-02-27T09:50:08Z</time>
      </trkpt>
      <trkpt lat="47.522346" lon="2.0677054">
        <ele>152.0</ele>
        <time>2022-02-27T09:50:09Z</time>
      </trkpt>
      <trkpt lat="47.52234" lon="2.067711">
        <ele>152.0</ele>
        <time>2022-02-27T09:50:10Z</time>
      </trkpt>
      <trkpt lat="47.522327" lon="2.0677178">
        <ele>153.0</ele>
        <time>2022-02-27T09:50:11Z</time>
      </trkpt>
      <trkpt lat="47.52232" lon="2.067722">
        <ele>153.0</ele>
        <time>2022-02-27T09:50:12Z</time>
      </trkpt>
      <trkpt lat="47.522305" lon="2.067732">
        <ele>154.0</ele>
        <time>2022-02-27T09:50:13Z</time>
      </trkpt>
      <trkpt lat="47.522297" lon="2.067738">
        <ele>154.0</ele>
        <time>2022-02-27T09:50:14Z</time>
      </trkpt>
      <trkpt lat="47.522285" lon="2.0677476">
        <ele>154.0</ele>
        <time>2022-02-27T09:50:15Z</time>
      </trkpt>
      <trkpt lat="47.522274" lon="2.0677602">
        <ele>154.0</ele>
        <time>2022-02-27T09:50:16Z</time>
      </trkpt>
      <trkpt lat="47.522263" lon="2.0677705">
        <ele>154.0</ele>
        <time>2022-02-27T09:50:17Z</time>
      </trkpt>
      <trkpt lat="47.52225" lon="2.067775">
        <ele>154.0</ele>
        <time>2022-02-27T09:50:18Z</time>
      </trkpt>
      <trkpt lat="47.52224" lon="2.0677772">
        <ele>154.0</ele>
        <time>2022-02-27T09:50:19Z</time>
      </trkpt>
      <trkpt lat="47.522232" lon="2.0677836">
        <ele>154.0</ele>
        <time>2022-02-27T09:50:20Z</time>
      </trkpt>
      <trkpt lat="47.52222" lon="2.0677924">
        <ele>155.0</ele>
        <time>2022-02-27T09:50:21Z</time>
      </trkpt>
      <trkpt lat="47.52221" lon="2.067804">
        <ele>155.0</ele>
        <time>2022-02-27T09:50:22Z</time>
      </trkpt>
      <trkpt lat="47.5222" lon="2.0678146">
        <ele>155.0</ele>
        <time>2022-02-27T09:50:23Z</time>
      </trkpt>
      <trkpt lat="47.522194" lon="2.0678244">
        <ele>155.0</ele>
        <time>2022-02-27T09:50:24Z</time>
      </trkpt>
      <trkpt lat="47.522186" lon="2.0678315">
        <ele>154.0</ele>
        <time>2022-02-27T09:50:25Z</time>
      </trkpt>
      <trkpt lat="47.522175" lon="2.0678377">
        <ele>155.0</ele>
        <time>2022-02-27T09:50:26Z</time>
      </trkpt>
      <trkpt lat="47.522167" lon="2.0678437">
        <ele>155.0</ele>
        <time>2022-02-27T09:50:27Z</time>
      </trkpt>
      <trkpt lat="47.522156" lon="2.0678554">
        <ele>155.0</ele>
        <time>2022-02-27T09:50:28Z</time>
      </trkpt>
      <trkpt lat="47.522156" lon="2.0678554">
        <ele>155.0</ele>
        <time>2022-02-27T09:50:29Z</time>
      </trkpt>
      <trkpt lat="47.522156" lon="2.0678554">
        <ele>155.0</ele>
        <time>2022-02-27T09:50:30Z</time>
      </trkpt>
      <trkpt lat="47.522133" lon="2.0678768">
        <ele>156.0</ele>
        <time>2022-02-27T09:50:31Z</time>
      </trkpt>
      <trkpt lat="47.522125" lon="2.06788">
        <ele>156.0</ele>
        <time>2022-02-27T09:50:32Z</time>
      </trkpt>
      <trkpt lat="47.522114" lon="2.0678825">
        <ele>157.0</ele>
        <time>2022-02-27T09:50:33Z</time>
      </trkpt>
      <trkpt lat="47.52211" lon="2.0678847">
        <ele>156.0</ele>
        <time>2022-02-27T09:50:34Z</time>
      </trkpt>
      <trkpt lat="47.522106" lon="2.06789">
        <ele>156.0</ele>
        <time>2022-02-27T09:50:35Z</time>
      </trkpt>
      <trkpt lat="47.522095" lon="2.0678952">
        <ele>157.0</ele>
        <time>2022-02-27T09:50:36Z</time>
      </trkpt>
      <trkpt lat="47.52209" lon="2.0678992">
        <ele>157.0</ele>
        <time>2022-02-27T09:50:37Z</time>
      </trkpt>
      <trkpt lat="47.522083" lon="2.0679069">
        <ele>157.0</ele>
        <time>2022-02-27T09:50:38Z</time>
      </trkpt>
      <trkpt lat="47.522083" lon="2.0679069">
        <ele>157.0</ele>
        <time>2022-02-27T09:50:39Z</time>
      </trkpt>
      <trkpt lat="47.522083" lon="2.0679069">
        <ele>157.0</ele>
        <time>2022-02-27T09:50:40Z</time>
      </trkpt>
      <trkpt lat="47.52206" lon="2.0679266">
        <ele>156.0</ele>
        <time>2022-02-27T09:50:41Z</time>
      </trkpt>
      <trkpt lat="47.522053" lon="2.0679362">
        <ele>157.0</ele>
        <time>2022-02-27T09:50:42Z</time>
      </trkpt>
      <trkpt lat="47.522045" lon="2.0679455">
        <ele>156.0</ele>
        <time>2022-02-27T09:50:43Z</time>
      </trkpt>
      <trkpt lat="47.522034" lon="2.0679548">
        <ele>156.0</ele>
        <time>2022-02-27T09:50:44Z</time>
      </trkpt>
      <trkpt lat="47.522026" lon="2.0679636">
        <ele>156.0</ele>
        <time>2022-02-27T09:50:45Z</time>
      </trkpt>
      <trkpt lat="47.522015" lon="2.0679696">
        <ele>156.0</ele>
        <time>2022-02-27T09:50:46Z</time>
      </trkpt>
      <trkpt lat="47.522007" lon="2.067977">
        <ele>155.0</ele>
        <time>2022-02-27T09:50:47Z</time>
      </trkpt>
      <trkpt lat="47.522007" lon="2.067977">
        <ele>155.0</ele>
        <time>2022-02-27T09:50:48Z</time>
      </trkpt>
      <trkpt lat="47.522007" lon="2.067977">
        <ele>155.0</ele>
        <time>2022-02-27T09:50:49Z</time>
      </trkpt>
      <trkpt lat="47.521984" lon="2.0680046">
        <ele>155.0</ele>
        <time>2022-02-27T09:50:50Z</time>
      </trkpt>
      <trkpt lat="47.521976" lon="2.0680075">
        <ele>155.0</ele>
        <time>2022-02-27T09:50:51Z</time>
      </trkpt>
      <trkpt lat="47.521965" lon="2.068021">
        <ele>156.0</ele>
        <time>2022-02-27T09:50:52Z</time>
      </trkpt>
      <trkpt lat="47.521954" lon="2.0680342">
        <ele>156.0</ele>
        <time>2022-02-27T09:50:53Z</time>
      </trkpt>
      <trkpt lat="47.521954" lon="2.0680342">
        <ele>156.0</ele>
        <time>2022-02-27T09:50:54Z</time>
      </trkpt>
      <trkpt lat="47.521954" lon="2.0680342">
        <ele>156.0</ele>
        <time>2022-02-27T09:50:55Z</time>
      </trkpt>
      <trkpt lat="47.521935" lon="2.0680594">
        <ele>156.0</ele>
        <time>2022-02-27T09:50:56Z</time>
      </trkpt>
      <trkpt lat="47.521923" lon="2.0680714">
        <ele>156.0</ele>
        <time>2022-02-27T09:50:57Z</time>
      </trkpt>
      <trkpt lat="47.521908" lon="2.0680783">
        <ele>156.0</ele>
        <time>2022-02-27T09:50:58Z</time>
      </trkpt>
      <trkpt lat="47.5219" lon="2.068086">
        <ele>155.0</ele>
        <time>2022-02-27T09:50:59Z</time>
      </trkpt>
      <trkpt lat="47.52189" lon="2.0680928">
        <ele>155.0</ele>
        <time>2022-02-27T09:51:00Z</time>
      </trkpt>
      <trkpt lat="47.521873" lon="2.068102">
        <ele>155.0</ele>
        <time>2022-02-27T09:51:01Z</time>
      </trkpt>
      <trkpt lat="47.521862" lon="2.0681148">
        <ele>155.0</ele>
        <time>2022-02-27T09:51:02Z</time>
      </trkpt>
      <trkpt lat="47.521854" lon="2.0681279">
        <ele>155.0</ele>
        <time>2022-02-27T09:51:03Z</time>
      </trkpt>
      <trkpt lat="47.521843" lon="2.068142">
        <ele>155.0</ele>
        <time>2022-02-27T09:51:04Z</time>
      </trkpt>
      <trkpt lat="47.52183" lon="2.0681581">
        <ele>156.0</ele>
        <time>2022-02-27T09:51:05Z</time>
      </trkpt>
      <trkpt lat="47.521824" lon="2.0681684">
        <ele>156.0</ele>
        <time>2022-02-27T09:51:06Z</time>
      </trkpt>
      <trkpt lat="47.521816" lon="2.0681787">
        <ele>155.0</ele>
        <time>2022-02-27T09:51:07Z</time>
      </trkpt>
      <trkpt lat="47.521805" lon="2.0681887">
        <ele>155.0</ele>
        <time>2022-02-27T09:51:08Z</time>
      </trkpt>
      <trkpt lat="47.521793" lon="2.0681973">
        <ele>156.0</ele>
        <time>2022-02-27T09:51:09Z</time>
      </trkpt>
      <trkpt lat="47.521782" lon="2.0682077">
        <ele>155.0</ele>
        <time>2022-02-27T09:51:10Z</time>
      </trkpt>
      <trkpt lat="47.521767" lon="2.0682163">
        <ele>156.0</ele>
        <time>2022-02-27T09:51:11Z</time>
      </trkpt>
      <trkpt lat="47.521755" lon="2.0682282">
        <ele>156.0</ele>
        <time>2022-02-27T09:51:12Z</time>
      </trkpt>
      <trkpt lat="47.52174" lon="2.0682397">
        <ele>156.0</ele>
        <time>2022-02-27T09:51:13Z</time>
      </trkpt>
      <trkpt lat="47.521732" lon="2.0682507">
        <ele>156.0</ele>
        <time>2022-02-27T09:51:14Z</time>
      </trkpt>
      <trkpt lat="47.521725" lon="2.0682588">
        <ele>156.0</ele>
        <time>2022-02-27T09:51:15Z</time>
      </trkpt>
      <trkpt lat="47.521717" lon="2.068265">
        <ele>156.0</ele>
        <time>2022-02-27T09:51:16Z</time>
      </trkpt>
      <trkpt lat="47.521717" lon="2.068265">
        <ele>156.0</ele>
        <time>2022-02-27T09:51:17Z</time>
      </trkpt>
      <trkpt lat="47.521717" lon="2.068265">
        <ele>156.0</ele>
        <time>2022-02-27T09:51:18Z</time>
      </trkpt>
      <trkpt lat="47.521694" lon="2.0682805">
        <ele>156.0</ele>
        <time>2022-02-27T09:51:19Z</time>
      </trkpt>
      <trkpt lat="47.521683" lon="2.0682912">
        <ele>156.0</ele>
        <time>2022-02-27T09:51:20Z</time>
      </trkpt>
      <trkpt lat="47.52167" lon="2.068299">
        <ele>156.0</ele>
        <time>2022-02-27T09:51:21Z</time>
      </trkpt>
      <trkpt lat="47.52166" lon="2.068312">
        <ele>157.0</ele>
        <time>2022-02-27T09:51:22Z</time>
      </trkpt>
      <trkpt lat="47.52165" lon="2.0683146">
        <ele>157.0</ele>
        <time>2022-02-27T09:51:23Z</time>
      </trkpt>
      <trkpt lat="47.52165" lon="2.0683146">
        <ele>157.0</ele>
        <time>2022-02-27T09:51:24Z</time>
      </trkpt>
      <trkpt lat="47.52165" lon="2.0683146">
        <ele>157.0</ele>
        <time>2022-02-27T09:51:25Z</time>
      </trkpt>
      <trkpt lat="47.521618" lon="2.0683346">
        <ele>158.0</ele>
        <time>2022-02-27T09:51:26Z</time>
      </trkpt>
      <trkpt lat="47.52161" lon="2.0683413">
        <ele>158.0</ele>
        <time>2022-02-27T09:51:27Z</time>
      </trkpt>
      <trkpt lat="47.5216" lon="2.0683453">
        <ele>159.0</ele>
        <time>2022-02-27T09:51:28Z</time>
      </trkpt>
      <trkpt lat="47.52159" lon="2.068354">
        <ele>159.0</ele>
        <time>2022-02-27T09:51:29Z</time>
      </trkpt>
      <trkpt lat="47.52159" lon="2.068354">
        <ele>159.0</ele>
        <time>2022-02-27T09:51:30Z</time>
      </trkpt>
      <trkpt lat="47.52159" lon="2.068354">
        <ele>159.0</ele>
        <time>2022-02-27T09:51:31Z</time>
      </trkpt>
      <trkpt lat="47.52157" lon="2.0683692">
        <ele>159.0</ele>
        <time>2022-02-27T09:51:32Z</time>
      </trkpt>
      <trkpt lat="47.52156" lon="2.068374">
        <ele>158.0</ele>
        <time>2022-02-27T09:51:33Z</time>
      </trkpt>
      <trkpt lat="47.521553" lon="2.068382">
        <ele>158.0</ele>
        <time>2022-02-27T09:51:34Z</time>
      </trkpt>
      <trkpt lat="47.52154" lon="2.0683851">
        <ele>158.0</ele>
        <time>2022-02-27T09:51:35Z</time>
      </trkpt>
      <trkpt lat="47.52153" lon="2.068398">
        <ele>158.0</ele>
        <time>2022-02-27T09:51:36Z</time>
      </trkpt>
      <trkpt lat="47.52152" lon="2.0684087">
        <ele>159.0</ele>
        <time>2022-02-27T09:51:37Z</time>
      </trkpt>
      <trkpt lat="47.52151" lon="2.0684206">
        <ele>159.0</ele>
        <time>2022-02-27T09:51:38Z</time>
      </trkpt>
      <trkpt lat="47.521503" lon="2.0684311">
        <ele>159.0</ele>
        <time>2022-02-27T09:51:39Z</time>
      </trkpt>
      <trkpt lat="47.521496" lon="2.0684364">
        <ele>159.0</ele>
        <time>2022-02-27T09:51:40Z</time>
      </trkpt>
      <trkpt lat="47.52149" lon="2.0684404">
        <ele>159.0</ele>
        <time>2022-02-27T09:51:41Z</time>
      </trkpt>
      <trkpt lat="47.521477" lon="2.0684435">
        <ele>160.0</ele>
        <time>2022-02-27T09:51:42Z</time>
      </trkpt>
      <trkpt lat="47.521465" lon="2.068451">
        <ele>160.0</ele>
        <time>2022-02-27T09:51:43Z</time>
      </trkpt>
      <trkpt lat="47.521458" lon="2.0684583">
        <ele>159.0</ele>
        <time>2022-02-27T09:51:44Z</time>
      </trkpt>
      <trkpt lat="47.521454" lon="2.0684693">
        <ele>159.0</ele>
        <time>2022-02-27T09:51:45Z</time>
      </trkpt>
      <trkpt lat="47.521446" lon="2.0684762">
        <ele>159.0</ele>
        <time>2022-02-27T09:51:46Z</time>
      </trkpt>
      <trkpt lat="47.521446" lon="2.0684762">
        <ele>159.0</ele>
        <time>2022-02-27T09:51:47Z</time>
      </trkpt>
      <trkpt lat="47.521446" lon="2.0684762">
        <ele>159.0</ele>
        <time>2022-02-27T09:51:48Z</time>
      </trkpt>
      <trkpt lat="47.521427" lon="2.068493">
        <ele>160.0</ele>
        <time>2022-02-27T09:51:49Z</time>
      </trkpt>
      <trkpt lat="47.52142" lon="2.0684943">
        <ele>159.0</ele>
        <time>2022-02-27T09:51:50Z</time>
      </trkpt>
      <trkpt lat="47.521408" lon="2.0685027">
        <ele>160.0</ele>
        <time>2022-02-27T09:51:51Z</time>
      </trkpt>
      <trkpt lat="47.521397" lon="2.0685117">
        <ele>159.0</ele>
        <time>2022-02-27T09:51:52Z</time>
      </trkpt>
      <trkpt lat="47.52138" lon="2.06852">
        <ele>159.0</ele>
        <time>2022-02-27T09:51:53Z</time>
      </trkpt>
      <trkpt lat="47.52136" lon="2.0685318">
        <ele>159.0</ele>
        <time>2022-02-27T09:51:54Z</time>
      </trkpt>
      <trkpt lat="47.521347" lon="2.068541">
        <ele>159.0</ele>
        <time>2022-02-27T09:51:55Z</time>
      </trkpt>
      <trkpt lat="47.52133" lon="2.068547">
        <ele>159.0</ele>
        <time>2022-02-27T09:51:56Z</time>
      </trkpt>
      <trkpt lat="47.521317" lon="2.0685532">
        <ele>159.0</ele>
        <time>2022-02-27T09:51:57Z</time>
      </trkpt>
      <trkpt lat="47.5213" lon="2.0685608">
        <ele>159.0</ele>
        <time>2022-02-27T09:51:58Z</time>
      </trkpt>
      <trkpt lat="47.521294" lon="2.0685678">
        <ele>160.0</ele>
        <time>2022-02-27T09:51:59Z</time>
      </trkpt>
      <trkpt lat="47.521286" lon="2.0685737">
        <ele>160.0</ele>
        <time>2022-02-27T09:52:00Z</time>
      </trkpt>
      <trkpt lat="47.521286" lon="2.0685737">
        <ele>160.0</ele>
        <time>2022-02-27T09:52:01Z</time>
      </trkpt>
      <trkpt lat="47.521286" lon="2.0685737">
        <ele>160.0</ele>
        <time>2022-02-27T09:52:02Z</time>
      </trkpt>
      <trkpt lat="47.52125" lon="2.0685887">
        <ele>161.0</ele>
        <time>2022-02-27T09:52:03Z</time>
      </trkpt>
      <trkpt lat="47.52124" lon="2.0685937">
        <ele>161.0</ele>
        <time>2022-02-27T09:52:04Z</time>
      </trkpt>
      <trkpt lat="47.521225" lon="2.0685983">
        <ele>161.0</ele>
        <time>2022-02-27T09:52:05Z</time>
      </trkpt>
      <trkpt lat="47.521214" lon="2.0686057">
        <ele>161.0</ele>
        <time>2022-02-27T09:52:06Z</time>
      </trkpt>
      <trkpt lat="47.5212" lon="2.068613">
        <ele>162.0</ele>
        <time>2022-02-27T09:52:07Z</time>
      </trkpt>
      <trkpt lat="47.521187" lon="2.068611">
        <ele>162.0</ele>
        <time>2022-02-27T09:52:08Z</time>
      </trkpt>
      <trkpt lat="47.521175" lon="2.0686033">
        <ele>162.0</ele>
        <time>2022-02-27T09:52:09Z</time>
      </trkpt>
      <trkpt lat="47.521168" lon="2.0685956">
        <ele>163.0</ele>
        <time>2022-02-27T09:52:10Z</time>
      </trkpt>
      <trkpt lat="47.52116" lon="2.0685906">
        <ele>163.0</ele>
        <time>2022-02-27T09:52:11Z</time>
      </trkpt>
      <trkpt lat="47.521164" lon="2.068589">
        <ele>164.0</ele>
        <time>2022-02-27T09:52:12Z</time>
      </trkpt>
      <trkpt lat="47.52116" lon="2.0685794">
        <ele>164.0</ele>
        <time>2022-02-27T09:52:13Z</time>
      </trkpt>
      <trkpt lat="47.52116" lon="2.0685794">
        <ele>164.0</ele>
        <time>2022-02-27T09:52:14Z</time>
      </trkpt>
      <trkpt lat="47.52116" lon="2.0685794">
        <ele>164.0</ele>
        <time>2022-02-27T09:52:15Z</time>
      </trkpt>
      <trkpt lat="47.52115" lon="2.0685523">
        <ele>163.0</ele>
        <time>2022-02-27T09:52:16Z</time>
      </trkpt>
      <trkpt lat="47.52115" lon="2.0685518">
        <ele>164.0</ele>
        <time>2022-02-27T09:52:17Z</time>
      </trkpt>
      <trkpt lat="47.52115" lon="2.0685487">
        <ele>164.0</ele>
        <time>2022-02-27T09:52:18Z</time>
      </trkpt>
      <trkpt lat="47.521145" lon="2.0685384">
        <ele>163.0</ele>
        <time>2022-02-27T09:52:19Z</time>
      </trkpt>
      <trkpt lat="47.521145" lon="2.0685384">
        <ele>163.0</ele>
        <time>2022-02-27T09:52:20Z</time>
      </trkpt>
      <trkpt lat="47.521145" lon="2.068518">
        <ele>163.0</ele>
        <time>2022-02-27T09:52:21Z</time>
      </trkpt>
      <trkpt lat="47.521145" lon="2.0685084">
        <ele>162.0</ele>
        <time>2022-02-27T09:52:22Z</time>
      </trkpt>
      <trkpt lat="47.521137" lon="2.0684946">
        <ele>161.0</ele>
        <time>2022-02-27T09:52:23Z</time>
      </trkpt>
      <trkpt lat="47.52114" lon="2.0684807">
        <ele>160.0</ele>
        <time>2022-02-27T09:52:24Z</time>
      </trkpt>
      <trkpt lat="47.52114" lon="2.068469">
        <ele>160.0</ele>
        <time>2022-02-27T09:52:25Z</time>
      </trkpt>
      <trkpt lat="47.521137" lon="2.0684526">
        <ele>159.0</ele>
        <time>2022-02-27T09:52:26Z</time>
      </trkpt>
      <trkpt lat="47.521137" lon="2.0684407">
        <ele>159.0</ele>
        <time>2022-02-27T09:52:27Z</time>
      </trkpt>
      <trkpt lat="47.521137" lon="2.0684266">
        <ele>158.0</ele>
        <time>2022-02-27T09:52:28Z</time>
      </trkpt>
      <trkpt lat="47.521137" lon="2.0684116">
        <ele>158.0</ele>
        <time>2022-02-27T09:52:29Z</time>
      </trkpt>
      <trkpt lat="47.52114" lon="2.0683913">
        <ele>158.0</ele>
        <time>2022-02-27T09:52:30Z</time>
      </trkpt>
      <trkpt lat="47.521137" lon="2.068373">
        <ele>158.0</ele>
        <time>2022-02-27T09:52:31Z</time>
      </trkpt>
      <trkpt lat="47.521137" lon="2.0683594">
        <ele>158.0</ele>
        <time>2022-02-27T09:52:32Z</time>
      </trkpt>
      <trkpt lat="47.521133" lon="2.0683439">
        <ele>158.0</ele>
        <time>2022-02-27T09:52:33Z</time>
      </trkpt>
      <trkpt lat="47.52113" lon="2.0683293">
        <ele>158.0</ele>
        <time>2022-02-27T09:52:34Z</time>
      </trkpt>
      <trkpt lat="47.521126" lon="2.068312">
        <ele>157.0</ele>
        <time>2022-02-27T09:52:35Z</time>
      </trkpt>
      <trkpt lat="47.521126" lon="2.0682986">
        <ele>157.0</ele>
        <time>2022-02-27T09:52:36Z</time>
      </trkpt>
      <trkpt lat="47.521122" lon="2.0682828">
        <ele>156.0</ele>
        <time>2022-02-27T09:52:37Z</time>
      </trkpt>
      <trkpt lat="47.521122" lon="2.0682695">
        <ele>156.0</ele>
        <time>2022-02-27T09:52:38Z</time>
      </trkpt>
      <trkpt lat="47.521122" lon="2.068258">
        <ele>155.0</ele>
        <time>2022-02-27T09:52:39Z</time>
      </trkpt>
      <trkpt lat="47.521122" lon="2.0682366">
        <ele>154.0</ele>
        <time>2022-02-27T09:52:40Z</time>
      </trkpt>
      <trkpt lat="47.521122" lon="2.0682204">
        <ele>154.0</ele>
        <time>2022-02-27T09:52:41Z</time>
      </trkpt>
      <trkpt lat="47.521122" lon="2.0682049">
        <ele>153.0</ele>
        <time>2022-02-27T09:52:42Z</time>
      </trkpt>
      <trkpt lat="47.52112" lon="2.06819">
        <ele>153.0</ele>
        <time>2022-02-27T09:52:43Z</time>
      </trkpt>
      <trkpt lat="47.52112" lon="2.0681736">
        <ele>152.0</ele>
        <time>2022-02-27T09:52:44Z</time>
      </trkpt>
      <trkpt lat="47.521122" lon="2.0681634">
        <ele>152.0</ele>
        <time>2022-02-27T09:52:45Z</time>
      </trkpt>
      <trkpt lat="47.52112" lon="2.0681467">
        <ele>152.0</ele>
        <time>2022-02-27T09:52:46Z</time>
      </trkpt>
      <trkpt lat="47.52112" lon="2.0681362">
        <ele>151.0</ele>
        <time>2022-02-27T09:52:47Z</time>
      </trkpt>
      <trkpt lat="47.52112" lon="2.068121">
        <ele>150.0</ele>
        <time>2022-02-27T09:52:48Z</time>
      </trkpt>
      <trkpt lat="47.52112" lon="2.0681062">
        <ele>150.0</ele>
        <time>2022-02-27T09:52:49Z</time>
      </trkpt>
      <trkpt lat="47.52112" lon="2.068096">
        <ele>150.0</ele>
        <time>2022-02-27T09:52:50Z</time>
      </trkpt>
      <trkpt lat="47.521114" lon="2.0680861">
        <ele>150.0</ele>
        <time>2022-02-27T09:52:51Z</time>
      </trkpt>
      <trkpt lat="47.521114" lon="2.0680718">
        <ele>150.0</ele>
        <time>2022-02-27T09:52:52Z</time>
      </trkpt>
      <trkpt lat="47.52111" lon="2.068054">
        <ele>150.0</ele>
        <time>2022-02-27T09:52:53Z</time>
      </trkpt>
      <trkpt lat="47.521107" lon="2.0680354">
        <ele>150.0</ele>
        <time>2022-02-27T09:52:54Z</time>
      </trkpt>
      <trkpt lat="47.521103" lon="2.0680213">
        <ele>150.0</ele>
        <time>2022-02-27T09:52:55Z</time>
      </trkpt>
      <trkpt lat="47.5211" lon="2.0680082">
        <ele>149.0</ele>
        <time>2022-02-27T09:52:56Z</time>
      </trkpt>
      <trkpt lat="47.521095" lon="2.0679903">
        <ele>150.0</ele>
        <time>2022-02-27T09:52:57Z</time>
      </trkpt>
      <trkpt lat="47.521095" lon="2.0679772">
        <ele>150.0</ele>
        <time>2022-02-27T09:52:58Z</time>
      </trkpt>
      <trkpt lat="47.521088" lon="2.067954">
        <ele>150.0</ele>
        <time>2022-02-27T09:52:59Z</time>
      </trkpt>
      <trkpt lat="47.521084" lon="2.067936">
        <ele>149.0</ele>
        <time>2022-02-27T09:53:00Z</time>
      </trkpt>
      <trkpt lat="47.521088" lon="2.0679212">
        <ele>149.0</ele>
        <time>2022-02-27T09:53:01Z</time>
      </trkpt>
      <trkpt lat="47.52108" lon="2.067905">
        <ele>149.0</ele>
        <time>2022-02-27T09:53:02Z</time>
      </trkpt>
      <trkpt lat="47.521076" lon="2.0678897">
        <ele>149.0</ele>
        <time>2022-02-27T09:53:03Z</time>
      </trkpt>
      <trkpt lat="47.521072" lon="2.0678666">
        <ele>148.0</ele>
        <time>2022-02-27T09:53:04Z</time>
      </trkpt>
      <trkpt lat="47.521072" lon="2.0678465">
        <ele>149.0</ele>
        <time>2022-02-27T09:53:05Z</time>
      </trkpt>
      <trkpt lat="47.52107" lon="2.0678284">
        <ele>149.0</ele>
        <time>2022-02-27T09:53:06Z</time>
      </trkpt>
      <trkpt lat="47.52107" lon="2.0678105">
        <ele>149.0</ele>
        <time>2022-02-27T09:53:07Z</time>
      </trkpt>
      <trkpt lat="47.521065" lon="2.0677948">
        <ele>148.0</ele>
        <time>2022-02-27T09:53:08Z</time>
      </trkpt>
      <trkpt lat="47.521065" lon="2.067779">
        <ele>148.0</ele>
        <time>2022-02-27T09:53:09Z</time>
      </trkpt>
      <trkpt lat="47.521065" lon="2.06776">
        <ele>148.0</ele>
        <time>2022-02-27T09:53:10Z</time>
      </trkpt>
      <trkpt lat="47.521065" lon="2.0677435">
        <ele>148.0</ele>
        <time>2022-02-27T09:53:11Z</time>
      </trkpt>
      <trkpt lat="47.52106" lon="2.0677297">
        <ele>148.0</ele>
        <time>2022-02-27T09:53:12Z</time>
      </trkpt>
      <trkpt lat="47.521065" lon="2.0677116">
        <ele>148.0</ele>
        <time>2022-02-27T09:53:13Z</time>
      </trkpt>
      <trkpt lat="47.52106" lon="2.067699">
        <ele>148.0</ele>
        <time>2022-02-27T09:53:14Z</time>
      </trkpt>
      <trkpt lat="47.521065" lon="2.0676847">
        <ele>148.0</ele>
        <time>2022-02-27T09:53:15Z</time>
      </trkpt>
      <trkpt lat="47.521065" lon="2.067673">
        <ele>148.0</ele>
        <time>2022-02-27T09:53:16Z</time>
      </trkpt>
      <trkpt lat="47.521065" lon="2.0676591">
        <ele>148.0</ele>
        <time>2022-02-27T09:53:17Z</time>
      </trkpt>
      <trkpt lat="47.521065" lon="2.067646">
        <ele>148.0</ele>
        <time>2022-02-27T09:53:18Z</time>
      </trkpt>
      <trkpt lat="47.52107" lon="2.0676305">
        <ele>148.0</ele>
        <time>2022-02-27T09:53:19Z</time>
      </trkpt>
      <trkpt lat="47.521072" lon="2.0676146">
        <ele>148.0</ele>
        <time>2022-02-27T09:53:20Z</time>
      </trkpt>
      <trkpt lat="47.521076" lon="2.0675979">
        <ele>148.0</ele>
        <time>2022-02-27T09:53:21Z</time>
      </trkpt>
      <trkpt lat="47.52108" lon="2.067579">
        <ele>148.0</ele>
        <time>2022-02-27T09:53:22Z</time>
      </trkpt>
      <trkpt lat="47.52108" lon="2.0675607">
        <ele>148.0</ele>
        <time>2022-02-27T09:53:23Z</time>
      </trkpt>
      <trkpt lat="47.521084" lon="2.0675426">
        <ele>148.0</ele>
        <time>2022-02-27T09:53:24Z</time>
      </trkpt>
      <trkpt lat="47.521084" lon="2.0675304">
        <ele>148.0</ele>
        <time>2022-02-27T09:53:25Z</time>
      </trkpt>
      <trkpt lat="47.521088" lon="2.0675163">
        <ele>148.0</ele>
        <time>2022-02-27T09:53:26Z</time>
      </trkpt>
      <trkpt lat="47.52109" lon="2.0675023">
        <ele>148.0</ele>
        <time>2022-02-27T09:53:27Z</time>
      </trkpt>
      <trkpt lat="47.521095" lon="2.067488">
        <ele>148.0</ele>
        <time>2022-02-27T09:53:28Z</time>
      </trkpt>
      <trkpt lat="47.5211" lon="2.0674715">
        <ele>148.0</ele>
        <time>2022-02-27T09:53:29Z</time>
      </trkpt>
      <trkpt lat="47.521103" lon="2.0674517">
        <ele>148.0</ele>
        <time>2022-02-27T09:53:30Z</time>
      </trkpt>
      <trkpt lat="47.521107" lon="2.0674336">
        <ele>148.0</ele>
        <time>2022-02-27T09:53:31Z</time>
      </trkpt>
      <trkpt lat="47.521107" lon="2.0674133">
        <ele>148.0</ele>
        <time>2022-02-27T09:53:32Z</time>
      </trkpt>
      <trkpt lat="47.52111" lon="2.0673964">
        <ele>148.0</ele>
        <time>2022-02-27T09:53:33Z</time>
      </trkpt>
      <trkpt lat="47.521114" lon="2.067378">
        <ele>148.0</ele>
        <time>2022-02-27T09:53:34Z</time>
      </trkpt>
      <trkpt lat="47.52112" lon="2.067359">
        <ele>148.0</ele>
        <time>2022-02-27T09:53:35Z</time>
      </trkpt>
      <trkpt lat="47.52112" lon="2.0673397">
        <ele>147.0</ele>
        <time>2022-02-27T09:53:36Z</time>
      </trkpt>
      <trkpt lat="47.521122" lon="2.0673237">
        <ele>148.0</ele>
        <time>2022-02-27T09:53:37Z</time>
      </trkpt>
      <trkpt lat="47.521122" lon="2.0673065">
        <ele>148.0</ele>
        <time>2022-02-27T09:53:38Z</time>
      </trkpt>
      <trkpt lat="47.521122" lon="2.067289">
        <ele>147.0</ele>
        <time>2022-02-27T09:53:39Z</time>
      </trkpt>
      <trkpt lat="47.521122" lon="2.067269">
        <ele>147.0</ele>
        <time>2022-02-27T09:53:40Z</time>
      </trkpt>
      <trkpt lat="47.521122" lon="2.06725">
        <ele>147.0</ele>
        <time>2022-02-27T09:53:41Z</time>
      </trkpt>
      <trkpt lat="47.521122" lon="2.0672307">
        <ele>147.0</ele>
        <time>2022-02-27T09:53:42Z</time>
      </trkpt>
      <trkpt lat="47.521126" lon="2.0672112">
        <ele>147.0</ele>
        <time>2022-02-27T09:53:43Z</time>
      </trkpt>
      <trkpt lat="47.521126" lon="2.067195">
        <ele>147.0</ele>
        <time>2022-02-27T09:53:44Z</time>
      </trkpt>
      <trkpt lat="47.52113" lon="2.0671802">
        <ele>147.0</ele>
        <time>2022-02-27T09:53:45Z</time>
      </trkpt>
      <trkpt lat="47.521133" lon="2.0671651">
        <ele>147.0</ele>
        <time>2022-02-27T09:53:46Z</time>
      </trkpt>
      <trkpt lat="47.521137" lon="2.0671482">
        <ele>147.0</ele>
        <time>2022-02-27T09:53:47Z</time>
      </trkpt>
      <trkpt lat="47.521137" lon="2.0671332">
        <ele>146.0</ele>
        <time>2022-02-27T09:53:48Z</time>
      </trkpt>
      <trkpt lat="47.521137" lon="2.067118">
        <ele>146.0</ele>
        <time>2022-02-27T09:53:49Z</time>
      </trkpt>
      <trkpt lat="47.521137" lon="2.067101">
        <ele>146.0</ele>
        <time>2022-02-27T09:53:50Z</time>
      </trkpt>
      <trkpt lat="47.521137" lon="2.0670822">
        <ele>146.0</ele>
        <time>2022-02-27T09:53:51Z</time>
      </trkpt>
      <trkpt lat="47.52114" lon="2.0670652">
        <ele>146.0</ele>
        <time>2022-02-27T09:53:52Z</time>
      </trkpt>
      <trkpt lat="47.521145" lon="2.0670478">
        <ele>147.0</ele>
        <time>2022-02-27T09:53:53Z</time>
      </trkpt>
      <trkpt lat="47.52115" lon="2.067028">
        <ele>147.0</ele>
        <time>2022-02-27T09:53:54Z</time>
      </trkpt>
      <trkpt lat="47.521152" lon="2.0670114">
        <ele>147.0</ele>
        <time>2022-02-27T09:53:55Z</time>
      </trkpt>
      <trkpt lat="47.521156" lon="2.0669966">
        <ele>147.0</ele>
        <time>2022-02-27T09:53:56Z</time>
      </trkpt>
      <trkpt lat="47.521156" lon="2.0669818">
        <ele>147.0</ele>
        <time>2022-02-27T09:53:57Z</time>
      </trkpt>
      <trkpt lat="47.521164" lon="2.0669632">
        <ele>147.0</ele>
        <time>2022-02-27T09:53:58Z</time>
      </trkpt>
      <trkpt lat="47.521164" lon="2.0669465">
        <ele>147.0</ele>
        <time>2022-02-27T09:53:59Z</time>
      </trkpt>
      <trkpt lat="47.521168" lon="2.0669336">
        <ele>147.0</ele>
        <time>2022-02-27T09:54:00Z</time>
      </trkpt>
      <trkpt lat="47.521168" lon="2.066916">
        <ele>147.0</ele>
        <time>2022-02-27T09:54:01Z</time>
      </trkpt>
      <trkpt lat="47.521168" lon="2.0669017">
        <ele>147.0</ele>
        <time>2022-02-27T09:54:02Z</time>
      </trkpt>
      <trkpt lat="47.52117" lon="2.0668848">
        <ele>147.0</ele>
        <time>2022-02-27T09:54:03Z</time>
      </trkpt>
      <trkpt lat="47.52118" lon="2.0668688">
        <ele>147.0</ele>
        <time>2022-02-27T09:54:04Z</time>
      </trkpt>
      <trkpt lat="47.521183" lon="2.06685">
        <ele>147.0</ele>
        <time>2022-02-27T09:54:05Z</time>
      </trkpt>
      <trkpt lat="47.52119" lon="2.0668352">
        <ele>147.0</ele>
        <time>2022-02-27T09:54:06Z</time>
      </trkpt>
      <trkpt lat="47.521194" lon="2.0668201">
        <ele>147.0</ele>
        <time>2022-02-27T09:54:07Z</time>
      </trkpt>
      <trkpt lat="47.5212" lon="2.0668046">
        <ele>147.0</ele>
        <time>2022-02-27T09:54:08Z</time>
      </trkpt>
      <trkpt lat="47.521202" lon="2.0667903">
        <ele>147.0</ele>
        <time>2022-02-27T09:54:09Z</time>
      </trkpt>
      <trkpt lat="47.521206" lon="2.0667756">
        <ele>147.0</ele>
        <time>2022-02-27T09:54:10Z</time>
      </trkpt>
      <trkpt lat="47.521206" lon="2.0667634">
        <ele>147.0</ele>
        <time>2022-02-27T09:54:11Z</time>
      </trkpt>
      <trkpt lat="47.521214" lon="2.0667539">
        <ele>147.0</ele>
        <time>2022-02-27T09:54:12Z</time>
      </trkpt>
      <trkpt lat="47.521214" lon="2.0667408">
        <ele>147.0</ele>
        <time>2022-02-27T09:54:13Z</time>
      </trkpt>
      <trkpt lat="47.52122" lon="2.0667257">
        <ele>147.0</ele>
        <time>2022-02-27T09:54:14Z</time>
      </trkpt>
      <trkpt lat="47.521225" lon="2.066713">
        <ele>147.0</ele>
        <time>2022-02-27T09:54:15Z</time>
      </trkpt>
      <trkpt lat="47.52123" lon="2.0667002">
        <ele>147.0</ele>
        <time>2022-02-27T09:54:16Z</time>
      </trkpt>
      <trkpt lat="47.52123" lon="2.0666876">
        <ele>147.0</ele>
        <time>2022-02-27T09:54:17Z</time>
      </trkpt>
      <trkpt lat="47.521225" lon="2.0666733">
        <ele>147.0</ele>
        <time>2022-02-27T09:54:18Z</time>
      </trkpt>
      <trkpt lat="47.52122" lon="2.066658">
        <ele>147.0</ele>
        <time>2022-02-27T09:54:19Z</time>
      </trkpt>
      <trkpt lat="47.521217" lon="2.066642">
        <ele>147.0</ele>
        <time>2022-02-27T09:54:20Z</time>
      </trkpt>
      <trkpt lat="47.52121" lon="2.0666232">
        <ele>147.0</ele>
        <time>2022-02-27T09:54:21Z</time>
      </trkpt>
      <trkpt lat="47.5212" lon="2.0666049">
        <ele>147.0</ele>
        <time>2022-02-27T09:54:22Z</time>
      </trkpt>
      <trkpt lat="47.521194" lon="2.0665898">
        <ele>147.0</ele>
        <time>2022-02-27T09:54:23Z</time>
      </trkpt>
      <trkpt lat="47.521187" lon="2.066572">
        <ele>148.0</ele>
        <time>2022-02-27T09:54:24Z</time>
      </trkpt>
      <trkpt lat="47.521175" lon="2.0665534">
        <ele>148.0</ele>
        <time>2022-02-27T09:54:25Z</time>
      </trkpt>
      <trkpt lat="47.521168" lon="2.0665424">
        <ele>148.0</ele>
        <time>2022-02-27T09:54:26Z</time>
      </trkpt>
      <trkpt lat="47.521164" lon="2.0665221">
        <ele>148.0</ele>
        <time>2022-02-27T09:54:27Z</time>
      </trkpt>
      <trkpt lat="47.52116" lon="2.0665026">
        <ele>149.0</ele>
        <time>2022-02-27T09:54:28Z</time>
      </trkpt>
      <trkpt lat="47.52115" lon="2.0664837">
        <ele>149.0</ele>
        <time>2022-02-27T09:54:29Z</time>
      </trkpt>
      <trkpt lat="47.521137" lon="2.0664656">
        <ele>149.0</ele>
        <time>2022-02-27T09:54:30Z</time>
      </trkpt>
      <trkpt lat="47.52113" lon="2.0664532">
        <ele>150.0</ele>
        <time>2022-02-27T09:54:31Z</time>
      </trkpt>
      <trkpt lat="47.521122" lon="2.0664384">
        <ele>150.0</ele>
        <time>2022-02-27T09:54:32Z</time>
      </trkpt>
      <trkpt lat="47.52112" lon="2.0664277">
        <ele>150.0</ele>
        <time>2022-02-27T09:54:33Z</time>
      </trkpt>
      <trkpt lat="47.521107" lon="2.0664155">
        <ele>150.0</ele>
        <time>2022-02-27T09:54:34Z</time>
      </trkpt>
      <trkpt lat="47.521095" lon="2.0663998">
        <ele>151.0</ele>
        <time>2022-02-27T09:54:35Z</time>
      </trkpt>
      <trkpt lat="47.521088" lon="2.0663848">
        <ele>151.0</ele>
        <time>2022-02-27T09:54:36Z</time>
      </trkpt>
      <trkpt lat="47.521076" lon="2.06637">
        <ele>151.0</ele>
        <time>2022-02-27T09:54:37Z</time>
      </trkpt>
      <trkpt lat="47.52107" lon="2.0663557">
        <ele>152.0</ele>
        <time>2022-02-27T09:54:38Z</time>
      </trkpt>
      <trkpt lat="47.521057" lon="2.0663462">
        <ele>152.0</ele>
        <time>2022-02-27T09:54:39Z</time>
      </trkpt>
      <trkpt lat="47.52105" lon="2.066337">
        <ele>152.0</ele>
        <time>2022-02-27T09:54:40Z</time>
      </trkpt>
      <trkpt lat="47.521038" lon="2.0663304">
        <ele>152.0</ele>
        <time>2022-02-27T09:54:41Z</time>
      </trkpt>
      <trkpt lat="47.521034" lon="2.0663302">
        <ele>152.0</ele>
        <time>2022-02-27T09:54:42Z</time>
      </trkpt>
      <trkpt lat="47.521027" lon="2.066324">
        <ele>152.0</ele>
        <time>2022-02-27T09:54:43Z</time>
      </trkpt>
      <trkpt lat="47.521015" lon="2.0663154">
        <ele>152.0</ele>
        <time>2022-02-27T09:54:44Z</time>
      </trkpt>
      <trkpt lat="47.521" lon="2.0663073">
        <ele>153.0</ele>
        <time>2022-02-27T09:54:45Z</time>
      </trkpt>
      <trkpt lat="47.52099" lon="2.066295">
        <ele>152.0</ele>
        <time>2022-02-27T09:54:46Z</time>
      </trkpt>
      <trkpt lat="47.520977" lon="2.066284">
        <ele>153.0</ele>
        <time>2022-02-27T09:54:47Z</time>
      </trkpt>
      <trkpt lat="47.52097" lon="2.0662713">
        <ele>153.0</ele>
        <time>2022-02-27T09:54:48Z</time>
      </trkpt>
      <trkpt lat="47.52096" lon="2.0662613">
        <ele>152.0</ele>
        <time>2022-02-27T09:54:49Z</time>
      </trkpt>
      <trkpt lat="47.52095" lon="2.066254">
        <ele>152.0</ele>
        <time>2022-02-27T09:54:50Z</time>
      </trkpt>
      <trkpt lat="47.52094" lon="2.0662405">
        <ele>152.0</ele>
        <time>2022-02-27T09:54:51Z</time>
      </trkpt>
      <trkpt lat="47.520927" lon="2.066225">
        <ele>152.0</ele>
        <time>2022-02-27T09:54:52Z</time>
      </trkpt>
      <trkpt lat="47.52092" lon="2.0662136">
        <ele>152.0</ele>
        <time>2022-02-27T09:54:53Z</time>
      </trkpt>
      <trkpt lat="47.52091" lon="2.0661995">
        <ele>152.0</ele>
        <time>2022-02-27T09:54:54Z</time>
      </trkpt>
      <trkpt lat="47.520897" lon="2.0661898">
        <ele>152.0</ele>
        <time>2022-02-27T09:54:55Z</time>
      </trkpt>
      <trkpt lat="47.520885" lon="2.0661764">
        <ele>152.0</ele>
        <time>2022-02-27T09:54:56Z</time>
      </trkpt>
      <trkpt lat="47.520874" lon="2.066165">
        <ele>152.0</ele>
        <time>2022-02-27T09:54:57Z</time>
      </trkpt>
      <trkpt lat="47.520866" lon="2.0661542">
        <ele>152.0</ele>
        <time>2022-02-27T09:54:58Z</time>
      </trkpt>
      <trkpt lat="47.52086" lon="2.0661366">
        <ele>152.0</ele>
        <time>2022-02-27T09:54:59Z</time>
      </trkpt>
      <trkpt lat="47.520844" lon="2.0661256">
        <ele>152.0</ele>
        <time>2022-02-27T09:55:00Z</time>
      </trkpt>
      <trkpt lat="47.52084" lon="2.066111">
        <ele>152.0</ele>
        <time>2022-02-27T09:55:01Z</time>
      </trkpt>
      <trkpt lat="47.520832" lon="2.066103">
        <ele>153.0</ele>
        <time>2022-02-27T09:55:02Z</time>
      </trkpt>
      <trkpt lat="47.520824" lon="2.0660954">
        <ele>153.0</ele>
        <time>2022-02-27T09:55:03Z</time>
      </trkpt>
      <trkpt lat="47.52082" lon="2.0660856">
        <ele>153.0</ele>
        <time>2022-02-27T09:55:04Z</time>
      </trkpt>
      <trkpt lat="47.52082" lon="2.0660856">
        <ele>153.0</ele>
        <time>2022-02-27T09:55:05Z</time>
      </trkpt>
      <trkpt lat="47.52082" lon="2.0660856">
        <ele>153.0</ele>
        <time>2022-02-27T09:55:06Z</time>
      </trkpt>
      <trkpt lat="47.520798" lon="2.0660646">
        <ele>153.0</ele>
        <time>2022-02-27T09:55:07Z</time>
      </trkpt>
      <trkpt lat="47.52079" lon="2.0660532">
        <ele>153.0</ele>
        <time>2022-02-27T09:55:08Z</time>
      </trkpt>
      <trkpt lat="47.52078" lon="2.0660415">
        <ele>153.0</ele>
        <time>2022-02-27T09:55:09Z</time>
      </trkpt>
      <trkpt lat="47.52077" lon="2.0660284">
        <ele>154.0</ele>
        <time>2022-02-27T09:55:10Z</time>
      </trkpt>
      <trkpt lat="47.52076" lon="2.0660207">
        <ele>154.0</ele>
        <time>2022-02-27T09:55:11Z</time>
      </trkpt>
      <trkpt lat="47.52075" lon="2.066012">
        <ele>154.0</ele>
        <time>2022-02-27T09:55:12Z</time>
      </trkpt>
      <trkpt lat="47.52074" lon="2.0659962">
        <ele>154.0</ele>
        <time>2022-02-27T09:55:13Z</time>
      </trkpt>
      <trkpt lat="47.52073" lon="2.065985">
        <ele>155.0</ele>
        <time>2022-02-27T09:55:14Z</time>
      </trkpt>
      <trkpt lat="47.52072" lon="2.065976">
        <ele>154.0</ele>
        <time>2022-02-27T09:55:15Z</time>
      </trkpt>
      <trkpt lat="47.52071" lon="2.0659623">
        <ele>154.0</ele>
        <time>2022-02-27T09:55:16Z</time>
      </trkpt>
      <trkpt lat="47.5207" lon="2.0659456">
        <ele>155.0</ele>
        <time>2022-02-27T09:55:17Z</time>
      </trkpt>
      <trkpt lat="47.52069" lon="2.0659301">
        <ele>155.0</ele>
        <time>2022-02-27T09:55:18Z</time>
      </trkpt>
      <trkpt lat="47.520683" lon="2.0659163">
        <ele>155.0</ele>
        <time>2022-02-27T09:55:19Z</time>
      </trkpt>
      <trkpt lat="47.52067" lon="2.0659053">
        <ele>155.0</ele>
        <time>2022-02-27T09:55:20Z</time>
      </trkpt>
      <trkpt lat="47.520664" lon="2.0658915">
        <ele>155.0</ele>
        <time>2022-02-27T09:55:21Z</time>
      </trkpt>
      <trkpt lat="47.520657" lon="2.0658772">
        <ele>155.0</ele>
        <time>2022-02-27T09:55:22Z</time>
      </trkpt>
      <trkpt lat="47.52065" lon="2.065866">
        <ele>156.0</ele>
        <time>2022-02-27T09:55:23Z</time>
      </trkpt>
      <trkpt lat="47.520645" lon="2.0658555">
        <ele>156.0</ele>
        <time>2022-02-27T09:55:24Z</time>
      </trkpt>
      <trkpt lat="47.520638" lon="2.0658429">
        <ele>156.0</ele>
        <time>2022-02-27T09:55:25Z</time>
      </trkpt>
      <trkpt lat="47.52063" lon="2.0658264">
        <ele>156.0</ele>
        <time>2022-02-27T09:55:26Z</time>
      </trkpt>
      <trkpt lat="47.520626" lon="2.0658095">
        <ele>156.0</ele>
        <time>2022-02-27T09:55:27Z</time>
      </trkpt>
      <trkpt lat="47.520622" lon="2.0657883">
        <ele>156.0</ele>
        <time>2022-02-27T09:55:28Z</time>
      </trkpt>
      <trkpt lat="47.520615" lon="2.0657668">
        <ele>157.0</ele>
        <time>2022-02-27T09:55:29Z</time>
      </trkpt>
      <trkpt lat="47.52061" lon="2.0657492">
        <ele>156.0</ele>
        <time>2022-02-27T09:55:30Z</time>
      </trkpt>
      <trkpt lat="47.52061" lon="2.06573">
        <ele>156.0</ele>
        <time>2022-02-27T09:55:31Z</time>
      </trkpt>
      <trkpt lat="47.52061" lon="2.06571">
        <ele>156.0</ele>
        <time>2022-02-27T09:55:32Z</time>
      </trkpt>
      <trkpt lat="47.520615" lon="2.065694">
        <ele>156.0</ele>
        <time>2022-02-27T09:55:33Z</time>
      </trkpt>
      <trkpt lat="47.520615" lon="2.0656817">
        <ele>155.0</ele>
        <time>2022-02-27T09:55:34Z</time>
      </trkpt>
      <trkpt lat="47.520615" lon="2.0656707">
        <ele>155.0</ele>
        <time>2022-02-27T09:55:35Z</time>
      </trkpt>
      <trkpt lat="47.52062" lon="2.0656605">
        <ele>154.0</ele>
        <time>2022-02-27T09:55:36Z</time>
      </trkpt>
      <trkpt lat="47.52062" lon="2.0656605">
        <ele>154.0</ele>
        <time>2022-02-27T09:55:37Z</time>
      </trkpt>
      <trkpt lat="47.52062" lon="2.0656605">
        <ele>154.0</ele>
        <time>2022-02-27T09:55:38Z</time>
      </trkpt>
      <trkpt lat="47.52062" lon="2.0656276">
        <ele>153.0</ele>
        <time>2022-02-27T09:55:39Z</time>
      </trkpt>
      <trkpt lat="47.52062" lon="2.0656126">
        <ele>152.0</ele>
        <time>2022-02-27T09:55:40Z</time>
      </trkpt>
      <trkpt lat="47.520622" lon="2.0655982">
        <ele>152.0</ele>
        <time>2022-02-27T09:55:41Z</time>
      </trkpt>
      <trkpt lat="47.520626" lon="2.0655863">
        <ele>151.0</ele>
        <time>2022-02-27T09:55:42Z</time>
      </trkpt>
      <trkpt lat="47.520626" lon="2.0655706">
        <ele>151.0</ele>
        <time>2022-02-27T09:55:43Z</time>
      </trkpt>
      <trkpt lat="47.520626" lon="2.065554">
        <ele>150.0</ele>
        <time>2022-02-27T09:55:44Z</time>
      </trkpt>
      <trkpt lat="47.520634" lon="2.0655377">
        <ele>150.0</ele>
        <time>2022-02-27T09:55:45Z</time>
      </trkpt>
      <trkpt lat="47.520638" lon="2.065519">
        <ele>150.0</ele>
        <time>2022-02-27T09:55:46Z</time>
      </trkpt>
      <trkpt lat="47.52064" lon="2.0655022">
        <ele>150.0</ele>
        <time>2022-02-27T09:55:47Z</time>
      </trkpt>
      <trkpt lat="47.520645" lon="2.0654862">
        <ele>150.0</ele>
        <time>2022-02-27T09:55:48Z</time>
      </trkpt>
      <trkpt lat="47.52065" lon="2.0654657">
        <ele>150.0</ele>
        <time>2022-02-27T09:55:49Z</time>
      </trkpt>
      <trkpt lat="47.520657" lon="2.0654497">
        <ele>149.0</ele>
        <time>2022-02-27T09:55:50Z</time>
      </trkpt>
      <trkpt lat="47.520664" lon="2.065436">
        <ele>149.0</ele>
        <time>2022-02-27T09:55:51Z</time>
      </trkpt>
      <trkpt lat="47.520668" lon="2.0654202">
        <ele>149.0</ele>
        <time>2022-02-27T09:55:52Z</time>
      </trkpt>
      <trkpt lat="47.520668" lon="2.065402">
        <ele>148.0</ele>
        <time>2022-02-27T09:55:53Z</time>
      </trkpt>
      <trkpt lat="47.520676" lon="2.0653868">
        <ele>148.0</ele>
        <time>2022-02-27T09:55:54Z</time>
      </trkpt>
      <trkpt lat="47.52068" lon="2.0653682">
        <ele>148.0</ele>
        <time>2022-02-27T09:55:55Z</time>
      </trkpt>
      <trkpt lat="47.520683" lon="2.065355">
        <ele>148.0</ele>
        <time>2022-02-27T09:55:56Z</time>
      </trkpt>
      <trkpt lat="47.520683" lon="2.0653439">
        <ele>148.0</ele>
        <time>2022-02-27T09:55:57Z</time>
      </trkpt>
      <trkpt lat="47.520687" lon="2.0653338">
        <ele>148.0</ele>
        <time>2022-02-27T09:55:58Z</time>
      </trkpt>
      <trkpt lat="47.520687" lon="2.0653338">
        <ele>148.0</ele>
        <time>2022-02-27T09:55:59Z</time>
      </trkpt>
      <trkpt lat="47.520687" lon="2.0653338">
        <ele>148.0</ele>
        <time>2022-02-27T09:56:00Z</time>
      </trkpt>
      <trkpt lat="47.52069" lon="2.065308">
        <ele>148.0</ele>
        <time>2022-02-27T09:56:01Z</time>
      </trkpt>
      <trkpt lat="47.52069" lon="2.0653026">
        <ele>149.0</ele>
        <time>2022-02-27T09:56:02Z</time>
      </trkpt>
      <trkpt lat="47.52069" lon="2.0653024">
        <ele>149.0</ele>
        <time>2022-02-27T09:56:03Z</time>
      </trkpt>
      <trkpt lat="47.520687" lon="2.0652995">
        <ele>149.0</ele>
        <time>2022-02-27T09:56:04Z</time>
      </trkpt>
      <trkpt lat="47.52068" lon="2.0652912">
        <ele>150.0</ele>
        <time>2022-02-27T09:56:05Z</time>
      </trkpt>
      <trkpt lat="47.52067" lon="2.0652852">
        <ele>150.0</ele>
        <time>2022-02-27T09:56:06Z</time>
      </trkpt>
      <trkpt lat="47.520668" lon="2.0652812">
        <ele>151.0</ele>
        <time>2022-02-27T09:56:07Z</time>
      </trkpt>
      <trkpt lat="47.52066" lon="2.06528">
        <ele>151.0</ele>
        <time>2022-02-27T09:56:08Z</time>
      </trkpt>
      <trkpt lat="47.520653" lon="2.0652752">
        <ele>151.0</ele>
        <time>2022-02-27T09:56:09Z</time>
      </trkpt>
      <trkpt lat="47.52064" lon="2.0652676">
        <ele>151.0</ele>
        <time>2022-02-27T09:56:10Z</time>
      </trkpt>
      <trkpt lat="47.52063" lon="2.0652592">
        <ele>152.0</ele>
        <time>2022-02-27T09:56:11Z</time>
      </trkpt>
      <trkpt lat="47.52062" lon="2.065253">
        <ele>152.0</ele>
        <time>2022-02-27T09:56:12Z</time>
      </trkpt>
      <trkpt lat="47.520607" lon="2.0652423">
        <ele>152.0</ele>
        <time>2022-02-27T09:56:13Z</time>
      </trkpt>
      <trkpt lat="47.520596" lon="2.0652287">
        <ele>152.0</ele>
        <time>2022-02-27T09:56:14Z</time>
      </trkpt>
      <trkpt lat="47.520588" lon="2.065217">
        <ele>152.0</ele>
        <time>2022-02-27T09:56:15Z</time>
      </trkpt>
      <trkpt lat="47.520576" lon="2.0652099">
        <ele>153.0</ele>
        <time>2022-02-27T09:56:16Z</time>
      </trkpt>
      <trkpt lat="47.52057" lon="2.0652044">
        <ele>153.0</ele>
        <time>2022-02-27T09:56:17Z</time>
      </trkpt>
      <trkpt lat="47.520554" lon="2.065198">
        <ele>154.0</ele>
        <time>2022-02-27T09:56:18Z</time>
      </trkpt>
      <trkpt lat="47.520542" lon="2.0651915">
        <ele>154.0</ele>
        <time>2022-02-27T09:56:19Z</time>
      </trkpt>
      <trkpt lat="47.520535" lon="2.0651875">
        <ele>155.0</ele>
        <time>2022-02-27T09:56:20Z</time>
      </trkpt>
      <trkpt lat="47.520523" lon="2.0651782">
        <ele>156.0</ele>
        <time>2022-02-27T09:56:21Z</time>
      </trkpt>
      <trkpt lat="47.520515" lon="2.0651708">
        <ele>156.0</ele>
        <time>2022-02-27T09:56:22Z</time>
      </trkpt>
      <trkpt lat="47.520504" lon="2.0651636">
        <ele>156.0</ele>
        <time>2022-02-27T09:56:23Z</time>
      </trkpt>
      <trkpt lat="47.52049" lon="2.0651553">
        <ele>157.0</ele>
        <time>2022-02-27T09:56:24Z</time>
      </trkpt>
      <trkpt lat="47.520477" lon="2.065153">
        <ele>157.0</ele>
        <time>2022-02-27T09:56:25Z</time>
      </trkpt>
      <trkpt lat="47.52047" lon="2.0651467">
        <ele>158.0</ele>
        <time>2022-02-27T09:56:26Z</time>
      </trkpt>
      <trkpt lat="47.52046" lon="2.0651429">
        <ele>158.0</ele>
        <time>2022-02-27T09:56:27Z</time>
      </trkpt>
      <trkpt lat="47.520447" lon="2.065145">
        <ele>158.0</ele>
        <time>2022-02-27T09:56:28Z</time>
      </trkpt>
      <trkpt lat="47.52044" lon="2.0651455">
        <ele>158.0</ele>
        <time>2022-02-27T09:56:29Z</time>
      </trkpt>
      <trkpt lat="47.520428" lon="2.0651398">
        <ele>158.0</ele>
        <time>2022-02-27T09:56:30Z</time>
      </trkpt>
      <trkpt lat="47.520412" lon="2.065135">
        <ele>159.0</ele>
        <time>2022-02-27T09:56:31Z</time>
      </trkpt>
      <trkpt lat="47.5204" lon="2.0651324">
        <ele>159.0</ele>
        <time>2022-02-27T09:56:32Z</time>
      </trkpt>
      <trkpt lat="47.52039" lon="2.0651293">
        <ele>159.0</ele>
        <time>2022-02-27T09:56:33Z</time>
      </trkpt>
      <trkpt lat="47.52038" lon="2.0651298">
        <ele>159.0</ele>
        <time>2022-02-27T09:56:34Z</time>
      </trkpt>
      <trkpt lat="47.520367" lon="2.065128">
        <ele>159.0</ele>
        <time>2022-02-27T09:56:35Z</time>
      </trkpt>
      <trkpt lat="47.520355" lon="2.065121">
        <ele>159.0</ele>
        <time>2022-02-27T09:56:36Z</time>
      </trkpt>
      <trkpt lat="47.520344" lon="2.065116">
        <ele>159.0</ele>
        <time>2022-02-27T09:56:37Z</time>
      </trkpt>
      <trkpt lat="47.520332" lon="2.0651162">
        <ele>159.0</ele>
        <time>2022-02-27T09:56:38Z</time>
      </trkpt>
      <trkpt lat="47.520325" lon="2.065117">
        <ele>159.0</ele>
        <time>2022-02-27T09:56:39Z</time>
      </trkpt>
      <trkpt lat="47.520313" lon="2.0651143">
        <ele>159.0</ele>
        <time>2022-02-27T09:56:40Z</time>
      </trkpt>
      <trkpt lat="47.520306" lon="2.0651128">
        <ele>159.0</ele>
        <time>2022-02-27T09:56:41Z</time>
      </trkpt>
      <trkpt lat="47.520294" lon="2.0651093">
        <ele>159.0</ele>
        <time>2022-02-27T09:56:42Z</time>
      </trkpt>
      <trkpt lat="47.520283" lon="2.0651062">
        <ele>159.0</ele>
        <time>2022-02-27T09:56:43Z</time>
      </trkpt>
      <trkpt lat="47.52027" lon="2.0651042">
        <ele>160.0</ele>
        <time>2022-02-27T09:56:44Z</time>
      </trkpt>
      <trkpt lat="47.52026" lon="2.0651057">
        <ele>160.0</ele>
        <time>2022-02-27T09:56:45Z</time>
      </trkpt>
      <trkpt lat="47.52026" lon="2.0651045">
        <ele>159.0</ele>
        <time>2022-02-27T09:56:46Z</time>
      </trkpt>
      <trkpt lat="47.520256" lon="2.065105">
        <ele>160.0</ele>
        <time>2022-02-27T09:56:47Z</time>
      </trkpt>
      <trkpt lat="47.52025" lon="2.0651104">
        <ele>160.0</ele>
        <time>2022-02-27T09:56:48Z</time>
      </trkpt>
      <trkpt lat="47.52025" lon="2.0651104">
        <ele>160.0</ele>
        <time>2022-02-27T09:56:49Z</time>
      </trkpt>
      <trkpt lat="47.520233" lon="2.065117">
        <ele>160.0</ele>
        <time>2022-02-27T09:56:50Z</time>
      </trkpt>
      <trkpt lat="47.520218" lon="2.0651183">
        <ele>160.0</ele>
        <time>2022-02-27T09:56:51Z</time>
      </trkpt>
      <trkpt lat="47.520206" lon="2.0651164">
        <ele>160.0</ele>
        <time>2022-02-27T09:56:52Z</time>
      </trkpt>
      <trkpt lat="47.52019" lon="2.0651155">
        <ele>160.0</ele>
        <time>2022-02-27T09:56:53Z</time>
      </trkpt>
      <trkpt lat="47.520184" lon="2.065114">
        <ele>161.0</ele>
        <time>2022-02-27T09:56:54Z</time>
      </trkpt>
      <trkpt lat="47.52017" lon="2.0651114">
        <ele>161.0</ele>
        <time>2022-02-27T09:56:55Z</time>
      </trkpt>
      <trkpt lat="47.52016" lon="2.0651093">
        <ele>161.0</ele>
        <time>2022-02-27T09:56:56Z</time>
      </trkpt>
      <trkpt lat="47.520145" lon="2.065105">
        <ele>160.0</ele>
        <time>2022-02-27T09:56:57Z</time>
      </trkpt>
      <trkpt lat="47.52013" lon="2.0651069">
        <ele>160.0</ele>
        <time>2022-02-27T09:56:58Z</time>
      </trkpt>
      <trkpt lat="47.520115" lon="2.0651088">
        <ele>160.0</ele>
        <time>2022-02-27T09:56:59Z</time>
      </trkpt>
      <trkpt lat="47.520103" lon="2.065107">
        <ele>160.0</ele>
        <time>2022-02-27T09:57:00Z</time>
      </trkpt>
      <trkpt lat="47.520096" lon="2.0651038">
        <ele>160.0</ele>
        <time>2022-02-27T09:57:01Z</time>
      </trkpt>
      <trkpt lat="47.520084" lon="2.0650969">
        <ele>160.0</ele>
        <time>2022-02-27T09:57:02Z</time>
      </trkpt>
      <trkpt lat="47.52007" lon="2.0650918">
        <ele>160.0</ele>
        <time>2022-02-27T09:57:03Z</time>
      </trkpt>
      <trkpt lat="47.520058" lon="2.065089">
        <ele>160.0</ele>
        <time>2022-02-27T09:57:04Z</time>
      </trkpt>
      <trkpt lat="47.520046" lon="2.065086">
        <ele>160.0</ele>
        <time>2022-02-27T09:57:05Z</time>
      </trkpt>
      <trkpt lat="47.520035" lon="2.0650847">
        <ele>160.0</ele>
        <time>2022-02-27T09:57:06Z</time>
      </trkpt>
      <trkpt lat="47.52002" lon="2.065086">
        <ele>160.0</ele>
        <time>2022-02-27T09:57:07Z</time>
      </trkpt>
      <trkpt lat="47.520004" lon="2.0650852">
        <ele>160.0</ele>
        <time>2022-02-27T09:57:08Z</time>
      </trkpt>
      <trkpt lat="47.51999" lon="2.0650797">
        <ele>159.0</ele>
        <time>2022-02-27T09:57:09Z</time>
      </trkpt>
      <trkpt lat="47.519978" lon="2.0650764">
        <ele>160.0</ele>
        <time>2022-02-27T09:57:10Z</time>
      </trkpt>
      <trkpt lat="47.519962" lon="2.0650759">
        <ele>160.0</ele>
        <time>2022-02-27T09:57:11Z</time>
      </trkpt>
      <trkpt lat="47.51995" lon="2.0650742">
        <ele>160.0</ele>
        <time>2022-02-27T09:57:12Z</time>
      </trkpt>
      <trkpt lat="47.519936" lon="2.0650737">
        <ele>160.0</ele>
        <time>2022-02-27T09:57:13Z</time>
      </trkpt>
      <trkpt lat="47.519924" lon="2.0650702">
        <ele>160.0</ele>
        <time>2022-02-27T09:57:14Z</time>
      </trkpt>
      <trkpt lat="47.51991" lon="2.0650666">
        <ele>160.0</ele>
        <time>2022-02-27T09:57:15Z</time>
      </trkpt>
      <trkpt lat="47.5199" lon="2.0650635">
        <ele>160.0</ele>
        <time>2022-02-27T09:57:16Z</time>
      </trkpt>
      <trkpt lat="47.51989" lon="2.0650573">
        <ele>160.0</ele>
        <time>2022-02-27T09:57:17Z</time>
      </trkpt>
      <trkpt lat="47.51988" lon="2.0650516">
        <ele>161.0</ele>
        <time>2022-02-27T09:57:18Z</time>
      </trkpt>
      <trkpt lat="47.519867" lon="2.065045">
        <ele>161.0</ele>
        <time>2022-02-27T09:57:19Z</time>
      </trkpt>
      <trkpt lat="47.519855" lon="2.0650373">
        <ele>160.0</ele>
        <time>2022-02-27T09:57:20Z</time>
      </trkpt>
      <trkpt lat="47.519844" lon="2.0650337">
        <ele>161.0</ele>
        <time>2022-02-27T09:57:21Z</time>
      </trkpt>
      <trkpt lat="47.51983" lon="2.0650282">
        <ele>161.0</ele>
        <time>2022-02-27T09:57:22Z</time>
      </trkpt>
      <trkpt lat="47.519817" lon="2.0650249">
        <ele>161.0</ele>
        <time>2022-02-27T09:57:23Z</time>
      </trkpt>
      <trkpt lat="47.519806" lon="2.065023">
        <ele>161.0</ele>
        <time>2022-02-27T09:57:24Z</time>
      </trkpt>
      <trkpt lat="47.51979" lon="2.0650215">
        <ele>161.0</ele>
        <time>2022-02-27T09:57:25Z</time>
      </trkpt>
      <trkpt lat="47.51978" lon="2.065019">
        <ele>161.0</ele>
        <time>2022-02-27T09:57:26Z</time>
      </trkpt>
      <trkpt lat="47.519768" lon="2.0650115">
        <ele>162.0</ele>
        <time>2022-02-27T09:57:27Z</time>
      </trkpt>
      <trkpt lat="47.519756" lon="2.0650058">
        <ele>162.0</ele>
        <time>2022-02-27T09:57:28Z</time>
      </trkpt>
      <trkpt lat="47.519745" lon="2.0650017">
        <ele>162.0</ele>
        <time>2022-02-27T09:57:29Z</time>
      </trkpt>
      <trkpt lat="47.519733" lon="2.0649977">
        <ele>162.0</ele>
        <time>2022-02-27T09:57:30Z</time>
      </trkpt>
      <trkpt lat="47.519722" lon="2.064992">
        <ele>162.0</ele>
        <time>2022-02-27T09:57:31Z</time>
      </trkpt>
      <trkpt lat="47.519714" lon="2.0649877">
        <ele>162.0</ele>
        <time>2022-02-27T09:57:32Z</time>
      </trkpt>
      <trkpt lat="47.519703" lon="2.0649774">
        <ele>162.0</ele>
        <time>2022-02-27T09:57:33Z</time>
      </trkpt>
      <trkpt lat="47.519695" lon="2.0649674">
        <ele>163.0</ele>
        <time>2022-02-27T09:57:34Z</time>
      </trkpt>
      <trkpt lat="47.519688" lon="2.0649576">
        <ele>162.0</ele>
        <time>2022-02-27T09:57:35Z</time>
      </trkpt>
      <trkpt lat="47.519676" lon="2.064949">
        <ele>163.0</ele>
        <time>2022-02-27T09:57:36Z</time>
      </trkpt>
      <trkpt lat="47.51966" lon="2.0649433">
        <ele>162.0</ele>
        <time>2022-02-27T09:57:37Z</time>
      </trkpt>
      <trkpt lat="47.51965" lon="2.064937">
        <ele>162.0</ele>
        <time>2022-02-27T09:57:38Z</time>
      </trkpt>
      <trkpt lat="47.51964" lon="2.0649273">
        <ele>162.0</ele>
        <time>2022-02-27T09:57:39Z</time>
      </trkpt>
      <trkpt lat="47.51963" lon="2.0649195">
        <ele>162.0</ele>
        <time>2022-02-27T09:57:40Z</time>
      </trkpt>
      <trkpt lat="47.519623" lon="2.0649111">
        <ele>162.0</ele>
        <time>2022-02-27T09:57:41Z</time>
      </trkpt>
      <trkpt lat="47.51961" lon="2.0649052">
        <ele>162.0</ele>
        <time>2022-02-27T09:57:42Z</time>
      </trkpt>
      <trkpt lat="47.5196" lon="2.064896">
        <ele>162.0</ele>
        <time>2022-02-27T09:57:43Z</time>
      </trkpt>
      <trkpt lat="47.519592" lon="2.064891">
        <ele>162.0</ele>
        <time>2022-02-27T09:57:44Z</time>
      </trkpt>
      <trkpt lat="47.51958" lon="2.0648878">
        <ele>163.0</ele>
        <time>2022-02-27T09:57:45Z</time>
      </trkpt>
      <trkpt lat="47.519573" lon="2.064882">
        <ele>163.0</ele>
        <time>2022-02-27T09:57:46Z</time>
      </trkpt>
      <trkpt lat="47.519566" lon="2.0648763">
        <ele>162.0</ele>
        <time>2022-02-27T09:57:47Z</time>
      </trkpt>
      <trkpt lat="47.519558" lon="2.064861">
        <ele>162.0</ele>
        <time>2022-02-27T09:57:48Z</time>
      </trkpt>
      <trkpt lat="47.51955" lon="2.0648482">
        <ele>162.0</ele>
        <time>2022-02-27T09:57:49Z</time>
      </trkpt>
      <trkpt lat="47.51954" lon="2.0648367">
        <ele>162.0</ele>
        <time>2022-02-27T09:57:50Z</time>
      </trkpt>
      <trkpt lat="47.51953" lon="2.0648165">
        <ele>162.0</ele>
        <time>2022-02-27T09:57:51Z</time>
      </trkpt>
      <trkpt lat="47.519516" lon="2.0648108">
        <ele>162.0</ele>
        <time>2022-02-27T09:57:52Z</time>
      </trkpt>
      <trkpt lat="47.519505" lon="2.064799">
        <ele>161.0</ele>
        <time>2022-02-27T09:57:53Z</time>
      </trkpt>
      <trkpt lat="47.51949" lon="2.0647879">
        <ele>161.0</ele>
        <time>2022-02-27T09:57:54Z</time>
      </trkpt>
      <trkpt lat="47.51948" lon="2.0647774">
        <ele>161.0</ele>
        <time>2022-02-27T09:57:55Z</time>
      </trkpt>
      <trkpt lat="47.519474" lon="2.064768">
        <ele>161.0</ele>
        <time>2022-02-27T09:57:56Z</time>
      </trkpt>
      <trkpt lat="47.519463" lon="2.06476">
        <ele>160.0</ele>
        <time>2022-02-27T09:57:57Z</time>
      </trkpt>
      <trkpt lat="47.51945" lon="2.064756">
        <ele>160.0</ele>
        <time>2022-02-27T09:57:58Z</time>
      </trkpt>
      <trkpt lat="47.519444" lon="2.0647507">
        <ele>160.0</ele>
        <time>2022-02-27T09:57:59Z</time>
      </trkpt>
      <trkpt lat="47.519436" lon="2.064747">
        <ele>160.0</ele>
        <time>2022-02-27T09:58:00Z</time>
      </trkpt>
      <trkpt lat="47.519424" lon="2.0647447">
        <ele>160.0</ele>
        <time>2022-02-27T09:58:01Z</time>
      </trkpt>
      <trkpt lat="47.519413" lon="2.0647423">
        <ele>160.0</ele>
        <time>2022-02-27T09:58:02Z</time>
      </trkpt>
      <trkpt lat="47.519413" lon="2.0647423">
        <ele>160.0</ele>
        <time>2022-02-27T09:58:03Z</time>
      </trkpt>
      <trkpt lat="47.519413" lon="2.0647423">
        <ele>160.0</ele>
        <time>2022-02-27T09:58:04Z</time>
      </trkpt>
      <trkpt lat="47.519386" lon="2.0647314">
        <ele>160.0</ele>
        <time>2022-02-27T09:58:05Z</time>
      </trkpt>
      <trkpt lat="47.51938" lon="2.0647237">
        <ele>160.0</ele>
        <time>2022-02-27T09:58:06Z</time>
      </trkpt>
      <trkpt lat="47.519363" lon="2.0647106">
        <ele>160.0</ele>
        <time>2022-02-27T09:58:07Z</time>
      </trkpt>
      <trkpt lat="47.51935" lon="2.0647008">
        <ele>160.0</ele>
        <time>2022-02-27T09:58:08Z</time>
      </trkpt>
      <trkpt lat="47.519337" lon="2.0646923">
        <ele>160.0</ele>
        <time>2022-02-27T09:58:09Z</time>
      </trkpt>
      <trkpt lat="47.519325" lon="2.064683">
        <ele>160.0</ele>
        <time>2022-02-27T09:58:10Z</time>
      </trkpt>
      <trkpt lat="47.519318" lon="2.0646744">
        <ele>161.0</ele>
        <time>2022-02-27T09:58:11Z</time>
      </trkpt>
      <trkpt lat="47.519306" lon="2.064668">
        <ele>161.0</ele>
        <time>2022-02-27T09:58:12Z</time>
      </trkpt>
      <trkpt lat="47.5193" lon="2.064664">
        <ele>161.0</ele>
        <time>2022-02-27T09:58:13Z</time>
      </trkpt>
      <trkpt lat="47.519287" lon="2.064653">
        <ele>161.0</ele>
        <time>2022-02-27T09:58:14Z</time>
      </trkpt>
      <trkpt lat="47.519287" lon="2.064653">
        <ele>161.0</ele>
        <time>2022-02-27T09:58:15Z</time>
      </trkpt>
      <trkpt lat="47.519287" lon="2.064653">
        <ele>161.0</ele>
        <time>2022-02-27T09:58:16Z</time>
      </trkpt>
      <trkpt lat="47.51926" lon="2.0646358">
        <ele>161.0</ele>
        <time>2022-02-27T09:58:17Z</time>
      </trkpt>
      <trkpt lat="47.51925" lon="2.0646298">
        <ele>161.0</ele>
        <time>2022-02-27T09:58:18Z</time>
      </trkpt>
      <trkpt lat="47.519245" lon="2.064621">
        <ele>161.0</ele>
        <time>2022-02-27T09:58:19Z</time>
      </trkpt>
      <trkpt lat="47.519234" lon="2.064613">
        <ele>161.0</ele>
        <time>2022-02-27T09:58:20Z</time>
      </trkpt>
      <trkpt lat="47.519226" lon="2.064607">
        <ele>160.0</ele>
        <time>2022-02-27T09:58:21Z</time>
      </trkpt>
      <trkpt lat="47.519215" lon="2.064595">
        <ele>160.0</ele>
        <time>2022-02-27T09:58:22Z</time>
      </trkpt>
      <trkpt lat="47.519207" lon="2.0645804">
        <ele>160.0</ele>
        <time>2022-02-27T09:58:23Z</time>
      </trkpt>
      <trkpt lat="47.519196" lon="2.0645735">
        <ele>160.0</ele>
        <time>2022-02-27T09:58:24Z</time>
      </trkpt>
      <trkpt lat="47.519184" lon="2.0645666">
        <ele>159.0</ele>
        <time>2022-02-27T09:58:25Z</time>
      </trkpt>
      <trkpt lat="47.519173" lon="2.064554">
        <ele>159.0</ele>
        <time>2022-02-27T09:58:26Z</time>
      </trkpt>
      <trkpt lat="47.51916" lon="2.0645437">
        <ele>159.0</ele>
        <time>2022-02-27T09:58:27Z</time>
      </trkpt>
      <trkpt lat="47.51915" lon="2.0645342">
        <ele>159.0</ele>
        <time>2022-02-27T09:58:28Z</time>
      </trkpt>
      <trkpt lat="47.51914" lon="2.0645223">
        <ele>159.0</ele>
        <time>2022-02-27T09:58:29Z</time>
      </trkpt>
      <trkpt lat="47.519127" lon="2.064511">
        <ele>159.0</ele>
        <time>2022-02-27T09:58:30Z</time>
      </trkpt>
      <trkpt lat="47.519115" lon="2.0645022">
        <ele>159.0</ele>
        <time>2022-02-27T09:58:31Z</time>
      </trkpt>
      <trkpt lat="47.519104" lon="2.0644958">
        <ele>158.0</ele>
        <time>2022-02-27T09:58:32Z</time>
      </trkpt>
      <trkpt lat="47.519093" lon="2.0644898">
        <ele>158.0</ele>
        <time>2022-02-27T09:58:33Z</time>
      </trkpt>
      <trkpt lat="47.51908" lon="2.064484">
        <ele>158.0</ele>
        <time>2022-02-27T09:58:34Z</time>
      </trkpt>
      <trkpt lat="47.51907" lon="2.064481">
        <ele>159.0</ele>
        <time>2022-02-27T09:58:35Z</time>
      </trkpt>
      <trkpt lat="47.51906" lon="2.0644753">
        <ele>159.0</ele>
        <time>2022-02-27T09:58:36Z</time>
      </trkpt>
      <trkpt lat="47.51905" lon="2.064463">
        <ele>159.0</ele>
        <time>2022-02-27T09:58:37Z</time>
      </trkpt>
      <trkpt lat="47.51904" lon="2.064453">
        <ele>159.0</ele>
        <time>2022-02-27T09:58:38Z</time>
      </trkpt>
      <trkpt lat="47.519028" lon="2.0644462">
        <ele>159.0</ele>
        <time>2022-02-27T09:58:39Z</time>
      </trkpt>
      <trkpt lat="47.519016" lon="2.064434">
        <ele>158.0</ele>
        <time>2022-02-27T09:58:40Z</time>
      </trkpt>
      <trkpt lat="47.519005" lon="2.0644238">
        <ele>158.0</ele>
        <time>2022-02-27T09:58:41Z</time>
      </trkpt>
      <trkpt lat="47.518997" lon="2.0644133">
        <ele>158.0</ele>
        <time>2022-02-27T09:58:42Z</time>
      </trkpt>
      <trkpt lat="47.518986" lon="2.0644004">
        <ele>158.0</ele>
        <time>2022-02-27T09:58:43Z</time>
      </trkpt>
      <trkpt lat="47.51898" lon="2.0643895">
        <ele>159.0</ele>
        <time>2022-02-27T09:58:44Z</time>
      </trkpt>
      <trkpt lat="47.518967" lon="2.0643828">
        <ele>159.0</ele>
        <time>2022-02-27T09:58:45Z</time>
      </trkpt>
      <trkpt lat="47.51896" lon="2.0643718">
        <ele>158.0</ele>
        <time>2022-02-27T09:58:46Z</time>
      </trkpt>
      <trkpt lat="47.518948" lon="2.0643573">
        <ele>158.0</ele>
        <time>2022-02-27T09:58:47Z</time>
      </trkpt>
      <trkpt lat="47.51894" lon="2.0643427">
        <ele>158.0</ele>
        <time>2022-02-27T09:58:48Z</time>
      </trkpt>
      <trkpt lat="47.518932" lon="2.0643368">
        <ele>158.0</ele>
        <time>2022-02-27T09:58:49Z</time>
      </trkpt>
      <trkpt lat="47.518925" lon="2.0643234">
        <ele>159.0</ele>
        <time>2022-02-27T09:58:50Z</time>
      </trkpt>
      <trkpt lat="47.518917" lon="2.0643134">
        <ele>159.0</ele>
        <time>2022-02-27T09:58:51Z</time>
      </trkpt>
      <trkpt lat="47.518906" lon="2.0643058">
        <ele>159.0</ele>
        <time>2022-02-27T09:58:52Z</time>
      </trkpt>
      <trkpt lat="47.518894" lon="2.0642965">
        <ele>159.0</ele>
        <time>2022-02-27T09:58:53Z</time>
      </trkpt>
      <trkpt lat="47.518883" lon="2.0642898">
        <ele>159.0</ele>
        <time>2022-02-27T09:58:54Z</time>
      </trkpt>
      <trkpt lat="47.51887" lon="2.0642805">
        <ele>159.0</ele>
        <time>2022-02-27T09:58:55Z</time>
      </trkpt>
      <trkpt lat="47.51886" lon="2.0642707">
        <ele>159.0</ele>
        <time>2022-02-27T09:58:56Z</time>
      </trkpt>
      <trkpt lat="47.51885" lon="2.064259">
        <ele>160.0</ele>
        <time>2022-02-27T09:58:57Z</time>
      </trkpt>
      <trkpt lat="47.518837" lon="2.0642498">
        <ele>159.0</ele>
        <time>2022-02-27T09:58:58Z</time>
      </trkpt>
      <trkpt lat="47.518833" lon="2.0642383">
        <ele>159.0</ele>
        <time>2022-02-27T09:58:59Z</time>
      </trkpt>
      <trkpt lat="47.518826" lon="2.064228">
        <ele>159.0</ele>
        <time>2022-02-27T09:59:00Z</time>
      </trkpt>
      <trkpt lat="47.518818" lon="2.06422">
        <ele>158.0</ele>
        <time>2022-02-27T09:59:01Z</time>
      </trkpt>
      <trkpt lat="47.518806" lon="2.0642068">
        <ele>158.0</ele>
        <time>2022-02-27T09:59:02Z</time>
      </trkpt>
      <trkpt lat="47.518795" lon="2.0641932">
        <ele>158.0</ele>
        <time>2022-02-27T09:59:03Z</time>
      </trkpt>
      <trkpt lat="47.518784" lon="2.0641818">
        <ele>158.0</ele>
        <time>2022-02-27T09:59:04Z</time>
      </trkpt>
      <trkpt lat="47.518772" lon="2.064169">
        <ele>158.0</ele>
        <time>2022-02-27T09:59:05Z</time>
      </trkpt>
      <trkpt lat="47.51876" lon="2.0641592">
        <ele>159.0</ele>
        <time>2022-02-27T09:59:06Z</time>
      </trkpt>
      <trkpt lat="47.51875" lon="2.0641482">
        <ele>159.0</ele>
        <time>2022-02-27T09:59:07Z</time>
      </trkpt>
      <trkpt lat="47.518738" lon="2.0641427">
        <ele>159.0</ele>
        <time>2022-02-27T09:59:08Z</time>
      </trkpt>
      <trkpt lat="47.518726" lon="2.0641346">
        <ele>159.0</ele>
        <time>2022-02-27T09:59:09Z</time>
      </trkpt>
      <trkpt lat="47.51872" lon="2.0641284">
        <ele>159.0</ele>
        <time>2022-02-27T09:59:10Z</time>
      </trkpt>
      <trkpt lat="47.518703" lon="2.0641181">
        <ele>159.0</ele>
        <time>2022-02-27T09:59:11Z</time>
      </trkpt>
      <trkpt lat="47.518692" lon="2.0641086">
        <ele>160.0</ele>
        <time>2022-02-27T09:59:12Z</time>
      </trkpt>
      <trkpt lat="47.51868" lon="2.064097">
        <ele>160.0</ele>
        <time>2022-02-27T09:59:13Z</time>
      </trkpt>
      <trkpt lat="47.51867" lon="2.064082">
        <ele>160.0</ele>
        <time>2022-02-27T09:59:14Z</time>
      </trkpt>
      <trkpt lat="47.518658" lon="2.0640683">
        <ele>160.0</ele>
        <time>2022-02-27T09:59:15Z</time>
      </trkpt>
      <trkpt lat="47.518642" lon="2.0640569">
        <ele>160.0</ele>
        <time>2022-02-27T09:59:16Z</time>
      </trkpt>
      <trkpt lat="47.51863" lon="2.064047">
        <ele>160.0</ele>
        <time>2022-02-27T09:59:17Z</time>
      </trkpt>
      <trkpt lat="47.51862" lon="2.0640352">
        <ele>161.0</ele>
        <time>2022-02-27T09:59:18Z</time>
      </trkpt>
      <trkpt lat="47.51861" lon="2.064022">
        <ele>161.0</ele>
        <time>2022-02-27T09:59:19Z</time>
      </trkpt>
      <trkpt lat="47.518597" lon="2.0640118">
        <ele>161.0</ele>
        <time>2022-02-27T09:59:20Z</time>
      </trkpt>
      <trkpt lat="47.51859" lon="2.0640013">
        <ele>160.0</ele>
        <time>2022-02-27T09:59:21Z</time>
      </trkpt>
      <trkpt lat="47.518585" lon="2.0639904">
        <ele>160.0</ele>
        <time>2022-02-27T09:59:22Z</time>
      </trkpt>
      <trkpt lat="47.518574" lon="2.0639803">
        <ele>161.0</ele>
        <time>2022-02-27T09:59:23Z</time>
      </trkpt>
      <trkpt lat="47.518562" lon="2.0639658">
        <ele>162.0</ele>
        <time>2022-02-27T09:59:24Z</time>
      </trkpt>
      <trkpt lat="47.51855" lon="2.0639532">
        <ele>162.0</ele>
        <time>2022-02-27T09:59:25Z</time>
      </trkpt>
      <trkpt lat="47.51854" lon="2.0639453">
        <ele>162.0</ele>
        <time>2022-02-27T09:59:26Z</time>
      </trkpt>
      <trkpt lat="47.518528" lon="2.0639353">
        <ele>162.0</ele>
        <time>2022-02-27T09:59:27Z</time>
      </trkpt>
      <trkpt lat="47.518528" lon="2.0639226">
        <ele>161.0</ele>
        <time>2022-02-27T09:59:28Z</time>
      </trkpt>
      <trkpt lat="47.51852" lon="2.0639138">
        <ele>161.0</ele>
        <time>2022-02-27T09:59:29Z</time>
      </trkpt>
      <trkpt lat="47.51851" lon="2.0639062">
        <ele>162.0</ele>
        <time>2022-02-27T09:59:30Z</time>
      </trkpt>
      <trkpt lat="47.51851" lon="2.0639062">
        <ele>162.0</ele>
        <time>2022-02-27T09:59:31Z</time>
      </trkpt>
      <trkpt lat="47.51851" lon="2.0639062">
        <ele>162.0</ele>
        <time>2022-02-27T09:59:32Z</time>
      </trkpt>
      <trkpt lat="47.51849" lon="2.0638835">
        <ele>161.0</ele>
        <time>2022-02-27T09:59:33Z</time>
      </trkpt>
      <trkpt lat="47.518482" lon="2.063875">
        <ele>161.0</ele>
        <time>2022-02-27T09:59:34Z</time>
      </trkpt>
      <trkpt lat="47.518475" lon="2.063863">
        <ele>161.0</ele>
        <time>2022-02-27T09:59:35Z</time>
      </trkpt>
      <trkpt lat="47.518463" lon="2.0638463">
        <ele>161.0</ele>
        <time>2022-02-27T09:59:36Z</time>
      </trkpt>
      <trkpt lat="47.51846" lon="2.063828">
        <ele>160.0</ele>
        <time>2022-02-27T09:59:37Z</time>
      </trkpt>
      <trkpt lat="47.51845" lon="2.0638127">
        <ele>160.0</ele>
        <time>2022-02-27T09:59:38Z</time>
      </trkpt>
      <trkpt lat="47.518448" lon="2.0637918">
        <ele>160.0</ele>
        <time>2022-02-27T09:59:39Z</time>
      </trkpt>
      <trkpt lat="47.518444" lon="2.0637712">
        <ele>161.0</ele>
        <time>2022-02-27T09:59:40Z</time>
      </trkpt>
      <trkpt lat="47.518448" lon="2.0637507">
        <ele>161.0</ele>
        <time>2022-02-27T09:59:41Z</time>
      </trkpt>
      <trkpt lat="47.518448" lon="2.06373">
        <ele>161.0</ele>
        <time>2022-02-27T09:59:42Z</time>
      </trkpt>
      <trkpt lat="47.518448" lon="2.0637102">
        <ele>161.0</ele>
        <time>2022-02-27T09:59:43Z</time>
      </trkpt>
      <trkpt lat="47.518448" lon="2.0636935">
        <ele>161.0</ele>
        <time>2022-02-27T09:59:44Z</time>
      </trkpt>
      <trkpt lat="47.51845" lon="2.0636756">
        <ele>160.0</ele>
        <time>2022-02-27T09:59:45Z</time>
      </trkpt>
      <trkpt lat="47.51845" lon="2.0636594">
        <ele>160.0</ele>
        <time>2022-02-27T09:59:46Z</time>
      </trkpt>
      <trkpt lat="47.518456" lon="2.0636463">
        <ele>160.0</ele>
        <time>2022-02-27T09:59:47Z</time>
      </trkpt>
      <trkpt lat="47.51846" lon="2.06363">
        <ele>160.0</ele>
        <time>2022-02-27T09:59:48Z</time>
      </trkpt>
      <trkpt lat="47.518467" lon="2.063621">
        <ele>160.0</ele>
        <time>2022-02-27T09:59:49Z</time>
      </trkpt>
      <trkpt lat="47.51847" lon="2.0636075">
        <ele>160.0</ele>
        <time>2022-02-27T09:59:50Z</time>
      </trkpt>
      <trkpt lat="47.518475" lon="2.0635958">
        <ele>160.0</ele>
        <time>2022-02-27T09:59:51Z</time>
      </trkpt>
      <trkpt lat="47.51848" lon="2.0635858">
        <ele>159.0</ele>
        <time>2022-02-27T09:59:52Z</time>
      </trkpt>
      <trkpt lat="47.518482" lon="2.0635757">
        <ele>159.0</ele>
        <time>2022-02-27T09:59:53Z</time>
      </trkpt>
      <trkpt lat="47.518482" lon="2.0635593">
        <ele>159.0</ele>
        <time>2022-02-27T09:59:54Z</time>
      </trkpt>
      <trkpt lat="47.518482" lon="2.0635471">
        <ele>159.0</ele>
        <time>2022-02-27T09:59:55Z</time>
      </trkpt>
      <trkpt lat="47.518482" lon="2.063535">
        <ele>159.0</ele>
        <time>2022-02-27T09:59:56Z</time>
      </trkpt>
      <trkpt lat="47.518482" lon="2.0635235">
        <ele>159.0</ele>
        <time>2022-02-27T09:59:57Z</time>
      </trkpt>
      <trkpt lat="47.518482" lon="2.0635118">
        <ele>159.0</ele>
        <time>2022-02-27T09:59:58Z</time>
      </trkpt>
      <trkpt lat="47.518486" lon="2.0635">
        <ele>159.0</ele>
        <time>2022-02-27T09:59:59Z</time>
      </trkpt>
      <trkpt lat="47.518482" lon="2.0634837">
        <ele>159.0</ele>
        <time>2022-02-27T10:00:00Z</time>
      </trkpt>
      <trkpt lat="47.518482" lon="2.063468">
        <ele>159.0</ele>
        <time>2022-02-27T10:00:01Z</time>
      </trkpt>
      <trkpt lat="47.51848" lon="2.0634508">
        <ele>159.0</ele>
        <time>2022-02-27T10:00:02Z</time>
      </trkpt>
      <trkpt lat="47.51848" lon="2.063438">
        <ele>159.0</ele>
        <time>2022-02-27T10:00:03Z</time>
      </trkpt>
      <trkpt lat="47.51848" lon="2.0634248">
        <ele>158.0</ele>
        <time>2022-02-27T10:00:04Z</time>
      </trkpt>
      <trkpt lat="47.518475" lon="2.063414">
        <ele>158.0</ele>
        <time>2022-02-27T10:00:05Z</time>
      </trkpt>
      <trkpt lat="47.518475" lon="2.063414">
        <ele>158.0</ele>
        <time>2022-02-27T10:00:06Z</time>
      </trkpt>
      <trkpt lat="47.51848" lon="2.0633886">
        <ele>158.0</ele>
        <time>2022-02-27T10:00:07Z</time>
      </trkpt>
      <trkpt lat="47.518475" lon="2.063375">
        <ele>158.0</ele>
        <time>2022-02-27T10:00:08Z</time>
      </trkpt>
      <trkpt lat="47.51848" lon="2.0633633">
        <ele>158.0</ele>
        <time>2022-02-27T10:00:09Z</time>
      </trkpt>
      <trkpt lat="47.51848" lon="2.0633504">
        <ele>158.0</ele>
        <time>2022-02-27T10:00:10Z</time>
      </trkpt>
      <trkpt lat="47.51848" lon="2.0633504">
        <ele>158.0</ele>
        <time>2022-02-27T10:00:11Z</time>
      </trkpt>
      <trkpt lat="47.51848" lon="2.0633504">
        <ele>158.0</ele>
        <time>2022-02-27T10:00:12Z</time>
      </trkpt>
      <trkpt lat="47.518486" lon="2.0633125">
        <ele>157.0</ele>
        <time>2022-02-27T10:00:13Z</time>
      </trkpt>
      <trkpt lat="47.518494" lon="2.0633023">
        <ele>157.0</ele>
        <time>2022-02-27T10:00:14Z</time>
      </trkpt>
      <trkpt lat="47.5185" lon="2.0632913">
        <ele>157.0</ele>
        <time>2022-02-27T10:00:15Z</time>
      </trkpt>
      <trkpt lat="47.5185" lon="2.0632854">
        <ele>157.0</ele>
        <time>2022-02-27T10:00:16Z</time>
      </trkpt>
      <trkpt lat="47.518505" lon="2.0632782">
        <ele>156.0</ele>
        <time>2022-02-27T10:00:17Z</time>
      </trkpt>
      <trkpt lat="47.518505" lon="2.0632782">
        <ele>156.0</ele>
        <time>2022-02-27T10:00:18Z</time>
      </trkpt>
      <trkpt lat="47.518513" lon="2.0632567">
        <ele>156.0</ele>
        <time>2022-02-27T10:00:19Z</time>
      </trkpt>
      <trkpt lat="47.518517" lon="2.063247">
        <ele>155.0</ele>
        <time>2022-02-27T10:00:20Z</time>
      </trkpt>
      <trkpt lat="47.51852" lon="2.0632389">
        <ele>155.0</ele>
        <time>2022-02-27T10:00:21Z</time>
      </trkpt>
      <trkpt lat="47.518524" lon="2.0632265">
        <ele>155.0</ele>
        <time>2022-02-27T10:00:22Z</time>
      </trkpt>
      <trkpt lat="47.518528" lon="2.063213">
        <ele>154.0</ele>
        <time>2022-02-27T10:00:23Z</time>
      </trkpt>
      <trkpt lat="47.51853" lon="2.0631993">
        <ele>154.0</ele>
        <time>2022-02-27T10:00:24Z</time>
      </trkpt>
      <trkpt lat="47.518536" lon="2.0631819">
        <ele>152.0</ele>
        <time>2022-02-27T10:00:25Z</time>
      </trkpt>
      <trkpt lat="47.51854" lon="2.0631673">
        <ele>152.0</ele>
        <time>2022-02-27T10:00:26Z</time>
      </trkpt>
      <trkpt lat="47.518543" lon="2.0631528">
        <ele>152.0</ele>
        <time>2022-02-27T10:00:27Z</time>
      </trkpt>
      <trkpt lat="47.518543" lon="2.0631344">
        <ele>151.0</ele>
        <time>2022-02-27T10:00:28Z</time>
      </trkpt>
      <trkpt lat="47.518543" lon="2.0631194">
        <ele>151.0</ele>
        <time>2022-02-27T10:00:29Z</time>
      </trkpt>
      <trkpt lat="47.518543" lon="2.0631044">
        <ele>150.0</ele>
        <time>2022-02-27T10:00:30Z</time>
      </trkpt>
      <trkpt lat="47.518543" lon="2.0630856">
        <ele>150.0</ele>
        <time>2022-02-27T10:00:31Z</time>
      </trkpt>
      <trkpt lat="47.518547" lon="2.0630703">
        <ele>150.0</ele>
        <time>2022-02-27T10:00:32Z</time>
      </trkpt>
      <trkpt lat="47.51855" lon="2.0630548">
        <ele>150.0</ele>
        <time>2022-02-27T10:00:33Z</time>
      </trkpt>
      <trkpt lat="47.518555" lon="2.0630417">
        <ele>150.0</ele>
        <time>2022-02-27T10:00:34Z</time>
      </trkpt>
      <trkpt lat="47.518555" lon="2.0630286">
        <ele>149.0</ele>
        <time>2022-02-27T10:00:35Z</time>
      </trkpt>
      <trkpt lat="47.51856" lon="2.0630102">
        <ele>149.0</ele>
        <time>2022-02-27T10:00:36Z</time>
      </trkpt>
      <trkpt lat="47.518562" lon="2.0629923">
        <ele>148.0</ele>
        <time>2022-02-27T10:00:37Z</time>
      </trkpt>
      <trkpt lat="47.51857" lon="2.0629745">
        <ele>148.0</ele>
        <time>2022-02-27T10:00:38Z</time>
      </trkpt>
      <trkpt lat="47.518574" lon="2.0629573">
        <ele>148.0</ele>
        <time>2022-02-27T10:00:39Z</time>
      </trkpt>
      <trkpt lat="47.51858" lon="2.0629404">
        <ele>148.0</ele>
        <time>2022-02-27T10:00:40Z</time>
      </trkpt>
      <trkpt lat="47.51858" lon="2.0629256">
        <ele>148.0</ele>
        <time>2022-02-27T10:00:41Z</time>
      </trkpt>
      <trkpt lat="47.518585" lon="2.0629177">
        <ele>148.0</ele>
        <time>2022-02-27T10:00:42Z</time>
      </trkpt>
      <trkpt lat="47.51859" lon="2.062901">
        <ele>148.0</ele>
        <time>2022-02-27T10:00:43Z</time>
      </trkpt>
      <trkpt lat="47.518593" lon="2.0628865">
        <ele>148.0</ele>
        <time>2022-02-27T10:00:44Z</time>
      </trkpt>
      <trkpt lat="47.5186" lon="2.0628707">
        <ele>148.0</ele>
        <time>2022-02-27T10:00:45Z</time>
      </trkpt>
      <trkpt lat="47.518604" lon="2.0628545">
        <ele>148.0</ele>
        <time>2022-02-27T10:00:46Z</time>
      </trkpt>
      <trkpt lat="47.51861" lon="2.0628374">
        <ele>148.0</ele>
        <time>2022-02-27T10:00:47Z</time>
      </trkpt>
      <trkpt lat="47.518616" lon="2.0628247">
        <ele>148.0</ele>
        <time>2022-02-27T10:00:48Z</time>
      </trkpt>
      <trkpt lat="47.51862" lon="2.0628102">
        <ele>149.0</ele>
        <time>2022-02-27T10:00:49Z</time>
      </trkpt>
      <trkpt lat="47.518623" lon="2.0628016">
        <ele>149.0</ele>
        <time>2022-02-27T10:00:50Z</time>
      </trkpt>
      <trkpt lat="47.518627" lon="2.062794">
        <ele>149.0</ele>
        <time>2022-02-27T10:00:51Z</time>
      </trkpt>
      <trkpt lat="47.518627" lon="2.0627787">
        <ele>149.0</ele>
        <time>2022-02-27T10:00:52Z</time>
      </trkpt>
      <trkpt lat="47.518627" lon="2.0627627">
        <ele>149.0</ele>
        <time>2022-02-27T10:00:53Z</time>
      </trkpt>
      <trkpt lat="47.518627" lon="2.0627513">
        <ele>148.0</ele>
        <time>2022-02-27T10:00:54Z</time>
      </trkpt>
      <trkpt lat="47.518627" lon="2.0627513">
        <ele>148.0</ele>
        <time>2022-02-27T10:00:55Z</time>
      </trkpt>
      <trkpt lat="47.518627" lon="2.062723">
        <ele>147.0</ele>
        <time>2022-02-27T10:00:56Z</time>
      </trkpt>
      <trkpt lat="47.518627" lon="2.0627015">
        <ele>147.0</ele>
        <time>2022-02-27T10:00:57Z</time>
      </trkpt>
      <trkpt lat="47.518623" lon="2.0626762">
        <ele>146.0</ele>
        <time>2022-02-27T10:00:58Z</time>
      </trkpt>
      <trkpt lat="47.518623" lon="2.0626493">
        <ele>146.0</ele>
        <time>2022-02-27T10:00:59Z</time>
      </trkpt>
      <trkpt lat="47.518623" lon="2.062628">
        <ele>146.0</ele>
        <time>2022-02-27T10:01:00Z</time>
      </trkpt>
      <trkpt lat="47.518623" lon="2.0626059">
        <ele>145.0</ele>
        <time>2022-02-27T10:01:01Z</time>
      </trkpt>
      <trkpt lat="47.518623" lon="2.0625854">
        <ele>145.0</ele>
        <time>2022-02-27T10:01:02Z</time>
      </trkpt>
      <trkpt lat="47.518627" lon="2.0625672">
        <ele>146.0</ele>
        <time>2022-02-27T10:01:03Z</time>
      </trkpt>
      <trkpt lat="47.51863" lon="2.0625532">
        <ele>146.0</ele>
        <time>2022-02-27T10:01:04Z</time>
      </trkpt>
      <trkpt lat="47.518635" lon="2.062537">
        <ele>146.0</ele>
        <time>2022-02-27T10:01:05Z</time>
      </trkpt>
      <trkpt lat="47.518635" lon="2.0625222">
        <ele>146.0</ele>
        <time>2022-02-27T10:01:06Z</time>
      </trkpt>
      <trkpt lat="47.518642" lon="2.0625057">
        <ele>146.0</ele>
        <time>2022-02-27T10:01:07Z</time>
      </trkpt>
      <trkpt lat="47.518646" lon="2.0624936">
        <ele>147.0</ele>
        <time>2022-02-27T10:01:08Z</time>
      </trkpt>
      <trkpt lat="47.51865" lon="2.0624778">
        <ele>147.0</ele>
        <time>2022-02-27T10:01:09Z</time>
      </trkpt>
      <trkpt lat="47.518654" lon="2.0624595">
        <ele>148.0</ele>
        <time>2022-02-27T10:01:10Z</time>
      </trkpt>
      <trkpt lat="47.51865" lon="2.062437">
        <ele>147.0</ele>
        <time>2022-02-27T10:01:11Z</time>
      </trkpt>
      <trkpt lat="47.51865" lon="2.062417">
        <ele>148.0</ele>
        <time>2022-02-27T10:01:12Z</time>
      </trkpt>
      <trkpt lat="47.51865" lon="2.0623984">
        <ele>148.0</ele>
        <time>2022-02-27T10:01:13Z</time>
      </trkpt>
      <trkpt lat="47.51865" lon="2.0623798">
        <ele>148.0</ele>
        <time>2022-02-27T10:01:14Z</time>
      </trkpt>
      <trkpt lat="47.51865" lon="2.0623624">
        <ele>148.0</ele>
        <time>2022-02-27T10:01:15Z</time>
      </trkpt>
      <trkpt lat="47.518646" lon="2.062342">
        <ele>149.0</ele>
        <time>2022-02-27T10:01:16Z</time>
      </trkpt>
      <trkpt lat="47.518646" lon="2.062327">
        <ele>148.0</ele>
        <time>2022-02-27T10:01:17Z</time>
      </trkpt>
      <trkpt lat="47.51865" lon="2.0623107">
        <ele>148.0</ele>
        <time>2022-02-27T10:01:18Z</time>
      </trkpt>
      <trkpt lat="47.518658" lon="2.0622907">
        <ele>148.0</ele>
        <time>2022-02-27T10:01:19Z</time>
      </trkpt>
      <trkpt lat="47.51866" lon="2.0622702">
        <ele>148.0</ele>
        <time>2022-02-27T10:01:20Z</time>
      </trkpt>
      <trkpt lat="47.51866" lon="2.062253">
        <ele>148.0</ele>
        <time>2022-02-27T10:01:21Z</time>
      </trkpt>
      <trkpt lat="47.51866" lon="2.0622451">
        <ele>148.0</ele>
        <time>2022-02-27T10:01:22Z</time>
      </trkpt>
      <trkpt lat="47.518665" lon="2.0622308">
        <ele>148.0</ele>
        <time>2022-02-27T10:01:23Z</time>
      </trkpt>
      <trkpt lat="47.51867" lon="2.0622182">
        <ele>148.0</ele>
        <time>2022-02-27T10:01:24Z</time>
      </trkpt>
      <trkpt lat="47.518677" lon="2.0622044">
        <ele>149.0</ele>
        <time>2022-02-27T10:01:25Z</time>
      </trkpt>
      <trkpt lat="47.51868" lon="2.0621908">
        <ele>148.0</ele>
        <time>2022-02-27T10:01:26Z</time>
      </trkpt>
      <trkpt lat="47.51869" lon="2.0621762">
        <ele>148.0</ele>
        <time>2022-02-27T10:01:27Z</time>
      </trkpt>
      <trkpt lat="47.51869" lon="2.062161">
        <ele>148.0</ele>
        <time>2022-02-27T10:01:28Z</time>
      </trkpt>
      <trkpt lat="47.518684" lon="2.0621417">
        <ele>148.0</ele>
        <time>2022-02-27T10:01:29Z</time>
      </trkpt>
      <trkpt lat="47.518684" lon="2.0621417">
        <ele>148.0</ele>
        <time>2022-02-27T10:01:30Z</time>
      </trkpt>
      <trkpt lat="47.518684" lon="2.0621083">
        <ele>148.0</ele>
        <time>2022-02-27T10:01:31Z</time>
      </trkpt>
      <trkpt lat="47.51868" lon="2.0620823">
        <ele>148.0</ele>
        <time>2022-02-27T10:01:32Z</time>
      </trkpt>
      <trkpt lat="47.518684" lon="2.0620637">
        <ele>148.0</ele>
        <time>2022-02-27T10:01:33Z</time>
      </trkpt>
      <trkpt lat="47.518684" lon="2.0620449">
        <ele>148.0</ele>
        <time>2022-02-27T10:01:34Z</time>
      </trkpt>
      <trkpt lat="47.51869" lon="2.0620275">
        <ele>148.0</ele>
        <time>2022-02-27T10:01:35Z</time>
      </trkpt>
      <trkpt lat="47.51869" lon="2.0620143">
        <ele>148.0</ele>
        <time>2022-02-27T10:01:36Z</time>
      </trkpt>
      <trkpt lat="47.51869" lon="2.0620005">
        <ele>147.0</ele>
        <time>2022-02-27T10:01:37Z</time>
      </trkpt>
      <trkpt lat="47.51869" lon="2.061985">
        <ele>147.0</ele>
        <time>2022-02-27T10:01:38Z</time>
      </trkpt>
      <trkpt lat="47.518692" lon="2.061975">
        <ele>147.0</ele>
        <time>2022-02-27T10:01:39Z</time>
      </trkpt>
      <trkpt lat="47.518692" lon="2.061975">
        <ele>147.0</ele>
        <time>2022-02-27T10:01:40Z</time>
      </trkpt>
      <trkpt lat="47.518692" lon="2.061975">
        <ele>147.0</ele>
        <time>2022-02-27T10:01:41Z</time>
      </trkpt>
      <trkpt lat="47.518703" lon="2.0619395">
        <ele>147.0</ele>
        <time>2022-02-27T10:01:42Z</time>
      </trkpt>
      <trkpt lat="47.518707" lon="2.061923">
        <ele>147.0</ele>
        <time>2022-02-27T10:01:43Z</time>
      </trkpt>
      <trkpt lat="47.51871" lon="2.061909">
        <ele>147.0</ele>
        <time>2022-02-27T10:01:44Z</time>
      </trkpt>
      <trkpt lat="47.518715" lon="2.0618978">
        <ele>147.0</ele>
        <time>2022-02-27T10:01:45Z</time>
      </trkpt>
      <trkpt lat="47.518715" lon="2.0618978">
        <ele>147.0</ele>
        <time>2022-02-27T10:01:46Z</time>
      </trkpt>
      <trkpt lat="47.51872" lon="2.0618641">
        <ele>146.0</ele>
        <time>2022-02-27T10:01:47Z</time>
      </trkpt>
      <trkpt lat="47.518723" lon="2.0618443">
        <ele>146.0</ele>
        <time>2022-02-27T10:01:48Z</time>
      </trkpt>
      <trkpt lat="47.518723" lon="2.0618205">
        <ele>145.0</ele>
        <time>2022-02-27T10:01:49Z</time>
      </trkpt>
      <trkpt lat="47.518726" lon="2.0618012">
        <ele>145.0</ele>
        <time>2022-02-27T10:01:50Z</time>
      </trkpt>
      <trkpt lat="47.518726" lon="2.0617802">
        <ele>145.0</ele>
        <time>2022-02-27T10:01:51Z</time>
      </trkpt>
      <trkpt lat="47.51873" lon="2.061763">
        <ele>145.0</ele>
        <time>2022-02-27T10:01:52Z</time>
      </trkpt>
      <trkpt lat="47.51873" lon="2.0617468">
        <ele>145.0</ele>
        <time>2022-02-27T10:01:53Z</time>
      </trkpt>
      <trkpt lat="47.51873" lon="2.061727">
        <ele>145.0</ele>
        <time>2022-02-27T10:01:54Z</time>
      </trkpt>
      <trkpt lat="47.51873" lon="2.0617115">
        <ele>145.0</ele>
        <time>2022-02-27T10:01:55Z</time>
      </trkpt>
      <trkpt lat="47.518734" lon="2.06169">
        <ele>144.0</ele>
        <time>2022-02-27T10:01:56Z</time>
      </trkpt>
      <trkpt lat="47.518738" lon="2.0616698">
        <ele>144.0</ele>
        <time>2022-02-27T10:01:57Z</time>
      </trkpt>
      <trkpt lat="47.518745" lon="2.0616486">
        <ele>144.0</ele>
        <time>2022-02-27T10:01:58Z</time>
      </trkpt>
      <trkpt lat="47.518745" lon="2.0616314">
        <ele>144.0</ele>
        <time>2022-02-27T10:01:59Z</time>
      </trkpt>
      <trkpt lat="47.518753" lon="2.0616195">
        <ele>144.0</ele>
        <time>2022-02-27T10:02:00Z</time>
      </trkpt>
      <trkpt lat="47.518757" lon="2.0616057">
        <ele>144.0</ele>
        <time>2022-02-27T10:02:01Z</time>
      </trkpt>
      <trkpt lat="47.51876" lon="2.0615919">
        <ele>144.0</ele>
        <time>2022-02-27T10:02:02Z</time>
      </trkpt>
      <trkpt lat="47.51876" lon="2.0615816">
        <ele>144.0</ele>
        <time>2022-02-27T10:02:03Z</time>
      </trkpt>
      <trkpt lat="47.518764" lon="2.0615745">
        <ele>144.0</ele>
        <time>2022-02-27T10:02:04Z</time>
      </trkpt>
      <trkpt lat="47.518764" lon="2.0615745">
        <ele>144.0</ele>
        <time>2022-02-27T10:02:05Z</time>
      </trkpt>
      <trkpt lat="47.518764" lon="2.0615745">
        <ele>144.0</ele>
        <time>2022-02-27T10:02:06Z</time>
      </trkpt>
      <trkpt lat="47.51878" lon="2.061545">
        <ele>146.0</ele>
        <time>2022-02-27T10:02:07Z</time>
      </trkpt>
      <trkpt lat="47.518787" lon="2.0615366">
        <ele>147.0</ele>
        <time>2022-02-27T10:02:08Z</time>
      </trkpt>
      <trkpt lat="47.51879" lon="2.0615242">
        <ele>148.0</ele>
        <time>2022-02-27T10:02:09Z</time>
      </trkpt>
      <trkpt lat="47.5188" lon="2.0615122">
        <ele>149.0</ele>
        <time>2022-02-27T10:02:10Z</time>
      </trkpt>
      <trkpt lat="47.518803" lon="2.0615106">
        <ele>149.0</ele>
        <time>2022-02-27T10:02:11Z</time>
      </trkpt>
      <trkpt lat="47.51881" lon="2.061509">
        <ele>150.0</ele>
        <time>2022-02-27T10:02:12Z</time>
      </trkpt>
      <trkpt lat="47.518818" lon="2.0615053">
        <ele>150.0</ele>
        <time>2022-02-27T10:02:13Z</time>
      </trkpt>
      <trkpt lat="47.518818" lon="2.0615053">
        <ele>150.0</ele>
        <time>2022-02-27T10:02:14Z</time>
      </trkpt>
      <trkpt lat="47.518818" lon="2.0615053">
        <ele>150.0</ele>
        <time>2022-02-27T10:02:15Z</time>
      </trkpt>
      <trkpt lat="47.518837" lon="2.0614908">
        <ele>151.0</ele>
        <time>2022-02-27T10:02:16Z</time>
      </trkpt>
      <trkpt lat="47.51884" lon="2.0614817">
        <ele>152.0</ele>
        <time>2022-02-27T10:02:17Z</time>
      </trkpt>
      <trkpt lat="47.518845" lon="2.0614734">
        <ele>153.0</ele>
        <time>2022-02-27T10:02:18Z</time>
      </trkpt>
      <trkpt lat="47.51885" lon="2.0614688">
        <ele>153.0</ele>
        <time>2022-02-27T10:02:19Z</time>
      </trkpt>
      <trkpt lat="47.51885" lon="2.0614688">
        <ele>153.0</ele>
        <time>2022-02-27T10:02:20Z</time>
      </trkpt>
      <trkpt lat="47.51885" lon="2.0614688">
        <ele>153.0</ele>
        <time>2022-02-27T10:02:21Z</time>
      </trkpt>
      <trkpt lat="47.51887" lon="2.0614624">
        <ele>154.0</ele>
        <time>2022-02-27T10:02:22Z</time>
      </trkpt>
      <trkpt lat="47.518883" lon="2.0614548">
        <ele>154.0</ele>
        <time>2022-02-27T10:02:23Z</time>
      </trkpt>
      <trkpt lat="47.518894" lon="2.0614483">
        <ele>154.0</ele>
        <time>2022-02-27T10:02:24Z</time>
      </trkpt>
      <trkpt lat="47.518906" lon="2.0614429">
        <ele>154.0</ele>
        <time>2022-02-27T10:02:25Z</time>
      </trkpt>
      <trkpt lat="47.518913" lon="2.0614398">
        <ele>154.0</ele>
        <time>2022-02-27T10:02:26Z</time>
      </trkpt>
      <trkpt lat="47.518925" lon="2.0614355">
        <ele>154.0</ele>
        <time>2022-02-27T10:02:27Z</time>
      </trkpt>
      <trkpt lat="47.518936" lon="2.0614357">
        <ele>155.0</ele>
        <time>2022-02-27T10:02:28Z</time>
      </trkpt>
      <trkpt lat="47.518944" lon="2.0614338">
        <ele>155.0</ele>
        <time>2022-02-27T10:02:29Z</time>
      </trkpt>
      <trkpt lat="47.518944" lon="2.0614338">
        <ele>155.0</ele>
        <time>2022-02-27T10:02:30Z</time>
      </trkpt>
      <trkpt lat="47.518944" lon="2.0614338">
        <ele>155.0</ele>
        <time>2022-02-27T10:02:31Z</time>
      </trkpt>
      <trkpt lat="47.518963" lon="2.0614316">
        <ele>155.0</ele>
        <time>2022-02-27T10:02:32Z</time>
      </trkpt>
      <trkpt lat="47.51897" lon="2.061431">
        <ele>156.0</ele>
        <time>2022-02-27T10:02:33Z</time>
      </trkpt>
      <trkpt lat="47.518982" lon="2.0614276">
        <ele>156.0</ele>
        <time>2022-02-27T10:02:34Z</time>
      </trkpt>
      <trkpt lat="47.51899" lon="2.0614262">
        <ele>156.0</ele>
        <time>2022-02-27T10:02:35Z</time>
      </trkpt>
      <trkpt lat="47.519" lon="2.0614269">
        <ele>156.0</ele>
        <time>2022-02-27T10:02:36Z</time>
      </trkpt>
      <trkpt lat="47.519012" lon="2.0614243">
        <ele>157.0</ele>
        <time>2022-02-27T10:02:37Z</time>
      </trkpt>
      <trkpt lat="47.519024" lon="2.0614185">
        <ele>157.0</ele>
        <time>2022-02-27T10:02:38Z</time>
      </trkpt>
      <trkpt lat="47.51903" lon="2.0614142">
        <ele>157.0</ele>
        <time>2022-02-27T10:02:39Z</time>
      </trkpt>
      <trkpt lat="47.51904" lon="2.0614142">
        <ele>158.0</ele>
        <time>2022-02-27T10:02:40Z</time>
      </trkpt>
      <trkpt lat="47.51904" lon="2.0614142">
        <ele>158.0</ele>
        <time>2022-02-27T10:02:41Z</time>
      </trkpt>
      <trkpt lat="47.51904" lon="2.0614142">
        <ele>158.0</ele>
        <time>2022-02-27T10:02:42Z</time>
      </trkpt>
      <trkpt lat="47.519062" lon="2.0614183">
        <ele>158.0</ele>
        <time>2022-02-27T10:02:43Z</time>
      </trkpt>
      <trkpt lat="47.51907" lon="2.0614223">
        <ele>159.0</ele>
        <time>2022-02-27T10:02:44Z</time>
      </trkpt>
      <trkpt lat="47.51908" lon="2.0614228">
        <ele>159.0</ele>
        <time>2022-02-27T10:02:45Z</time>
      </trkpt>
      <trkpt lat="47.519093" lon="2.0614235">
        <ele>159.0</ele>
        <time>2022-02-27T10:02:46Z</time>
      </trkpt>
      <trkpt lat="47.519108" lon="2.0614219">
        <ele>159.0</ele>
        <time>2022-02-27T10:02:47Z</time>
      </trkpt>
      <trkpt lat="47.519123" lon="2.0614262">
        <ele>158.0</ele>
        <time>2022-02-27T10:02:48Z</time>
      </trkpt>
      <trkpt lat="47.519135" lon="2.0614288">
        <ele>158.0</ele>
        <time>2022-02-27T10:02:49Z</time>
      </trkpt>
      <trkpt lat="47.51915" lon="2.0614328">
        <ele>159.0</ele>
        <time>2022-02-27T10:02:50Z</time>
      </trkpt>
      <trkpt lat="47.51917" lon="2.0614395">
        <ele>159.0</ele>
        <time>2022-02-27T10:02:51Z</time>
      </trkpt>
      <trkpt lat="47.51918" lon="2.0614471">
        <ele>159.0</ele>
        <time>2022-02-27T10:02:52Z</time>
      </trkpt>
      <trkpt lat="47.519196" lon="2.0614543">
        <ele>159.0</ele>
        <time>2022-02-27T10:02:53Z</time>
      </trkpt>
      <trkpt lat="47.519207" lon="2.0614603">
        <ele>159.0</ele>
        <time>2022-02-27T10:02:54Z</time>
      </trkpt>
      <trkpt lat="47.519222" lon="2.0614648">
        <ele>158.0</ele>
        <time>2022-02-27T10:02:55Z</time>
      </trkpt>
      <trkpt lat="47.519234" lon="2.0614722">
        <ele>158.0</ele>
        <time>2022-02-27T10:02:56Z</time>
      </trkpt>
      <trkpt lat="47.519245" lon="2.0614822">
        <ele>158.0</ele>
        <time>2022-02-27T10:02:57Z</time>
      </trkpt>
      <trkpt lat="47.519253" lon="2.0614917">
        <ele>158.0</ele>
        <time>2022-02-27T10:02:58Z</time>
      </trkpt>
      <trkpt lat="47.519264" lon="2.0614986">
        <ele>159.0</ele>
        <time>2022-02-27T10:02:59Z</time>
      </trkpt>
      <trkpt lat="47.51927" lon="2.0615027">
        <ele>159.0</ele>
        <time>2022-02-27T10:03:00Z</time>
      </trkpt>
      <trkpt lat="47.51928" lon="2.061506">
        <ele>158.0</ele>
        <time>2022-02-27T10:03:01Z</time>
      </trkpt>
      <trkpt lat="47.519287" lon="2.0615127">
        <ele>158.0</ele>
        <time>2022-02-27T10:03:02Z</time>
      </trkpt>
      <trkpt lat="47.5193" lon="2.0615199">
        <ele>158.0</ele>
        <time>2022-02-27T10:03:03Z</time>
      </trkpt>
      <trkpt lat="47.51931" lon="2.0615265">
        <ele>158.0</ele>
        <time>2022-02-27T10:03:04Z</time>
      </trkpt>
      <trkpt lat="47.51932" lon="2.06153">
        <ele>158.0</ele>
        <time>2022-02-27T10:03:05Z</time>
      </trkpt>
      <trkpt lat="47.519337" lon="2.0615294">
        <ele>158.0</ele>
        <time>2022-02-27T10:03:06Z</time>
      </trkpt>
      <trkpt lat="47.51935" lon="2.0615332">
        <ele>157.0</ele>
        <time>2022-02-27T10:03:07Z</time>
      </trkpt>
      <trkpt lat="47.51935" lon="2.0615332">
        <ele>157.0</ele>
        <time>2022-02-27T10:03:09Z</time>
      </trkpt>
      <trkpt lat="47.51937" lon="2.0615294">
        <ele>157.0</ele>
        <time>2022-02-27T10:03:10Z</time>
      </trkpt>
      <trkpt lat="47.519382" lon="2.06153">
        <ele>157.0</ele>
        <time>2022-02-27T10:03:11Z</time>
      </trkpt>
      <trkpt lat="47.519398" lon="2.0615249">
        <ele>158.0</ele>
        <time>2022-02-27T10:03:12Z</time>
      </trkpt>
      <trkpt lat="47.51941" lon="2.0615172">
        <ele>158.0</ele>
        <time>2022-02-27T10:03:13Z</time>
      </trkpt>
      <trkpt lat="47.51942" lon="2.0615048">
        <ele>158.0</ele>
        <time>2022-02-27T10:03:14Z</time>
      </trkpt>
      <trkpt lat="47.51943" lon="2.061493">
        <ele>158.0</ele>
        <time>2022-02-27T10:03:15Z</time>
      </trkpt>
      <trkpt lat="47.51944" lon="2.061478">
        <ele>158.0</ele>
        <time>2022-02-27T10:03:16Z</time>
      </trkpt>
      <trkpt lat="47.519455" lon="2.0614636">
        <ele>157.0</ele>
        <time>2022-02-27T10:03:17Z</time>
      </trkpt>
      <trkpt lat="47.51946" lon="2.0614538">
        <ele>157.0</ele>
        <time>2022-02-27T10:03:18Z</time>
      </trkpt>
      <trkpt lat="47.519466" lon="2.0614412">
        <ele>156.0</ele>
        <time>2022-02-27T10:03:19Z</time>
      </trkpt>
      <trkpt lat="47.519474" lon="2.0614293">
        <ele>157.0</ele>
        <time>2022-02-27T10:03:20Z</time>
      </trkpt>
      <trkpt lat="47.51948" lon="2.0614169">
        <ele>156.0</ele>
        <time>2022-02-27T10:03:21Z</time>
      </trkpt>
      <trkpt lat="47.51949" lon="2.061408">
        <ele>156.0</ele>
        <time>2022-02-27T10:03:22Z</time>
      </trkpt>
      <trkpt lat="47.5195" lon="2.061399">
        <ele>155.0</ele>
        <time>2022-02-27T10:03:23Z</time>
      </trkpt>
      <trkpt lat="47.51951" lon="2.0613863">
        <ele>156.0</ele>
        <time>2022-02-27T10:03:24Z</time>
      </trkpt>
      <trkpt lat="47.51951" lon="2.061377">
        <ele>156.0</ele>
        <time>2022-02-27T10:03:25Z</time>
      </trkpt>
      <trkpt lat="47.519505" lon="2.0613618">
        <ele>156.0</ele>
        <time>2022-02-27T10:03:26Z</time>
      </trkpt>
      <trkpt lat="47.519512" lon="2.0613418">
        <ele>157.0</ele>
        <time>2022-02-27T10:03:27Z</time>
      </trkpt>
      <trkpt lat="47.519524" lon="2.0613124">
        <ele>157.0</ele>
        <time>2022-02-27T10:03:28Z</time>
      </trkpt>
      <trkpt lat="47.51954" lon="2.0612843">
        <ele>157.0</ele>
        <time>2022-02-27T10:03:29Z</time>
      </trkpt>
      <trkpt lat="47.519547" lon="2.0612564">
        <ele>157.0</ele>
        <time>2022-02-27T10:03:30Z</time>
      </trkpt>
      <trkpt lat="47.519554" lon="2.0612347">
        <ele>157.0</ele>
        <time>2022-02-27T10:03:31Z</time>
      </trkpt>
      <trkpt lat="47.519566" lon="2.0612175">
        <ele>158.0</ele>
        <time>2022-02-27T10:03:32Z</time>
      </trkpt>
      <trkpt lat="47.519573" lon="2.0611992">
        <ele>158.0</ele>
        <time>2022-02-27T10:03:33Z</time>
      </trkpt>
      <trkpt lat="47.51958" lon="2.061184">
        <ele>158.0</ele>
        <time>2022-02-27T10:03:34Z</time>
      </trkpt>
      <trkpt lat="47.51959" lon="2.0611746">
        <ele>158.0</ele>
        <time>2022-02-27T10:03:35Z</time>
      </trkpt>
      <trkpt lat="47.519596" lon="2.061166">
        <ele>158.0</ele>
        <time>2022-02-27T10:03:36Z</time>
      </trkpt>
      <trkpt lat="47.5196" lon="2.0611513">
        <ele>158.0</ele>
        <time>2022-02-27T10:03:37Z</time>
      </trkpt>
      <trkpt lat="47.519604" lon="2.0611362">
        <ele>158.0</ele>
        <time>2022-02-27T10:03:38Z</time>
      </trkpt>
      <trkpt lat="47.519608" lon="2.0611188">
        <ele>158.0</ele>
        <time>2022-02-27T10:03:39Z</time>
      </trkpt>
      <trkpt lat="47.519608" lon="2.0611043">
        <ele>158.0</ele>
        <time>2022-02-27T10:03:40Z</time>
      </trkpt>
      <trkpt lat="47.519608" lon="2.061091">
        <ele>157.0</ele>
        <time>2022-02-27T10:03:41Z</time>
      </trkpt>
      <trkpt lat="47.51961" lon="2.0610757">
        <ele>157.0</ele>
        <time>2022-02-27T10:03:42Z</time>
      </trkpt>
      <trkpt lat="47.51961" lon="2.0610592">
        <ele>157.0</ele>
        <time>2022-02-27T10:03:43Z</time>
      </trkpt>
      <trkpt lat="47.519615" lon="2.061045">
        <ele>157.0</ele>
        <time>2022-02-27T10:03:44Z</time>
      </trkpt>
      <trkpt lat="47.519615" lon="2.0610318">
        <ele>157.0</ele>
        <time>2022-02-27T10:03:45Z</time>
      </trkpt>
      <trkpt lat="47.51962" lon="2.0610158">
        <ele>157.0</ele>
        <time>2022-02-27T10:03:46Z</time>
      </trkpt>
      <trkpt lat="47.519623" lon="2.0610018">
        <ele>157.0</ele>
        <time>2022-02-27T10:03:47Z</time>
      </trkpt>
      <trkpt lat="47.519627" lon="2.0609872">
        <ele>158.0</ele>
        <time>2022-02-27T10:03:48Z</time>
      </trkpt>
      <trkpt lat="47.519627" lon="2.0609767">
        <ele>158.0</ele>
        <time>2022-02-27T10:03:49Z</time>
      </trkpt>
      <trkpt lat="47.51963" lon="2.0609598">
        <ele>159.0</ele>
        <time>2022-02-27T10:03:50Z</time>
      </trkpt>
      <trkpt lat="47.519634" lon="2.0609443">
        <ele>160.0</ele>
        <time>2022-02-27T10:03:51Z</time>
      </trkpt>
      <trkpt lat="47.519634" lon="2.0609293">
        <ele>160.0</ele>
        <time>2022-02-27T10:03:52Z</time>
      </trkpt>
      <trkpt lat="47.519638" lon="2.060918">
        <ele>161.0</ele>
        <time>2022-02-27T10:03:53Z</time>
      </trkpt>
      <trkpt lat="47.51964" lon="2.0609057">
        <ele>161.0</ele>
        <time>2022-02-27T10:03:54Z</time>
      </trkpt>
      <trkpt lat="47.519646" lon="2.060891">
        <ele>161.0</ele>
        <time>2022-02-27T10:03:55Z</time>
      </trkpt>
      <trkpt lat="47.519646" lon="2.0608795">
        <ele>161.0</ele>
        <time>2022-02-27T10:03:56Z</time>
      </trkpt>
      <trkpt lat="47.519653" lon="2.0608718">
        <ele>161.0</ele>
        <time>2022-02-27T10:03:57Z</time>
      </trkpt>
      <trkpt lat="47.519657" lon="2.0608637">
        <ele>161.0</ele>
        <time>2022-02-27T10:03:58Z</time>
      </trkpt>
      <trkpt lat="47.51966" lon="2.0608566">
        <ele>162.0</ele>
        <time>2022-02-27T10:03:59Z</time>
      </trkpt>
      <trkpt lat="47.519665" lon="2.0608418">
        <ele>161.0</ele>
        <time>2022-02-27T10:04:00Z</time>
      </trkpt>
      <trkpt lat="47.519672" lon="2.0608244">
        <ele>161.0</ele>
        <time>2022-02-27T10:04:01Z</time>
      </trkpt>
      <trkpt lat="47.51968" lon="2.0608099">
        <ele>161.0</ele>
        <time>2022-02-27T10:04:02Z</time>
      </trkpt>
      <trkpt lat="47.519684" lon="2.060792">
        <ele>161.0</ele>
        <time>2022-02-27T10:04:03Z</time>
      </trkpt>
      <trkpt lat="47.519688" lon="2.0607724">
        <ele>159.0</ele>
        <time>2022-02-27T10:04:04Z</time>
      </trkpt>
      <trkpt lat="47.519695" lon="2.060748">
        <ele>158.0</ele>
        <time>2022-02-27T10:04:05Z</time>
      </trkpt>
      <trkpt lat="47.519695" lon="2.0607243">
        <ele>157.0</ele>
        <time>2022-02-27T10:04:06Z</time>
      </trkpt>
      <trkpt lat="47.519695" lon="2.0607018">
        <ele>156.0</ele>
        <time>2022-02-27T10:04:07Z</time>
      </trkpt>
      <trkpt lat="47.5197" lon="2.0606809">
        <ele>155.0</ele>
        <time>2022-02-27T10:04:08Z</time>
      </trkpt>
      <trkpt lat="47.5197" lon="2.0606613">
        <ele>154.0</ele>
        <time>2022-02-27T10:04:09Z</time>
      </trkpt>
      <trkpt lat="47.519703" lon="2.0606432">
        <ele>153.0</ele>
        <time>2022-02-27T10:04:10Z</time>
      </trkpt>
      <trkpt lat="47.519707" lon="2.0606294">
        <ele>153.0</ele>
        <time>2022-02-27T10:04:11Z</time>
      </trkpt>
      <trkpt lat="47.51971" lon="2.0606077">
        <ele>152.0</ele>
        <time>2022-02-27T10:04:12Z</time>
      </trkpt>
      <trkpt lat="47.51971" lon="2.0605938">
        <ele>152.0</ele>
        <time>2022-02-27T10:04:13Z</time>
      </trkpt>
      <trkpt lat="47.51971" lon="2.060579">
        <ele>152.0</ele>
        <time>2022-02-27T10:04:14Z</time>
      </trkpt>
      <trkpt lat="47.51971" lon="2.0605664">
        <ele>151.0</ele>
        <time>2022-02-27T10:04:15Z</time>
      </trkpt>
      <trkpt lat="47.51971" lon="2.0605543">
        <ele>151.0</ele>
        <time>2022-02-27T10:04:16Z</time>
      </trkpt>
      <trkpt lat="47.519714" lon="2.0605404">
        <ele>151.0</ele>
        <time>2022-02-27T10:04:17Z</time>
      </trkpt>
      <trkpt lat="47.519722" lon="2.0605257">
        <ele>151.0</ele>
        <time>2022-02-27T10:04:18Z</time>
      </trkpt>
      <trkpt lat="47.519726" lon="2.0605128">
        <ele>151.0</ele>
        <time>2022-02-27T10:04:19Z</time>
      </trkpt>
      <trkpt lat="47.51973" lon="2.060505">
        <ele>151.0</ele>
        <time>2022-02-27T10:04:20Z</time>
      </trkpt>
      <trkpt lat="47.519733" lon="2.060495">
        <ele>151.0</ele>
        <time>2022-02-27T10:04:21Z</time>
      </trkpt>
      <trkpt lat="47.519737" lon="2.0604837">
        <ele>151.0</ele>
        <time>2022-02-27T10:04:22Z</time>
      </trkpt>
      <trkpt lat="47.51974" lon="2.0604672">
        <ele>150.0</ele>
        <time>2022-02-27T10:04:23Z</time>
      </trkpt>
      <trkpt lat="47.51974" lon="2.060452">
        <ele>150.0</ele>
        <time>2022-02-27T10:04:24Z</time>
      </trkpt>
      <trkpt lat="47.519745" lon="2.0604384">
        <ele>149.0</ele>
        <time>2022-02-27T10:04:25Z</time>
      </trkpt>
      <trkpt lat="47.51974" lon="2.0604212">
        <ele>149.0</ele>
        <time>2022-02-27T10:04:26Z</time>
      </trkpt>
      <trkpt lat="47.51974" lon="2.060402">
        <ele>149.0</ele>
        <time>2022-02-27T10:04:27Z</time>
      </trkpt>
      <trkpt lat="47.51974" lon="2.0603874">
        <ele>148.0</ele>
        <time>2022-02-27T10:04:28Z</time>
      </trkpt>
      <trkpt lat="47.51974" lon="2.0603719">
        <ele>148.0</ele>
        <time>2022-02-27T10:04:29Z</time>
      </trkpt>
      <trkpt lat="47.519745" lon="2.060354">
        <ele>148.0</ele>
        <time>2022-02-27T10:04:30Z</time>
      </trkpt>
      <trkpt lat="47.519745" lon="2.0603383">
        <ele>147.0</ele>
        <time>2022-02-27T10:04:31Z</time>
      </trkpt>
      <trkpt lat="47.51975" lon="2.06032">
        <ele>147.0</ele>
        <time>2022-02-27T10:04:32Z</time>
      </trkpt>
      <trkpt lat="47.51975" lon="2.0603044">
        <ele>147.0</ele>
        <time>2022-02-27T10:04:33Z</time>
      </trkpt>
      <trkpt lat="47.519753" lon="2.0602932">
        <ele>147.0</ele>
        <time>2022-02-27T10:04:34Z</time>
      </trkpt>
      <trkpt lat="47.519756" lon="2.060281">
        <ele>147.0</ele>
        <time>2022-02-27T10:04:35Z</time>
      </trkpt>
      <trkpt lat="47.519756" lon="2.0602694">
        <ele>147.0</ele>
        <time>2022-02-27T10:04:36Z</time>
      </trkpt>
      <trkpt lat="47.519756" lon="2.0602694">
        <ele>147.0</ele>
        <time>2022-02-27T10:04:37Z</time>
      </trkpt>
      <trkpt lat="47.519756" lon="2.0602694">
        <ele>147.0</ele>
        <time>2022-02-27T10:04:38Z</time>
      </trkpt>
      <trkpt lat="47.51976" lon="2.0602372">
        <ele>147.0</ele>
        <time>2022-02-27T10:04:39Z</time>
      </trkpt>
      <trkpt lat="47.519764" lon="2.0602133">
        <ele>147.0</ele>
        <time>2022-02-27T10:04:40Z</time>
      </trkpt>
      <trkpt lat="47.519768" lon="2.0601904">
        <ele>147.0</ele>
        <time>2022-02-27T10:04:41Z</time>
      </trkpt>
      <trkpt lat="47.519768" lon="2.0601747">
        <ele>147.0</ele>
        <time>2022-02-27T10:04:42Z</time>
      </trkpt>
      <trkpt lat="47.51977" lon="2.0601592">
        <ele>147.0</ele>
        <time>2022-02-27T10:04:43Z</time>
      </trkpt>
      <trkpt lat="47.51977" lon="2.060142">
        <ele>146.0</ele>
        <time>2022-02-27T10:04:44Z</time>
      </trkpt>
      <trkpt lat="47.519775" lon="2.0601208">
        <ele>146.0</ele>
        <time>2022-02-27T10:04:45Z</time>
      </trkpt>
      <trkpt lat="47.51978" lon="2.0601025">
        <ele>146.0</ele>
        <time>2022-02-27T10:04:46Z</time>
      </trkpt>
      <trkpt lat="47.519783" lon="2.060082">
        <ele>146.0</ele>
        <time>2022-02-27T10:04:47Z</time>
      </trkpt>
      <trkpt lat="47.519787" lon="2.0600667">
        <ele>146.0</ele>
        <time>2022-02-27T10:04:48Z</time>
      </trkpt>
      <trkpt lat="47.51979" lon="2.0600474">
        <ele>146.0</ele>
        <time>2022-02-27T10:04:49Z</time>
      </trkpt>
      <trkpt lat="47.5198" lon="2.0600326">
        <ele>146.0</ele>
        <time>2022-02-27T10:04:50Z</time>
      </trkpt>
      <trkpt lat="47.519802" lon="2.060016">
        <ele>145.0</ele>
        <time>2022-02-27T10:04:51Z</time>
      </trkpt>
      <trkpt lat="47.519802" lon="2.0599997">
        <ele>145.0</ele>
        <time>2022-02-27T10:04:52Z</time>
      </trkpt>
      <trkpt lat="47.519806" lon="2.0599844">
        <ele>146.0</ele>
        <time>2022-02-27T10:04:53Z</time>
      </trkpt>
      <trkpt lat="47.519806" lon="2.0599844">
        <ele>146.0</ele>
        <time>2022-02-27T10:04:54Z</time>
      </trkpt>
      <trkpt lat="47.519806" lon="2.0599463">
        <ele>145.0</ele>
        <time>2022-02-27T10:04:55Z</time>
      </trkpt>
      <trkpt lat="47.519802" lon="2.059928">
        <ele>145.0</ele>
        <time>2022-02-27T10:04:56Z</time>
      </trkpt>
      <trkpt lat="47.519802" lon="2.059905">
        <ele>145.0</ele>
        <time>2022-02-27T10:04:57Z</time>
      </trkpt>
      <trkpt lat="47.519802" lon="2.0598872">
        <ele>145.0</ele>
        <time>2022-02-27T10:04:58Z</time>
      </trkpt>
      <trkpt lat="47.519802" lon="2.0598671">
        <ele>145.0</ele>
        <time>2022-02-27T10:04:59Z</time>
      </trkpt>
      <trkpt lat="47.519802" lon="2.0598495">
        <ele>145.0</ele>
        <time>2022-02-27T10:05:00Z</time>
      </trkpt>
      <trkpt lat="47.519806" lon="2.0598302">
        <ele>145.0</ele>
        <time>2022-02-27T10:05:01Z</time>
      </trkpt>
      <trkpt lat="47.51981" lon="2.0598135">
        <ele>146.0</ele>
        <time>2022-02-27T10:05:02Z</time>
      </trkpt>
      <trkpt lat="47.519814" lon="2.059798">
        <ele>146.0</ele>
        <time>2022-02-27T10:05:03Z</time>
      </trkpt>
      <trkpt lat="47.519817" lon="2.0597775">
        <ele>147.0</ele>
        <time>2022-02-27T10:05:04Z</time>
      </trkpt>
      <trkpt lat="47.519817" lon="2.0597556">
        <ele>147.0</ele>
        <time>2022-02-27T10:05:05Z</time>
      </trkpt>
      <trkpt lat="47.51982" lon="2.0597386">
        <ele>147.0</ele>
        <time>2022-02-27T10:05:06Z</time>
      </trkpt>
      <trkpt lat="47.519825" lon="2.0597227">
        <ele>147.0</ele>
        <time>2022-02-27T10:05:07Z</time>
      </trkpt>
      <trkpt lat="47.519833" lon="2.059704">
        <ele>148.0</ele>
        <time>2022-02-27T10:05:08Z</time>
      </trkpt>
      <trkpt lat="47.51984" lon="2.0596912">
        <ele>148.0</ele>
        <time>2022-02-27T10:05:09Z</time>
      </trkpt>
      <trkpt lat="47.519844" lon="2.0596793">
        <ele>148.0</ele>
        <time>2022-02-27T10:05:10Z</time>
      </trkpt>
      <trkpt lat="47.519848" lon="2.0596616">
        <ele>148.0</ele>
        <time>2022-02-27T10:05:11Z</time>
      </trkpt>
      <trkpt lat="47.51985" lon="2.0596468">
        <ele>148.0</ele>
        <time>2022-02-27T10:05:12Z</time>
      </trkpt>
      <trkpt lat="47.51985" lon="2.0596356">
        <ele>148.0</ele>
        <time>2022-02-27T10:05:13Z</time>
      </trkpt>
      <trkpt lat="47.519855" lon="2.0596197">
        <ele>148.0</ele>
        <time>2022-02-27T10:05:14Z</time>
      </trkpt>
      <trkpt lat="47.51986" lon="2.059604">
        <ele>148.0</ele>
        <time>2022-02-27T10:05:15Z</time>
      </trkpt>
      <trkpt lat="47.519855" lon="2.0595853">
        <ele>148.0</ele>
        <time>2022-02-27T10:05:16Z</time>
      </trkpt>
      <trkpt lat="47.51985" lon="2.0595675">
        <ele>148.0</ele>
        <time>2022-02-27T10:05:17Z</time>
      </trkpt>
      <trkpt lat="47.51985" lon="2.0595508">
        <ele>149.0</ele>
        <time>2022-02-27T10:05:18Z</time>
      </trkpt>
      <trkpt lat="47.51986" lon="2.0595307">
        <ele>148.0</ele>
        <time>2022-02-27T10:05:19Z</time>
      </trkpt>
      <trkpt lat="47.519867" lon="2.0595143">
        <ele>148.0</ele>
        <time>2022-02-27T10:05:20Z</time>
      </trkpt>
      <trkpt lat="47.51987" lon="2.0594969">
        <ele>148.0</ele>
        <time>2022-02-27T10:05:21Z</time>
      </trkpt>
      <trkpt lat="47.519875" lon="2.0594814">
        <ele>148.0</ele>
        <time>2022-02-27T10:05:22Z</time>
      </trkpt>
      <trkpt lat="47.519882" lon="2.059465">
        <ele>149.0</ele>
        <time>2022-02-27T10:05:23Z</time>
      </trkpt>
      <trkpt lat="47.519886" lon="2.0594485">
        <ele>149.0</ele>
        <time>2022-02-27T10:05:24Z</time>
      </trkpt>
      <trkpt lat="47.519894" lon="2.0594287">
        <ele>149.0</ele>
        <time>2022-02-27T10:05:25Z</time>
      </trkpt>
      <trkpt lat="47.519897" lon="2.0594122">
        <ele>149.0</ele>
        <time>2022-02-27T10:05:26Z</time>
      </trkpt>
      <trkpt lat="47.519897" lon="2.059412">
        <ele>149.0</ele>
        <time>2022-02-27T10:05:27Z</time>
      </trkpt>
      <trkpt lat="47.519897" lon="2.0594008">
        <ele>149.0</ele>
        <time>2022-02-27T10:05:28Z</time>
      </trkpt>
      <trkpt lat="47.519894" lon="2.0593843">
        <ele>149.0</ele>
        <time>2022-02-27T10:05:29Z</time>
      </trkpt>
      <trkpt lat="47.519894" lon="2.0593843">
        <ele>149.0</ele>
        <time>2022-02-27T10:05:30Z</time>
      </trkpt>
      <trkpt lat="47.519894" lon="2.0593843">
        <ele>149.0</ele>
        <time>2022-02-27T10:05:31Z</time>
      </trkpt>
      <trkpt lat="47.519897" lon="2.0593414">
        <ele>149.0</ele>
        <time>2022-02-27T10:05:32Z</time>
      </trkpt>
      <trkpt lat="47.5199" lon="2.0593169">
        <ele>149.0</ele>
        <time>2022-02-27T10:05:33Z</time>
      </trkpt>
      <trkpt lat="47.519905" lon="2.0592926">
        <ele>150.0</ele>
        <time>2022-02-27T10:05:34Z</time>
      </trkpt>
      <trkpt lat="47.51991" lon="2.0592697">
        <ele>150.0</ele>
        <time>2022-02-27T10:05:35Z</time>
      </trkpt>
      <trkpt lat="47.519917" lon="2.059249">
        <ele>150.0</ele>
        <time>2022-02-27T10:05:36Z</time>
      </trkpt>
      <trkpt lat="47.519924" lon="2.0592299">
        <ele>150.0</ele>
        <time>2022-02-27T10:05:37Z</time>
      </trkpt>
      <trkpt lat="47.51993" lon="2.0592182">
        <ele>150.0</ele>
        <time>2022-02-27T10:05:38Z</time>
      </trkpt>
      <trkpt lat="47.519936" lon="2.0592043">
        <ele>150.0</ele>
        <time>2022-02-27T10:05:39Z</time>
      </trkpt>
      <trkpt lat="47.51994" lon="2.0591917">
        <ele>150.0</ele>
        <time>2022-02-27T10:05:40Z</time>
      </trkpt>
      <trkpt lat="47.519943" lon="2.0591815">
        <ele>149.0</ele>
        <time>2022-02-27T10:05:41Z</time>
      </trkpt>
      <trkpt lat="47.519943" lon="2.0591815">
        <ele>149.0</ele>
        <time>2022-02-27T10:05:42Z</time>
      </trkpt>
      <trkpt lat="47.51995" lon="2.0591502">
        <ele>149.0</ele>
        <time>2022-02-27T10:05:43Z</time>
      </trkpt>
      <trkpt lat="47.519955" lon="2.0591288">
        <ele>149.0</ele>
        <time>2022-02-27T10:05:44Z</time>
      </trkpt>
      <trkpt lat="47.51996" lon="2.0591068">
        <ele>148.0</ele>
        <time>2022-02-27T10:05:45Z</time>
      </trkpt>
      <trkpt lat="47.519962" lon="2.0590844">
        <ele>148.0</ele>
        <time>2022-02-27T10:05:46Z</time>
      </trkpt>
      <trkpt lat="47.519966" lon="2.0590658">
        <ele>148.0</ele>
        <time>2022-02-27T10:05:47Z</time>
      </trkpt>
      <trkpt lat="47.51997" lon="2.0590496">
        <ele>148.0</ele>
        <time>2022-02-27T10:05:48Z</time>
      </trkpt>
      <trkpt lat="47.519978" lon="2.0590358">
        <ele>148.0</ele>
        <time>2022-02-27T10:05:49Z</time>
      </trkpt>
      <trkpt lat="47.519974" lon="2.0590174">
        <ele>148.0</ele>
        <time>2022-02-27T10:05:50Z</time>
      </trkpt>
      <trkpt lat="47.519974" lon="2.0590029">
        <ele>147.0</ele>
        <time>2022-02-27T10:05:51Z</time>
      </trkpt>
      <trkpt lat="47.51997" lon="2.0589838">
        <ele>147.0</ele>
        <time>2022-02-27T10:05:52Z</time>
      </trkpt>
      <trkpt lat="47.51997" lon="2.058969">
        <ele>148.0</ele>
        <time>2022-02-27T10:05:53Z</time>
      </trkpt>
      <trkpt lat="47.51997" lon="2.058949">
        <ele>148.0</ele>
        <time>2022-02-27T10:05:54Z</time>
      </trkpt>
      <trkpt lat="47.51997" lon="2.058931">
        <ele>148.0</ele>
        <time>2022-02-27T10:05:55Z</time>
      </trkpt>
      <trkpt lat="47.51997" lon="2.0589163">
        <ele>147.0</ele>
        <time>2022-02-27T10:05:56Z</time>
      </trkpt>
      <trkpt lat="47.51997" lon="2.0588956">
        <ele>147.0</ele>
        <time>2022-02-27T10:05:57Z</time>
      </trkpt>
      <trkpt lat="47.519974" lon="2.058879">
        <ele>147.0</ele>
        <time>2022-02-27T10:05:58Z</time>
      </trkpt>
      <trkpt lat="47.519974" lon="2.0588617">
        <ele>147.0</ele>
        <time>2022-02-27T10:05:59Z</time>
      </trkpt>
      <trkpt lat="47.519974" lon="2.05884">
        <ele>147.0</ele>
        <time>2022-02-27T10:06:00Z</time>
      </trkpt>
      <trkpt lat="47.519974" lon="2.0588236">
        <ele>147.0</ele>
        <time>2022-02-27T10:06:01Z</time>
      </trkpt>
      <trkpt lat="47.519974" lon="2.0588043">
        <ele>147.0</ele>
        <time>2022-02-27T10:06:02Z</time>
      </trkpt>
      <trkpt lat="47.519978" lon="2.0587885">
        <ele>147.0</ele>
        <time>2022-02-27T10:06:03Z</time>
      </trkpt>
      <trkpt lat="47.519978" lon="2.0587704">
        <ele>147.0</ele>
        <time>2022-02-27T10:06:04Z</time>
      </trkpt>
      <trkpt lat="47.51998" lon="2.0587513">
        <ele>147.0</ele>
        <time>2022-02-27T10:06:05Z</time>
      </trkpt>
      <trkpt lat="47.51998" lon="2.0587332">
        <ele>147.0</ele>
        <time>2022-02-27T10:06:06Z</time>
      </trkpt>
      <trkpt lat="47.51998" lon="2.0587144">
        <ele>148.0</ele>
        <time>2022-02-27T10:06:07Z</time>
      </trkpt>
      <trkpt lat="47.519985" lon="2.0586984">
        <ele>148.0</ele>
        <time>2022-02-27T10:06:08Z</time>
      </trkpt>
      <trkpt lat="47.519985" lon="2.0586786">
        <ele>148.0</ele>
        <time>2022-02-27T10:06:09Z</time>
      </trkpt>
      <trkpt lat="47.51999" lon="2.058658">
        <ele>148.0</ele>
        <time>2022-02-27T10:06:10Z</time>
      </trkpt>
      <trkpt lat="47.51999" lon="2.0586438">
        <ele>148.0</ele>
        <time>2022-02-27T10:06:11Z</time>
      </trkpt>
      <trkpt lat="47.519993" lon="2.0586276">
        <ele>148.0</ele>
        <time>2022-02-27T10:06:12Z</time>
      </trkpt>
      <trkpt lat="47.519997" lon="2.0586095">
        <ele>149.0</ele>
        <time>2022-02-27T10:06:13Z</time>
      </trkpt>
      <trkpt lat="47.52" lon="2.0585914">
        <ele>149.0</ele>
        <time>2022-02-27T10:06:14Z</time>
      </trkpt>
      <trkpt lat="47.520004" lon="2.0585737">
        <ele>148.0</ele>
        <time>2022-02-27T10:06:15Z</time>
      </trkpt>
      <trkpt lat="47.520008" lon="2.058559">
        <ele>148.0</ele>
        <time>2022-02-27T10:06:16Z</time>
      </trkpt>
      <trkpt lat="47.520008" lon="2.0585506">
        <ele>148.0</ele>
        <time>2022-02-27T10:06:17Z</time>
      </trkpt>
      <trkpt lat="47.520016" lon="2.0585387">
        <ele>148.0</ele>
        <time>2022-02-27T10:06:18Z</time>
      </trkpt>
      <trkpt lat="47.520023" lon="2.058524">
        <ele>148.0</ele>
        <time>2022-02-27T10:06:19Z</time>
      </trkpt>
      <trkpt lat="47.520027" lon="2.0585093">
        <ele>148.0</ele>
        <time>2022-02-27T10:06:20Z</time>
      </trkpt>
      <trkpt lat="47.520027" lon="2.0584924">
        <ele>148.0</ele>
        <time>2022-02-27T10:06:21Z</time>
      </trkpt>
      <trkpt lat="47.520035" lon="2.0584724">
        <ele>148.0</ele>
        <time>2022-02-27T10:06:22Z</time>
      </trkpt>
      <trkpt lat="47.52004" lon="2.058455">
        <ele>148.0</ele>
        <time>2022-02-27T10:06:23Z</time>
      </trkpt>
      <trkpt lat="47.520042" lon="2.0584364">
        <ele>147.0</ele>
        <time>2022-02-27T10:06:24Z</time>
      </trkpt>
      <trkpt lat="47.520046" lon="2.0584178">
        <ele>147.0</ele>
        <time>2022-02-27T10:06:25Z</time>
      </trkpt>
      <trkpt lat="47.520046" lon="2.0584035">
        <ele>147.0</ele>
        <time>2022-02-27T10:06:26Z</time>
      </trkpt>
      <trkpt lat="47.520046" lon="2.058391">
        <ele>147.0</ele>
        <time>2022-02-27T10:06:27Z</time>
      </trkpt>
      <trkpt lat="47.520046" lon="2.0583782">
        <ele>147.0</ele>
        <time>2022-02-27T10:06:28Z</time>
      </trkpt>
      <trkpt lat="47.52005" lon="2.0583646">
        <ele>147.0</ele>
        <time>2022-02-27T10:06:29Z</time>
      </trkpt>
      <trkpt lat="47.52005" lon="2.0583503">
        <ele>147.0</ele>
        <time>2022-02-27T10:06:30Z</time>
      </trkpt>
      <trkpt lat="47.520058" lon="2.0583336">
        <ele>147.0</ele>
        <time>2022-02-27T10:06:31Z</time>
      </trkpt>
      <trkpt lat="47.520058" lon="2.058316">
        <ele>147.0</ele>
        <time>2022-02-27T10:06:32Z</time>
      </trkpt>
      <trkpt lat="47.52006" lon="2.0582976">
        <ele>147.0</ele>
        <time>2022-02-27T10:06:33Z</time>
      </trkpt>
      <trkpt lat="47.52006" lon="2.0582812">
        <ele>147.0</ele>
        <time>2022-02-27T10:06:34Z</time>
      </trkpt>
      <trkpt lat="47.52006" lon="2.0582669">
        <ele>147.0</ele>
        <time>2022-02-27T10:06:35Z</time>
      </trkpt>
      <trkpt lat="47.520065" lon="2.0582523">
        <ele>147.0</ele>
        <time>2022-02-27T10:06:36Z</time>
      </trkpt>
      <trkpt lat="47.520065" lon="2.0582523">
        <ele>147.0</ele>
        <time>2022-02-27T10:06:37Z</time>
      </trkpt>
      <trkpt lat="47.520065" lon="2.0582523">
        <ele>147.0</ele>
        <time>2022-02-27T10:06:38Z</time>
      </trkpt>
      <trkpt lat="47.520073" lon="2.0582178">
        <ele>146.0</ele>
        <time>2022-02-27T10:06:39Z</time>
      </trkpt>
      <trkpt lat="47.520077" lon="2.0582025">
        <ele>146.0</ele>
        <time>2022-02-27T10:06:40Z</time>
      </trkpt>
      <trkpt lat="47.52008" lon="2.0581803">
        <ele>146.0</ele>
        <time>2022-02-27T10:06:41Z</time>
      </trkpt>
      <trkpt lat="47.520084" lon="2.058162">
        <ele>146.0</ele>
        <time>2022-02-27T10:06:42Z</time>
      </trkpt>
      <trkpt lat="47.520084" lon="2.0581424">
        <ele>146.0</ele>
        <time>2022-02-27T10:06:43Z</time>
      </trkpt>
      <trkpt lat="47.520092" lon="2.0581205">
        <ele>146.0</ele>
        <time>2022-02-27T10:06:44Z</time>
      </trkpt>
      <trkpt lat="47.520096" lon="2.058104">
        <ele>146.0</ele>
        <time>2022-02-27T10:06:45Z</time>
      </trkpt>
      <trkpt lat="47.5201" lon="2.0580876">
        <ele>146.0</ele>
        <time>2022-02-27T10:06:46Z</time>
      </trkpt>
      <trkpt lat="47.520103" lon="2.0580702">
        <ele>146.0</ele>
        <time>2022-02-27T10:06:47Z</time>
      </trkpt>
      <trkpt lat="47.520107" lon="2.0580564">
        <ele>146.0</ele>
        <time>2022-02-27T10:06:48Z</time>
      </trkpt>
      <trkpt lat="47.52011" lon="2.0580451">
        <ele>145.0</ele>
        <time>2022-02-27T10:06:49Z</time>
      </trkpt>
      <trkpt lat="47.520115" lon="2.0580277">
        <ele>145.0</ele>
        <time>2022-02-27T10:06:50Z</time>
      </trkpt>
      <trkpt lat="47.520115" lon="2.0580277">
        <ele>145.0</ele>
        <time>2022-02-27T10:06:51Z</time>
      </trkpt>
      <trkpt lat="47.520123" lon="2.0579996">
        <ele>144.0</ele>
        <time>2022-02-27T10:06:52Z</time>
      </trkpt>
      <trkpt lat="47.520126" lon="2.0579846">
        <ele>143.0</ele>
        <time>2022-02-27T10:06:53Z</time>
      </trkpt>
      <trkpt lat="47.52013" lon="2.057968">
        <ele>143.0</ele>
        <time>2022-02-27T10:06:54Z</time>
      </trkpt>
      <trkpt lat="47.52013" lon="2.05795">
        <ele>143.0</ele>
        <time>2022-02-27T10:06:55Z</time>
      </trkpt>
      <trkpt lat="47.52013" lon="2.0579321">
        <ele>143.0</ele>
        <time>2022-02-27T10:06:56Z</time>
      </trkpt>
      <trkpt lat="47.520126" lon="2.0579135">
        <ele>143.0</ele>
        <time>2022-02-27T10:06:57Z</time>
      </trkpt>
      <trkpt lat="47.520126" lon="2.0578947">
        <ele>142.0</ele>
        <time>2022-02-27T10:06:58Z</time>
      </trkpt>
      <trkpt lat="47.520126" lon="2.0578797">
        <ele>142.0</ele>
        <time>2022-02-27T10:06:59Z</time>
      </trkpt>
      <trkpt lat="47.52013" lon="2.0578604">
        <ele>142.0</ele>
        <time>2022-02-27T10:07:00Z</time>
      </trkpt>
      <trkpt lat="47.520134" lon="2.057847">
        <ele>142.0</ele>
        <time>2022-02-27T10:07:01Z</time>
      </trkpt>
      <trkpt lat="47.520138" lon="2.0578322">
        <ele>143.0</ele>
        <time>2022-02-27T10:07:02Z</time>
      </trkpt>
      <trkpt lat="47.52014" lon="2.0578177">
        <ele>143.0</ele>
        <time>2022-02-27T10:07:03Z</time>
      </trkpt>
      <trkpt lat="47.520145" lon="2.057805">
        <ele>142.0</ele>
        <time>2022-02-27T10:07:04Z</time>
      </trkpt>
      <trkpt lat="47.520145" lon="2.0577924">
        <ele>143.0</ele>
        <time>2022-02-27T10:07:05Z</time>
      </trkpt>
      <trkpt lat="47.520145" lon="2.0577924">
        <ele>143.0</ele>
        <time>2022-02-27T10:07:06Z</time>
      </trkpt>
      <trkpt lat="47.520153" lon="2.057766">
        <ele>143.0</ele>
        <time>2022-02-27T10:07:07Z</time>
      </trkpt>
      <trkpt lat="47.520153" lon="2.0577466">
        <ele>142.0</ele>
        <time>2022-02-27T10:07:08Z</time>
      </trkpt>
      <trkpt lat="47.520157" lon="2.0577312">
        <ele>142.0</ele>
        <time>2022-02-27T10:07:09Z</time>
      </trkpt>
      <trkpt lat="47.52016" lon="2.0577176">
        <ele>142.0</ele>
        <time>2022-02-27T10:07:10Z</time>
      </trkpt>
      <trkpt lat="47.520164" lon="2.0577018">
        <ele>142.0</ele>
        <time>2022-02-27T10:07:11Z</time>
      </trkpt>
      <trkpt lat="47.520164" lon="2.057686">
        <ele>142.0</ele>
        <time>2022-02-27T10:07:12Z</time>
      </trkpt>
      <trkpt lat="47.520164" lon="2.0576653">
        <ele>142.0</ele>
        <time>2022-02-27T10:07:13Z</time>
      </trkpt>
      <trkpt lat="47.52017" lon="2.057645">
        <ele>141.0</ele>
        <time>2022-02-27T10:07:14Z</time>
      </trkpt>
      <trkpt lat="47.520172" lon="2.0576282">
        <ele>141.0</ele>
        <time>2022-02-27T10:07:15Z</time>
      </trkpt>
      <trkpt lat="47.520176" lon="2.0576105">
        <ele>141.0</ele>
        <time>2022-02-27T10:07:16Z</time>
      </trkpt>
      <trkpt lat="47.520176" lon="2.0575936">
        <ele>141.0</ele>
        <time>2022-02-27T10:07:17Z</time>
      </trkpt>
      <trkpt lat="47.52018" lon="2.0575771">
        <ele>141.0</ele>
        <time>2022-02-27T10:07:18Z</time>
      </trkpt>
      <trkpt lat="47.520187" lon="2.0575604">
        <ele>142.0</ele>
        <time>2022-02-27T10:07:19Z</time>
      </trkpt>
      <trkpt lat="47.52019" lon="2.0575426">
        <ele>142.0</ele>
        <time>2022-02-27T10:07:20Z</time>
      </trkpt>
      <trkpt lat="47.52019" lon="2.0575237">
        <ele>142.0</ele>
        <time>2022-02-27T10:07:21Z</time>
      </trkpt>
      <trkpt lat="47.5202" lon="2.0575113">
        <ele>142.0</ele>
        <time>2022-02-27T10:07:22Z</time>
      </trkpt>
      <trkpt lat="47.52021" lon="2.0575032">
        <ele>142.0</ele>
        <time>2022-02-27T10:07:23Z</time>
      </trkpt>
      <trkpt lat="47.520214" lon="2.0574956">
        <ele>142.0</ele>
        <time>2022-02-27T10:07:24Z</time>
      </trkpt>
      <trkpt lat="47.52022" lon="2.0574858">
        <ele>142.0</ele>
        <time>2022-02-27T10:07:25Z</time>
      </trkpt>
      <trkpt lat="47.52023" lon="2.0574725">
        <ele>142.0</ele>
        <time>2022-02-27T10:07:26Z</time>
      </trkpt>
      <trkpt lat="47.520237" lon="2.0574641">
        <ele>143.0</ele>
        <time>2022-02-27T10:07:27Z</time>
      </trkpt>
      <trkpt lat="47.520245" lon="2.057458">
        <ele>143.0</ele>
        <time>2022-02-27T10:07:28Z</time>
      </trkpt>
      <trkpt lat="47.520252" lon="2.0574512">
        <ele>143.0</ele>
        <time>2022-02-27T10:07:29Z</time>
      </trkpt>
      <trkpt lat="47.52026" lon="2.0574417">
        <ele>143.0</ele>
        <time>2022-02-27T10:07:30Z</time>
      </trkpt>
      <trkpt lat="47.52027" lon="2.0574346">
        <ele>143.0</ele>
        <time>2022-02-27T10:07:31Z</time>
      </trkpt>
      <trkpt lat="47.52028" lon="2.057424">
        <ele>143.0</ele>
        <time>2022-02-27T10:07:32Z</time>
      </trkpt>
      <trkpt lat="47.520287" lon="2.0574136">
        <ele>143.0</ele>
        <time>2022-02-27T10:07:33Z</time>
      </trkpt>
      <trkpt lat="47.5203" lon="2.0574098">
        <ele>144.0</ele>
        <time>2022-02-27T10:07:34Z</time>
      </trkpt>
      <trkpt lat="47.520313" lon="2.057405">
        <ele>144.0</ele>
        <time>2022-02-27T10:07:35Z</time>
      </trkpt>
      <trkpt lat="47.520325" lon="2.0573993">
        <ele>144.0</ele>
        <time>2022-02-27T10:07:36Z</time>
      </trkpt>
      <trkpt lat="47.520336" lon="2.0573888">
        <ele>145.0</ele>
        <time>2022-02-27T10:07:37Z</time>
      </trkpt>
      <trkpt lat="47.520348" lon="2.0573838">
        <ele>145.0</ele>
        <time>2022-02-27T10:07:38Z</time>
      </trkpt>
      <trkpt lat="47.52036" lon="2.0573792">
        <ele>145.0</ele>
        <time>2022-02-27T10:07:39Z</time>
      </trkpt>
      <trkpt lat="47.520367" lon="2.0573714">
        <ele>146.0</ele>
        <time>2022-02-27T10:07:40Z</time>
      </trkpt>
      <trkpt lat="47.520374" lon="2.0573616">
        <ele>146.0</ele>
        <time>2022-02-27T10:07:41Z</time>
      </trkpt>
      <trkpt lat="47.520382" lon="2.0573475">
        <ele>146.0</ele>
        <time>2022-02-27T10:07:42Z</time>
      </trkpt>
      <trkpt lat="47.52039" lon="2.0573356">
        <ele>146.0</ele>
        <time>2022-02-27T10:07:43Z</time>
      </trkpt>
      <trkpt lat="47.5204" lon="2.057321">
        <ele>146.0</ele>
        <time>2022-02-27T10:07:45Z</time>
      </trkpt>
      <trkpt lat="47.520405" lon="2.0573137">
        <ele>146.0</ele>
        <time>2022-02-27T10:07:46Z</time>
      </trkpt>
      <trkpt lat="47.520416" lon="2.0573037">
        <ele>147.0</ele>
        <time>2022-02-27T10:07:47Z</time>
      </trkpt>
      <trkpt lat="47.520424" lon="2.0572963">
        <ele>147.0</ele>
        <time>2022-02-27T10:07:48Z</time>
      </trkpt>
      <trkpt lat="47.520447" lon="2.0572782">
        <ele>147.0</ele>
        <time>2022-02-27T10:07:49Z</time>
      </trkpt>
      <trkpt lat="47.520447" lon="2.0572782">
        <ele>147.0</ele>
        <time>2022-02-27T10:07:49Z</time>
      </trkpt>
      <trkpt lat="47.52046" lon="2.0572655">
        <ele>147.0</ele>
        <time>2022-02-27T10:07:51Z</time>
      </trkpt>
      <trkpt lat="47.520466" lon="2.0572557">
        <ele>147.0</ele>
        <time>2022-02-27T10:07:52Z</time>
      </trkpt>
      <trkpt lat="47.520485" lon="2.057247">
        <ele>148.0</ele>
        <time>2022-02-27T10:07:53Z</time>
      </trkpt>
      <trkpt lat="47.520485" lon="2.057247">
        <ele>148.0</ele>
        <time>2022-02-27T10:07:53Z</time>
      </trkpt>
      <trkpt lat="47.520496" lon="2.0572417">
        <ele>148.0</ele>
        <time>2022-02-27T10:07:55Z</time>
      </trkpt>
      <trkpt lat="47.52051" lon="2.0572155">
        <ele>148.0</ele>
        <time>2022-02-27T10:07:56Z</time>
      </trkpt>
      <trkpt lat="47.52051" lon="2.0572155">
        <ele>148.0</ele>
        <time>2022-02-27T10:07:56Z</time>
      </trkpt>
      <trkpt lat="47.52052" lon="2.057206">
        <ele>148.0</ele>
        <time>2022-02-27T10:07:58Z</time>
      </trkpt>
      <trkpt lat="47.520535" lon="2.0571976">
        <ele>149.0</ele>
        <time>2022-02-27T10:07:59Z</time>
      </trkpt>
      <trkpt lat="47.520535" lon="2.0571976">
        <ele>149.0</ele>
        <time>2022-02-27T10:07:59Z</time>
      </trkpt>
      <trkpt lat="47.520542" lon="2.057189">
        <ele>150.0</ele>
        <time>2022-02-27T10:08:01Z</time>
      </trkpt>
      <trkpt lat="47.520554" lon="2.0571744">
        <ele>149.0</ele>
        <time>2022-02-27T10:08:02Z</time>
      </trkpt>
      <trkpt lat="47.520573" lon="2.057162">
        <ele>150.0</ele>
        <time>2022-02-27T10:08:03Z</time>
      </trkpt>
      <trkpt lat="47.520584" lon="2.057153">
        <ele>150.0</ele>
        <time>2022-02-27T10:08:04Z</time>
      </trkpt>
      <trkpt lat="47.520588" lon="2.057148">
        <ele>151.0</ele>
        <time>2022-02-27T10:08:05Z</time>
      </trkpt>
      <trkpt lat="47.520588" lon="2.057148">
        <ele>151.0</ele>
        <time>2022-02-27T10:08:05Z</time>
      </trkpt>
      <trkpt lat="47.520596" lon="2.0571432">
        <ele>151.0</ele>
        <time>2022-02-27T10:08:07Z</time>
      </trkpt>
      <trkpt lat="47.520603" lon="2.0571299">
        <ele>151.0</ele>
        <time>2022-02-27T10:08:08Z</time>
      </trkpt>
      <trkpt lat="47.52061" lon="2.057122">
        <ele>151.0</ele>
        <time>2022-02-27T10:08:09Z</time>
      </trkpt>
      <trkpt lat="47.52062" lon="2.0571182">
        <ele>151.0</ele>
        <time>2022-02-27T10:08:10Z</time>
      </trkpt>
      <trkpt lat="47.52062" lon="2.0571182">
        <ele>151.0</ele>
        <time>2022-02-27T10:08:11Z</time>
      </trkpt>
      <trkpt lat="47.52062" lon="2.0571182">
        <ele>151.0</ele>
        <time>2022-02-27T10:08:12Z</time>
      </trkpt>
      <trkpt lat="47.52064" lon="2.057094">
        <ele>152.0</ele>
        <time>2022-02-27T10:08:13Z</time>
      </trkpt>
      <trkpt lat="47.520653" lon="2.0570817">
        <ele>153.0</ele>
        <time>2022-02-27T10:08:14Z</time>
      </trkpt>
      <trkpt lat="47.520664" lon="2.0570698">
        <ele>152.0</ele>
        <time>2022-02-27T10:08:15Z</time>
      </trkpt>
      <trkpt lat="47.520676" lon="2.0570557">
        <ele>152.0</ele>
        <time>2022-02-27T10:08:16Z</time>
      </trkpt>
      <trkpt lat="47.520687" lon="2.057045">
        <ele>153.0</ele>
        <time>2022-02-27T10:08:17Z</time>
      </trkpt>
      <trkpt lat="47.52069" lon="2.0570283">
        <ele>153.0</ele>
        <time>2022-02-27T10:08:18Z</time>
      </trkpt>
      <trkpt lat="47.520718" lon="2.0570114">
        <ele>154.0</ele>
        <time>2022-02-27T10:08:19Z</time>
      </trkpt>
      <trkpt lat="47.520718" lon="2.0570114">
        <ele>154.0</ele>
        <time>2022-02-27T10:08:19Z</time>
      </trkpt>
      <trkpt lat="47.520725" lon="2.0570004">
        <ele>154.0</ele>
        <time>2022-02-27T10:08:21Z</time>
      </trkpt>
      <trkpt lat="47.520737" lon="2.0569942">
        <ele>155.0</ele>
        <time>2022-02-27T10:08:22Z</time>
      </trkpt>
      <trkpt lat="47.520752" lon="2.0569751">
        <ele>156.0</ele>
        <time>2022-02-27T10:08:23Z</time>
      </trkpt>
      <trkpt lat="47.520763" lon="2.0569701">
        <ele>156.0</ele>
        <time>2022-02-27T10:08:24Z</time>
      </trkpt>
      <trkpt lat="47.520775" lon="2.0569592">
        <ele>156.0</ele>
        <time>2022-02-27T10:08:25Z</time>
      </trkpt>
      <trkpt lat="47.520775" lon="2.0569592">
        <ele>156.0</ele>
        <time>2022-02-27T10:08:25Z</time>
      </trkpt>
      <trkpt lat="47.520798" lon="2.0569413">
        <ele>156.0</ele>
        <time>2022-02-27T10:08:27Z</time>
      </trkpt>
      <trkpt lat="47.52081" lon="2.0569332">
        <ele>156.0</ele>
        <time>2022-02-27T10:08:28Z</time>
      </trkpt>
      <trkpt lat="47.52081" lon="2.0569332">
        <ele>156.0</ele>
        <time>2022-02-27T10:08:28Z</time>
      </trkpt>
      <trkpt lat="47.520824" lon="2.0569196">
        <ele>157.0</ele>
        <time>2022-02-27T10:08:30Z</time>
      </trkpt>
      <trkpt lat="47.520836" lon="2.0569098">
        <ele>157.0</ele>
        <time>2022-02-27T10:08:31Z</time>
      </trkpt>
      <trkpt lat="47.520847" lon="2.0568972">
        <ele>158.0</ele>
        <time>2022-02-27T10:08:32Z</time>
      </trkpt>
      <trkpt lat="47.520855" lon="2.0568802">
        <ele>158.0</ele>
        <time>2022-02-27T10:08:33Z</time>
      </trkpt>
      <trkpt lat="47.520863" lon="2.0568671">
        <ele>158.0</ele>
        <time>2022-02-27T10:08:34Z</time>
      </trkpt>
      <trkpt lat="47.52087" lon="2.0568533">
        <ele>158.0</ele>
        <time>2022-02-27T10:08:35Z</time>
      </trkpt>
      <trkpt lat="47.520874" lon="2.0568397">
        <ele>158.0</ele>
        <time>2022-02-27T10:08:36Z</time>
      </trkpt>
      <trkpt lat="47.520878" lon="2.056821">
        <ele>157.0</ele>
        <time>2022-02-27T10:08:37Z</time>
      </trkpt>
      <trkpt lat="47.52088" lon="2.0567958">
        <ele>157.0</ele>
        <time>2022-02-27T10:08:38Z</time>
      </trkpt>
      <trkpt lat="47.520885" lon="2.05678">
        <ele>158.0</ele>
        <time>2022-02-27T10:08:39Z</time>
      </trkpt>
      <trkpt lat="47.520893" lon="2.056762">
        <ele>158.0</ele>
        <time>2022-02-27T10:08:40Z</time>
      </trkpt>
      <trkpt lat="47.520897" lon="2.0567505">
        <ele>157.0</ele>
        <time>2022-02-27T10:08:41Z</time>
      </trkpt>
      <trkpt lat="47.5209" lon="2.0567377">
        <ele>157.0</ele>
        <time>2022-02-27T10:08:42Z</time>
      </trkpt>
      <trkpt lat="47.5209" lon="2.0567238">
        <ele>157.0</ele>
        <time>2022-02-27T10:08:43Z</time>
      </trkpt>
      <trkpt lat="47.5209" lon="2.0567238">
        <ele>157.0</ele>
        <time>2022-02-27T10:08:44Z</time>
      </trkpt>
      <trkpt lat="47.5209" lon="2.0567238">
        <ele>157.0</ele>
        <time>2022-02-27T10:08:45Z</time>
      </trkpt>
      <trkpt lat="47.52091" lon="2.0566938">
        <ele>156.0</ele>
        <time>2022-02-27T10:08:46Z</time>
      </trkpt>
      <trkpt lat="47.52091" lon="2.0566814">
        <ele>156.0</ele>
        <time>2022-02-27T10:08:47Z</time>
      </trkpt>
      <trkpt lat="47.520912" lon="2.0566678">
        <ele>156.0</ele>
        <time>2022-02-27T10:08:48Z</time>
      </trkpt>
      <trkpt lat="47.520916" lon="2.056654">
        <ele>156.0</ele>
        <time>2022-02-27T10:08:49Z</time>
      </trkpt>
      <trkpt lat="47.52092" lon="2.05664">
        <ele>155.0</ele>
        <time>2022-02-27T10:08:50Z</time>
      </trkpt>
      <trkpt lat="47.520924" lon="2.0566244">
        <ele>155.0</ele>
        <time>2022-02-27T10:08:51Z</time>
      </trkpt>
      <trkpt lat="47.52093" lon="2.0566096">
        <ele>155.0</ele>
        <time>2022-02-27T10:08:52Z</time>
      </trkpt>
      <trkpt lat="47.520935" lon="2.0565917">
        <ele>155.0</ele>
        <time>2022-02-27T10:08:53Z</time>
      </trkpt>
      <trkpt lat="47.520943" lon="2.056578">
        <ele>155.0</ele>
        <time>2022-02-27T10:08:54Z</time>
      </trkpt>
      <trkpt lat="47.520954" lon="2.0565646">
        <ele>154.0</ele>
        <time>2022-02-27T10:08:55Z</time>
      </trkpt>
      <trkpt lat="47.52096" lon="2.05655">
        <ele>154.0</ele>
        <time>2022-02-27T10:08:56Z</time>
      </trkpt>
      <trkpt lat="47.520973" lon="2.0565367">
        <ele>154.0</ele>
        <time>2022-02-27T10:08:57Z</time>
      </trkpt>
      <trkpt lat="47.520977" lon="2.0565205">
        <ele>155.0</ele>
        <time>2022-02-27T10:08:58Z</time>
      </trkpt>
      <trkpt lat="47.520985" lon="2.0565114">
        <ele>155.0</ele>
        <time>2022-02-27T10:08:59Z</time>
      </trkpt>
      <trkpt lat="47.520992" lon="2.0565052">
        <ele>155.0</ele>
        <time>2022-02-27T10:09:00Z</time>
      </trkpt>
      <trkpt lat="47.521004" lon="2.0565023">
        <ele>155.0</ele>
        <time>2022-02-27T10:09:01Z</time>
      </trkpt>
      <trkpt lat="47.52101" lon="2.056497">
        <ele>156.0</ele>
        <time>2022-02-27T10:09:02Z</time>
      </trkpt>
      <trkpt lat="47.521023" lon="2.0564852">
        <ele>156.0</ele>
        <time>2022-02-27T10:09:03Z</time>
      </trkpt>
      <trkpt lat="47.521034" lon="2.056473">
        <ele>156.0</ele>
        <time>2022-02-27T10:09:04Z</time>
      </trkpt>
      <trkpt lat="47.52104" lon="2.0564613">
        <ele>157.0</ele>
        <time>2022-02-27T10:09:05Z</time>
      </trkpt>
      <trkpt lat="47.521053" lon="2.0564592">
        <ele>157.0</ele>
        <time>2022-02-27T10:09:06Z</time>
      </trkpt>
      <trkpt lat="47.521065" lon="2.0564606">
        <ele>158.0</ele>
        <time>2022-02-27T10:09:07Z</time>
      </trkpt>
      <trkpt lat="47.521076" lon="2.056457">
        <ele>158.0</ele>
        <time>2022-02-27T10:09:08Z</time>
      </trkpt>
      <trkpt lat="47.521088" lon="2.0564528">
        <ele>158.0</ele>
        <time>2022-02-27T10:09:09Z</time>
      </trkpt>
      <trkpt lat="47.521103" lon="2.0564487">
        <ele>158.0</ele>
        <time>2022-02-27T10:09:10Z</time>
      </trkpt>
      <trkpt lat="47.52111" lon="2.0564468">
        <ele>158.0</ele>
        <time>2022-02-27T10:09:11Z</time>
      </trkpt>
      <trkpt lat="47.521126" lon="2.0564418">
        <ele>159.0</ele>
        <time>2022-02-27T10:09:12Z</time>
      </trkpt>
      <trkpt lat="47.521137" lon="2.0564322">
        <ele>159.0</ele>
        <time>2022-02-27T10:09:13Z</time>
      </trkpt>
      <trkpt lat="47.52115" lon="2.0564172">
        <ele>158.0</ele>
        <time>2022-02-27T10:09:14Z</time>
      </trkpt>
      <trkpt lat="47.52116" lon="2.0564063">
        <ele>158.0</ele>
        <time>2022-02-27T10:09:15Z</time>
      </trkpt>
      <trkpt lat="47.521175" lon="2.056392">
        <ele>159.0</ele>
        <time>2022-02-27T10:09:16Z</time>
      </trkpt>
      <trkpt lat="47.521187" lon="2.0563788">
        <ele>159.0</ele>
        <time>2022-02-27T10:09:17Z</time>
      </trkpt>
      <trkpt lat="47.521202" lon="2.056369">
        <ele>160.0</ele>
        <time>2022-02-27T10:09:18Z</time>
      </trkpt>
      <trkpt lat="47.52121" lon="2.0563557">
        <ele>160.0</ele>
        <time>2022-02-27T10:09:19Z</time>
      </trkpt>
      <trkpt lat="47.521217" lon="2.0563428">
        <ele>160.0</ele>
        <time>2022-02-27T10:09:20Z</time>
      </trkpt>
      <trkpt lat="47.521225" lon="2.056328">
        <ele>160.0</ele>
        <time>2022-02-27T10:09:21Z</time>
      </trkpt>
      <trkpt lat="47.521233" lon="2.0563111">
        <ele>160.0</ele>
        <time>2022-02-27T10:09:22Z</time>
      </trkpt>
      <trkpt lat="47.52124" lon="2.0563">
        <ele>160.0</ele>
        <time>2022-02-27T10:09:23Z</time>
      </trkpt>
      <trkpt lat="47.521244" lon="2.0562813">
        <ele>160.0</ele>
        <time>2022-02-27T10:09:24Z</time>
      </trkpt>
      <trkpt lat="47.521248" lon="2.0562668">
        <ele>159.0</ele>
        <time>2022-02-27T10:09:25Z</time>
      </trkpt>
      <trkpt lat="47.521248" lon="2.0562432">
        <ele>159.0</ele>
        <time>2022-02-27T10:09:26Z</time>
      </trkpt>
      <trkpt lat="47.52125" lon="2.0562215">
        <ele>159.0</ele>
        <time>2022-02-27T10:09:27Z</time>
      </trkpt>
      <trkpt lat="47.521255" lon="2.0562003">
        <ele>159.0</ele>
        <time>2022-02-27T10:09:28Z</time>
      </trkpt>
      <trkpt lat="47.521255" lon="2.0561814">
        <ele>159.0</ele>
        <time>2022-02-27T10:09:29Z</time>
      </trkpt>
      <trkpt lat="47.521255" lon="2.0561647">
        <ele>159.0</ele>
        <time>2022-02-27T10:09:30Z</time>
      </trkpt>
      <trkpt lat="47.521255" lon="2.0561447">
        <ele>158.0</ele>
        <time>2022-02-27T10:09:31Z</time>
      </trkpt>
      <trkpt lat="47.52126" lon="2.056128">
        <ele>158.0</ele>
        <time>2022-02-27T10:09:32Z</time>
      </trkpt>
      <trkpt lat="47.521263" lon="2.05611">
        <ele>157.0</ele>
        <time>2022-02-27T10:09:33Z</time>
      </trkpt>
      <trkpt lat="47.521267" lon="2.056093">
        <ele>157.0</ele>
        <time>2022-02-27T10:09:34Z</time>
      </trkpt>
      <trkpt lat="47.52127" lon="2.0560815">
        <ele>158.0</ele>
        <time>2022-02-27T10:09:35Z</time>
      </trkpt>
      <trkpt lat="47.52128" lon="2.0560691">
        <ele>158.0</ele>
        <time>2022-02-27T10:09:36Z</time>
      </trkpt>
      <trkpt lat="47.52128" lon="2.056054">
        <ele>158.0</ele>
        <time>2022-02-27T10:09:37Z</time>
      </trkpt>
      <trkpt lat="47.52128" lon="2.0560422">
        <ele>158.0</ele>
        <time>2022-02-27T10:09:38Z</time>
      </trkpt>
      <trkpt lat="47.521286" lon="2.0560315">
        <ele>157.0</ele>
        <time>2022-02-27T10:09:39Z</time>
      </trkpt>
      <trkpt lat="47.52129" lon="2.0560234">
        <ele>157.0</ele>
        <time>2022-02-27T10:09:40Z</time>
      </trkpt>
      <trkpt lat="47.521294" lon="2.0560105">
        <ele>157.0</ele>
        <time>2022-02-27T10:09:41Z</time>
      </trkpt>
      <trkpt lat="47.5213" lon="2.0559952">
        <ele>156.0</ele>
        <time>2022-02-27T10:09:42Z</time>
      </trkpt>
      <trkpt lat="47.521313" lon="2.0559804">
        <ele>156.0</ele>
        <time>2022-02-27T10:09:43Z</time>
      </trkpt>
      <trkpt lat="47.52132" lon="2.0559666">
        <ele>156.0</ele>
        <time>2022-02-27T10:09:44Z</time>
      </trkpt>
      <trkpt lat="47.521324" lon="2.0559556">
        <ele>156.0</ele>
        <time>2022-02-27T10:09:45Z</time>
      </trkpt>
      <trkpt lat="47.521336" lon="2.0559516">
        <ele>156.0</ele>
        <time>2022-02-27T10:09:46Z</time>
      </trkpt>
      <trkpt lat="47.521343" lon="2.0559468">
        <ele>155.0</ele>
        <time>2022-02-27T10:09:47Z</time>
      </trkpt>
      <trkpt lat="47.52135" lon="2.0559356">
        <ele>155.0</ele>
        <time>2022-02-27T10:09:48Z</time>
      </trkpt>
      <trkpt lat="47.52136" lon="2.055926">
        <ele>154.0</ele>
        <time>2022-02-27T10:09:49Z</time>
      </trkpt>
      <trkpt lat="47.52137" lon="2.0559146">
        <ele>154.0</ele>
        <time>2022-02-27T10:09:50Z</time>
      </trkpt>
      <trkpt lat="47.52138" lon="2.0559025">
        <ele>154.0</ele>
        <time>2022-02-27T10:09:51Z</time>
      </trkpt>
      <trkpt lat="47.52139" lon="2.0558908">
        <ele>153.0</ele>
        <time>2022-02-27T10:09:52Z</time>
      </trkpt>
      <trkpt lat="47.5214" lon="2.0558777">
        <ele>153.0</ele>
        <time>2022-02-27T10:09:53Z</time>
      </trkpt>
      <trkpt lat="47.521408" lon="2.055866">
        <ele>154.0</ele>
        <time>2022-02-27T10:09:54Z</time>
      </trkpt>
      <trkpt lat="47.521416" lon="2.05586">
        <ele>154.0</ele>
        <time>2022-02-27T10:09:55Z</time>
      </trkpt>
      <trkpt lat="47.521427" lon="2.0558546">
        <ele>154.0</ele>
        <time>2022-02-27T10:09:56Z</time>
      </trkpt>
      <trkpt lat="47.52143" lon="2.0558472">
        <ele>154.0</ele>
        <time>2022-02-27T10:09:57Z</time>
      </trkpt>
      <trkpt lat="47.52144" lon="2.0558393">
        <ele>154.0</ele>
        <time>2022-02-27T10:09:58Z</time>
      </trkpt>
      <trkpt lat="47.52144" lon="2.0558393">
        <ele>154.0</ele>
        <time>2022-02-27T10:09:59Z</time>
      </trkpt>
      <trkpt lat="47.52144" lon="2.0558393">
        <ele>154.0</ele>
        <time>2022-02-27T10:10:00Z</time>
      </trkpt>
      <trkpt lat="47.521465" lon="2.0558238">
        <ele>154.0</ele>
        <time>2022-02-27T10:10:01Z</time>
      </trkpt>
      <trkpt lat="47.521473" lon="2.055825">
        <ele>154.0</ele>
        <time>2022-02-27T10:10:02Z</time>
      </trkpt>
      <trkpt lat="47.521484" lon="2.055822">
        <ele>153.0</ele>
        <time>2022-02-27T10:10:03Z</time>
      </trkpt>
      <trkpt lat="47.521496" lon="2.0558214">
        <ele>154.0</ele>
        <time>2022-02-27T10:10:04Z</time>
      </trkpt>
      <trkpt lat="47.5215" lon="2.0558243">
        <ele>154.0</ele>
        <time>2022-02-27T10:10:05Z</time>
      </trkpt>
      <trkpt lat="47.521507" lon="2.0558298">
        <ele>154.0</ele>
        <time>2022-02-27T10:10:06Z</time>
      </trkpt>
      <trkpt lat="47.521507" lon="2.0558298">
        <ele>154.0</ele>
        <time>2022-02-27T10:10:07Z</time>
      </trkpt>
      <trkpt lat="47.521507" lon="2.0558298">
        <ele>154.0</ele>
        <time>2022-02-27T10:10:08Z</time>
      </trkpt>
      <trkpt lat="47.521523" lon="2.0558448">
        <ele>154.0</ele>
        <time>2022-02-27T10:10:09Z</time>
      </trkpt>
      <trkpt lat="47.52153" lon="2.05586">
        <ele>153.0</ele>
        <time>2022-02-27T10:10:10Z</time>
      </trkpt>
      <trkpt lat="47.52154" lon="2.0558724">
        <ele>153.0</ele>
        <time>2022-02-27T10:10:11Z</time>
      </trkpt>
      <trkpt lat="47.521545" lon="2.055882">
        <ele>153.0</ele>
        <time>2022-02-27T10:10:12Z</time>
      </trkpt>
      <trkpt lat="47.52155" lon="2.055891">
        <ele>154.0</ele>
        <time>2022-02-27T10:10:13Z</time>
      </trkpt>
      <trkpt lat="47.521553" lon="2.0558994">
        <ele>154.0</ele>
        <time>2022-02-27T10:10:14Z</time>
      </trkpt>
      <trkpt lat="47.521557" lon="2.0559027">
        <ele>154.0</ele>
        <time>2022-02-27T10:10:15Z</time>
      </trkpt>
      <trkpt lat="47.521564" lon="2.0559065">
        <ele>155.0</ele>
        <time>2022-02-27T10:10:16Z</time>
      </trkpt>
      <trkpt lat="47.521564" lon="2.0559065">
        <ele>155.0</ele>
        <time>2022-02-27T10:10:17Z</time>
      </trkpt>
      <trkpt lat="47.521564" lon="2.0559065">
        <ele>155.0</ele>
        <time>2022-02-27T10:10:18Z</time>
      </trkpt>
      <trkpt lat="47.521587" lon="2.0559106">
        <ele>156.0</ele>
        <time>2022-02-27T10:10:19Z</time>
      </trkpt>
      <trkpt lat="47.521603" lon="2.0559087">
        <ele>157.0</ele>
        <time>2022-02-27T10:10:20Z</time>
      </trkpt>
      <trkpt lat="47.521618" lon="2.0559018">
        <ele>157.0</ele>
        <time>2022-02-27T10:10:21Z</time>
      </trkpt>
      <trkpt lat="47.521626" lon="2.0558946">
        <ele>157.0</ele>
        <time>2022-02-27T10:10:22Z</time>
      </trkpt>
      <trkpt lat="47.521637" lon="2.0558836">
        <ele>158.0</ele>
        <time>2022-02-27T10:10:23Z</time>
      </trkpt>
      <trkpt lat="47.521645" lon="2.0558834">
        <ele>159.0</ele>
        <time>2022-02-27T10:10:24Z</time>
      </trkpt>
      <trkpt lat="47.521645" lon="2.0558834">
        <ele>159.0</ele>
        <time>2022-02-27T10:10:25Z</time>
      </trkpt>
      <trkpt lat="47.521664" lon="2.0558734">
        <ele>159.0</ele>
        <time>2022-02-27T10:10:26Z</time>
      </trkpt>
      <trkpt lat="47.521675" lon="2.0558646">
        <ele>160.0</ele>
        <time>2022-02-27T10:10:27Z</time>
      </trkpt>
      <trkpt lat="47.52169" lon="2.055858">
        <ele>160.0</ele>
        <time>2022-02-27T10:10:28Z</time>
      </trkpt>
      <trkpt lat="47.5217" lon="2.0558465">
        <ele>159.0</ele>
        <time>2022-02-27T10:10:29Z</time>
      </trkpt>
      <trkpt lat="47.521713" lon="2.0558333">
        <ele>158.0</ele>
        <time>2022-02-27T10:10:30Z</time>
      </trkpt>
      <trkpt lat="47.521725" lon="2.0558162">
        <ele>157.0</ele>
        <time>2022-02-27T10:10:31Z</time>
      </trkpt>
      <trkpt lat="47.52174" lon="2.0558047">
        <ele>157.0</ele>
        <time>2022-02-27T10:10:32Z</time>
      </trkpt>
      <trkpt lat="47.52175" lon="2.0557957">
        <ele>156.0</ele>
        <time>2022-02-27T10:10:33Z</time>
      </trkpt>
      <trkpt lat="47.521763" lon="2.0557919">
        <ele>156.0</ele>
        <time>2022-02-27T10:10:34Z</time>
      </trkpt>
      <trkpt lat="47.52178" lon="2.0557847">
        <ele>156.0</ele>
        <time>2022-02-27T10:10:35Z</time>
      </trkpt>
      <trkpt lat="47.52179" lon="2.0557792">
        <ele>156.0</ele>
        <time>2022-02-27T10:10:36Z</time>
      </trkpt>
      <trkpt lat="47.5218" lon="2.0557716">
        <ele>155.0</ele>
        <time>2022-02-27T10:10:37Z</time>
      </trkpt>
      <trkpt lat="47.521812" lon="2.055765">
        <ele>156.0</ele>
        <time>2022-02-27T10:10:38Z</time>
      </trkpt>
      <trkpt lat="47.521824" lon="2.0557551">
        <ele>155.0</ele>
        <time>2022-02-27T10:10:39Z</time>
      </trkpt>
      <trkpt lat="47.521828" lon="2.0557444">
        <ele>156.0</ele>
        <time>2022-02-27T10:10:40Z</time>
      </trkpt>
      <trkpt lat="47.521835" lon="2.0557346">
        <ele>156.0</ele>
        <time>2022-02-27T10:10:41Z</time>
      </trkpt>
      <trkpt lat="47.521843" lon="2.0557253">
        <ele>156.0</ele>
        <time>2022-02-27T10:10:42Z</time>
      </trkpt>
      <trkpt lat="47.521854" lon="2.0557137">
        <ele>156.0</ele>
        <time>2022-02-27T10:10:43Z</time>
      </trkpt>
      <trkpt lat="47.521862" lon="2.0557034">
        <ele>156.0</ele>
        <time>2022-02-27T10:10:44Z</time>
      </trkpt>
      <trkpt lat="47.52187" lon="2.0557005">
        <ele>156.0</ele>
        <time>2022-02-27T10:10:45Z</time>
      </trkpt>
      <trkpt lat="47.521873" lon="2.0557024">
        <ele>156.0</ele>
        <time>2022-02-27T10:10:46Z</time>
      </trkpt>
      <trkpt lat="47.52188" lon="2.0557082">
        <ele>156.0</ele>
        <time>2022-02-27T10:10:47Z</time>
      </trkpt>
      <trkpt lat="47.521885" lon="2.0557065">
        <ele>155.0</ele>
        <time>2022-02-27T10:10:48Z</time>
      </trkpt>
      <trkpt lat="47.521893" lon="2.0557039">
        <ele>155.0</ele>
        <time>2022-02-27T10:10:49Z</time>
      </trkpt>
      <trkpt lat="47.521893" lon="2.0557044">
        <ele>155.0</ele>
        <time>2022-02-27T10:10:50Z</time>
      </trkpt>
      <trkpt lat="47.5219" lon="2.055712">
        <ele>155.0</ele>
        <time>2022-02-27T10:10:51Z</time>
      </trkpt>
      <trkpt lat="47.521908" lon="2.0557249">
        <ele>156.0</ele>
        <time>2022-02-27T10:10:52Z</time>
      </trkpt>
      <trkpt lat="47.52191" lon="2.0557294">
        <ele>156.0</ele>
        <time>2022-02-27T10:10:53Z</time>
      </trkpt>
      <trkpt lat="47.521915" lon="2.0557313">
        <ele>157.0</ele>
        <time>2022-02-27T10:10:54Z</time>
      </trkpt>
      <trkpt lat="47.52192" lon="2.0557323">
        <ele>157.0</ele>
        <time>2022-02-27T10:10:55Z</time>
      </trkpt>
      <trkpt lat="47.521923" lon="2.0557399">
        <ele>157.0</ele>
        <time>2022-02-27T10:10:56Z</time>
      </trkpt>
      <trkpt lat="47.521923" lon="2.0557399">
        <ele>157.0</ele>
        <time>2022-02-27T10:10:57Z</time>
      </trkpt>
      <trkpt lat="47.521923" lon="2.0557399">
        <ele>157.0</ele>
        <time>2022-02-27T10:10:58Z</time>
      </trkpt>
      <trkpt lat="47.521942" lon="2.0557563">
        <ele>157.0</ele>
        <time>2022-02-27T10:10:59Z</time>
      </trkpt>
      <trkpt lat="47.52195" lon="2.0557644">
        <ele>158.0</ele>
        <time>2022-02-27T10:11:00Z</time>
      </trkpt>
      <trkpt lat="47.521957" lon="2.0557706">
        <ele>158.0</ele>
        <time>2022-02-27T10:11:01Z</time>
      </trkpt>
      <trkpt lat="47.52197" lon="2.0557804">
        <ele>158.0</ele>
        <time>2022-02-27T10:11:02Z</time>
      </trkpt>
      <trkpt lat="47.52197" lon="2.0557804">
        <ele>158.0</ele>
        <time>2022-02-27T10:11:03Z</time>
      </trkpt>
      <trkpt lat="47.521984" lon="2.0557942">
        <ele>159.0</ele>
        <time>2022-02-27T10:11:04Z</time>
      </trkpt>
      <trkpt lat="47.52199" lon="2.0558004">
        <ele>159.0</ele>
        <time>2022-02-27T10:11:05Z</time>
      </trkpt>
      <trkpt lat="47.522" lon="2.0558023">
        <ele>159.0</ele>
        <time>2022-02-27T10:11:06Z</time>
      </trkpt>
      <trkpt lat="47.522007" lon="2.0558064">
        <ele>159.0</ele>
        <time>2022-02-27T10:11:07Z</time>
      </trkpt>
      <trkpt lat="47.52202" lon="2.0558095">
        <ele>159.0</ele>
        <time>2022-02-27T10:11:08Z</time>
      </trkpt>
      <trkpt lat="47.522034" lon="2.0558171">
        <ele>160.0</ele>
        <time>2022-02-27T10:11:09Z</time>
      </trkpt>
      <trkpt lat="47.52204" lon="2.0558214">
        <ele>160.0</ele>
        <time>2022-02-27T10:11:10Z</time>
      </trkpt>
      <trkpt lat="47.522053" lon="2.0558245">
        <ele>160.0</ele>
        <time>2022-02-27T10:11:11Z</time>
      </trkpt>
      <trkpt lat="47.52206" lon="2.0558276">
        <ele>160.0</ele>
        <time>2022-02-27T10:11:12Z</time>
      </trkpt>
      <trkpt lat="47.52207" lon="2.055835">
        <ele>160.0</ele>
        <time>2022-02-27T10:11:13Z</time>
      </trkpt>
      <trkpt lat="47.522083" lon="2.0558398">
        <ele>160.0</ele>
        <time>2022-02-27T10:11:14Z</time>
      </trkpt>
      <trkpt lat="47.522095" lon="2.0558476">
        <ele>160.0</ele>
        <time>2022-02-27T10:11:15Z</time>
      </trkpt>
      <trkpt lat="47.522102" lon="2.0558527">
        <ele>160.0</ele>
        <time>2022-02-27T10:11:16Z</time>
      </trkpt>
      <trkpt lat="47.522114" lon="2.0558586">
        <ele>161.0</ele>
        <time>2022-02-27T10:11:17Z</time>
      </trkpt>
      <trkpt lat="47.522125" lon="2.055863">
        <ele>161.0</ele>
        <time>2022-02-27T10:11:18Z</time>
      </trkpt>
      <trkpt lat="47.52214" lon="2.0558672">
        <ele>160.0</ele>
        <time>2022-02-27T10:11:19Z</time>
      </trkpt>
      <trkpt lat="47.522152" lon="2.0558655">
        <ele>160.0</ele>
        <time>2022-02-27T10:11:20Z</time>
      </trkpt>
      <trkpt lat="47.522167" lon="2.0558636">
        <ele>160.0</ele>
        <time>2022-02-27T10:11:21Z</time>
      </trkpt>
      <trkpt lat="47.522182" lon="2.055859">
        <ele>160.0</ele>
        <time>2022-02-27T10:11:22Z</time>
      </trkpt>
      <trkpt lat="47.52219" lon="2.0558555">
        <ele>160.0</ele>
        <time>2022-02-27T10:11:23Z</time>
      </trkpt>
      <trkpt lat="47.5222" lon="2.0558481">
        <ele>160.0</ele>
        <time>2022-02-27T10:11:24Z</time>
      </trkpt>
      <trkpt lat="47.522213" lon="2.0558412">
        <ele>160.0</ele>
        <time>2022-02-27T10:11:25Z</time>
      </trkpt>
      <trkpt lat="47.522224" lon="2.0558307">
        <ele>160.0</ele>
        <time>2022-02-27T10:11:26Z</time>
      </trkpt>
      <trkpt lat="47.522236" lon="2.0558226">
        <ele>159.0</ele>
        <time>2022-02-27T10:11:27Z</time>
      </trkpt>
      <trkpt lat="47.522247" lon="2.055814">
        <ele>159.0</ele>
        <time>2022-02-27T10:11:28Z</time>
      </trkpt>
      <trkpt lat="47.522263" lon="2.0558033">
        <ele>158.0</ele>
        <time>2022-02-27T10:11:29Z</time>
      </trkpt>
      <trkpt lat="47.522274" lon="2.055793">
        <ele>158.0</ele>
        <time>2022-02-27T10:11:30Z</time>
      </trkpt>
      <trkpt lat="47.52228" lon="2.0557857">
        <ele>158.0</ele>
        <time>2022-02-27T10:11:31Z</time>
      </trkpt>
      <trkpt lat="47.522297" lon="2.0557766">
        <ele>158.0</ele>
        <time>2022-02-27T10:11:32Z</time>
      </trkpt>
      <trkpt lat="47.522312" lon="2.0557687">
        <ele>158.0</ele>
        <time>2022-02-27T10:11:33Z</time>
      </trkpt>
      <trkpt lat="47.522324" lon="2.055763">
        <ele>158.0</ele>
        <time>2022-02-27T10:11:34Z</time>
      </trkpt>
      <trkpt lat="47.52234" lon="2.0557559">
        <ele>158.0</ele>
        <time>2022-02-27T10:11:35Z</time>
      </trkpt>
      <trkpt lat="47.522346" lon="2.055747">
        <ele>158.0</ele>
        <time>2022-02-27T10:11:36Z</time>
      </trkpt>
      <trkpt lat="47.52236" lon="2.055732">
        <ele>158.0</ele>
        <time>2022-02-27T10:11:37Z</time>
      </trkpt>
      <trkpt lat="47.522373" lon="2.055726">
        <ele>158.0</ele>
        <time>2022-02-27T10:11:38Z</time>
      </trkpt>
      <trkpt lat="47.522385" lon="2.055721">
        <ele>158.0</ele>
        <time>2022-02-27T10:11:39Z</time>
      </trkpt>
      <trkpt lat="47.522396" lon="2.0557163">
        <ele>158.0</ele>
        <time>2022-02-27T10:11:40Z</time>
      </trkpt>
      <trkpt lat="47.522408" lon="2.0557115">
        <ele>158.0</ele>
        <time>2022-02-27T10:11:41Z</time>
      </trkpt>
      <trkpt lat="47.52242" lon="2.0557084">
        <ele>159.0</ele>
        <time>2022-02-27T10:11:42Z</time>
      </trkpt>
      <trkpt lat="47.522427" lon="2.055706">
        <ele>160.0</ele>
        <time>2022-02-27T10:11:43Z</time>
      </trkpt>
      <trkpt lat="47.522438" lon="2.055694">
        <ele>159.0</ele>
        <time>2022-02-27T10:11:44Z</time>
      </trkpt>
      <trkpt lat="47.52245" lon="2.0556848">
        <ele>159.0</ele>
        <time>2022-02-27T10:11:45Z</time>
      </trkpt>
      <trkpt lat="47.52246" lon="2.0556803">
        <ele>159.0</ele>
        <time>2022-02-27T10:11:46Z</time>
      </trkpt>
      <trkpt lat="47.52247" lon="2.055675">
        <ele>159.0</ele>
        <time>2022-02-27T10:11:47Z</time>
      </trkpt>
      <trkpt lat="47.522476" lon="2.05567">
        <ele>159.0</ele>
        <time>2022-02-27T10:11:48Z</time>
      </trkpt>
      <trkpt lat="47.52248" lon="2.0556672">
        <ele>159.0</ele>
        <time>2022-02-27T10:11:49Z</time>
      </trkpt>
      <trkpt lat="47.52248" lon="2.0556672">
        <ele>159.0</ele>
        <time>2022-02-27T10:11:50Z</time>
      </trkpt>
      <trkpt lat="47.52248" lon="2.0556672">
        <ele>159.0</ele>
        <time>2022-02-27T10:11:51Z</time>
      </trkpt>
      <trkpt lat="47.522503" lon="2.0556607">
        <ele>160.0</ele>
        <time>2022-02-27T10:11:52Z</time>
      </trkpt>
      <trkpt lat="47.522514" lon="2.0556552">
        <ele>160.0</ele>
        <time>2022-02-27T10:11:53Z</time>
      </trkpt>
      <trkpt lat="47.522522" lon="2.055651">
        <ele>160.0</ele>
        <time>2022-02-27T10:11:54Z</time>
      </trkpt>
      <trkpt lat="47.522533" lon="2.0556371">
        <ele>160.0</ele>
        <time>2022-02-27T10:11:55Z</time>
      </trkpt>
      <trkpt lat="47.522545" lon="2.0556278">
        <ele>159.0</ele>
        <time>2022-02-27T10:11:56Z</time>
      </trkpt>
      <trkpt lat="47.522552" lon="2.05562">
        <ele>159.0</ele>
        <time>2022-02-27T10:11:57Z</time>
      </trkpt>
      <trkpt lat="47.522564" lon="2.0556087">
        <ele>159.0</ele>
        <time>2022-02-27T10:11:58Z</time>
      </trkpt>
      <trkpt lat="47.52257" lon="2.0556016">
        <ele>159.0</ele>
        <time>2022-02-27T10:11:59Z</time>
      </trkpt>
      <trkpt lat="47.522583" lon="2.0555954">
        <ele>159.0</ele>
        <time>2022-02-27T10:12:00Z</time>
      </trkpt>
      <trkpt lat="47.52259" lon="2.0555854">
        <ele>159.0</ele>
        <time>2022-02-27T10:12:01Z</time>
      </trkpt>
      <trkpt lat="47.522594" lon="2.0555775">
        <ele>159.0</ele>
        <time>2022-02-27T10:12:02Z</time>
      </trkpt>
      <trkpt lat="47.522602" lon="2.055573">
        <ele>159.0</ele>
        <time>2022-02-27T10:12:03Z</time>
      </trkpt>
      <trkpt lat="47.522614" lon="2.055567">
        <ele>158.0</ele>
        <time>2022-02-27T10:12:04Z</time>
      </trkpt>
      <trkpt lat="47.52262" lon="2.0555656">
        <ele>158.0</ele>
        <time>2022-02-27T10:12:05Z</time>
      </trkpt>
      <trkpt lat="47.522633" lon="2.0555682">
        <ele>158.0</ele>
        <time>2022-02-27T10:12:06Z</time>
      </trkpt>
      <trkpt lat="47.52264" lon="2.05557">
        <ele>158.0</ele>
        <time>2022-02-27T10:12:07Z</time>
      </trkpt>
      <trkpt lat="47.52265" lon="2.055569">
        <ele>159.0</ele>
        <time>2022-02-27T10:12:08Z</time>
      </trkpt>
      <trkpt lat="47.522663" lon="2.0555668">
        <ele>159.0</ele>
        <time>2022-02-27T10:12:09Z</time>
      </trkpt>
      <trkpt lat="47.52267" lon="2.0555646">
        <ele>160.0</ele>
        <time>2022-02-27T10:12:10Z</time>
      </trkpt>
      <trkpt lat="47.522682" lon="2.0555627">
        <ele>160.0</ele>
        <time>2022-02-27T10:12:11Z</time>
      </trkpt>
      <trkpt lat="47.52269" lon="2.0555642">
        <ele>160.0</ele>
        <time>2022-02-27T10:12:12Z</time>
      </trkpt>
      <trkpt lat="47.522697" lon="2.055564">
        <ele>160.0</ele>
        <time>2022-02-27T10:12:13Z</time>
      </trkpt>
      <trkpt lat="47.522705" lon="2.0555584">
        <ele>160.0</ele>
        <time>2022-02-27T10:12:14Z</time>
      </trkpt>
      <trkpt lat="47.522717" lon="2.0555534">
        <ele>160.0</ele>
        <time>2022-02-27T10:12:15Z</time>
      </trkpt>
      <trkpt lat="47.522724" lon="2.0555484">
        <ele>159.0</ele>
        <time>2022-02-27T10:12:16Z</time>
      </trkpt>
      <trkpt lat="47.522736" lon="2.055539">
        <ele>159.0</ele>
        <time>2022-02-27T10:12:17Z</time>
      </trkpt>
      <trkpt lat="47.52275" lon="2.0555344">
        <ele>159.0</ele>
        <time>2022-02-27T10:12:18Z</time>
      </trkpt>
      <trkpt lat="47.52276" lon="2.055533">
        <ele>158.0</ele>
        <time>2022-02-27T10:12:19Z</time>
      </trkpt>
      <trkpt lat="47.52277" lon="2.0555348">
        <ele>159.0</ele>
        <time>2022-02-27T10:12:20Z</time>
      </trkpt>
      <trkpt lat="47.522778" lon="2.0555372">
        <ele>159.0</ele>
        <time>2022-02-27T10:12:21Z</time>
      </trkpt>
      <trkpt lat="47.52279" lon="2.055538">
        <ele>159.0</ele>
        <time>2022-02-27T10:12:22Z</time>
      </trkpt>
      <trkpt lat="47.5228" lon="2.055535">
        <ele>159.0</ele>
        <time>2022-02-27T10:12:23Z</time>
      </trkpt>
      <trkpt lat="47.52281" lon="2.0555336">
        <ele>159.0</ele>
        <time>2022-02-27T10:12:24Z</time>
      </trkpt>
      <trkpt lat="47.522823" lon="2.0555372">
        <ele>159.0</ele>
        <time>2022-02-27T10:12:25Z</time>
      </trkpt>
      <trkpt lat="47.52283" lon="2.0555365">
        <ele>159.0</ele>
        <time>2022-02-27T10:12:26Z</time>
      </trkpt>
      <trkpt lat="47.522842" lon="2.0555346">
        <ele>158.0</ele>
        <time>2022-02-27T10:12:27Z</time>
      </trkpt>
      <trkpt lat="47.522854" lon="2.055535">
        <ele>158.0</ele>
        <time>2022-02-27T10:12:28Z</time>
      </trkpt>
      <trkpt lat="47.52286" lon="2.0555327">
        <ele>158.0</ele>
        <time>2022-02-27T10:12:29Z</time>
      </trkpt>
      <trkpt lat="47.522873" lon="2.0555346">
        <ele>158.0</ele>
        <time>2022-02-27T10:12:30Z</time>
      </trkpt>
      <trkpt lat="47.522884" lon="2.0555322">
        <ele>158.0</ele>
        <time>2022-02-27T10:12:31Z</time>
      </trkpt>
      <trkpt lat="47.522892" lon="2.0555332">
        <ele>158.0</ele>
        <time>2022-02-27T10:12:32Z</time>
      </trkpt>
      <trkpt lat="47.522903" lon="2.0555313">
        <ele>157.0</ele>
        <time>2022-02-27T10:12:33Z</time>
      </trkpt>
      <trkpt lat="47.52291" lon="2.0555286">
        <ele>157.0</ele>
        <time>2022-02-27T10:12:34Z</time>
      </trkpt>
      <trkpt lat="47.522923" lon="2.0555239">
        <ele>157.0</ele>
        <time>2022-02-27T10:12:35Z</time>
      </trkpt>
      <trkpt lat="47.522934" lon="2.0555198">
        <ele>157.0</ele>
        <time>2022-02-27T10:12:36Z</time>
      </trkpt>
      <trkpt lat="47.522945" lon="2.055519">
        <ele>158.0</ele>
        <time>2022-02-27T10:12:37Z</time>
      </trkpt>
      <trkpt lat="47.522957" lon="2.0555153">
        <ele>158.0</ele>
        <time>2022-02-27T10:12:38Z</time>
      </trkpt>
      <trkpt lat="47.52297" lon="2.055509">
        <ele>158.0</ele>
        <time>2022-02-27T10:12:39Z</time>
      </trkpt>
      <trkpt lat="47.52298" lon="2.0555058">
        <ele>159.0</ele>
        <time>2022-02-27T10:12:40Z</time>
      </trkpt>
      <trkpt lat="47.52299" lon="2.0555055">
        <ele>159.0</ele>
        <time>2022-02-27T10:12:41Z</time>
      </trkpt>
      <trkpt lat="47.523003" lon="2.0555036">
        <ele>160.0</ele>
        <time>2022-02-27T10:12:42Z</time>
      </trkpt>
      <trkpt lat="47.523014" lon="2.055503">
        <ele>160.0</ele>
        <time>2022-02-27T10:12:43Z</time>
      </trkpt>
      <trkpt lat="47.52303" lon="2.0555012">
        <ele>160.0</ele>
        <time>2022-02-27T10:12:44Z</time>
      </trkpt>
      <trkpt lat="47.523037" lon="2.0555022">
        <ele>160.0</ele>
        <time>2022-02-27T10:12:45Z</time>
      </trkpt>
      <trkpt lat="47.523045" lon="2.0555015">
        <ele>160.0</ele>
        <time>2022-02-27T10:12:46Z</time>
      </trkpt>
      <trkpt lat="47.523056" lon="2.0555024">
        <ele>160.0</ele>
        <time>2022-02-27T10:12:47Z</time>
      </trkpt>
      <trkpt lat="47.523067" lon="2.0555022">
        <ele>160.0</ele>
        <time>2022-02-27T10:12:48Z</time>
      </trkpt>
      <trkpt lat="47.523083" lon="2.0555007">
        <ele>161.0</ele>
        <time>2022-02-27T10:12:49Z</time>
      </trkpt>
      <trkpt lat="47.523094" lon="2.0554984">
        <ele>161.0</ele>
        <time>2022-02-27T10:12:50Z</time>
      </trkpt>
      <trkpt lat="47.5231" lon="2.0554996">
        <ele>161.0</ele>
        <time>2022-02-27T10:12:51Z</time>
      </trkpt>
      <trkpt lat="47.523113" lon="2.0554984">
        <ele>161.0</ele>
        <time>2022-02-27T10:12:52Z</time>
      </trkpt>
      <trkpt lat="47.52312" lon="2.0554962">
        <ele>160.0</ele>
        <time>2022-02-27T10:12:53Z</time>
      </trkpt>
      <trkpt lat="47.52313" lon="2.0554981">
        <ele>160.0</ele>
        <time>2022-02-27T10:12:54Z</time>
      </trkpt>
      <trkpt lat="47.52314" lon="2.0555065">
        <ele>160.0</ele>
        <time>2022-02-27T10:12:55Z</time>
      </trkpt>
      <trkpt lat="47.523148" lon="2.0555105">
        <ele>160.0</ele>
        <time>2022-02-27T10:12:56Z</time>
      </trkpt>
      <trkpt lat="47.52316" lon="2.055511">
        <ele>159.0</ele>
        <time>2022-02-27T10:12:57Z</time>
      </trkpt>
      <trkpt lat="47.523174" lon="2.055509">
        <ele>159.0</ele>
        <time>2022-02-27T10:12:58Z</time>
      </trkpt>
      <trkpt lat="47.523182" lon="2.0555089">
        <ele>158.0</ele>
        <time>2022-02-27T10:12:59Z</time>
      </trkpt>
      <trkpt lat="47.523193" lon="2.0555081">
        <ele>159.0</ele>
        <time>2022-02-27T10:13:00Z</time>
      </trkpt>
      <trkpt lat="47.523205" lon="2.0555074">
        <ele>159.0</ele>
        <time>2022-02-27T10:13:01Z</time>
      </trkpt>
      <trkpt lat="47.523216" lon="2.055505">
        <ele>158.0</ele>
        <time>2022-02-27T10:13:02Z</time>
      </trkpt>
      <trkpt lat="47.523228" lon="2.0555">
        <ele>158.0</ele>
        <time>2022-02-27T10:13:03Z</time>
      </trkpt>
      <trkpt lat="47.523235" lon="2.0554965">
        <ele>159.0</ele>
        <time>2022-02-27T10:13:04Z</time>
      </trkpt>
      <trkpt lat="47.523247" lon="2.0554953">
        <ele>158.0</ele>
        <time>2022-02-27T10:13:05Z</time>
      </trkpt>
      <trkpt lat="47.523254" lon="2.0554903">
        <ele>158.0</ele>
        <time>2022-02-27T10:13:06Z</time>
      </trkpt>
      <trkpt lat="47.523266" lon="2.05549">
        <ele>157.0</ele>
        <time>2022-02-27T10:13:07Z</time>
      </trkpt>
      <trkpt lat="47.523277" lon="2.055488">
        <ele>157.0</ele>
        <time>2022-02-27T10:13:08Z</time>
      </trkpt>
      <trkpt lat="47.52329" lon="2.055489">
        <ele>157.0</ele>
        <time>2022-02-27T10:13:09Z</time>
      </trkpt>
      <trkpt lat="47.5233" lon="2.0554872">
        <ele>156.0</ele>
        <time>2022-02-27T10:13:10Z</time>
      </trkpt>
      <trkpt lat="47.52331" lon="2.055487">
        <ele>156.0</ele>
        <time>2022-02-27T10:13:11Z</time>
      </trkpt>
      <trkpt lat="47.523323" lon="2.0554845">
        <ele>157.0</ele>
        <time>2022-02-27T10:13:12Z</time>
      </trkpt>
      <trkpt lat="47.523335" lon="2.0554812">
        <ele>157.0</ele>
        <time>2022-02-27T10:13:13Z</time>
      </trkpt>
      <trkpt lat="47.523346" lon="2.055477">
        <ele>157.0</ele>
        <time>2022-02-27T10:13:14Z</time>
      </trkpt>
      <trkpt lat="47.523357" lon="2.0554693">
        <ele>156.0</ele>
        <time>2022-02-27T10:13:15Z</time>
      </trkpt>
      <trkpt lat="47.52337" lon="2.0554647">
        <ele>156.0</ele>
        <time>2022-02-27T10:13:16Z</time>
      </trkpt>
      <trkpt lat="47.52338" lon="2.0554614">
        <ele>157.0</ele>
        <time>2022-02-27T10:13:17Z</time>
      </trkpt>
      <trkpt lat="47.52339" lon="2.0554588">
        <ele>156.0</ele>
        <time>2022-02-27T10:13:18Z</time>
      </trkpt>
      <trkpt lat="47.523403" lon="2.055455">
        <ele>156.0</ele>
        <time>2022-02-27T10:13:19Z</time>
      </trkpt>
      <trkpt lat="47.523415" lon="2.0554485">
        <ele>157.0</ele>
        <time>2022-02-27T10:13:20Z</time>
      </trkpt>
      <trkpt lat="47.523426" lon="2.0554445">
        <ele>157.0</ele>
        <time>2022-02-27T10:13:21Z</time>
      </trkpt>
      <trkpt lat="47.523426" lon="2.0554445">
        <ele>157.0</ele>
        <time>2022-02-27T10:13:22Z</time>
      </trkpt>
      <trkpt lat="47.523426" lon="2.0554445">
        <ele>157.0</ele>
        <time>2022-02-27T10:13:23Z</time>
      </trkpt>
      <trkpt lat="47.523453" lon="2.0554457">
        <ele>157.0</ele>
        <time>2022-02-27T10:13:24Z</time>
      </trkpt>
      <trkpt lat="47.52346" lon="2.0554476">
        <ele>157.0</ele>
        <time>2022-02-27T10:13:25Z</time>
      </trkpt>
      <trkpt lat="47.52347" lon="2.0554485">
        <ele>157.0</ele>
        <time>2022-02-27T10:13:26Z</time>
      </trkpt>
      <trkpt lat="47.523483" lon="2.0554466">
        <ele>158.0</ele>
        <time>2022-02-27T10:13:27Z</time>
      </trkpt>
      <trkpt lat="47.523495" lon="2.0554438">
        <ele>158.0</ele>
        <time>2022-02-27T10:13:28Z</time>
      </trkpt>
      <trkpt lat="47.523506" lon="2.0554438">
        <ele>158.0</ele>
        <time>2022-02-27T10:13:29Z</time>
      </trkpt>
      <trkpt lat="47.52352" lon="2.0554423">
        <ele>159.0</ele>
        <time>2022-02-27T10:13:30Z</time>
      </trkpt>
      <trkpt lat="47.523533" lon="2.055439">
        <ele>159.0</ele>
        <time>2022-02-27T10:13:31Z</time>
      </trkpt>
      <trkpt lat="47.52355" lon="2.055436">
        <ele>159.0</ele>
        <time>2022-02-27T10:13:32Z</time>
      </trkpt>
      <trkpt lat="47.52356" lon="2.0554368">
        <ele>159.0</ele>
        <time>2022-02-27T10:13:33Z</time>
      </trkpt>
      <trkpt lat="47.52357" lon="2.0554376">
        <ele>159.0</ele>
        <time>2022-02-27T10:13:34Z</time>
      </trkpt>
      <trkpt lat="47.52358" lon="2.0554333">
        <ele>159.0</ele>
        <time>2022-02-27T10:13:35Z</time>
      </trkpt>
      <trkpt lat="47.52359" lon="2.0554328">
        <ele>159.0</ele>
        <time>2022-02-27T10:13:36Z</time>
      </trkpt>
      <trkpt lat="47.523605" lon="2.0554326">
        <ele>159.0</ele>
        <time>2022-02-27T10:13:37Z</time>
      </trkpt>
      <trkpt lat="47.523613" lon="2.0554307">
        <ele>160.0</ele>
        <time>2022-02-27T10:13:38Z</time>
      </trkpt>
      <trkpt lat="47.523624" lon="2.0554273">
        <ele>160.0</ele>
        <time>2022-02-27T10:13:39Z</time>
      </trkpt>
      <trkpt lat="47.523636" lon="2.0554276">
        <ele>159.0</ele>
        <time>2022-02-27T10:13:40Z</time>
      </trkpt>
      <trkpt lat="47.523643" lon="2.0554273">
        <ele>159.0</ele>
        <time>2022-02-27T10:13:41Z</time>
      </trkpt>
      <trkpt lat="47.52366" lon="2.0554302">
        <ele>159.0</ele>
        <time>2022-02-27T10:13:42Z</time>
      </trkpt>
      <trkpt lat="47.52367" lon="2.0554273">
        <ele>158.0</ele>
        <time>2022-02-27T10:13:43Z</time>
      </trkpt>
      <trkpt lat="47.523685" lon="2.055428">
        <ele>158.0</ele>
        <time>2022-02-27T10:13:44Z</time>
      </trkpt>
      <trkpt lat="47.523697" lon="2.055427">
        <ele>158.0</ele>
        <time>2022-02-27T10:13:45Z</time>
      </trkpt>
      <trkpt lat="47.523712" lon="2.0554252">
        <ele>159.0</ele>
        <time>2022-02-27T10:13:46Z</time>
      </trkpt>
      <trkpt lat="47.523724" lon="2.0554245">
        <ele>159.0</ele>
        <time>2022-02-27T10:13:47Z</time>
      </trkpt>
      <trkpt lat="47.523735" lon="2.055427">
        <ele>159.0</ele>
        <time>2022-02-27T10:13:48Z</time>
      </trkpt>
      <trkpt lat="47.52375" lon="2.055431">
        <ele>159.0</ele>
        <time>2022-02-27T10:13:49Z</time>
      </trkpt>
      <trkpt lat="47.52376" lon="2.05543">
        <ele>159.0</ele>
        <time>2022-02-27T10:13:50Z</time>
      </trkpt>
      <trkpt lat="47.523773" lon="2.05543">
        <ele>159.0</ele>
        <time>2022-02-27T10:13:51Z</time>
      </trkpt>
      <trkpt lat="47.52379" lon="2.0554326">
        <ele>158.0</ele>
        <time>2022-02-27T10:13:52Z</time>
      </trkpt>
      <trkpt lat="47.523796" lon="2.0554364">
        <ele>159.0</ele>
        <time>2022-02-27T10:13:53Z</time>
      </trkpt>
      <trkpt lat="47.523808" lon="2.0554354">
        <ele>159.0</ele>
        <time>2022-02-27T10:13:54Z</time>
      </trkpt>
      <trkpt lat="47.52382" lon="2.0554354">
        <ele>159.0</ele>
        <time>2022-02-27T10:13:55Z</time>
      </trkpt>
      <trkpt lat="47.523834" lon="2.0554378">
        <ele>159.0</ele>
        <time>2022-02-27T10:13:56Z</time>
      </trkpt>
      <trkpt lat="47.523846" lon="2.0554407">
        <ele>158.0</ele>
        <time>2022-02-27T10:13:57Z</time>
      </trkpt>
      <trkpt lat="47.523857" lon="2.0554407">
        <ele>158.0</ele>
        <time>2022-02-27T10:13:58Z</time>
      </trkpt>
      <trkpt lat="47.523865" lon="2.055442">
        <ele>158.0</ele>
        <time>2022-02-27T10:13:59Z</time>
      </trkpt>
      <trkpt lat="47.52388" lon="2.055439">
        <ele>158.0</ele>
        <time>2022-02-27T10:14:00Z</time>
      </trkpt>
      <trkpt lat="47.523888" lon="2.055438">
        <ele>158.0</ele>
        <time>2022-02-27T10:14:01Z</time>
      </trkpt>
      <trkpt lat="47.5239" lon="2.0554366">
        <ele>158.0</ele>
        <time>2022-02-27T10:14:02Z</time>
      </trkpt>
      <trkpt lat="47.52391" lon="2.0554318">
        <ele>158.0</ele>
        <time>2022-02-27T10:14:03Z</time>
      </trkpt>
      <trkpt lat="47.523922" lon="2.0554302">
        <ele>158.0</ele>
        <time>2022-02-27T10:14:04Z</time>
      </trkpt>
      <trkpt lat="47.523933" lon="2.0554295">
        <ele>157.0</ele>
        <time>2022-02-27T10:14:05Z</time>
      </trkpt>
      <trkpt lat="47.523945" lon="2.0554256">
        <ele>157.0</ele>
        <time>2022-02-27T10:14:06Z</time>
      </trkpt>
      <trkpt lat="47.523956" lon="2.0554216">
        <ele>156.0</ele>
        <time>2022-02-27T10:14:07Z</time>
      </trkpt>
      <trkpt lat="47.52397" lon="2.0554144">
        <ele>156.0</ele>
        <time>2022-02-27T10:14:08Z</time>
      </trkpt>
      <trkpt lat="47.523987" lon="2.055415">
        <ele>156.0</ele>
        <time>2022-02-27T10:14:09Z</time>
      </trkpt>
      <trkpt lat="47.524" lon="2.055415">
        <ele>156.0</ele>
        <time>2022-02-27T10:14:10Z</time>
      </trkpt>
      <trkpt lat="47.524014" lon="2.0554152">
        <ele>155.0</ele>
        <time>2022-02-27T10:14:11Z</time>
      </trkpt>
      <trkpt lat="47.52403" lon="2.0554104">
        <ele>155.0</ele>
        <time>2022-02-27T10:14:12Z</time>
      </trkpt>
      <trkpt lat="47.524044" lon="2.0554075">
        <ele>155.0</ele>
        <time>2022-02-27T10:14:13Z</time>
      </trkpt>
      <trkpt lat="47.52406" lon="2.0554078">
        <ele>155.0</ele>
        <time>2022-02-27T10:14:14Z</time>
      </trkpt>
      <trkpt lat="47.52407" lon="2.0554066">
        <ele>155.0</ele>
        <time>2022-02-27T10:14:15Z</time>
      </trkpt>
      <trkpt lat="47.524082" lon="2.0554082">
        <ele>155.0</ele>
        <time>2022-02-27T10:14:16Z</time>
      </trkpt>
      <trkpt lat="47.524094" lon="2.0554094">
        <ele>155.0</ele>
        <time>2022-02-27T10:14:17Z</time>
      </trkpt>
      <trkpt lat="47.524105" lon="2.055415">
        <ele>155.0</ele>
        <time>2022-02-27T10:14:18Z</time>
      </trkpt>
      <trkpt lat="47.524113" lon="2.0554166">
        <ele>154.0</ele>
        <time>2022-02-27T10:14:19Z</time>
      </trkpt>
      <trkpt lat="47.524113" lon="2.0554166">
        <ele>154.0</ele>
        <time>2022-02-27T10:14:20Z</time>
      </trkpt>
      <trkpt lat="47.524113" lon="2.0554166">
        <ele>154.0</ele>
        <time>2022-02-27T10:14:21Z</time>
      </trkpt>
      <trkpt lat="47.524113" lon="2.0554166">
        <ele>154.0</ele>
        <time>2022-02-27T10:14:22Z</time>
      </trkpt>
      <trkpt lat="47.52414" lon="2.055418">
        <ele>154.0</ele>
        <time>2022-02-27T10:14:23Z</time>
      </trkpt>
      <trkpt lat="47.524155" lon="2.055415">
        <ele>154.0</ele>
        <time>2022-02-27T10:14:24Z</time>
      </trkpt>
      <trkpt lat="47.524162" lon="2.055413">
        <ele>154.0</ele>
        <time>2022-02-27T10:14:25Z</time>
      </trkpt>
      <trkpt lat="47.524174" lon="2.055412">
        <ele>154.0</ele>
        <time>2022-02-27T10:14:26Z</time>
      </trkpt>
      <trkpt lat="47.52419" lon="2.055411">
        <ele>154.0</ele>
        <time>2022-02-27T10:14:27Z</time>
      </trkpt>
      <trkpt lat="47.52419" lon="2.055411">
        <ele>154.0</ele>
        <time>2022-02-27T10:14:28Z</time>
      </trkpt>
      <trkpt lat="47.52419" lon="2.055411">
        <ele>154.0</ele>
        <time>2022-02-27T10:14:29Z</time>
      </trkpt>
      <trkpt lat="47.52422" lon="2.0554073">
        <ele>154.0</ele>
        <time>2022-02-27T10:14:30Z</time>
      </trkpt>
      <trkpt lat="47.52423" lon="2.055401">
        <ele>154.0</ele>
        <time>2022-02-27T10:14:31Z</time>
      </trkpt>
      <trkpt lat="47.524242" lon="2.0553997">
        <ele>155.0</ele>
        <time>2022-02-27T10:14:32Z</time>
      </trkpt>
      <trkpt lat="47.524258" lon="2.0553997">
        <ele>154.0</ele>
        <time>2022-02-27T10:14:33Z</time>
      </trkpt>
      <trkpt lat="47.52427" lon="2.0553997">
        <ele>154.0</ele>
        <time>2022-02-27T10:14:34Z</time>
      </trkpt>
      <trkpt lat="47.524277" lon="2.0553985">
        <ele>154.0</ele>
        <time>2022-02-27T10:14:35Z</time>
      </trkpt>
      <trkpt lat="47.524277" lon="2.0553985">
        <ele>154.0</ele>
        <time>2022-02-27T10:14:36Z</time>
      </trkpt>
      <trkpt lat="47.5243" lon="2.055397">
        <ele>153.0</ele>
        <time>2022-02-27T10:14:37Z</time>
      </trkpt>
      <trkpt lat="47.524315" lon="2.055398">
        <ele>153.0</ele>
        <time>2022-02-27T10:14:38Z</time>
      </trkpt>
      <trkpt lat="47.524323" lon="2.0553966">
        <ele>153.0</ele>
        <time>2022-02-27T10:14:39Z</time>
      </trkpt>
      <trkpt lat="47.52433" lon="2.0553977">
        <ele>153.0</ele>
        <time>2022-02-27T10:14:40Z</time>
      </trkpt>
      <trkpt lat="47.52434" lon="2.0553975">
        <ele>153.0</ele>
        <time>2022-02-27T10:14:41Z</time>
      </trkpt>
      <trkpt lat="47.524353" lon="2.0553927">
        <ele>153.0</ele>
        <time>2022-02-27T10:14:42Z</time>
      </trkpt>
      <trkpt lat="47.524364" lon="2.055393">
        <ele>153.0</ele>
        <time>2022-02-27T10:14:43Z</time>
      </trkpt>
      <trkpt lat="47.524376" lon="2.0553935">
        <ele>153.0</ele>
        <time>2022-02-27T10:14:44Z</time>
      </trkpt>
      <trkpt lat="47.524387" lon="2.0553935">
        <ele>152.0</ele>
        <time>2022-02-27T10:14:45Z</time>
      </trkpt>
      <trkpt lat="47.524403" lon="2.0553892">
        <ele>152.0</ele>
        <time>2022-02-27T10:14:46Z</time>
      </trkpt>
      <trkpt lat="47.524418" lon="2.055385">
        <ele>152.0</ele>
        <time>2022-02-27T10:14:47Z</time>
      </trkpt>
      <trkpt lat="47.52443" lon="2.0553803">
        <ele>152.0</ele>
        <time>2022-02-27T10:14:48Z</time>
      </trkpt>
      <trkpt lat="47.524437" lon="2.0553784">
        <ele>151.0</ele>
        <time>2022-02-27T10:14:49Z</time>
      </trkpt>
      <trkpt lat="47.52445" lon="2.0553787">
        <ele>151.0</ele>
        <time>2022-02-27T10:14:50Z</time>
      </trkpt>
      <trkpt lat="47.524464" lon="2.0553784">
        <ele>151.0</ele>
        <time>2022-02-27T10:14:51Z</time>
      </trkpt>
      <trkpt lat="47.52448" lon="2.0553813">
        <ele>150.0</ele>
        <time>2022-02-27T10:14:52Z</time>
      </trkpt>
      <trkpt lat="47.52449" lon="2.0553799">
        <ele>150.0</ele>
        <time>2022-02-27T10:14:53Z</time>
      </trkpt>
      <trkpt lat="47.5245" lon="2.0553806">
        <ele>150.0</ele>
        <time>2022-02-27T10:14:54Z</time>
      </trkpt>
      <trkpt lat="47.524513" lon="2.0553825">
        <ele>149.0</ele>
        <time>2022-02-27T10:14:55Z</time>
      </trkpt>
      <trkpt lat="47.52453" lon="2.0553782">
        <ele>149.0</ele>
        <time>2022-02-27T10:14:56Z</time>
      </trkpt>
      <trkpt lat="47.524544" lon="2.0553792">
        <ele>149.0</ele>
        <time>2022-02-27T10:14:57Z</time>
      </trkpt>
      <trkpt lat="47.52456" lon="2.0553763">
        <ele>150.0</ele>
        <time>2022-02-27T10:14:58Z</time>
      </trkpt>
      <trkpt lat="47.52457" lon="2.0553734">
        <ele>150.0</ele>
        <time>2022-02-27T10:14:59Z</time>
      </trkpt>
      <trkpt lat="47.524586" lon="2.0553706">
        <ele>150.0</ele>
        <time>2022-02-27T10:15:00Z</time>
      </trkpt>
      <trkpt lat="47.5246" lon="2.0553718">
        <ele>149.0</ele>
        <time>2022-02-27T10:15:01Z</time>
      </trkpt>
      <trkpt lat="47.52461" lon="2.0553682">
        <ele>149.0</ele>
        <time>2022-02-27T10:15:02Z</time>
      </trkpt>
      <trkpt lat="47.524624" lon="2.0553644">
        <ele>149.0</ele>
        <time>2022-02-27T10:15:03Z</time>
      </trkpt>
      <trkpt lat="47.524635" lon="2.0553646">
        <ele>149.0</ele>
        <time>2022-02-27T10:15:04Z</time>
      </trkpt>
      <trkpt lat="47.52465" lon="2.0553625">
        <ele>149.0</ele>
        <time>2022-02-27T10:15:05Z</time>
      </trkpt>
      <trkpt lat="47.524666" lon="2.0553627">
        <ele>149.0</ele>
        <time>2022-02-27T10:15:06Z</time>
      </trkpt>
      <trkpt lat="47.52468" lon="2.0553658">
        <ele>150.0</ele>
        <time>2022-02-27T10:15:07Z</time>
      </trkpt>
      <trkpt lat="47.5247" lon="2.055367">
        <ele>150.0</ele>
        <time>2022-02-27T10:15:08Z</time>
      </trkpt>
      <trkpt lat="47.52472" lon="2.0553682">
        <ele>151.0</ele>
        <time>2022-02-27T10:15:09Z</time>
      </trkpt>
      <trkpt lat="47.52474" lon="2.0553691">
        <ele>151.0</ele>
        <time>2022-02-27T10:15:10Z</time>
      </trkpt>
      <trkpt lat="47.524757" lon="2.0553646">
        <ele>152.0</ele>
        <time>2022-02-27T10:15:11Z</time>
      </trkpt>
      <trkpt lat="47.524773" lon="2.055359">
        <ele>152.0</ele>
        <time>2022-02-27T10:15:12Z</time>
      </trkpt>
      <trkpt lat="47.524784" lon="2.055353">
        <ele>151.0</ele>
        <time>2022-02-27T10:15:13Z</time>
      </trkpt>
      <trkpt lat="47.5248" lon="2.0553539">
        <ele>151.0</ele>
        <time>2022-02-27T10:15:14Z</time>
      </trkpt>
      <trkpt lat="47.52482" lon="2.05535">
        <ele>151.0</ele>
        <time>2022-02-27T10:15:15Z</time>
      </trkpt>
      <trkpt lat="47.52483" lon="2.0553472">
        <ele>151.0</ele>
        <time>2022-02-27T10:15:16Z</time>
      </trkpt>
      <trkpt lat="47.524845" lon="2.0553427">
        <ele>151.0</ele>
        <time>2022-02-27T10:15:17Z</time>
      </trkpt>
      <trkpt lat="47.52486" lon="2.055343">
        <ele>152.0</ele>
        <time>2022-02-27T10:15:18Z</time>
      </trkpt>
      <trkpt lat="47.52487" lon="2.0553434">
        <ele>152.0</ele>
        <time>2022-02-27T10:15:19Z</time>
      </trkpt>
      <trkpt lat="47.524883" lon="2.0553427">
        <ele>152.0</ele>
        <time>2022-02-27T10:15:20Z</time>
      </trkpt>
      <trkpt lat="47.524895" lon="2.0553381">
        <ele>153.0</ele>
        <time>2022-02-27T10:15:21Z</time>
      </trkpt>
      <trkpt lat="47.524906" lon="2.055334">
        <ele>152.0</ele>
        <time>2022-02-27T10:15:22Z</time>
      </trkpt>
      <trkpt lat="47.524918" lon="2.055328">
        <ele>153.0</ele>
        <time>2022-02-27T10:15:23Z</time>
      </trkpt>
      <trkpt lat="47.524933" lon="2.0553212">
        <ele>152.0</ele>
        <time>2022-02-27T10:15:24Z</time>
      </trkpt>
      <trkpt lat="47.52495" lon="2.0553179">
        <ele>153.0</ele>
        <time>2022-02-27T10:15:25Z</time>
      </trkpt>
      <trkpt lat="47.524956" lon="2.0553217">
        <ele>152.0</ele>
        <time>2022-02-27T10:15:26Z</time>
      </trkpt>
      <trkpt lat="47.524967" lon="2.0553253">
        <ele>152.0</ele>
        <time>2022-02-27T10:15:27Z</time>
      </trkpt>
      <trkpt lat="47.524982" lon="2.0553246">
        <ele>153.0</ele>
        <time>2022-02-27T10:15:28Z</time>
      </trkpt>
      <trkpt lat="47.524994" lon="2.0553277">
        <ele>152.0</ele>
        <time>2022-02-27T10:15:29Z</time>
      </trkpt>
      <trkpt lat="47.52501" lon="2.0553367">
        <ele>152.0</ele>
        <time>2022-02-27T10:15:30Z</time>
      </trkpt>
      <trkpt lat="47.52502" lon="2.0553377">
        <ele>153.0</ele>
        <time>2022-02-27T10:15:31Z</time>
      </trkpt>
      <trkpt lat="47.525032" lon="2.0553358">
        <ele>152.0</ele>
        <time>2022-02-27T10:15:32Z</time>
      </trkpt>
      <trkpt lat="47.525043" lon="2.055335">
        <ele>152.0</ele>
        <time>2022-02-27T10:15:33Z</time>
      </trkpt>
      <trkpt lat="47.52506" lon="2.0553362">
        <ele>152.0</ele>
        <time>2022-02-27T10:15:34Z</time>
      </trkpt>
      <trkpt lat="47.52507" lon="2.055338">
        <ele>152.0</ele>
        <time>2022-02-27T10:15:35Z</time>
      </trkpt>
      <trkpt lat="47.52508" lon="2.0553408">
        <ele>152.0</ele>
        <time>2022-02-27T10:15:36Z</time>
      </trkpt>
      <trkpt lat="47.52509" lon="2.0553393">
        <ele>152.0</ele>
        <time>2022-02-27T10:15:37Z</time>
      </trkpt>
      <trkpt lat="47.525105" lon="2.0553448">
        <ele>152.0</ele>
        <time>2022-02-27T10:15:38Z</time>
      </trkpt>
      <trkpt lat="47.525116" lon="2.0553534">
        <ele>151.0</ele>
        <time>2022-02-27T10:15:39Z</time>
      </trkpt>
      <trkpt lat="47.52513" lon="2.0553536">
        <ele>152.0</ele>
        <time>2022-02-27T10:15:40Z</time>
      </trkpt>
      <trkpt lat="47.52513" lon="2.0553536">
        <ele>152.0</ele>
        <time>2022-02-27T10:15:41Z</time>
      </trkpt>
      <trkpt lat="47.52513" lon="2.0553536">
        <ele>152.0</ele>
        <time>2022-02-27T10:15:42Z</time>
      </trkpt>
      <trkpt lat="47.525158" lon="2.0553534">
        <ele>151.0</ele>
        <time>2022-02-27T10:15:43Z</time>
      </trkpt>
      <trkpt lat="47.52517" lon="2.0553546">
        <ele>151.0</ele>
        <time>2022-02-27T10:15:44Z</time>
      </trkpt>
      <trkpt lat="47.525177" lon="2.0553517">
        <ele>151.0</ele>
        <time>2022-02-27T10:15:45Z</time>
      </trkpt>
      <trkpt lat="47.525185" lon="2.055348">
        <ele>151.0</ele>
        <time>2022-02-27T10:15:46Z</time>
      </trkpt>
      <trkpt lat="47.5252" lon="2.0553463">
        <ele>151.0</ele>
        <time>2022-02-27T10:15:47Z</time>
      </trkpt>
      <trkpt lat="47.52521" lon="2.0553415">
        <ele>151.0</ele>
        <time>2022-02-27T10:15:48Z</time>
      </trkpt>
      <trkpt lat="47.525223" lon="2.0553403">
        <ele>150.0</ele>
        <time>2022-02-27T10:15:49Z</time>
      </trkpt>
      <trkpt lat="47.525234" lon="2.0553415">
        <ele>149.0</ele>
        <time>2022-02-27T10:15:50Z</time>
      </trkpt>
      <trkpt lat="47.52525" lon="2.0553427">
        <ele>149.0</ele>
        <time>2022-02-27T10:15:51Z</time>
      </trkpt>
      <trkpt lat="47.525257" lon="2.055338">
        <ele>148.0</ele>
        <time>2022-02-27T10:15:52Z</time>
      </trkpt>
      <trkpt lat="47.525265" lon="2.055332">
        <ele>148.0</ele>
        <time>2022-02-27T10:15:53Z</time>
      </trkpt>
      <trkpt lat="47.525272" lon="2.0553327">
        <ele>148.0</ele>
        <time>2022-02-27T10:15:54Z</time>
      </trkpt>
      <trkpt lat="47.525288" lon="2.055329">
        <ele>147.0</ele>
        <time>2022-02-27T10:15:55Z</time>
      </trkpt>
      <trkpt lat="47.5253" lon="2.055327">
        <ele>147.0</ele>
        <time>2022-02-27T10:15:56Z</time>
      </trkpt>
      <trkpt lat="47.525314" lon="2.055326">
        <ele>147.0</ele>
        <time>2022-02-27T10:15:57Z</time>
      </trkpt>
      <trkpt lat="47.52533" lon="2.0553226">
        <ele>147.0</ele>
        <time>2022-02-27T10:15:58Z</time>
      </trkpt>
      <trkpt lat="47.525345" lon="2.0553188">
        <ele>147.0</ele>
        <time>2022-02-27T10:15:59Z</time>
      </trkpt>
      <trkpt lat="47.52536" lon="2.0553164">
        <ele>147.0</ele>
        <time>2022-02-27T10:16:00Z</time>
      </trkpt>
      <trkpt lat="47.52537" lon="2.0553215">
        <ele>147.0</ele>
        <time>2022-02-27T10:16:01Z</time>
      </trkpt>
      <trkpt lat="47.525387" lon="2.0553205">
        <ele>147.0</ele>
        <time>2022-02-27T10:16:02Z</time>
      </trkpt>
      <trkpt lat="47.5254" lon="2.055318">
        <ele>147.0</ele>
        <time>2022-02-27T10:16:03Z</time>
      </trkpt>
      <trkpt lat="47.52541" lon="2.0553198">
        <ele>146.0</ele>
        <time>2022-02-27T10:16:04Z</time>
      </trkpt>
      <trkpt lat="47.525417" lon="2.0553205">
        <ele>146.0</ele>
        <time>2022-02-27T10:16:05Z</time>
      </trkpt>
      <trkpt lat="47.525425" lon="2.0553186">
        <ele>146.0</ele>
        <time>2022-02-27T10:16:06Z</time>
      </trkpt>
      <trkpt lat="47.525436" lon="2.0553167">
        <ele>147.0</ele>
        <time>2022-02-27T10:16:07Z</time>
      </trkpt>
      <trkpt lat="47.525436" lon="2.0553167">
        <ele>147.0</ele>
        <time>2022-02-27T10:16:08Z</time>
      </trkpt>
      <trkpt lat="47.525436" lon="2.0553167">
        <ele>147.0</ele>
        <time>2022-02-27T10:16:09Z</time>
      </trkpt>
      <trkpt lat="47.52546" lon="2.0553224">
        <ele>147.0</ele>
        <time>2022-02-27T10:16:10Z</time>
      </trkpt>
      <trkpt lat="47.525467" lon="2.0553303">
        <ele>147.0</ele>
        <time>2022-02-27T10:16:11Z</time>
      </trkpt>
      <trkpt lat="47.525475" lon="2.0553374">
        <ele>147.0</ele>
        <time>2022-02-27T10:16:12Z</time>
      </trkpt>
      <trkpt lat="47.525482" lon="2.055343">
        <ele>147.0</ele>
        <time>2022-02-27T10:16:13Z</time>
      </trkpt>
      <trkpt lat="47.525486" lon="2.0553472">
        <ele>147.0</ele>
        <time>2022-02-27T10:16:14Z</time>
      </trkpt>
      <trkpt lat="47.5255" lon="2.0553455">
        <ele>148.0</ele>
        <time>2022-02-27T10:16:15Z</time>
      </trkpt>
      <trkpt lat="47.52551" lon="2.0553467">
        <ele>148.0</ele>
        <time>2022-02-27T10:16:16Z</time>
      </trkpt>
      <trkpt lat="47.52552" lon="2.055346">
        <ele>148.0</ele>
        <time>2022-02-27T10:16:17Z</time>
      </trkpt>
      <trkpt lat="47.52553" lon="2.0553458">
        <ele>148.0</ele>
        <time>2022-02-27T10:16:18Z</time>
      </trkpt>
      <trkpt lat="47.52554" lon="2.0553503">
        <ele>148.0</ele>
        <time>2022-02-27T10:16:19Z</time>
      </trkpt>
      <trkpt lat="47.52555" lon="2.0553527">
        <ele>149.0</ele>
        <time>2022-02-27T10:16:20Z</time>
      </trkpt>
      <trkpt lat="47.525562" lon="2.0553546">
        <ele>149.0</ele>
        <time>2022-02-27T10:16:21Z</time>
      </trkpt>
      <trkpt lat="47.525578" lon="2.0553565">
        <ele>150.0</ele>
        <time>2022-02-27T10:16:22Z</time>
      </trkpt>
      <trkpt lat="47.52559" lon="2.0553577">
        <ele>150.0</ele>
        <time>2022-02-27T10:16:23Z</time>
      </trkpt>
      <trkpt lat="47.5256" lon="2.0553598">
        <ele>151.0</ele>
        <time>2022-02-27T10:16:24Z</time>
      </trkpt>
      <trkpt lat="47.525608" lon="2.0553596">
        <ele>151.0</ele>
        <time>2022-02-27T10:16:25Z</time>
      </trkpt>
      <trkpt lat="47.525623" lon="2.0553572">
        <ele>151.0</ele>
        <time>2022-02-27T10:16:26Z</time>
      </trkpt>
      <trkpt lat="47.52564" lon="2.0553591">
        <ele>151.0</ele>
        <time>2022-02-27T10:16:27Z</time>
      </trkpt>
      <trkpt lat="47.52565" lon="2.0553632">
        <ele>151.0</ele>
        <time>2022-02-27T10:16:28Z</time>
      </trkpt>
      <trkpt lat="47.525665" lon="2.0553617">
        <ele>150.0</ele>
        <time>2022-02-27T10:16:29Z</time>
      </trkpt>
      <trkpt lat="47.52568" lon="2.055359">
        <ele>150.0</ele>
        <time>2022-02-27T10:16:30Z</time>
      </trkpt>
      <trkpt lat="47.525692" lon="2.0553572">
        <ele>151.0</ele>
        <time>2022-02-27T10:16:31Z</time>
      </trkpt>
      <trkpt lat="47.525707" lon="2.0553577">
        <ele>151.0</ele>
        <time>2022-02-27T10:16:32Z</time>
      </trkpt>
      <trkpt lat="47.52572" lon="2.055357">
        <ele>151.0</ele>
        <time>2022-02-27T10:16:33Z</time>
      </trkpt>
      <trkpt lat="47.52573" lon="2.0553563">
        <ele>151.0</ele>
        <time>2022-02-27T10:16:34Z</time>
      </trkpt>
      <trkpt lat="47.525738" lon="2.0553534">
        <ele>151.0</ele>
        <time>2022-02-27T10:16:35Z</time>
      </trkpt>
      <trkpt lat="47.52575" lon="2.0553517">
        <ele>151.0</ele>
        <time>2022-02-27T10:16:36Z</time>
      </trkpt>
      <trkpt lat="47.525764" lon="2.0553489">
        <ele>152.0</ele>
        <time>2022-02-27T10:16:37Z</time>
      </trkpt>
      <trkpt lat="47.525784" lon="2.055345">
        <ele>152.0</ele>
        <time>2022-02-27T10:16:38Z</time>
      </trkpt>
      <trkpt lat="47.5258" lon="2.0553446">
        <ele>153.0</ele>
        <time>2022-02-27T10:16:39Z</time>
      </trkpt>
      <trkpt lat="47.525814" lon="2.0553439">
        <ele>152.0</ele>
        <time>2022-02-27T10:16:40Z</time>
      </trkpt>
      <trkpt lat="47.52583" lon="2.0553498">
        <ele>153.0</ele>
        <time>2022-02-27T10:16:41Z</time>
      </trkpt>
      <trkpt lat="47.52584" lon="2.0553467">
        <ele>153.0</ele>
        <time>2022-02-27T10:16:42Z</time>
      </trkpt>
      <trkpt lat="47.525852" lon="2.0553484">
        <ele>152.0</ele>
        <time>2022-02-27T10:16:43Z</time>
      </trkpt>
      <trkpt lat="47.525867" lon="2.0553489">
        <ele>153.0</ele>
        <time>2022-02-27T10:16:44Z</time>
      </trkpt>
      <trkpt lat="47.52588" lon="2.0553496">
        <ele>153.0</ele>
        <time>2022-02-27T10:16:45Z</time>
      </trkpt>
      <trkpt lat="47.525894" lon="2.0553486">
        <ele>152.0</ele>
        <time>2022-02-27T10:16:46Z</time>
      </trkpt>
      <trkpt lat="47.525906" lon="2.0553472">
        <ele>153.0</ele>
        <time>2022-02-27T10:16:47Z</time>
      </trkpt>
      <trkpt lat="47.52592" lon="2.055345">
        <ele>153.0</ele>
        <time>2022-02-27T10:16:48Z</time>
      </trkpt>
      <trkpt lat="47.525936" lon="2.0553446">
        <ele>153.0</ele>
        <time>2022-02-27T10:16:49Z</time>
      </trkpt>
      <trkpt lat="47.525948" lon="2.0553434">
        <ele>153.0</ele>
        <time>2022-02-27T10:16:50Z</time>
      </trkpt>
      <trkpt lat="47.52596" lon="2.0553424">
        <ele>152.0</ele>
        <time>2022-02-27T10:16:51Z</time>
      </trkpt>
      <trkpt lat="47.525974" lon="2.0553393">
        <ele>152.0</ele>
        <time>2022-02-27T10:16:52Z</time>
      </trkpt>
      <trkpt lat="47.525993" lon="2.0553386">
        <ele>153.0</ele>
        <time>2022-02-27T10:16:53Z</time>
      </trkpt>
      <trkpt lat="47.52601" lon="2.0553424">
        <ele>153.0</ele>
        <time>2022-02-27T10:16:54Z</time>
      </trkpt>
      <trkpt lat="47.526024" lon="2.0553436">
        <ele>153.0</ele>
        <time>2022-02-27T10:16:55Z</time>
      </trkpt>
      <trkpt lat="47.52604" lon="2.0553448">
        <ele>153.0</ele>
        <time>2022-02-27T10:16:56Z</time>
      </trkpt>
      <trkpt lat="47.526054" lon="2.055346">
        <ele>153.0</ele>
        <time>2022-02-27T10:16:57Z</time>
      </trkpt>
      <trkpt lat="47.526062" lon="2.0553436">
        <ele>153.0</ele>
        <time>2022-02-27T10:16:58Z</time>
      </trkpt>
      <trkpt lat="47.526073" lon="2.0553412">
        <ele>153.0</ele>
        <time>2022-02-27T10:16:59Z</time>
      </trkpt>
      <trkpt lat="47.52609" lon="2.055337">
        <ele>153.0</ele>
        <time>2022-02-27T10:17:00Z</time>
      </trkpt>
      <trkpt lat="47.5261" lon="2.0553348">
        <ele>153.0</ele>
        <time>2022-02-27T10:17:01Z</time>
      </trkpt>
      <trkpt lat="47.526115" lon="2.0553348">
        <ele>153.0</ele>
        <time>2022-02-27T10:17:02Z</time>
      </trkpt>
      <trkpt lat="47.526127" lon="2.055331">
        <ele>153.0</ele>
        <time>2022-02-27T10:17:03Z</time>
      </trkpt>
      <trkpt lat="47.52614" lon="2.055332">
        <ele>152.0</ele>
        <time>2022-02-27T10:17:04Z</time>
      </trkpt>
      <trkpt lat="47.526154" lon="2.0553322">
        <ele>152.0</ele>
        <time>2022-02-27T10:17:05Z</time>
      </trkpt>
      <trkpt lat="47.526154" lon="2.0553322">
        <ele>152.0</ele>
        <time>2022-02-27T10:17:06Z</time>
      </trkpt>
      <trkpt lat="47.526154" lon="2.0553322">
        <ele>152.0</ele>
        <time>2022-02-27T10:17:07Z</time>
      </trkpt>
      <trkpt lat="47.52618" lon="2.0553381">
        <ele>153.0</ele>
        <time>2022-02-27T10:17:08Z</time>
      </trkpt>
      <trkpt lat="47.52619" lon="2.0553367">
        <ele>153.0</ele>
        <time>2022-02-27T10:17:09Z</time>
      </trkpt>
      <trkpt lat="47.5262" lon="2.055336">
        <ele>153.0</ele>
        <time>2022-02-27T10:17:10Z</time>
      </trkpt>
      <trkpt lat="47.526203" lon="2.055335">
        <ele>153.0</ele>
        <time>2022-02-27T10:17:11Z</time>
      </trkpt>
      <trkpt lat="47.52621" lon="2.0553374">
        <ele>153.0</ele>
        <time>2022-02-27T10:17:12Z</time>
      </trkpt>
      <trkpt lat="47.526215" lon="2.055337">
        <ele>154.0</ele>
        <time>2022-02-27T10:17:13Z</time>
      </trkpt>
      <trkpt lat="47.526215" lon="2.055337">
        <ele>154.0</ele>
        <time>2022-02-27T10:17:14Z</time>
      </trkpt>
      <trkpt lat="47.526234" lon="2.0553324">
        <ele>153.0</ele>
        <time>2022-02-27T10:17:15Z</time>
      </trkpt>
      <trkpt lat="47.526245" lon="2.055331">
        <ele>153.0</ele>
        <time>2022-02-27T10:17:16Z</time>
      </trkpt>
      <trkpt lat="47.526257" lon="2.0553298">
        <ele>153.0</ele>
        <time>2022-02-27T10:17:17Z</time>
      </trkpt>
      <trkpt lat="47.526268" lon="2.0553308">
        <ele>153.0</ele>
        <time>2022-02-27T10:17:18Z</time>
      </trkpt>
      <trkpt lat="47.526283" lon="2.0553315">
        <ele>152.0</ele>
        <time>2022-02-27T10:17:19Z</time>
      </trkpt>
      <trkpt lat="47.526295" lon="2.0553367">
        <ele>152.0</ele>
        <time>2022-02-27T10:17:20Z</time>
      </trkpt>
      <trkpt lat="47.52631" lon="2.055341">
        <ele>152.0</ele>
        <time>2022-02-27T10:17:21Z</time>
      </trkpt>
      <trkpt lat="47.526314" lon="2.0553412">
        <ele>152.0</ele>
        <time>2022-02-27T10:17:22Z</time>
      </trkpt>
      <trkpt lat="47.526325" lon="2.0553415">
        <ele>152.0</ele>
        <time>2022-02-27T10:17:23Z</time>
      </trkpt>
      <trkpt lat="47.52634" lon="2.0553424">
        <ele>151.0</ele>
        <time>2022-02-27T10:17:24Z</time>
      </trkpt>
      <trkpt lat="47.52635" lon="2.0553458">
        <ele>151.0</ele>
        <time>2022-02-27T10:17:25Z</time>
      </trkpt>
      <trkpt lat="47.526363" lon="2.0553489">
        <ele>152.0</ele>
        <time>2022-02-27T10:17:26Z</time>
      </trkpt>
      <trkpt lat="47.52638" lon="2.0553503">
        <ele>152.0</ele>
        <time>2022-02-27T10:17:27Z</time>
      </trkpt>
      <trkpt lat="47.526394" lon="2.055351">
        <ele>152.0</ele>
        <time>2022-02-27T10:17:28Z</time>
      </trkpt>
      <trkpt lat="47.52641" lon="2.0553472">
        <ele>152.0</ele>
        <time>2022-02-27T10:17:29Z</time>
      </trkpt>
      <trkpt lat="47.526417" lon="2.0553575">
        <ele>151.0</ele>
        <time>2022-02-27T10:17:30Z</time>
      </trkpt>
      <trkpt lat="47.52643" lon="2.0553668">
        <ele>150.0</ele>
        <time>2022-02-27T10:17:31Z</time>
      </trkpt>
      <trkpt lat="47.526436" lon="2.0553677">
        <ele>150.0</ele>
        <time>2022-02-27T10:17:32Z</time>
      </trkpt>
      <trkpt lat="47.526447" lon="2.05537">
        <ele>150.0</ele>
        <time>2022-02-27T10:17:33Z</time>
      </trkpt>
      <trkpt lat="47.52646" lon="2.05537">
        <ele>150.0</ele>
        <time>2022-02-27T10:17:34Z</time>
      </trkpt>
      <trkpt lat="47.526474" lon="2.0553658">
        <ele>151.0</ele>
        <time>2022-02-27T10:17:35Z</time>
      </trkpt>
      <trkpt lat="47.52649" lon="2.0553637">
        <ele>151.0</ele>
        <time>2022-02-27T10:17:36Z</time>
      </trkpt>
      <trkpt lat="47.5265" lon="2.0553617">
        <ele>151.0</ele>
        <time>2022-02-27T10:17:37Z</time>
      </trkpt>
      <trkpt lat="47.526512" lon="2.0553613">
        <ele>151.0</ele>
        <time>2022-02-27T10:17:38Z</time>
      </trkpt>
      <trkpt lat="47.526527" lon="2.0553627">
        <ele>151.0</ele>
        <time>2022-02-27T10:17:39Z</time>
      </trkpt>
      <trkpt lat="47.52654" lon="2.0553617">
        <ele>151.0</ele>
        <time>2022-02-27T10:17:40Z</time>
      </trkpt>
      <trkpt lat="47.526546" lon="2.0553582">
        <ele>151.0</ele>
        <time>2022-02-27T10:17:41Z</time>
      </trkpt>
      <trkpt lat="47.526558" lon="2.0553582">
        <ele>151.0</ele>
        <time>2022-02-27T10:17:42Z</time>
      </trkpt>
      <trkpt lat="47.526573" lon="2.0553646">
        <ele>151.0</ele>
        <time>2022-02-27T10:17:43Z</time>
      </trkpt>
      <trkpt lat="47.526585" lon="2.0553737">
        <ele>151.0</ele>
        <time>2022-02-27T10:17:44Z</time>
      </trkpt>
      <trkpt lat="47.526604" lon="2.0553703">
        <ele>151.0</ele>
        <time>2022-02-27T10:17:45Z</time>
      </trkpt>
      <trkpt lat="47.52662" lon="2.0553675">
        <ele>152.0</ele>
        <time>2022-02-27T10:17:46Z</time>
      </trkpt>
      <trkpt lat="47.526634" lon="2.0553725">
        <ele>151.0</ele>
        <time>2022-02-27T10:17:47Z</time>
      </trkpt>
      <trkpt lat="47.526646" lon="2.055374">
        <ele>151.0</ele>
        <time>2022-02-27T10:17:48Z</time>
      </trkpt>
      <trkpt lat="47.526653" lon="2.055377">
        <ele>151.0</ele>
        <time>2022-02-27T10:17:49Z</time>
      </trkpt>
      <trkpt lat="47.52666" lon="2.0553708">
        <ele>151.0</ele>
        <time>2022-02-27T10:17:50Z</time>
      </trkpt>
      <trkpt lat="47.52666" lon="2.0553708">
        <ele>151.0</ele>
        <time>2022-02-27T10:17:51Z</time>
      </trkpt>
      <trkpt lat="47.52666" lon="2.0553708">
        <ele>151.0</ele>
        <time>2022-02-27T10:17:52Z</time>
      </trkpt>
      <trkpt lat="47.526688" lon="2.0553663">
        <ele>150.0</ele>
        <time>2022-02-27T10:17:53Z</time>
      </trkpt>
      <trkpt lat="47.526707" lon="2.0553632">
        <ele>151.0</ele>
        <time>2022-02-27T10:17:54Z</time>
      </trkpt>
      <trkpt lat="47.526722" lon="2.055364">
        <ele>152.0</ele>
        <time>2022-02-27T10:17:55Z</time>
      </trkpt>
      <trkpt lat="47.526737" lon="2.0553641">
        <ele>152.0</ele>
        <time>2022-02-27T10:17:56Z</time>
      </trkpt>
      <trkpt lat="47.526756" lon="2.0553675">
        <ele>152.0</ele>
        <time>2022-02-27T10:17:57Z</time>
      </trkpt>
      <trkpt lat="47.52677" lon="2.0553653">
        <ele>152.0</ele>
        <time>2022-02-27T10:17:58Z</time>
      </trkpt>
      <trkpt lat="47.52679" lon="2.0553634">
        <ele>153.0</ele>
        <time>2022-02-27T10:17:59Z</time>
      </trkpt>
      <trkpt lat="47.526806" lon="2.0553632">
        <ele>153.0</ele>
        <time>2022-02-27T10:18:00Z</time>
      </trkpt>
      <trkpt lat="47.526817" lon="2.0553677">
        <ele>154.0</ele>
        <time>2022-02-27T10:18:01Z</time>
      </trkpt>
      <trkpt lat="47.526833" lon="2.0553772">
        <ele>153.0</ele>
        <time>2022-02-27T10:18:02Z</time>
      </trkpt>
      <trkpt lat="47.526848" lon="2.0553803">
        <ele>153.0</ele>
        <time>2022-02-27T10:18:03Z</time>
      </trkpt>
      <trkpt lat="47.526863" lon="2.0553782">
        <ele>153.0</ele>
        <time>2022-02-27T10:18:04Z</time>
      </trkpt>
      <trkpt lat="47.52688" lon="2.05538">
        <ele>152.0</ele>
        <time>2022-02-27T10:18:05Z</time>
      </trkpt>
      <trkpt lat="47.52689" lon="2.0553787">
        <ele>152.0</ele>
        <time>2022-02-27T10:18:06Z</time>
      </trkpt>
      <trkpt lat="47.526897" lon="2.0553741">
        <ele>152.0</ele>
        <time>2022-02-27T10:18:07Z</time>
      </trkpt>
      <trkpt lat="47.526905" lon="2.0553722">
        <ele>152.0</ele>
        <time>2022-02-27T10:18:08Z</time>
      </trkpt>
      <trkpt lat="47.52691" lon="2.0553734">
        <ele>152.0</ele>
        <time>2022-02-27T10:18:09Z</time>
      </trkpt>
      <trkpt lat="47.526917" lon="2.0553753">
        <ele>153.0</ele>
        <time>2022-02-27T10:18:10Z</time>
      </trkpt>
      <trkpt lat="47.526917" lon="2.0553775">
        <ele>153.0</ele>
        <time>2022-02-27T10:18:11Z</time>
      </trkpt>
      <trkpt lat="47.52692" lon="2.0553784">
        <ele>153.0</ele>
        <time>2022-02-27T10:18:12Z</time>
      </trkpt>
      <trkpt lat="47.52693" lon="2.055372">
        <ele>154.0</ele>
        <time>2022-02-27T10:18:13Z</time>
      </trkpt>
      <trkpt lat="47.52694" lon="2.0553703">
        <ele>154.0</ele>
        <time>2022-02-27T10:18:14Z</time>
      </trkpt>
      <trkpt lat="47.526943" lon="2.0553699">
        <ele>154.0</ele>
        <time>2022-02-27T10:18:15Z</time>
      </trkpt>
      <trkpt lat="47.526943" lon="2.0553699">
        <ele>154.0</ele>
        <time>2022-02-27T10:18:16Z</time>
      </trkpt>
      <trkpt lat="47.526943" lon="2.0553699">
        <ele>154.0</ele>
        <time>2022-02-27T10:18:17Z</time>
      </trkpt>
      <trkpt lat="47.52697" lon="2.0553632">
        <ele>154.0</ele>
        <time>2022-02-27T10:18:18Z</time>
      </trkpt>
      <trkpt lat="47.526978" lon="2.055362">
        <ele>154.0</ele>
        <time>2022-02-27T10:18:19Z</time>
      </trkpt>
      <trkpt lat="47.526985" lon="2.0553591">
        <ele>155.0</ele>
        <time>2022-02-27T10:18:20Z</time>
      </trkpt>
      <trkpt lat="47.526997" lon="2.055359">
        <ele>155.0</ele>
        <time>2022-02-27T10:18:21Z</time>
      </trkpt>
      <trkpt lat="47.526997" lon="2.055359">
        <ele>155.0</ele>
        <time>2022-02-27T10:18:22Z</time>
      </trkpt>
      <trkpt lat="47.526997" lon="2.055359">
        <ele>155.0</ele>
        <time>2022-02-27T10:18:23Z</time>
      </trkpt>
      <trkpt lat="47.52702" lon="2.0553572">
        <ele>155.0</ele>
        <time>2022-02-27T10:18:24Z</time>
      </trkpt>
      <trkpt lat="47.527035" lon="2.055353">
        <ele>155.0</ele>
        <time>2022-02-27T10:18:25Z</time>
      </trkpt>
      <trkpt lat="47.52704" lon="2.0553477">
        <ele>155.0</ele>
        <time>2022-02-27T10:18:26Z</time>
      </trkpt>
      <trkpt lat="47.52705" lon="2.0553443">
        <ele>155.0</ele>
        <time>2022-02-27T10:18:27Z</time>
      </trkpt>
      <trkpt lat="47.527058" lon="2.0553453">
        <ele>155.0</ele>
        <time>2022-02-27T10:18:28Z</time>
      </trkpt>
      <trkpt lat="47.527065" lon="2.055344">
        <ele>155.0</ele>
        <time>2022-02-27T10:18:29Z</time>
      </trkpt>
      <trkpt lat="47.527077" lon="2.0553436">
        <ele>155.0</ele>
        <time>2022-02-27T10:18:30Z</time>
      </trkpt>
      <trkpt lat="47.527092" lon="2.055336">
        <ele>154.0</ele>
        <time>2022-02-27T10:18:31Z</time>
      </trkpt>
      <trkpt lat="47.527107" lon="2.0553403">
        <ele>154.0</ele>
        <time>2022-02-27T10:18:32Z</time>
      </trkpt>
      <trkpt lat="47.52712" lon="2.0553443">
        <ele>154.0</ele>
        <time>2022-02-27T10:18:33Z</time>
      </trkpt>
      <trkpt lat="47.52713" lon="2.0553498">
        <ele>155.0</ele>
        <time>2022-02-27T10:18:34Z</time>
      </trkpt>
      <trkpt lat="47.52714" lon="2.0553489">
        <ele>155.0</ele>
        <time>2022-02-27T10:18:35Z</time>
      </trkpt>
      <trkpt lat="47.527145" lon="2.055346">
        <ele>155.0</ele>
        <time>2022-02-27T10:18:36Z</time>
      </trkpt>
      <trkpt lat="47.527153" lon="2.0553465">
        <ele>155.0</ele>
        <time>2022-02-27T10:18:37Z</time>
      </trkpt>
      <trkpt lat="47.527164" lon="2.0553517">
        <ele>155.0</ele>
        <time>2022-02-27T10:18:38Z</time>
      </trkpt>
      <trkpt lat="47.52718" lon="2.0553448">
        <ele>156.0</ele>
        <time>2022-02-27T10:18:39Z</time>
      </trkpt>
      <trkpt lat="47.52719" lon="2.0553417">
        <ele>156.0</ele>
        <time>2022-02-27T10:18:40Z</time>
      </trkpt>
      <trkpt lat="47.527206" lon="2.0553389">
        <ele>156.0</ele>
        <time>2022-02-27T10:18:41Z</time>
      </trkpt>
      <trkpt lat="47.52722" lon="2.0553362">
        <ele>156.0</ele>
        <time>2022-02-27T10:18:42Z</time>
      </trkpt>
      <trkpt lat="47.527233" lon="2.0553246">
        <ele>155.0</ele>
        <time>2022-02-27T10:18:43Z</time>
      </trkpt>
      <trkpt lat="47.527245" lon="2.0553153">
        <ele>155.0</ele>
        <time>2022-02-27T10:18:44Z</time>
      </trkpt>
      <trkpt lat="47.52725" lon="2.0553122">
        <ele>154.0</ele>
        <time>2022-02-27T10:18:45Z</time>
      </trkpt>
      <trkpt lat="47.52725" lon="2.0553122">
        <ele>154.0</ele>
        <time>2022-02-27T10:18:46Z</time>
      </trkpt>
      <trkpt lat="47.52725" lon="2.0553122">
        <ele>154.0</ele>
        <time>2022-02-27T10:18:47Z</time>
      </trkpt>
      <trkpt lat="47.52728" lon="2.0552938">
        <ele>156.0</ele>
        <time>2022-02-27T10:18:48Z</time>
      </trkpt>
      <trkpt lat="47.52728" lon="2.0552871">
        <ele>156.0</ele>
        <time>2022-02-27T10:18:49Z</time>
      </trkpt>
      <trkpt lat="47.52728" lon="2.0552807">
        <ele>157.0</ele>
        <time>2022-02-27T10:18:50Z</time>
      </trkpt>
      <trkpt lat="47.527283" lon="2.0552735">
        <ele>157.0</ele>
        <time>2022-02-27T10:18:51Z</time>
      </trkpt>
      <trkpt lat="47.52729" lon="2.0552676">
        <ele>158.0</ele>
        <time>2022-02-27T10:18:52Z</time>
      </trkpt>
      <trkpt lat="47.527294" lon="2.0552683">
        <ele>158.0</ele>
        <time>2022-02-27T10:18:53Z</time>
      </trkpt>
      <trkpt lat="47.527294" lon="2.0552683">
        <ele>158.0</ele>
        <time>2022-02-27T10:18:54Z</time>
      </trkpt>
      <trkpt lat="47.527313" lon="2.0552652">
        <ele>158.0</ele>
        <time>2022-02-27T10:18:55Z</time>
      </trkpt>
      <trkpt lat="47.52733" lon="2.0552619">
        <ele>158.0</ele>
        <time>2022-02-27T10:18:56Z</time>
      </trkpt>
      <trkpt lat="47.52734" lon="2.0552597">
        <ele>157.0</ele>
        <time>2022-02-27T10:18:57Z</time>
      </trkpt>
      <trkpt lat="47.527348" lon="2.055261">
        <ele>157.0</ele>
        <time>2022-02-27T10:18:58Z</time>
      </trkpt>
      <trkpt lat="47.527355" lon="2.0552633">
        <ele>157.0</ele>
        <time>2022-02-27T10:18:59Z</time>
      </trkpt>
      <trkpt lat="47.527363" lon="2.055255">
        <ele>157.0</ele>
        <time>2022-02-27T10:19:00Z</time>
      </trkpt>
      <trkpt lat="47.527363" lon="2.055255">
        <ele>157.0</ele>
        <time>2022-02-27T10:19:01Z</time>
      </trkpt>
      <trkpt lat="47.527386" lon="2.055244">
        <ele>156.0</ele>
        <time>2022-02-27T10:19:02Z</time>
      </trkpt>
      <trkpt lat="47.527397" lon="2.0552404">
        <ele>156.0</ele>
        <time>2022-02-27T10:19:03Z</time>
      </trkpt>
      <trkpt lat="47.527412" lon="2.0552363">
        <ele>156.0</ele>
        <time>2022-02-27T10:19:04Z</time>
      </trkpt>
      <trkpt lat="47.527428" lon="2.0552385">
        <ele>156.0</ele>
        <time>2022-02-27T10:19:05Z</time>
      </trkpt>
      <trkpt lat="47.52744" lon="2.055232">
        <ele>156.0</ele>
        <time>2022-02-27T10:19:06Z</time>
      </trkpt>
      <trkpt lat="47.52745" lon="2.0552263">
        <ele>155.0</ele>
        <time>2022-02-27T10:19:07Z</time>
      </trkpt>
      <trkpt lat="47.527454" lon="2.055224">
        <ele>155.0</ele>
        <time>2022-02-27T10:19:08Z</time>
      </trkpt>
      <trkpt lat="47.527466" lon="2.055217">
        <ele>155.0</ele>
        <time>2022-02-27T10:19:09Z</time>
      </trkpt>
      <trkpt lat="47.52748" lon="2.0552146">
        <ele>155.0</ele>
        <time>2022-02-27T10:19:10Z</time>
      </trkpt>
      <trkpt lat="47.527496" lon="2.0552082">
        <ele>155.0</ele>
        <time>2022-02-27T10:19:11Z</time>
      </trkpt>
      <trkpt lat="47.527508" lon="2.0551977">
        <ele>155.0</ele>
        <time>2022-02-27T10:19:12Z</time>
      </trkpt>
      <trkpt lat="47.527523" lon="2.0551894">
        <ele>154.0</ele>
        <time>2022-02-27T10:19:13Z</time>
      </trkpt>
      <trkpt lat="47.527534" lon="2.0551825">
        <ele>154.0</ele>
        <time>2022-02-27T10:19:14Z</time>
      </trkpt>
      <trkpt lat="47.527554" lon="2.055178">
        <ele>154.0</ele>
        <time>2022-02-27T10:19:15Z</time>
      </trkpt>
      <trkpt lat="47.527573" lon="2.0551698">
        <ele>154.0</ele>
        <time>2022-02-27T10:19:16Z</time>
      </trkpt>
      <trkpt lat="47.527588" lon="2.0551639">
        <ele>154.0</ele>
        <time>2022-02-27T10:19:17Z</time>
      </trkpt>
      <trkpt lat="47.527607" lon="2.0551562">
        <ele>153.0</ele>
        <time>2022-02-27T10:19:18Z</time>
      </trkpt>
      <trkpt lat="47.52762" lon="2.055149">
        <ele>153.0</ele>
        <time>2022-02-27T10:19:19Z</time>
      </trkpt>
      <trkpt lat="47.52763" lon="2.0551386">
        <ele>152.0</ele>
        <time>2022-02-27T10:19:20Z</time>
      </trkpt>
      <trkpt lat="47.52764" lon="2.0551314">
        <ele>152.0</ele>
        <time>2022-02-27T10:19:21Z</time>
      </trkpt>
      <trkpt lat="47.527653" lon="2.05512">
        <ele>151.0</ele>
        <time>2022-02-27T10:19:22Z</time>
      </trkpt>
      <trkpt lat="47.527668" lon="2.0551195">
        <ele>152.0</ele>
        <time>2022-02-27T10:19:23Z</time>
      </trkpt>
      <trkpt lat="47.527683" lon="2.0551205">
        <ele>152.0</ele>
        <time>2022-02-27T10:19:24Z</time>
      </trkpt>
      <trkpt lat="47.5277" lon="2.0551193">
        <ele>152.0</ele>
        <time>2022-02-27T10:19:25Z</time>
      </trkpt>
      <trkpt lat="47.527718" lon="2.055117">
        <ele>152.0</ele>
        <time>2022-02-27T10:19:26Z</time>
      </trkpt>
      <trkpt lat="47.52773" lon="2.0551064">
        <ele>152.0</ele>
        <time>2022-02-27T10:19:27Z</time>
      </trkpt>
      <trkpt lat="47.52774" lon="2.0550954">
        <ele>152.0</ele>
        <time>2022-02-27T10:19:28Z</time>
      </trkpt>
      <trkpt lat="47.52775" lon="2.055093">
        <ele>152.0</ele>
        <time>2022-02-27T10:19:29Z</time>
      </trkpt>
      <trkpt lat="47.52776" lon="2.0550911">
        <ele>152.0</ele>
        <time>2022-02-27T10:19:30Z</time>
      </trkpt>
      <trkpt lat="47.52777" lon="2.05509">
        <ele>152.0</ele>
        <time>2022-02-27T10:19:31Z</time>
      </trkpt>
      <trkpt lat="47.52778" lon="2.055084">
        <ele>152.0</ele>
        <time>2022-02-27T10:19:32Z</time>
      </trkpt>
      <trkpt lat="47.527794" lon="2.0550778">
        <ele>152.0</ele>
        <time>2022-02-27T10:19:33Z</time>
      </trkpt>
      <trkpt lat="47.527805" lon="2.0550737">
        <ele>153.0</ele>
        <time>2022-02-27T10:19:34Z</time>
      </trkpt>
      <trkpt lat="47.527817" lon="2.055069">
        <ele>153.0</ele>
        <time>2022-02-27T10:19:35Z</time>
      </trkpt>
      <trkpt lat="47.52783" lon="2.0550628">
        <ele>152.0</ele>
        <time>2022-02-27T10:19:36Z</time>
      </trkpt>
      <trkpt lat="47.52784" lon="2.0550582">
        <ele>153.0</ele>
        <time>2022-02-27T10:19:37Z</time>
      </trkpt>
      <trkpt lat="47.52785" lon="2.0550523">
        <ele>152.0</ele>
        <time>2022-02-27T10:19:38Z</time>
      </trkpt>
      <trkpt lat="47.527866" lon="2.0550494">
        <ele>152.0</ele>
        <time>2022-02-27T10:19:39Z</time>
      </trkpt>
      <trkpt lat="47.52788" lon="2.0550463">
        <ele>152.0</ele>
        <time>2022-02-27T10:19:40Z</time>
      </trkpt>
      <trkpt lat="47.527893" lon="2.0550423">
        <ele>152.0</ele>
        <time>2022-02-27T10:19:41Z</time>
      </trkpt>
      <trkpt lat="47.527905" lon="2.055036">
        <ele>152.0</ele>
        <time>2022-02-27T10:19:42Z</time>
      </trkpt>
      <trkpt lat="47.527916" lon="2.055036">
        <ele>152.0</ele>
        <time>2022-02-27T10:19:43Z</time>
      </trkpt>
      <trkpt lat="47.52793" lon="2.0550408">
        <ele>152.0</ele>
        <time>2022-02-27T10:19:44Z</time>
      </trkpt>
      <trkpt lat="47.527946" lon="2.0550432">
        <ele>153.0</ele>
        <time>2022-02-27T10:19:45Z</time>
      </trkpt>
      <trkpt lat="47.527966" lon="2.0550451">
        <ele>153.0</ele>
        <time>2022-02-27T10:19:46Z</time>
      </trkpt>
      <trkpt lat="47.527977" lon="2.0550475">
        <ele>153.0</ele>
        <time>2022-02-27T10:19:47Z</time>
      </trkpt>
      <trkpt lat="47.527985" lon="2.055047">
        <ele>153.0</ele>
        <time>2022-02-27T10:19:48Z</time>
      </trkpt>
      <trkpt lat="47.527996" lon="2.0550466">
        <ele>153.0</ele>
        <time>2022-02-27T10:19:49Z</time>
      </trkpt>
      <trkpt lat="47.528008" lon="2.0550447">
        <ele>153.0</ele>
        <time>2022-02-27T10:19:50Z</time>
      </trkpt>
      <trkpt lat="47.528015" lon="2.0550404">
        <ele>153.0</ele>
        <time>2022-02-27T10:19:51Z</time>
      </trkpt>
      <trkpt lat="47.528027" lon="2.0550392">
        <ele>154.0</ele>
        <time>2022-02-27T10:19:52Z</time>
      </trkpt>
      <trkpt lat="47.52803" lon="2.0550332">
        <ele>154.0</ele>
        <time>2022-02-27T10:19:53Z</time>
      </trkpt>
      <trkpt lat="47.528038" lon="2.0550294">
        <ele>154.0</ele>
        <time>2022-02-27T10:19:54Z</time>
      </trkpt>
      <trkpt lat="47.52804" lon="2.0550232">
        <ele>154.0</ele>
        <time>2022-02-27T10:19:55Z</time>
      </trkpt>
      <trkpt lat="47.52804" lon="2.0550132">
        <ele>153.0</ele>
        <time>2022-02-27T10:19:56Z</time>
      </trkpt>
      <trkpt lat="47.52804" lon="2.0550025">
        <ele>153.0</ele>
        <time>2022-02-27T10:19:57Z</time>
      </trkpt>
      <trkpt lat="47.528046" lon="2.0549881">
        <ele>153.0</ele>
        <time>2022-02-27T10:19:58Z</time>
      </trkpt>
      <trkpt lat="47.52805" lon="2.0549786">
        <ele>153.0</ele>
        <time>2022-02-27T10:19:59Z</time>
      </trkpt>
      <trkpt lat="47.52805" lon="2.0549707">
        <ele>153.0</ele>
        <time>2022-02-27T10:20:00Z</time>
      </trkpt>
      <trkpt lat="47.52805" lon="2.0549634">
        <ele>152.0</ele>
        <time>2022-02-27T10:20:01Z</time>
      </trkpt>
      <trkpt lat="47.528046" lon="2.0549726">
        <ele>152.0</ele>
        <time>2022-02-27T10:20:02Z</time>
      </trkpt>
      <trkpt lat="47.52804" lon="2.0549788">
        <ele>152.0</ele>
        <time>2022-02-27T10:20:03Z</time>
      </trkpt>
      <trkpt lat="47.528038" lon="2.0549812">
        <ele>152.0</ele>
        <time>2022-02-27T10:20:04Z</time>
      </trkpt>
      <trkpt lat="47.528038" lon="2.0549812">
        <ele>152.0</ele>
        <time>2022-02-27T10:20:05Z</time>
      </trkpt>
      <trkpt lat="47.528038" lon="2.0549812">
        <ele>152.0</ele>
        <time>2022-02-27T10:20:05Z</time>
      </trkpt>
      <trkpt lat="47.528038" lon="2.0549812">
        <ele>152.0</ele>
        <time>2022-02-27T10:20:05Z</time>
      </trkpt>
      <trkpt lat="47.52802" lon="2.0548847">
        <ele>157.0</ele>
        <time>2022-02-27T10:22:50Z</time>
      </trkpt>
      <trkpt lat="47.528015" lon="2.0548716">
        <ele>157.0</ele>
        <time>2022-02-27T10:22:51Z</time>
      </trkpt>
      <trkpt lat="47.52801" lon="2.0548587">
        <ele>157.0</ele>
        <time>2022-02-27T10:22:52Z</time>
      </trkpt>
      <trkpt lat="47.528008" lon="2.0548458">
        <ele>157.0</ele>
        <time>2022-02-27T10:22:53Z</time>
      </trkpt>
      <trkpt lat="47.528004" lon="2.0548332">
        <ele>156.0</ele>
        <time>2022-02-27T10:22:54Z</time>
      </trkpt>
      <trkpt lat="47.528" lon="2.054813">
        <ele>156.0</ele>
        <time>2022-02-27T10:22:55Z</time>
      </trkpt>
      <trkpt lat="47.527992" lon="2.054792">
        <ele>156.0</ele>
        <time>2022-02-27T10:22:56Z</time>
      </trkpt>
      <trkpt lat="47.527992" lon="2.054773">
        <ele>155.0</ele>
        <time>2022-02-27T10:22:57Z</time>
      </trkpt>
      <trkpt lat="47.527992" lon="2.0547557">
        <ele>156.0</ele>
        <time>2022-02-27T10:22:58Z</time>
      </trkpt>
      <trkpt lat="47.52799" lon="2.0547416">
        <ele>156.0</ele>
        <time>2022-02-27T10:22:59Z</time>
      </trkpt>
      <trkpt lat="47.527985" lon="2.054728">
        <ele>156.0</ele>
        <time>2022-02-27T10:23:00Z</time>
      </trkpt>
      <trkpt lat="47.527985" lon="2.0547154">
        <ele>156.0</ele>
        <time>2022-02-27T10:23:01Z</time>
      </trkpt>
      <trkpt lat="47.527977" lon="2.0547042">
        <ele>156.0</ele>
        <time>2022-02-27T10:23:02Z</time>
      </trkpt>
      <trkpt lat="47.527973" lon="2.0546944">
        <ele>156.0</ele>
        <time>2022-02-27T10:23:03Z</time>
      </trkpt>
      <trkpt lat="47.527966" lon="2.0546858">
        <ele>156.0</ele>
        <time>2022-02-27T10:23:04Z</time>
      </trkpt>
      <trkpt lat="47.52796" lon="2.054676">
        <ele>155.0</ele>
        <time>2022-02-27T10:23:05Z</time>
      </trkpt>
      <trkpt lat="47.52796" lon="2.054676">
        <ele>155.0</ele>
        <time>2022-02-27T10:23:06Z</time>
      </trkpt>
      <trkpt lat="47.52796" lon="2.054676">
        <ele>155.0</ele>
        <time>2022-02-27T10:23:07Z</time>
      </trkpt>
      <trkpt lat="47.527958" lon="2.054653">
        <ele>156.0</ele>
        <time>2022-02-27T10:23:08Z</time>
      </trkpt>
      <trkpt lat="47.527954" lon="2.0546424">
        <ele>156.0</ele>
        <time>2022-02-27T10:23:09Z</time>
      </trkpt>
      <trkpt lat="47.527954" lon="2.054632">
        <ele>155.0</ele>
        <time>2022-02-27T10:23:10Z</time>
      </trkpt>
      <trkpt lat="47.52795" lon="2.0546222">
        <ele>155.0</ele>
        <time>2022-02-27T10:23:11Z</time>
      </trkpt>
      <trkpt lat="47.52795" lon="2.0546072">
        <ele>154.0</ele>
        <time>2022-02-27T10:23:12Z</time>
      </trkpt>
      <trkpt lat="47.527943" lon="2.0545979">
        <ele>154.0</ele>
        <time>2022-02-27T10:23:13Z</time>
      </trkpt>
      <trkpt lat="47.52794" lon="2.0545878">
        <ele>155.0</ele>
        <time>2022-02-27T10:23:14Z</time>
      </trkpt>
      <trkpt lat="47.527935" lon="2.0545733">
        <ele>154.0</ele>
        <time>2022-02-27T10:23:15Z</time>
      </trkpt>
      <trkpt lat="47.527935" lon="2.0545595">
        <ele>154.0</ele>
        <time>2022-02-27T10:23:16Z</time>
      </trkpt>
      <trkpt lat="47.52793" lon="2.0545435">
        <ele>154.0</ele>
        <time>2022-02-27T10:23:17Z</time>
      </trkpt>
      <trkpt lat="47.527927" lon="2.0545297">
        <ele>153.0</ele>
        <time>2022-02-27T10:23:18Z</time>
      </trkpt>
      <trkpt lat="47.527924" lon="2.0545208">
        <ele>153.0</ele>
        <time>2022-02-27T10:23:19Z</time>
      </trkpt>
      <trkpt lat="47.52792" lon="2.0545235">
        <ele>153.0</ele>
        <time>2022-02-27T10:23:20Z</time>
      </trkpt>
      <trkpt lat="47.527916" lon="2.0545275">
        <ele>153.0</ele>
        <time>2022-02-27T10:23:21Z</time>
      </trkpt>
      <trkpt lat="47.527916" lon="2.0545294">
        <ele>154.0</ele>
        <time>2022-02-27T10:23:22Z</time>
      </trkpt>
      <trkpt lat="47.527916" lon="2.0545323">
        <ele>154.0</ele>
        <time>2022-02-27T10:23:23Z</time>
      </trkpt>
      <trkpt lat="47.52791" lon="2.0545347">
        <ele>154.0</ele>
        <time>2022-02-27T10:23:24Z</time>
      </trkpt>
      <trkpt lat="47.527905" lon="2.054535">
        <ele>155.0</ele>
        <time>2022-02-27T10:23:25Z</time>
      </trkpt>
      <trkpt lat="47.527905" lon="2.054535">
        <ele>155.0</ele>
        <time>2022-02-27T10:23:25Z</time>
      </trkpt>
      <trkpt lat="47.527905" lon="2.054535">
        <ele>155.0</ele>
        <time>2022-02-27T10:23:25Z</time>
      </trkpt>
      <trkpt lat="47.527946" lon="2.0544624">
        <ele>159.0</ele>
        <time>2022-02-27T10:25:13Z</time>
      </trkpt>
      <trkpt lat="47.52795" lon="2.05447">
        <ele>159.0</ele>
        <time>2022-02-27T10:25:14Z</time>
      </trkpt>
      <trkpt lat="47.52795" lon="2.05447">
        <ele>159.0</ele>
        <time>2022-02-27T10:25:15Z</time>
      </trkpt>
      <trkpt lat="47.52795" lon="2.05447">
        <ele>159.0</ele>
        <time>2022-02-27T10:25:16Z</time>
      </trkpt>
      <trkpt lat="47.52797" lon="2.054484">
        <ele>159.0</ele>
        <time>2022-02-27T10:25:17Z</time>
      </trkpt>
      <trkpt lat="47.527977" lon="2.054492">
        <ele>159.0</ele>
        <time>2022-02-27T10:25:18Z</time>
      </trkpt>
      <trkpt lat="47.52799" lon="2.0545037">
        <ele>159.0</ele>
        <time>2022-02-27T10:25:19Z</time>
      </trkpt>
      <trkpt lat="47.527992" lon="2.054515">
        <ele>159.0</ele>
        <time>2022-02-27T10:25:20Z</time>
      </trkpt>
      <trkpt lat="47.527992" lon="2.054515">
        <ele>159.0</ele>
        <time>2022-02-27T10:25:21Z</time>
      </trkpt>
      <trkpt lat="47.527992" lon="2.054515">
        <ele>159.0</ele>
        <time>2022-02-27T10:25:22Z</time>
      </trkpt>
      <trkpt lat="47.528004" lon="2.0545483">
        <ele>158.0</ele>
        <time>2022-02-27T10:25:23Z</time>
      </trkpt>
      <trkpt lat="47.528008" lon="2.0545588">
        <ele>158.0</ele>
        <time>2022-02-27T10:25:24Z</time>
      </trkpt>
      <trkpt lat="47.528015" lon="2.054573">
        <ele>157.0</ele>
        <time>2022-02-27T10:25:25Z</time>
      </trkpt>
      <trkpt lat="47.528023" lon="2.0545788">
        <ele>157.0</ele>
        <time>2022-02-27T10:25:26Z</time>
      </trkpt>
      <trkpt lat="47.528034" lon="2.054598">
        <ele>156.0</ele>
        <time>2022-02-27T10:25:27Z</time>
      </trkpt>
      <trkpt lat="47.528038" lon="2.0546088">
        <ele>157.0</ele>
        <time>2022-02-27T10:25:28Z</time>
      </trkpt>
      <trkpt lat="47.528038" lon="2.0546088">
        <ele>157.0</ele>
        <time>2022-02-27T10:25:29Z</time>
      </trkpt>
      <trkpt lat="47.528038" lon="2.0546088">
        <ele>157.0</ele>
        <time>2022-02-27T10:25:30Z</time>
      </trkpt>
      <trkpt lat="47.528057" lon="2.0546348">
        <ele>158.0</ele>
        <time>2022-02-27T10:25:31Z</time>
      </trkpt>
      <trkpt lat="47.52806" lon="2.0546436">
        <ele>158.0</ele>
        <time>2022-02-27T10:25:32Z</time>
      </trkpt>
      <trkpt lat="47.52807" lon="2.0546558">
        <ele>158.0</ele>
        <time>2022-02-27T10:25:33Z</time>
      </trkpt>
      <trkpt lat="47.52808" lon="2.054663">
        <ele>158.0</ele>
        <time>2022-02-27T10:25:34Z</time>
      </trkpt>
      <trkpt lat="47.52808" lon="2.054663">
        <ele>158.0</ele>
        <time>2022-02-27T10:25:35Z</time>
      </trkpt>
      <trkpt lat="47.52808" lon="2.054663">
        <ele>158.0</ele>
        <time>2022-02-27T10:25:36Z</time>
      </trkpt>
      <trkpt lat="47.528095" lon="2.05471">
        <ele>158.0</ele>
        <time>2022-02-27T10:25:37Z</time>
      </trkpt>
      <trkpt lat="47.5281" lon="2.0547345">
        <ele>158.0</ele>
        <time>2022-02-27T10:25:38Z</time>
      </trkpt>
      <trkpt lat="47.5281" lon="2.0547595">
        <ele>157.0</ele>
        <time>2022-02-27T10:25:39Z</time>
      </trkpt>
      <trkpt lat="47.5281" lon="2.0547752">
        <ele>157.0</ele>
        <time>2022-02-27T10:25:40Z</time>
      </trkpt>
      <trkpt lat="47.528095" lon="2.054791">
        <ele>157.0</ele>
        <time>2022-02-27T10:25:41Z</time>
      </trkpt>
      <trkpt lat="47.528088" lon="2.0548081">
        <ele>156.0</ele>
        <time>2022-02-27T10:25:42Z</time>
      </trkpt>
      <trkpt lat="47.528084" lon="2.0548303">
        <ele>156.0</ele>
        <time>2022-02-27T10:25:43Z</time>
      </trkpt>
      <trkpt lat="47.52808" lon="2.0548458">
        <ele>156.0</ele>
        <time>2022-02-27T10:25:44Z</time>
      </trkpt>
      <trkpt lat="47.528072" lon="2.0548594">
        <ele>156.0</ele>
        <time>2022-02-27T10:25:45Z</time>
      </trkpt>
      <trkpt lat="47.52807" lon="2.0548742">
        <ele>156.0</ele>
        <time>2022-02-27T10:25:46Z</time>
      </trkpt>
      <trkpt lat="47.528065" lon="2.0548844">
        <ele>156.0</ele>
        <time>2022-02-27T10:25:47Z</time>
      </trkpt>
      <trkpt lat="47.52806" lon="2.054894">
        <ele>157.0</ele>
        <time>2022-02-27T10:25:48Z</time>
      </trkpt>
      <trkpt lat="47.52806" lon="2.054897">
        <ele>157.0</ele>
        <time>2022-02-27T10:25:49Z</time>
      </trkpt>
      <trkpt lat="47.528065" lon="2.0549023">
        <ele>158.0</ele>
        <time>2022-02-27T10:25:50Z</time>
      </trkpt>
      <trkpt lat="47.528065" lon="2.0549064">
        <ele>159.0</ele>
        <time>2022-02-27T10:25:51Z</time>
      </trkpt>
      <trkpt lat="47.52807" lon="2.054912">
        <ele>158.0</ele>
        <time>2022-02-27T10:25:52Z</time>
      </trkpt>
      <trkpt lat="47.52807" lon="2.054912">
        <ele>158.0</ele>
        <time>2022-02-27T10:25:53Z</time>
      </trkpt>
      <trkpt lat="47.52807" lon="2.054912">
        <ele>158.0</ele>
        <time>2022-02-27T10:25:54Z</time>
      </trkpt>
      <trkpt lat="47.52807" lon="2.0549343">
        <ele>158.0</ele>
        <time>2022-02-27T10:25:55Z</time>
      </trkpt>
      <trkpt lat="47.52807" lon="2.054938">
        <ele>158.0</ele>
        <time>2022-02-27T10:25:56Z</time>
      </trkpt>
      <trkpt lat="47.528072" lon="2.054933">
        <ele>159.0</ele>
        <time>2022-02-27T10:25:57Z</time>
      </trkpt>
      <trkpt lat="47.52808" lon="2.0549288">
        <ele>160.0</ele>
        <time>2022-02-27T10:25:58Z</time>
      </trkpt>
      <trkpt lat="47.52808" lon="2.0549288">
        <ele>160.0</ele>
        <time>2022-02-27T10:25:58Z</time>
      </trkpt>
      <trkpt lat="47.52808" lon="2.0549288">
        <ele>160.0</ele>
        <time>2022-02-27T10:25:58Z</time>
      </trkpt>
      <trkpt lat="47.528095" lon="2.054954">
        <ele>158.0</ele>
        <time>2022-02-27T10:26:12Z</time>
      </trkpt>
      <trkpt lat="47.528095" lon="2.0549548">
        <ele>158.0</ele>
        <time>2022-02-27T10:26:13Z</time>
      </trkpt>
      <trkpt lat="47.52809" lon="2.054957">
        <ele>157.0</ele>
        <time>2022-02-27T10:26:14Z</time>
      </trkpt>
      <trkpt lat="47.52809" lon="2.054957">
        <ele>157.0</ele>
        <time>2022-02-27T10:26:15Z</time>
      </trkpt>
      <trkpt lat="47.52809" lon="2.054957">
        <ele>157.0</ele>
        <time>2022-02-27T10:26:16Z</time>
      </trkpt>
      <trkpt lat="47.52809" lon="2.054957">
        <ele>157.0</ele>
        <time>2022-02-27T10:26:16Z</time>
      </trkpt>
      <trkpt lat="47.52809" lon="2.054957">
        <ele>157.0</ele>
        <time>2022-02-27T10:26:16Z</time>
      </trkpt>
      <trkpt lat="47.52815" lon="2.0548985">
        <ele>163.0</ele>
        <time>2022-02-27T10:27:55Z</time>
      </trkpt>
      <trkpt lat="47.52815" lon="2.0548773">
        <ele>162.0</ele>
        <time>2022-02-27T10:27:56Z</time>
      </trkpt>
      <trkpt lat="47.528145" lon="2.0548725">
        <ele>162.0</ele>
        <time>2022-02-27T10:27:57Z</time>
      </trkpt>
      <trkpt lat="47.528145" lon="2.0548708">
        <ele>161.0</ele>
        <time>2022-02-27T10:27:58Z</time>
      </trkpt>
      <trkpt lat="47.528122" lon="2.0548449">
        <ele>160.0</ele>
        <time>2022-02-27T10:27:59Z</time>
      </trkpt>
      <trkpt lat="47.52812" lon="2.0548375">
        <ele>159.0</ele>
        <time>2022-02-27T10:28:00Z</time>
      </trkpt>
      <trkpt lat="47.528114" lon="2.0548387">
        <ele>161.0</ele>
        <time>2022-02-27T10:28:01Z</time>
      </trkpt>
      <trkpt lat="47.528122" lon="2.0548406">
        <ele>162.0</ele>
        <time>2022-02-27T10:28:02Z</time>
      </trkpt>
      <trkpt lat="47.52812" lon="2.054819">
        <ele>164.0</ele>
        <time>2022-02-27T10:28:03Z</time>
      </trkpt>
      <trkpt lat="47.528114" lon="2.0548208">
        <ele>165.0</ele>
        <time>2022-02-27T10:28:04Z</time>
      </trkpt>
      <trkpt lat="47.52811" lon="2.0548253">
        <ele>163.0</ele>
        <time>2022-02-27T10:28:05Z</time>
      </trkpt>
      <trkpt lat="47.528107" lon="2.054816">
        <ele>161.0</ele>
        <time>2022-02-27T10:28:06Z</time>
      </trkpt>
      <trkpt lat="47.52811" lon="2.0548105">
        <ele>161.0</ele>
        <time>2022-02-27T10:28:07Z</time>
      </trkpt>
      <trkpt lat="47.528114" lon="2.0547976">
        <ele>161.0</ele>
        <time>2022-02-27T10:28:08Z</time>
      </trkpt>
      <trkpt lat="47.52812" lon="2.0547895">
        <ele>161.0</ele>
        <time>2022-02-27T10:28:09Z</time>
      </trkpt>
      <trkpt lat="47.528122" lon="2.054777">
        <ele>160.0</ele>
        <time>2022-02-27T10:28:10Z</time>
      </trkpt>
      <trkpt lat="47.52813" lon="2.0547628">
        <ele>159.0</ele>
        <time>2022-02-27T10:28:11Z</time>
      </trkpt>
      <trkpt lat="47.528133" lon="2.0547564">
        <ele>158.0</ele>
        <time>2022-02-27T10:28:12Z</time>
      </trkpt>
      <trkpt lat="47.52814" lon="2.0547426">
        <ele>156.0</ele>
        <time>2022-02-27T10:28:13Z</time>
      </trkpt>
      <trkpt lat="47.52815" lon="2.054725">
        <ele>156.0</ele>
        <time>2022-02-27T10:28:14Z</time>
      </trkpt>
      <trkpt lat="47.528156" lon="2.0547047">
        <ele>156.0</ele>
        <time>2022-02-27T10:28:15Z</time>
      </trkpt>
      <trkpt lat="47.52816" lon="2.054691">
        <ele>156.0</ele>
        <time>2022-02-27T10:28:16Z</time>
      </trkpt>
      <trkpt lat="47.52816" lon="2.0546823">
        <ele>156.0</ele>
        <time>2022-02-27T10:28:17Z</time>
      </trkpt>
      <trkpt lat="47.528168" lon="2.0546706">
        <ele>156.0</ele>
        <time>2022-02-27T10:28:18Z</time>
      </trkpt>
      <trkpt lat="47.528175" lon="2.0546613">
        <ele>156.0</ele>
        <time>2022-02-27T10:28:19Z</time>
      </trkpt>
      <trkpt lat="47.528183" lon="2.0546498">
        <ele>156.0</ele>
        <time>2022-02-27T10:28:20Z</time>
      </trkpt>
      <trkpt lat="47.528187" lon="2.054644">
        <ele>156.0</ele>
        <time>2022-02-27T10:28:21Z</time>
      </trkpt>
      <trkpt lat="47.528187" lon="2.0546377">
        <ele>156.0</ele>
        <time>2022-02-27T10:28:22Z</time>
      </trkpt>
      <trkpt lat="47.52818" lon="2.0546334">
        <ele>155.0</ele>
        <time>2022-02-27T10:28:23Z</time>
      </trkpt>
      <trkpt lat="47.528175" lon="2.0546277">
        <ele>155.0</ele>
        <time>2022-02-27T10:28:24Z</time>
      </trkpt>
      <trkpt lat="47.52817" lon="2.0546172">
        <ele>155.0</ele>
        <time>2022-02-27T10:28:25Z</time>
      </trkpt>
      <trkpt lat="47.52817" lon="2.05461">
        <ele>156.0</ele>
        <time>2022-02-27T10:28:26Z</time>
      </trkpt>
      <trkpt lat="47.52818" lon="2.0546007">
        <ele>156.0</ele>
        <time>2022-02-27T10:28:27Z</time>
      </trkpt>
      <trkpt lat="47.52818" lon="2.0545907">
        <ele>155.0</ele>
        <time>2022-02-27T10:28:28Z</time>
      </trkpt>
      <trkpt lat="47.52818" lon="2.0545754">
        <ele>155.0</ele>
        <time>2022-02-27T10:28:29Z</time>
      </trkpt>
      <trkpt lat="47.528183" lon="2.054563">
        <ele>155.0</ele>
        <time>2022-02-27T10:28:30Z</time>
      </trkpt>
      <trkpt lat="47.52819" lon="2.0545495">
        <ele>154.0</ele>
        <time>2022-02-27T10:28:31Z</time>
      </trkpt>
      <trkpt lat="47.528194" lon="2.054537">
        <ele>154.0</ele>
        <time>2022-02-27T10:28:32Z</time>
      </trkpt>
      <trkpt lat="47.5282" lon="2.0545254">
        <ele>155.0</ele>
        <time>2022-02-27T10:28:33Z</time>
      </trkpt>
      <trkpt lat="47.5282" lon="2.0545123">
        <ele>155.0</ele>
        <time>2022-02-27T10:28:34Z</time>
      </trkpt>
      <trkpt lat="47.5282" lon="2.0544994">
        <ele>154.0</ele>
        <time>2022-02-27T10:28:35Z</time>
      </trkpt>
      <trkpt lat="47.5282" lon="2.054485">
        <ele>153.0</ele>
        <time>2022-02-27T10:28:36Z</time>
      </trkpt>
      <trkpt lat="47.5282" lon="2.05447">
        <ele>153.0</ele>
        <time>2022-02-27T10:28:37Z</time>
      </trkpt>
      <trkpt lat="47.5282" lon="2.0544512">
        <ele>152.0</ele>
        <time>2022-02-27T10:28:38Z</time>
      </trkpt>
      <trkpt lat="47.528206" lon="2.0544374">
        <ele>152.0</ele>
        <time>2022-02-27T10:28:39Z</time>
      </trkpt>
      <trkpt lat="47.528214" lon="2.0544243">
        <ele>152.0</ele>
        <time>2022-02-27T10:28:40Z</time>
      </trkpt>
      <trkpt lat="47.52822" lon="2.05441">
        <ele>152.0</ele>
        <time>2022-02-27T10:28:41Z</time>
      </trkpt>
      <trkpt lat="47.52822" lon="2.0543942">
        <ele>152.0</ele>
        <time>2022-02-27T10:28:42Z</time>
      </trkpt>
      <trkpt lat="47.52822" lon="2.0543797">
        <ele>152.0</ele>
        <time>2022-02-27T10:28:43Z</time>
      </trkpt>
      <trkpt lat="47.528225" lon="2.054362">
        <ele>152.0</ele>
        <time>2022-02-27T10:28:44Z</time>
      </trkpt>
      <trkpt lat="47.52823" lon="2.05435">
        <ele>153.0</ele>
        <time>2022-02-27T10:28:45Z</time>
      </trkpt>
      <trkpt lat="47.528236" lon="2.0543396">
        <ele>153.0</ele>
        <time>2022-02-27T10:28:46Z</time>
      </trkpt>
      <trkpt lat="47.52824" lon="2.0543277">
        <ele>153.0</ele>
        <time>2022-02-27T10:28:47Z</time>
      </trkpt>
      <trkpt lat="47.528248" lon="2.054315">
        <ele>153.0</ele>
        <time>2022-02-27T10:28:48Z</time>
      </trkpt>
      <trkpt lat="47.528248" lon="2.0543025">
        <ele>153.0</ele>
        <time>2022-02-27T10:28:49Z</time>
      </trkpt>
      <trkpt lat="47.52825" lon="2.0542896">
        <ele>153.0</ele>
        <time>2022-02-27T10:28:50Z</time>
      </trkpt>
      <trkpt lat="47.52825" lon="2.0542767">
        <ele>153.0</ele>
        <time>2022-02-27T10:28:51Z</time>
      </trkpt>
      <trkpt lat="47.52826" lon="2.0542636">
        <ele>153.0</ele>
        <time>2022-02-27T10:28:52Z</time>
      </trkpt>
      <trkpt lat="47.52826" lon="2.0542502">
        <ele>154.0</ele>
        <time>2022-02-27T10:28:53Z</time>
      </trkpt>
      <trkpt lat="47.52826" lon="2.0542414">
        <ele>153.0</ele>
        <time>2022-02-27T10:28:54Z</time>
      </trkpt>
      <trkpt lat="47.52826" lon="2.0542214">
        <ele>154.0</ele>
        <time>2022-02-27T10:28:55Z</time>
      </trkpt>
      <trkpt lat="47.528263" lon="2.054204">
        <ele>154.0</ele>
        <time>2022-02-27T10:28:56Z</time>
      </trkpt>
      <trkpt lat="47.52827" lon="2.0541928">
        <ele>154.0</ele>
        <time>2022-02-27T10:28:57Z</time>
      </trkpt>
      <trkpt lat="47.52828" lon="2.0541806">
        <ele>154.0</ele>
        <time>2022-02-27T10:28:58Z</time>
      </trkpt>
      <trkpt lat="47.528282" lon="2.0541646">
        <ele>154.0</ele>
        <time>2022-02-27T10:28:59Z</time>
      </trkpt>
      <trkpt lat="47.528286" lon="2.0541523">
        <ele>154.0</ele>
        <time>2022-02-27T10:29:00Z</time>
      </trkpt>
      <trkpt lat="47.528294" lon="2.0541382">
        <ele>154.0</ele>
        <time>2022-02-27T10:29:01Z</time>
      </trkpt>
      <trkpt lat="47.528305" lon="2.0541275">
        <ele>154.0</ele>
        <time>2022-02-27T10:29:02Z</time>
      </trkpt>
      <trkpt lat="47.528313" lon="2.0541153">
        <ele>154.0</ele>
        <time>2022-02-27T10:29:03Z</time>
      </trkpt>
      <trkpt lat="47.528316" lon="2.054099">
        <ele>154.0</ele>
        <time>2022-02-27T10:29:04Z</time>
      </trkpt>
      <trkpt lat="47.528316" lon="2.0540855">
        <ele>155.0</ele>
        <time>2022-02-27T10:29:05Z</time>
      </trkpt>
      <trkpt lat="47.528316" lon="2.0540686">
        <ele>155.0</ele>
        <time>2022-02-27T10:29:06Z</time>
      </trkpt>
      <trkpt lat="47.52832" lon="2.054052">
        <ele>155.0</ele>
        <time>2022-02-27T10:29:07Z</time>
      </trkpt>
      <trkpt lat="47.528324" lon="2.0540376">
        <ele>155.0</ele>
        <time>2022-02-27T10:29:08Z</time>
      </trkpt>
      <trkpt lat="47.52833" lon="2.054023">
        <ele>155.0</ele>
        <time>2022-02-27T10:29:09Z</time>
      </trkpt>
      <trkpt lat="47.528336" lon="2.0540113">
        <ele>155.0</ele>
        <time>2022-02-27T10:29:10Z</time>
      </trkpt>
      <trkpt lat="47.528336" lon="2.0539994">
        <ele>155.0</ele>
        <time>2022-02-27T10:29:11Z</time>
      </trkpt>
      <trkpt lat="47.52834" lon="2.0539827">
        <ele>155.0</ele>
        <time>2022-02-27T10:29:12Z</time>
      </trkpt>
      <trkpt lat="47.528347" lon="2.0539665">
        <ele>155.0</ele>
        <time>2022-02-27T10:29:13Z</time>
      </trkpt>
      <trkpt lat="47.52835" lon="2.0539467">
        <ele>156.0</ele>
        <time>2022-02-27T10:29:14Z</time>
      </trkpt>
      <trkpt lat="47.528355" lon="2.0539281">
        <ele>157.0</ele>
        <time>2022-02-27T10:29:15Z</time>
      </trkpt>
      <trkpt lat="47.52836" lon="2.0539122">
        <ele>157.0</ele>
        <time>2022-02-27T10:29:16Z</time>
      </trkpt>
      <trkpt lat="47.528362" lon="2.0538971">
        <ele>157.0</ele>
        <time>2022-02-27T10:29:17Z</time>
      </trkpt>
      <trkpt lat="47.528366" lon="2.0538852">
        <ele>157.0</ele>
        <time>2022-02-27T10:29:18Z</time>
      </trkpt>
      <trkpt lat="47.528366" lon="2.0538702">
        <ele>157.0</ele>
        <time>2022-02-27T10:29:19Z</time>
      </trkpt>
      <trkpt lat="47.528366" lon="2.0538557">
        <ele>156.0</ele>
        <time>2022-02-27T10:29:20Z</time>
      </trkpt>
      <trkpt lat="47.52837" lon="2.0538406">
        <ele>156.0</ele>
        <time>2022-02-27T10:29:21Z</time>
      </trkpt>
      <trkpt lat="47.528374" lon="2.0538256">
        <ele>156.0</ele>
        <time>2022-02-27T10:29:22Z</time>
      </trkpt>
      <trkpt lat="47.52838" lon="2.0538113">
        <ele>157.0</ele>
        <time>2022-02-27T10:29:23Z</time>
      </trkpt>
      <trkpt lat="47.528385" lon="2.0537999">
        <ele>157.0</ele>
        <time>2022-02-27T10:29:24Z</time>
      </trkpt>
      <trkpt lat="47.528393" lon="2.0537856">
        <ele>157.0</ele>
        <time>2022-02-27T10:29:25Z</time>
      </trkpt>
      <trkpt lat="47.528397" lon="2.0537708">
        <ele>157.0</ele>
        <time>2022-02-27T10:29:26Z</time>
      </trkpt>
      <trkpt lat="47.528404" lon="2.0537565">
        <ele>156.0</ele>
        <time>2022-02-27T10:29:27Z</time>
      </trkpt>
      <trkpt lat="47.528404" lon="2.0537386">
        <ele>156.0</ele>
        <time>2022-02-27T10:29:28Z</time>
      </trkpt>
      <trkpt lat="47.528408" lon="2.0537167">
        <ele>157.0</ele>
        <time>2022-02-27T10:29:29Z</time>
      </trkpt>
      <trkpt lat="47.528416" lon="2.0537035">
        <ele>157.0</ele>
        <time>2022-02-27T10:29:30Z</time>
      </trkpt>
      <trkpt lat="47.52842" lon="2.0536923">
        <ele>157.0</ele>
        <time>2022-02-27T10:29:31Z</time>
      </trkpt>
      <trkpt lat="47.528423" lon="2.053675">
        <ele>157.0</ele>
        <time>2022-02-27T10:29:32Z</time>
      </trkpt>
      <trkpt lat="47.528427" lon="2.0536594">
        <ele>157.0</ele>
        <time>2022-02-27T10:29:33Z</time>
      </trkpt>
      <trkpt lat="47.52843" lon="2.0536435">
        <ele>157.0</ele>
        <time>2022-02-27T10:29:34Z</time>
      </trkpt>
      <trkpt lat="47.52844" lon="2.0536258">
        <ele>157.0</ele>
        <time>2022-02-27T10:29:35Z</time>
      </trkpt>
      <trkpt lat="47.528446" lon="2.05361">
        <ele>157.0</ele>
        <time>2022-02-27T10:29:36Z</time>
      </trkpt>
      <trkpt lat="47.52845" lon="2.0535932">
        <ele>157.0</ele>
        <time>2022-02-27T10:29:37Z</time>
      </trkpt>
      <trkpt lat="47.528454" lon="2.053573">
        <ele>157.0</ele>
        <time>2022-02-27T10:29:38Z</time>
      </trkpt>
      <trkpt lat="47.528458" lon="2.0535512">
        <ele>157.0</ele>
        <time>2022-02-27T10:29:39Z</time>
      </trkpt>
      <trkpt lat="47.52846" lon="2.0535305">
        <ele>157.0</ele>
        <time>2022-02-27T10:29:40Z</time>
      </trkpt>
      <trkpt lat="47.528465" lon="2.0535169">
        <ele>156.0</ele>
        <time>2022-02-27T10:29:41Z</time>
      </trkpt>
      <trkpt lat="47.52847" lon="2.0534985">
        <ele>156.0</ele>
        <time>2022-02-27T10:29:42Z</time>
      </trkpt>
      <trkpt lat="47.528477" lon="2.053477">
        <ele>156.0</ele>
        <time>2022-02-27T10:29:43Z</time>
      </trkpt>
      <trkpt lat="47.528477" lon="2.0534577">
        <ele>156.0</ele>
        <time>2022-02-27T10:29:44Z</time>
      </trkpt>
      <trkpt lat="47.52848" lon="2.0534415">
        <ele>156.0</ele>
        <time>2022-02-27T10:29:45Z</time>
      </trkpt>
      <trkpt lat="47.528484" lon="2.0534213">
        <ele>156.0</ele>
        <time>2022-02-27T10:29:46Z</time>
      </trkpt>
      <trkpt lat="47.528492" lon="2.0534034">
        <ele>156.0</ele>
        <time>2022-02-27T10:29:47Z</time>
      </trkpt>
      <trkpt lat="47.5285" lon="2.0533857">
        <ele>156.0</ele>
        <time>2022-02-27T10:29:48Z</time>
      </trkpt>
      <trkpt lat="47.528503" lon="2.0533636">
        <ele>156.0</ele>
        <time>2022-02-27T10:29:49Z</time>
      </trkpt>
      <trkpt lat="47.528507" lon="2.053343">
        <ele>157.0</ele>
        <time>2022-02-27T10:29:50Z</time>
      </trkpt>
      <trkpt lat="47.52851" lon="2.053327">
        <ele>157.0</ele>
        <time>2022-02-27T10:29:51Z</time>
      </trkpt>
      <trkpt lat="47.52852" lon="2.0533133">
        <ele>157.0</ele>
        <time>2022-02-27T10:29:52Z</time>
      </trkpt>
      <trkpt lat="47.528526" lon="2.0532987">
        <ele>157.0</ele>
        <time>2022-02-27T10:29:53Z</time>
      </trkpt>
      <trkpt lat="47.528534" lon="2.053276">
        <ele>156.0</ele>
        <time>2022-02-27T10:29:54Z</time>
      </trkpt>
      <trkpt lat="47.52854" lon="2.053257">
        <ele>155.0</ele>
        <time>2022-02-27T10:29:55Z</time>
      </trkpt>
      <trkpt lat="47.52854" lon="2.0532339">
        <ele>156.0</ele>
        <time>2022-02-27T10:29:56Z</time>
      </trkpt>
      <trkpt lat="47.528545" lon="2.0532165">
        <ele>156.0</ele>
        <time>2022-02-27T10:29:57Z</time>
      </trkpt>
      <trkpt lat="47.528553" lon="2.0532">
        <ele>156.0</ele>
        <time>2022-02-27T10:29:58Z</time>
      </trkpt>
      <trkpt lat="47.528557" lon="2.0531776">
        <ele>155.0</ele>
        <time>2022-02-27T10:29:59Z</time>
      </trkpt>
      <trkpt lat="47.528564" lon="2.0531614">
        <ele>155.0</ele>
        <time>2022-02-27T10:30:00Z</time>
      </trkpt>
      <trkpt lat="47.52857" lon="2.0531487">
        <ele>155.0</ele>
        <time>2022-02-27T10:30:01Z</time>
      </trkpt>
      <trkpt lat="47.528572" lon="2.0531344">
        <ele>155.0</ele>
        <time>2022-02-27T10:30:02Z</time>
      </trkpt>
      <trkpt lat="47.528576" lon="2.0531235">
        <ele>155.0</ele>
        <time>2022-02-27T10:30:03Z</time>
      </trkpt>
      <trkpt lat="47.52858" lon="2.0531108">
        <ele>155.0</ele>
        <time>2022-02-27T10:30:04Z</time>
      </trkpt>
      <trkpt lat="47.528584" lon="2.0530949">
        <ele>155.0</ele>
        <time>2022-02-27T10:30:05Z</time>
      </trkpt>
      <trkpt lat="47.528587" lon="2.0530767">
        <ele>155.0</ele>
        <time>2022-02-27T10:30:06Z</time>
      </trkpt>
      <trkpt lat="47.528595" lon="2.0530627">
        <ele>155.0</ele>
        <time>2022-02-27T10:30:07Z</time>
      </trkpt>
      <trkpt lat="47.528603" lon="2.0530531">
        <ele>155.0</ele>
        <time>2022-02-27T10:30:08Z</time>
      </trkpt>
      <trkpt lat="47.528606" lon="2.0530367">
        <ele>155.0</ele>
        <time>2022-02-27T10:30:09Z</time>
      </trkpt>
      <trkpt lat="47.52861" lon="2.053022">
        <ele>155.0</ele>
        <time>2022-02-27T10:30:10Z</time>
      </trkpt>
      <trkpt lat="47.52862" lon="2.0530043">
        <ele>154.0</ele>
        <time>2022-02-27T10:30:11Z</time>
      </trkpt>
      <trkpt lat="47.52863" lon="2.0529885">
        <ele>154.0</ele>
        <time>2022-02-27T10:30:12Z</time>
      </trkpt>
      <trkpt lat="47.528633" lon="2.0529733">
        <ele>153.0</ele>
        <time>2022-02-27T10:30:13Z</time>
      </trkpt>
      <trkpt lat="47.52864" lon="2.0529544">
        <ele>153.0</ele>
        <time>2022-02-27T10:30:14Z</time>
      </trkpt>
      <trkpt lat="47.52865" lon="2.0529323">
        <ele>152.0</ele>
        <time>2022-02-27T10:30:15Z</time>
      </trkpt>
      <trkpt lat="47.528652" lon="2.0529172">
        <ele>153.0</ele>
        <time>2022-02-27T10:30:16Z</time>
      </trkpt>
      <trkpt lat="47.52866" lon="2.052899">
        <ele>153.0</ele>
        <time>2022-02-27T10:30:17Z</time>
      </trkpt>
      <trkpt lat="47.528664" lon="2.052886">
        <ele>153.0</ele>
        <time>2022-02-27T10:30:18Z</time>
      </trkpt>
      <trkpt lat="47.528667" lon="2.0528703">
        <ele>152.0</ele>
        <time>2022-02-27T10:30:19Z</time>
      </trkpt>
      <trkpt lat="47.528667" lon="2.0528557">
        <ele>152.0</ele>
        <time>2022-02-27T10:30:20Z</time>
      </trkpt>
      <trkpt lat="47.52867" lon="2.0528405">
        <ele>152.0</ele>
        <time>2022-02-27T10:30:21Z</time>
      </trkpt>
      <trkpt lat="47.528675" lon="2.0528274">
        <ele>152.0</ele>
        <time>2022-02-27T10:30:22Z</time>
      </trkpt>
      <trkpt lat="47.528675" lon="2.0528095">
        <ele>152.0</ele>
        <time>2022-02-27T10:30:23Z</time>
      </trkpt>
      <trkpt lat="47.528683" lon="2.052796">
        <ele>151.0</ele>
        <time>2022-02-27T10:30:24Z</time>
      </trkpt>
      <trkpt lat="47.528687" lon="2.0527818">
        <ele>151.0</ele>
        <time>2022-02-27T10:30:25Z</time>
      </trkpt>
      <trkpt lat="47.52869" lon="2.052774">
        <ele>151.0</ele>
        <time>2022-02-27T10:30:26Z</time>
      </trkpt>
      <trkpt lat="47.528694" lon="2.0527618">
        <ele>150.0</ele>
        <time>2022-02-27T10:30:27Z</time>
      </trkpt>
      <trkpt lat="47.528698" lon="2.0527503">
        <ele>150.0</ele>
        <time>2022-02-27T10:30:28Z</time>
      </trkpt>
      <trkpt lat="47.52871" lon="2.0527399">
        <ele>150.0</ele>
        <time>2022-02-27T10:30:29Z</time>
      </trkpt>
      <trkpt lat="47.528717" lon="2.05273">
        <ele>150.0</ele>
        <time>2022-02-27T10:30:30Z</time>
      </trkpt>
      <trkpt lat="47.528725" lon="2.0527163">
        <ele>149.0</ele>
        <time>2022-02-27T10:30:31Z</time>
      </trkpt>
      <trkpt lat="47.528736" lon="2.052705">
        <ele>149.0</ele>
        <time>2022-02-27T10:30:32Z</time>
      </trkpt>
      <trkpt lat="47.528744" lon="2.0526886">
        <ele>149.0</ele>
        <time>2022-02-27T10:30:33Z</time>
      </trkpt>
      <trkpt lat="47.528748" lon="2.052672">
        <ele>149.0</ele>
        <time>2022-02-27T10:30:34Z</time>
      </trkpt>
      <trkpt lat="47.528748" lon="2.0526543">
        <ele>149.0</ele>
        <time>2022-02-27T10:30:35Z</time>
      </trkpt>
      <trkpt lat="47.528748" lon="2.0526392">
        <ele>148.0</ele>
        <time>2022-02-27T10:30:36Z</time>
      </trkpt>
      <trkpt lat="47.52875" lon="2.0526242">
        <ele>148.0</ele>
        <time>2022-02-27T10:30:37Z</time>
      </trkpt>
      <trkpt lat="47.528755" lon="2.0526145">
        <ele>147.0</ele>
        <time>2022-02-27T10:30:38Z</time>
      </trkpt>
      <trkpt lat="47.52876" lon="2.0525982">
        <ele>147.0</ele>
        <time>2022-02-27T10:30:39Z</time>
      </trkpt>
      <trkpt lat="47.528767" lon="2.0525794">
        <ele>147.0</ele>
        <time>2022-02-27T10:30:40Z</time>
      </trkpt>
      <trkpt lat="47.528774" lon="2.0525649">
        <ele>146.0</ele>
        <time>2022-02-27T10:30:41Z</time>
      </trkpt>
      <trkpt lat="47.52878" lon="2.0525527">
        <ele>146.0</ele>
        <time>2022-02-27T10:30:42Z</time>
      </trkpt>
      <trkpt lat="47.528793" lon="2.052543">
        <ele>146.0</ele>
        <time>2022-02-27T10:30:43Z</time>
      </trkpt>
      <trkpt lat="47.528793" lon="2.0525281">
        <ele>146.0</ele>
        <time>2022-02-27T10:30:44Z</time>
      </trkpt>
      <trkpt lat="47.5288" lon="2.0525138">
        <ele>146.0</ele>
        <time>2022-02-27T10:30:45Z</time>
      </trkpt>
      <trkpt lat="47.5288" lon="2.0525138">
        <ele>146.0</ele>
        <time>2022-02-27T10:30:46Z</time>
      </trkpt>
      <trkpt lat="47.5288" lon="2.0525138">
        <ele>146.0</ele>
        <time>2022-02-27T10:30:47Z</time>
      </trkpt>
      <trkpt lat="47.52881" lon="2.0524786">
        <ele>145.0</ele>
        <time>2022-02-27T10:30:48Z</time>
      </trkpt>
      <trkpt lat="47.528812" lon="2.0524638">
        <ele>145.0</ele>
        <time>2022-02-27T10:30:49Z</time>
      </trkpt>
      <trkpt lat="47.528816" lon="2.0524466">
        <ele>145.0</ele>
        <time>2022-02-27T10:30:50Z</time>
      </trkpt>
      <trkpt lat="47.528816" lon="2.0524309">
        <ele>144.0</ele>
        <time>2022-02-27T10:30:51Z</time>
      </trkpt>
      <trkpt lat="47.528824" lon="2.0524173">
        <ele>144.0</ele>
        <time>2022-02-27T10:30:52Z</time>
      </trkpt>
      <trkpt lat="47.528828" lon="2.052399">
        <ele>144.0</ele>
        <time>2022-02-27T10:30:53Z</time>
      </trkpt>
      <trkpt lat="47.52883" lon="2.052379">
        <ele>144.0</ele>
        <time>2022-02-27T10:30:54Z</time>
      </trkpt>
      <trkpt lat="47.528843" lon="2.0523558">
        <ele>144.0</ele>
        <time>2022-02-27T10:30:55Z</time>
      </trkpt>
      <trkpt lat="47.52885" lon="2.052339">
        <ele>144.0</ele>
        <time>2022-02-27T10:30:56Z</time>
      </trkpt>
      <trkpt lat="47.52886" lon="2.0523236">
        <ele>144.0</ele>
        <time>2022-02-27T10:30:57Z</time>
      </trkpt>
      <trkpt lat="47.528866" lon="2.0523095">
        <ele>144.0</ele>
        <time>2022-02-27T10:30:58Z</time>
      </trkpt>
      <trkpt lat="47.528866" lon="2.0522947">
        <ele>145.0</ele>
        <time>2022-02-27T10:30:59Z</time>
      </trkpt>
      <trkpt lat="47.52887" lon="2.05228">
        <ele>145.0</ele>
        <time>2022-02-27T10:31:00Z</time>
      </trkpt>
      <trkpt lat="47.528873" lon="2.0522656">
        <ele>145.0</ele>
        <time>2022-02-27T10:31:01Z</time>
      </trkpt>
      <trkpt lat="47.528877" lon="2.0522516">
        <ele>145.0</ele>
        <time>2022-02-27T10:31:02Z</time>
      </trkpt>
      <trkpt lat="47.52888" lon="2.052241">
        <ele>144.0</ele>
        <time>2022-02-27T10:31:03Z</time>
      </trkpt>
      <trkpt lat="47.528885" lon="2.052229">
        <ele>144.0</ele>
        <time>2022-02-27T10:31:04Z</time>
      </trkpt>
      <trkpt lat="47.528893" lon="2.0522194">
        <ele>144.0</ele>
        <time>2022-02-27T10:31:05Z</time>
      </trkpt>
      <trkpt lat="47.528896" lon="2.0522068">
        <ele>144.0</ele>
        <time>2022-02-27T10:31:06Z</time>
      </trkpt>
      <trkpt lat="47.5289" lon="2.0521936">
        <ele>144.0</ele>
        <time>2022-02-27T10:31:07Z</time>
      </trkpt>
      <trkpt lat="47.528904" lon="2.0521839">
        <ele>144.0</ele>
        <time>2022-02-27T10:31:08Z</time>
      </trkpt>
      <trkpt lat="47.528904" lon="2.0521839">
        <ele>144.0</ele>
        <time>2022-02-27T10:31:09Z</time>
      </trkpt>
      <trkpt lat="47.528904" lon="2.0521839">
        <ele>144.0</ele>
        <time>2022-02-27T10:31:10Z</time>
      </trkpt>
      <trkpt lat="47.52892" lon="2.05215">
        <ele>142.0</ele>
        <time>2022-02-27T10:31:11Z</time>
      </trkpt>
      <trkpt lat="47.528927" lon="2.0521379">
        <ele>142.0</ele>
        <time>2022-02-27T10:31:12Z</time>
      </trkpt>
      <trkpt lat="47.528934" lon="2.0521193">
        <ele>141.0</ele>
        <time>2022-02-27T10:31:13Z</time>
      </trkpt>
      <trkpt lat="47.528946" lon="2.0521078">
        <ele>141.0</ele>
        <time>2022-02-27T10:31:14Z</time>
      </trkpt>
      <trkpt lat="47.528954" lon="2.0520897">
        <ele>141.0</ele>
        <time>2022-02-27T10:31:15Z</time>
      </trkpt>
      <trkpt lat="47.52896" lon="2.0520768">
        <ele>141.0</ele>
        <time>2022-02-27T10:31:16Z</time>
      </trkpt>
      <trkpt lat="47.52897" lon="2.0520592">
        <ele>140.0</ele>
        <time>2022-02-27T10:31:17Z</time>
      </trkpt>
      <trkpt lat="47.528976" lon="2.0520377">
        <ele>140.0</ele>
        <time>2022-02-27T10:31:18Z</time>
      </trkpt>
      <trkpt lat="47.528984" lon="2.0520208">
        <ele>140.0</ele>
        <time>2022-02-27T10:31:19Z</time>
      </trkpt>
      <trkpt lat="47.528988" lon="2.0520062">
        <ele>140.0</ele>
        <time>2022-02-27T10:31:20Z</time>
      </trkpt>
      <trkpt lat="47.52899" lon="2.0519886">
        <ele>140.0</ele>
        <time>2022-02-27T10:31:21Z</time>
      </trkpt>
      <trkpt lat="47.528996" lon="2.0519745">
        <ele>140.0</ele>
        <time>2022-02-27T10:31:22Z</time>
      </trkpt>
      <trkpt lat="47.529" lon="2.0519583">
        <ele>140.0</ele>
        <time>2022-02-27T10:31:23Z</time>
      </trkpt>
      <trkpt lat="47.529007" lon="2.0519404">
        <ele>141.0</ele>
        <time>2022-02-27T10:31:24Z</time>
      </trkpt>
      <trkpt lat="47.52901" lon="2.0519252">
        <ele>141.0</ele>
        <time>2022-02-27T10:31:25Z</time>
      </trkpt>
      <trkpt lat="47.52902" lon="2.051907">
        <ele>141.0</ele>
        <time>2022-02-27T10:31:26Z</time>
      </trkpt>
      <trkpt lat="47.529026" lon="2.0518901">
        <ele>141.0</ele>
        <time>2022-02-27T10:31:27Z</time>
      </trkpt>
      <trkpt lat="47.52903" lon="2.0518737">
        <ele>141.0</ele>
        <time>2022-02-27T10:31:28Z</time>
      </trkpt>
      <trkpt lat="47.529037" lon="2.0518558">
        <ele>141.0</ele>
        <time>2022-02-27T10:31:29Z</time>
      </trkpt>
      <trkpt lat="47.529045" lon="2.0518382">
        <ele>141.0</ele>
        <time>2022-02-27T10:31:30Z</time>
      </trkpt>
      <trkpt lat="47.529053" lon="2.051822">
        <ele>141.0</ele>
        <time>2022-02-27T10:31:31Z</time>
      </trkpt>
      <trkpt lat="47.52906" lon="2.0518067">
        <ele>141.0</ele>
        <time>2022-02-27T10:31:32Z</time>
      </trkpt>
      <trkpt lat="47.529064" lon="2.051789">
        <ele>141.0</ele>
        <time>2022-02-27T10:31:33Z</time>
      </trkpt>
      <trkpt lat="47.529068" lon="2.051772">
        <ele>141.0</ele>
        <time>2022-02-27T10:31:34Z</time>
      </trkpt>
      <trkpt lat="47.529076" lon="2.051755">
        <ele>142.0</ele>
        <time>2022-02-27T10:31:35Z</time>
      </trkpt>
      <trkpt lat="47.52908" lon="2.0517368">
        <ele>142.0</ele>
        <time>2022-02-27T10:31:36Z</time>
      </trkpt>
      <trkpt lat="47.529087" lon="2.0517209">
        <ele>142.0</ele>
        <time>2022-02-27T10:31:37Z</time>
      </trkpt>
      <trkpt lat="47.529095" lon="2.0517042">
        <ele>142.0</ele>
        <time>2022-02-27T10:31:38Z</time>
      </trkpt>
      <trkpt lat="47.5291" lon="2.0516903">
        <ele>142.0</ele>
        <time>2022-02-27T10:31:39Z</time>
      </trkpt>
      <trkpt lat="47.529102" lon="2.051676">
        <ele>142.0</ele>
        <time>2022-02-27T10:31:40Z</time>
      </trkpt>
      <trkpt lat="47.52911" lon="2.0516632">
        <ele>142.0</ele>
        <time>2022-02-27T10:31:41Z</time>
      </trkpt>
      <trkpt lat="47.529114" lon="2.0516481">
        <ele>143.0</ele>
        <time>2022-02-27T10:31:42Z</time>
      </trkpt>
      <trkpt lat="47.52912" lon="2.0516324">
        <ele>143.0</ele>
        <time>2022-02-27T10:31:43Z</time>
      </trkpt>
      <trkpt lat="47.52913" lon="2.0516145">
        <ele>143.0</ele>
        <time>2022-02-27T10:31:44Z</time>
      </trkpt>
      <trkpt lat="47.529133" lon="2.0515954">
        <ele>143.0</ele>
        <time>2022-02-27T10:31:45Z</time>
      </trkpt>
      <trkpt lat="47.529137" lon="2.0515797">
        <ele>143.0</ele>
        <time>2022-02-27T10:31:46Z</time>
      </trkpt>
      <trkpt lat="47.529144" lon="2.0515618">
        <ele>143.0</ele>
        <time>2022-02-27T10:31:47Z</time>
      </trkpt>
      <trkpt lat="47.529152" lon="2.0515468">
        <ele>143.0</ele>
        <time>2022-02-27T10:31:48Z</time>
      </trkpt>
      <trkpt lat="47.52916" lon="2.051532">
        <ele>143.0</ele>
        <time>2022-02-27T10:31:49Z</time>
      </trkpt>
      <trkpt lat="47.529163" lon="2.0515182">
        <ele>143.0</ele>
        <time>2022-02-27T10:31:50Z</time>
      </trkpt>
      <trkpt lat="47.529167" lon="2.051502">
        <ele>143.0</ele>
        <time>2022-02-27T10:31:51Z</time>
      </trkpt>
      <trkpt lat="47.52917" lon="2.0514848">
        <ele>143.0</ele>
        <time>2022-02-27T10:31:52Z</time>
      </trkpt>
      <trkpt lat="47.52918" lon="2.0514655">
        <ele>143.0</ele>
        <time>2022-02-27T10:31:53Z</time>
      </trkpt>
      <trkpt lat="47.529186" lon="2.0514486">
        <ele>143.0</ele>
        <time>2022-02-27T10:31:54Z</time>
      </trkpt>
      <trkpt lat="47.529194" lon="2.051427">
        <ele>143.0</ele>
        <time>2022-02-27T10:31:55Z</time>
      </trkpt>
      <trkpt lat="47.529198" lon="2.051407">
        <ele>143.0</ele>
        <time>2022-02-27T10:31:56Z</time>
      </trkpt>
      <trkpt lat="47.529205" lon="2.0513906">
        <ele>143.0</ele>
        <time>2022-02-27T10:31:57Z</time>
      </trkpt>
      <trkpt lat="47.52921" lon="2.0513735">
        <ele>143.0</ele>
        <time>2022-02-27T10:31:58Z</time>
      </trkpt>
      <trkpt lat="47.52921" lon="2.051373">
        <ele>143.0</ele>
        <time>2022-02-27T10:31:59Z</time>
      </trkpt>
      <trkpt lat="47.52921" lon="2.0513635">
        <ele>144.0</ele>
        <time>2022-02-27T10:32:00Z</time>
      </trkpt>
      <trkpt lat="47.529213" lon="2.0513566">
        <ele>144.0</ele>
        <time>2022-02-27T10:32:01Z</time>
      </trkpt>
      <trkpt lat="47.529213" lon="2.0513566">
        <ele>144.0</ele>
        <time>2022-02-27T10:32:02Z</time>
      </trkpt>
      <trkpt lat="47.529213" lon="2.0513566">
        <ele>144.0</ele>
        <time>2022-02-27T10:32:03Z</time>
      </trkpt>
      <trkpt lat="47.529224" lon="2.0513232">
        <ele>143.0</ele>
        <time>2022-02-27T10:32:04Z</time>
      </trkpt>
      <trkpt lat="47.529232" lon="2.0513074">
        <ele>143.0</ele>
        <time>2022-02-27T10:32:05Z</time>
      </trkpt>
      <trkpt lat="47.52924" lon="2.0512898">
        <ele>143.0</ele>
        <time>2022-02-27T10:32:06Z</time>
      </trkpt>
      <trkpt lat="47.529247" lon="2.05127">
        <ele>143.0</ele>
        <time>2022-02-27T10:32:07Z</time>
      </trkpt>
      <trkpt lat="47.529255" lon="2.051254">
        <ele>143.0</ele>
        <time>2022-02-27T10:32:08Z</time>
      </trkpt>
      <trkpt lat="47.52926" lon="2.0512376">
        <ele>143.0</ele>
        <time>2022-02-27T10:32:09Z</time>
      </trkpt>
      <trkpt lat="47.529266" lon="2.0512192">
        <ele>143.0</ele>
        <time>2022-02-27T10:32:10Z</time>
      </trkpt>
      <trkpt lat="47.52927" lon="2.0512002">
        <ele>143.0</ele>
        <time>2022-02-27T10:32:11Z</time>
      </trkpt>
      <trkpt lat="47.529274" lon="2.0511837">
        <ele>143.0</ele>
        <time>2022-02-27T10:32:12Z</time>
      </trkpt>
      <trkpt lat="47.529278" lon="2.0511706">
        <ele>142.0</ele>
        <time>2022-02-27T10:32:13Z</time>
      </trkpt>
      <trkpt lat="47.52928" lon="2.0511613">
        <ele>142.0</ele>
        <time>2022-02-27T10:32:14Z</time>
      </trkpt>
      <trkpt lat="47.52928" lon="2.0511613">
        <ele>142.0</ele>
        <time>2022-02-27T10:32:15Z</time>
      </trkpt>
      <trkpt lat="47.52928" lon="2.0511613">
        <ele>142.0</ele>
        <time>2022-02-27T10:32:16Z</time>
      </trkpt>
      <trkpt lat="47.5293" lon="2.0511305">
        <ele>141.0</ele>
        <time>2022-02-27T10:32:17Z</time>
      </trkpt>
      <trkpt lat="47.529305" lon="2.05112">
        <ele>141.0</ele>
        <time>2022-02-27T10:32:18Z</time>
      </trkpt>
      <trkpt lat="47.52931" lon="2.0511076">
        <ele>141.0</ele>
        <time>2022-02-27T10:32:19Z</time>
      </trkpt>
      <trkpt lat="47.52932" lon="2.051095">
        <ele>141.0</ele>
        <time>2022-02-27T10:32:20Z</time>
      </trkpt>
      <trkpt lat="47.52932" lon="2.051095">
        <ele>141.0</ele>
        <time>2022-02-27T10:32:21Z</time>
      </trkpt>
      <trkpt lat="47.52932" lon="2.051095">
        <ele>141.0</ele>
        <time>2022-02-27T10:32:22Z</time>
      </trkpt>
      <trkpt lat="47.52933" lon="2.0510678">
        <ele>142.0</ele>
        <time>2022-02-27T10:32:23Z</time>
      </trkpt>
      <trkpt lat="47.52933" lon="2.0510564">
        <ele>142.0</ele>
        <time>2022-02-27T10:32:24Z</time>
      </trkpt>
      <trkpt lat="47.529335" lon="2.0510523">
        <ele>142.0</ele>
        <time>2022-02-27T10:32:25Z</time>
      </trkpt>
      <trkpt lat="47.52934" lon="2.0510447">
        <ele>142.0</ele>
        <time>2022-02-27T10:32:26Z</time>
      </trkpt>
      <trkpt lat="47.52934" lon="2.0510447">
        <ele>142.0</ele>
        <time>2022-02-27T10:32:27Z</time>
      </trkpt>
      <trkpt lat="47.52934" lon="2.0510447">
        <ele>142.0</ele>
        <time>2022-02-27T10:32:28Z</time>
      </trkpt>
      <trkpt lat="47.52935" lon="2.0510168">
        <ele>141.0</ele>
        <time>2022-02-27T10:32:29Z</time>
      </trkpt>
      <trkpt lat="47.529358" lon="2.0510082">
        <ele>141.0</ele>
        <time>2022-02-27T10:32:30Z</time>
      </trkpt>
      <trkpt lat="47.52936" lon="2.0510023">
        <ele>141.0</ele>
        <time>2022-02-27T10:32:31Z</time>
      </trkpt>
      <trkpt lat="47.529366" lon="2.0509894">
        <ele>140.0</ele>
        <time>2022-02-27T10:32:32Z</time>
      </trkpt>
      <trkpt lat="47.529366" lon="2.0509894">
        <ele>140.0</ele>
        <time>2022-02-27T10:32:33Z</time>
      </trkpt>
      <trkpt lat="47.529377" lon="2.0509617">
        <ele>139.0</ele>
        <time>2022-02-27T10:32:34Z</time>
      </trkpt>
      <trkpt lat="47.52939" lon="2.0509503">
        <ele>139.0</ele>
        <time>2022-02-27T10:32:35Z</time>
      </trkpt>
      <trkpt lat="47.529392" lon="2.0509346">
        <ele>139.0</ele>
        <time>2022-02-27T10:32:36Z</time>
      </trkpt>
      <trkpt lat="47.5294" lon="2.0509217">
        <ele>139.0</ele>
        <time>2022-02-27T10:32:37Z</time>
      </trkpt>
      <trkpt lat="47.529408" lon="2.0509083">
        <ele>139.0</ele>
        <time>2022-02-27T10:32:38Z</time>
      </trkpt>
      <trkpt lat="47.529408" lon="2.0509083">
        <ele>139.0</ele>
        <time>2022-02-27T10:32:39Z</time>
      </trkpt>
      <trkpt lat="47.529415" lon="2.050879">
        <ele>139.0</ele>
        <time>2022-02-27T10:32:40Z</time>
      </trkpt>
      <trkpt lat="47.52942" lon="2.0508595">
        <ele>139.0</ele>
        <time>2022-02-27T10:32:41Z</time>
      </trkpt>
      <trkpt lat="47.529427" lon="2.0508413">
        <ele>139.0</ele>
        <time>2022-02-27T10:32:42Z</time>
      </trkpt>
      <trkpt lat="47.52943" lon="2.0508244">
        <ele>139.0</ele>
        <time>2022-02-27T10:32:43Z</time>
      </trkpt>
      <trkpt lat="47.529438" lon="2.050809">
        <ele>139.0</ele>
        <time>2022-02-27T10:32:44Z</time>
      </trkpt>
      <trkpt lat="47.52945" lon="2.0507956">
        <ele>139.0</ele>
        <time>2022-02-27T10:32:45Z</time>
      </trkpt>
      <trkpt lat="47.529457" lon="2.0507812">
        <ele>139.0</ele>
        <time>2022-02-27T10:32:46Z</time>
      </trkpt>
      <trkpt lat="47.529465" lon="2.0507646">
        <ele>139.0</ele>
        <time>2022-02-27T10:32:47Z</time>
      </trkpt>
      <trkpt lat="47.529472" lon="2.0507486">
        <ele>139.0</ele>
        <time>2022-02-27T10:32:48Z</time>
      </trkpt>
      <trkpt lat="47.52948" lon="2.0507355">
        <ele>139.0</ele>
        <time>2022-02-27T10:32:49Z</time>
      </trkpt>
      <trkpt lat="47.529488" lon="2.050721">
        <ele>139.0</ele>
        <time>2022-02-27T10:32:50Z</time>
      </trkpt>
      <trkpt lat="47.52949" lon="2.0507104">
        <ele>139.0</ele>
        <time>2022-02-27T10:32:51Z</time>
      </trkpt>
      <trkpt lat="47.529495" lon="2.0507016">
        <ele>140.0</ele>
        <time>2022-02-27T10:32:52Z</time>
      </trkpt>
      <trkpt lat="47.529495" lon="2.0507016">
        <ele>140.0</ele>
        <time>2022-02-27T10:32:53Z</time>
      </trkpt>
      <trkpt lat="47.529495" lon="2.0507016">
        <ele>140.0</ele>
        <time>2022-02-27T10:32:54Z</time>
      </trkpt>
      <trkpt lat="47.529503" lon="2.0506601">
        <ele>141.0</ele>
        <time>2022-02-27T10:32:55Z</time>
      </trkpt>
      <trkpt lat="47.529503" lon="2.0506463">
        <ele>141.0</ele>
        <time>2022-02-27T10:32:56Z</time>
      </trkpt>
      <trkpt lat="47.529503" lon="2.0506382">
        <ele>142.0</ele>
        <time>2022-02-27T10:32:57Z</time>
      </trkpt>
      <trkpt lat="47.529503" lon="2.0506308">
        <ele>142.0</ele>
        <time>2022-02-27T10:32:58Z</time>
      </trkpt>
      <trkpt lat="47.529503" lon="2.0506308">
        <ele>142.0</ele>
        <time>2022-02-27T10:32:59Z</time>
      </trkpt>
      <trkpt lat="47.529507" lon="2.050609">
        <ele>142.0</ele>
        <time>2022-02-27T10:33:00Z</time>
      </trkpt>
      <trkpt lat="47.529514" lon="2.0505958">
        <ele>142.0</ele>
        <time>2022-02-27T10:33:01Z</time>
      </trkpt>
      <trkpt lat="47.529514" lon="2.0505822">
        <ele>143.0</ele>
        <time>2022-02-27T10:33:02Z</time>
      </trkpt>
      <trkpt lat="47.52952" lon="2.0505695">
        <ele>143.0</ele>
        <time>2022-02-27T10:33:03Z</time>
      </trkpt>
      <trkpt lat="47.529522" lon="2.050557">
        <ele>143.0</ele>
        <time>2022-02-27T10:33:04Z</time>
      </trkpt>
      <trkpt lat="47.529526" lon="2.050548">
        <ele>144.0</ele>
        <time>2022-02-27T10:33:05Z</time>
      </trkpt>
      <trkpt lat="47.529533" lon="2.050537">
        <ele>144.0</ele>
        <time>2022-02-27T10:33:06Z</time>
      </trkpt>
      <trkpt lat="47.52954" lon="2.0505273">
        <ele>144.0</ele>
        <time>2022-02-27T10:33:07Z</time>
      </trkpt>
      <trkpt lat="47.529545" lon="2.0505142">
        <ele>145.0</ele>
        <time>2022-02-27T10:33:08Z</time>
      </trkpt>
      <trkpt lat="47.52955" lon="2.0505009">
        <ele>145.0</ele>
        <time>2022-02-27T10:33:09Z</time>
      </trkpt>
      <trkpt lat="47.529552" lon="2.0504906">
        <ele>146.0</ele>
        <time>2022-02-27T10:33:10Z</time>
      </trkpt>
      <trkpt lat="47.529552" lon="2.0504756">
        <ele>146.0</ele>
        <time>2022-02-27T10:33:11Z</time>
      </trkpt>
      <trkpt lat="47.52956" lon="2.050463">
        <ele>146.0</ele>
        <time>2022-02-27T10:33:12Z</time>
      </trkpt>
      <trkpt lat="47.529564" lon="2.0504456">
        <ele>145.0</ele>
        <time>2022-02-27T10:33:13Z</time>
      </trkpt>
      <trkpt lat="47.529575" lon="2.050428">
        <ele>145.0</ele>
        <time>2022-02-27T10:33:14Z</time>
      </trkpt>
      <trkpt lat="47.529583" lon="2.0504162">
        <ele>145.0</ele>
        <time>2022-02-27T10:33:15Z</time>
      </trkpt>
      <trkpt lat="47.529587" lon="2.0503936">
        <ele>145.0</ele>
        <time>2022-02-27T10:33:16Z</time>
      </trkpt>
      <trkpt lat="47.52959" lon="2.0503669">
        <ele>146.0</ele>
        <time>2022-02-27T10:33:17Z</time>
      </trkpt>
      <trkpt lat="47.529594" lon="2.0503361">
        <ele>147.0</ele>
        <time>2022-02-27T10:33:18Z</time>
      </trkpt>
      <trkpt lat="47.529606" lon="2.0503166">
        <ele>147.0</ele>
        <time>2022-02-27T10:33:19Z</time>
      </trkpt>
      <trkpt lat="47.529606" lon="2.0503008">
        <ele>147.0</ele>
        <time>2022-02-27T10:33:20Z</time>
      </trkpt>
      <trkpt lat="47.529617" lon="2.050273">
        <ele>148.0</ele>
        <time>2022-02-27T10:33:21Z</time>
      </trkpt>
      <trkpt lat="47.52963" lon="2.0502481">
        <ele>148.0</ele>
        <time>2022-02-27T10:33:22Z</time>
      </trkpt>
      <trkpt lat="47.529633" lon="2.0502264">
        <ele>148.0</ele>
        <time>2022-02-27T10:33:23Z</time>
      </trkpt>
      <trkpt lat="47.529636" lon="2.0502074">
        <ele>149.0</ele>
        <time>2022-02-27T10:33:24Z</time>
      </trkpt>
      <trkpt lat="47.529644" lon="2.0501919">
        <ele>149.0</ele>
        <time>2022-02-27T10:33:25Z</time>
      </trkpt>
      <trkpt lat="47.52965" lon="2.050174">
        <ele>150.0</ele>
        <time>2022-02-27T10:33:26Z</time>
      </trkpt>
      <trkpt lat="47.529663" lon="2.0501544">
        <ele>150.0</ele>
        <time>2022-02-27T10:33:27Z</time>
      </trkpt>
      <trkpt lat="47.529667" lon="2.0501359">
        <ele>151.0</ele>
        <time>2022-02-27T10:33:28Z</time>
      </trkpt>
      <trkpt lat="47.529675" lon="2.0501165">
        <ele>151.0</ele>
        <time>2022-02-27T10:33:29Z</time>
      </trkpt>
      <trkpt lat="47.529682" lon="2.0500996">
        <ele>150.0</ele>
        <time>2022-02-27T10:33:30Z</time>
      </trkpt>
      <trkpt lat="47.52969" lon="2.0500846">
        <ele>151.0</ele>
        <time>2022-02-27T10:33:31Z</time>
      </trkpt>
      <trkpt lat="47.5297" lon="2.0500715">
        <ele>150.0</ele>
        <time>2022-02-27T10:33:32Z</time>
      </trkpt>
      <trkpt lat="47.52971" lon="2.0500567">
        <ele>151.0</ele>
        <time>2022-02-27T10:33:33Z</time>
      </trkpt>
      <trkpt lat="47.529716" lon="2.0500379">
        <ele>151.0</ele>
        <time>2022-02-27T10:33:34Z</time>
      </trkpt>
      <trkpt lat="47.52972" lon="2.0500226">
        <ele>151.0</ele>
        <time>2022-02-27T10:33:35Z</time>
      </trkpt>
      <trkpt lat="47.529728" lon="2.0500042">
        <ele>151.0</ele>
        <time>2022-02-27T10:33:36Z</time>
      </trkpt>
      <trkpt lat="47.52973" lon="2.0499847">
        <ele>152.0</ele>
        <time>2022-02-27T10:33:37Z</time>
      </trkpt>
      <trkpt lat="47.529736" lon="2.0499637">
        <ele>152.0</ele>
        <time>2022-02-27T10:33:38Z</time>
      </trkpt>
      <trkpt lat="47.52974" lon="2.049943">
        <ele>152.0</ele>
        <time>2022-02-27T10:33:39Z</time>
      </trkpt>
      <trkpt lat="47.529747" lon="2.0499225">
        <ele>153.0</ele>
        <time>2022-02-27T10:33:40Z</time>
      </trkpt>
      <trkpt lat="47.52975" lon="2.049901">
        <ele>153.0</ele>
        <time>2022-02-27T10:33:41Z</time>
      </trkpt>
      <trkpt lat="47.529755" lon="2.0498824">
        <ele>153.0</ele>
        <time>2022-02-27T10:33:42Z</time>
      </trkpt>
      <trkpt lat="47.529755" lon="2.0498633">
        <ele>153.0</ele>
        <time>2022-02-27T10:33:43Z</time>
      </trkpt>
      <trkpt lat="47.529755" lon="2.0498433">
        <ele>154.0</ele>
        <time>2022-02-27T10:33:44Z</time>
      </trkpt>
      <trkpt lat="47.52976" lon="2.0498238">
        <ele>155.0</ele>
        <time>2022-02-27T10:33:45Z</time>
      </trkpt>
      <trkpt lat="47.529762" lon="2.0498044">
        <ele>155.0</ele>
        <time>2022-02-27T10:33:46Z</time>
      </trkpt>
      <trkpt lat="47.52977" lon="2.0497847">
        <ele>156.0</ele>
        <time>2022-02-27T10:33:47Z</time>
      </trkpt>
      <trkpt lat="47.529778" lon="2.0497622">
        <ele>157.0</ele>
        <time>2022-02-27T10:33:48Z</time>
      </trkpt>
      <trkpt lat="47.52978" lon="2.049743">
        <ele>157.0</ele>
        <time>2022-02-27T10:33:49Z</time>
      </trkpt>
      <trkpt lat="47.529785" lon="2.0497262">
        <ele>157.0</ele>
        <time>2022-02-27T10:33:50Z</time>
      </trkpt>
      <trkpt lat="47.529793" lon="2.0497103">
        <ele>158.0</ele>
        <time>2022-02-27T10:33:51Z</time>
      </trkpt>
      <trkpt lat="47.5298" lon="2.0496948">
        <ele>158.0</ele>
        <time>2022-02-27T10:33:52Z</time>
      </trkpt>
      <trkpt lat="47.529808" lon="2.0496764">
        <ele>159.0</ele>
        <time>2022-02-27T10:33:53Z</time>
      </trkpt>
      <trkpt lat="47.529816" lon="2.0496602">
        <ele>160.0</ele>
        <time>2022-02-27T10:33:54Z</time>
      </trkpt>
      <trkpt lat="47.529823" lon="2.049642">
        <ele>160.0</ele>
        <time>2022-02-27T10:33:55Z</time>
      </trkpt>
      <trkpt lat="47.529835" lon="2.0496264">
        <ele>161.0</ele>
        <time>2022-02-27T10:33:56Z</time>
      </trkpt>
      <trkpt lat="47.52984" lon="2.0496085">
        <ele>161.0</ele>
        <time>2022-02-27T10:33:57Z</time>
      </trkpt>
      <trkpt lat="47.529842" lon="2.049589">
        <ele>161.0</ele>
        <time>2022-02-27T10:33:58Z</time>
      </trkpt>
      <trkpt lat="47.529846" lon="2.0495718">
        <ele>161.0</ele>
        <time>2022-02-27T10:33:59Z</time>
      </trkpt>
      <trkpt lat="47.52985" lon="2.0495577">
        <ele>161.0</ele>
        <time>2022-02-27T10:34:00Z</time>
      </trkpt>
      <trkpt lat="47.529858" lon="2.0495415">
        <ele>162.0</ele>
        <time>2022-02-27T10:34:01Z</time>
      </trkpt>
      <trkpt lat="47.529865" lon="2.0495229">
        <ele>162.0</ele>
        <time>2022-02-27T10:34:02Z</time>
      </trkpt>
      <trkpt lat="47.529873" lon="2.0495012">
        <ele>163.0</ele>
        <time>2022-02-27T10:34:03Z</time>
      </trkpt>
      <trkpt lat="47.52988" lon="2.049483">
        <ele>163.0</ele>
        <time>2022-02-27T10:34:04Z</time>
      </trkpt>
      <trkpt lat="47.52989" lon="2.0494652">
        <ele>163.0</ele>
        <time>2022-02-27T10:34:05Z</time>
      </trkpt>
      <trkpt lat="47.529896" lon="2.0494459">
        <ele>163.0</ele>
        <time>2022-02-27T10:34:06Z</time>
      </trkpt>
      <trkpt lat="47.5299" lon="2.0494258">
        <ele>163.0</ele>
        <time>2022-02-27T10:34:07Z</time>
      </trkpt>
      <trkpt lat="47.52991" lon="2.049406">
        <ele>163.0</ele>
        <time>2022-02-27T10:34:08Z</time>
      </trkpt>
      <trkpt lat="47.52992" lon="2.0493915">
        <ele>162.0</ele>
        <time>2022-02-27T10:34:09Z</time>
      </trkpt>
      <trkpt lat="47.529926" lon="2.049377">
        <ele>163.0</ele>
        <time>2022-02-27T10:34:10Z</time>
      </trkpt>
      <trkpt lat="47.529934" lon="2.0493636">
        <ele>163.0</ele>
        <time>2022-02-27T10:34:11Z</time>
      </trkpt>
      <trkpt lat="47.52994" lon="2.049346">
        <ele>163.0</ele>
        <time>2022-02-27T10:34:12Z</time>
      </trkpt>
      <trkpt lat="47.52995" lon="2.0493307">
        <ele>164.0</ele>
        <time>2022-02-27T10:34:13Z</time>
      </trkpt>
      <trkpt lat="47.529953" lon="2.0493176">
        <ele>164.0</ele>
        <time>2022-02-27T10:34:14Z</time>
      </trkpt>
      <trkpt lat="47.52996" lon="2.0493007">
        <ele>164.0</ele>
        <time>2022-02-27T10:34:15Z</time>
      </trkpt>
      <trkpt lat="47.529964" lon="2.0492847">
        <ele>164.0</ele>
        <time>2022-02-27T10:34:16Z</time>
      </trkpt>
      <trkpt lat="47.529972" lon="2.049271">
        <ele>164.0</ele>
        <time>2022-02-27T10:34:17Z</time>
      </trkpt>
      <trkpt lat="47.52998" lon="2.0492582">
        <ele>164.0</ele>
        <time>2022-02-27T10:34:18Z</time>
      </trkpt>
      <trkpt lat="47.529984" lon="2.0492432">
        <ele>165.0</ele>
        <time>2022-02-27T10:34:19Z</time>
      </trkpt>
      <trkpt lat="47.52999" lon="2.049228">
        <ele>165.0</ele>
        <time>2022-02-27T10:34:20Z</time>
      </trkpt>
      <trkpt lat="47.529995" lon="2.0492113">
        <ele>165.0</ele>
        <time>2022-02-27T10:34:21Z</time>
      </trkpt>
      <trkpt lat="47.530003" lon="2.0491943">
        <ele>165.0</ele>
        <time>2022-02-27T10:34:22Z</time>
      </trkpt>
      <trkpt lat="47.53001" lon="2.0491798">
        <ele>165.0</ele>
        <time>2022-02-27T10:34:23Z</time>
      </trkpt>
      <trkpt lat="47.530018" lon="2.0491667">
        <ele>165.0</ele>
        <time>2022-02-27T10:34:24Z</time>
      </trkpt>
      <trkpt lat="47.53002" lon="2.0491521">
        <ele>165.0</ele>
        <time>2022-02-27T10:34:25Z</time>
      </trkpt>
      <trkpt lat="47.53003" lon="2.0491383">
        <ele>165.0</ele>
        <time>2022-02-27T10:34:26Z</time>
      </trkpt>
      <trkpt lat="47.530037" lon="2.0491261">
        <ele>166.0</ele>
        <time>2022-02-27T10:34:27Z</time>
      </trkpt>
      <trkpt lat="47.53004" lon="2.049113">
        <ele>166.0</ele>
        <time>2022-02-27T10:34:28Z</time>
      </trkpt>
      <trkpt lat="47.530045" lon="2.0490975">
        <ele>166.0</ele>
        <time>2022-02-27T10:34:29Z</time>
      </trkpt>
      <trkpt lat="47.53005" lon="2.0490823">
        <ele>166.0</ele>
        <time>2022-02-27T10:34:31Z</time>
      </trkpt>
      <trkpt lat="47.530056" lon="2.0490682">
        <ele>167.0</ele>
        <time>2022-02-27T10:34:32Z</time>
      </trkpt>
      <trkpt lat="47.53006" lon="2.0490577">
        <ele>167.0</ele>
        <time>2022-02-27T10:34:33Z</time>
      </trkpt>
      <trkpt lat="47.530064" lon="2.0490413">
        <ele>167.0</ele>
        <time>2022-02-27T10:34:34Z</time>
      </trkpt>
      <trkpt lat="47.53007" lon="2.0490203">
        <ele>168.0</ele>
        <time>2022-02-27T10:34:35Z</time>
      </trkpt>
      <trkpt lat="47.53008" lon="2.0490005">
        <ele>168.0</ele>
        <time>2022-02-27T10:34:36Z</time>
      </trkpt>
      <trkpt lat="47.530087" lon="2.0489862">
        <ele>168.0</ele>
        <time>2022-02-27T10:34:37Z</time>
      </trkpt>
      <trkpt lat="47.53009" lon="2.048976">
        <ele>168.0</ele>
        <time>2022-02-27T10:34:38Z</time>
      </trkpt>
      <trkpt lat="47.530098" lon="2.048963">
        <ele>168.0</ele>
        <time>2022-02-27T10:34:39Z</time>
      </trkpt>
      <trkpt lat="47.530117" lon="2.048935">
        <ele>167.0</ele>
        <time>2022-02-27T10:34:40Z</time>
      </trkpt>
      <trkpt lat="47.53013" lon="2.0489202">
        <ele>167.0</ele>
        <time>2022-02-27T10:34:41Z</time>
      </trkpt>
      <trkpt lat="47.530136" lon="2.0489085">
        <ele>167.0</ele>
        <time>2022-02-27T10:34:42Z</time>
      </trkpt>
      <trkpt lat="47.530148" lon="2.048903">
        <ele>167.0</ele>
        <time>2022-02-27T10:34:43Z</time>
      </trkpt>
      <trkpt lat="47.530155" lon="2.048897">
        <ele>166.0</ele>
        <time>2022-02-27T10:34:44Z</time>
      </trkpt>
      <trkpt lat="47.530167" lon="2.0488915">
        <ele>166.0</ele>
        <time>2022-02-27T10:34:45Z</time>
      </trkpt>
      <trkpt lat="47.530174" lon="2.0488803">
        <ele>165.0</ele>
        <time>2022-02-27T10:34:46Z</time>
      </trkpt>
      <trkpt lat="47.53018" lon="2.0488706">
        <ele>165.0</ele>
        <time>2022-02-27T10:34:47Z</time>
      </trkpt>
      <trkpt lat="47.530193" lon="2.0488603">
        <ele>165.0</ele>
        <time>2022-02-27T10:34:48Z</time>
      </trkpt>
      <trkpt lat="47.530193" lon="2.0488603">
        <ele>165.0</ele>
        <time>2022-02-27T10:34:48Z</time>
      </trkpt>
      <trkpt lat="47.530205" lon="2.0488439">
        <ele>165.0</ele>
        <time>2022-02-27T10:34:50Z</time>
      </trkpt>
      <trkpt lat="47.530224" lon="2.0488198">
        <ele>164.0</ele>
        <time>2022-02-27T10:34:51Z</time>
      </trkpt>
      <trkpt lat="47.53023" lon="2.0488052">
        <ele>164.0</ele>
        <time>2022-02-27T10:34:52Z</time>
      </trkpt>
      <trkpt lat="47.53023" lon="2.0488052">
        <ele>164.0</ele>
        <time>2022-02-27T10:34:52Z</time>
      </trkpt>
      <trkpt lat="47.53024" lon="2.048792">
        <ele>163.0</ele>
        <time>2022-02-27T10:34:54Z</time>
      </trkpt>
      <trkpt lat="47.53025" lon="2.0487728">
        <ele>162.0</ele>
        <time>2022-02-27T10:34:55Z</time>
      </trkpt>
      <trkpt lat="47.53025" lon="2.0487728">
        <ele>162.0</ele>
        <time>2022-02-27T10:34:55Z</time>
      </trkpt>
      <trkpt lat="47.53026" lon="2.0487416">
        <ele>162.0</ele>
        <time>2022-02-27T10:34:57Z</time>
      </trkpt>
      <trkpt lat="47.53026" lon="2.0487416">
        <ele>162.0</ele>
        <time>2022-02-27T10:34:57Z</time>
      </trkpt>
      <trkpt lat="47.530262" lon="2.048723">
        <ele>162.0</ele>
        <time>2022-02-27T10:34:59Z</time>
      </trkpt>
      <trkpt lat="47.53027" lon="2.0487032">
        <ele>163.0</ele>
        <time>2022-02-27T10:35:00Z</time>
      </trkpt>
      <trkpt lat="47.530273" lon="2.0486867">
        <ele>163.0</ele>
        <time>2022-02-27T10:35:01Z</time>
      </trkpt>
      <trkpt lat="47.53029" lon="2.0486548">
        <ele>163.0</ele>
        <time>2022-02-27T10:35:02Z</time>
      </trkpt>
      <trkpt lat="47.530293" lon="2.0486355">
        <ele>163.0</ele>
        <time>2022-02-27T10:35:03Z</time>
      </trkpt>
      <trkpt lat="47.5303" lon="2.0486143">
        <ele>163.0</ele>
        <time>2022-02-27T10:35:04Z</time>
      </trkpt>
      <trkpt lat="47.5303" lon="2.0486143">
        <ele>163.0</ele>
        <time>2022-02-27T10:35:04Z</time>
      </trkpt>
      <trkpt lat="47.53031" lon="2.0485835">
        <ele>163.0</ele>
        <time>2022-02-27T10:35:06Z</time>
      </trkpt>
      <trkpt lat="47.530323" lon="2.048565">
        <ele>163.0</ele>
        <time>2022-02-27T10:35:07Z</time>
      </trkpt>
      <trkpt lat="47.53033" lon="2.0485528">
        <ele>163.0</ele>
        <time>2022-02-27T10:35:08Z</time>
      </trkpt>
      <trkpt lat="47.53033" lon="2.0485528">
        <ele>163.0</ele>
        <time>2022-02-27T10:35:08Z</time>
      </trkpt>
      <trkpt lat="47.530342" lon="2.0485198">
        <ele>163.0</ele>
        <time>2022-02-27T10:35:10Z</time>
      </trkpt>
      <trkpt lat="47.530342" lon="2.0485013">
        <ele>163.0</ele>
        <time>2022-02-27T10:35:11Z</time>
      </trkpt>
      <trkpt lat="47.53035" lon="2.0484881">
        <ele>163.0</ele>
        <time>2022-02-27T10:35:12Z</time>
      </trkpt>
      <trkpt lat="47.530357" lon="2.048477">
        <ele>164.0</ele>
        <time>2022-02-27T10:35:13Z</time>
      </trkpt>
      <trkpt lat="47.530365" lon="2.0484633">
        <ele>164.0</ele>
        <time>2022-02-27T10:35:14Z</time>
      </trkpt>
      <trkpt lat="47.530373" lon="2.0484555">
        <ele>164.0</ele>
        <time>2022-02-27T10:35:15Z</time>
      </trkpt>
      <trkpt lat="47.53038" lon="2.048442">
        <ele>164.0</ele>
        <time>2022-02-27T10:35:16Z</time>
      </trkpt>
      <trkpt lat="47.530384" lon="2.0484264">
        <ele>164.0</ele>
        <time>2022-02-27T10:35:17Z</time>
      </trkpt>
      <trkpt lat="47.53039" lon="2.048411">
        <ele>164.0</ele>
        <time>2022-02-27T10:35:18Z</time>
      </trkpt>
      <trkpt lat="47.530396" lon="2.0483947">
        <ele>164.0</ele>
        <time>2022-02-27T10:35:19Z</time>
      </trkpt>
      <trkpt lat="47.530403" lon="2.0483785">
        <ele>164.0</ele>
        <time>2022-02-27T10:35:20Z</time>
      </trkpt>
      <trkpt lat="47.530407" lon="2.0483649">
        <ele>163.0</ele>
        <time>2022-02-27T10:35:21Z</time>
      </trkpt>
      <trkpt lat="47.530415" lon="2.0483515">
        <ele>163.0</ele>
        <time>2022-02-27T10:35:22Z</time>
      </trkpt>
      <trkpt lat="47.530422" lon="2.0483391">
        <ele>164.0</ele>
        <time>2022-02-27T10:35:23Z</time>
      </trkpt>
      <trkpt lat="47.53043" lon="2.0483263">
        <ele>164.0</ele>
        <time>2022-02-27T10:35:24Z</time>
      </trkpt>
      <trkpt lat="47.530437" lon="2.0483127">
        <ele>164.0</ele>
        <time>2022-02-27T10:35:25Z</time>
      </trkpt>
      <trkpt lat="47.530445" lon="2.0482962">
        <ele>163.0</ele>
        <time>2022-02-27T10:35:26Z</time>
      </trkpt>
      <trkpt lat="47.530453" lon="2.0482807">
        <ele>164.0</ele>
        <time>2022-02-27T10:35:27Z</time>
      </trkpt>
      <trkpt lat="47.53046" lon="2.0482643">
        <ele>164.0</ele>
        <time>2022-02-27T10:35:28Z</time>
      </trkpt>
      <trkpt lat="47.530468" lon="2.0482469">
        <ele>164.0</ele>
        <time>2022-02-27T10:35:29Z</time>
      </trkpt>
      <trkpt lat="47.53047" lon="2.0482287">
        <ele>164.0</ele>
        <time>2022-02-27T10:35:30Z</time>
      </trkpt>
      <trkpt lat="47.53048" lon="2.0482154">
        <ele>164.0</ele>
        <time>2022-02-27T10:35:31Z</time>
      </trkpt>
      <trkpt lat="47.530483" lon="2.0482008">
        <ele>164.0</ele>
        <time>2022-02-27T10:35:32Z</time>
      </trkpt>
      <trkpt lat="47.530487" lon="2.048186">
        <ele>164.0</ele>
        <time>2022-02-27T10:35:33Z</time>
      </trkpt>
      <trkpt lat="47.53049" lon="2.0481703">
        <ele>164.0</ele>
        <time>2022-02-27T10:35:34Z</time>
      </trkpt>
      <trkpt lat="47.5305" lon="2.048157">
        <ele>164.0</ele>
        <time>2022-02-27T10:35:35Z</time>
      </trkpt>
      <trkpt lat="47.530502" lon="2.0481446">
        <ele>165.0</ele>
        <time>2022-02-27T10:35:36Z</time>
      </trkpt>
      <trkpt lat="47.530514" lon="2.0481336">
        <ele>165.0</ele>
        <time>2022-02-27T10:35:37Z</time>
      </trkpt>
      <trkpt lat="47.530518" lon="2.048124">
        <ele>165.0</ele>
        <time>2022-02-27T10:35:38Z</time>
      </trkpt>
      <trkpt lat="47.53052" lon="2.048109">
        <ele>165.0</ele>
        <time>2022-02-27T10:35:39Z</time>
      </trkpt>
      <trkpt lat="47.530525" lon="2.0480936">
        <ele>164.0</ele>
        <time>2022-02-27T10:35:40Z</time>
      </trkpt>
      <trkpt lat="47.530533" lon="2.0480783">
        <ele>165.0</ele>
        <time>2022-02-27T10:35:41Z</time>
      </trkpt>
      <trkpt lat="47.530537" lon="2.0480664">
        <ele>165.0</ele>
        <time>2022-02-27T10:35:42Z</time>
      </trkpt>
      <trkpt lat="47.530544" lon="2.0480506">
        <ele>165.0</ele>
        <time>2022-02-27T10:35:43Z</time>
      </trkpt>
      <trkpt lat="47.53055" lon="2.0480375">
        <ele>165.0</ele>
        <time>2022-02-27T10:35:44Z</time>
      </trkpt>
      <trkpt lat="47.530556" lon="2.0480292">
        <ele>165.0</ele>
        <time>2022-02-27T10:35:45Z</time>
      </trkpt>
      <trkpt lat="47.530567" lon="2.0480204">
        <ele>165.0</ele>
        <time>2022-02-27T10:35:46Z</time>
      </trkpt>
      <trkpt lat="47.530575" lon="2.0480065">
        <ele>165.0</ele>
        <time>2022-02-27T10:35:47Z</time>
      </trkpt>
      <trkpt lat="47.53058" lon="2.047992">
        <ele>165.0</ele>
        <time>2022-02-27T10:35:48Z</time>
      </trkpt>
      <trkpt lat="47.530586" lon="2.0479777">
        <ele>165.0</ele>
        <time>2022-02-27T10:35:49Z</time>
      </trkpt>
      <trkpt lat="47.530594" lon="2.0479617">
        <ele>165.0</ele>
        <time>2022-02-27T10:35:50Z</time>
      </trkpt>
      <trkpt lat="47.530598" lon="2.0479462">
        <ele>165.0</ele>
        <time>2022-02-27T10:35:51Z</time>
      </trkpt>
      <trkpt lat="47.530605" lon="2.0479305">
        <ele>165.0</ele>
        <time>2022-02-27T10:35:52Z</time>
      </trkpt>
      <trkpt lat="47.53061" lon="2.047916">
        <ele>165.0</ele>
        <time>2022-02-27T10:35:53Z</time>
      </trkpt>
      <trkpt lat="47.53062" lon="2.047902">
        <ele>165.0</ele>
        <time>2022-02-27T10:35:54Z</time>
      </trkpt>
      <trkpt lat="47.530624" lon="2.047889">
        <ele>165.0</ele>
        <time>2022-02-27T10:35:55Z</time>
      </trkpt>
      <trkpt lat="47.530632" lon="2.0478737">
        <ele>165.0</ele>
        <time>2022-02-27T10:35:56Z</time>
      </trkpt>
      <trkpt lat="47.530636" lon="2.0478573">
        <ele>165.0</ele>
        <time>2022-02-27T10:35:57Z</time>
      </trkpt>
      <trkpt lat="47.53064" lon="2.0478468">
        <ele>166.0</ele>
        <time>2022-02-27T10:35:58Z</time>
      </trkpt>
      <trkpt lat="47.530647" lon="2.0478315">
        <ele>165.0</ele>
        <time>2022-02-27T10:35:59Z</time>
      </trkpt>
      <trkpt lat="47.53065" lon="2.047815">
        <ele>166.0</ele>
        <time>2022-02-27T10:36:00Z</time>
      </trkpt>
      <trkpt lat="47.530655" lon="2.0478017">
        <ele>166.0</ele>
        <time>2022-02-27T10:36:01Z</time>
      </trkpt>
      <trkpt lat="47.53066" lon="2.04779">
        <ele>166.0</ele>
        <time>2022-02-27T10:36:02Z</time>
      </trkpt>
      <trkpt lat="47.530666" lon="2.0477765">
        <ele>166.0</ele>
        <time>2022-02-27T10:36:03Z</time>
      </trkpt>
      <trkpt lat="47.530678" lon="2.0477636">
        <ele>166.0</ele>
        <time>2022-02-27T10:36:04Z</time>
      </trkpt>
      <trkpt lat="47.530678" lon="2.0477495">
        <ele>165.0</ele>
        <time>2022-02-27T10:36:05Z</time>
      </trkpt>
      <trkpt lat="47.530685" lon="2.0477314">
        <ele>165.0</ele>
        <time>2022-02-27T10:36:06Z</time>
      </trkpt>
      <trkpt lat="47.53069" lon="2.0477154">
        <ele>165.0</ele>
        <time>2022-02-27T10:36:07Z</time>
      </trkpt>
      <trkpt lat="47.530697" lon="2.047699">
        <ele>165.0</ele>
        <time>2022-02-27T10:36:08Z</time>
      </trkpt>
      <trkpt lat="47.5307" lon="2.0476842">
        <ele>165.0</ele>
        <time>2022-02-27T10:36:09Z</time>
      </trkpt>
      <trkpt lat="47.530704" lon="2.04767">
        <ele>165.0</ele>
        <time>2022-02-27T10:36:10Z</time>
      </trkpt>
      <trkpt lat="47.530704" lon="2.0476503">
        <ele>165.0</ele>
        <time>2022-02-27T10:36:11Z</time>
      </trkpt>
      <trkpt lat="47.530712" lon="2.0476341">
        <ele>165.0</ele>
        <time>2022-02-27T10:36:12Z</time>
      </trkpt>
      <trkpt lat="47.53072" lon="2.047619">
        <ele>165.0</ele>
        <time>2022-02-27T10:36:13Z</time>
      </trkpt>
      <trkpt lat="47.530724" lon="2.047606">
        <ele>165.0</ele>
        <time>2022-02-27T10:36:14Z</time>
      </trkpt>
      <trkpt lat="47.530735" lon="2.047602">
        <ele>164.0</ele>
        <time>2022-02-27T10:36:15Z</time>
      </trkpt>
      <trkpt lat="47.53074" lon="2.0475924">
        <ele>165.0</ele>
        <time>2022-02-27T10:36:16Z</time>
      </trkpt>
      <trkpt lat="47.53075" lon="2.0475843">
        <ele>165.0</ele>
        <time>2022-02-27T10:36:17Z</time>
      </trkpt>
      <trkpt lat="47.53076" lon="2.047573">
        <ele>164.0</ele>
        <time>2022-02-27T10:36:18Z</time>
      </trkpt>
      <trkpt lat="47.53077" lon="2.047564">
        <ele>164.0</ele>
        <time>2022-02-27T10:36:19Z</time>
      </trkpt>
      <trkpt lat="47.530777" lon="2.047552">
        <ele>164.0</ele>
        <time>2022-02-27T10:36:20Z</time>
      </trkpt>
      <trkpt lat="47.530785" lon="2.0475414">
        <ele>164.0</ele>
        <time>2022-02-27T10:36:21Z</time>
      </trkpt>
      <trkpt lat="47.530792" lon="2.047532">
        <ele>164.0</ele>
        <time>2022-02-27T10:36:22Z</time>
      </trkpt>
      <trkpt lat="47.530796" lon="2.047518">
        <ele>163.0</ele>
        <time>2022-02-27T10:36:23Z</time>
      </trkpt>
      <trkpt lat="47.530804" lon="2.0475066">
        <ele>163.0</ele>
        <time>2022-02-27T10:36:24Z</time>
      </trkpt>
      <trkpt lat="47.53081" lon="2.0474906">
        <ele>163.0</ele>
        <time>2022-02-27T10:36:25Z</time>
      </trkpt>
      <trkpt lat="47.53082" lon="2.0474844">
        <ele>163.0</ele>
        <time>2022-02-27T10:36:26Z</time>
      </trkpt>
      <trkpt lat="47.530827" lon="2.0474732">
        <ele>162.0</ele>
        <time>2022-02-27T10:36:27Z</time>
      </trkpt>
      <trkpt lat="47.53083" lon="2.047466">
        <ele>162.0</ele>
        <time>2022-02-27T10:36:28Z</time>
      </trkpt>
      <trkpt lat="47.530834" lon="2.0474553">
        <ele>163.0</ele>
        <time>2022-02-27T10:36:29Z</time>
      </trkpt>
      <trkpt lat="47.530838" lon="2.0474415">
        <ele>163.0</ele>
        <time>2022-02-27T10:36:30Z</time>
      </trkpt>
      <trkpt lat="47.53084" lon="2.0474253">
        <ele>163.0</ele>
        <time>2022-02-27T10:36:31Z</time>
      </trkpt>
      <trkpt lat="47.53085" lon="2.047415">
        <ele>163.0</ele>
        <time>2022-02-27T10:36:32Z</time>
      </trkpt>
      <trkpt lat="47.530857" lon="2.0474086">
        <ele>163.0</ele>
        <time>2022-02-27T10:36:33Z</time>
      </trkpt>
      <trkpt lat="47.530857" lon="2.0473986">
        <ele>162.0</ele>
        <time>2022-02-27T10:36:34Z</time>
      </trkpt>
      <trkpt lat="47.53086" lon="2.0473838">
        <ele>161.0</ele>
        <time>2022-02-27T10:36:35Z</time>
      </trkpt>
      <trkpt lat="47.530865" lon="2.0473666">
        <ele>160.0</ele>
        <time>2022-02-27T10:36:36Z</time>
      </trkpt>
      <trkpt lat="47.530865" lon="2.0473518">
        <ele>160.0</ele>
        <time>2022-02-27T10:36:37Z</time>
      </trkpt>
      <trkpt lat="47.530865" lon="2.0473354">
        <ele>159.0</ele>
        <time>2022-02-27T10:36:38Z</time>
      </trkpt>
      <trkpt lat="47.53086" lon="2.047321">
        <ele>158.0</ele>
        <time>2022-02-27T10:36:39Z</time>
      </trkpt>
      <trkpt lat="47.53087" lon="2.0473058">
        <ele>158.0</ele>
        <time>2022-02-27T10:36:40Z</time>
      </trkpt>
      <trkpt lat="47.530876" lon="2.0472863">
        <ele>157.0</ele>
        <time>2022-02-27T10:36:41Z</time>
      </trkpt>
      <trkpt lat="47.53088" lon="2.0472703">
        <ele>157.0</ele>
        <time>2022-02-27T10:36:42Z</time>
      </trkpt>
      <trkpt lat="47.530884" lon="2.0472555">
        <ele>157.0</ele>
        <time>2022-02-27T10:36:43Z</time>
      </trkpt>
      <trkpt lat="47.53089" lon="2.04724">
        <ele>157.0</ele>
        <time>2022-02-27T10:36:44Z</time>
      </trkpt>
      <trkpt lat="47.5309" lon="2.0472257">
        <ele>157.0</ele>
        <time>2022-02-27T10:36:45Z</time>
      </trkpt>
      <trkpt lat="47.530907" lon="2.0472069">
        <ele>157.0</ele>
        <time>2022-02-27T10:36:46Z</time>
      </trkpt>
      <trkpt lat="47.530914" lon="2.0471885">
        <ele>157.0</ele>
        <time>2022-02-27T10:36:47Z</time>
      </trkpt>
      <trkpt lat="47.53092" lon="2.0471673">
        <ele>158.0</ele>
        <time>2022-02-27T10:36:48Z</time>
      </trkpt>
      <trkpt lat="47.530926" lon="2.0471475">
        <ele>158.0</ele>
        <time>2022-02-27T10:36:49Z</time>
      </trkpt>
      <trkpt lat="47.530937" lon="2.0471277">
        <ele>158.0</ele>
        <time>2022-02-27T10:36:50Z</time>
      </trkpt>
      <trkpt lat="47.53094" lon="2.0471091">
        <ele>158.0</ele>
        <time>2022-02-27T10:36:51Z</time>
      </trkpt>
      <trkpt lat="47.53095" lon="2.047092">
        <ele>158.0</ele>
        <time>2022-02-27T10:36:52Z</time>
      </trkpt>
      <trkpt lat="47.530952" lon="2.047078">
        <ele>158.0</ele>
        <time>2022-02-27T10:36:53Z</time>
      </trkpt>
      <trkpt lat="47.530956" lon="2.0470629">
        <ele>158.0</ele>
        <time>2022-02-27T10:36:54Z</time>
      </trkpt>
      <trkpt lat="47.530964" lon="2.047048">
        <ele>158.0</ele>
        <time>2022-02-27T10:36:55Z</time>
      </trkpt>
      <trkpt lat="47.53097" lon="2.0470345">
        <ele>158.0</ele>
        <time>2022-02-27T10:36:56Z</time>
      </trkpt>
      <trkpt lat="47.53098" lon="2.047019">
        <ele>158.0</ele>
        <time>2022-02-27T10:36:57Z</time>
      </trkpt>
      <trkpt lat="47.53099" lon="2.0470073">
        <ele>157.0</ele>
        <time>2022-02-27T10:36:58Z</time>
      </trkpt>
      <trkpt lat="47.531" lon="2.0469942">
        <ele>157.0</ele>
        <time>2022-02-27T10:36:59Z</time>
      </trkpt>
      <trkpt lat="47.531006" lon="2.046981">
        <ele>157.0</ele>
        <time>2022-02-27T10:37:00Z</time>
      </trkpt>
      <trkpt lat="47.531013" lon="2.0469656">
        <ele>157.0</ele>
        <time>2022-02-27T10:37:01Z</time>
      </trkpt>
      <trkpt lat="47.53102" lon="2.0469515">
        <ele>157.0</ele>
        <time>2022-02-27T10:37:02Z</time>
      </trkpt>
      <trkpt lat="47.531025" lon="2.046936">
        <ele>157.0</ele>
        <time>2022-02-27T10:37:03Z</time>
      </trkpt>
      <trkpt lat="47.531025" lon="2.0469227">
        <ele>156.0</ele>
        <time>2022-02-27T10:37:04Z</time>
      </trkpt>
      <trkpt lat="47.53103" lon="2.0469084">
        <ele>156.0</ele>
        <time>2022-02-27T10:37:05Z</time>
      </trkpt>
      <trkpt lat="47.531036" lon="2.0468924">
        <ele>156.0</ele>
        <time>2022-02-27T10:37:06Z</time>
      </trkpt>
      <trkpt lat="47.53104" lon="2.0468783">
        <ele>156.0</ele>
        <time>2022-02-27T10:37:07Z</time>
      </trkpt>
      <trkpt lat="47.531044" lon="2.046861">
        <ele>156.0</ele>
        <time>2022-02-27T10:37:08Z</time>
      </trkpt>
      <trkpt lat="47.531048" lon="2.0468454">
        <ele>156.0</ele>
        <time>2022-02-27T10:37:09Z</time>
      </trkpt>
      <trkpt lat="47.53105" lon="2.0468276">
        <ele>156.0</ele>
        <time>2022-02-27T10:37:10Z</time>
      </trkpt>
      <trkpt lat="47.53106" lon="2.046815">
        <ele>157.0</ele>
        <time>2022-02-27T10:37:11Z</time>
      </trkpt>
      <trkpt lat="47.531067" lon="2.0468018">
        <ele>157.0</ele>
        <time>2022-02-27T10:37:12Z</time>
      </trkpt>
      <trkpt lat="47.531075" lon="2.0467896">
        <ele>156.0</ele>
        <time>2022-02-27T10:37:13Z</time>
      </trkpt>
      <trkpt lat="47.531082" lon="2.0467784">
        <ele>156.0</ele>
        <time>2022-02-27T10:37:14Z</time>
      </trkpt>
      <trkpt lat="47.53109" lon="2.046766">
        <ele>155.0</ele>
        <time>2022-02-27T10:37:15Z</time>
      </trkpt>
      <trkpt lat="47.531094" lon="2.046755">
        <ele>155.0</ele>
        <time>2022-02-27T10:37:16Z</time>
      </trkpt>
      <trkpt lat="47.5311" lon="2.0467436">
        <ele>155.0</ele>
        <time>2022-02-27T10:37:17Z</time>
      </trkpt>
      <trkpt lat="47.53111" lon="2.0467343">
        <ele>155.0</ele>
        <time>2022-02-27T10:37:18Z</time>
      </trkpt>
      <trkpt lat="47.531116" lon="2.0467207">
        <ele>155.0</ele>
        <time>2022-02-27T10:37:19Z</time>
      </trkpt>
      <trkpt lat="47.53112" lon="2.0467045">
        <ele>155.0</ele>
        <time>2022-02-27T10:37:20Z</time>
      </trkpt>
      <trkpt lat="47.531128" lon="2.0466871">
        <ele>155.0</ele>
        <time>2022-02-27T10:37:21Z</time>
      </trkpt>
      <trkpt lat="47.531136" lon="2.046667">
        <ele>156.0</ele>
        <time>2022-02-27T10:37:22Z</time>
      </trkpt>
      <trkpt lat="47.53114" lon="2.0466511">
        <ele>156.0</ele>
        <time>2022-02-27T10:37:23Z</time>
      </trkpt>
      <trkpt lat="47.531147" lon="2.046638">
        <ele>156.0</ele>
        <time>2022-02-27T10:37:24Z</time>
      </trkpt>
      <trkpt lat="47.531155" lon="2.0466242">
        <ele>156.0</ele>
        <time>2022-02-27T10:37:25Z</time>
      </trkpt>
      <trkpt lat="47.531162" lon="2.0466094">
        <ele>156.0</ele>
        <time>2022-02-27T10:37:26Z</time>
      </trkpt>
      <trkpt lat="47.53117" lon="2.0465984">
        <ele>156.0</ele>
        <time>2022-02-27T10:37:27Z</time>
      </trkpt>
      <trkpt lat="47.531174" lon="2.0465846">
        <ele>156.0</ele>
        <time>2022-02-27T10:37:28Z</time>
      </trkpt>
      <trkpt lat="47.53118" lon="2.0465705">
        <ele>156.0</ele>
        <time>2022-02-27T10:37:29Z</time>
      </trkpt>
      <trkpt lat="47.53119" lon="2.0465553">
        <ele>156.0</ele>
        <time>2022-02-27T10:37:30Z</time>
      </trkpt>
      <trkpt lat="47.531197" lon="2.0465422">
        <ele>156.0</ele>
        <time>2022-02-27T10:37:31Z</time>
      </trkpt>
      <trkpt lat="47.5312" lon="2.0465372">
        <ele>155.0</ele>
        <time>2022-02-27T10:37:32Z</time>
      </trkpt>
      <trkpt lat="47.531208" lon="2.0465326">
        <ele>155.0</ele>
        <time>2022-02-27T10:37:33Z</time>
      </trkpt>
      <trkpt lat="47.531216" lon="2.0465238">
        <ele>154.0</ele>
        <time>2022-02-27T10:37:34Z</time>
      </trkpt>
      <trkpt lat="47.531223" lon="2.046514">
        <ele>154.0</ele>
        <time>2022-02-27T10:37:35Z</time>
      </trkpt>
      <trkpt lat="47.53123" lon="2.046499">
        <ele>154.0</ele>
        <time>2022-02-27T10:37:36Z</time>
      </trkpt>
      <trkpt lat="47.53124" lon="2.0464816">
        <ele>154.0</ele>
        <time>2022-02-27T10:37:37Z</time>
      </trkpt>
      <trkpt lat="47.531242" lon="2.0464694">
        <ele>154.0</ele>
        <time>2022-02-27T10:37:38Z</time>
      </trkpt>
      <trkpt lat="47.53125" lon="2.0464537">
        <ele>154.0</ele>
        <time>2022-02-27T10:37:39Z</time>
      </trkpt>
      <trkpt lat="47.531258" lon="2.046441">
        <ele>154.0</ele>
        <time>2022-02-27T10:37:40Z</time>
      </trkpt>
      <trkpt lat="47.531265" lon="2.0464246">
        <ele>154.0</ele>
        <time>2022-02-27T10:37:41Z</time>
      </trkpt>
      <trkpt lat="47.531273" lon="2.0464103">
        <ele>154.0</ele>
        <time>2022-02-27T10:37:42Z</time>
      </trkpt>
      <trkpt lat="47.53128" lon="2.0463955">
        <ele>154.0</ele>
        <time>2022-02-27T10:37:43Z</time>
      </trkpt>
      <trkpt lat="47.53129" lon="2.0463846">
        <ele>154.0</ele>
        <time>2022-02-27T10:37:44Z</time>
      </trkpt>
      <trkpt lat="47.531292" lon="2.0463696">
        <ele>154.0</ele>
        <time>2022-02-27T10:37:45Z</time>
      </trkpt>
      <trkpt lat="47.5313" lon="2.0463512">
        <ele>153.0</ele>
        <time>2022-02-27T10:37:46Z</time>
      </trkpt>
      <trkpt lat="47.531303" lon="2.0463321">
        <ele>154.0</ele>
        <time>2022-02-27T10:37:47Z</time>
      </trkpt>
      <trkpt lat="47.53131" lon="2.0463164">
        <ele>154.0</ele>
        <time>2022-02-27T10:37:48Z</time>
      </trkpt>
      <trkpt lat="47.53132" lon="2.0463002">
        <ele>154.0</ele>
        <time>2022-02-27T10:37:49Z</time>
      </trkpt>
      <trkpt lat="47.531326" lon="2.046287">
        <ele>154.0</ele>
        <time>2022-02-27T10:37:50Z</time>
      </trkpt>
      <trkpt lat="47.531334" lon="2.0462668">
        <ele>153.0</ele>
        <time>2022-02-27T10:37:51Z</time>
      </trkpt>
      <trkpt lat="47.53134" lon="2.0462503">
        <ele>154.0</ele>
        <time>2022-02-27T10:37:52Z</time>
      </trkpt>
      <trkpt lat="47.53135" lon="2.0462308">
        <ele>154.0</ele>
        <time>2022-02-27T10:37:53Z</time>
      </trkpt>
      <trkpt lat="47.531357" lon="2.0462153">
        <ele>154.0</ele>
        <time>2022-02-27T10:37:54Z</time>
      </trkpt>
      <trkpt lat="47.531364" lon="2.0462027">
        <ele>153.0</ele>
        <time>2022-02-27T10:37:55Z</time>
      </trkpt>
      <trkpt lat="47.531372" lon="2.0461857">
        <ele>153.0</ele>
        <time>2022-02-27T10:37:56Z</time>
      </trkpt>
      <trkpt lat="47.531376" lon="2.0461693">
        <ele>153.0</ele>
        <time>2022-02-27T10:37:57Z</time>
      </trkpt>
      <trkpt lat="47.531384" lon="2.0461564">
        <ele>153.0</ele>
        <time>2022-02-27T10:37:58Z</time>
      </trkpt>
      <trkpt lat="47.53139" lon="2.0461438">
        <ele>152.0</ele>
        <time>2022-02-27T10:37:59Z</time>
      </trkpt>
      <trkpt lat="47.5314" lon="2.046134">
        <ele>152.0</ele>
        <time>2022-02-27T10:38:00Z</time>
      </trkpt>
      <trkpt lat="47.531406" lon="2.0461228">
        <ele>152.0</ele>
        <time>2022-02-27T10:38:01Z</time>
      </trkpt>
      <trkpt lat="47.53141" lon="2.046108">
        <ele>152.0</ele>
        <time>2022-02-27T10:38:02Z</time>
      </trkpt>
      <trkpt lat="47.531414" lon="2.0460927">
        <ele>152.0</ele>
        <time>2022-02-27T10:38:03Z</time>
      </trkpt>
      <trkpt lat="47.531418" lon="2.0460749">
        <ele>153.0</ele>
        <time>2022-02-27T10:38:04Z</time>
      </trkpt>
      <trkpt lat="47.531425" lon="2.0460558">
        <ele>153.0</ele>
        <time>2022-02-27T10:38:05Z</time>
      </trkpt>
      <trkpt lat="47.53143" lon="2.0460384">
        <ele>153.0</ele>
        <time>2022-02-27T10:38:06Z</time>
      </trkpt>
      <trkpt lat="47.531437" lon="2.0460224">
        <ele>153.0</ele>
        <time>2022-02-27T10:38:07Z</time>
      </trkpt>
      <trkpt lat="47.531437" lon="2.0460038">
        <ele>153.0</ele>
        <time>2022-02-27T10:38:08Z</time>
      </trkpt>
      <trkpt lat="47.53144" lon="2.0459867">
        <ele>153.0</ele>
        <time>2022-02-27T10:38:09Z</time>
      </trkpt>
      <trkpt lat="47.53145" lon="2.0459654">
        <ele>153.0</ele>
        <time>2022-02-27T10:38:10Z</time>
      </trkpt>
      <trkpt lat="47.531452" lon="2.0459473">
        <ele>153.0</ele>
        <time>2022-02-27T10:38:11Z</time>
      </trkpt>
      <trkpt lat="47.53146" lon="2.0459325">
        <ele>153.0</ele>
        <time>2022-02-27T10:38:12Z</time>
      </trkpt>
      <trkpt lat="47.531467" lon="2.0459142">
        <ele>154.0</ele>
        <time>2022-02-27T10:38:13Z</time>
      </trkpt>
      <trkpt lat="47.53147" lon="2.0458932">
        <ele>154.0</ele>
        <time>2022-02-27T10:38:14Z</time>
      </trkpt>
      <trkpt lat="47.53148" lon="2.0458798">
        <ele>154.0</ele>
        <time>2022-02-27T10:38:15Z</time>
      </trkpt>
      <trkpt lat="47.531487" lon="2.045866">
        <ele>154.0</ele>
        <time>2022-02-27T10:38:16Z</time>
      </trkpt>
      <trkpt lat="47.531498" lon="2.0458455">
        <ele>154.0</ele>
        <time>2022-02-27T10:38:17Z</time>
      </trkpt>
      <trkpt lat="47.5315" lon="2.045824">
        <ele>154.0</ele>
        <time>2022-02-27T10:38:18Z</time>
      </trkpt>
      <trkpt lat="47.53151" lon="2.0458026">
        <ele>155.0</ele>
        <time>2022-02-27T10:38:19Z</time>
      </trkpt>
      <trkpt lat="47.53152" lon="2.0457833">
        <ele>155.0</ele>
        <time>2022-02-27T10:38:20Z</time>
      </trkpt>
      <trkpt lat="47.53153" lon="2.0457656">
        <ele>155.0</ele>
        <time>2022-02-27T10:38:21Z</time>
      </trkpt>
      <trkpt lat="47.531536" lon="2.0457518">
        <ele>155.0</ele>
        <time>2022-02-27T10:38:22Z</time>
      </trkpt>
      <trkpt lat="47.531544" lon="2.0457368">
        <ele>155.0</ele>
        <time>2022-02-27T10:38:23Z</time>
      </trkpt>
      <trkpt lat="47.531548" lon="2.0457215">
        <ele>155.0</ele>
        <time>2022-02-27T10:38:24Z</time>
      </trkpt>
      <trkpt lat="47.531555" lon="2.0457094">
        <ele>155.0</ele>
        <time>2022-02-27T10:38:25Z</time>
      </trkpt>
      <trkpt lat="47.53156" lon="2.0457003">
        <ele>155.0</ele>
        <time>2022-02-27T10:38:26Z</time>
      </trkpt>
      <trkpt lat="47.531567" lon="2.045684">
        <ele>155.0</ele>
        <time>2022-02-27T10:38:27Z</time>
      </trkpt>
      <trkpt lat="47.53157" lon="2.0456667">
        <ele>155.0</ele>
        <time>2022-02-27T10:38:28Z</time>
      </trkpt>
      <trkpt lat="47.531574" lon="2.045652">
        <ele>155.0</ele>
        <time>2022-02-27T10:38:29Z</time>
      </trkpt>
      <trkpt lat="47.53158" lon="2.045638">
        <ele>155.0</ele>
        <time>2022-02-27T10:38:30Z</time>
      </trkpt>
      <trkpt lat="47.531593" lon="2.0456252">
        <ele>154.0</ele>
        <time>2022-02-27T10:38:31Z</time>
      </trkpt>
      <trkpt lat="47.531597" lon="2.0456102">
        <ele>154.0</ele>
        <time>2022-02-27T10:38:32Z</time>
      </trkpt>
      <trkpt lat="47.531605" lon="2.0455947">
        <ele>154.0</ele>
        <time>2022-02-27T10:38:33Z</time>
      </trkpt>
      <trkpt lat="47.531612" lon="2.0455842">
        <ele>154.0</ele>
        <time>2022-02-27T10:38:34Z</time>
      </trkpt>
      <trkpt lat="47.53162" lon="2.045568">
        <ele>154.0</ele>
        <time>2022-02-27T10:38:35Z</time>
      </trkpt>
      <trkpt lat="47.531628" lon="2.0455513">
        <ele>154.0</ele>
        <time>2022-02-27T10:38:36Z</time>
      </trkpt>
      <trkpt lat="47.53163" lon="2.045535">
        <ele>153.0</ele>
        <time>2022-02-27T10:38:37Z</time>
      </trkpt>
      <trkpt lat="47.531635" lon="2.0455236">
        <ele>153.0</ele>
        <time>2022-02-27T10:38:38Z</time>
      </trkpt>
      <trkpt lat="47.53164" lon="2.0455074">
        <ele>153.0</ele>
        <time>2022-02-27T10:38:39Z</time>
      </trkpt>
      <trkpt lat="47.531647" lon="2.0454893">
        <ele>153.0</ele>
        <time>2022-02-27T10:38:40Z</time>
      </trkpt>
      <trkpt lat="47.531654" lon="2.045474">
        <ele>153.0</ele>
        <time>2022-02-27T10:38:41Z</time>
      </trkpt>
      <trkpt lat="47.531662" lon="2.045462">
        <ele>153.0</ele>
        <time>2022-02-27T10:38:42Z</time>
      </trkpt>
      <trkpt lat="47.53167" lon="2.04545">
        <ele>153.0</ele>
        <time>2022-02-27T10:38:43Z</time>
      </trkpt>
      <trkpt lat="47.531677" lon="2.0454376">
        <ele>153.0</ele>
        <time>2022-02-27T10:38:44Z</time>
      </trkpt>
      <trkpt lat="47.53168" lon="2.0454254">
        <ele>153.0</ele>
        <time>2022-02-27T10:38:45Z</time>
      </trkpt>
      <trkpt lat="47.53169" lon="2.0454152">
        <ele>153.0</ele>
        <time>2022-02-27T10:38:46Z</time>
      </trkpt>
      <trkpt lat="47.531696" lon="2.0454018">
        <ele>153.0</ele>
        <time>2022-02-27T10:38:47Z</time>
      </trkpt>
      <trkpt lat="47.5317" lon="2.0453844">
        <ele>153.0</ele>
        <time>2022-02-27T10:38:48Z</time>
      </trkpt>
      <trkpt lat="47.531708" lon="2.0453684">
        <ele>153.0</ele>
        <time>2022-02-27T10:38:49Z</time>
      </trkpt>
      <trkpt lat="47.531715" lon="2.0453503">
        <ele>153.0</ele>
        <time>2022-02-27T10:38:50Z</time>
      </trkpt>
      <trkpt lat="47.531723" lon="2.045332">
        <ele>153.0</ele>
        <time>2022-02-27T10:38:51Z</time>
      </trkpt>
      <trkpt lat="47.531727" lon="2.0453146">
        <ele>153.0</ele>
        <time>2022-02-27T10:38:52Z</time>
      </trkpt>
      <trkpt lat="47.531734" lon="2.0453036">
        <ele>153.0</ele>
        <time>2022-02-27T10:38:53Z</time>
      </trkpt>
      <trkpt lat="47.531742" lon="2.045289">
        <ele>153.0</ele>
        <time>2022-02-27T10:38:54Z</time>
      </trkpt>
      <trkpt lat="47.53175" lon="2.0452716">
        <ele>153.0</ele>
        <time>2022-02-27T10:38:55Z</time>
      </trkpt>
      <trkpt lat="47.531754" lon="2.045254">
        <ele>153.0</ele>
        <time>2022-02-27T10:38:56Z</time>
      </trkpt>
      <trkpt lat="47.53176" lon="2.045239">
        <ele>153.0</ele>
        <time>2022-02-27T10:38:57Z</time>
      </trkpt>
      <trkpt lat="47.53177" lon="2.0452285">
        <ele>153.0</ele>
        <time>2022-02-27T10:38:58Z</time>
      </trkpt>
      <trkpt lat="47.531773" lon="2.0452175">
        <ele>153.0</ele>
        <time>2022-02-27T10:38:59Z</time>
      </trkpt>
      <trkpt lat="47.531776" lon="2.0451977">
        <ele>154.0</ele>
        <time>2022-02-27T10:39:00Z</time>
      </trkpt>
      <trkpt lat="47.531788" lon="2.0451832">
        <ele>154.0</ele>
        <time>2022-02-27T10:39:01Z</time>
      </trkpt>
      <trkpt lat="47.5318" lon="2.045171">
        <ele>154.0</ele>
        <time>2022-02-27T10:39:02Z</time>
      </trkpt>
      <trkpt lat="47.531807" lon="2.0451524">
        <ele>154.0</ele>
        <time>2022-02-27T10:39:03Z</time>
      </trkpt>
      <trkpt lat="47.53182" lon="2.0451345">
        <ele>154.0</ele>
        <time>2022-02-27T10:39:04Z</time>
      </trkpt>
      <trkpt lat="47.531826" lon="2.0451117">
        <ele>154.0</ele>
        <time>2022-02-27T10:39:05Z</time>
      </trkpt>
      <trkpt lat="47.531834" lon="2.0450895">
        <ele>154.0</ele>
        <time>2022-02-27T10:39:06Z</time>
      </trkpt>
      <trkpt lat="47.53184" lon="2.045069">
        <ele>154.0</ele>
        <time>2022-02-27T10:39:07Z</time>
      </trkpt>
      <trkpt lat="47.531845" lon="2.0450513">
        <ele>154.0</ele>
        <time>2022-02-27T10:39:08Z</time>
      </trkpt>
      <trkpt lat="47.531857" lon="2.0450373">
        <ele>154.0</ele>
        <time>2022-02-27T10:39:09Z</time>
      </trkpt>
      <trkpt lat="47.531864" lon="2.0450263">
        <ele>153.0</ele>
        <time>2022-02-27T10:39:10Z</time>
      </trkpt>
      <trkpt lat="47.531876" lon="2.0450134">
        <ele>153.0</ele>
        <time>2022-02-27T10:39:11Z</time>
      </trkpt>
      <trkpt lat="47.531887" lon="2.044996">
        <ele>154.0</ele>
        <time>2022-02-27T10:39:12Z</time>
      </trkpt>
      <trkpt lat="47.531895" lon="2.0449805">
        <ele>154.0</ele>
        <time>2022-02-27T10:39:13Z</time>
      </trkpt>
      <trkpt lat="47.531902" lon="2.0449646">
        <ele>154.0</ele>
        <time>2022-02-27T10:39:14Z</time>
      </trkpt>
      <trkpt lat="47.53191" lon="2.0449536">
        <ele>154.0</ele>
        <time>2022-02-27T10:39:15Z</time>
      </trkpt>
      <trkpt lat="47.53192" lon="2.044934">
        <ele>154.0</ele>
        <time>2022-02-27T10:39:16Z</time>
      </trkpt>
      <trkpt lat="47.531933" lon="2.0449116">
        <ele>154.0</ele>
        <time>2022-02-27T10:39:17Z</time>
      </trkpt>
      <trkpt lat="47.531937" lon="2.044896">
        <ele>154.0</ele>
        <time>2022-02-27T10:39:18Z</time>
      </trkpt>
      <trkpt lat="47.53194" lon="2.0448833">
        <ele>154.0</ele>
        <time>2022-02-27T10:39:19Z</time>
      </trkpt>
      <trkpt lat="47.531948" lon="2.0448716">
        <ele>153.0</ele>
        <time>2022-02-27T10:39:20Z</time>
      </trkpt>
      <trkpt lat="47.53195" lon="2.0448554">
        <ele>154.0</ele>
        <time>2022-02-27T10:39:21Z</time>
      </trkpt>
      <trkpt lat="47.531963" lon="2.0448387">
        <ele>154.0</ele>
        <time>2022-02-27T10:39:22Z</time>
      </trkpt>
      <trkpt lat="47.53197" lon="2.0448225">
        <ele>154.0</ele>
        <time>2022-02-27T10:39:23Z</time>
      </trkpt>
      <trkpt lat="47.53198" lon="2.0448034">
        <ele>154.0</ele>
        <time>2022-02-27T10:39:24Z</time>
      </trkpt>
      <trkpt lat="47.531986" lon="2.044785">
        <ele>154.0</ele>
        <time>2022-02-27T10:39:25Z</time>
      </trkpt>
      <trkpt lat="47.531994" lon="2.0447657">
        <ele>154.0</ele>
        <time>2022-02-27T10:39:26Z</time>
      </trkpt>
      <trkpt lat="47.531998" lon="2.0447488">
        <ele>154.0</ele>
        <time>2022-02-27T10:39:27Z</time>
      </trkpt>
      <trkpt lat="47.532005" lon="2.044734">
        <ele>154.0</ele>
        <time>2022-02-27T10:39:28Z</time>
      </trkpt>
      <trkpt lat="47.532013" lon="2.0447228">
        <ele>154.0</ele>
        <time>2022-02-27T10:39:29Z</time>
      </trkpt>
      <trkpt lat="47.532017" lon="2.0447092">
        <ele>154.0</ele>
        <time>2022-02-27T10:39:30Z</time>
      </trkpt>
      <trkpt lat="47.532024" lon="2.0446916">
        <ele>154.0</ele>
        <time>2022-02-27T10:39:31Z</time>
      </trkpt>
      <trkpt lat="47.532032" lon="2.0446746">
        <ele>154.0</ele>
        <time>2022-02-27T10:39:32Z</time>
      </trkpt>
      <trkpt lat="47.532036" lon="2.044654">
        <ele>154.0</ele>
        <time>2022-02-27T10:39:33Z</time>
      </trkpt>
      <trkpt lat="47.532047" lon="2.0446358">
        <ele>154.0</ele>
        <time>2022-02-27T10:39:34Z</time>
      </trkpt>
      <trkpt lat="47.532055" lon="2.04462">
        <ele>154.0</ele>
        <time>2022-02-27T10:39:35Z</time>
      </trkpt>
      <trkpt lat="47.53206" lon="2.044609">
        <ele>154.0</ele>
        <time>2022-02-27T10:39:36Z</time>
      </trkpt>
      <trkpt lat="47.532063" lon="2.0446053">
        <ele>154.0</ele>
        <time>2022-02-27T10:39:37Z</time>
      </trkpt>
      <trkpt lat="47.532066" lon="2.044605">
        <ele>153.0</ele>
        <time>2022-02-27T10:39:38Z</time>
      </trkpt>
      <trkpt lat="47.532074" lon="2.0445874">
        <ele>153.0</ele>
        <time>2022-02-27T10:39:39Z</time>
      </trkpt>
      <trkpt lat="47.532078" lon="2.0445635">
        <ele>153.0</ele>
        <time>2022-02-27T10:39:40Z</time>
      </trkpt>
      <trkpt lat="47.532085" lon="2.044547">
        <ele>153.0</ele>
        <time>2022-02-27T10:39:41Z</time>
      </trkpt>
      <trkpt lat="47.532085" lon="2.0445318">
        <ele>154.0</ele>
        <time>2022-02-27T10:39:42Z</time>
      </trkpt>
      <trkpt lat="47.532093" lon="2.044516">
        <ele>154.0</ele>
        <time>2022-02-27T10:39:43Z</time>
      </trkpt>
      <trkpt lat="47.532097" lon="2.0445015">
        <ele>154.0</ele>
        <time>2022-02-27T10:39:44Z</time>
      </trkpt>
      <trkpt lat="47.532097" lon="2.0444849">
        <ele>154.0</ele>
        <time>2022-02-27T10:39:45Z</time>
      </trkpt>
      <trkpt lat="47.532104" lon="2.0444698">
        <ele>154.0</ele>
        <time>2022-02-27T10:39:46Z</time>
      </trkpt>
      <trkpt lat="47.532112" lon="2.0444555">
        <ele>154.0</ele>
        <time>2022-02-27T10:39:47Z</time>
      </trkpt>
      <trkpt lat="47.53212" lon="2.044443">
        <ele>155.0</ele>
        <time>2022-02-27T10:39:48Z</time>
      </trkpt>
      <trkpt lat="47.532127" lon="2.0444283">
        <ele>154.0</ele>
        <time>2022-02-27T10:39:49Z</time>
      </trkpt>
      <trkpt lat="47.53214" lon="2.0444155">
        <ele>154.0</ele>
        <time>2022-02-27T10:39:50Z</time>
      </trkpt>
      <trkpt lat="47.532143" lon="2.0443943">
        <ele>153.0</ele>
        <time>2022-02-27T10:39:51Z</time>
      </trkpt>
      <trkpt lat="47.53215" lon="2.0443695">
        <ele>153.0</ele>
        <time>2022-02-27T10:39:52Z</time>
      </trkpt>
      <trkpt lat="47.532158" lon="2.044347">
        <ele>153.0</ele>
        <time>2022-02-27T10:39:53Z</time>
      </trkpt>
      <trkpt lat="47.532166" lon="2.0443308">
        <ele>152.0</ele>
        <time>2022-02-27T10:39:54Z</time>
      </trkpt>
      <trkpt lat="47.53217" lon="2.0443153">
        <ele>153.0</ele>
        <time>2022-02-27T10:39:55Z</time>
      </trkpt>
      <trkpt lat="47.532177" lon="2.0443003">
        <ele>154.0</ele>
        <time>2022-02-27T10:39:56Z</time>
      </trkpt>
      <trkpt lat="47.53219" lon="2.0442798">
        <ele>154.0</ele>
        <time>2022-02-27T10:39:57Z</time>
      </trkpt>
      <trkpt lat="47.532196" lon="2.0442624">
        <ele>154.0</ele>
        <time>2022-02-27T10:39:58Z</time>
      </trkpt>
      <trkpt lat="47.532207" lon="2.0442486">
        <ele>154.0</ele>
        <time>2022-02-27T10:39:59Z</time>
      </trkpt>
      <trkpt lat="47.532215" lon="2.0442293">
        <ele>154.0</ele>
        <time>2022-02-27T10:40:00Z</time>
      </trkpt>
      <trkpt lat="47.532223" lon="2.0442123">
        <ele>155.0</ele>
        <time>2022-02-27T10:40:01Z</time>
      </trkpt>
      <trkpt lat="47.53223" lon="2.0441992">
        <ele>155.0</ele>
        <time>2022-02-27T10:40:02Z</time>
      </trkpt>
      <trkpt lat="47.53224" lon="2.044184">
        <ele>155.0</ele>
        <time>2022-02-27T10:40:03Z</time>
      </trkpt>
      <trkpt lat="47.532246" lon="2.0441682">
        <ele>155.0</ele>
        <time>2022-02-27T10:40:04Z</time>
      </trkpt>
      <trkpt lat="47.532253" lon="2.0441525">
        <ele>155.0</ele>
        <time>2022-02-27T10:40:05Z</time>
      </trkpt>
      <trkpt lat="47.532257" lon="2.0441365">
        <ele>155.0</ele>
        <time>2022-02-27T10:40:06Z</time>
      </trkpt>
      <trkpt lat="47.532257" lon="2.0441163">
        <ele>155.0</ele>
        <time>2022-02-27T10:40:07Z</time>
      </trkpt>
      <trkpt lat="47.53226" lon="2.0440955">
        <ele>155.0</ele>
        <time>2022-02-27T10:40:08Z</time>
      </trkpt>
      <trkpt lat="47.53227" lon="2.0440812">
        <ele>155.0</ele>
        <time>2022-02-27T10:40:09Z</time>
      </trkpt>
      <trkpt lat="47.532276" lon="2.0440679">
        <ele>156.0</ele>
        <time>2022-02-27T10:40:10Z</time>
      </trkpt>
      <trkpt lat="47.53228" lon="2.0440578">
        <ele>156.0</ele>
        <time>2022-02-27T10:40:11Z</time>
      </trkpt>
      <trkpt lat="47.532288" lon="2.0440438">
        <ele>156.0</ele>
        <time>2022-02-27T10:40:12Z</time>
      </trkpt>
      <trkpt lat="47.53229" lon="2.0440266">
        <ele>156.0</ele>
        <time>2022-02-27T10:40:13Z</time>
      </trkpt>
      <trkpt lat="47.5323" lon="2.044009">
        <ele>155.0</ele>
        <time>2022-02-27T10:40:14Z</time>
      </trkpt>
      <trkpt lat="47.532307" lon="2.0439932">
        <ele>155.0</ele>
        <time>2022-02-27T10:40:15Z</time>
      </trkpt>
      <trkpt lat="47.532314" lon="2.0439844">
        <ele>155.0</ele>
        <time>2022-02-27T10:40:16Z</time>
      </trkpt>
      <trkpt lat="47.532326" lon="2.043975">
        <ele>155.0</ele>
        <time>2022-02-27T10:40:17Z</time>
      </trkpt>
      <trkpt lat="47.532333" lon="2.0439587">
        <ele>155.0</ele>
        <time>2022-02-27T10:40:18Z</time>
      </trkpt>
      <trkpt lat="47.53234" lon="2.0439463">
        <ele>155.0</ele>
        <time>2022-02-27T10:40:19Z</time>
      </trkpt>
      <trkpt lat="47.53235" lon="2.0439312">
        <ele>154.0</ele>
        <time>2022-02-27T10:40:20Z</time>
      </trkpt>
      <trkpt lat="47.532356" lon="2.0439136">
        <ele>154.0</ele>
        <time>2022-02-27T10:40:21Z</time>
      </trkpt>
      <trkpt lat="47.532364" lon="2.0439012">
        <ele>154.0</ele>
        <time>2022-02-27T10:40:22Z</time>
      </trkpt>
      <trkpt lat="47.53237" lon="2.043891">
        <ele>154.0</ele>
        <time>2022-02-27T10:40:23Z</time>
      </trkpt>
      <trkpt lat="47.53238" lon="2.04388">
        <ele>154.0</ele>
        <time>2022-02-27T10:40:24Z</time>
      </trkpt>
      <trkpt lat="47.532387" lon="2.0438657">
        <ele>155.0</ele>
        <time>2022-02-27T10:40:25Z</time>
      </trkpt>
      <trkpt lat="47.532394" lon="2.0438526">
        <ele>155.0</ele>
        <time>2022-02-27T10:40:26Z</time>
      </trkpt>
      <trkpt lat="47.5324" lon="2.0438397">
        <ele>155.0</ele>
        <time>2022-02-27T10:40:27Z</time>
      </trkpt>
      <trkpt lat="47.532402" lon="2.0438251">
        <ele>155.0</ele>
        <time>2022-02-27T10:40:28Z</time>
      </trkpt>
      <trkpt lat="47.53241" lon="2.0438092">
        <ele>155.0</ele>
        <time>2022-02-27T10:40:29Z</time>
      </trkpt>
      <trkpt lat="47.532417" lon="2.0437946">
        <ele>155.0</ele>
        <time>2022-02-27T10:40:30Z</time>
      </trkpt>
      <trkpt lat="47.532425" lon="2.043778">
        <ele>155.0</ele>
        <time>2022-02-27T10:40:31Z</time>
      </trkpt>
      <trkpt lat="47.532433" lon="2.043759">
        <ele>155.0</ele>
        <time>2022-02-27T10:40:32Z</time>
      </trkpt>
      <trkpt lat="47.53244" lon="2.0437412">
        <ele>155.0</ele>
        <time>2022-02-27T10:40:33Z</time>
      </trkpt>
      <trkpt lat="47.532448" lon="2.043724">
        <ele>155.0</ele>
        <time>2022-02-27T10:40:34Z</time>
      </trkpt>
      <trkpt lat="47.532455" lon="2.0437121">
        <ele>155.0</ele>
        <time>2022-02-27T10:40:35Z</time>
      </trkpt>
      <trkpt lat="47.53246" lon="2.0436974">
        <ele>155.0</ele>
        <time>2022-02-27T10:40:36Z</time>
      </trkpt>
      <trkpt lat="47.532467" lon="2.043681">
        <ele>155.0</ele>
        <time>2022-02-27T10:40:37Z</time>
      </trkpt>
      <trkpt lat="47.532475" lon="2.0436692">
        <ele>155.0</ele>
        <time>2022-02-27T10:40:38Z</time>
      </trkpt>
      <trkpt lat="47.532475" lon="2.0436578">
        <ele>155.0</ele>
        <time>2022-02-27T10:40:39Z</time>
      </trkpt>
      <trkpt lat="47.53248" lon="2.043644">
        <ele>156.0</ele>
        <time>2022-02-27T10:40:40Z</time>
      </trkpt>
      <trkpt lat="47.532482" lon="2.0436273">
        <ele>156.0</ele>
        <time>2022-02-27T10:40:41Z</time>
      </trkpt>
      <trkpt lat="47.532486" lon="2.0436134">
        <ele>156.0</ele>
        <time>2022-02-27T10:40:42Z</time>
      </trkpt>
      <trkpt lat="47.53249" lon="2.0435982">
        <ele>156.0</ele>
        <time>2022-02-27T10:40:43Z</time>
      </trkpt>
      <trkpt lat="47.532494" lon="2.0435824">
        <ele>156.0</ele>
        <time>2022-02-27T10:40:44Z</time>
      </trkpt>
      <trkpt lat="47.5325" lon="2.043565">
        <ele>156.0</ele>
        <time>2022-02-27T10:40:45Z</time>
      </trkpt>
      <trkpt lat="47.532505" lon="2.0435522">
        <ele>156.0</ele>
        <time>2022-02-27T10:40:46Z</time>
      </trkpt>
      <trkpt lat="47.532513" lon="2.0435398">
        <ele>156.0</ele>
        <time>2022-02-27T10:40:47Z</time>
      </trkpt>
      <trkpt lat="47.53252" lon="2.043524">
        <ele>156.0</ele>
        <time>2022-02-27T10:40:48Z</time>
      </trkpt>
      <trkpt lat="47.532528" lon="2.043508">
        <ele>156.0</ele>
        <time>2022-02-27T10:40:49Z</time>
      </trkpt>
      <trkpt lat="47.532536" lon="2.04349">
        <ele>156.0</ele>
        <time>2022-02-27T10:40:50Z</time>
      </trkpt>
      <trkpt lat="47.532543" lon="2.0434792">
        <ele>155.0</ele>
        <time>2022-02-27T10:40:51Z</time>
      </trkpt>
      <trkpt lat="47.532547" lon="2.0434637">
        <ele>156.0</ele>
        <time>2022-02-27T10:40:52Z</time>
      </trkpt>
      <trkpt lat="47.532555" lon="2.0434551">
        <ele>156.0</ele>
        <time>2022-02-27T10:40:53Z</time>
      </trkpt>
      <trkpt lat="47.532562" lon="2.0434427">
        <ele>157.0</ele>
        <time>2022-02-27T10:40:54Z</time>
      </trkpt>
      <trkpt lat="47.53257" lon="2.043428">
        <ele>157.0</ele>
        <time>2022-02-27T10:40:55Z</time>
      </trkpt>
      <trkpt lat="47.532574" lon="2.0434122">
        <ele>157.0</ele>
        <time>2022-02-27T10:40:56Z</time>
      </trkpt>
      <trkpt lat="47.53258" lon="2.0433948">
        <ele>157.0</ele>
        <time>2022-02-27T10:40:57Z</time>
      </trkpt>
      <trkpt lat="47.532585" lon="2.0433795">
        <ele>158.0</ele>
        <time>2022-02-27T10:40:58Z</time>
      </trkpt>
      <trkpt lat="47.532593" lon="2.0433676">
        <ele>158.0</ele>
        <time>2022-02-27T10:40:59Z</time>
      </trkpt>
      <trkpt lat="47.5326" lon="2.0433555">
        <ele>158.0</ele>
        <time>2022-02-27T10:41:00Z</time>
      </trkpt>
      <trkpt lat="47.532604" lon="2.0433393">
        <ele>158.0</ele>
        <time>2022-02-27T10:41:01Z</time>
      </trkpt>
      <trkpt lat="47.53261" lon="2.0433254">
        <ele>158.0</ele>
        <time>2022-02-27T10:41:02Z</time>
      </trkpt>
      <trkpt lat="47.53262" lon="2.04331">
        <ele>158.0</ele>
        <time>2022-02-27T10:41:03Z</time>
      </trkpt>
      <trkpt lat="47.532627" lon="2.0432937">
        <ele>158.0</ele>
        <time>2022-02-27T10:41:04Z</time>
      </trkpt>
      <trkpt lat="47.53263" lon="2.0432787">
        <ele>158.0</ele>
        <time>2022-02-27T10:41:05Z</time>
      </trkpt>
      <trkpt lat="47.532635" lon="2.0432642">
        <ele>158.0</ele>
        <time>2022-02-27T10:41:06Z</time>
      </trkpt>
      <trkpt lat="47.532646" lon="2.043255">
        <ele>157.0</ele>
        <time>2022-02-27T10:41:07Z</time>
      </trkpt>
      <trkpt lat="47.532654" lon="2.0432472">
        <ele>157.0</ele>
        <time>2022-02-27T10:41:08Z</time>
      </trkpt>
      <trkpt lat="47.53266" lon="2.0432336">
        <ele>157.0</ele>
        <time>2022-02-27T10:41:09Z</time>
      </trkpt>
      <trkpt lat="47.532665" lon="2.0432143">
        <ele>157.0</ele>
        <time>2022-02-27T10:41:10Z</time>
      </trkpt>
      <trkpt lat="47.532673" lon="2.0431952">
        <ele>157.0</ele>
        <time>2022-02-27T10:41:11Z</time>
      </trkpt>
      <trkpt lat="47.532684" lon="2.043179">
        <ele>157.0</ele>
        <time>2022-02-27T10:41:12Z</time>
      </trkpt>
      <trkpt lat="47.532692" lon="2.043163">
        <ele>157.0</ele>
        <time>2022-02-27T10:41:13Z</time>
      </trkpt>
      <trkpt lat="47.5327" lon="2.0431488">
        <ele>157.0</ele>
        <time>2022-02-27T10:41:14Z</time>
      </trkpt>
      <trkpt lat="47.532707" lon="2.0431378">
        <ele>158.0</ele>
        <time>2022-02-27T10:41:15Z</time>
      </trkpt>
      <trkpt lat="47.532715" lon="2.043126">
        <ele>157.0</ele>
        <time>2022-02-27T10:41:16Z</time>
      </trkpt>
      <trkpt lat="47.53272" lon="2.0431077">
        <ele>157.0</ele>
        <time>2022-02-27T10:41:17Z</time>
      </trkpt>
      <trkpt lat="47.532726" lon="2.0430903">
        <ele>157.0</ele>
        <time>2022-02-27T10:41:18Z</time>
      </trkpt>
      <trkpt lat="47.532734" lon="2.0430753">
        <ele>157.0</ele>
        <time>2022-02-27T10:41:19Z</time>
      </trkpt>
      <trkpt lat="47.53274" lon="2.0430589">
        <ele>156.0</ele>
        <time>2022-02-27T10:41:20Z</time>
      </trkpt>
      <trkpt lat="47.53275" lon="2.0430431">
        <ele>156.0</ele>
        <time>2022-02-27T10:41:21Z</time>
      </trkpt>
      <trkpt lat="47.532753" lon="2.0430267">
        <ele>156.0</ele>
        <time>2022-02-27T10:41:22Z</time>
      </trkpt>
      <trkpt lat="47.532757" lon="2.0430107">
        <ele>155.0</ele>
        <time>2022-02-27T10:41:23Z</time>
      </trkpt>
      <trkpt lat="47.532764" lon="2.0429988">
        <ele>155.0</ele>
        <time>2022-02-27T10:41:24Z</time>
      </trkpt>
      <trkpt lat="47.53277" lon="2.042989">
        <ele>154.0</ele>
        <time>2022-02-27T10:41:25Z</time>
      </trkpt>
      <trkpt lat="47.532776" lon="2.0429754">
        <ele>154.0</ele>
        <time>2022-02-27T10:41:26Z</time>
      </trkpt>
      <trkpt lat="47.53278" lon="2.042966">
        <ele>154.0</ele>
        <time>2022-02-27T10:41:27Z</time>
      </trkpt>
      <trkpt lat="47.532787" lon="2.0429533">
        <ele>154.0</ele>
        <time>2022-02-27T10:41:28Z</time>
      </trkpt>
      <trkpt lat="47.532795" lon="2.0429382">
        <ele>154.0</ele>
        <time>2022-02-27T10:41:29Z</time>
      </trkpt>
      <trkpt lat="47.532803" lon="2.0429251">
        <ele>154.0</ele>
        <time>2022-02-27T10:41:30Z</time>
      </trkpt>
      <trkpt lat="47.53281" lon="2.0429134">
        <ele>154.0</ele>
        <time>2022-02-27T10:41:31Z</time>
      </trkpt>
      <trkpt lat="47.532818" lon="2.0429032">
        <ele>154.0</ele>
        <time>2022-02-27T10:41:32Z</time>
      </trkpt>
      <trkpt lat="47.53282" lon="2.0428903">
        <ele>154.0</ele>
        <time>2022-02-27T10:41:33Z</time>
      </trkpt>
      <trkpt lat="47.532825" lon="2.0428727">
        <ele>154.0</ele>
        <time>2022-02-27T10:41:34Z</time>
      </trkpt>
      <trkpt lat="47.532833" lon="2.0428588">
        <ele>153.0</ele>
        <time>2022-02-27T10:41:35Z</time>
      </trkpt>
      <trkpt lat="47.53284" lon="2.0428452">
        <ele>153.0</ele>
        <time>2022-02-27T10:41:36Z</time>
      </trkpt>
      <trkpt lat="47.532845" lon="2.0428305">
        <ele>153.0</ele>
        <time>2022-02-27T10:41:37Z</time>
      </trkpt>
      <trkpt lat="47.53285" lon="2.0428143">
        <ele>153.0</ele>
        <time>2022-02-27T10:41:38Z</time>
      </trkpt>
      <trkpt lat="47.532856" lon="2.0427961">
        <ele>153.0</ele>
        <time>2022-02-27T10:41:39Z</time>
      </trkpt>
      <trkpt lat="47.53286" lon="2.04278">
        <ele>153.0</ele>
        <time>2022-02-27T10:41:40Z</time>
      </trkpt>
      <trkpt lat="47.532867" lon="2.0427642">
        <ele>153.0</ele>
        <time>2022-02-27T10:41:41Z</time>
      </trkpt>
      <trkpt lat="47.532875" lon="2.0427501">
        <ele>153.0</ele>
        <time>2022-02-27T10:41:42Z</time>
      </trkpt>
      <trkpt lat="47.53288" lon="2.0427396">
        <ele>153.0</ele>
        <time>2022-02-27T10:41:43Z</time>
      </trkpt>
      <trkpt lat="47.53289" lon="2.0427294">
        <ele>153.0</ele>
        <time>2022-02-27T10:41:44Z</time>
      </trkpt>
      <trkpt lat="47.532898" lon="2.0427132">
        <ele>153.0</ele>
        <time>2022-02-27T10:41:45Z</time>
      </trkpt>
      <trkpt lat="47.532906" lon="2.0426955">
        <ele>154.0</ele>
        <time>2022-02-27T10:41:46Z</time>
      </trkpt>
      <trkpt lat="47.532913" lon="2.0426748">
        <ele>154.0</ele>
        <time>2022-02-27T10:41:47Z</time>
      </trkpt>
      <trkpt lat="47.532917" lon="2.0426588">
        <ele>154.0</ele>
        <time>2022-02-27T10:41:48Z</time>
      </trkpt>
      <trkpt lat="47.532925" lon="2.042644">
        <ele>154.0</ele>
        <time>2022-02-27T10:41:49Z</time>
      </trkpt>
      <trkpt lat="47.532936" lon="2.042632">
        <ele>154.0</ele>
        <time>2022-02-27T10:41:50Z</time>
      </trkpt>
      <trkpt lat="47.53294" lon="2.0426176">
        <ele>154.0</ele>
        <time>2022-02-27T10:41:51Z</time>
      </trkpt>
      <trkpt lat="47.532948" lon="2.0425985">
        <ele>154.0</ele>
        <time>2022-02-27T10:41:52Z</time>
      </trkpt>
      <trkpt lat="47.532955" lon="2.0425842">
        <ele>154.0</ele>
        <time>2022-02-27T10:41:53Z</time>
      </trkpt>
      <trkpt lat="47.532963" lon="2.0425653">
        <ele>154.0</ele>
        <time>2022-02-27T10:41:54Z</time>
      </trkpt>
      <trkpt lat="47.532967" lon="2.0425496">
        <ele>154.0</ele>
        <time>2022-02-27T10:41:55Z</time>
      </trkpt>
      <trkpt lat="47.532974" lon="2.0425384">
        <ele>154.0</ele>
        <time>2022-02-27T10:41:56Z</time>
      </trkpt>
      <trkpt lat="47.532978" lon="2.0425217">
        <ele>154.0</ele>
        <time>2022-02-27T10:41:57Z</time>
      </trkpt>
      <trkpt lat="47.53298" lon="2.0425057">
        <ele>154.0</ele>
        <time>2022-02-27T10:41:58Z</time>
      </trkpt>
      <trkpt lat="47.53299" lon="2.042491">
        <ele>154.0</ele>
        <time>2022-02-27T10:41:59Z</time>
      </trkpt>
      <trkpt lat="47.53299" lon="2.042475">
        <ele>154.0</ele>
        <time>2022-02-27T10:42:00Z</time>
      </trkpt>
      <trkpt lat="47.532993" lon="2.042461">
        <ele>154.0</ele>
        <time>2022-02-27T10:42:01Z</time>
      </trkpt>
      <trkpt lat="47.532997" lon="2.0424488">
        <ele>155.0</ele>
        <time>2022-02-27T10:42:02Z</time>
      </trkpt>
      <trkpt lat="47.533" lon="2.0424366">
        <ele>155.0</ele>
        <time>2022-02-27T10:42:03Z</time>
      </trkpt>
      <trkpt lat="47.533005" lon="2.0424256">
        <ele>155.0</ele>
        <time>2022-02-27T10:42:04Z</time>
      </trkpt>
      <trkpt lat="47.533012" lon="2.0424094">
        <ele>155.0</ele>
        <time>2022-02-27T10:42:05Z</time>
      </trkpt>
      <trkpt lat="47.533016" lon="2.0423949">
        <ele>155.0</ele>
        <time>2022-02-27T10:42:06Z</time>
      </trkpt>
      <trkpt lat="47.533024" lon="2.042385">
        <ele>154.0</ele>
        <time>2022-02-27T10:42:07Z</time>
      </trkpt>
      <trkpt lat="47.533028" lon="2.0423722">
        <ele>154.0</ele>
        <time>2022-02-27T10:42:08Z</time>
      </trkpt>
      <trkpt lat="47.53303" lon="2.042358">
        <ele>154.0</ele>
        <time>2022-02-27T10:42:09Z</time>
      </trkpt>
      <trkpt lat="47.533035" lon="2.0423388">
        <ele>154.0</ele>
        <time>2022-02-27T10:42:10Z</time>
      </trkpt>
      <trkpt lat="47.53304" lon="2.0423224">
        <ele>154.0</ele>
        <time>2022-02-27T10:42:11Z</time>
      </trkpt>
      <trkpt lat="47.533047" lon="2.0423045">
        <ele>154.0</ele>
        <time>2022-02-27T10:42:12Z</time>
      </trkpt>
      <trkpt lat="47.53305" lon="2.0422885">
        <ele>154.0</ele>
        <time>2022-02-27T10:42:13Z</time>
      </trkpt>
      <trkpt lat="47.53306" lon="2.0422702">
        <ele>154.0</ele>
        <time>2022-02-27T10:42:14Z</time>
      </trkpt>
      <trkpt lat="47.533066" lon="2.0422554">
        <ele>154.0</ele>
        <time>2022-02-27T10:42:15Z</time>
      </trkpt>
      <trkpt lat="47.53307" lon="2.042238">
        <ele>154.0</ele>
        <time>2022-02-27T10:42:16Z</time>
      </trkpt>
      <trkpt lat="47.533077" lon="2.0422235">
        <ele>154.0</ele>
        <time>2022-02-27T10:42:17Z</time>
      </trkpt>
      <trkpt lat="47.533085" lon="2.0422096">
        <ele>154.0</ele>
        <time>2022-02-27T10:42:18Z</time>
      </trkpt>
      <trkpt lat="47.53309" lon="2.0421944">
        <ele>153.0</ele>
        <time>2022-02-27T10:42:19Z</time>
      </trkpt>
      <trkpt lat="47.533092" lon="2.04218">
        <ele>153.0</ele>
        <time>2022-02-27T10:42:20Z</time>
      </trkpt>
      <trkpt lat="47.5331" lon="2.0421655">
        <ele>153.0</ele>
        <time>2022-02-27T10:42:21Z</time>
      </trkpt>
      <trkpt lat="47.533104" lon="2.0421498">
        <ele>153.0</ele>
        <time>2022-02-27T10:42:22Z</time>
      </trkpt>
      <trkpt lat="47.53311" lon="2.0421343">
        <ele>153.0</ele>
        <time>2022-02-27T10:42:23Z</time>
      </trkpt>
      <trkpt lat="47.533123" lon="2.0421169">
        <ele>152.0</ele>
        <time>2022-02-27T10:42:24Z</time>
      </trkpt>
      <trkpt lat="47.533127" lon="2.042103">
        <ele>152.0</ele>
        <time>2022-02-27T10:42:25Z</time>
      </trkpt>
      <trkpt lat="47.533134" lon="2.0420897">
        <ele>152.0</ele>
        <time>2022-02-27T10:42:26Z</time>
      </trkpt>
      <trkpt lat="47.533142" lon="2.0420756">
        <ele>152.0</ele>
        <time>2022-02-27T10:42:27Z</time>
      </trkpt>
      <trkpt lat="47.53315" lon="2.0420606">
        <ele>152.0</ele>
        <time>2022-02-27T10:42:28Z</time>
      </trkpt>
      <trkpt lat="47.533157" lon="2.0420444">
        <ele>151.0</ele>
        <time>2022-02-27T10:42:29Z</time>
      </trkpt>
      <trkpt lat="47.53316" lon="2.0420299">
        <ele>151.0</ele>
        <time>2022-02-27T10:42:30Z</time>
      </trkpt>
      <trkpt lat="47.53317" lon="2.0420105">
        <ele>151.0</ele>
        <time>2022-02-27T10:42:31Z</time>
      </trkpt>
      <trkpt lat="47.533173" lon="2.041999">
        <ele>150.0</ele>
        <time>2022-02-27T10:42:32Z</time>
      </trkpt>
      <trkpt lat="47.533173" lon="2.0419843">
        <ele>150.0</ele>
        <time>2022-02-27T10:42:33Z</time>
      </trkpt>
      <trkpt lat="47.533176" lon="2.0419707">
        <ele>149.0</ele>
        <time>2022-02-27T10:42:34Z</time>
      </trkpt>
      <trkpt lat="47.53318" lon="2.0419536">
        <ele>149.0</ele>
        <time>2022-02-27T10:42:35Z</time>
      </trkpt>
      <trkpt lat="47.533188" lon="2.041936">
        <ele>149.0</ele>
        <time>2022-02-27T10:42:36Z</time>
      </trkpt>
      <trkpt lat="47.53319" lon="2.0419178">
        <ele>149.0</ele>
        <time>2022-02-27T10:42:37Z</time>
      </trkpt>
      <trkpt lat="47.533195" lon="2.0419023">
        <ele>149.0</ele>
        <time>2022-02-27T10:42:38Z</time>
      </trkpt>
      <trkpt lat="47.533207" lon="2.0418882">
        <ele>150.0</ele>
        <time>2022-02-27T10:42:39Z</time>
      </trkpt>
      <trkpt lat="47.533215" lon="2.0418775">
        <ele>150.0</ele>
        <time>2022-02-27T10:42:40Z</time>
      </trkpt>
      <trkpt lat="47.53322" lon="2.041863">
        <ele>150.0</ele>
        <time>2022-02-27T10:42:41Z</time>
      </trkpt>
      <trkpt lat="47.533226" lon="2.0418472">
        <ele>149.0</ele>
        <time>2022-02-27T10:42:42Z</time>
      </trkpt>
      <trkpt lat="47.533234" lon="2.0418344">
        <ele>150.0</ele>
        <time>2022-02-27T10:42:43Z</time>
      </trkpt>
      <trkpt lat="47.533237" lon="2.0418155">
        <ele>150.0</ele>
        <time>2022-02-27T10:42:44Z</time>
      </trkpt>
      <trkpt lat="47.53325" lon="2.0417986">
        <ele>150.0</ele>
        <time>2022-02-27T10:42:45Z</time>
      </trkpt>
      <trkpt lat="47.533257" lon="2.04179">
        <ele>150.0</ele>
        <time>2022-02-27T10:42:46Z</time>
      </trkpt>
      <trkpt lat="47.53326" lon="2.0417783">
        <ele>150.0</ele>
        <time>2022-02-27T10:42:47Z</time>
      </trkpt>
      <trkpt lat="47.533264" lon="2.0417635">
        <ele>150.0</ele>
        <time>2022-02-27T10:42:48Z</time>
      </trkpt>
      <trkpt lat="47.53327" lon="2.041742">
        <ele>150.0</ele>
        <time>2022-02-27T10:42:49Z</time>
      </trkpt>
      <trkpt lat="47.53328" lon="2.041722">
        <ele>151.0</ele>
        <time>2022-02-27T10:42:50Z</time>
      </trkpt>
      <trkpt lat="47.533287" lon="2.041705">
        <ele>151.0</ele>
        <time>2022-02-27T10:42:51Z</time>
      </trkpt>
      <trkpt lat="47.533295" lon="2.0416865">
        <ele>152.0</ele>
        <time>2022-02-27T10:42:52Z</time>
      </trkpt>
      <trkpt lat="47.533302" lon="2.0416682">
        <ele>152.0</ele>
        <time>2022-02-27T10:42:53Z</time>
      </trkpt>
      <trkpt lat="47.53331" lon="2.0416532">
        <ele>153.0</ele>
        <time>2022-02-27T10:42:54Z</time>
      </trkpt>
      <trkpt lat="47.533318" lon="2.0416358">
        <ele>153.0</ele>
        <time>2022-02-27T10:42:55Z</time>
      </trkpt>
      <trkpt lat="47.533325" lon="2.041618">
        <ele>154.0</ele>
        <time>2022-02-27T10:42:56Z</time>
      </trkpt>
      <trkpt lat="47.533333" lon="2.0416028">
        <ele>154.0</ele>
        <time>2022-02-27T10:42:57Z</time>
      </trkpt>
      <trkpt lat="47.533337" lon="2.0415828">
        <ele>154.0</ele>
        <time>2022-02-27T10:42:58Z</time>
      </trkpt>
      <trkpt lat="47.533344" lon="2.0415664">
        <ele>154.0</ele>
        <time>2022-02-27T10:42:59Z</time>
      </trkpt>
      <trkpt lat="47.53335" lon="2.041549">
        <ele>154.0</ele>
        <time>2022-02-27T10:43:00Z</time>
      </trkpt>
      <trkpt lat="47.533356" lon="2.0415363">
        <ele>154.0</ele>
        <time>2022-02-27T10:43:01Z</time>
      </trkpt>
      <trkpt lat="47.53336" lon="2.041526">
        <ele>154.0</ele>
        <time>2022-02-27T10:43:02Z</time>
      </trkpt>
      <trkpt lat="47.533367" lon="2.041514">
        <ele>154.0</ele>
        <time>2022-02-27T10:43:03Z</time>
      </trkpt>
      <trkpt lat="47.533375" lon="2.041498">
        <ele>154.0</ele>
        <time>2022-02-27T10:43:04Z</time>
      </trkpt>
      <trkpt lat="47.53338" lon="2.0414815">
        <ele>154.0</ele>
        <time>2022-02-27T10:43:05Z</time>
      </trkpt>
      <trkpt lat="47.533382" lon="2.0414665">
        <ele>154.0</ele>
        <time>2022-02-27T10:43:06Z</time>
      </trkpt>
      <trkpt lat="47.53339" lon="2.0414517">
        <ele>154.0</ele>
        <time>2022-02-27T10:43:07Z</time>
      </trkpt>
      <trkpt lat="47.533398" lon="2.0414338">
        <ele>154.0</ele>
        <time>2022-02-27T10:43:08Z</time>
      </trkpt>
      <trkpt lat="47.533405" lon="2.0414166">
        <ele>154.0</ele>
        <time>2022-02-27T10:43:09Z</time>
      </trkpt>
      <trkpt lat="47.53341" lon="2.0414035">
        <ele>154.0</ele>
        <time>2022-02-27T10:43:10Z</time>
      </trkpt>
      <trkpt lat="47.533417" lon="2.0413914">
        <ele>153.0</ele>
        <time>2022-02-27T10:43:11Z</time>
      </trkpt>
      <trkpt lat="47.53342" lon="2.0413775">
        <ele>153.0</ele>
        <time>2022-02-27T10:43:12Z</time>
      </trkpt>
      <trkpt lat="47.53343" lon="2.041363">
        <ele>154.0</ele>
        <time>2022-02-27T10:43:13Z</time>
      </trkpt>
      <trkpt lat="47.533436" lon="2.041346">
        <ele>154.0</ele>
        <time>2022-02-27T10:43:14Z</time>
      </trkpt>
      <trkpt lat="47.533443" lon="2.0413337">
        <ele>153.0</ele>
        <time>2022-02-27T10:43:15Z</time>
      </trkpt>
      <trkpt lat="47.533447" lon="2.0413148">
        <ele>153.0</ele>
        <time>2022-02-27T10:43:16Z</time>
      </trkpt>
      <trkpt lat="47.53345" lon="2.0412993">
        <ele>153.0</ele>
        <time>2022-02-27T10:43:17Z</time>
      </trkpt>
      <trkpt lat="47.533455" lon="2.0412908">
        <ele>153.0</ele>
        <time>2022-02-27T10:43:18Z</time>
      </trkpt>
      <trkpt lat="47.533463" lon="2.0412831">
        <ele>153.0</ele>
        <time>2022-02-27T10:43:19Z</time>
      </trkpt>
      <trkpt lat="47.533466" lon="2.041268">
        <ele>153.0</ele>
        <time>2022-02-27T10:43:20Z</time>
      </trkpt>
      <trkpt lat="47.533474" lon="2.0412536">
        <ele>153.0</ele>
        <time>2022-02-27T10:43:21Z</time>
      </trkpt>
      <trkpt lat="47.533478" lon="2.0412414">
        <ele>153.0</ele>
        <time>2022-02-27T10:43:22Z</time>
      </trkpt>
      <trkpt lat="47.533485" lon="2.0412238">
        <ele>153.0</ele>
        <time>2022-02-27T10:43:23Z</time>
      </trkpt>
      <trkpt lat="47.53349" lon="2.0412118">
        <ele>153.0</ele>
        <time>2022-02-27T10:43:24Z</time>
      </trkpt>
      <trkpt lat="47.533497" lon="2.0411937">
        <ele>153.0</ele>
        <time>2022-02-27T10:43:25Z</time>
      </trkpt>
      <trkpt lat="47.533504" lon="2.0411797">
        <ele>152.0</ele>
        <time>2022-02-27T10:43:26Z</time>
      </trkpt>
      <trkpt lat="47.533512" lon="2.041168">
        <ele>152.0</ele>
        <time>2022-02-27T10:43:27Z</time>
      </trkpt>
      <trkpt lat="47.533516" lon="2.041155">
        <ele>152.0</ele>
        <time>2022-02-27T10:43:28Z</time>
      </trkpt>
      <trkpt lat="47.533524" lon="2.0411384">
        <ele>152.0</ele>
        <time>2022-02-27T10:43:29Z</time>
      </trkpt>
      <trkpt lat="47.533527" lon="2.0411277">
        <ele>151.0</ele>
        <time>2022-02-27T10:43:30Z</time>
      </trkpt>
      <trkpt lat="47.533535" lon="2.041117">
        <ele>152.0</ele>
        <time>2022-02-27T10:43:31Z</time>
      </trkpt>
      <trkpt lat="47.533546" lon="2.0410995">
        <ele>152.0</ele>
        <time>2022-02-27T10:43:32Z</time>
      </trkpt>
      <trkpt lat="47.533554" lon="2.0410879">
        <ele>152.0</ele>
        <time>2022-02-27T10:43:33Z</time>
      </trkpt>
      <trkpt lat="47.533558" lon="2.0410771">
        <ele>152.0</ele>
        <time>2022-02-27T10:43:34Z</time>
      </trkpt>
      <trkpt lat="47.533566" lon="2.0410657">
        <ele>152.0</ele>
        <time>2022-02-27T10:43:35Z</time>
      </trkpt>
      <trkpt lat="47.53357" lon="2.0410552">
        <ele>152.0</ele>
        <time>2022-02-27T10:43:36Z</time>
      </trkpt>
      <trkpt lat="47.53358" lon="2.0410373">
        <ele>152.0</ele>
        <time>2022-02-27T10:43:37Z</time>
      </trkpt>
      <trkpt lat="47.53359" lon="2.04102">
        <ele>152.0</ele>
        <time>2022-02-27T10:43:38Z</time>
      </trkpt>
      <trkpt lat="47.533596" lon="2.0410068">
        <ele>152.0</ele>
        <time>2022-02-27T10:43:39Z</time>
      </trkpt>
      <trkpt lat="47.533604" lon="2.040993">
        <ele>152.0</ele>
        <time>2022-02-27T10:43:40Z</time>
      </trkpt>
      <trkpt lat="47.53361" lon="2.0409765">
        <ele>152.0</ele>
        <time>2022-02-27T10:43:41Z</time>
      </trkpt>
      <trkpt lat="47.53361" lon="2.040963">
        <ele>152.0</ele>
        <time>2022-02-27T10:43:42Z</time>
      </trkpt>
      <trkpt lat="47.53362" lon="2.0409482">
        <ele>152.0</ele>
        <time>2022-02-27T10:43:43Z</time>
      </trkpt>
      <trkpt lat="47.533623" lon="2.040938">
        <ele>152.0</ele>
        <time>2022-02-27T10:43:44Z</time>
      </trkpt>
      <trkpt lat="47.53363" lon="2.0409245">
        <ele>152.0</ele>
        <time>2022-02-27T10:43:45Z</time>
      </trkpt>
      <trkpt lat="47.533634" lon="2.0409129">
        <ele>152.0</ele>
        <time>2022-02-27T10:43:46Z</time>
      </trkpt>
      <trkpt lat="47.53364" lon="2.0409021">
        <ele>152.0</ele>
        <time>2022-02-27T10:43:47Z</time>
      </trkpt>
      <trkpt lat="47.533646" lon="2.040892">
        <ele>152.0</ele>
        <time>2022-02-27T10:43:48Z</time>
      </trkpt>
      <trkpt lat="47.53365" lon="2.040882">
        <ele>152.0</ele>
        <time>2022-02-27T10:43:49Z</time>
      </trkpt>
      <trkpt lat="47.533657" lon="2.0408711">
        <ele>152.0</ele>
        <time>2022-02-27T10:43:50Z</time>
      </trkpt>
      <trkpt lat="47.533665" lon="2.0408616">
        <ele>153.0</ele>
        <time>2022-02-27T10:43:51Z</time>
      </trkpt>
      <trkpt lat="47.53367" lon="2.0408516">
        <ele>153.0</ele>
        <time>2022-02-27T10:43:52Z</time>
      </trkpt>
      <trkpt lat="47.533676" lon="2.040842">
        <ele>153.0</ele>
        <time>2022-02-27T10:43:53Z</time>
      </trkpt>
      <trkpt lat="47.533684" lon="2.0408301">
        <ele>153.0</ele>
        <time>2022-02-27T10:43:54Z</time>
      </trkpt>
      <trkpt lat="47.533688" lon="2.0408149">
        <ele>154.0</ele>
        <time>2022-02-27T10:43:55Z</time>
      </trkpt>
      <trkpt lat="47.5337" lon="2.0407977">
        <ele>154.0</ele>
        <time>2022-02-27T10:43:56Z</time>
      </trkpt>
      <trkpt lat="47.53371" lon="2.0407825">
        <ele>153.0</ele>
        <time>2022-02-27T10:43:57Z</time>
      </trkpt>
      <trkpt lat="47.53372" lon="2.0407615">
        <ele>153.0</ele>
        <time>2022-02-27T10:43:58Z</time>
      </trkpt>
      <trkpt lat="47.533726" lon="2.0407445">
        <ele>153.0</ele>
        <time>2022-02-27T10:43:59Z</time>
      </trkpt>
      <trkpt lat="47.53373" lon="2.0407312">
        <ele>154.0</ele>
        <time>2022-02-27T10:44:00Z</time>
      </trkpt>
      <trkpt lat="47.533733" lon="2.0407143">
        <ele>154.0</ele>
        <time>2022-02-27T10:44:01Z</time>
      </trkpt>
      <trkpt lat="47.53374" lon="2.0407023">
        <ele>154.0</ele>
        <time>2022-02-27T10:44:02Z</time>
      </trkpt>
      <trkpt lat="47.53375" lon="2.0406833">
        <ele>154.0</ele>
        <time>2022-02-27T10:44:03Z</time>
      </trkpt>
      <trkpt lat="47.533756" lon="2.0406663">
        <ele>155.0</ele>
        <time>2022-02-27T10:44:04Z</time>
      </trkpt>
      <trkpt lat="47.533764" lon="2.0406528">
        <ele>155.0</ele>
        <time>2022-02-27T10:44:05Z</time>
      </trkpt>
      <trkpt lat="47.53377" lon="2.0406408">
        <ele>155.0</ele>
        <time>2022-02-27T10:44:06Z</time>
      </trkpt>
      <trkpt lat="47.53378" lon="2.0406241">
        <ele>155.0</ele>
        <time>2022-02-27T10:44:07Z</time>
      </trkpt>
      <trkpt lat="47.533783" lon="2.0406077">
        <ele>155.0</ele>
        <time>2022-02-27T10:44:08Z</time>
      </trkpt>
      <trkpt lat="47.533787" lon="2.0405903">
        <ele>155.0</ele>
        <time>2022-02-27T10:44:09Z</time>
      </trkpt>
      <trkpt lat="47.533794" lon="2.0405748">
        <ele>155.0</ele>
        <time>2022-02-27T10:44:10Z</time>
      </trkpt>
      <trkpt lat="47.533806" lon="2.0405538">
        <ele>155.0</ele>
        <time>2022-02-27T10:44:11Z</time>
      </trkpt>
      <trkpt lat="47.533813" lon="2.0405421">
        <ele>155.0</ele>
        <time>2022-02-27T10:44:12Z</time>
      </trkpt>
      <trkpt lat="47.533817" lon="2.0405273">
        <ele>155.0</ele>
        <time>2022-02-27T10:44:13Z</time>
      </trkpt>
      <trkpt lat="47.533825" lon="2.0405126">
        <ele>155.0</ele>
        <time>2022-02-27T10:44:14Z</time>
      </trkpt>
      <trkpt lat="47.53383" lon="2.0404947">
        <ele>155.0</ele>
        <time>2022-02-27T10:44:15Z</time>
      </trkpt>
      <trkpt lat="47.53384" lon="2.0404787">
        <ele>156.0</ele>
        <time>2022-02-27T10:44:16Z</time>
      </trkpt>
      <trkpt lat="47.533844" lon="2.0404572">
        <ele>156.0</ele>
        <time>2022-02-27T10:44:17Z</time>
      </trkpt>
      <trkpt lat="47.53385" lon="2.0404363">
        <ele>155.0</ele>
        <time>2022-02-27T10:44:18Z</time>
      </trkpt>
      <trkpt lat="47.53386" lon="2.040421">
        <ele>155.0</ele>
        <time>2022-02-27T10:44:19Z</time>
      </trkpt>
      <trkpt lat="47.533867" lon="2.040404">
        <ele>155.0</ele>
        <time>2022-02-27T10:44:20Z</time>
      </trkpt>
      <trkpt lat="47.53387" lon="2.0403872">
        <ele>155.0</ele>
        <time>2022-02-27T10:44:21Z</time>
      </trkpt>
      <trkpt lat="47.533875" lon="2.0403664">
        <ele>156.0</ele>
        <time>2022-02-27T10:44:22Z</time>
      </trkpt>
      <trkpt lat="47.533882" lon="2.0403469">
        <ele>156.0</ele>
        <time>2022-02-27T10:44:23Z</time>
      </trkpt>
      <trkpt lat="47.533882" lon="2.0403287">
        <ele>157.0</ele>
        <time>2022-02-27T10:44:24Z</time>
      </trkpt>
      <trkpt lat="47.53389" lon="2.040314">
        <ele>157.0</ele>
        <time>2022-02-27T10:44:25Z</time>
      </trkpt>
      <trkpt lat="47.533897" lon="2.0403004">
        <ele>157.0</ele>
        <time>2022-02-27T10:44:26Z</time>
      </trkpt>
      <trkpt lat="47.533905" lon="2.0402908">
        <ele>157.0</ele>
        <time>2022-02-27T10:44:27Z</time>
      </trkpt>
      <trkpt lat="47.533913" lon="2.0402753">
        <ele>157.0</ele>
        <time>2022-02-27T10:44:28Z</time>
      </trkpt>
      <trkpt lat="47.53392" lon="2.0402594">
        <ele>157.0</ele>
        <time>2022-02-27T10:44:29Z</time>
      </trkpt>
      <trkpt lat="47.533928" lon="2.040251">
        <ele>158.0</ele>
        <time>2022-02-27T10:44:30Z</time>
      </trkpt>
      <trkpt lat="47.53393" lon="2.0402358">
        <ele>157.0</ele>
        <time>2022-02-27T10:44:31Z</time>
      </trkpt>
      <trkpt lat="47.53394" lon="2.040222">
        <ele>157.0</ele>
        <time>2022-02-27T10:44:32Z</time>
      </trkpt>
      <trkpt lat="47.533943" lon="2.0402052">
        <ele>157.0</ele>
        <time>2022-02-27T10:44:33Z</time>
      </trkpt>
      <trkpt lat="47.533947" lon="2.040186">
        <ele>157.0</ele>
        <time>2022-02-27T10:44:34Z</time>
      </trkpt>
      <trkpt lat="47.533955" lon="2.0401697">
        <ele>157.0</ele>
        <time>2022-02-27T10:44:35Z</time>
      </trkpt>
      <trkpt lat="47.53396" lon="2.0401592">
        <ele>157.0</ele>
        <time>2022-02-27T10:44:36Z</time>
      </trkpt>
      <trkpt lat="47.533962" lon="2.0401475">
        <ele>157.0</ele>
        <time>2022-02-27T10:44:37Z</time>
      </trkpt>
      <trkpt lat="47.533962" lon="2.0401342">
        <ele>157.0</ele>
        <time>2022-02-27T10:44:38Z</time>
      </trkpt>
      <trkpt lat="47.53397" lon="2.0401154">
        <ele>157.0</ele>
        <time>2022-02-27T10:44:39Z</time>
      </trkpt>
      <trkpt lat="47.533978" lon="2.0400994">
        <ele>157.0</ele>
        <time>2022-02-27T10:44:40Z</time>
      </trkpt>
      <trkpt lat="47.533985" lon="2.0400848">
        <ele>157.0</ele>
        <time>2022-02-27T10:44:41Z</time>
      </trkpt>
      <trkpt lat="47.533993" lon="2.040071">
        <ele>158.0</ele>
        <time>2022-02-27T10:44:42Z</time>
      </trkpt>
      <trkpt lat="47.533997" lon="2.0400558">
        <ele>158.0</ele>
        <time>2022-02-27T10:44:43Z</time>
      </trkpt>
      <trkpt lat="47.534004" lon="2.0400376">
        <ele>158.0</ele>
        <time>2022-02-27T10:44:44Z</time>
      </trkpt>
      <trkpt lat="47.53401" lon="2.040019">
        <ele>158.0</ele>
        <time>2022-02-27T10:44:45Z</time>
      </trkpt>
      <trkpt lat="47.53402" lon="2.0400102">
        <ele>158.0</ele>
        <time>2022-02-27T10:44:46Z</time>
      </trkpt>
      <trkpt lat="47.534027" lon="2.0399973">
        <ele>158.0</ele>
        <time>2022-02-27T10:44:47Z</time>
      </trkpt>
      <trkpt lat="47.53403" lon="2.0399826">
        <ele>157.0</ele>
        <time>2022-02-27T10:44:48Z</time>
      </trkpt>
      <trkpt lat="47.53404" lon="2.0399725">
        <ele>157.0</ele>
        <time>2022-02-27T10:44:49Z</time>
      </trkpt>
      <trkpt lat="47.534046" lon="2.0399544">
        <ele>157.0</ele>
        <time>2022-02-27T10:44:50Z</time>
      </trkpt>
      <trkpt lat="47.53405" lon="2.039939">
        <ele>157.0</ele>
        <time>2022-02-27T10:44:51Z</time>
      </trkpt>
      <trkpt lat="47.534054" lon="2.0399218">
        <ele>157.0</ele>
        <time>2022-02-27T10:44:52Z</time>
      </trkpt>
      <trkpt lat="47.534058" lon="2.0399046">
        <ele>157.0</ele>
        <time>2022-02-27T10:44:53Z</time>
      </trkpt>
      <trkpt lat="47.534065" lon="2.0398862">
        <ele>157.0</ele>
        <time>2022-02-27T10:44:54Z</time>
      </trkpt>
      <trkpt lat="47.53407" lon="2.0398707">
        <ele>157.0</ele>
        <time>2022-02-27T10:44:55Z</time>
      </trkpt>
      <trkpt lat="47.534077" lon="2.0398562">
        <ele>157.0</ele>
        <time>2022-02-27T10:44:56Z</time>
      </trkpt>
      <trkpt lat="47.534084" lon="2.0398405">
        <ele>157.0</ele>
        <time>2022-02-27T10:44:57Z</time>
      </trkpt>
      <trkpt lat="47.53409" lon="2.039824">
        <ele>157.0</ele>
        <time>2022-02-27T10:44:58Z</time>
      </trkpt>
      <trkpt lat="47.534096" lon="2.0398037">
        <ele>157.0</ele>
        <time>2022-02-27T10:44:59Z</time>
      </trkpt>
      <trkpt lat="47.5341" lon="2.0397844">
        <ele>157.0</ele>
        <time>2022-02-27T10:45:00Z</time>
      </trkpt>
      <trkpt lat="47.534107" lon="2.0397685">
        <ele>157.0</ele>
        <time>2022-02-27T10:45:01Z</time>
      </trkpt>
      <trkpt lat="47.534115" lon="2.0397563">
        <ele>157.0</ele>
        <time>2022-02-27T10:45:02Z</time>
      </trkpt>
      <trkpt lat="47.534122" lon="2.0397425">
        <ele>157.0</ele>
        <time>2022-02-27T10:45:03Z</time>
      </trkpt>
      <trkpt lat="47.534134" lon="2.0397294">
        <ele>157.0</ele>
        <time>2022-02-27T10:45:04Z</time>
      </trkpt>
      <trkpt lat="47.53414" lon="2.0397224">
        <ele>157.0</ele>
        <time>2022-02-27T10:45:05Z</time>
      </trkpt>
      <trkpt lat="47.534145" lon="2.0397122">
        <ele>157.0</ele>
        <time>2022-02-27T10:45:06Z</time>
      </trkpt>
      <trkpt lat="47.534153" lon="2.0397027">
        <ele>157.0</ele>
        <time>2022-02-27T10:45:07Z</time>
      </trkpt>
      <trkpt lat="47.53416" lon="2.0396826">
        <ele>157.0</ele>
        <time>2022-02-27T10:45:08Z</time>
      </trkpt>
      <trkpt lat="47.534164" lon="2.0396683">
        <ele>157.0</ele>
        <time>2022-02-27T10:45:09Z</time>
      </trkpt>
      <trkpt lat="47.534172" lon="2.0396576">
        <ele>157.0</ele>
        <time>2022-02-27T10:45:10Z</time>
      </trkpt>
      <trkpt lat="47.534176" lon="2.0396426">
        <ele>157.0</ele>
        <time>2022-02-27T10:45:11Z</time>
      </trkpt>
      <trkpt lat="47.534184" lon="2.0396287">
        <ele>157.0</ele>
        <time>2022-02-27T10:45:12Z</time>
      </trkpt>
      <trkpt lat="47.53419" lon="2.0396183">
        <ele>157.0</ele>
        <time>2022-02-27T10:45:13Z</time>
      </trkpt>
      <trkpt lat="47.5342" lon="2.0395985">
        <ele>157.0</ele>
        <time>2022-02-27T10:45:14Z</time>
      </trkpt>
      <trkpt lat="47.534206" lon="2.0395815">
        <ele>157.0</ele>
        <time>2022-02-27T10:45:15Z</time>
      </trkpt>
      <trkpt lat="47.534218" lon="2.0395658">
        <ele>157.0</ele>
        <time>2022-02-27T10:45:16Z</time>
      </trkpt>
      <trkpt lat="47.534225" lon="2.0395474">
        <ele>157.0</ele>
        <time>2022-02-27T10:45:17Z</time>
      </trkpt>
      <trkpt lat="47.534233" lon="2.0395286">
        <ele>157.0</ele>
        <time>2022-02-27T10:45:18Z</time>
      </trkpt>
      <trkpt lat="47.53424" lon="2.0395148">
        <ele>157.0</ele>
        <time>2022-02-27T10:45:19Z</time>
      </trkpt>
      <trkpt lat="47.534252" lon="2.039494">
        <ele>156.0</ele>
        <time>2022-02-27T10:45:20Z</time>
      </trkpt>
      <trkpt lat="47.53426" lon="2.0394804">
        <ele>156.0</ele>
        <time>2022-02-27T10:45:21Z</time>
      </trkpt>
      <trkpt lat="47.53427" lon="2.039464">
        <ele>156.0</ele>
        <time>2022-02-27T10:45:22Z</time>
      </trkpt>
      <trkpt lat="47.534283" lon="2.0394502">
        <ele>156.0</ele>
        <time>2022-02-27T10:45:23Z</time>
      </trkpt>
      <trkpt lat="47.53429" lon="2.0394382">
        <ele>156.0</ele>
        <time>2022-02-27T10:45:24Z</time>
      </trkpt>
      <trkpt lat="47.534298" lon="2.0394247">
        <ele>156.0</ele>
        <time>2022-02-27T10:45:25Z</time>
      </trkpt>
      <trkpt lat="47.534306" lon="2.0394082">
        <ele>156.0</ele>
        <time>2022-02-27T10:45:26Z</time>
      </trkpt>
      <trkpt lat="47.534313" lon="2.0393903">
        <ele>156.0</ele>
        <time>2022-02-27T10:45:27Z</time>
      </trkpt>
      <trkpt lat="47.534313" lon="2.0393715">
        <ele>156.0</ele>
        <time>2022-02-27T10:45:28Z</time>
      </trkpt>
      <trkpt lat="47.534317" lon="2.039354">
        <ele>157.0</ele>
        <time>2022-02-27T10:45:29Z</time>
      </trkpt>
      <trkpt lat="47.534325" lon="2.039338">
        <ele>157.0</ele>
        <time>2022-02-27T10:45:30Z</time>
      </trkpt>
      <trkpt lat="47.534325" lon="2.0393171">
        <ele>157.0</ele>
        <time>2022-02-27T10:45:31Z</time>
      </trkpt>
      <trkpt lat="47.534332" lon="2.0392995">
        <ele>157.0</ele>
        <time>2022-02-27T10:45:32Z</time>
      </trkpt>
      <trkpt lat="47.534336" lon="2.0392811">
        <ele>157.0</ele>
        <time>2022-02-27T10:45:33Z</time>
      </trkpt>
      <trkpt lat="47.534344" lon="2.0392635">
        <ele>157.0</ele>
        <time>2022-02-27T10:45:34Z</time>
      </trkpt>
      <trkpt lat="47.53435" lon="2.0392532">
        <ele>157.0</ele>
        <time>2022-02-27T10:45:35Z</time>
      </trkpt>
      <trkpt lat="47.53436" lon="2.0392375">
        <ele>157.0</ele>
        <time>2022-02-27T10:45:36Z</time>
      </trkpt>
      <trkpt lat="47.534367" lon="2.0392241">
        <ele>157.0</ele>
        <time>2022-02-27T10:45:37Z</time>
      </trkpt>
      <trkpt lat="47.534374" lon="2.0392103">
        <ele>157.0</ele>
        <time>2022-02-27T10:45:38Z</time>
      </trkpt>
      <trkpt lat="47.53438" lon="2.0391958">
        <ele>156.0</ele>
        <time>2022-02-27T10:45:39Z</time>
      </trkpt>
      <trkpt lat="47.534386" lon="2.039178">
        <ele>156.0</ele>
        <time>2022-02-27T10:45:40Z</time>
      </trkpt>
      <trkpt lat="47.534386" lon="2.0391617">
        <ele>156.0</ele>
        <time>2022-02-27T10:45:41Z</time>
      </trkpt>
      <trkpt lat="47.53439" lon="2.0391467">
        <ele>157.0</ele>
        <time>2022-02-27T10:45:42Z</time>
      </trkpt>
      <trkpt lat="47.534393" lon="2.0391278">
        <ele>157.0</ele>
        <time>2022-02-27T10:45:43Z</time>
      </trkpt>
      <trkpt lat="47.534397" lon="2.039113">
        <ele>157.0</ele>
        <time>2022-02-27T10:45:44Z</time>
      </trkpt>
      <trkpt lat="47.5344" lon="2.0390985">
        <ele>157.0</ele>
        <time>2022-02-27T10:45:45Z</time>
      </trkpt>
      <trkpt lat="47.53441" lon="2.039076">
        <ele>157.0</ele>
        <time>2022-02-27T10:45:46Z</time>
      </trkpt>
      <trkpt lat="47.534416" lon="2.0390558">
        <ele>157.0</ele>
        <time>2022-02-27T10:45:47Z</time>
      </trkpt>
      <trkpt lat="47.534424" lon="2.0390394">
        <ele>157.0</ele>
        <time>2022-02-27T10:45:48Z</time>
      </trkpt>
      <trkpt lat="47.53443" lon="2.0390255">
        <ele>157.0</ele>
        <time>2022-02-27T10:45:49Z</time>
      </trkpt>
      <trkpt lat="47.534435" lon="2.039011">
        <ele>157.0</ele>
        <time>2022-02-27T10:45:50Z</time>
      </trkpt>
      <trkpt lat="47.534443" lon="2.0389917">
        <ele>157.0</ele>
        <time>2022-02-27T10:45:51Z</time>
      </trkpt>
      <trkpt lat="47.53445" lon="2.0389721">
        <ele>157.0</ele>
        <time>2022-02-27T10:45:52Z</time>
      </trkpt>
      <trkpt lat="47.534454" lon="2.0389621">
        <ele>157.0</ele>
        <time>2022-02-27T10:45:53Z</time>
      </trkpt>
      <trkpt lat="47.534454" lon="2.038954">
        <ele>158.0</ele>
        <time>2022-02-27T10:45:54Z</time>
      </trkpt>
      <trkpt lat="47.534462" lon="2.038938">
        <ele>158.0</ele>
        <time>2022-02-27T10:45:55Z</time>
      </trkpt>
      <trkpt lat="47.53447" lon="2.0389235">
        <ele>158.0</ele>
        <time>2022-02-27T10:45:56Z</time>
      </trkpt>
      <trkpt lat="47.534477" lon="2.0389054">
        <ele>158.0</ele>
        <time>2022-02-27T10:45:57Z</time>
      </trkpt>
      <trkpt lat="47.53448" lon="2.0388896">
        <ele>158.0</ele>
        <time>2022-02-27T10:45:58Z</time>
      </trkpt>
      <trkpt lat="47.53449" lon="2.0388732">
        <ele>158.0</ele>
        <time>2022-02-27T10:45:59Z</time>
      </trkpt>
      <trkpt lat="47.534496" lon="2.0388558">
        <ele>157.0</ele>
        <time>2022-02-27T10:46:00Z</time>
      </trkpt>
      <trkpt lat="47.534504" lon="2.0388384">
        <ele>157.0</ele>
        <time>2022-02-27T10:46:01Z</time>
      </trkpt>
      <trkpt lat="47.534508" lon="2.0388243">
        <ele>157.0</ele>
        <time>2022-02-27T10:46:02Z</time>
      </trkpt>
      <trkpt lat="47.534515" lon="2.0388074">
        <ele>157.0</ele>
        <time>2022-02-27T10:46:03Z</time>
      </trkpt>
      <trkpt lat="47.534523" lon="2.038797">
        <ele>157.0</ele>
        <time>2022-02-27T10:46:04Z</time>
      </trkpt>
      <trkpt lat="47.53453" lon="2.0387878">
        <ele>158.0</ele>
        <time>2022-02-27T10:46:05Z</time>
      </trkpt>
      <trkpt lat="47.53454" lon="2.0387754">
        <ele>157.0</ele>
        <time>2022-02-27T10:46:06Z</time>
      </trkpt>
      <trkpt lat="47.534546" lon="2.0387595">
        <ele>157.0</ele>
        <time>2022-02-27T10:46:07Z</time>
      </trkpt>
      <trkpt lat="47.534554" lon="2.038746">
        <ele>158.0</ele>
        <time>2022-02-27T10:46:08Z</time>
      </trkpt>
      <trkpt lat="47.53456" lon="2.0387368">
        <ele>158.0</ele>
        <time>2022-02-27T10:46:09Z</time>
      </trkpt>
      <trkpt lat="47.534565" lon="2.0387278">
        <ele>158.0</ele>
        <time>2022-02-27T10:46:10Z</time>
      </trkpt>
      <trkpt lat="47.53457" lon="2.0387175">
        <ele>158.0</ele>
        <time>2022-02-27T10:46:11Z</time>
      </trkpt>
      <trkpt lat="47.534576" lon="2.0386999">
        <ele>157.0</ele>
        <time>2022-02-27T10:46:12Z</time>
      </trkpt>
      <trkpt lat="47.53458" lon="2.038682">
        <ele>157.0</ele>
        <time>2022-02-27T10:46:13Z</time>
      </trkpt>
      <trkpt lat="47.534588" lon="2.0386667">
        <ele>157.0</ele>
        <time>2022-02-27T10:46:14Z</time>
      </trkpt>
      <trkpt lat="47.534595" lon="2.0386553">
        <ele>157.0</ele>
        <time>2022-02-27T10:46:15Z</time>
      </trkpt>
      <trkpt lat="47.5346" lon="2.0386355">
        <ele>157.0</ele>
        <time>2022-02-27T10:46:16Z</time>
      </trkpt>
      <trkpt lat="47.534603" lon="2.0386138">
        <ele>157.0</ele>
        <time>2022-02-27T10:46:17Z</time>
      </trkpt>
      <trkpt lat="47.534607" lon="2.0385938">
        <ele>157.0</ele>
        <time>2022-02-27T10:46:18Z</time>
      </trkpt>
      <trkpt lat="47.534615" lon="2.038573">
        <ele>157.0</ele>
        <time>2022-02-27T10:46:19Z</time>
      </trkpt>
      <trkpt lat="47.534622" lon="2.038555">
        <ele>157.0</ele>
        <time>2022-02-27T10:46:20Z</time>
      </trkpt>
      <trkpt lat="47.53463" lon="2.038542">
        <ele>157.0</ele>
        <time>2022-02-27T10:46:21Z</time>
      </trkpt>
      <trkpt lat="47.534637" lon="2.0385263">
        <ele>157.0</ele>
        <time>2022-02-27T10:46:22Z</time>
      </trkpt>
      <trkpt lat="47.534645" lon="2.0385082">
        <ele>157.0</ele>
        <time>2022-02-27T10:46:23Z</time>
      </trkpt>
      <trkpt lat="47.534653" lon="2.0384958">
        <ele>158.0</ele>
        <time>2022-02-27T10:46:24Z</time>
      </trkpt>
      <trkpt lat="47.534657" lon="2.038482">
        <ele>158.0</ele>
        <time>2022-02-27T10:46:25Z</time>
      </trkpt>
      <trkpt lat="47.534664" lon="2.0384665">
        <ele>158.0</ele>
        <time>2022-02-27T10:46:26Z</time>
      </trkpt>
      <trkpt lat="47.53467" lon="2.0384479">
        <ele>158.0</ele>
        <time>2022-02-27T10:46:27Z</time>
      </trkpt>
      <trkpt lat="47.53468" lon="2.0384355">
        <ele>158.0</ele>
        <time>2022-02-27T10:46:28Z</time>
      </trkpt>
      <trkpt lat="47.534687" lon="2.0384195">
        <ele>158.0</ele>
        <time>2022-02-27T10:46:29Z</time>
      </trkpt>
      <trkpt lat="47.534695" lon="2.038405">
        <ele>158.0</ele>
        <time>2022-02-27T10:46:30Z</time>
      </trkpt>
      <trkpt lat="47.534702" lon="2.038394">
        <ele>158.0</ele>
        <time>2022-02-27T10:46:31Z</time>
      </trkpt>
      <trkpt lat="47.53471" lon="2.0383828">
        <ele>158.0</ele>
        <time>2022-02-27T10:46:32Z</time>
      </trkpt>
      <trkpt lat="47.534718" lon="2.0383644">
        <ele>158.0</ele>
        <time>2022-02-27T10:46:33Z</time>
      </trkpt>
      <trkpt lat="47.534725" lon="2.038352">
        <ele>157.0</ele>
        <time>2022-02-27T10:46:34Z</time>
      </trkpt>
      <trkpt lat="47.534733" lon="2.0383441">
        <ele>156.0</ele>
        <time>2022-02-27T10:46:35Z</time>
      </trkpt>
      <trkpt lat="47.534737" lon="2.0383308">
        <ele>156.0</ele>
        <time>2022-02-27T10:46:36Z</time>
      </trkpt>
      <trkpt lat="47.534744" lon="2.0383177">
        <ele>156.0</ele>
        <time>2022-02-27T10:46:37Z</time>
      </trkpt>
      <trkpt lat="47.53475" lon="2.038304">
        <ele>156.0</ele>
        <time>2022-02-27T10:46:38Z</time>
      </trkpt>
      <trkpt lat="47.53476" lon="2.0382907">
        <ele>155.0</ele>
        <time>2022-02-27T10:46:39Z</time>
      </trkpt>
      <trkpt lat="47.534767" lon="2.0382786">
        <ele>156.0</ele>
        <time>2022-02-27T10:46:40Z</time>
      </trkpt>
      <trkpt lat="47.53478" lon="2.0382655">
        <ele>156.0</ele>
        <time>2022-02-27T10:46:41Z</time>
      </trkpt>
      <trkpt lat="47.534786" lon="2.0382566">
        <ele>156.0</ele>
        <time>2022-02-27T10:46:42Z</time>
      </trkpt>
      <trkpt lat="47.534798" lon="2.0382435">
        <ele>156.0</ele>
        <time>2022-02-27T10:46:43Z</time>
      </trkpt>
      <trkpt lat="47.53481" lon="2.0382318">
        <ele>156.0</ele>
        <time>2022-02-27T10:46:44Z</time>
      </trkpt>
      <trkpt lat="47.534817" lon="2.0382228">
        <ele>156.0</ele>
        <time>2022-02-27T10:46:45Z</time>
      </trkpt>
      <trkpt lat="47.53483" lon="2.038207">
        <ele>156.0</ele>
        <time>2022-02-27T10:46:46Z</time>
      </trkpt>
      <trkpt lat="47.534836" lon="2.038192">
        <ele>155.0</ele>
        <time>2022-02-27T10:46:47Z</time>
      </trkpt>
      <trkpt lat="47.534847" lon="2.0381844">
        <ele>155.0</ele>
        <time>2022-02-27T10:46:48Z</time>
      </trkpt>
      <trkpt lat="47.534855" lon="2.0381734">
        <ele>155.0</ele>
        <time>2022-02-27T10:46:49Z</time>
      </trkpt>
      <trkpt lat="47.534866" lon="2.038165">
        <ele>154.0</ele>
        <time>2022-02-27T10:46:50Z</time>
      </trkpt>
      <trkpt lat="47.534878" lon="2.0381532">
        <ele>154.0</ele>
        <time>2022-02-27T10:46:51Z</time>
      </trkpt>
      <trkpt lat="47.534885" lon="2.0381463">
        <ele>154.0</ele>
        <time>2022-02-27T10:46:52Z</time>
      </trkpt>
      <trkpt lat="47.534897" lon="2.03814">
        <ele>154.0</ele>
        <time>2022-02-27T10:46:53Z</time>
      </trkpt>
      <trkpt lat="47.53491" lon="2.0381353">
        <ele>153.0</ele>
        <time>2022-02-27T10:46:54Z</time>
      </trkpt>
      <trkpt lat="47.53492" lon="2.0381234">
        <ele>153.0</ele>
        <time>2022-02-27T10:46:55Z</time>
      </trkpt>
      <trkpt lat="47.534927" lon="2.038114">
        <ele>153.0</ele>
        <time>2022-02-27T10:46:56Z</time>
      </trkpt>
      <trkpt lat="47.534935" lon="2.038106">
        <ele>153.0</ele>
        <time>2022-02-27T10:46:57Z</time>
      </trkpt>
      <trkpt lat="47.534946" lon="2.0381005">
        <ele>153.0</ele>
        <time>2022-02-27T10:46:58Z</time>
      </trkpt>
      <trkpt lat="47.534954" lon="2.0380955">
        <ele>153.0</ele>
        <time>2022-02-27T10:46:59Z</time>
      </trkpt>
      <trkpt lat="47.53496" lon="2.0380898">
        <ele>153.0</ele>
        <time>2022-02-27T10:47:00Z</time>
      </trkpt>
      <trkpt lat="47.534973" lon="2.0380838">
        <ele>153.0</ele>
        <time>2022-02-27T10:47:01Z</time>
      </trkpt>
      <trkpt lat="47.534985" lon="2.0380757">
        <ele>152.0</ele>
        <time>2022-02-27T10:47:02Z</time>
      </trkpt>
      <trkpt lat="47.534996" lon="2.0380673">
        <ele>152.0</ele>
        <time>2022-02-27T10:47:03Z</time>
      </trkpt>
      <trkpt lat="47.535004" lon="2.03806">
        <ele>152.0</ele>
        <time>2022-02-27T10:47:04Z</time>
      </trkpt>
      <trkpt lat="47.535015" lon="2.0380561">
        <ele>152.0</ele>
        <time>2022-02-27T10:47:05Z</time>
      </trkpt>
      <trkpt lat="47.535027" lon="2.0380523">
        <ele>152.0</ele>
        <time>2022-02-27T10:47:06Z</time>
      </trkpt>
      <trkpt lat="47.535038" lon="2.0380497">
        <ele>151.0</ele>
        <time>2022-02-27T10:47:07Z</time>
      </trkpt>
      <trkpt lat="47.535046" lon="2.0380478">
        <ele>151.0</ele>
        <time>2022-02-27T10:47:08Z</time>
      </trkpt>
      <trkpt lat="47.535057" lon="2.0380368">
        <ele>151.0</ele>
        <time>2022-02-27T10:47:09Z</time>
      </trkpt>
      <trkpt lat="47.53507" lon="2.0380301">
        <ele>151.0</ele>
        <time>2022-02-27T10:47:10Z</time>
      </trkpt>
      <trkpt lat="47.535084" lon="2.0380332">
        <ele>150.0</ele>
        <time>2022-02-27T10:47:11Z</time>
      </trkpt>
      <trkpt lat="47.535095" lon="2.038039">
        <ele>150.0</ele>
        <time>2022-02-27T10:47:12Z</time>
      </trkpt>
      <trkpt lat="47.535107" lon="2.0380456">
        <ele>149.0</ele>
        <time>2022-02-27T10:47:13Z</time>
      </trkpt>
      <trkpt lat="47.53512" lon="2.038053">
        <ele>149.0</ele>
        <time>2022-02-27T10:47:14Z</time>
      </trkpt>
      <trkpt lat="47.53513" lon="2.0380492">
        <ele>149.0</ele>
        <time>2022-02-27T10:47:15Z</time>
      </trkpt>
      <trkpt lat="47.535145" lon="2.03805">
        <ele>148.0</ele>
        <time>2022-02-27T10:47:16Z</time>
      </trkpt>
      <trkpt lat="47.53516" lon="2.0380476">
        <ele>148.0</ele>
        <time>2022-02-27T10:47:17Z</time>
      </trkpt>
      <trkpt lat="47.53517" lon="2.0380447">
        <ele>148.0</ele>
        <time>2022-02-27T10:47:18Z</time>
      </trkpt>
      <trkpt lat="47.535187" lon="2.0380442">
        <ele>148.0</ele>
        <time>2022-02-27T10:47:19Z</time>
      </trkpt>
      <trkpt lat="47.5352" lon="2.0380414">
        <ele>148.0</ele>
        <time>2022-02-27T10:47:20Z</time>
      </trkpt>
      <trkpt lat="47.535213" lon="2.0380347">
        <ele>148.0</ele>
        <time>2022-02-27T10:47:21Z</time>
      </trkpt>
      <trkpt lat="47.535225" lon="2.0380297">
        <ele>148.0</ele>
        <time>2022-02-27T10:47:22Z</time>
      </trkpt>
      <trkpt lat="47.535236" lon="2.0380254">
        <ele>148.0</ele>
        <time>2022-02-27T10:47:23Z</time>
      </trkpt>
      <trkpt lat="47.535244" lon="2.0380201">
        <ele>148.0</ele>
        <time>2022-02-27T10:47:24Z</time>
      </trkpt>
      <trkpt lat="47.53525" lon="2.0380144">
        <ele>148.0</ele>
        <time>2022-02-27T10:47:25Z</time>
      </trkpt>
      <trkpt lat="47.535263" lon="2.0380073">
        <ele>148.0</ele>
        <time>2022-02-27T10:47:26Z</time>
      </trkpt>
      <trkpt lat="47.535275" lon="2.0379972">
        <ele>148.0</ele>
        <time>2022-02-27T10:47:27Z</time>
      </trkpt>
      <trkpt lat="47.535282" lon="2.0379875">
        <ele>148.0</ele>
        <time>2022-02-27T10:47:28Z</time>
      </trkpt>
      <trkpt lat="47.535294" lon="2.0379767">
        <ele>148.0</ele>
        <time>2022-02-27T10:47:29Z</time>
      </trkpt>
      <trkpt lat="47.535305" lon="2.0379703">
        <ele>148.0</ele>
        <time>2022-02-27T10:47:30Z</time>
      </trkpt>
      <trkpt lat="47.535316" lon="2.0379639">
        <ele>149.0</ele>
        <time>2022-02-27T10:47:31Z</time>
      </trkpt>
      <trkpt lat="47.535324" lon="2.037959">
        <ele>149.0</ele>
        <time>2022-02-27T10:47:32Z</time>
      </trkpt>
      <trkpt lat="47.53534" lon="2.037953">
        <ele>149.0</ele>
        <time>2022-02-27T10:47:33Z</time>
      </trkpt>
      <trkpt lat="47.53535" lon="2.0379446">
        <ele>149.0</ele>
        <time>2022-02-27T10:47:34Z</time>
      </trkpt>
      <trkpt lat="47.535362" lon="2.037936">
        <ele>149.0</ele>
        <time>2022-02-27T10:47:35Z</time>
      </trkpt>
      <trkpt lat="47.535378" lon="2.0379324">
        <ele>149.0</ele>
        <time>2022-02-27T10:47:36Z</time>
      </trkpt>
      <trkpt lat="47.535385" lon="2.0379267">
        <ele>149.0</ele>
        <time>2022-02-27T10:47:37Z</time>
      </trkpt>
      <trkpt lat="47.535397" lon="2.037919">
        <ele>149.0</ele>
        <time>2022-02-27T10:47:38Z</time>
      </trkpt>
      <trkpt lat="47.535408" lon="2.0379105">
        <ele>149.0</ele>
        <time>2022-02-27T10:47:39Z</time>
      </trkpt>
      <trkpt lat="47.535423" lon="2.0379014">
        <ele>149.0</ele>
        <time>2022-02-27T10:47:40Z</time>
      </trkpt>
      <trkpt lat="47.535435" lon="2.0378897">
        <ele>149.0</ele>
        <time>2022-02-27T10:47:41Z</time>
      </trkpt>
      <trkpt lat="47.535446" lon="2.0378785">
        <ele>149.0</ele>
        <time>2022-02-27T10:47:42Z</time>
      </trkpt>
      <trkpt lat="47.535458" lon="2.037866">
        <ele>148.0</ele>
        <time>2022-02-27T10:47:43Z</time>
      </trkpt>
      <trkpt lat="47.535465" lon="2.0378582">
        <ele>148.0</ele>
        <time>2022-02-27T10:47:44Z</time>
      </trkpt>
      <trkpt lat="47.535477" lon="2.037846">
        <ele>148.0</ele>
        <time>2022-02-27T10:47:45Z</time>
      </trkpt>
      <trkpt lat="47.535484" lon="2.0378332">
        <ele>148.0</ele>
        <time>2022-02-27T10:47:46Z</time>
      </trkpt>
      <trkpt lat="47.535496" lon="2.037819">
        <ele>147.0</ele>
        <time>2022-02-27T10:47:47Z</time>
      </trkpt>
      <trkpt lat="47.535507" lon="2.0378067">
        <ele>147.0</ele>
        <time>2022-02-27T10:47:48Z</time>
      </trkpt>
      <trkpt lat="47.535515" lon="2.0377972">
        <ele>147.0</ele>
        <time>2022-02-27T10:47:49Z</time>
      </trkpt>
      <trkpt lat="47.53553" lon="2.037794">
        <ele>147.0</ele>
        <time>2022-02-27T10:47:50Z</time>
      </trkpt>
      <trkpt lat="47.535538" lon="2.0377896">
        <ele>147.0</ele>
        <time>2022-02-27T10:47:51Z</time>
      </trkpt>
      <trkpt lat="47.53555" lon="2.037784">
        <ele>147.0</ele>
        <time>2022-02-27T10:47:52Z</time>
      </trkpt>
      <trkpt lat="47.535557" lon="2.0377815">
        <ele>147.0</ele>
        <time>2022-02-27T10:47:53Z</time>
      </trkpt>
      <trkpt lat="47.53557" lon="2.0377738">
        <ele>147.0</ele>
        <time>2022-02-27T10:47:54Z</time>
      </trkpt>
      <trkpt lat="47.53558" lon="2.03777">
        <ele>148.0</ele>
        <time>2022-02-27T10:47:55Z</time>
      </trkpt>
      <trkpt lat="47.53559" lon="2.037762">
        <ele>148.0</ele>
        <time>2022-02-27T10:47:56Z</time>
      </trkpt>
      <trkpt lat="47.535603" lon="2.0377595">
        <ele>148.0</ele>
        <time>2022-02-27T10:47:57Z</time>
      </trkpt>
      <trkpt lat="47.535618" lon="2.0377522">
        <ele>148.0</ele>
        <time>2022-02-27T10:47:58Z</time>
      </trkpt>
      <trkpt lat="47.53563" lon="2.0377452">
        <ele>148.0</ele>
        <time>2022-02-27T10:47:59Z</time>
      </trkpt>
      <trkpt lat="47.53564" lon="2.037737">
        <ele>148.0</ele>
        <time>2022-02-27T10:48:00Z</time>
      </trkpt>
      <trkpt lat="47.535652" lon="2.0377266">
        <ele>148.0</ele>
        <time>2022-02-27T10:48:01Z</time>
      </trkpt>
      <trkpt lat="47.535664" lon="2.037718">
        <ele>148.0</ele>
        <time>2022-02-27T10:48:02Z</time>
      </trkpt>
      <trkpt lat="47.535675" lon="2.037712">
        <ele>148.0</ele>
        <time>2022-02-27T10:48:03Z</time>
      </trkpt>
      <trkpt lat="47.53569" lon="2.0377069">
        <ele>149.0</ele>
        <time>2022-02-27T10:48:04Z</time>
      </trkpt>
      <trkpt lat="47.535698" lon="2.0376976">
        <ele>149.0</ele>
        <time>2022-02-27T10:48:05Z</time>
      </trkpt>
      <trkpt lat="47.53571" lon="2.0376885">
        <ele>149.0</ele>
        <time>2022-02-27T10:48:06Z</time>
      </trkpt>
      <trkpt lat="47.53572" lon="2.037681">
        <ele>149.0</ele>
        <time>2022-02-27T10:48:07Z</time>
      </trkpt>
      <trkpt lat="47.535732" lon="2.0376713">
        <ele>149.0</ele>
        <time>2022-02-27T10:48:08Z</time>
      </trkpt>
      <trkpt lat="47.535744" lon="2.0376644">
        <ele>149.0</ele>
        <time>2022-02-27T10:48:09Z</time>
      </trkpt>
      <trkpt lat="47.535755" lon="2.0376573">
        <ele>148.0</ele>
        <time>2022-02-27T10:48:10Z</time>
      </trkpt>
      <trkpt lat="47.535763" lon="2.03765">
        <ele>148.0</ele>
        <time>2022-02-27T10:48:11Z</time>
      </trkpt>
      <trkpt lat="47.535774" lon="2.0376403">
        <ele>148.0</ele>
        <time>2022-02-27T10:48:12Z</time>
      </trkpt>
      <trkpt lat="47.535786" lon="2.0376334">
        <ele>148.0</ele>
        <time>2022-02-27T10:48:13Z</time>
      </trkpt>
      <trkpt lat="47.5358" lon="2.0376272">
        <ele>148.0</ele>
        <time>2022-02-27T10:48:14Z</time>
      </trkpt>
      <trkpt lat="47.535812" lon="2.0376189">
        <ele>149.0</ele>
        <time>2022-02-27T10:48:15Z</time>
      </trkpt>
      <trkpt lat="47.535828" lon="2.0376089">
        <ele>149.0</ele>
        <time>2022-02-27T10:48:16Z</time>
      </trkpt>
      <trkpt lat="47.53584" lon="2.0376027">
        <ele>149.0</ele>
        <time>2022-02-27T10:48:17Z</time>
      </trkpt>
      <trkpt lat="47.535854" lon="2.037595">
        <ele>149.0</ele>
        <time>2022-02-27T10:48:18Z</time>
      </trkpt>
      <trkpt lat="47.535866" lon="2.03759">
        <ele>149.0</ele>
        <time>2022-02-27T10:48:19Z</time>
      </trkpt>
      <trkpt lat="47.535877" lon="2.0375865">
        <ele>149.0</ele>
        <time>2022-02-27T10:48:20Z</time>
      </trkpt>
      <trkpt lat="47.53589" lon="2.0375836">
        <ele>148.0</ele>
        <time>2022-02-27T10:48:21Z</time>
      </trkpt>
      <trkpt lat="47.5359" lon="2.0375752">
        <ele>148.0</ele>
        <time>2022-02-27T10:48:22Z</time>
      </trkpt>
      <trkpt lat="47.53591" lon="2.037568">
        <ele>148.0</ele>
        <time>2022-02-27T10:48:23Z</time>
      </trkpt>
      <trkpt lat="47.535923" lon="2.0375607">
        <ele>148.0</ele>
        <time>2022-02-27T10:48:24Z</time>
      </trkpt>
      <trkpt lat="47.535934" lon="2.0375557">
        <ele>147.0</ele>
        <time>2022-02-27T10:48:25Z</time>
      </trkpt>
      <trkpt lat="47.535942" lon="2.0375485">
        <ele>147.0</ele>
        <time>2022-02-27T10:48:26Z</time>
      </trkpt>
      <trkpt lat="47.535954" lon="2.0375407">
        <ele>147.0</ele>
        <time>2022-02-27T10:48:27Z</time>
      </trkpt>
      <trkpt lat="47.535965" lon="2.0375373">
        <ele>147.0</ele>
        <time>2022-02-27T10:48:28Z</time>
      </trkpt>
      <trkpt lat="47.535976" lon="2.0375319">
        <ele>147.0</ele>
        <time>2022-02-27T10:48:29Z</time>
      </trkpt>
      <trkpt lat="47.535988" lon="2.0375252">
        <ele>147.0</ele>
        <time>2022-02-27T10:48:30Z</time>
      </trkpt>
      <trkpt lat="47.536003" lon="2.0375197">
        <ele>147.0</ele>
        <time>2022-02-27T10:48:31Z</time>
      </trkpt>
      <trkpt lat="47.536015" lon="2.0375164">
        <ele>147.0</ele>
        <time>2022-02-27T10:48:32Z</time>
      </trkpt>
      <trkpt lat="47.536022" lon="2.0375085">
        <ele>147.0</ele>
        <time>2022-02-27T10:48:33Z</time>
      </trkpt>
      <trkpt lat="47.536034" lon="2.0375009">
        <ele>148.0</ele>
        <time>2022-02-27T10:48:34Z</time>
      </trkpt>
      <trkpt lat="47.536045" lon="2.037494">
        <ele>148.0</ele>
        <time>2022-02-27T10:48:35Z</time>
      </trkpt>
      <trkpt lat="47.53606" lon="2.0374873">
        <ele>148.0</ele>
        <time>2022-02-27T10:48:36Z</time>
      </trkpt>
      <trkpt lat="47.53607" lon="2.0374806">
        <ele>148.0</ele>
        <time>2022-02-27T10:48:37Z</time>
      </trkpt>
      <trkpt lat="47.53608" lon="2.0374777">
        <ele>148.0</ele>
        <time>2022-02-27T10:48:38Z</time>
      </trkpt>
      <trkpt lat="47.536087" lon="2.0374784">
        <ele>148.0</ele>
        <time>2022-02-27T10:48:39Z</time>
      </trkpt>
      <trkpt lat="47.5361" lon="2.0374768">
        <ele>148.0</ele>
        <time>2022-02-27T10:48:40Z</time>
      </trkpt>
      <trkpt lat="47.53611" lon="2.037476">
        <ele>147.0</ele>
        <time>2022-02-27T10:48:41Z</time>
      </trkpt>
      <trkpt lat="47.53612" lon="2.037478">
        <ele>147.0</ele>
        <time>2022-02-27T10:48:42Z</time>
      </trkpt>
      <trkpt lat="47.536133" lon="2.037477">
        <ele>147.0</ele>
        <time>2022-02-27T10:48:43Z</time>
      </trkpt>
      <trkpt lat="47.536144" lon="2.0374727">
        <ele>147.0</ele>
        <time>2022-02-27T10:48:44Z</time>
      </trkpt>
      <trkpt lat="47.53616" lon="2.0374694">
        <ele>147.0</ele>
        <time>2022-02-27T10:48:45Z</time>
      </trkpt>
      <trkpt lat="47.53617" lon="2.0374632">
        <ele>147.0</ele>
        <time>2022-02-27T10:48:46Z</time>
      </trkpt>
      <trkpt lat="47.53618" lon="2.0374594">
        <ele>147.0</ele>
        <time>2022-02-27T10:48:47Z</time>
      </trkpt>
      <trkpt lat="47.536186" lon="2.0374618">
        <ele>146.0</ele>
        <time>2022-02-27T10:48:48Z</time>
      </trkpt>
      <trkpt lat="47.53619" lon="2.0374663">
        <ele>146.0</ele>
        <time>2022-02-27T10:48:49Z</time>
      </trkpt>
      <trkpt lat="47.536198" lon="2.0374775">
        <ele>145.0</ele>
        <time>2022-02-27T10:48:50Z</time>
      </trkpt>
      <trkpt lat="47.5362" lon="2.0374858">
        <ele>145.0</ele>
        <time>2022-02-27T10:48:51Z</time>
      </trkpt>
      <trkpt lat="47.536205" lon="2.0374882">
        <ele>145.0</ele>
        <time>2022-02-27T10:48:52Z</time>
      </trkpt>
      <trkpt lat="47.536213" lon="2.0374942">
        <ele>145.0</ele>
        <time>2022-02-27T10:48:53Z</time>
      </trkpt>
      <trkpt lat="47.53622" lon="2.0375042">
        <ele>144.0</ele>
        <time>2022-02-27T10:48:54Z</time>
      </trkpt>
      <trkpt lat="47.536232" lon="2.0375116">
        <ele>144.0</ele>
        <time>2022-02-27T10:48:55Z</time>
      </trkpt>
      <trkpt lat="47.536243" lon="2.0375218">
        <ele>144.0</ele>
        <time>2022-02-27T10:48:56Z</time>
      </trkpt>
      <trkpt lat="47.53626" lon="2.0375276">
        <ele>144.0</ele>
        <time>2022-02-27T10:48:57Z</time>
      </trkpt>
      <trkpt lat="47.536263" lon="2.037538">
        <ele>144.0</ele>
        <time>2022-02-27T10:48:58Z</time>
      </trkpt>
      <trkpt lat="47.536278" lon="2.037544">
        <ele>145.0</ele>
        <time>2022-02-27T10:48:59Z</time>
      </trkpt>
      <trkpt lat="47.53629" lon="2.0375593">
        <ele>144.0</ele>
        <time>2022-02-27T10:49:00Z</time>
      </trkpt>
      <trkpt lat="47.536304" lon="2.0375764">
        <ele>145.0</ele>
        <time>2022-02-27T10:49:01Z</time>
      </trkpt>
      <trkpt lat="47.536312" lon="2.0375957">
        <ele>145.0</ele>
        <time>2022-02-27T10:49:02Z</time>
      </trkpt>
      <trkpt lat="47.536316" lon="2.0376112">
        <ele>145.0</ele>
        <time>2022-02-27T10:49:03Z</time>
      </trkpt>
      <trkpt lat="47.536324" lon="2.0376234">
        <ele>145.0</ele>
        <time>2022-02-27T10:49:04Z</time>
      </trkpt>
      <trkpt lat="47.536335" lon="2.0376348">
        <ele>146.0</ele>
        <time>2022-02-27T10:49:05Z</time>
      </trkpt>
      <trkpt lat="47.53635" lon="2.0376472">
        <ele>147.0</ele>
        <time>2022-02-27T10:49:06Z</time>
      </trkpt>
      <trkpt lat="47.536358" lon="2.037659">
        <ele>148.0</ele>
        <time>2022-02-27T10:49:07Z</time>
      </trkpt>
      <trkpt lat="47.53637" lon="2.0376675">
        <ele>149.0</ele>
        <time>2022-02-27T10:49:08Z</time>
      </trkpt>
      <trkpt lat="47.53638" lon="2.0376778">
        <ele>150.0</ele>
        <time>2022-02-27T10:49:09Z</time>
      </trkpt>
      <trkpt lat="47.536392" lon="2.0376894">
        <ele>150.0</ele>
        <time>2022-02-27T10:49:10Z</time>
      </trkpt>
      <trkpt lat="47.536404" lon="2.0377">
        <ele>151.0</ele>
        <time>2022-02-27T10:49:11Z</time>
      </trkpt>
      <trkpt lat="47.53641" lon="2.0377102">
        <ele>151.0</ele>
        <time>2022-02-27T10:49:12Z</time>
      </trkpt>
      <trkpt lat="47.53642" lon="2.0377195">
        <ele>152.0</ele>
        <time>2022-02-27T10:49:13Z</time>
      </trkpt>
      <trkpt lat="47.536423" lon="2.0377288">
        <ele>152.0</ele>
        <time>2022-02-27T10:49:14Z</time>
      </trkpt>
      <trkpt lat="47.53643" lon="2.0377402">
        <ele>152.0</ele>
        <time>2022-02-27T10:49:15Z</time>
      </trkpt>
      <trkpt lat="47.536438" lon="2.0377536">
        <ele>153.0</ele>
        <time>2022-02-27T10:49:16Z</time>
      </trkpt>
      <trkpt lat="47.536446" lon="2.037765">
        <ele>153.0</ele>
        <time>2022-02-27T10:49:17Z</time>
      </trkpt>
      <trkpt lat="47.536453" lon="2.03778">
        <ele>153.0</ele>
        <time>2022-02-27T10:49:18Z</time>
      </trkpt>
      <trkpt lat="47.53646" lon="2.0377936">
        <ele>153.0</ele>
        <time>2022-02-27T10:49:19Z</time>
      </trkpt>
      <trkpt lat="47.536472" lon="2.037803">
        <ele>153.0</ele>
        <time>2022-02-27T10:49:20Z</time>
      </trkpt>
      <trkpt lat="47.536484" lon="2.037808">
        <ele>153.0</ele>
        <time>2022-02-27T10:49:21Z</time>
      </trkpt>
      <trkpt lat="47.5365" lon="2.0378158">
        <ele>153.0</ele>
        <time>2022-02-27T10:49:22Z</time>
      </trkpt>
      <trkpt lat="47.53651" lon="2.0378203">
        <ele>153.0</ele>
        <time>2022-02-27T10:49:23Z</time>
      </trkpt>
      <trkpt lat="47.53652" lon="2.0378222">
        <ele>153.0</ele>
        <time>2022-02-27T10:49:24Z</time>
      </trkpt>
      <trkpt lat="47.53653" lon="2.0378256">
        <ele>153.0</ele>
        <time>2022-02-27T10:49:25Z</time>
      </trkpt>
      <trkpt lat="47.536537" lon="2.037829">
        <ele>153.0</ele>
        <time>2022-02-27T10:49:26Z</time>
      </trkpt>
      <trkpt lat="47.53655" lon="2.0378323">
        <ele>153.0</ele>
        <time>2022-02-27T10:49:27Z</time>
      </trkpt>
      <trkpt lat="47.53656" lon="2.0378299">
        <ele>153.0</ele>
        <time>2022-02-27T10:49:28Z</time>
      </trkpt>
      <trkpt lat="47.53657" lon="2.0378265">
        <ele>153.0</ele>
        <time>2022-02-27T10:49:29Z</time>
      </trkpt>
      <trkpt lat="47.536583" lon="2.037824">
        <ele>153.0</ele>
        <time>2022-02-27T10:49:30Z</time>
      </trkpt>
      <trkpt lat="47.536594" lon="2.0378222">
        <ele>153.0</ele>
        <time>2022-02-27T10:49:31Z</time>
      </trkpt>
      <trkpt lat="47.536613" lon="2.0378168">
        <ele>153.0</ele>
        <time>2022-02-27T10:49:32Z</time>
      </trkpt>
      <trkpt lat="47.536613" lon="2.0378168">
        <ele>153.0</ele>
        <time>2022-02-27T10:49:32Z</time>
      </trkpt>
      <trkpt lat="47.53664" lon="2.037808">
        <ele>153.0</ele>
        <time>2022-02-27T10:49:34Z</time>
      </trkpt>
      <trkpt lat="47.536648" lon="2.0377991">
        <ele>153.0</ele>
        <time>2022-02-27T10:49:35Z</time>
      </trkpt>
      <trkpt lat="47.53666" lon="2.0377963">
        <ele>153.0</ele>
        <time>2022-02-27T10:49:36Z</time>
      </trkpt>
      <trkpt lat="47.536667" lon="2.0377965">
        <ele>153.0</ele>
        <time>2022-02-27T10:49:37Z</time>
      </trkpt>
      <trkpt lat="47.53668" lon="2.0377946">
        <ele>152.0</ele>
        <time>2022-02-27T10:49:38Z</time>
      </trkpt>
      <trkpt lat="47.536694" lon="2.0377948">
        <ele>152.0</ele>
        <time>2022-02-27T10:49:39Z</time>
      </trkpt>
      <trkpt lat="47.53671" lon="2.0377932">
        <ele>152.0</ele>
        <time>2022-02-27T10:49:40Z</time>
      </trkpt>
      <trkpt lat="47.53672" lon="2.0377932">
        <ele>152.0</ele>
        <time>2022-02-27T10:49:41Z</time>
      </trkpt>
      <trkpt lat="47.536736" lon="2.0377882">
        <ele>153.0</ele>
        <time>2022-02-27T10:49:42Z</time>
      </trkpt>
      <trkpt lat="47.536747" lon="2.0377846">
        <ele>153.0</ele>
        <time>2022-02-27T10:49:43Z</time>
      </trkpt>
      <trkpt lat="47.536762" lon="2.037785">
        <ele>153.0</ele>
        <time>2022-02-27T10:49:44Z</time>
      </trkpt>
      <trkpt lat="47.536774" lon="2.0377848">
        <ele>153.0</ele>
        <time>2022-02-27T10:49:45Z</time>
      </trkpt>
      <trkpt lat="47.53678" lon="2.0377824">
        <ele>153.0</ele>
        <time>2022-02-27T10:49:46Z</time>
      </trkpt>
      <trkpt lat="47.536793" lon="2.0377808">
        <ele>153.0</ele>
        <time>2022-02-27T10:49:47Z</time>
      </trkpt>
      <trkpt lat="47.536804" lon="2.0377831">
        <ele>154.0</ele>
        <time>2022-02-27T10:49:48Z</time>
      </trkpt>
      <trkpt lat="47.536816" lon="2.0377855">
        <ele>154.0</ele>
        <time>2022-02-27T10:49:49Z</time>
      </trkpt>
      <trkpt lat="47.53683" lon="2.0377803">
        <ele>154.0</ele>
        <time>2022-02-27T10:49:50Z</time>
      </trkpt>
      <trkpt lat="47.536846" lon="2.037771">
        <ele>154.0</ele>
        <time>2022-02-27T10:49:51Z</time>
      </trkpt>
      <trkpt lat="47.536854" lon="2.0377645">
        <ele>154.0</ele>
        <time>2022-02-27T10:49:52Z</time>
      </trkpt>
      <trkpt lat="47.53686" lon="2.037759">
        <ele>154.0</ele>
        <time>2022-02-27T10:49:53Z</time>
      </trkpt>
      <trkpt lat="47.536873" lon="2.0377567">
        <ele>154.0</ele>
        <time>2022-02-27T10:49:54Z</time>
      </trkpt>
      <trkpt lat="47.53689" lon="2.0377564">
        <ele>154.0</ele>
        <time>2022-02-27T10:49:55Z</time>
      </trkpt>
      <trkpt lat="47.536896" lon="2.037748">
        <ele>154.0</ele>
        <time>2022-02-27T10:49:56Z</time>
      </trkpt>
      <trkpt lat="47.536907" lon="2.0377474">
        <ele>154.0</ele>
        <time>2022-02-27T10:49:57Z</time>
      </trkpt>
      <trkpt lat="47.536922" lon="2.0377467">
        <ele>154.0</ele>
        <time>2022-02-27T10:49:58Z</time>
      </trkpt>
      <trkpt lat="47.536934" lon="2.0377445">
        <ele>154.0</ele>
        <time>2022-02-27T10:49:59Z</time>
      </trkpt>
      <trkpt lat="47.536945" lon="2.0377338">
        <ele>154.0</ele>
        <time>2022-02-27T10:50:00Z</time>
      </trkpt>
      <trkpt lat="47.536957" lon="2.037729">
        <ele>154.0</ele>
        <time>2022-02-27T10:50:01Z</time>
      </trkpt>
      <trkpt lat="47.53697" lon="2.037723">
        <ele>155.0</ele>
        <time>2022-02-27T10:50:02Z</time>
      </trkpt>
      <trkpt lat="47.53698" lon="2.0377157">
        <ele>154.0</ele>
        <time>2022-02-27T10:50:03Z</time>
      </trkpt>
      <trkpt lat="47.536995" lon="2.0377142">
        <ele>155.0</ele>
        <time>2022-02-27T10:50:04Z</time>
      </trkpt>
      <trkpt lat="47.53701" lon="2.037711">
        <ele>155.0</ele>
        <time>2022-02-27T10:50:05Z</time>
      </trkpt>
      <trkpt lat="47.537018" lon="2.0377016">
        <ele>155.0</ele>
        <time>2022-02-27T10:50:06Z</time>
      </trkpt>
      <trkpt lat="47.53703" lon="2.0376983">
        <ele>156.0</ele>
        <time>2022-02-27T10:50:07Z</time>
      </trkpt>
      <trkpt lat="47.53704" lon="2.0376892">
        <ele>155.0</ele>
        <time>2022-02-27T10:50:08Z</time>
      </trkpt>
      <trkpt lat="47.537052" lon="2.0376878">
        <ele>155.0</ele>
        <time>2022-02-27T10:50:09Z</time>
      </trkpt>
      <trkpt lat="47.53706" lon="2.037689">
        <ele>155.0</ele>
        <time>2022-02-27T10:50:10Z</time>
      </trkpt>
      <trkpt lat="47.537067" lon="2.037687">
        <ele>155.0</ele>
        <time>2022-02-27T10:50:11Z</time>
      </trkpt>
      <trkpt lat="47.537075" lon="2.037687">
        <ele>154.0</ele>
        <time>2022-02-27T10:50:12Z</time>
      </trkpt>
      <trkpt lat="47.537086" lon="2.0376866">
        <ele>154.0</ele>
        <time>2022-02-27T10:50:13Z</time>
      </trkpt>
      <trkpt lat="47.5371" lon="2.0376914">
        <ele>153.0</ele>
        <time>2022-02-27T10:50:14Z</time>
      </trkpt>
      <trkpt lat="47.537117" lon="2.03769">
        <ele>153.0</ele>
        <time>2022-02-27T10:50:15Z</time>
      </trkpt>
      <trkpt lat="47.53713" lon="2.037694">
        <ele>153.0</ele>
        <time>2022-02-27T10:50:16Z</time>
      </trkpt>
      <trkpt lat="47.53714" lon="2.0376966">
        <ele>153.0</ele>
        <time>2022-02-27T10:50:17Z</time>
      </trkpt>
      <trkpt lat="47.537155" lon="2.037694">
        <ele>153.0</ele>
        <time>2022-02-27T10:50:18Z</time>
      </trkpt>
      <trkpt lat="47.53717" lon="2.0376925">
        <ele>153.0</ele>
        <time>2022-02-27T10:50:19Z</time>
      </trkpt>
      <trkpt lat="47.53718" lon="2.0376875">
        <ele>153.0</ele>
        <time>2022-02-27T10:50:20Z</time>
      </trkpt>
      <trkpt lat="47.537193" lon="2.0376868">
        <ele>153.0</ele>
        <time>2022-02-27T10:50:21Z</time>
      </trkpt>
      <trkpt lat="47.537205" lon="2.0376806">
        <ele>153.0</ele>
        <time>2022-02-27T10:50:22Z</time>
      </trkpt>
      <trkpt lat="47.53722" lon="2.0376756">
        <ele>153.0</ele>
        <time>2022-02-27T10:50:23Z</time>
      </trkpt>
      <trkpt lat="47.53723" lon="2.0376742">
        <ele>154.0</ele>
        <time>2022-02-27T10:50:24Z</time>
      </trkpt>
      <trkpt lat="47.53723" lon="2.0376747">
        <ele>154.0</ele>
        <time>2022-02-27T10:50:25Z</time>
      </trkpt>
      <trkpt lat="47.53724" lon="2.037671">
        <ele>153.0</ele>
        <time>2022-02-27T10:50:26Z</time>
      </trkpt>
      <trkpt lat="47.537254" lon="2.037667">
        <ele>153.0</ele>
        <time>2022-02-27T10:50:27Z</time>
      </trkpt>
      <trkpt lat="47.537266" lon="2.0376596">
        <ele>153.0</ele>
        <time>2022-02-27T10:50:28Z</time>
      </trkpt>
      <trkpt lat="47.537277" lon="2.0376525">
        <ele>153.0</ele>
        <time>2022-02-27T10:50:29Z</time>
      </trkpt>
      <trkpt lat="47.537285" lon="2.03765">
        <ele>153.0</ele>
        <time>2022-02-27T10:50:30Z</time>
      </trkpt>
      <trkpt lat="47.5373" lon="2.0376537">
        <ele>153.0</ele>
        <time>2022-02-27T10:50:31Z</time>
      </trkpt>
      <trkpt lat="47.53731" lon="2.0376482">
        <ele>152.0</ele>
        <time>2022-02-27T10:50:32Z</time>
      </trkpt>
      <trkpt lat="47.537323" lon="2.037641">
        <ele>152.0</ele>
        <time>2022-02-27T10:50:33Z</time>
      </trkpt>
      <trkpt lat="47.537334" lon="2.0376322">
        <ele>153.0</ele>
        <time>2022-02-27T10:50:34Z</time>
      </trkpt>
      <trkpt lat="47.537342" lon="2.0376277">
        <ele>153.0</ele>
        <time>2022-02-27T10:50:35Z</time>
      </trkpt>
      <trkpt lat="47.537357" lon="2.0376296">
        <ele>153.0</ele>
        <time>2022-02-27T10:50:36Z</time>
      </trkpt>
      <trkpt lat="47.537373" lon="2.0376282">
        <ele>153.0</ele>
        <time>2022-02-27T10:50:37Z</time>
      </trkpt>
      <trkpt lat="47.537384" lon="2.0376241">
        <ele>153.0</ele>
        <time>2022-02-27T10:50:38Z</time>
      </trkpt>
      <trkpt lat="47.537395" lon="2.037618">
        <ele>153.0</ele>
        <time>2022-02-27T10:50:39Z</time>
      </trkpt>
      <trkpt lat="47.537407" lon="2.03761">
        <ele>153.0</ele>
        <time>2022-02-27T10:50:40Z</time>
      </trkpt>
      <trkpt lat="47.53742" lon="2.037603">
        <ele>153.0</ele>
        <time>2022-02-27T10:50:41Z</time>
      </trkpt>
      <trkpt lat="47.537434" lon="2.037597">
        <ele>154.0</ele>
        <time>2022-02-27T10:50:42Z</time>
      </trkpt>
      <trkpt lat="47.53745" lon="2.0375955">
        <ele>154.0</ele>
        <time>2022-02-27T10:50:43Z</time>
      </trkpt>
      <trkpt lat="47.53746" lon="2.03759">
        <ele>154.0</ele>
        <time>2022-02-27T10:50:44Z</time>
      </trkpt>
      <trkpt lat="47.53747" lon="2.0375905">
        <ele>154.0</ele>
        <time>2022-02-27T10:50:45Z</time>
      </trkpt>
      <trkpt lat="47.537487" lon="2.0375886">
        <ele>154.0</ele>
        <time>2022-02-27T10:50:46Z</time>
      </trkpt>
      <trkpt lat="47.5375" lon="2.0375812">
        <ele>154.0</ele>
        <time>2022-02-27T10:50:47Z</time>
      </trkpt>
      <trkpt lat="47.537514" lon="2.0375733">
        <ele>154.0</ele>
        <time>2022-02-27T10:50:48Z</time>
      </trkpt>
      <trkpt lat="47.53753" lon="2.037569">
        <ele>154.0</ele>
        <time>2022-02-27T10:50:49Z</time>
      </trkpt>
      <trkpt lat="47.537544" lon="2.0375636">
        <ele>154.0</ele>
        <time>2022-02-27T10:50:50Z</time>
      </trkpt>
      <trkpt lat="47.537556" lon="2.037556">
        <ele>154.0</ele>
        <time>2022-02-27T10:50:51Z</time>
      </trkpt>
      <trkpt lat="47.537567" lon="2.0375514">
        <ele>153.0</ele>
        <time>2022-02-27T10:50:52Z</time>
      </trkpt>
      <trkpt lat="47.53758" lon="2.0375488">
        <ele>154.0</ele>
        <time>2022-02-27T10:50:53Z</time>
      </trkpt>
      <trkpt lat="47.537586" lon="2.0375507">
        <ele>154.0</ele>
        <time>2022-02-27T10:50:54Z</time>
      </trkpt>
      <trkpt lat="47.537598" lon="2.0375457">
        <ele>154.0</ele>
        <time>2022-02-27T10:50:55Z</time>
      </trkpt>
      <trkpt lat="47.53761" lon="2.0375443">
        <ele>153.0</ele>
        <time>2022-02-27T10:50:56Z</time>
      </trkpt>
      <trkpt lat="47.53762" lon="2.0375397">
        <ele>153.0</ele>
        <time>2022-02-27T10:50:57Z</time>
      </trkpt>
      <trkpt lat="47.53763" lon="2.0375369">
        <ele>153.0</ele>
        <time>2022-02-27T10:50:58Z</time>
      </trkpt>
      <trkpt lat="47.53764" lon="2.0375328">
        <ele>153.0</ele>
        <time>2022-02-27T10:50:59Z</time>
      </trkpt>
      <trkpt lat="47.53765" lon="2.0375273">
        <ele>153.0</ele>
        <time>2022-02-27T10:51:00Z</time>
      </trkpt>
      <trkpt lat="47.537663" lon="2.0375223">
        <ele>153.0</ele>
        <time>2022-02-27T10:51:01Z</time>
      </trkpt>
      <trkpt lat="47.537678" lon="2.0375159">
        <ele>153.0</ele>
        <time>2022-02-27T10:51:02Z</time>
      </trkpt>
      <trkpt lat="47.53769" lon="2.0375116">
        <ele>153.0</ele>
        <time>2022-02-27T10:51:03Z</time>
      </trkpt>
      <trkpt lat="47.537704" lon="2.0375056">
        <ele>153.0</ele>
        <time>2022-02-27T10:51:04Z</time>
      </trkpt>
      <trkpt lat="47.537712" lon="2.0375013">
        <ele>153.0</ele>
        <time>2022-02-27T10:51:05Z</time>
      </trkpt>
      <trkpt lat="47.53772" lon="2.0374944">
        <ele>153.0</ele>
        <time>2022-02-27T10:51:06Z</time>
      </trkpt>
      <trkpt lat="47.53773" lon="2.0374906">
        <ele>153.0</ele>
        <time>2022-02-27T10:51:07Z</time>
      </trkpt>
      <trkpt lat="47.537743" lon="2.0374854">
        <ele>152.0</ele>
        <time>2022-02-27T10:51:08Z</time>
      </trkpt>
      <trkpt lat="47.537754" lon="2.0374775">
        <ele>152.0</ele>
        <time>2022-02-27T10:51:09Z</time>
      </trkpt>
      <trkpt lat="47.53777" lon="2.03748">
        <ele>152.0</ele>
        <time>2022-02-27T10:51:10Z</time>
      </trkpt>
      <trkpt lat="47.53778" lon="2.0374777">
        <ele>152.0</ele>
        <time>2022-02-27T10:51:11Z</time>
      </trkpt>
      <trkpt lat="47.537792" lon="2.0374746">
        <ele>153.0</ele>
        <time>2022-02-27T10:51:12Z</time>
      </trkpt>
      <trkpt lat="47.537804" lon="2.0374703">
        <ele>153.0</ele>
        <time>2022-02-27T10:51:13Z</time>
      </trkpt>
      <trkpt lat="47.537815" lon="2.0374732">
        <ele>153.0</ele>
        <time>2022-02-27T10:51:14Z</time>
      </trkpt>
      <trkpt lat="47.537827" lon="2.0374732">
        <ele>153.0</ele>
        <time>2022-02-27T10:51:15Z</time>
      </trkpt>
      <trkpt lat="47.537838" lon="2.037469">
        <ele>153.0</ele>
        <time>2022-02-27T10:51:16Z</time>
      </trkpt>
      <trkpt lat="47.537853" lon="2.037468">
        <ele>153.0</ele>
        <time>2022-02-27T10:51:17Z</time>
      </trkpt>
      <trkpt lat="47.53786" lon="2.0374625">
        <ele>153.0</ele>
        <time>2022-02-27T10:51:18Z</time>
      </trkpt>
      <trkpt lat="47.537872" lon="2.0374594">
        <ele>153.0</ele>
        <time>2022-02-27T10:51:19Z</time>
      </trkpt>
      <trkpt lat="47.537884" lon="2.0374517">
        <ele>153.0</ele>
        <time>2022-02-27T10:51:20Z</time>
      </trkpt>
      <trkpt lat="47.537895" lon="2.037447">
        <ele>153.0</ele>
        <time>2022-02-27T10:51:21Z</time>
      </trkpt>
      <trkpt lat="47.537907" lon="2.0374434">
        <ele>153.0</ele>
        <time>2022-02-27T10:51:22Z</time>
      </trkpt>
      <trkpt lat="47.537914" lon="2.0374389">
        <ele>154.0</ele>
        <time>2022-02-27T10:51:23Z</time>
      </trkpt>
      <trkpt lat="47.537926" lon="2.0374362">
        <ele>154.0</ele>
        <time>2022-02-27T10:51:24Z</time>
      </trkpt>
      <trkpt lat="47.53794" lon="2.0374339">
        <ele>154.0</ele>
        <time>2022-02-27T10:51:25Z</time>
      </trkpt>
      <trkpt lat="47.537952" lon="2.0374248">
        <ele>154.0</ele>
        <time>2022-02-27T10:51:26Z</time>
      </trkpt>
      <trkpt lat="47.53796" lon="2.0374155">
        <ele>154.0</ele>
        <time>2022-02-27T10:51:27Z</time>
      </trkpt>
      <trkpt lat="47.537968" lon="2.0374072">
        <ele>154.0</ele>
        <time>2022-02-27T10:51:28Z</time>
      </trkpt>
      <trkpt lat="47.537975" lon="2.0373967">
        <ele>154.0</ele>
        <time>2022-02-27T10:51:29Z</time>
      </trkpt>
      <trkpt lat="47.53799" lon="2.0373847">
        <ele>154.0</ele>
        <time>2022-02-27T10:51:30Z</time>
      </trkpt>
      <trkpt lat="47.538006" lon="2.0373738">
        <ele>154.0</ele>
        <time>2022-02-27T10:51:31Z</time>
      </trkpt>
      <trkpt lat="47.538013" lon="2.0373626">
        <ele>154.0</ele>
        <time>2022-02-27T10:51:32Z</time>
      </trkpt>
      <trkpt lat="47.53803" lon="2.0373507">
        <ele>154.0</ele>
        <time>2022-02-27T10:51:33Z</time>
      </trkpt>
      <trkpt lat="47.53804" lon="2.0373373">
        <ele>154.0</ele>
        <time>2022-02-27T10:51:34Z</time>
      </trkpt>
      <trkpt lat="47.53805" lon="2.0373235">
        <ele>154.0</ele>
        <time>2022-02-27T10:51:35Z</time>
      </trkpt>
      <trkpt lat="47.53806" lon="2.0373116">
        <ele>154.0</ele>
        <time>2022-02-27T10:51:36Z</time>
      </trkpt>
      <trkpt lat="47.53807" lon="2.0372992">
        <ele>154.0</ele>
        <time>2022-02-27T10:51:37Z</time>
      </trkpt>
      <trkpt lat="47.53808" lon="2.037288">
        <ele>154.0</ele>
        <time>2022-02-27T10:51:38Z</time>
      </trkpt>
      <trkpt lat="47.53809" lon="2.0372825">
        <ele>155.0</ele>
        <time>2022-02-27T10:51:39Z</time>
      </trkpt>
      <trkpt lat="47.5381" lon="2.0372765">
        <ele>155.0</ele>
        <time>2022-02-27T10:51:40Z</time>
      </trkpt>
      <trkpt lat="47.53811" lon="2.0372646">
        <ele>156.0</ele>
        <time>2022-02-27T10:51:41Z</time>
      </trkpt>
      <trkpt lat="47.538116" lon="2.0372531">
        <ele>156.0</ele>
        <time>2022-02-27T10:51:42Z</time>
      </trkpt>
      <trkpt lat="47.53812" lon="2.0372436">
        <ele>155.0</ele>
        <time>2022-02-27T10:51:43Z</time>
      </trkpt>
      <trkpt lat="47.538128" lon="2.0372305">
        <ele>155.0</ele>
        <time>2022-02-27T10:51:44Z</time>
      </trkpt>
      <trkpt lat="47.53814" lon="2.0372176">
        <ele>156.0</ele>
        <time>2022-02-27T10:51:45Z</time>
      </trkpt>
      <trkpt lat="47.53815" lon="2.0372066">
        <ele>156.0</ele>
        <time>2022-02-27T10:51:46Z</time>
      </trkpt>
      <trkpt lat="47.538162" lon="2.037198">
        <ele>156.0</ele>
        <time>2022-02-27T10:51:47Z</time>
      </trkpt>
      <trkpt lat="47.538174" lon="2.0371866">
        <ele>156.0</ele>
        <time>2022-02-27T10:51:48Z</time>
      </trkpt>
      <trkpt lat="47.538185" lon="2.0371716">
        <ele>156.0</ele>
        <time>2022-02-27T10:51:49Z</time>
      </trkpt>
      <trkpt lat="47.538193" lon="2.0371609">
        <ele>157.0</ele>
        <time>2022-02-27T10:51:50Z</time>
      </trkpt>
      <trkpt lat="47.538208" lon="2.0371466">
        <ele>157.0</ele>
        <time>2022-02-27T10:51:51Z</time>
      </trkpt>
      <trkpt lat="47.53822" lon="2.0371332">
        <ele>157.0</ele>
        <time>2022-02-27T10:51:52Z</time>
      </trkpt>
      <trkpt lat="47.53823" lon="2.037123">
        <ele>157.0</ele>
        <time>2022-02-27T10:51:53Z</time>
      </trkpt>
      <trkpt lat="47.538242" lon="2.0371163">
        <ele>157.0</ele>
        <time>2022-02-27T10:51:54Z</time>
      </trkpt>
      <trkpt lat="47.538246" lon="2.037105">
        <ele>157.0</ele>
        <time>2022-02-27T10:51:55Z</time>
      </trkpt>
      <trkpt lat="47.538258" lon="2.0370967">
        <ele>158.0</ele>
        <time>2022-02-27T10:51:56Z</time>
      </trkpt>
      <trkpt lat="47.538265" lon="2.0370836">
        <ele>158.0</ele>
        <time>2022-02-27T10:51:57Z</time>
      </trkpt>
      <trkpt lat="47.538277" lon="2.0370677">
        <ele>158.0</ele>
        <time>2022-02-27T10:51:58Z</time>
      </trkpt>
      <trkpt lat="47.53829" lon="2.0370536">
        <ele>157.0</ele>
        <time>2022-02-27T10:51:59Z</time>
      </trkpt>
      <trkpt lat="47.5383" lon="2.037039">
        <ele>157.0</ele>
        <time>2022-02-27T10:52:00Z</time>
      </trkpt>
      <trkpt lat="47.53831" lon="2.0370278">
        <ele>158.0</ele>
        <time>2022-02-27T10:52:01Z</time>
      </trkpt>
      <trkpt lat="47.538315" lon="2.037018">
        <ele>157.0</ele>
        <time>2022-02-27T10:52:02Z</time>
      </trkpt>
      <trkpt lat="47.538322" lon="2.0370102">
        <ele>158.0</ele>
        <time>2022-02-27T10:52:03Z</time>
      </trkpt>
      <trkpt lat="47.538334" lon="2.0369954">
        <ele>158.0</ele>
        <time>2022-02-27T10:52:04Z</time>
      </trkpt>
      <trkpt lat="47.538345" lon="2.0369835">
        <ele>158.0</ele>
        <time>2022-02-27T10:52:05Z</time>
      </trkpt>
      <trkpt lat="47.538353" lon="2.0369706">
        <ele>158.0</ele>
        <time>2022-02-27T10:52:06Z</time>
      </trkpt>
      <trkpt lat="47.53836" lon="2.036959">
        <ele>158.0</ele>
        <time>2022-02-27T10:52:07Z</time>
      </trkpt>
      <trkpt lat="47.53837" lon="2.0369475">
        <ele>158.0</ele>
        <time>2022-02-27T10:52:08Z</time>
      </trkpt>
      <trkpt lat="47.538376" lon="2.0369344">
        <ele>157.0</ele>
        <time>2022-02-27T10:52:09Z</time>
      </trkpt>
      <trkpt lat="47.538387" lon="2.0369196">
        <ele>157.0</ele>
        <time>2022-02-27T10:52:10Z</time>
      </trkpt>
      <trkpt lat="47.5384" lon="2.0369132">
        <ele>157.0</ele>
        <time>2022-02-27T10:52:11Z</time>
      </trkpt>
      <trkpt lat="47.538403" lon="2.0369008">
        <ele>157.0</ele>
        <time>2022-02-27T10:52:12Z</time>
      </trkpt>
      <trkpt lat="47.53841" lon="2.0368953">
        <ele>157.0</ele>
        <time>2022-02-27T10:52:13Z</time>
      </trkpt>
      <trkpt lat="47.538418" lon="2.036884">
        <ele>157.0</ele>
        <time>2022-02-27T10:52:14Z</time>
      </trkpt>
      <trkpt lat="47.53843" lon="2.0368736">
        <ele>157.0</ele>
        <time>2022-02-27T10:52:15Z</time>
      </trkpt>
      <trkpt lat="47.538437" lon="2.0368624">
        <ele>156.0</ele>
        <time>2022-02-27T10:52:16Z</time>
      </trkpt>
      <trkpt lat="47.538445" lon="2.036851">
        <ele>156.0</ele>
        <time>2022-02-27T10:52:17Z</time>
      </trkpt>
      <trkpt lat="47.538452" lon="2.0368388">
        <ele>155.0</ele>
        <time>2022-02-27T10:52:18Z</time>
      </trkpt>
      <trkpt lat="47.538452" lon="2.0368237">
        <ele>155.0</ele>
        <time>2022-02-27T10:52:19Z</time>
      </trkpt>
      <trkpt lat="47.538456" lon="2.0368102">
        <ele>155.0</ele>
        <time>2022-02-27T10:52:20Z</time>
      </trkpt>
      <trkpt lat="47.538456" lon="2.0367982">
        <ele>154.0</ele>
        <time>2022-02-27T10:52:21Z</time>
      </trkpt>
      <trkpt lat="47.538456" lon="2.03679">
        <ele>154.0</ele>
        <time>2022-02-27T10:52:22Z</time>
      </trkpt>
      <trkpt lat="47.538456" lon="2.0367763">
        <ele>155.0</ele>
        <time>2022-02-27T10:52:23Z</time>
      </trkpt>
      <trkpt lat="47.538452" lon="2.0367627">
        <ele>155.0</ele>
        <time>2022-02-27T10:52:24Z</time>
      </trkpt>
      <trkpt lat="47.538452" lon="2.0367475">
        <ele>155.0</ele>
        <time>2022-02-27T10:52:25Z</time>
      </trkpt>
      <trkpt lat="47.538452" lon="2.036728">
        <ele>154.0</ele>
        <time>2022-02-27T10:52:26Z</time>
      </trkpt>
      <trkpt lat="47.53845" lon="2.03671">
        <ele>154.0</ele>
        <time>2022-02-27T10:52:27Z</time>
      </trkpt>
      <trkpt lat="47.538445" lon="2.036697">
        <ele>154.0</ele>
        <time>2022-02-27T10:52:28Z</time>
      </trkpt>
      <trkpt lat="47.53844" lon="2.0366845">
        <ele>154.0</ele>
        <time>2022-02-27T10:52:29Z</time>
      </trkpt>
      <trkpt lat="47.53844" lon="2.0366724">
        <ele>154.0</ele>
        <time>2022-02-27T10:52:30Z</time>
      </trkpt>
      <trkpt lat="47.538437" lon="2.03666">
        <ele>154.0</ele>
        <time>2022-02-27T10:52:31Z</time>
      </trkpt>
      <trkpt lat="47.538433" lon="2.036647">
        <ele>154.0</ele>
        <time>2022-02-27T10:52:32Z</time>
      </trkpt>
      <trkpt lat="47.53843" lon="2.0366364">
        <ele>154.0</ele>
        <time>2022-02-27T10:52:33Z</time>
      </trkpt>
      <trkpt lat="47.53843" lon="2.0366254">
        <ele>154.0</ele>
        <time>2022-02-27T10:52:34Z</time>
      </trkpt>
      <trkpt lat="47.538425" lon="2.0366101">
        <ele>154.0</ele>
        <time>2022-02-27T10:52:35Z</time>
      </trkpt>
      <trkpt lat="47.538418" lon="2.0365953">
        <ele>154.0</ele>
        <time>2022-02-27T10:52:36Z</time>
      </trkpt>
      <trkpt lat="47.538414" lon="2.03658">
        <ele>155.0</ele>
        <time>2022-02-27T10:52:37Z</time>
      </trkpt>
      <trkpt lat="47.538406" lon="2.036567">
        <ele>155.0</ele>
        <time>2022-02-27T10:52:38Z</time>
      </trkpt>
      <trkpt lat="47.538403" lon="2.0365553">
        <ele>155.0</ele>
        <time>2022-02-27T10:52:39Z</time>
      </trkpt>
      <trkpt lat="47.5384" lon="2.036546">
        <ele>155.0</ele>
        <time>2022-02-27T10:52:40Z</time>
      </trkpt>
      <trkpt lat="47.53839" lon="2.036537">
        <ele>155.0</ele>
        <time>2022-02-27T10:52:41Z</time>
      </trkpt>
      <trkpt lat="47.538383" lon="2.0365386">
        <ele>156.0</ele>
        <time>2022-02-27T10:52:42Z</time>
      </trkpt>
      <trkpt lat="47.538372" lon="2.036537">
        <ele>156.0</ele>
        <time>2022-02-27T10:52:43Z</time>
      </trkpt>
      <trkpt lat="47.538357" lon="2.0365348">
        <ele>155.0</ele>
        <time>2022-02-27T10:52:44Z</time>
      </trkpt>
      <trkpt lat="47.53835" lon="2.0365295">
        <ele>155.0</ele>
        <time>2022-02-27T10:52:45Z</time>
      </trkpt>
      <trkpt lat="47.538345" lon="2.036529">
        <ele>155.0</ele>
        <time>2022-02-27T10:52:46Z</time>
      </trkpt>
      <trkpt lat="47.538338" lon="2.0365367">
        <ele>155.0</ele>
        <time>2022-02-27T10:52:47Z</time>
      </trkpt>
      <trkpt lat="47.53833" lon="2.0365477">
        <ele>156.0</ele>
        <time>2022-02-27T10:52:48Z</time>
      </trkpt>
      <trkpt lat="47.538322" lon="2.0365508">
        <ele>156.0</ele>
        <time>2022-02-27T10:52:49Z</time>
      </trkpt>
      <trkpt lat="47.53832" lon="2.0365546">
        <ele>156.0</ele>
        <time>2022-02-27T10:52:50Z</time>
      </trkpt>
      <trkpt lat="47.538322" lon="2.0365543">
        <ele>157.0</ele>
        <time>2022-02-27T10:52:51Z</time>
      </trkpt>
      <trkpt lat="47.538322" lon="2.036563">
        <ele>157.0</ele>
        <time>2022-02-27T10:52:52Z</time>
      </trkpt>
      <trkpt lat="47.538322" lon="2.036563">
        <ele>157.0</ele>
        <time>2022-02-27T10:52:52Z</time>
      </trkpt>
      <trkpt lat="47.538322" lon="2.036563">
        <ele>157.0</ele>
        <time>2022-02-27T10:52:52Z</time>
      </trkpt>
    </trkseg>
  </trk>
  <exerciseinfo>
    <exercisetype>1001</exercisetype>
    <distance>7843.98</distance>
    <elevationgain>0.0</elevationgain>
    <avggradient>-0.10055101146943517</avggradient>
    <duration>6108955</duration>
    <avgspeed>1.2848468</avgspeed>
  </exerciseinfo>
</gpx>